<?xml version="1.0" encoding="UTF-8" standalone="no" ?>
<gpx xmlns="http://www.topografix.com/GPX/1/1" xmlns:xsi="http://www.w3.org/2001/XMLSchema-instance" xsi:schemaLocation="http://www.topografix.com/GPX/1/1 http://www.topografix.com/GPX/1/1/gpx.xsd" version="1.1" creator="VisuGPX - https://www.visugpx.com">
  <metadata>
    <name>Petit Bargy par le reposoire</name>
    <desc><![CDATA[Le Reposoir -> Tête des Bécus -> Petit Bargy -> col de l'Encrenaz -> Le Reposoir]]></desc>
  </metadata>
  <trk>
    <name><![CDATA[Le Reposoir Randonnée pédestre]]></name>
    <trkseg>
      <trkpt lat="46.01466" lon="6.5322">
        <ele>1255</ele>
        <time>2019-10-13T11:12:57.000Z</time>
      </trkpt>
      <trkpt lat="46.01469" lon="6.53221">
        <ele>1255.1999511719</ele>
        <time>2019-10-13T11:13:00.000Z</time>
      </trkpt>
      <trkpt lat="46.01471" lon="6.53222">
        <ele>1255.8000488281</ele>
        <time>2019-10-13T11:13:02.000Z</time>
      </trkpt>
      <trkpt lat="46.01472" lon="6.53223">
        <ele>1256.4000244141</ele>
        <time>2019-10-13T11:13:04.000Z</time>
      </trkpt>
      <trkpt lat="46.01477" lon="6.53225">
        <ele>1256.8000488281</ele>
        <time>2019-10-13T11:13:08.000Z</time>
      </trkpt>
      <trkpt lat="46.01483" lon="6.5323">
        <ele>1256.8000488281</ele>
        <time>2019-10-13T11:13:13.000Z</time>
      </trkpt>
      <trkpt lat="46.01486" lon="6.53233">
        <ele>1256.8000488281</ele>
        <time>2019-10-13T11:13:15.000Z</time>
      </trkpt>
      <trkpt lat="46.01488" lon="6.53235">
        <ele>1257</ele>
        <time>2019-10-13T11:13:17.000Z</time>
      </trkpt>
      <trkpt lat="46.01491" lon="6.53237">
        <ele>1257.4000244141</ele>
        <time>2019-10-13T11:13:19.000Z</time>
      </trkpt>
      <trkpt lat="46.01496" lon="6.53242">
        <ele>1258.1999511719</ele>
        <time>2019-10-13T11:13:23.000Z</time>
      </trkpt>
      <trkpt lat="46.01498" lon="6.53244">
        <ele>1258.5999755859</ele>
        <time>2019-10-13T11:13:25.000Z</time>
      </trkpt>
      <trkpt lat="46.01504" lon="6.53248">
        <ele>1259.1999511719</ele>
        <time>2019-10-13T11:13:30.000Z</time>
      </trkpt>
      <trkpt lat="46.01507" lon="6.53249">
        <ele>1259.5999755859</ele>
        <time>2019-10-13T11:13:32.000Z</time>
      </trkpt>
      <trkpt lat="46.01513" lon="6.53255">
        <ele>1259.8000488281</ele>
        <time>2019-10-13T11:13:38.000Z</time>
      </trkpt>
      <trkpt lat="46.01518" lon="6.5326">
        <ele>1260.1999511719</ele>
        <time>2019-10-13T11:13:43.000Z</time>
      </trkpt>
      <trkpt lat="46.0152" lon="6.53262">
        <ele>1260.4000244141</ele>
        <time>2019-10-13T11:13:44.000Z</time>
      </trkpt>
      <trkpt lat="46.01521" lon="6.53263">
        <ele>1260.5999755859</ele>
        <time>2019-10-13T11:13:45.000Z</time>
      </trkpt>
      <trkpt lat="46.01522" lon="6.53263">
        <ele>1260.5999755859</ele>
        <time>2019-10-13T11:13:46.000Z</time>
      </trkpt>
      <trkpt lat="46.01526" lon="6.53266">
        <ele>1260.8000488281</ele>
        <time>2019-10-13T11:13:49.000Z</time>
      </trkpt>
      <trkpt lat="46.01528" lon="6.53268">
        <ele>1261</ele>
        <time>2019-10-13T11:13:51.000Z</time>
      </trkpt>
      <trkpt lat="46.01529" lon="6.53269">
        <ele>1261</ele>
        <time>2019-10-13T11:13:52.000Z</time>
      </trkpt>
      <trkpt lat="46.01531" lon="6.5327">
        <ele>1261.1999511719</ele>
        <time>2019-10-13T11:13:54.000Z</time>
      </trkpt>
      <trkpt lat="46.01533" lon="6.53271">
        <ele>1261.4000244141</ele>
        <time>2019-10-13T11:13:56.000Z</time>
      </trkpt>
      <trkpt lat="46.01536" lon="6.53272">
        <ele>1261.8000488281</ele>
        <time>2019-10-13T11:13:58.000Z</time>
      </trkpt>
      <trkpt lat="46.0154" lon="6.53272">
        <ele>1262</ele>
        <time>2019-10-13T11:14:01.000Z</time>
      </trkpt>
      <trkpt lat="46.01545" lon="6.53272">
        <ele>1262.1999511719</ele>
        <time>2019-10-13T11:14:05.000Z</time>
      </trkpt>
      <trkpt lat="46.01546" lon="6.53272">
        <ele>1262.4000244141</ele>
        <time>2019-10-13T11:14:06.000Z</time>
      </trkpt>
      <trkpt lat="46.01548" lon="6.53272">
        <ele>1262.5999755859</ele>
        <time>2019-10-13T11:14:07.000Z</time>
      </trkpt>
      <trkpt lat="46.01549" lon="6.53273">
        <ele>1262.8000488281</ele>
        <time>2019-10-13T11:14:08.000Z</time>
      </trkpt>
      <trkpt lat="46.01556" lon="6.53277">
        <ele>1263</ele>
        <time>2019-10-13T11:14:14.000Z</time>
      </trkpt>
      <trkpt lat="46.0156" lon="6.53279">
        <ele>1263</ele>
        <time>2019-10-13T11:14:17.000Z</time>
      </trkpt>
      <trkpt lat="46.01564" lon="6.53282">
        <ele>1263.1999511719</ele>
        <time>2019-10-13T11:14:20.000Z</time>
      </trkpt>
      <trkpt lat="46.01565" lon="6.53283">
        <ele>1263.4000244141</ele>
        <time>2019-10-13T11:14:21.000Z</time>
      </trkpt>
      <trkpt lat="46.01567" lon="6.53285">
        <ele>1263.8000488281</ele>
        <time>2019-10-13T11:14:23.000Z</time>
      </trkpt>
      <trkpt lat="46.01569" lon="6.53287">
        <ele>1264.1999511719</ele>
        <time>2019-10-13T11:14:25.000Z</time>
      </trkpt>
      <trkpt lat="46.0157" lon="6.53288">
        <ele>1264.4000244141</ele>
        <time>2019-10-13T11:14:26.000Z</time>
      </trkpt>
      <trkpt lat="46.01572" lon="6.53289">
        <ele>1265</ele>
        <time>2019-10-13T11:14:28.000Z</time>
      </trkpt>
      <trkpt lat="46.01576" lon="6.53295">
        <ele>1266.1999511719</ele>
        <time>2019-10-13T11:14:34.000Z</time>
      </trkpt>
      <trkpt lat="46.01576" lon="6.53295">
        <ele>1266.5999755859</ele>
        <time>2019-10-13T11:14:35.000Z</time>
      </trkpt>
      <trkpt lat="46.01578" lon="6.53299">
        <ele>1267.1999511719</ele>
        <time>2019-10-13T11:14:38.000Z</time>
      </trkpt>
      <trkpt lat="46.0158" lon="6.53301">
        <ele>1267.4000244141</ele>
        <time>2019-10-13T11:14:40.000Z</time>
      </trkpt>
      <trkpt lat="46.01581" lon="6.53303">
        <ele>1267.5999755859</ele>
        <time>2019-10-13T11:14:42.000Z</time>
      </trkpt>
      <trkpt lat="46.01582" lon="6.53304">
        <ele>1267.5999755859</ele>
        <time>2019-10-13T11:14:43.000Z</time>
      </trkpt>
      <trkpt lat="46.01584" lon="6.53307">
        <ele>1268.4000244141</ele>
        <time>2019-10-13T11:14:46.000Z</time>
      </trkpt>
      <trkpt lat="46.01587" lon="6.5331">
        <ele>1269</ele>
        <time>2019-10-13T11:14:49.000Z</time>
      </trkpt>
      <trkpt lat="46.01589" lon="6.53312">
        <ele>1269.4000244141</ele>
        <time>2019-10-13T11:14:51.000Z</time>
      </trkpt>
      <trkpt lat="46.01591" lon="6.53313">
        <ele>1269.8000488281</ele>
        <time>2019-10-13T11:14:52.000Z</time>
      </trkpt>
      <trkpt lat="46.01593" lon="6.53315">
        <ele>1270.1999511719</ele>
        <time>2019-10-13T11:14:54.000Z</time>
      </trkpt>
      <trkpt lat="46.01594" lon="6.53316">
        <ele>1270.4000244141</ele>
        <time>2019-10-13T11:14:55.000Z</time>
      </trkpt>
      <trkpt lat="46.01595" lon="6.53316">
        <ele>1270.5999755859</ele>
        <time>2019-10-13T11:14:56.000Z</time>
      </trkpt>
      <trkpt lat="46.01596" lon="6.53318">
        <ele>1270.8000488281</ele>
        <time>2019-10-13T11:14:58.000Z</time>
      </trkpt>
      <trkpt lat="46.01597" lon="6.53318">
        <ele>1271</ele>
        <time>2019-10-13T11:14:59.000Z</time>
      </trkpt>
      <trkpt lat="46.016" lon="6.53321">
        <ele>1271.8000488281</ele>
        <time>2019-10-13T11:15:02.000Z</time>
      </trkpt>
      <trkpt lat="46.01601" lon="6.53321">
        <ele>1272</ele>
        <time>2019-10-13T11:15:03.000Z</time>
      </trkpt>
      <trkpt lat="46.01601" lon="6.53322">
        <ele>1272.1999511719</ele>
        <time>2019-10-13T11:15:04.000Z</time>
      </trkpt>
      <trkpt lat="46.01606" lon="6.53326">
        <ele>1273</ele>
        <time>2019-10-13T11:15:08.000Z</time>
      </trkpt>
      <trkpt lat="46.01607" lon="6.53327">
        <ele>1273</ele>
        <time>2019-10-13T11:15:09.000Z</time>
      </trkpt>
      <trkpt lat="46.01608" lon="6.53328">
        <ele>1273.1999511719</ele>
        <time>2019-10-13T11:15:10.000Z</time>
      </trkpt>
      <trkpt lat="46.01611" lon="6.5333">
        <ele>1273.5999755859</ele>
        <time>2019-10-13T11:15:12.000Z</time>
      </trkpt>
      <trkpt lat="46.01613" lon="6.53332">
        <ele>1274</ele>
        <time>2019-10-13T11:15:14.000Z</time>
      </trkpt>
      <trkpt lat="46.01616" lon="6.53334">
        <ele>1274.1999511719</ele>
        <time>2019-10-13T11:15:16.000Z</time>
      </trkpt>
      <trkpt lat="46.01618" lon="6.53336">
        <ele>1274.5999755859</ele>
        <time>2019-10-13T11:15:18.000Z</time>
      </trkpt>
      <trkpt lat="46.0162" lon="6.53338">
        <ele>1274.5999755859</ele>
        <time>2019-10-13T11:15:19.000Z</time>
      </trkpt>
      <trkpt lat="46.01625" lon="6.53343">
        <ele>1275.1999511719</ele>
        <time>2019-10-13T11:15:23.000Z</time>
      </trkpt>
      <trkpt lat="46.01625" lon="6.53344">
        <ele>1275.4000244141</ele>
        <time>2019-10-13T11:15:24.000Z</time>
      </trkpt>
      <trkpt lat="46.01626" lon="6.53345">
        <ele>1275.5999755859</ele>
        <time>2019-10-13T11:15:25.000Z</time>
      </trkpt>
      <trkpt lat="46.01628" lon="6.53349">
        <ele>1276.1999511719</ele>
        <time>2019-10-13T11:15:29.000Z</time>
      </trkpt>
      <trkpt lat="46.01629" lon="6.53354">
        <ele>1276.8000488281</ele>
        <time>2019-10-13T11:15:32.000Z</time>
      </trkpt>
      <trkpt lat="46.0163" lon="6.53355">
        <ele>1277</ele>
        <time>2019-10-13T11:15:33.000Z</time>
      </trkpt>
      <trkpt lat="46.01631" lon="6.53356">
        <ele>1277.1999511719</ele>
        <time>2019-10-13T11:15:34.000Z</time>
      </trkpt>
      <trkpt lat="46.01631" lon="6.53357">
        <ele>1277.4000244141</ele>
        <time>2019-10-13T11:15:35.000Z</time>
      </trkpt>
      <trkpt lat="46.01633" lon="6.5336">
        <ele>1277.5999755859</ele>
        <time>2019-10-13T11:15:37.000Z</time>
      </trkpt>
      <trkpt lat="46.01634" lon="6.53362">
        <ele>1277.8000488281</ele>
        <time>2019-10-13T11:15:39.000Z</time>
      </trkpt>
      <trkpt lat="46.01636" lon="6.53367">
        <ele>1278.8000488281</ele>
        <time>2019-10-13T11:15:42.000Z</time>
      </trkpt>
      <trkpt lat="46.01636" lon="6.53368">
        <ele>1279</ele>
        <time>2019-10-13T11:15:43.000Z</time>
      </trkpt>
      <trkpt lat="46.01637" lon="6.53369">
        <ele>1279.1999511719</ele>
        <time>2019-10-13T11:15:44.000Z</time>
      </trkpt>
      <trkpt lat="46.0164" lon="6.53373">
        <ele>1279.4000244141</ele>
        <time>2019-10-13T11:15:48.000Z</time>
      </trkpt>
      <trkpt lat="46.01641" lon="6.53374">
        <ele>1279.4000244141</ele>
        <time>2019-10-13T11:15:49.000Z</time>
      </trkpt>
      <trkpt lat="46.01642" lon="6.53375">
        <ele>1279.5999755859</ele>
        <time>2019-10-13T11:15:51.000Z</time>
      </trkpt>
      <trkpt lat="46.01643" lon="6.53376">
        <ele>1279.8000488281</ele>
        <time>2019-10-13T11:15:52.000Z</time>
      </trkpt>
      <trkpt lat="46.01645" lon="6.53377">
        <ele>1280</ele>
        <time>2019-10-13T11:15:53.000Z</time>
      </trkpt>
      <trkpt lat="46.01647" lon="6.53379">
        <ele>1280.1999511719</ele>
        <time>2019-10-13T11:15:55.000Z</time>
      </trkpt>
      <trkpt lat="46.01648" lon="6.5338">
        <ele>1280.4000244141</ele>
        <time>2019-10-13T11:15:56.000Z</time>
      </trkpt>
      <trkpt lat="46.0165" lon="6.53381">
        <ele>1280.8000488281</ele>
        <time>2019-10-13T11:15:58.000Z</time>
      </trkpt>
      <trkpt lat="46.01651" lon="6.53382">
        <ele>1281</ele>
        <time>2019-10-13T11:15:59.000Z</time>
      </trkpt>
      <trkpt lat="46.01652" lon="6.53383">
        <ele>1281.1999511719</ele>
        <time>2019-10-13T11:16:00.000Z</time>
      </trkpt>
      <trkpt lat="46.01655" lon="6.53385">
        <ele>1282</ele>
        <time>2019-10-13T11:16:03.000Z</time>
      </trkpt>
      <trkpt lat="46.01657" lon="6.53386">
        <ele>1282.4000244141</ele>
        <time>2019-10-13T11:16:05.000Z</time>
      </trkpt>
      <trkpt lat="46.0166" lon="6.53388">
        <ele>1282.8000488281</ele>
        <time>2019-10-13T11:16:08.000Z</time>
      </trkpt>
      <trkpt lat="46.01661" lon="6.53389">
        <ele>1283</ele>
        <time>2019-10-13T11:16:09.000Z</time>
      </trkpt>
      <trkpt lat="46.01661" lon="6.5339">
        <ele>1283.1999511719</ele>
        <time>2019-10-13T11:16:10.000Z</time>
      </trkpt>
      <trkpt lat="46.01663" lon="6.53391">
        <ele>1283.5999755859</ele>
        <time>2019-10-13T11:16:11.000Z</time>
      </trkpt>
      <trkpt lat="46.01666" lon="6.53394">
        <ele>1283.8000488281</ele>
        <time>2019-10-13T11:16:14.000Z</time>
      </trkpt>
      <trkpt lat="46.01669" lon="6.53398">
        <ele>1284.1999511719</ele>
        <time>2019-10-13T11:16:17.000Z</time>
      </trkpt>
      <trkpt lat="46.0167" lon="6.53399">
        <ele>1284.1999511719</ele>
        <time>2019-10-13T11:16:18.000Z</time>
      </trkpt>
      <trkpt lat="46.01673" lon="6.53401">
        <ele>1284.5999755859</ele>
        <time>2019-10-13T11:16:20.000Z</time>
      </trkpt>
      <trkpt lat="46.01674" lon="6.53403">
        <ele>1284.8000488281</ele>
        <time>2019-10-13T11:16:21.000Z</time>
      </trkpt>
      <trkpt lat="46.01676" lon="6.53405">
        <ele>1285.4000244141</ele>
        <time>2019-10-13T11:16:23.000Z</time>
      </trkpt>
      <trkpt lat="46.01678" lon="6.53407">
        <ele>1285.8000488281</ele>
        <time>2019-10-13T11:16:25.000Z</time>
      </trkpt>
      <trkpt lat="46.0168" lon="6.5341">
        <ele>1286</ele>
        <time>2019-10-13T11:16:27.000Z</time>
      </trkpt>
      <trkpt lat="46.01681" lon="6.5341">
        <ele>1286</ele>
        <time>2019-10-13T11:16:28.000Z</time>
      </trkpt>
      <trkpt lat="46.01682" lon="6.53417">
        <ele>1286.4000244141</ele>
        <time>2019-10-13T11:16:32.000Z</time>
      </trkpt>
      <trkpt lat="46.01684" lon="6.53421">
        <ele>1286.5999755859</ele>
        <time>2019-10-13T11:16:36.000Z</time>
      </trkpt>
      <trkpt lat="46.01685" lon="6.53421">
        <ele>1286.8000488281</ele>
        <time>2019-10-13T11:16:37.000Z</time>
      </trkpt>
      <trkpt lat="46.01686" lon="6.53423">
        <ele>1287.5999755859</ele>
        <time>2019-10-13T11:16:39.000Z</time>
      </trkpt>
      <trkpt lat="46.01688" lon="6.53428">
        <ele>1288.1999511719</ele>
        <time>2019-10-13T11:16:42.000Z</time>
      </trkpt>
      <trkpt lat="46.01688" lon="6.53429">
        <ele>1288.4000244141</ele>
        <time>2019-10-13T11:16:43.000Z</time>
      </trkpt>
      <trkpt lat="46.01689" lon="6.53435">
        <ele>1288.5999755859</ele>
        <time>2019-10-13T11:16:45.000Z</time>
      </trkpt>
      <trkpt lat="46.0169" lon="6.53438">
        <ele>1289.1999511719</ele>
        <time>2019-10-13T11:16:47.000Z</time>
      </trkpt>
      <trkpt lat="46.01691" lon="6.5344">
        <ele>1289.4000244141</ele>
        <time>2019-10-13T11:16:48.000Z</time>
      </trkpt>
      <trkpt lat="46.01691" lon="6.53441">
        <ele>1289.5999755859</ele>
        <time>2019-10-13T11:16:49.000Z</time>
      </trkpt>
      <trkpt lat="46.01692" lon="6.53442">
        <ele>1289.8000488281</ele>
        <time>2019-10-13T11:16:50.000Z</time>
      </trkpt>
      <trkpt lat="46.01694" lon="6.53445">
        <ele>1290.8000488281</ele>
        <time>2019-10-13T11:16:54.000Z</time>
      </trkpt>
      <trkpt lat="46.01697" lon="6.53447">
        <ele>1292.1999511719</ele>
        <time>2019-10-13T11:16:58.000Z</time>
      </trkpt>
      <trkpt lat="46.01699" lon="6.53448">
        <ele>1292.5999755859</ele>
        <time>2019-10-13T11:17:00.000Z</time>
      </trkpt>
      <trkpt lat="46.017" lon="6.53449">
        <ele>1292.8000488281</ele>
        <time>2019-10-13T11:17:01.000Z</time>
      </trkpt>
      <trkpt lat="46.01702" lon="6.5345">
        <ele>1293.4000244141</ele>
        <time>2019-10-13T11:17:03.000Z</time>
      </trkpt>
      <trkpt lat="46.01703" lon="6.5345">
        <ele>1293.5999755859</ele>
        <time>2019-10-13T11:17:04.000Z</time>
      </trkpt>
      <trkpt lat="46.01704" lon="6.53451">
        <ele>1293.8000488281</ele>
        <time>2019-10-13T11:17:05.000Z</time>
      </trkpt>
      <trkpt lat="46.01705" lon="6.53452">
        <ele>1294.1999511719</ele>
        <time>2019-10-13T11:17:06.000Z</time>
      </trkpt>
      <trkpt lat="46.01706" lon="6.53453">
        <ele>1294.4000244141</ele>
        <time>2019-10-13T11:17:07.000Z</time>
      </trkpt>
      <trkpt lat="46.0171" lon="6.53455">
        <ele>1295.1999511719</ele>
        <time>2019-10-13T11:17:10.000Z</time>
      </trkpt>
      <trkpt lat="46.01712" lon="6.53455">
        <ele>1295.5999755859</ele>
        <time>2019-10-13T11:17:11.000Z</time>
      </trkpt>
      <trkpt lat="46.01713" lon="6.53455">
        <ele>1295.8000488281</ele>
        <time>2019-10-13T11:17:12.000Z</time>
      </trkpt>
      <trkpt lat="46.01716" lon="6.53456">
        <ele>1296.1999511719</ele>
        <time>2019-10-13T11:17:14.000Z</time>
      </trkpt>
      <trkpt lat="46.01717" lon="6.53457">
        <ele>1296.4000244141</ele>
        <time>2019-10-13T11:17:15.000Z</time>
      </trkpt>
      <trkpt lat="46.01718" lon="6.53458">
        <ele>1296.5999755859</ele>
        <time>2019-10-13T11:17:16.000Z</time>
      </trkpt>
      <trkpt lat="46.0172" lon="6.53458">
        <ele>1296.8000488281</ele>
        <time>2019-10-13T11:17:17.000Z</time>
      </trkpt>
      <trkpt lat="46.01722" lon="6.5346">
        <ele>1297.4000244141</ele>
        <time>2019-10-13T11:17:19.000Z</time>
      </trkpt>
      <trkpt lat="46.01724" lon="6.53462">
        <ele>1297.8000488281</ele>
        <time>2019-10-13T11:17:21.000Z</time>
      </trkpt>
      <trkpt lat="46.01727" lon="6.53467">
        <ele>1298.5999755859</ele>
        <time>2019-10-13T11:17:26.000Z</time>
      </trkpt>
      <trkpt lat="46.01727" lon="6.53468">
        <ele>1298.8000488281</ele>
        <time>2019-10-13T11:17:27.000Z</time>
      </trkpt>
      <trkpt lat="46.01728" lon="6.5347">
        <ele>1299.1999511719</ele>
        <time>2019-10-13T11:17:29.000Z</time>
      </trkpt>
      <trkpt lat="46.01728" lon="6.53472">
        <ele>1299.8000488281</ele>
        <time>2019-10-13T11:17:31.000Z</time>
      </trkpt>
      <trkpt lat="46.01728" lon="6.53474">
        <ele>1300</ele>
        <time>2019-10-13T11:17:32.000Z</time>
      </trkpt>
      <trkpt lat="46.01728" lon="6.53476">
        <ele>1300.4000244141</ele>
        <time>2019-10-13T11:17:33.000Z</time>
      </trkpt>
      <trkpt lat="46.01727" lon="6.53488">
        <ele>1300.8000488281</ele>
        <time>2019-10-13T11:17:39.000Z</time>
      </trkpt>
      <trkpt lat="46.01727" lon="6.5349">
        <ele>1301</ele>
        <time>2019-10-13T11:17:40.000Z</time>
      </trkpt>
      <trkpt lat="46.01726" lon="6.53492">
        <ele>1301</ele>
        <time>2019-10-13T11:17:41.000Z</time>
      </trkpt>
      <trkpt lat="46.01726" lon="6.53494">
        <ele>1301.1999511719</ele>
        <time>2019-10-13T11:17:42.000Z</time>
      </trkpt>
      <trkpt lat="46.01725" lon="6.53496">
        <ele>1301.4000244141</ele>
        <time>2019-10-13T11:17:44.000Z</time>
      </trkpt>
      <trkpt lat="46.01724" lon="6.53501">
        <ele>1301.8000488281</ele>
        <time>2019-10-13T11:17:48.000Z</time>
      </trkpt>
      <trkpt lat="46.01723" lon="6.53506">
        <ele>1301.4000244141</ele>
        <time>2019-10-13T11:17:54.000Z</time>
      </trkpt>
      <trkpt lat="46.01723" lon="6.53508">
        <ele>1301.4000244141</ele>
        <time>2019-10-13T11:17:57.000Z</time>
      </trkpt>
      <trkpt lat="46.01723" lon="6.5351">
        <ele>1301.5999755859</ele>
        <time>2019-10-13T11:17:59.000Z</time>
      </trkpt>
      <trkpt lat="46.01724" lon="6.53513">
        <ele>1301.8000488281</ele>
        <time>2019-10-13T11:18:01.000Z</time>
      </trkpt>
      <trkpt lat="46.01726" lon="6.53515">
        <ele>1302</ele>
        <time>2019-10-13T11:18:03.000Z</time>
      </trkpt>
      <trkpt lat="46.01727" lon="6.53516">
        <ele>1302.1999511719</ele>
        <time>2019-10-13T11:18:04.000Z</time>
      </trkpt>
      <trkpt lat="46.01728" lon="6.53518">
        <ele>1302.4000244141</ele>
        <time>2019-10-13T11:18:05.000Z</time>
      </trkpt>
      <trkpt lat="46.01731" lon="6.53522">
        <ele>1302.8000488281</ele>
        <time>2019-10-13T11:18:08.000Z</time>
      </trkpt>
      <trkpt lat="46.01733" lon="6.53523">
        <ele>1303</ele>
        <time>2019-10-13T11:18:09.000Z</time>
      </trkpt>
      <trkpt lat="46.01737" lon="6.53528">
        <ele>1303.4000244141</ele>
        <time>2019-10-13T11:18:13.000Z</time>
      </trkpt>
      <trkpt lat="46.0174" lon="6.53531">
        <ele>1303.5999755859</ele>
        <time>2019-10-13T11:18:16.000Z</time>
      </trkpt>
      <trkpt lat="46.01741" lon="6.53532">
        <ele>1303.8000488281</ele>
        <time>2019-10-13T11:18:17.000Z</time>
      </trkpt>
      <trkpt lat="46.01744" lon="6.53535">
        <ele>1304</ele>
        <time>2019-10-13T11:18:20.000Z</time>
      </trkpt>
      <trkpt lat="46.01745" lon="6.53536">
        <ele>1304</ele>
        <time>2019-10-13T11:18:21.000Z</time>
      </trkpt>
      <trkpt lat="46.01746" lon="6.53539">
        <ele>1304.1999511719</ele>
        <time>2019-10-13T11:18:23.000Z</time>
      </trkpt>
      <trkpt lat="46.01749" lon="6.53542">
        <ele>1304.8000488281</ele>
        <time>2019-10-13T11:18:26.000Z</time>
      </trkpt>
      <trkpt lat="46.0175" lon="6.53542">
        <ele>1304.8000488281</ele>
        <time>2019-10-13T11:18:27.000Z</time>
      </trkpt>
      <trkpt lat="46.0175" lon="6.53543">
        <ele>1305</ele>
        <time>2019-10-13T11:18:28.000Z</time>
      </trkpt>
      <trkpt lat="46.01751" lon="6.53544">
        <ele>1305.1999511719</ele>
        <time>2019-10-13T11:18:29.000Z</time>
      </trkpt>
      <trkpt lat="46.01752" lon="6.53545">
        <ele>1305.4000244141</ele>
        <time>2019-10-13T11:18:30.000Z</time>
      </trkpt>
      <trkpt lat="46.01754" lon="6.53546">
        <ele>1305.4000244141</ele>
        <time>2019-10-13T11:18:32.000Z</time>
      </trkpt>
      <trkpt lat="46.01754" lon="6.53546">
        <ele>1305.5999755859</ele>
        <time>2019-10-13T11:18:33.000Z</time>
      </trkpt>
      <trkpt lat="46.01755" lon="6.53547">
        <ele>1305.8000488281</ele>
        <time>2019-10-13T11:18:35.000Z</time>
      </trkpt>
      <trkpt lat="46.01757" lon="6.53547">
        <ele>1306.1999511719</ele>
        <time>2019-10-13T11:18:37.000Z</time>
      </trkpt>
      <trkpt lat="46.0176" lon="6.53548">
        <ele>1306.4000244141</ele>
        <time>2019-10-13T11:18:41.000Z</time>
      </trkpt>
      <trkpt lat="46.01761" lon="6.53548">
        <ele>1306.5999755859</ele>
        <time>2019-10-13T11:18:42.000Z</time>
      </trkpt>
      <trkpt lat="46.01762" lon="6.53548">
        <ele>1306.5999755859</ele>
        <time>2019-10-13T11:18:43.000Z</time>
      </trkpt>
      <trkpt lat="46.01763" lon="6.53548">
        <ele>1306.5999755859</ele>
        <time>2019-10-13T11:18:44.000Z</time>
      </trkpt>
      <trkpt lat="46.01767" lon="6.53548">
        <ele>1306.8000488281</ele>
        <time>2019-10-13T11:18:48.000Z</time>
      </trkpt>
      <trkpt lat="46.0177" lon="6.53548">
        <ele>1306.8000488281</ele>
        <time>2019-10-13T11:18:50.000Z</time>
      </trkpt>
      <trkpt lat="46.01771" lon="6.53549">
        <ele>1307</ele>
        <time>2019-10-13T11:18:51.000Z</time>
      </trkpt>
      <trkpt lat="46.0178" lon="6.53552">
        <ele>1306.8000488281</ele>
        <time>2019-10-13T11:18:57.000Z</time>
      </trkpt>
      <trkpt lat="46.01783" lon="6.53554">
        <ele>1306.8000488281</ele>
        <time>2019-10-13T11:18:59.000Z</time>
      </trkpt>
      <trkpt lat="46.01787" lon="6.5356">
        <ele>1307</ele>
        <time>2019-10-13T11:19:03.000Z</time>
      </trkpt>
      <trkpt lat="46.01789" lon="6.53563">
        <ele>1307</ele>
        <time>2019-10-13T11:19:04.000Z</time>
      </trkpt>
      <trkpt lat="46.01793" lon="6.5357">
        <ele>1307</ele>
        <time>2019-10-13T11:19:07.000Z</time>
      </trkpt>
      <trkpt lat="46.01795" lon="6.53574">
        <ele>1307</ele>
        <time>2019-10-13T11:19:09.000Z</time>
      </trkpt>
      <trkpt lat="46.01796" lon="6.53578">
        <ele>1307</ele>
        <time>2019-10-13T11:19:11.000Z</time>
      </trkpt>
      <trkpt lat="46.01796" lon="6.5358">
        <ele>1307.1999511719</ele>
        <time>2019-10-13T11:19:12.000Z</time>
      </trkpt>
      <trkpt lat="46.01799" lon="6.53588">
        <ele>1307.4000244141</ele>
        <time>2019-10-13T11:19:16.000Z</time>
      </trkpt>
      <trkpt lat="46.01799" lon="6.5359">
        <ele>1307.4000244141</ele>
        <time>2019-10-13T11:19:17.000Z</time>
      </trkpt>
      <trkpt lat="46.01798" lon="6.53594">
        <ele>1308</ele>
        <time>2019-10-13T11:19:20.000Z</time>
      </trkpt>
      <trkpt lat="46.01798" lon="6.53596">
        <ele>1308.1999511719</ele>
        <time>2019-10-13T11:19:21.000Z</time>
      </trkpt>
      <trkpt lat="46.01796" lon="6.53601">
        <ele>1308.4000244141</ele>
        <time>2019-10-13T11:19:24.000Z</time>
      </trkpt>
      <trkpt lat="46.01795" lon="6.53606">
        <ele>1308.4000244141</ele>
        <time>2019-10-13T11:19:26.000Z</time>
      </trkpt>
      <trkpt lat="46.01794" lon="6.53615">
        <ele>1308.4000244141</ele>
        <time>2019-10-13T11:19:30.000Z</time>
      </trkpt>
      <trkpt lat="46.01794" lon="6.53619">
        <ele>1308.4000244141</ele>
        <time>2019-10-13T11:19:32.000Z</time>
      </trkpt>
      <trkpt lat="46.01797" lon="6.53625">
        <ele>1308.4000244141</ele>
        <time>2019-10-13T11:19:35.000Z</time>
      </trkpt>
      <trkpt lat="46.018" lon="6.53628">
        <ele>1308.4000244141</ele>
        <time>2019-10-13T11:19:37.000Z</time>
      </trkpt>
      <trkpt lat="46.01805" lon="6.53637">
        <ele>1308.4000244141</ele>
        <time>2019-10-13T11:19:43.000Z</time>
      </trkpt>
      <trkpt lat="46.01806" lon="6.53642">
        <ele>1308.5999755859</ele>
        <time>2019-10-13T11:19:48.000Z</time>
      </trkpt>
      <trkpt lat="46.01806" lon="6.53645">
        <ele>1308.8000488281</ele>
        <time>2019-10-13T11:19:50.000Z</time>
      </trkpt>
      <trkpt lat="46.01809" lon="6.53653">
        <ele>1309</ele>
        <time>2019-10-13T11:19:54.000Z</time>
      </trkpt>
      <trkpt lat="46.0181" lon="6.53658">
        <ele>1309.1999511719</ele>
        <time>2019-10-13T11:19:56.000Z</time>
      </trkpt>
      <trkpt lat="46.01813" lon="6.53669">
        <ele>1310</ele>
        <time>2019-10-13T11:20:00.000Z</time>
      </trkpt>
      <trkpt lat="46.01813" lon="6.53674">
        <ele>1310.4000244141</ele>
        <time>2019-10-13T11:20:02.000Z</time>
      </trkpt>
      <trkpt lat="46.01817" lon="6.53683">
        <ele>1311.4000244141</ele>
        <time>2019-10-13T11:20:07.000Z</time>
      </trkpt>
      <trkpt lat="46.01819" lon="6.53685">
        <ele>1311.8000488281</ele>
        <time>2019-10-13T11:20:09.000Z</time>
      </trkpt>
      <trkpt lat="46.01825" lon="6.53692">
        <ele>1312.4000244141</ele>
        <time>2019-10-13T11:20:14.000Z</time>
      </trkpt>
      <trkpt lat="46.01826" lon="6.53694">
        <ele>1312.5999755859</ele>
        <time>2019-10-13T11:20:16.000Z</time>
      </trkpt>
      <trkpt lat="46.01827" lon="6.53695">
        <ele>1312.8000488281</ele>
        <time>2019-10-13T11:20:17.000Z</time>
      </trkpt>
      <trkpt lat="46.0183" lon="6.53698">
        <ele>1313.4000244141</ele>
        <time>2019-10-13T11:20:21.000Z</time>
      </trkpt>
      <trkpt lat="46.01831" lon="6.537">
        <ele>1313.5999755859</ele>
        <time>2019-10-13T11:20:22.000Z</time>
      </trkpt>
      <trkpt lat="46.01831" lon="6.53702">
        <ele>1313.5999755859</ele>
        <time>2019-10-13T11:20:23.000Z</time>
      </trkpt>
      <trkpt lat="46.01833" lon="6.53704">
        <ele>1313.8000488281</ele>
        <time>2019-10-13T11:20:24.000Z</time>
      </trkpt>
      <trkpt lat="46.01836" lon="6.53714">
        <ele>1314.4000244141</ele>
        <time>2019-10-13T11:20:28.000Z</time>
      </trkpt>
      <trkpt lat="46.01837" lon="6.53714">
        <ele>1314.5999755859</ele>
        <time>2019-10-13T11:20:29.000Z</time>
      </trkpt>
      <trkpt lat="46.0184" lon="6.5372">
        <ele>1315.8000488281</ele>
        <time>2019-10-13T11:20:34.000Z</time>
      </trkpt>
      <trkpt lat="46.01841" lon="6.53722">
        <ele>1316</ele>
        <time>2019-10-13T11:20:35.000Z</time>
      </trkpt>
      <trkpt lat="46.01843" lon="6.53724">
        <ele>1316.4000244141</ele>
        <time>2019-10-13T11:20:37.000Z</time>
      </trkpt>
      <trkpt lat="46.01845" lon="6.53726">
        <ele>1317</ele>
        <time>2019-10-13T11:20:39.000Z</time>
      </trkpt>
      <trkpt lat="46.01849" lon="6.53728">
        <ele>1317.8000488281</ele>
        <time>2019-10-13T11:20:43.000Z</time>
      </trkpt>
      <trkpt lat="46.01851" lon="6.5373">
        <ele>1318</ele>
        <time>2019-10-13T11:20:45.000Z</time>
      </trkpt>
      <trkpt lat="46.01856" lon="6.53738">
        <ele>1319.1999511719</ele>
        <time>2019-10-13T11:20:50.000Z</time>
      </trkpt>
      <trkpt lat="46.0186" lon="6.53741">
        <ele>1319.5999755859</ele>
        <time>2019-10-13T11:20:54.000Z</time>
      </trkpt>
      <trkpt lat="46.01863" lon="6.53743">
        <ele>1319.8000488281</ele>
        <time>2019-10-13T11:20:56.000Z</time>
      </trkpt>
      <trkpt lat="46.01864" lon="6.53745">
        <ele>1320</ele>
        <time>2019-10-13T11:20:57.000Z</time>
      </trkpt>
      <trkpt lat="46.01866" lon="6.53747">
        <ele>1320.1999511719</ele>
        <time>2019-10-13T11:20:59.000Z</time>
      </trkpt>
      <trkpt lat="46.01868" lon="6.5375">
        <ele>1320.5999755859</ele>
        <time>2019-10-13T11:21:01.000Z</time>
      </trkpt>
      <trkpt lat="46.0187" lon="6.53753">
        <ele>1320.8000488281</ele>
        <time>2019-10-13T11:21:03.000Z</time>
      </trkpt>
      <trkpt lat="46.01873" lon="6.53755">
        <ele>1321.1999511719</ele>
        <time>2019-10-13T11:21:05.000Z</time>
      </trkpt>
      <trkpt lat="46.01876" lon="6.53759">
        <ele>1321.8000488281</ele>
        <time>2019-10-13T11:21:08.000Z</time>
      </trkpt>
      <trkpt lat="46.01876" lon="6.5376">
        <ele>1322</ele>
        <time>2019-10-13T11:21:09.000Z</time>
      </trkpt>
      <trkpt lat="46.01879" lon="6.53762">
        <ele>1322.4000244141</ele>
        <time>2019-10-13T11:21:12.000Z</time>
      </trkpt>
      <trkpt lat="46.01882" lon="6.53765">
        <ele>1323</ele>
        <time>2019-10-13T11:21:15.000Z</time>
      </trkpt>
      <trkpt lat="46.01884" lon="6.53766">
        <ele>1323.5999755859</ele>
        <time>2019-10-13T11:21:17.000Z</time>
      </trkpt>
      <trkpt lat="46.01885" lon="6.53766">
        <ele>1323.8000488281</ele>
        <time>2019-10-13T11:21:18.000Z</time>
      </trkpt>
      <trkpt lat="46.01885" lon="6.53766">
        <ele>1324.1999511719</ele>
        <time>2019-10-13T11:21:19.000Z</time>
      </trkpt>
      <trkpt lat="46.01886" lon="6.53767">
        <ele>1324.5999755859</ele>
        <time>2019-10-13T11:21:21.000Z</time>
      </trkpt>
      <trkpt lat="46.01887" lon="6.53769">
        <ele>1324.5999755859</ele>
        <time>2019-10-13T11:21:22.000Z</time>
      </trkpt>
      <trkpt lat="46.01888" lon="6.5377">
        <ele>1324.8000488281</ele>
        <time>2019-10-13T11:21:23.000Z</time>
      </trkpt>
      <trkpt lat="46.01889" lon="6.53771">
        <ele>1325</ele>
        <time>2019-10-13T11:21:24.000Z</time>
      </trkpt>
      <trkpt lat="46.01891" lon="6.53772">
        <ele>1325.5999755859</ele>
        <time>2019-10-13T11:21:26.000Z</time>
      </trkpt>
      <trkpt lat="46.01892" lon="6.53773">
        <ele>1326</ele>
        <time>2019-10-13T11:21:27.000Z</time>
      </trkpt>
      <trkpt lat="46.01894" lon="6.53775">
        <ele>1326.5999755859</ele>
        <time>2019-10-13T11:21:30.000Z</time>
      </trkpt>
      <trkpt lat="46.01895" lon="6.53776">
        <ele>1326.8000488281</ele>
        <time>2019-10-13T11:21:31.000Z</time>
      </trkpt>
      <trkpt lat="46.01898" lon="6.53777">
        <ele>1327.5999755859</ele>
        <time>2019-10-13T11:21:35.000Z</time>
      </trkpt>
      <trkpt lat="46.019" lon="6.53777">
        <ele>1327.8000488281</ele>
        <time>2019-10-13T11:21:37.000Z</time>
      </trkpt>
      <trkpt lat="46.01902" lon="6.53778">
        <ele>1328</ele>
        <time>2019-10-13T11:21:39.000Z</time>
      </trkpt>
      <trkpt lat="46.01903" lon="6.53778">
        <ele>1328.1999511719</ele>
        <time>2019-10-13T11:21:40.000Z</time>
      </trkpt>
      <trkpt lat="46.01905" lon="6.53778">
        <ele>1328.4000244141</ele>
        <time>2019-10-13T11:21:42.000Z</time>
      </trkpt>
      <trkpt lat="46.01909" lon="6.53777">
        <ele>1328.8000488281</ele>
        <time>2019-10-13T11:21:45.000Z</time>
      </trkpt>
      <trkpt lat="46.01909" lon="6.53777">
        <ele>1329</ele>
        <time>2019-10-13T11:21:46.000Z</time>
      </trkpt>
      <trkpt lat="46.01911" lon="6.53776">
        <ele>1329</ele>
        <time>2019-10-13T11:21:49.000Z</time>
      </trkpt>
      <trkpt lat="46.01913" lon="6.53776">
        <ele>1329.5999755859</ele>
        <time>2019-10-13T11:21:52.000Z</time>
      </trkpt>
      <trkpt lat="46.01914" lon="6.53777">
        <ele>1329.8000488281</ele>
        <time>2019-10-13T11:21:53.000Z</time>
      </trkpt>
      <trkpt lat="46.01917" lon="6.53778">
        <ele>1330</ele>
        <time>2019-10-13T11:21:56.000Z</time>
      </trkpt>
      <trkpt lat="46.01919" lon="6.53779">
        <ele>1330.4000244141</ele>
        <time>2019-10-13T11:21:59.000Z</time>
      </trkpt>
      <trkpt lat="46.01919" lon="6.53779">
        <ele>1330.5999755859</ele>
        <time>2019-10-13T11:22:00.000Z</time>
      </trkpt>
      <trkpt lat="46.01922" lon="6.53779">
        <ele>1331.1999511719</ele>
        <time>2019-10-13T11:22:02.000Z</time>
      </trkpt>
      <trkpt lat="46.01924" lon="6.53778">
        <ele>1331.4000244141</ele>
        <time>2019-10-13T11:22:04.000Z</time>
      </trkpt>
      <trkpt lat="46.01927" lon="6.53777">
        <ele>1331.8000488281</ele>
        <time>2019-10-13T11:22:06.000Z</time>
      </trkpt>
      <trkpt lat="46.01928" lon="6.53777">
        <ele>1332</ele>
        <time>2019-10-13T11:22:08.000Z</time>
      </trkpt>
      <trkpt lat="46.01929" lon="6.53776">
        <ele>1332.4000244141</ele>
        <time>2019-10-13T11:22:09.000Z</time>
      </trkpt>
      <trkpt lat="46.0193" lon="6.53776">
        <ele>1332.5999755859</ele>
        <time>2019-10-13T11:22:10.000Z</time>
      </trkpt>
      <trkpt lat="46.01931" lon="6.53776">
        <ele>1332.8000488281</ele>
        <time>2019-10-13T11:22:11.000Z</time>
      </trkpt>
      <trkpt lat="46.01934" lon="6.53777">
        <ele>1333.1999511719</ele>
        <time>2019-10-13T11:22:13.000Z</time>
      </trkpt>
      <trkpt lat="46.01935" lon="6.53777">
        <ele>1333.4000244141</ele>
        <time>2019-10-13T11:22:14.000Z</time>
      </trkpt>
      <trkpt lat="46.01936" lon="6.53778">
        <ele>1333.5999755859</ele>
        <time>2019-10-13T11:22:15.000Z</time>
      </trkpt>
      <trkpt lat="46.01938" lon="6.53778">
        <ele>1333.8000488281</ele>
        <time>2019-10-13T11:22:18.000Z</time>
      </trkpt>
      <trkpt lat="46.0194" lon="6.5378">
        <ele>1334</ele>
        <time>2019-10-13T11:22:21.000Z</time>
      </trkpt>
      <trkpt lat="46.01941" lon="6.53781">
        <ele>1334</ele>
        <time>2019-10-13T11:22:22.000Z</time>
      </trkpt>
      <trkpt lat="46.01942" lon="6.53783">
        <ele>1334.1999511719</ele>
        <time>2019-10-13T11:22:24.000Z</time>
      </trkpt>
      <trkpt lat="46.01943" lon="6.53784">
        <ele>1334.4000244141</ele>
        <time>2019-10-13T11:22:25.000Z</time>
      </trkpt>
      <trkpt lat="46.01944" lon="6.53785">
        <ele>1334.8000488281</ele>
        <time>2019-10-13T11:22:26.000Z</time>
      </trkpt>
      <trkpt lat="46.01944" lon="6.53785">
        <ele>1335</ele>
        <time>2019-10-13T11:22:27.000Z</time>
      </trkpt>
      <trkpt lat="46.01947" lon="6.53789">
        <ele>1335.5999755859</ele>
        <time>2019-10-13T11:22:30.000Z</time>
      </trkpt>
      <trkpt lat="46.01948" lon="6.5379">
        <ele>1335.8000488281</ele>
        <time>2019-10-13T11:22:31.000Z</time>
      </trkpt>
      <trkpt lat="46.01949" lon="6.53792">
        <ele>1336</ele>
        <time>2019-10-13T11:22:32.000Z</time>
      </trkpt>
      <trkpt lat="46.01952" lon="6.53795">
        <ele>1336.5999755859</ele>
        <time>2019-10-13T11:22:35.000Z</time>
      </trkpt>
      <trkpt lat="46.01955" lon="6.53797">
        <ele>1337.1999511719</ele>
        <time>2019-10-13T11:22:39.000Z</time>
      </trkpt>
      <trkpt lat="46.01957" lon="6.53798">
        <ele>1337.5999755859</ele>
        <time>2019-10-13T11:22:43.000Z</time>
      </trkpt>
      <trkpt lat="46.01957" lon="6.53798">
        <ele>1337.8000488281</ele>
        <time>2019-10-13T11:22:44.000Z</time>
      </trkpt>
      <trkpt lat="46.01958" lon="6.53798">
        <ele>1338.4000244141</ele>
        <time>2019-10-13T11:22:46.000Z</time>
      </trkpt>
      <trkpt lat="46.01958" lon="6.53798">
        <ele>1338.5999755859</ele>
        <time>2019-10-13T11:22:47.000Z</time>
      </trkpt>
      <trkpt lat="46.01958" lon="6.53797">
        <ele>1338.8000488281</ele>
        <time>2019-10-13T11:22:48.000Z</time>
      </trkpt>
      <trkpt lat="46.01959" lon="6.53798">
        <ele>1339</ele>
        <time>2019-10-13T11:22:50.000Z</time>
      </trkpt>
      <trkpt lat="46.01959" lon="6.53799">
        <ele>1339</ele>
        <time>2019-10-13T11:22:51.000Z</time>
      </trkpt>
      <trkpt lat="46.01963" lon="6.538">
        <ele>1339</ele>
        <time>2019-10-13T11:22:54.000Z</time>
      </trkpt>
      <trkpt lat="46.01966" lon="6.53803">
        <ele>1339.8000488281</ele>
        <time>2019-10-13T11:22:59.000Z</time>
      </trkpt>
      <trkpt lat="46.01967" lon="6.53803">
        <ele>1340</ele>
        <time>2019-10-13T11:23:00.000Z</time>
      </trkpt>
      <trkpt lat="46.01971" lon="6.53805">
        <ele>1341</ele>
        <time>2019-10-13T11:23:05.000Z</time>
      </trkpt>
      <trkpt lat="46.01974" lon="6.53809">
        <ele>1342</ele>
        <time>2019-10-13T11:23:09.000Z</time>
      </trkpt>
      <trkpt lat="46.01976" lon="6.5381">
        <ele>1342.1999511719</ele>
        <time>2019-10-13T11:23:10.000Z</time>
      </trkpt>
      <trkpt lat="46.01977" lon="6.53811">
        <ele>1342.4000244141</ele>
        <time>2019-10-13T11:23:11.000Z</time>
      </trkpt>
      <trkpt lat="46.01981" lon="6.53816">
        <ele>1342.8000488281</ele>
        <time>2019-10-13T11:23:16.000Z</time>
      </trkpt>
      <trkpt lat="46.01984" lon="6.5382">
        <ele>1343.4000244141</ele>
        <time>2019-10-13T11:23:19.000Z</time>
      </trkpt>
      <trkpt lat="46.01986" lon="6.53823">
        <ele>1344</ele>
        <time>2019-10-13T11:23:22.000Z</time>
      </trkpt>
      <trkpt lat="46.01988" lon="6.53825">
        <ele>1344.1999511719</ele>
        <time>2019-10-13T11:23:25.000Z</time>
      </trkpt>
      <trkpt lat="46.0199" lon="6.53826">
        <ele>1344.5999755859</ele>
        <time>2019-10-13T11:23:27.000Z</time>
      </trkpt>
      <trkpt lat="46.01991" lon="6.53828">
        <ele>1345</ele>
        <time>2019-10-13T11:23:29.000Z</time>
      </trkpt>
      <trkpt lat="46.01993" lon="6.53828">
        <ele>1345.5999755859</ele>
        <time>2019-10-13T11:23:32.000Z</time>
      </trkpt>
      <trkpt lat="46.01994" lon="6.53828">
        <ele>1345.8000488281</ele>
        <time>2019-10-13T11:23:33.000Z</time>
      </trkpt>
      <trkpt lat="46.01995" lon="6.53828">
        <ele>1346</ele>
        <time>2019-10-13T11:23:35.000Z</time>
      </trkpt>
      <trkpt lat="46.01998" lon="6.53829">
        <ele>1346.1999511719</ele>
        <time>2019-10-13T11:23:39.000Z</time>
      </trkpt>
      <trkpt lat="46.01999" lon="6.5383">
        <ele>1346.5999755859</ele>
        <time>2019-10-13T11:23:40.000Z</time>
      </trkpt>
      <trkpt lat="46.02" lon="6.5383">
        <ele>1347</ele>
        <time>2019-10-13T11:23:41.000Z</time>
      </trkpt>
      <trkpt lat="46.02002" lon="6.53831">
        <ele>1347.4000244141</ele>
        <time>2019-10-13T11:23:43.000Z</time>
      </trkpt>
      <trkpt lat="46.02003" lon="6.53832">
        <ele>1347.5999755859</ele>
        <time>2019-10-13T11:23:45.000Z</time>
      </trkpt>
      <trkpt lat="46.02005" lon="6.53834">
        <ele>1347.8000488281</ele>
        <time>2019-10-13T11:23:47.000Z</time>
      </trkpt>
      <trkpt lat="46.02006" lon="6.53835">
        <ele>1347.8000488281</ele>
        <time>2019-10-13T11:23:48.000Z</time>
      </trkpt>
      <trkpt lat="46.02009" lon="6.53838">
        <ele>1348</ele>
        <time>2019-10-13T11:23:50.000Z</time>
      </trkpt>
      <trkpt lat="46.0201" lon="6.53839">
        <ele>1348.1999511719</ele>
        <time>2019-10-13T11:23:51.000Z</time>
      </trkpt>
      <trkpt lat="46.02012" lon="6.53841">
        <ele>1348.5999755859</ele>
        <time>2019-10-13T11:23:53.000Z</time>
      </trkpt>
      <trkpt lat="46.02014" lon="6.53843">
        <ele>1349</ele>
        <time>2019-10-13T11:23:55.000Z</time>
      </trkpt>
      <trkpt lat="46.02016" lon="6.53844">
        <ele>1349.4000244141</ele>
        <time>2019-10-13T11:23:57.000Z</time>
      </trkpt>
      <trkpt lat="46.02017" lon="6.53845">
        <ele>1349.5999755859</ele>
        <time>2019-10-13T11:23:58.000Z</time>
      </trkpt>
      <trkpt lat="46.02018" lon="6.53845">
        <ele>1349.8000488281</ele>
        <time>2019-10-13T11:23:59.000Z</time>
      </trkpt>
      <trkpt lat="46.02019" lon="6.53846">
        <ele>1349.8000488281</ele>
        <time>2019-10-13T11:24:00.000Z</time>
      </trkpt>
      <trkpt lat="46.0202" lon="6.53846">
        <ele>1350.1999511719</ele>
        <time>2019-10-13T11:24:02.000Z</time>
      </trkpt>
      <trkpt lat="46.02021" lon="6.53846">
        <ele>1350.4000244141</ele>
        <time>2019-10-13T11:24:03.000Z</time>
      </trkpt>
      <trkpt lat="46.02024" lon="6.53847">
        <ele>1350.8000488281</ele>
        <time>2019-10-13T11:24:05.000Z</time>
      </trkpt>
      <trkpt lat="46.02025" lon="6.53847">
        <ele>1351</ele>
        <time>2019-10-13T11:24:06.000Z</time>
      </trkpt>
      <trkpt lat="46.02028" lon="6.53848">
        <ele>1351.1999511719</ele>
        <time>2019-10-13T11:24:09.000Z</time>
      </trkpt>
      <trkpt lat="46.02029" lon="6.53848">
        <ele>1351.4000244141</ele>
        <time>2019-10-13T11:24:10.000Z</time>
      </trkpt>
      <trkpt lat="46.02031" lon="6.53849">
        <ele>1351.8000488281</ele>
        <time>2019-10-13T11:24:12.000Z</time>
      </trkpt>
      <trkpt lat="46.02033" lon="6.53848">
        <ele>1352.1999511719</ele>
        <time>2019-10-13T11:24:14.000Z</time>
      </trkpt>
      <trkpt lat="46.02034" lon="6.53849">
        <ele>1352.4000244141</ele>
        <time>2019-10-13T11:24:15.000Z</time>
      </trkpt>
      <trkpt lat="46.02035" lon="6.53849">
        <ele>1352.4000244141</ele>
        <time>2019-10-13T11:24:16.000Z</time>
      </trkpt>
      <trkpt lat="46.02036" lon="6.53849">
        <ele>1352.5999755859</ele>
        <time>2019-10-13T11:24:17.000Z</time>
      </trkpt>
      <trkpt lat="46.02038" lon="6.5385">
        <ele>1353.1999511719</ele>
        <time>2019-10-13T11:24:19.000Z</time>
      </trkpt>
      <trkpt lat="46.02039" lon="6.53851">
        <ele>1353.4000244141</ele>
        <time>2019-10-13T11:24:20.000Z</time>
      </trkpt>
      <trkpt lat="46.02041" lon="6.53852">
        <ele>1353.5999755859</ele>
        <time>2019-10-13T11:24:22.000Z</time>
      </trkpt>
      <trkpt lat="46.02042" lon="6.53853">
        <ele>1354</ele>
        <time>2019-10-13T11:24:24.000Z</time>
      </trkpt>
      <trkpt lat="46.02043" lon="6.53853">
        <ele>1354.4000244141</ele>
        <time>2019-10-13T11:24:26.000Z</time>
      </trkpt>
      <trkpt lat="46.02043" lon="6.53854">
        <ele>1354.4000244141</ele>
        <time>2019-10-13T11:24:27.000Z</time>
      </trkpt>
      <trkpt lat="46.02044" lon="6.53854">
        <ele>1354.5999755859</ele>
        <time>2019-10-13T11:24:28.000Z</time>
      </trkpt>
      <trkpt lat="46.02045" lon="6.53855">
        <ele>1354.8000488281</ele>
        <time>2019-10-13T11:24:30.000Z</time>
      </trkpt>
      <trkpt lat="46.02048" lon="6.53858">
        <ele>1355</ele>
        <time>2019-10-13T11:24:34.000Z</time>
      </trkpt>
      <trkpt lat="46.0205" lon="6.53858">
        <ele>1355</ele>
        <time>2019-10-13T11:24:35.000Z</time>
      </trkpt>
      <trkpt lat="46.02053" lon="6.53858">
        <ele>1355.5999755859</ele>
        <time>2019-10-13T11:24:38.000Z</time>
      </trkpt>
      <trkpt lat="46.02054" lon="6.53857">
        <ele>1355.8000488281</ele>
        <time>2019-10-13T11:24:39.000Z</time>
      </trkpt>
      <trkpt lat="46.02057" lon="6.53857">
        <ele>1356.5999755859</ele>
        <time>2019-10-13T11:24:41.000Z</time>
      </trkpt>
      <trkpt lat="46.02058" lon="6.53858">
        <ele>1356.8000488281</ele>
        <time>2019-10-13T11:24:42.000Z</time>
      </trkpt>
      <trkpt lat="46.02061" lon="6.5386">
        <ele>1357.5999755859</ele>
        <time>2019-10-13T11:24:45.000Z</time>
      </trkpt>
      <trkpt lat="46.02062" lon="6.5386">
        <ele>1357.8000488281</ele>
        <time>2019-10-13T11:24:46.000Z</time>
      </trkpt>
      <trkpt lat="46.02064" lon="6.53861">
        <ele>1358.1999511719</ele>
        <time>2019-10-13T11:24:48.000Z</time>
      </trkpt>
      <trkpt lat="46.02067" lon="6.53861">
        <ele>1358.5999755859</ele>
        <time>2019-10-13T11:24:51.000Z</time>
      </trkpt>
      <trkpt lat="46.02069" lon="6.53862">
        <ele>1358.8000488281</ele>
        <time>2019-10-13T11:24:53.000Z</time>
      </trkpt>
      <trkpt lat="46.0207" lon="6.53863">
        <ele>1359</ele>
        <time>2019-10-13T11:24:54.000Z</time>
      </trkpt>
      <trkpt lat="46.02072" lon="6.53864">
        <ele>1359</ele>
        <time>2019-10-13T11:24:56.000Z</time>
      </trkpt>
      <trkpt lat="46.02076" lon="6.53867">
        <ele>1359.8000488281</ele>
        <time>2019-10-13T11:24:59.000Z</time>
      </trkpt>
      <trkpt lat="46.02077" lon="6.53868">
        <ele>1360</ele>
        <time>2019-10-13T11:25:00.000Z</time>
      </trkpt>
      <trkpt lat="46.02082" lon="6.53871">
        <ele>1360.5999755859</ele>
        <time>2019-10-13T11:25:04.000Z</time>
      </trkpt>
      <trkpt lat="46.02084" lon="6.53872">
        <ele>1360.8000488281</ele>
        <time>2019-10-13T11:25:05.000Z</time>
      </trkpt>
      <trkpt lat="46.02089" lon="6.53874">
        <ele>1361.1999511719</ele>
        <time>2019-10-13T11:25:08.000Z</time>
      </trkpt>
      <trkpt lat="46.02091" lon="6.53876">
        <ele>1361.4000244141</ele>
        <time>2019-10-13T11:25:10.000Z</time>
      </trkpt>
      <trkpt lat="46.02096" lon="6.53881">
        <ele>1362.4000244141</ele>
        <time>2019-10-13T11:25:14.000Z</time>
      </trkpt>
      <trkpt lat="46.021" lon="6.53885">
        <ele>1363.4000244141</ele>
        <time>2019-10-13T11:25:18.000Z</time>
      </trkpt>
      <trkpt lat="46.02101" lon="6.53886">
        <ele>1363.4000244141</ele>
        <time>2019-10-13T11:25:19.000Z</time>
      </trkpt>
      <trkpt lat="46.02103" lon="6.53889">
        <ele>1363.8000488281</ele>
        <time>2019-10-13T11:25:22.000Z</time>
      </trkpt>
      <trkpt lat="46.02105" lon="6.53891">
        <ele>1364</ele>
        <time>2019-10-13T11:25:24.000Z</time>
      </trkpt>
      <trkpt lat="46.02106" lon="6.53891">
        <ele>1364.4000244141</ele>
        <time>2019-10-13T11:25:25.000Z</time>
      </trkpt>
      <trkpt lat="46.02107" lon="6.53893">
        <ele>1364.8000488281</ele>
        <time>2019-10-13T11:25:26.000Z</time>
      </trkpt>
      <trkpt lat="46.02109" lon="6.53895">
        <ele>1365.4000244141</ele>
        <time>2019-10-13T11:25:28.000Z</time>
      </trkpt>
      <trkpt lat="46.02111" lon="6.53898">
        <ele>1365.8000488281</ele>
        <time>2019-10-13T11:25:30.000Z</time>
      </trkpt>
      <trkpt lat="46.02113" lon="6.539">
        <ele>1366.1999511719</ele>
        <time>2019-10-13T11:25:32.000Z</time>
      </trkpt>
      <trkpt lat="46.02115" lon="6.53903">
        <ele>1366.8000488281</ele>
        <time>2019-10-13T11:25:35.000Z</time>
      </trkpt>
      <trkpt lat="46.02116" lon="6.53904">
        <ele>1367</ele>
        <time>2019-10-13T11:25:36.000Z</time>
      </trkpt>
      <trkpt lat="46.02117" lon="6.53905">
        <ele>1367.5999755859</ele>
        <time>2019-10-13T11:25:38.000Z</time>
      </trkpt>
      <trkpt lat="46.02119" lon="6.53908">
        <ele>1368.1999511719</ele>
        <time>2019-10-13T11:25:40.000Z</time>
      </trkpt>
      <trkpt lat="46.0212" lon="6.5391">
        <ele>1368.5999755859</ele>
        <time>2019-10-13T11:25:42.000Z</time>
      </trkpt>
      <trkpt lat="46.02122" lon="6.53911">
        <ele>1369</ele>
        <time>2019-10-13T11:25:45.000Z</time>
      </trkpt>
      <trkpt lat="46.02121" lon="6.53911">
        <ele>1369.1999511719</ele>
        <time>2019-10-13T11:25:46.000Z</time>
      </trkpt>
      <trkpt lat="46.02121" lon="6.53911">
        <ele>1370</ele>
        <time>2019-10-13T11:25:52.000Z</time>
      </trkpt>
      <trkpt lat="46.02123" lon="6.53909">
        <ele>1370</ele>
        <time>2019-10-13T11:25:55.000Z</time>
      </trkpt>
      <trkpt lat="46.02124" lon="6.53908">
        <ele>1369.8000488281</ele>
        <time>2019-10-13T11:25:58.000Z</time>
      </trkpt>
      <trkpt lat="46.02126" lon="6.53909">
        <ele>1369.8000488281</ele>
        <time>2019-10-13T11:26:00.000Z</time>
      </trkpt>
      <trkpt lat="46.02127" lon="6.53909">
        <ele>1369.5999755859</ele>
        <time>2019-10-13T11:26:01.000Z</time>
      </trkpt>
      <trkpt lat="46.02129" lon="6.5391">
        <ele>1369.4000244141</ele>
        <time>2019-10-13T11:26:03.000Z</time>
      </trkpt>
      <trkpt lat="46.02131" lon="6.53911">
        <ele>1369.4000244141</ele>
        <time>2019-10-13T11:26:05.000Z</time>
      </trkpt>
      <trkpt lat="46.02134" lon="6.53911">
        <ele>1369.4000244141</ele>
        <time>2019-10-13T11:26:08.000Z</time>
      </trkpt>
      <trkpt lat="46.02134" lon="6.53911">
        <ele>1369.4000244141</ele>
        <time>2019-10-13T11:26:09.000Z</time>
      </trkpt>
      <trkpt lat="46.02134" lon="6.53917">
        <ele>1369.5999755859</ele>
        <time>2019-10-13T11:26:15.000Z</time>
      </trkpt>
      <trkpt lat="46.02135" lon="6.53921">
        <ele>1370.1999511719</ele>
        <time>2019-10-13T11:26:18.000Z</time>
      </trkpt>
      <trkpt lat="46.02135" lon="6.53923">
        <ele>1370.5999755859</ele>
        <time>2019-10-13T11:26:20.000Z</time>
      </trkpt>
      <trkpt lat="46.02135" lon="6.53923">
        <ele>1371</ele>
        <time>2019-10-13T11:26:22.000Z</time>
      </trkpt>
      <trkpt lat="46.02135" lon="6.53923">
        <ele>1371.1999511719</ele>
        <time>2019-10-13T11:26:23.000Z</time>
      </trkpt>
      <trkpt lat="46.02134" lon="6.53922">
        <ele>1372</ele>
        <time>2019-10-13T11:26:25.000Z</time>
      </trkpt>
      <trkpt lat="46.02134" lon="6.53922">
        <ele>1372.4000244141</ele>
        <time>2019-10-13T11:26:27.000Z</time>
      </trkpt>
      <trkpt lat="46.02134" lon="6.53922">
        <ele>1372.5999755859</ele>
        <time>2019-10-13T11:26:28.000Z</time>
      </trkpt>
      <trkpt lat="46.02134" lon="6.53922">
        <ele>1372.5999755859</ele>
        <time>2019-10-13T11:26:29.000Z</time>
      </trkpt>
      <trkpt lat="46.02134" lon="6.53922">
        <ele>1372.5999755859</ele>
        <time>2019-10-13T11:26:30.000Z</time>
      </trkpt>
      <trkpt lat="46.02138" lon="6.53925">
        <ele>1373.1999511719</ele>
        <time>2019-10-13T11:26:35.000Z</time>
      </trkpt>
      <trkpt lat="46.02139" lon="6.53926">
        <ele>1373.5999755859</ele>
        <time>2019-10-13T11:26:36.000Z</time>
      </trkpt>
      <trkpt lat="46.02144" lon="6.53927">
        <ele>1374.4000244141</ele>
        <time>2019-10-13T11:26:40.000Z</time>
      </trkpt>
      <trkpt lat="46.02145" lon="6.53927">
        <ele>1374.5999755859</ele>
        <time>2019-10-13T11:26:41.000Z</time>
      </trkpt>
      <trkpt lat="46.02145" lon="6.53927">
        <ele>1374.8000488281</ele>
        <time>2019-10-13T11:26:42.000Z</time>
      </trkpt>
      <trkpt lat="46.02149" lon="6.53931">
        <ele>1375.1999511719</ele>
        <time>2019-10-13T11:26:45.000Z</time>
      </trkpt>
      <trkpt lat="46.02151" lon="6.53934">
        <ele>1375.4000244141</ele>
        <time>2019-10-13T11:26:47.000Z</time>
      </trkpt>
      <trkpt lat="46.02153" lon="6.53935">
        <ele>1375.8000488281</ele>
        <time>2019-10-13T11:26:49.000Z</time>
      </trkpt>
      <trkpt lat="46.02156" lon="6.53937">
        <ele>1376.1999511719</ele>
        <time>2019-10-13T11:26:51.000Z</time>
      </trkpt>
      <trkpt lat="46.02157" lon="6.5394">
        <ele>1376.5999755859</ele>
        <time>2019-10-13T11:26:53.000Z</time>
      </trkpt>
      <trkpt lat="46.02159" lon="6.53945">
        <ele>1377</ele>
        <time>2019-10-13T11:26:55.000Z</time>
      </trkpt>
      <trkpt lat="46.02159" lon="6.53947">
        <ele>1377</ele>
        <time>2019-10-13T11:26:56.000Z</time>
      </trkpt>
      <trkpt lat="46.02159" lon="6.53949">
        <ele>1377.1999511719</ele>
        <time>2019-10-13T11:26:57.000Z</time>
      </trkpt>
      <trkpt lat="46.0216" lon="6.53952">
        <ele>1377.5999755859</ele>
        <time>2019-10-13T11:27:01.000Z</time>
      </trkpt>
      <trkpt lat="46.0216" lon="6.53952">
        <ele>1377.8000488281</ele>
        <time>2019-10-13T11:27:02.000Z</time>
      </trkpt>
      <trkpt lat="46.02162" lon="6.53955">
        <ele>1378</ele>
        <time>2019-10-13T11:27:05.000Z</time>
      </trkpt>
      <trkpt lat="46.02162" lon="6.53955">
        <ele>1378.1999511719</ele>
        <time>2019-10-13T11:27:06.000Z</time>
      </trkpt>
      <trkpt lat="46.02163" lon="6.53957">
        <ele>1378.5999755859</ele>
        <time>2019-10-13T11:27:07.000Z</time>
      </trkpt>
      <trkpt lat="46.02164" lon="6.53958">
        <ele>1379</ele>
        <time>2019-10-13T11:27:08.000Z</time>
      </trkpt>
      <trkpt lat="46.02165" lon="6.53959">
        <ele>1379.4000244141</ele>
        <time>2019-10-13T11:27:09.000Z</time>
      </trkpt>
      <trkpt lat="46.02167" lon="6.53961">
        <ele>1380</ele>
        <time>2019-10-13T11:27:11.000Z</time>
      </trkpt>
      <trkpt lat="46.02167" lon="6.53962">
        <ele>1380.1999511719</ele>
        <time>2019-10-13T11:27:12.000Z</time>
      </trkpt>
      <trkpt lat="46.02168" lon="6.53963">
        <ele>1380.4000244141</ele>
        <time>2019-10-13T11:27:13.000Z</time>
      </trkpt>
      <trkpt lat="46.0217" lon="6.53965">
        <ele>1381</ele>
        <time>2019-10-13T11:27:15.000Z</time>
      </trkpt>
      <trkpt lat="46.02173" lon="6.53969">
        <ele>1381.4000244141</ele>
        <time>2019-10-13T11:27:19.000Z</time>
      </trkpt>
      <trkpt lat="46.02174" lon="6.5397">
        <ele>1381.5999755859</ele>
        <time>2019-10-13T11:27:20.000Z</time>
      </trkpt>
      <trkpt lat="46.02177" lon="6.53974">
        <ele>1381.8000488281</ele>
        <time>2019-10-13T11:27:23.000Z</time>
      </trkpt>
      <trkpt lat="46.02178" lon="6.53976">
        <ele>1382</ele>
        <time>2019-10-13T11:27:24.000Z</time>
      </trkpt>
      <trkpt lat="46.02179" lon="6.53977">
        <ele>1382.1999511719</ele>
        <time>2019-10-13T11:27:25.000Z</time>
      </trkpt>
      <trkpt lat="46.0218" lon="6.53978">
        <ele>1382.4000244141</ele>
        <time>2019-10-13T11:27:26.000Z</time>
      </trkpt>
      <trkpt lat="46.02181" lon="6.53979">
        <ele>1382.8000488281</ele>
        <time>2019-10-13T11:27:27.000Z</time>
      </trkpt>
      <trkpt lat="46.02185" lon="6.53983">
        <ele>1384</ele>
        <time>2019-10-13T11:27:30.000Z</time>
      </trkpt>
      <trkpt lat="46.02186" lon="6.53984">
        <ele>1384</ele>
        <time>2019-10-13T11:27:31.000Z</time>
      </trkpt>
      <trkpt lat="46.02189" lon="6.53985">
        <ele>1384.4000244141</ele>
        <time>2019-10-13T11:27:33.000Z</time>
      </trkpt>
      <trkpt lat="46.02191" lon="6.53987">
        <ele>1384.8000488281</ele>
        <time>2019-10-13T11:27:35.000Z</time>
      </trkpt>
      <trkpt lat="46.02192" lon="6.53989">
        <ele>1385.1999511719</ele>
        <time>2019-10-13T11:27:38.000Z</time>
      </trkpt>
      <trkpt lat="46.02193" lon="6.53991">
        <ele>1385.5999755859</ele>
        <time>2019-10-13T11:27:40.000Z</time>
      </trkpt>
      <trkpt lat="46.02195" lon="6.53994">
        <ele>1386.4000244141</ele>
        <time>2019-10-13T11:27:42.000Z</time>
      </trkpt>
      <trkpt lat="46.02197" lon="6.53997">
        <ele>1386.8000488281</ele>
        <time>2019-10-13T11:27:44.000Z</time>
      </trkpt>
      <trkpt lat="46.02199" lon="6.54001">
        <ele>1387.4000244141</ele>
        <time>2019-10-13T11:27:47.000Z</time>
      </trkpt>
      <trkpt lat="46.022" lon="6.54004">
        <ele>1387.8000488281</ele>
        <time>2019-10-13T11:27:49.000Z</time>
      </trkpt>
      <trkpt lat="46.02203" lon="6.54005">
        <ele>1388.1999511719</ele>
        <time>2019-10-13T11:27:51.000Z</time>
      </trkpt>
      <trkpt lat="46.02204" lon="6.54007">
        <ele>1388.5999755859</ele>
        <time>2019-10-13T11:27:53.000Z</time>
      </trkpt>
      <trkpt lat="46.02205" lon="6.54011">
        <ele>1389.4000244141</ele>
        <time>2019-10-13T11:27:56.000Z</time>
      </trkpt>
      <trkpt lat="46.02204" lon="6.54012">
        <ele>1389.5999755859</ele>
        <time>2019-10-13T11:27:57.000Z</time>
      </trkpt>
      <trkpt lat="46.02204" lon="6.54015">
        <ele>1389.8000488281</ele>
        <time>2019-10-13T11:27:58.000Z</time>
      </trkpt>
      <trkpt lat="46.02204" lon="6.54018">
        <ele>1390</ele>
        <time>2019-10-13T11:28:00.000Z</time>
      </trkpt>
      <trkpt lat="46.02205" lon="6.54021">
        <ele>1390.4000244141</ele>
        <time>2019-10-13T11:28:02.000Z</time>
      </trkpt>
      <trkpt lat="46.02205" lon="6.54023">
        <ele>1390.5999755859</ele>
        <time>2019-10-13T11:28:03.000Z</time>
      </trkpt>
      <trkpt lat="46.02206" lon="6.54024">
        <ele>1390.8000488281</ele>
        <time>2019-10-13T11:28:04.000Z</time>
      </trkpt>
      <trkpt lat="46.02208" lon="6.54029">
        <ele>1391.8000488281</ele>
        <time>2019-10-13T11:28:08.000Z</time>
      </trkpt>
      <trkpt lat="46.02208" lon="6.5403">
        <ele>1391.8000488281</ele>
        <time>2019-10-13T11:28:09.000Z</time>
      </trkpt>
      <trkpt lat="46.02209" lon="6.54031">
        <ele>1392</ele>
        <time>2019-10-13T11:28:10.000Z</time>
      </trkpt>
      <trkpt lat="46.02212" lon="6.54034">
        <ele>1393</ele>
        <time>2019-10-13T11:28:14.000Z</time>
      </trkpt>
      <trkpt lat="46.02214" lon="6.54038">
        <ele>1393.5999755859</ele>
        <time>2019-10-13T11:28:17.000Z</time>
      </trkpt>
      <trkpt lat="46.02215" lon="6.54039">
        <ele>1393.8000488281</ele>
        <time>2019-10-13T11:28:18.000Z</time>
      </trkpt>
      <trkpt lat="46.02215" lon="6.5404">
        <ele>1394</ele>
        <time>2019-10-13T11:28:19.000Z</time>
      </trkpt>
      <trkpt lat="46.02218" lon="6.54045">
        <ele>1394.4000244141</ele>
        <time>2019-10-13T11:28:22.000Z</time>
      </trkpt>
      <trkpt lat="46.0222" lon="6.54048">
        <ele>1394.4000244141</ele>
        <time>2019-10-13T11:28:24.000Z</time>
      </trkpt>
      <trkpt lat="46.02221" lon="6.5405">
        <ele>1394.5999755859</ele>
        <time>2019-10-13T11:28:26.000Z</time>
      </trkpt>
      <trkpt lat="46.02221" lon="6.54052">
        <ele>1394.5999755859</ele>
        <time>2019-10-13T11:28:27.000Z</time>
      </trkpt>
      <trkpt lat="46.02224" lon="6.54059">
        <ele>1395</ele>
        <time>2019-10-13T11:28:34.000Z</time>
      </trkpt>
      <trkpt lat="46.02225" lon="6.5406">
        <ele>1395</ele>
        <time>2019-10-13T11:28:35.000Z</time>
      </trkpt>
      <trkpt lat="46.02226" lon="6.54061">
        <ele>1395.1999511719</ele>
        <time>2019-10-13T11:28:36.000Z</time>
      </trkpt>
      <trkpt lat="46.02229" lon="6.54065">
        <ele>1395.5999755859</ele>
        <time>2019-10-13T11:28:41.000Z</time>
      </trkpt>
      <trkpt lat="46.0223" lon="6.54065">
        <ele>1395.5999755859</ele>
        <time>2019-10-13T11:28:42.000Z</time>
      </trkpt>
      <trkpt lat="46.02232" lon="6.54066">
        <ele>1396.1999511719</ele>
        <time>2019-10-13T11:28:44.000Z</time>
      </trkpt>
      <trkpt lat="46.02235" lon="6.54068">
        <ele>1397</ele>
        <time>2019-10-13T11:28:48.000Z</time>
      </trkpt>
      <trkpt lat="46.02236" lon="6.54068">
        <ele>1397.4000244141</ele>
        <time>2019-10-13T11:28:49.000Z</time>
      </trkpt>
      <trkpt lat="46.02236" lon="6.54069">
        <ele>1397.5999755859</ele>
        <time>2019-10-13T11:28:50.000Z</time>
      </trkpt>
      <trkpt lat="46.02237" lon="6.5407">
        <ele>1397.8000488281</ele>
        <time>2019-10-13T11:28:51.000Z</time>
      </trkpt>
      <trkpt lat="46.0224" lon="6.54075">
        <ele>1398.4000244141</ele>
        <time>2019-10-13T11:28:56.000Z</time>
      </trkpt>
      <trkpt lat="46.02242" lon="6.54076">
        <ele>1398.8000488281</ele>
        <time>2019-10-13T11:28:58.000Z</time>
      </trkpt>
      <trkpt lat="46.02242" lon="6.54077">
        <ele>1399</ele>
        <time>2019-10-13T11:28:59.000Z</time>
      </trkpt>
      <trkpt lat="46.02244" lon="6.54079">
        <ele>1399.5999755859</ele>
        <time>2019-10-13T11:29:02.000Z</time>
      </trkpt>
      <trkpt lat="46.02244" lon="6.5408">
        <ele>1399.5999755859</ele>
        <time>2019-10-13T11:29:03.000Z</time>
      </trkpt>
      <trkpt lat="46.02244" lon="6.54082">
        <ele>1400</ele>
        <time>2019-10-13T11:29:05.000Z</time>
      </trkpt>
      <trkpt lat="46.02244" lon="6.54083">
        <ele>1400.4000244141</ele>
        <time>2019-10-13T11:29:06.000Z</time>
      </trkpt>
      <trkpt lat="46.02245" lon="6.54085">
        <ele>1400.8000488281</ele>
        <time>2019-10-13T11:29:07.000Z</time>
      </trkpt>
      <trkpt lat="46.02245" lon="6.54087">
        <ele>1401</ele>
        <time>2019-10-13T11:29:09.000Z</time>
      </trkpt>
      <trkpt lat="46.02246" lon="6.54091">
        <ele>1401.1999511719</ele>
        <time>2019-10-13T11:29:12.000Z</time>
      </trkpt>
      <trkpt lat="46.02246" lon="6.54092">
        <ele>1401.1999511719</ele>
        <time>2019-10-13T11:29:13.000Z</time>
      </trkpt>
      <trkpt lat="46.02247" lon="6.54093">
        <ele>1401.1999511719</ele>
        <time>2019-10-13T11:29:14.000Z</time>
      </trkpt>
      <trkpt lat="46.02248" lon="6.54095">
        <ele>1401.8000488281</ele>
        <time>2019-10-13T11:29:16.000Z</time>
      </trkpt>
      <trkpt lat="46.02249" lon="6.54095">
        <ele>1401.8000488281</ele>
        <time>2019-10-13T11:29:17.000Z</time>
      </trkpt>
      <trkpt lat="46.02251" lon="6.54097">
        <ele>1402.4000244141</ele>
        <time>2019-10-13T11:29:20.000Z</time>
      </trkpt>
      <trkpt lat="46.02253" lon="6.54098">
        <ele>1402.5999755859</ele>
        <time>2019-10-13T11:29:22.000Z</time>
      </trkpt>
      <trkpt lat="46.02254" lon="6.54099">
        <ele>1403.1999511719</ele>
        <time>2019-10-13T11:29:24.000Z</time>
      </trkpt>
      <trkpt lat="46.02254" lon="6.54099">
        <ele>1403.4000244141</ele>
        <time>2019-10-13T11:29:25.000Z</time>
      </trkpt>
      <trkpt lat="46.02255" lon="6.54101">
        <ele>1403.8000488281</ele>
        <time>2019-10-13T11:29:27.000Z</time>
      </trkpt>
      <trkpt lat="46.02256" lon="6.54104">
        <ele>1404.1999511719</ele>
        <time>2019-10-13T11:29:29.000Z</time>
      </trkpt>
      <trkpt lat="46.02258" lon="6.54107">
        <ele>1404.5999755859</ele>
        <time>2019-10-13T11:29:32.000Z</time>
      </trkpt>
      <trkpt lat="46.0226" lon="6.54111">
        <ele>1405</ele>
        <time>2019-10-13T11:29:35.000Z</time>
      </trkpt>
      <trkpt lat="46.0226" lon="6.54112">
        <ele>1405</ele>
        <time>2019-10-13T11:29:36.000Z</time>
      </trkpt>
      <trkpt lat="46.02261" lon="6.54113">
        <ele>1405.1999511719</ele>
        <time>2019-10-13T11:29:37.000Z</time>
      </trkpt>
      <trkpt lat="46.02261" lon="6.54116">
        <ele>1405.8000488281</ele>
        <time>2019-10-13T11:29:39.000Z</time>
      </trkpt>
      <trkpt lat="46.02261" lon="6.54117">
        <ele>1405.8000488281</ele>
        <time>2019-10-13T11:29:40.000Z</time>
      </trkpt>
      <trkpt lat="46.02262" lon="6.54119">
        <ele>1406</ele>
        <time>2019-10-13T11:29:41.000Z</time>
      </trkpt>
      <trkpt lat="46.02262" lon="6.54122">
        <ele>1406.4000244141</ele>
        <time>2019-10-13T11:29:43.000Z</time>
      </trkpt>
      <trkpt lat="46.02263" lon="6.54124">
        <ele>1406.8000488281</ele>
        <time>2019-10-13T11:29:44.000Z</time>
      </trkpt>
      <trkpt lat="46.02263" lon="6.54128">
        <ele>1407.1999511719</ele>
        <time>2019-10-13T11:29:47.000Z</time>
      </trkpt>
      <trkpt lat="46.02264" lon="6.54129">
        <ele>1407.1999511719</ele>
        <time>2019-10-13T11:29:48.000Z</time>
      </trkpt>
      <trkpt lat="46.02265" lon="6.5413">
        <ele>1407.5999755859</ele>
        <time>2019-10-13T11:29:50.000Z</time>
      </trkpt>
      <trkpt lat="46.02265" lon="6.54131">
        <ele>1407.8000488281</ele>
        <time>2019-10-13T11:29:51.000Z</time>
      </trkpt>
      <trkpt lat="46.02266" lon="6.54134">
        <ele>1408.5999755859</ele>
        <time>2019-10-13T11:29:54.000Z</time>
      </trkpt>
      <trkpt lat="46.02266" lon="6.54135">
        <ele>1408.8000488281</ele>
        <time>2019-10-13T11:29:55.000Z</time>
      </trkpt>
      <trkpt lat="46.02266" lon="6.54136">
        <ele>1408.8000488281</ele>
        <time>2019-10-13T11:29:56.000Z</time>
      </trkpt>
      <trkpt lat="46.02266" lon="6.54137">
        <ele>1409</ele>
        <time>2019-10-13T11:29:58.000Z</time>
      </trkpt>
      <trkpt lat="46.02267" lon="6.54137">
        <ele>1409.1999511719</ele>
        <time>2019-10-13T11:29:59.000Z</time>
      </trkpt>
      <trkpt lat="46.02268" lon="6.54137">
        <ele>1409.4000244141</ele>
        <time>2019-10-13T11:30:01.000Z</time>
      </trkpt>
      <trkpt lat="46.02269" lon="6.54137">
        <ele>1409.5999755859</ele>
        <time>2019-10-13T11:30:02.000Z</time>
      </trkpt>
      <trkpt lat="46.02269" lon="6.54137">
        <ele>1409.8000488281</ele>
        <time>2019-10-13T11:30:03.000Z</time>
      </trkpt>
      <trkpt lat="46.02269" lon="6.54137">
        <ele>1410.1999511719</ele>
        <time>2019-10-13T11:30:04.000Z</time>
      </trkpt>
      <trkpt lat="46.0227" lon="6.54141">
        <ele>1410.8000488281</ele>
        <time>2019-10-13T11:30:08.000Z</time>
      </trkpt>
      <trkpt lat="46.02272" lon="6.54144">
        <ele>1411</ele>
        <time>2019-10-13T11:30:10.000Z</time>
      </trkpt>
      <trkpt lat="46.02274" lon="6.54148">
        <ele>1412</ele>
        <time>2019-10-13T11:30:14.000Z</time>
      </trkpt>
      <trkpt lat="46.02275" lon="6.54151">
        <ele>1412.5999755859</ele>
        <time>2019-10-13T11:30:16.000Z</time>
      </trkpt>
      <trkpt lat="46.02276" lon="6.54156">
        <ele>1413</ele>
        <time>2019-10-13T11:30:19.000Z</time>
      </trkpt>
      <trkpt lat="46.02277" lon="6.5416">
        <ele>1413.4000244141</ele>
        <time>2019-10-13T11:30:21.000Z</time>
      </trkpt>
      <trkpt lat="46.02277" lon="6.54162">
        <ele>1413.4000244141</ele>
        <time>2019-10-13T11:30:22.000Z</time>
      </trkpt>
      <trkpt lat="46.02278" lon="6.54166">
        <ele>1413.5999755859</ele>
        <time>2019-10-13T11:30:24.000Z</time>
      </trkpt>
      <trkpt lat="46.02279" lon="6.54168">
        <ele>1413.8000488281</ele>
        <time>2019-10-13T11:30:25.000Z</time>
      </trkpt>
      <trkpt lat="46.02279" lon="6.5417">
        <ele>1413.8000488281</ele>
        <time>2019-10-13T11:30:26.000Z</time>
      </trkpt>
      <trkpt lat="46.0228" lon="6.54171">
        <ele>1414</ele>
        <time>2019-10-13T11:30:27.000Z</time>
      </trkpt>
      <trkpt lat="46.02281" lon="6.54173">
        <ele>1414.1999511719</ele>
        <time>2019-10-13T11:30:28.000Z</time>
      </trkpt>
      <trkpt lat="46.02285" lon="6.54178">
        <ele>1415</ele>
        <time>2019-10-13T11:30:32.000Z</time>
      </trkpt>
      <trkpt lat="46.02286" lon="6.54179">
        <ele>1415.1999511719</ele>
        <time>2019-10-13T11:30:33.000Z</time>
      </trkpt>
      <trkpt lat="46.02287" lon="6.5418">
        <ele>1415.4000244141</ele>
        <time>2019-10-13T11:30:34.000Z</time>
      </trkpt>
      <trkpt lat="46.02288" lon="6.54181">
        <ele>1415.4000244141</ele>
        <time>2019-10-13T11:30:35.000Z</time>
      </trkpt>
      <trkpt lat="46.02289" lon="6.54182">
        <ele>1415.5999755859</ele>
        <time>2019-10-13T11:30:36.000Z</time>
      </trkpt>
      <trkpt lat="46.0229" lon="6.54184">
        <ele>1416</ele>
        <time>2019-10-13T11:30:38.000Z</time>
      </trkpt>
      <trkpt lat="46.02291" lon="6.54186">
        <ele>1416.1999511719</ele>
        <time>2019-10-13T11:30:39.000Z</time>
      </trkpt>
      <trkpt lat="46.02291" lon="6.54189">
        <ele>1416.4000244141</ele>
        <time>2019-10-13T11:30:41.000Z</time>
      </trkpt>
      <trkpt lat="46.02291" lon="6.54191">
        <ele>1416.4000244141</ele>
        <time>2019-10-13T11:30:42.000Z</time>
      </trkpt>
      <trkpt lat="46.02292" lon="6.54198">
        <ele>1417.1999511719</ele>
        <time>2019-10-13T11:30:46.000Z</time>
      </trkpt>
      <trkpt lat="46.02293" lon="6.54199">
        <ele>1417.1999511719</ele>
        <time>2019-10-13T11:30:47.000Z</time>
      </trkpt>
      <trkpt lat="46.02294" lon="6.54202">
        <ele>1417.8000488281</ele>
        <time>2019-10-13T11:30:50.000Z</time>
      </trkpt>
      <trkpt lat="46.02294" lon="6.54203">
        <ele>1418</ele>
        <time>2019-10-13T11:30:51.000Z</time>
      </trkpt>
      <trkpt lat="46.02294" lon="6.54204">
        <ele>1418.1999511719</ele>
        <time>2019-10-13T11:30:52.000Z</time>
      </trkpt>
      <trkpt lat="46.02294" lon="6.54205">
        <ele>1418.4000244141</ele>
        <time>2019-10-13T11:30:53.000Z</time>
      </trkpt>
      <trkpt lat="46.02295" lon="6.54208">
        <ele>1419</ele>
        <time>2019-10-13T11:30:56.000Z</time>
      </trkpt>
      <trkpt lat="46.02296" lon="6.54209">
        <ele>1419</ele>
        <time>2019-10-13T11:30:57.000Z</time>
      </trkpt>
      <trkpt lat="46.02297" lon="6.54212">
        <ele>1419.4000244141</ele>
        <time>2019-10-13T11:30:59.000Z</time>
      </trkpt>
      <trkpt lat="46.02299" lon="6.54216">
        <ele>1419.5999755859</ele>
        <time>2019-10-13T11:31:02.000Z</time>
      </trkpt>
      <trkpt lat="46.023" lon="6.54217">
        <ele>1419.5999755859</ele>
        <time>2019-10-13T11:31:03.000Z</time>
      </trkpt>
      <trkpt lat="46.02302" lon="6.5422">
        <ele>1419.8000488281</ele>
        <time>2019-10-13T11:31:05.000Z</time>
      </trkpt>
      <trkpt lat="46.02304" lon="6.54222">
        <ele>1420.1999511719</ele>
        <time>2019-10-13T11:31:07.000Z</time>
      </trkpt>
      <trkpt lat="46.02305" lon="6.54224">
        <ele>1420.5999755859</ele>
        <time>2019-10-13T11:31:08.000Z</time>
      </trkpt>
      <trkpt lat="46.02306" lon="6.54225">
        <ele>1420.5999755859</ele>
        <time>2019-10-13T11:31:09.000Z</time>
      </trkpt>
      <trkpt lat="46.02308" lon="6.54227">
        <ele>1420.8000488281</ele>
        <time>2019-10-13T11:31:11.000Z</time>
      </trkpt>
      <trkpt lat="46.0231" lon="6.54229">
        <ele>1421</ele>
        <time>2019-10-13T11:31:13.000Z</time>
      </trkpt>
      <trkpt lat="46.02311" lon="6.5423">
        <ele>1421</ele>
        <time>2019-10-13T11:31:14.000Z</time>
      </trkpt>
      <trkpt lat="46.02312" lon="6.54233">
        <ele>1421.5999755859</ele>
        <time>2019-10-13T11:31:17.000Z</time>
      </trkpt>
      <trkpt lat="46.02312" lon="6.54234">
        <ele>1422</ele>
        <time>2019-10-13T11:31:18.000Z</time>
      </trkpt>
      <trkpt lat="46.02312" lon="6.54234">
        <ele>1422.1999511719</ele>
        <time>2019-10-13T11:31:19.000Z</time>
      </trkpt>
      <trkpt lat="46.02312" lon="6.54234">
        <ele>1422.4000244141</ele>
        <time>2019-10-13T11:31:20.000Z</time>
      </trkpt>
      <trkpt lat="46.02312" lon="6.54235">
        <ele>1422.5999755859</ele>
        <time>2019-10-13T11:31:21.000Z</time>
      </trkpt>
      <trkpt lat="46.02312" lon="6.54237">
        <ele>1422.8000488281</ele>
        <time>2019-10-13T11:31:23.000Z</time>
      </trkpt>
      <trkpt lat="46.02314" lon="6.54241">
        <ele>1423.5999755859</ele>
        <time>2019-10-13T11:31:27.000Z</time>
      </trkpt>
      <trkpt lat="46.02316" lon="6.54245">
        <ele>1424</ele>
        <time>2019-10-13T11:31:29.000Z</time>
      </trkpt>
      <trkpt lat="46.02317" lon="6.54247">
        <ele>1424.1999511719</ele>
        <time>2019-10-13T11:31:30.000Z</time>
      </trkpt>
      <trkpt lat="46.02318" lon="6.54249">
        <ele>1424.4000244141</ele>
        <time>2019-10-13T11:31:31.000Z</time>
      </trkpt>
      <trkpt lat="46.02324" lon="6.54259">
        <ele>1424.8000488281</ele>
        <time>2019-10-13T11:31:36.000Z</time>
      </trkpt>
      <trkpt lat="46.02324" lon="6.5426">
        <ele>1425</ele>
        <time>2019-10-13T11:31:37.000Z</time>
      </trkpt>
      <trkpt lat="46.02326" lon="6.54266">
        <ele>1425.5999755859</ele>
        <time>2019-10-13T11:31:41.000Z</time>
      </trkpt>
      <trkpt lat="46.02326" lon="6.54268">
        <ele>1425.8000488281</ele>
        <time>2019-10-13T11:31:43.000Z</time>
      </trkpt>
      <trkpt lat="46.02326" lon="6.54269">
        <ele>1426</ele>
        <time>2019-10-13T11:31:44.000Z</time>
      </trkpt>
      <trkpt lat="46.02327" lon="6.54271">
        <ele>1426.1999511719</ele>
        <time>2019-10-13T11:31:46.000Z</time>
      </trkpt>
      <trkpt lat="46.02328" lon="6.54273">
        <ele>1426.4000244141</ele>
        <time>2019-10-13T11:31:48.000Z</time>
      </trkpt>
      <trkpt lat="46.02328" lon="6.54274">
        <ele>1426.4000244141</ele>
        <time>2019-10-13T11:31:49.000Z</time>
      </trkpt>
      <trkpt lat="46.02329" lon="6.54279">
        <ele>1426.4000244141</ele>
        <time>2019-10-13T11:31:52.000Z</time>
      </trkpt>
      <trkpt lat="46.02331" lon="6.54285">
        <ele>1427.4000244141</ele>
        <time>2019-10-13T11:31:56.000Z</time>
      </trkpt>
      <trkpt lat="46.02333" lon="6.5429">
        <ele>1428</ele>
        <time>2019-10-13T11:31:59.000Z</time>
      </trkpt>
      <trkpt lat="46.02334" lon="6.54291">
        <ele>1428.1999511719</ele>
        <time>2019-10-13T11:32:00.000Z</time>
      </trkpt>
      <trkpt lat="46.02334" lon="6.54293">
        <ele>1428.1999511719</ele>
        <time>2019-10-13T11:32:01.000Z</time>
      </trkpt>
      <trkpt lat="46.02335" lon="6.54294">
        <ele>1428.4000244141</ele>
        <time>2019-10-13T11:32:02.000Z</time>
      </trkpt>
      <trkpt lat="46.02336" lon="6.54295">
        <ele>1428.5999755859</ele>
        <time>2019-10-13T11:32:03.000Z</time>
      </trkpt>
      <trkpt lat="46.02337" lon="6.54298">
        <ele>1429.1999511719</ele>
        <time>2019-10-13T11:32:06.000Z</time>
      </trkpt>
      <trkpt lat="46.02338" lon="6.54299">
        <ele>1429.4000244141</ele>
        <time>2019-10-13T11:32:07.000Z</time>
      </trkpt>
      <trkpt lat="46.02339" lon="6.543">
        <ele>1429.8000488281</ele>
        <time>2019-10-13T11:32:10.000Z</time>
      </trkpt>
      <trkpt lat="46.0234" lon="6.543">
        <ele>1430</ele>
        <time>2019-10-13T11:32:11.000Z</time>
      </trkpt>
      <trkpt lat="46.0234" lon="6.54301">
        <ele>1430.1999511719</ele>
        <time>2019-10-13T11:32:12.000Z</time>
      </trkpt>
      <trkpt lat="46.02341" lon="6.54301">
        <ele>1430.4000244141</ele>
        <time>2019-10-13T11:32:13.000Z</time>
      </trkpt>
      <trkpt lat="46.02342" lon="6.54301">
        <ele>1430.5999755859</ele>
        <time>2019-10-13T11:32:14.000Z</time>
      </trkpt>
      <trkpt lat="46.02343" lon="6.54302">
        <ele>1431</ele>
        <time>2019-10-13T11:32:16.000Z</time>
      </trkpt>
      <trkpt lat="46.02344" lon="6.54303">
        <ele>1431.5999755859</ele>
        <time>2019-10-13T11:32:18.000Z</time>
      </trkpt>
      <trkpt lat="46.02344" lon="6.54304">
        <ele>1431.5999755859</ele>
        <time>2019-10-13T11:32:20.000Z</time>
      </trkpt>
      <trkpt lat="46.02344" lon="6.54307">
        <ele>1432.1999511719</ele>
        <time>2019-10-13T11:32:23.000Z</time>
      </trkpt>
      <trkpt lat="46.02344" lon="6.54308">
        <ele>1432.1999511719</ele>
        <time>2019-10-13T11:32:24.000Z</time>
      </trkpt>
      <trkpt lat="46.02345" lon="6.54309">
        <ele>1432.1999511719</ele>
        <time>2019-10-13T11:32:25.000Z</time>
      </trkpt>
      <trkpt lat="46.02345" lon="6.54309">
        <ele>1432.1999511719</ele>
        <time>2019-10-13T11:32:26.000Z</time>
      </trkpt>
      <trkpt lat="46.02345" lon="6.5431">
        <ele>1432.4000244141</ele>
        <time>2019-10-13T11:32:27.000Z</time>
      </trkpt>
      <trkpt lat="46.02346" lon="6.54312">
        <ele>1432.5999755859</ele>
        <time>2019-10-13T11:32:29.000Z</time>
      </trkpt>
      <trkpt lat="46.02347" lon="6.54314">
        <ele>1432.8000488281</ele>
        <time>2019-10-13T11:32:30.000Z</time>
      </trkpt>
      <trkpt lat="46.02348" lon="6.54318">
        <ele>1433.1999511719</ele>
        <time>2019-10-13T11:32:32.000Z</time>
      </trkpt>
      <trkpt lat="46.02349" lon="6.5432">
        <ele>1433.1999511719</ele>
        <time>2019-10-13T11:32:33.000Z</time>
      </trkpt>
      <trkpt lat="46.0235" lon="6.54324">
        <ele>1433.4000244141</ele>
        <time>2019-10-13T11:32:35.000Z</time>
      </trkpt>
      <trkpt lat="46.02351" lon="6.54325">
        <ele>1433.5999755859</ele>
        <time>2019-10-13T11:32:36.000Z</time>
      </trkpt>
      <trkpt lat="46.02354" lon="6.54331">
        <ele>1434</ele>
        <time>2019-10-13T11:32:39.000Z</time>
      </trkpt>
      <trkpt lat="46.02356" lon="6.54332">
        <ele>1434.4000244141</ele>
        <time>2019-10-13T11:32:42.000Z</time>
      </trkpt>
      <trkpt lat="46.02358" lon="6.54336">
        <ele>1434.8000488281</ele>
        <time>2019-10-13T11:32:46.000Z</time>
      </trkpt>
      <trkpt lat="46.0236" lon="6.5434">
        <ele>1435</ele>
        <time>2019-10-13T11:32:48.000Z</time>
      </trkpt>
      <trkpt lat="46.02364" lon="6.54351">
        <ele>1436</ele>
        <time>2019-10-13T11:32:54.000Z</time>
      </trkpt>
      <trkpt lat="46.02365" lon="6.54352">
        <ele>1436.1999511719</ele>
        <time>2019-10-13T11:32:55.000Z</time>
      </trkpt>
      <trkpt lat="46.02366" lon="6.54353">
        <ele>1436.1999511719</ele>
        <time>2019-10-13T11:32:56.000Z</time>
      </trkpt>
      <trkpt lat="46.02368" lon="6.54355">
        <ele>1436.5999755859</ele>
        <time>2019-10-13T11:32:59.000Z</time>
      </trkpt>
      <trkpt lat="46.0237" lon="6.54357">
        <ele>1437.1999511719</ele>
        <time>2019-10-13T11:33:01.000Z</time>
      </trkpt>
      <trkpt lat="46.02371" lon="6.54359">
        <ele>1437.4000244141</ele>
        <time>2019-10-13T11:33:03.000Z</time>
      </trkpt>
      <trkpt lat="46.02373" lon="6.54362">
        <ele>1437.4000244141</ele>
        <time>2019-10-13T11:33:05.000Z</time>
      </trkpt>
      <trkpt lat="46.02375" lon="6.54366">
        <ele>1437.8000488281</ele>
        <time>2019-10-13T11:33:07.000Z</time>
      </trkpt>
      <trkpt lat="46.02376" lon="6.5437">
        <ele>1438.1999511719</ele>
        <time>2019-10-13T11:33:09.000Z</time>
      </trkpt>
      <trkpt lat="46.02376" lon="6.54371">
        <ele>1438.4000244141</ele>
        <time>2019-10-13T11:33:10.000Z</time>
      </trkpt>
      <trkpt lat="46.02377" lon="6.54373">
        <ele>1438.5999755859</ele>
        <time>2019-10-13T11:33:11.000Z</time>
      </trkpt>
      <trkpt lat="46.02379" lon="6.54377">
        <ele>1439.4000244141</ele>
        <time>2019-10-13T11:33:15.000Z</time>
      </trkpt>
      <trkpt lat="46.0238" lon="6.54379">
        <ele>1440</ele>
        <time>2019-10-13T11:33:17.000Z</time>
      </trkpt>
      <trkpt lat="46.02381" lon="6.54382">
        <ele>1440.1999511719</ele>
        <time>2019-10-13T11:33:20.000Z</time>
      </trkpt>
      <trkpt lat="46.02381" lon="6.54383">
        <ele>1440.4000244141</ele>
        <time>2019-10-13T11:33:22.000Z</time>
      </trkpt>
      <trkpt lat="46.02382" lon="6.54386">
        <ele>1441</ele>
        <time>2019-10-13T11:33:24.000Z</time>
      </trkpt>
      <trkpt lat="46.02382" lon="6.54387">
        <ele>1441</ele>
        <time>2019-10-13T11:33:25.000Z</time>
      </trkpt>
      <trkpt lat="46.02383" lon="6.5439">
        <ele>1441.1999511719</ele>
        <time>2019-10-13T11:33:27.000Z</time>
      </trkpt>
      <trkpt lat="46.02384" lon="6.54391">
        <ele>1441.4000244141</ele>
        <time>2019-10-13T11:33:28.000Z</time>
      </trkpt>
      <trkpt lat="46.02384" lon="6.54396">
        <ele>1441.4000244141</ele>
        <time>2019-10-13T11:33:30.000Z</time>
      </trkpt>
      <trkpt lat="46.02384" lon="6.54399">
        <ele>1441.5999755859</ele>
        <time>2019-10-13T11:33:32.000Z</time>
      </trkpt>
      <trkpt lat="46.02384" lon="6.544">
        <ele>1441.8000488281</ele>
        <time>2019-10-13T11:33:33.000Z</time>
      </trkpt>
      <trkpt lat="46.02384" lon="6.54403">
        <ele>1442.1999511719</ele>
        <time>2019-10-13T11:33:35.000Z</time>
      </trkpt>
      <trkpt lat="46.02385" lon="6.54407">
        <ele>1442.8000488281</ele>
        <time>2019-10-13T11:33:38.000Z</time>
      </trkpt>
      <trkpt lat="46.02389" lon="6.54411">
        <ele>1443.5999755859</ele>
        <time>2019-10-13T11:33:42.000Z</time>
      </trkpt>
      <trkpt lat="46.02391" lon="6.54414">
        <ele>1444</ele>
        <time>2019-10-13T11:33:45.000Z</time>
      </trkpt>
      <trkpt lat="46.02392" lon="6.54414">
        <ele>1444.1999511719</ele>
        <time>2019-10-13T11:33:46.000Z</time>
      </trkpt>
      <trkpt lat="46.02397" lon="6.54419">
        <ele>1445</ele>
        <time>2019-10-13T11:33:51.000Z</time>
      </trkpt>
      <trkpt lat="46.02399" lon="6.5442">
        <ele>1445.1999511719</ele>
        <time>2019-10-13T11:33:53.000Z</time>
      </trkpt>
      <trkpt lat="46.02401" lon="6.5442">
        <ele>1445.4000244141</ele>
        <time>2019-10-13T11:33:55.000Z</time>
      </trkpt>
      <trkpt lat="46.02402" lon="6.5442">
        <ele>1446.1999511719</ele>
        <time>2019-10-13T11:33:57.000Z</time>
      </trkpt>
      <trkpt lat="46.02404" lon="6.54421">
        <ele>1446.8000488281</ele>
        <time>2019-10-13T11:33:59.000Z</time>
      </trkpt>
      <trkpt lat="46.02405" lon="6.54422">
        <ele>1447</ele>
        <time>2019-10-13T11:34:02.000Z</time>
      </trkpt>
      <trkpt lat="46.02405" lon="6.54423">
        <ele>1447.1999511719</ele>
        <time>2019-10-13T11:34:03.000Z</time>
      </trkpt>
      <trkpt lat="46.02407" lon="6.54422">
        <ele>1447.5999755859</ele>
        <time>2019-10-13T11:34:05.000Z</time>
      </trkpt>
      <trkpt lat="46.02409" lon="6.54422">
        <ele>1448.1999511719</ele>
        <time>2019-10-13T11:34:08.000Z</time>
      </trkpt>
      <trkpt lat="46.0241" lon="6.54423">
        <ele>1448.4000244141</ele>
        <time>2019-10-13T11:34:09.000Z</time>
      </trkpt>
      <trkpt lat="46.02411" lon="6.54424">
        <ele>1448.5999755859</ele>
        <time>2019-10-13T11:34:10.000Z</time>
      </trkpt>
      <trkpt lat="46.02413" lon="6.54426">
        <ele>1448.8000488281</ele>
        <time>2019-10-13T11:34:12.000Z</time>
      </trkpt>
      <trkpt lat="46.02416" lon="6.5443">
        <ele>1449.4000244141</ele>
        <time>2019-10-13T11:34:15.000Z</time>
      </trkpt>
      <trkpt lat="46.02418" lon="6.54432">
        <ele>1450.4000244141</ele>
        <time>2019-10-13T11:34:19.000Z</time>
      </trkpt>
      <trkpt lat="46.02419" lon="6.54433">
        <ele>1450.5999755859</ele>
        <time>2019-10-13T11:34:20.000Z</time>
      </trkpt>
      <trkpt lat="46.02423" lon="6.54437">
        <ele>1451</ele>
        <time>2019-10-13T11:34:23.000Z</time>
      </trkpt>
      <trkpt lat="46.02426" lon="6.54439">
        <ele>1451.5999755859</ele>
        <time>2019-10-13T11:34:25.000Z</time>
      </trkpt>
      <trkpt lat="46.02427" lon="6.54441">
        <ele>1451.5999755859</ele>
        <time>2019-10-13T11:34:26.000Z</time>
      </trkpt>
      <trkpt lat="46.02429" lon="6.54444">
        <ele>1451.8000488281</ele>
        <time>2019-10-13T11:34:28.000Z</time>
      </trkpt>
      <trkpt lat="46.02431" lon="6.54446">
        <ele>1452</ele>
        <time>2019-10-13T11:34:30.000Z</time>
      </trkpt>
      <trkpt lat="46.02433" lon="6.54447">
        <ele>1452.4000244141</ele>
        <time>2019-10-13T11:34:32.000Z</time>
      </trkpt>
      <trkpt lat="46.02435" lon="6.54449">
        <ele>1452.8000488281</ele>
        <time>2019-10-13T11:34:34.000Z</time>
      </trkpt>
      <trkpt lat="46.02436" lon="6.5445">
        <ele>1453</ele>
        <time>2019-10-13T11:34:35.000Z</time>
      </trkpt>
      <trkpt lat="46.02438" lon="6.54453">
        <ele>1453.4000244141</ele>
        <time>2019-10-13T11:34:37.000Z</time>
      </trkpt>
      <trkpt lat="46.02438" lon="6.54454">
        <ele>1453.5999755859</ele>
        <time>2019-10-13T11:34:38.000Z</time>
      </trkpt>
      <trkpt lat="46.02439" lon="6.54455">
        <ele>1453.8000488281</ele>
        <time>2019-10-13T11:34:39.000Z</time>
      </trkpt>
      <trkpt lat="46.02441" lon="6.54459">
        <ele>1454.4000244141</ele>
        <time>2019-10-13T11:34:42.000Z</time>
      </trkpt>
      <trkpt lat="46.02443" lon="6.54462">
        <ele>1454.8000488281</ele>
        <time>2019-10-13T11:34:45.000Z</time>
      </trkpt>
      <trkpt lat="46.02444" lon="6.54464">
        <ele>1454.8000488281</ele>
        <time>2019-10-13T11:34:46.000Z</time>
      </trkpt>
      <trkpt lat="46.02444" lon="6.54465">
        <ele>1454.8000488281</ele>
        <time>2019-10-13T11:34:47.000Z</time>
      </trkpt>
      <trkpt lat="46.02445" lon="6.54466">
        <ele>1455</ele>
        <time>2019-10-13T11:34:48.000Z</time>
      </trkpt>
      <trkpt lat="46.02449" lon="6.54469">
        <ele>1455.8000488281</ele>
        <time>2019-10-13T11:34:52.000Z</time>
      </trkpt>
      <trkpt lat="46.02451" lon="6.54471">
        <ele>1456</ele>
        <time>2019-10-13T11:34:54.000Z</time>
      </trkpt>
      <trkpt lat="46.02456" lon="6.54475">
        <ele>1456.1999511719</ele>
        <time>2019-10-13T11:34:58.000Z</time>
      </trkpt>
      <trkpt lat="46.02458" lon="6.54476">
        <ele>1457</ele>
        <time>2019-10-13T11:35:01.000Z</time>
      </trkpt>
      <trkpt lat="46.02459" lon="6.54477">
        <ele>1457.1999511719</ele>
        <time>2019-10-13T11:35:02.000Z</time>
      </trkpt>
      <trkpt lat="46.0246" lon="6.5448">
        <ele>1457.8000488281</ele>
        <time>2019-10-13T11:35:05.000Z</time>
      </trkpt>
      <trkpt lat="46.0246" lon="6.5448">
        <ele>1458</ele>
        <time>2019-10-13T11:35:06.000Z</time>
      </trkpt>
      <trkpt lat="46.02461" lon="6.54481">
        <ele>1458.1999511719</ele>
        <time>2019-10-13T11:35:07.000Z</time>
      </trkpt>
      <trkpt lat="46.02462" lon="6.54482">
        <ele>1458.4000244141</ele>
        <time>2019-10-13T11:35:09.000Z</time>
      </trkpt>
      <trkpt lat="46.02464" lon="6.54484">
        <ele>1458.8000488281</ele>
        <time>2019-10-13T11:35:11.000Z</time>
      </trkpt>
      <trkpt lat="46.02466" lon="6.54484">
        <ele>1459.1999511719</ele>
        <time>2019-10-13T11:35:13.000Z</time>
      </trkpt>
      <trkpt lat="46.02469" lon="6.54486">
        <ele>1459.5999755859</ele>
        <time>2019-10-13T11:35:16.000Z</time>
      </trkpt>
      <trkpt lat="46.02471" lon="6.54487">
        <ele>1460.1999511719</ele>
        <time>2019-10-13T11:35:19.000Z</time>
      </trkpt>
      <trkpt lat="46.02471" lon="6.54488">
        <ele>1460.4000244141</ele>
        <time>2019-10-13T11:35:20.000Z</time>
      </trkpt>
      <trkpt lat="46.02472" lon="6.54488">
        <ele>1460.5999755859</ele>
        <time>2019-10-13T11:35:23.000Z</time>
      </trkpt>
      <trkpt lat="46.02475" lon="6.54491">
        <ele>1461.1999511719</ele>
        <time>2019-10-13T11:35:27.000Z</time>
      </trkpt>
      <trkpt lat="46.02475" lon="6.54491">
        <ele>1461.4000244141</ele>
        <time>2019-10-13T11:35:28.000Z</time>
      </trkpt>
      <trkpt lat="46.02476" lon="6.54495">
        <ele>1461.8000488281</ele>
        <time>2019-10-13T11:35:32.000Z</time>
      </trkpt>
      <trkpt lat="46.0248" lon="6.54499">
        <ele>1462</ele>
        <time>2019-10-13T11:35:37.000Z</time>
      </trkpt>
      <trkpt lat="46.02484" lon="6.54499">
        <ele>1462.1999511719</ele>
        <time>2019-10-13T11:35:40.000Z</time>
      </trkpt>
      <trkpt lat="46.02487" lon="6.54501">
        <ele>1462.1999511719</ele>
        <time>2019-10-13T11:35:44.000Z</time>
      </trkpt>
      <trkpt lat="46.02489" lon="6.54499">
        <ele>1462.4000244141</ele>
        <time>2019-10-13T11:35:47.000Z</time>
      </trkpt>
      <trkpt lat="46.02489" lon="6.54499">
        <ele>1462.4000244141</ele>
        <time>2019-10-13T11:35:48.000Z</time>
      </trkpt>
      <trkpt lat="46.02492" lon="6.54501">
        <ele>1463.4000244141</ele>
        <time>2019-10-13T11:35:52.000Z</time>
      </trkpt>
      <trkpt lat="46.02492" lon="6.54501">
        <ele>1463.5999755859</ele>
        <time>2019-10-13T11:35:53.000Z</time>
      </trkpt>
      <trkpt lat="46.02495" lon="6.54503">
        <ele>1464</ele>
        <time>2019-10-13T11:35:56.000Z</time>
      </trkpt>
      <trkpt lat="46.02498" lon="6.54502">
        <ele>1464.5999755859</ele>
        <time>2019-10-13T11:35:59.000Z</time>
      </trkpt>
      <trkpt lat="46.02499" lon="6.54501">
        <ele>1464.8000488281</ele>
        <time>2019-10-13T11:36:00.000Z</time>
      </trkpt>
      <trkpt lat="46.02501" lon="6.545">
        <ele>1465</ele>
        <time>2019-10-13T11:36:01.000Z</time>
      </trkpt>
      <trkpt lat="46.02507" lon="6.54498">
        <ele>1465.4000244141</ele>
        <time>2019-10-13T11:36:07.000Z</time>
      </trkpt>
      <trkpt lat="46.02512" lon="6.54501">
        <ele>1465.8000488281</ele>
        <time>2019-10-13T11:36:10.000Z</time>
      </trkpt>
      <trkpt lat="46.02513" lon="6.54502">
        <ele>1466</ele>
        <time>2019-10-13T11:36:11.000Z</time>
      </trkpt>
      <trkpt lat="46.02517" lon="6.54504">
        <ele>1466</ele>
        <time>2019-10-13T11:36:14.000Z</time>
      </trkpt>
      <trkpt lat="46.02518" lon="6.54505">
        <ele>1466.1999511719</ele>
        <time>2019-10-13T11:36:15.000Z</time>
      </trkpt>
      <trkpt lat="46.02525" lon="6.5451">
        <ele>1465.8000488281</ele>
        <time>2019-10-13T11:36:20.000Z</time>
      </trkpt>
      <trkpt lat="46.02528" lon="6.54512">
        <ele>1465.8000488281</ele>
        <time>2019-10-13T11:36:22.000Z</time>
      </trkpt>
      <trkpt lat="46.02534" lon="6.54518">
        <ele>1466</ele>
        <time>2019-10-13T11:36:28.000Z</time>
      </trkpt>
      <trkpt lat="46.02535" lon="6.5452">
        <ele>1466</ele>
        <time>2019-10-13T11:36:29.000Z</time>
      </trkpt>
      <trkpt lat="46.02537" lon="6.54523">
        <ele>1465.8000488281</ele>
        <time>2019-10-13T11:36:32.000Z</time>
      </trkpt>
      <trkpt lat="46.0254" lon="6.54527">
        <ele>1466</ele>
        <time>2019-10-13T11:36:35.000Z</time>
      </trkpt>
      <trkpt lat="46.02541" lon="6.54529">
        <ele>1466</ele>
        <time>2019-10-13T11:36:36.000Z</time>
      </trkpt>
      <trkpt lat="46.02549" lon="6.54532">
        <ele>1467</ele>
        <time>2019-10-13T11:36:43.000Z</time>
      </trkpt>
      <trkpt lat="46.0255" lon="6.54533">
        <ele>1467</ele>
        <time>2019-10-13T11:36:44.000Z</time>
      </trkpt>
      <trkpt lat="46.02554" lon="6.54535">
        <ele>1467.4000244141</ele>
        <time>2019-10-13T11:36:48.000Z</time>
      </trkpt>
      <trkpt lat="46.02555" lon="6.54536">
        <ele>1467.5999755859</ele>
        <time>2019-10-13T11:36:49.000Z</time>
      </trkpt>
      <trkpt lat="46.02557" lon="6.54538">
        <ele>1467.8000488281</ele>
        <time>2019-10-13T11:36:51.000Z</time>
      </trkpt>
      <trkpt lat="46.02557" lon="6.54538">
        <ele>1467.8000488281</ele>
        <time>2019-10-13T11:36:52.000Z</time>
      </trkpt>
      <trkpt lat="46.02559" lon="6.54539">
        <ele>1468</ele>
        <time>2019-10-13T11:36:54.000Z</time>
      </trkpt>
      <trkpt lat="46.02563" lon="6.54541">
        <ele>1469</ele>
        <time>2019-10-13T11:36:58.000Z</time>
      </trkpt>
      <trkpt lat="46.02564" lon="6.54541">
        <ele>1469.4000244141</ele>
        <time>2019-10-13T11:37:00.000Z</time>
      </trkpt>
      <trkpt lat="46.02567" lon="6.54542">
        <ele>1469.8000488281</ele>
        <time>2019-10-13T11:37:03.000Z</time>
      </trkpt>
      <trkpt lat="46.02567" lon="6.54544">
        <ele>1470.1999511719</ele>
        <time>2019-10-13T11:37:04.000Z</time>
      </trkpt>
      <trkpt lat="46.02568" lon="6.54545">
        <ele>1470.4000244141</ele>
        <time>2019-10-13T11:37:06.000Z</time>
      </trkpt>
      <trkpt lat="46.02568" lon="6.54545">
        <ele>1470.4000244141</ele>
        <time>2019-10-13T11:37:07.000Z</time>
      </trkpt>
      <trkpt lat="46.02568" lon="6.54547">
        <ele>1470.4000244141</ele>
        <time>2019-10-13T11:37:09.000Z</time>
      </trkpt>
      <trkpt lat="46.02568" lon="6.54553">
        <ele>1470.4000244141</ele>
        <time>2019-10-13T11:37:12.000Z</time>
      </trkpt>
      <trkpt lat="46.02567" lon="6.54554">
        <ele>1470.4000244141</ele>
        <time>2019-10-13T11:37:13.000Z</time>
      </trkpt>
      <trkpt lat="46.02567" lon="6.54555">
        <ele>1470.4000244141</ele>
        <time>2019-10-13T11:37:14.000Z</time>
      </trkpt>
      <trkpt lat="46.02568" lon="6.54559">
        <ele>1470.1999511719</ele>
        <time>2019-10-13T11:37:18.000Z</time>
      </trkpt>
      <trkpt lat="46.0257" lon="6.5456">
        <ele>1470.1999511719</ele>
        <time>2019-10-13T11:37:20.000Z</time>
      </trkpt>
      <trkpt lat="46.02572" lon="6.54559">
        <ele>1470.5999755859</ele>
        <time>2019-10-13T11:37:23.000Z</time>
      </trkpt>
      <trkpt lat="46.02585" lon="6.54556">
        <ele>1471</ele>
        <time>2019-10-13T11:37:32.000Z</time>
      </trkpt>
      <trkpt lat="46.02589" lon="6.54558">
        <ele>1471.1999511719</ele>
        <time>2019-10-13T11:37:35.000Z</time>
      </trkpt>
      <trkpt lat="46.0259" lon="6.54558">
        <ele>1471.1999511719</ele>
        <time>2019-10-13T11:37:36.000Z</time>
      </trkpt>
      <trkpt lat="46.02591" lon="6.54558">
        <ele>1471.4000244141</ele>
        <time>2019-10-13T11:37:38.000Z</time>
      </trkpt>
      <trkpt lat="46.02592" lon="6.54559">
        <ele>1471.5999755859</ele>
        <time>2019-10-13T11:37:39.000Z</time>
      </trkpt>
      <trkpt lat="46.02592" lon="6.5456">
        <ele>1471.5999755859</ele>
        <time>2019-10-13T11:37:41.000Z</time>
      </trkpt>
      <trkpt lat="46.02595" lon="6.54562">
        <ele>1472</ele>
        <time>2019-10-13T11:37:46.000Z</time>
      </trkpt>
      <trkpt lat="46.02597" lon="6.54563">
        <ele>1472.1999511719</ele>
        <time>2019-10-13T11:37:48.000Z</time>
      </trkpt>
      <trkpt lat="46.02598" lon="6.54565">
        <ele>1472.5999755859</ele>
        <time>2019-10-13T11:37:52.000Z</time>
      </trkpt>
      <trkpt lat="46.02601" lon="6.54567">
        <ele>1473</ele>
        <time>2019-10-13T11:37:56.000Z</time>
      </trkpt>
      <trkpt lat="46.02604" lon="6.54565">
        <ele>1473</ele>
        <time>2019-10-13T11:37:59.000Z</time>
      </trkpt>
      <trkpt lat="46.02608" lon="6.54565">
        <ele>1473.1999511719</ele>
        <time>2019-10-13T11:38:03.000Z</time>
      </trkpt>
      <trkpt lat="46.02612" lon="6.54565">
        <ele>1474</ele>
        <time>2019-10-13T11:38:07.000Z</time>
      </trkpt>
      <trkpt lat="46.02613" lon="6.54566">
        <ele>1474.1999511719</ele>
        <time>2019-10-13T11:38:09.000Z</time>
      </trkpt>
      <trkpt lat="46.02614" lon="6.54566">
        <ele>1474.1999511719</ele>
        <time>2019-10-13T11:38:10.000Z</time>
      </trkpt>
      <trkpt lat="46.02614" lon="6.54567">
        <ele>1474.1999511719</ele>
        <time>2019-10-13T11:38:12.000Z</time>
      </trkpt>
      <trkpt lat="46.02614" lon="6.54567">
        <ele>1474.1999511719</ele>
        <time>2019-10-13T11:38:13.000Z</time>
      </trkpt>
      <trkpt lat="46.02616" lon="6.54568">
        <ele>1474</ele>
        <time>2019-10-13T11:38:15.000Z</time>
      </trkpt>
      <trkpt lat="46.02619" lon="6.54571">
        <ele>1474</ele>
        <time>2019-10-13T11:38:18.000Z</time>
      </trkpt>
      <trkpt lat="46.02622" lon="6.5457">
        <ele>1474.1999511719</ele>
        <time>2019-10-13T11:38:25.000Z</time>
      </trkpt>
      <trkpt lat="46.02622" lon="6.5457">
        <ele>1474.4000244141</ele>
        <time>2019-10-13T11:38:26.000Z</time>
      </trkpt>
      <trkpt lat="46.02625" lon="6.54569">
        <ele>1474.5999755859</ele>
        <time>2019-10-13T11:38:29.000Z</time>
      </trkpt>
      <trkpt lat="46.0263" lon="6.5457">
        <ele>1474.5999755859</ele>
        <time>2019-10-13T11:38:33.000Z</time>
      </trkpt>
      <trkpt lat="46.02632" lon="6.54571">
        <ele>1474.8000488281</ele>
        <time>2019-10-13T11:38:34.000Z</time>
      </trkpt>
      <trkpt lat="46.02635" lon="6.54572">
        <ele>1475</ele>
        <time>2019-10-13T11:38:37.000Z</time>
      </trkpt>
      <trkpt lat="46.02638" lon="6.54575">
        <ele>1475.1999511719</ele>
        <time>2019-10-13T11:38:39.000Z</time>
      </trkpt>
      <trkpt lat="46.02641" lon="6.54578">
        <ele>1475.1999511719</ele>
        <time>2019-10-13T11:38:43.000Z</time>
      </trkpt>
      <trkpt lat="46.02642" lon="6.54579">
        <ele>1475.5999755859</ele>
        <time>2019-10-13T11:38:45.000Z</time>
      </trkpt>
      <trkpt lat="46.02643" lon="6.54578">
        <ele>1476</ele>
        <time>2019-10-13T11:38:47.000Z</time>
      </trkpt>
      <trkpt lat="46.02644" lon="6.54578">
        <ele>1476.4000244141</ele>
        <time>2019-10-13T11:38:49.000Z</time>
      </trkpt>
      <trkpt lat="46.02644" lon="6.54577">
        <ele>1476.5999755859</ele>
        <time>2019-10-13T11:38:50.000Z</time>
      </trkpt>
      <trkpt lat="46.02645" lon="6.54577">
        <ele>1476.5999755859</ele>
        <time>2019-10-13T11:38:51.000Z</time>
      </trkpt>
      <trkpt lat="46.02647" lon="6.54577">
        <ele>1476.8000488281</ele>
        <time>2019-10-13T11:38:53.000Z</time>
      </trkpt>
      <trkpt lat="46.02649" lon="6.54575">
        <ele>1477.8000488281</ele>
        <time>2019-10-13T11:38:56.000Z</time>
      </trkpt>
      <trkpt lat="46.0265" lon="6.54574">
        <ele>1478</ele>
        <time>2019-10-13T11:38:57.000Z</time>
      </trkpt>
      <trkpt lat="46.02652" lon="6.54573">
        <ele>1478.8000488281</ele>
        <time>2019-10-13T11:39:01.000Z</time>
      </trkpt>
      <trkpt lat="46.02655" lon="6.54572">
        <ele>1479</ele>
        <time>2019-10-13T11:39:04.000Z</time>
      </trkpt>
      <trkpt lat="46.02658" lon="6.54573">
        <ele>1479.5999755859</ele>
        <time>2019-10-13T11:39:06.000Z</time>
      </trkpt>
      <trkpt lat="46.0266" lon="6.54574">
        <ele>1479.8000488281</ele>
        <time>2019-10-13T11:39:07.000Z</time>
      </trkpt>
      <trkpt lat="46.02662" lon="6.54574">
        <ele>1480.1999511719</ele>
        <time>2019-10-13T11:39:09.000Z</time>
      </trkpt>
      <trkpt lat="46.02663" lon="6.54574">
        <ele>1480.4000244141</ele>
        <time>2019-10-13T11:39:10.000Z</time>
      </trkpt>
      <trkpt lat="46.02665" lon="6.54573">
        <ele>1480.8000488281</ele>
        <time>2019-10-13T11:39:12.000Z</time>
      </trkpt>
      <trkpt lat="46.02665" lon="6.54572">
        <ele>1481</ele>
        <time>2019-10-13T11:39:13.000Z</time>
      </trkpt>
      <trkpt lat="46.02667" lon="6.5457">
        <ele>1481.1999511719</ele>
        <time>2019-10-13T11:39:15.000Z</time>
      </trkpt>
      <trkpt lat="46.02667" lon="6.54569">
        <ele>1481.8000488281</ele>
        <time>2019-10-13T11:39:17.000Z</time>
      </trkpt>
      <trkpt lat="46.02668" lon="6.54569">
        <ele>1482</ele>
        <time>2019-10-13T11:39:18.000Z</time>
      </trkpt>
      <trkpt lat="46.02671" lon="6.54572">
        <ele>1482.5999755859</ele>
        <time>2019-10-13T11:39:22.000Z</time>
      </trkpt>
      <trkpt lat="46.02672" lon="6.54573">
        <ele>1482.8000488281</ele>
        <time>2019-10-13T11:39:23.000Z</time>
      </trkpt>
      <trkpt lat="46.02673" lon="6.54575">
        <ele>1483</ele>
        <time>2019-10-13T11:39:24.000Z</time>
      </trkpt>
      <trkpt lat="46.02674" lon="6.54578">
        <ele>1483.4000244141</ele>
        <time>2019-10-13T11:39:26.000Z</time>
      </trkpt>
      <trkpt lat="46.02675" lon="6.54579">
        <ele>1483.5999755859</ele>
        <time>2019-10-13T11:39:27.000Z</time>
      </trkpt>
      <trkpt lat="46.02676" lon="6.54579">
        <ele>1483.8000488281</ele>
        <time>2019-10-13T11:39:28.000Z</time>
      </trkpt>
      <trkpt lat="46.02678" lon="6.54581">
        <ele>1484.1999511719</ele>
        <time>2019-10-13T11:39:30.000Z</time>
      </trkpt>
      <trkpt lat="46.0268" lon="6.54582">
        <ele>1484.4000244141</ele>
        <time>2019-10-13T11:39:31.000Z</time>
      </trkpt>
      <trkpt lat="46.02684" lon="6.54581">
        <ele>1485</ele>
        <time>2019-10-13T11:39:34.000Z</time>
      </trkpt>
      <trkpt lat="46.02685" lon="6.54581">
        <ele>1485.1999511719</ele>
        <time>2019-10-13T11:39:35.000Z</time>
      </trkpt>
      <trkpt lat="46.02687" lon="6.54581">
        <ele>1485.8000488281</ele>
        <time>2019-10-13T11:39:37.000Z</time>
      </trkpt>
      <trkpt lat="46.02688" lon="6.54581">
        <ele>1486</ele>
        <time>2019-10-13T11:39:39.000Z</time>
      </trkpt>
      <trkpt lat="46.0269" lon="6.54581">
        <ele>1486.1999511719</ele>
        <time>2019-10-13T11:39:41.000Z</time>
      </trkpt>
      <trkpt lat="46.02691" lon="6.54581">
        <ele>1486.4000244141</ele>
        <time>2019-10-13T11:39:42.000Z</time>
      </trkpt>
      <trkpt lat="46.02695" lon="6.54582">
        <ele>1487</ele>
        <time>2019-10-13T11:39:45.000Z</time>
      </trkpt>
      <trkpt lat="46.02697" lon="6.54582">
        <ele>1487.1999511719</ele>
        <time>2019-10-13T11:39:47.000Z</time>
      </trkpt>
      <trkpt lat="46.02699" lon="6.54581">
        <ele>1487.5999755859</ele>
        <time>2019-10-13T11:39:48.000Z</time>
      </trkpt>
      <trkpt lat="46.027" lon="6.54581">
        <ele>1488</ele>
        <time>2019-10-13T11:39:49.000Z</time>
      </trkpt>
      <trkpt lat="46.02704" lon="6.54579">
        <ele>1488.5999755859</ele>
        <time>2019-10-13T11:39:52.000Z</time>
      </trkpt>
      <trkpt lat="46.02705" lon="6.54579">
        <ele>1488.8000488281</ele>
        <time>2019-10-13T11:39:53.000Z</time>
      </trkpt>
      <trkpt lat="46.02707" lon="6.5458">
        <ele>1489.1999511719</ele>
        <time>2019-10-13T11:39:55.000Z</time>
      </trkpt>
      <trkpt lat="46.0271" lon="6.54583">
        <ele>1490</ele>
        <time>2019-10-13T11:39:59.000Z</time>
      </trkpt>
      <trkpt lat="46.02711" lon="6.54585">
        <ele>1490.5999755859</ele>
        <time>2019-10-13T11:40:01.000Z</time>
      </trkpt>
      <trkpt lat="46.02714" lon="6.54587">
        <ele>1491.1999511719</ele>
        <time>2019-10-13T11:40:04.000Z</time>
      </trkpt>
      <trkpt lat="46.02716" lon="6.54588">
        <ele>1491.5999755859</ele>
        <time>2019-10-13T11:40:06.000Z</time>
      </trkpt>
      <trkpt lat="46.02716" lon="6.54588">
        <ele>1492</ele>
        <time>2019-10-13T11:40:07.000Z</time>
      </trkpt>
      <trkpt lat="46.02717" lon="6.54588">
        <ele>1492.1999511719</ele>
        <time>2019-10-13T11:40:08.000Z</time>
      </trkpt>
      <trkpt lat="46.02718" lon="6.54588">
        <ele>1492.4000244141</ele>
        <time>2019-10-13T11:40:10.000Z</time>
      </trkpt>
      <trkpt lat="46.02721" lon="6.5459">
        <ele>1492.8000488281</ele>
        <time>2019-10-13T11:40:13.000Z</time>
      </trkpt>
      <trkpt lat="46.02723" lon="6.54592">
        <ele>1493.1999511719</ele>
        <time>2019-10-13T11:40:15.000Z</time>
      </trkpt>
      <trkpt lat="46.02724" lon="6.54594">
        <ele>1493.4000244141</ele>
        <time>2019-10-13T11:40:16.000Z</time>
      </trkpt>
      <trkpt lat="46.02725" lon="6.54595">
        <ele>1493.8000488281</ele>
        <time>2019-10-13T11:40:17.000Z</time>
      </trkpt>
      <trkpt lat="46.02728" lon="6.54599">
        <ele>1494.1999511719</ele>
        <time>2019-10-13T11:40:19.000Z</time>
      </trkpt>
      <trkpt lat="46.0273" lon="6.54601">
        <ele>1494.5999755859</ele>
        <time>2019-10-13T11:40:21.000Z</time>
      </trkpt>
      <trkpt lat="46.02731" lon="6.54603">
        <ele>1494.8000488281</ele>
        <time>2019-10-13T11:40:22.000Z</time>
      </trkpt>
      <trkpt lat="46.02733" lon="6.54605">
        <ele>1495.1999511719</ele>
        <time>2019-10-13T11:40:24.000Z</time>
      </trkpt>
      <trkpt lat="46.02735" lon="6.54606">
        <ele>1495.5999755859</ele>
        <time>2019-10-13T11:40:26.000Z</time>
      </trkpt>
      <trkpt lat="46.02737" lon="6.54608">
        <ele>1496.1999511719</ele>
        <time>2019-10-13T11:40:29.000Z</time>
      </trkpt>
      <trkpt lat="46.02739" lon="6.54609">
        <ele>1496.5999755859</ele>
        <time>2019-10-13T11:40:31.000Z</time>
      </trkpt>
      <trkpt lat="46.02743" lon="6.54612">
        <ele>1497.5999755859</ele>
        <time>2019-10-13T11:40:36.000Z</time>
      </trkpt>
      <trkpt lat="46.02744" lon="6.54612">
        <ele>1497.8000488281</ele>
        <time>2019-10-13T11:40:37.000Z</time>
      </trkpt>
      <trkpt lat="46.02745" lon="6.54613">
        <ele>1498.1999511719</ele>
        <time>2019-10-13T11:40:39.000Z</time>
      </trkpt>
      <trkpt lat="46.02747" lon="6.54614">
        <ele>1499</ele>
        <time>2019-10-13T11:40:42.000Z</time>
      </trkpt>
      <trkpt lat="46.02749" lon="6.54614">
        <ele>1499.1999511719</ele>
        <time>2019-10-13T11:40:44.000Z</time>
      </trkpt>
      <trkpt lat="46.0275" lon="6.54615">
        <ele>1499.4000244141</ele>
        <time>2019-10-13T11:40:45.000Z</time>
      </trkpt>
      <trkpt lat="46.02751" lon="6.54616">
        <ele>1500</ele>
        <time>2019-10-13T11:40:47.000Z</time>
      </trkpt>
      <trkpt lat="46.02752" lon="6.54617">
        <ele>1500.1999511719</ele>
        <time>2019-10-13T11:40:48.000Z</time>
      </trkpt>
      <trkpt lat="46.02753" lon="6.54617">
        <ele>1500.4000244141</ele>
        <time>2019-10-13T11:40:49.000Z</time>
      </trkpt>
      <trkpt lat="46.02754" lon="6.54617">
        <ele>1500.5999755859</ele>
        <time>2019-10-13T11:40:51.000Z</time>
      </trkpt>
      <trkpt lat="46.02757" lon="6.54614">
        <ele>1501</ele>
        <time>2019-10-13T11:40:54.000Z</time>
      </trkpt>
      <trkpt lat="46.02759" lon="6.54613">
        <ele>1501.1999511719</ele>
        <time>2019-10-13T11:40:55.000Z</time>
      </trkpt>
      <trkpt lat="46.02766" lon="6.54611">
        <ele>1502</ele>
        <time>2019-10-13T11:41:00.000Z</time>
      </trkpt>
      <trkpt lat="46.02767" lon="6.54611">
        <ele>1502.1999511719</ele>
        <time>2019-10-13T11:41:01.000Z</time>
      </trkpt>
      <trkpt lat="46.02768" lon="6.5461">
        <ele>1502.4000244141</ele>
        <time>2019-10-13T11:41:02.000Z</time>
      </trkpt>
      <trkpt lat="46.02769" lon="6.54609">
        <ele>1502.4000244141</ele>
        <time>2019-10-13T11:41:03.000Z</time>
      </trkpt>
      <trkpt lat="46.02772" lon="6.54607">
        <ele>1502.5999755859</ele>
        <time>2019-10-13T11:41:05.000Z</time>
      </trkpt>
      <trkpt lat="46.02777" lon="6.54601">
        <ele>1502.5999755859</ele>
        <time>2019-10-13T11:41:09.000Z</time>
      </trkpt>
      <trkpt lat="46.02779" lon="6.546">
        <ele>1502.5999755859</ele>
        <time>2019-10-13T11:41:10.000Z</time>
      </trkpt>
      <trkpt lat="46.02784" lon="6.54597">
        <ele>1502.8000488281</ele>
        <time>2019-10-13T11:41:14.000Z</time>
      </trkpt>
      <trkpt lat="46.02787" lon="6.54596">
        <ele>1503.4000244141</ele>
        <time>2019-10-13T11:41:16.000Z</time>
      </trkpt>
      <trkpt lat="46.02788" lon="6.54596">
        <ele>1503.4000244141</ele>
        <time>2019-10-13T11:41:17.000Z</time>
      </trkpt>
      <trkpt lat="46.02791" lon="6.54597">
        <ele>1503.5999755859</ele>
        <time>2019-10-13T11:41:20.000Z</time>
      </trkpt>
      <trkpt lat="46.02793" lon="6.54598">
        <ele>1503.8000488281</ele>
        <time>2019-10-13T11:41:22.000Z</time>
      </trkpt>
      <trkpt lat="46.02797" lon="6.54598">
        <ele>1504.1999511719</ele>
        <time>2019-10-13T11:41:25.000Z</time>
      </trkpt>
      <trkpt lat="46.02798" lon="6.54598">
        <ele>1504.4000244141</ele>
        <time>2019-10-13T11:41:26.000Z</time>
      </trkpt>
      <trkpt lat="46.028" lon="6.54597">
        <ele>1504.8000488281</ele>
        <time>2019-10-13T11:41:28.000Z</time>
      </trkpt>
      <trkpt lat="46.02801" lon="6.54597">
        <ele>1505</ele>
        <time>2019-10-13T11:41:29.000Z</time>
      </trkpt>
      <trkpt lat="46.02802" lon="6.54596">
        <ele>1505.1999511719</ele>
        <time>2019-10-13T11:41:32.000Z</time>
      </trkpt>
      <trkpt lat="46.02803" lon="6.54596">
        <ele>1505.1999511719</ele>
        <time>2019-10-13T11:41:33.000Z</time>
      </trkpt>
      <trkpt lat="46.02803" lon="6.54595">
        <ele>1505.4000244141</ele>
        <time>2019-10-13T11:41:34.000Z</time>
      </trkpt>
      <trkpt lat="46.02804" lon="6.54595">
        <ele>1505.4000244141</ele>
        <time>2019-10-13T11:41:35.000Z</time>
      </trkpt>
      <trkpt lat="46.02806" lon="6.54595">
        <ele>1505.5999755859</ele>
        <time>2019-10-13T11:41:38.000Z</time>
      </trkpt>
      <trkpt lat="46.02807" lon="6.54596">
        <ele>1505.8000488281</ele>
        <time>2019-10-13T11:41:39.000Z</time>
      </trkpt>
      <trkpt lat="46.02809" lon="6.54596">
        <ele>1505.8000488281</ele>
        <time>2019-10-13T11:41:41.000Z</time>
      </trkpt>
      <trkpt lat="46.0281" lon="6.54596">
        <ele>1506</ele>
        <time>2019-10-13T11:41:42.000Z</time>
      </trkpt>
      <trkpt lat="46.02813" lon="6.54595">
        <ele>1506</ele>
        <time>2019-10-13T11:41:45.000Z</time>
      </trkpt>
      <trkpt lat="46.02815" lon="6.54595">
        <ele>1506.1999511719</ele>
        <time>2019-10-13T11:41:46.000Z</time>
      </trkpt>
      <trkpt lat="46.02816" lon="6.54595">
        <ele>1506.1999511719</ele>
        <time>2019-10-13T11:41:47.000Z</time>
      </trkpt>
      <trkpt lat="46.02817" lon="6.54595">
        <ele>1506.4000244141</ele>
        <time>2019-10-13T11:41:48.000Z</time>
      </trkpt>
      <trkpt lat="46.02821" lon="6.54593">
        <ele>1506.5999755859</ele>
        <time>2019-10-13T11:41:51.000Z</time>
      </trkpt>
      <trkpt lat="46.02822" lon="6.54593">
        <ele>1506.8000488281</ele>
        <time>2019-10-13T11:41:52.000Z</time>
      </trkpt>
      <trkpt lat="46.02822" lon="6.54594">
        <ele>1507</ele>
        <time>2019-10-13T11:41:53.000Z</time>
      </trkpt>
      <trkpt lat="46.02826" lon="6.54595">
        <ele>1507.1999511719</ele>
        <time>2019-10-13T11:41:57.000Z</time>
      </trkpt>
      <trkpt lat="46.02828" lon="6.54594">
        <ele>1507.5999755859</ele>
        <time>2019-10-13T11:41:59.000Z</time>
      </trkpt>
      <trkpt lat="46.0283" lon="6.54594">
        <ele>1507.5999755859</ele>
        <time>2019-10-13T11:42:00.000Z</time>
      </trkpt>
      <trkpt lat="46.02831" lon="6.54593">
        <ele>1507.8000488281</ele>
        <time>2019-10-13T11:42:01.000Z</time>
      </trkpt>
      <trkpt lat="46.02833" lon="6.54593">
        <ele>1508</ele>
        <time>2019-10-13T11:42:03.000Z</time>
      </trkpt>
      <trkpt lat="46.02835" lon="6.54594">
        <ele>1508.5999755859</ele>
        <time>2019-10-13T11:42:06.000Z</time>
      </trkpt>
      <trkpt lat="46.02836" lon="6.54594">
        <ele>1509</ele>
        <time>2019-10-13T11:42:08.000Z</time>
      </trkpt>
      <trkpt lat="46.02837" lon="6.54593">
        <ele>1509.1999511719</ele>
        <time>2019-10-13T11:42:11.000Z</time>
      </trkpt>
      <trkpt lat="46.02838" lon="6.54593">
        <ele>1509.5999755859</ele>
        <time>2019-10-13T11:42:13.000Z</time>
      </trkpt>
      <trkpt lat="46.02841" lon="6.54593">
        <ele>1509.8000488281</ele>
        <time>2019-10-13T11:42:15.000Z</time>
      </trkpt>
      <trkpt lat="46.02845" lon="6.54594">
        <ele>1510.4000244141</ele>
        <time>2019-10-13T11:42:20.000Z</time>
      </trkpt>
      <trkpt lat="46.02846" lon="6.54594">
        <ele>1510.5999755859</ele>
        <time>2019-10-13T11:42:21.000Z</time>
      </trkpt>
      <trkpt lat="46.02847" lon="6.54592">
        <ele>1511</ele>
        <time>2019-10-13T11:42:24.000Z</time>
      </trkpt>
      <trkpt lat="46.02847" lon="6.54591">
        <ele>1511.4000244141</ele>
        <time>2019-10-13T11:42:25.000Z</time>
      </trkpt>
      <trkpt lat="46.02848" lon="6.5459">
        <ele>1512</ele>
        <time>2019-10-13T11:42:27.000Z</time>
      </trkpt>
      <trkpt lat="46.02851" lon="6.54586">
        <ele>1512.8000488281</ele>
        <time>2019-10-13T11:42:31.000Z</time>
      </trkpt>
      <trkpt lat="46.02851" lon="6.54585">
        <ele>1513</ele>
        <time>2019-10-13T11:42:32.000Z</time>
      </trkpt>
      <trkpt lat="46.02852" lon="6.54585">
        <ele>1513.1999511719</ele>
        <time>2019-10-13T11:42:33.000Z</time>
      </trkpt>
      <trkpt lat="46.02853" lon="6.54584">
        <ele>1513.1999511719</ele>
        <time>2019-10-13T11:42:34.000Z</time>
      </trkpt>
      <trkpt lat="46.02856" lon="6.54583">
        <ele>1513.5999755859</ele>
        <time>2019-10-13T11:42:36.000Z</time>
      </trkpt>
      <trkpt lat="46.02858" lon="6.5458">
        <ele>1513.8000488281</ele>
        <time>2019-10-13T11:42:38.000Z</time>
      </trkpt>
      <trkpt lat="46.02859" lon="6.54579">
        <ele>1514.1999511719</ele>
        <time>2019-10-13T11:42:39.000Z</time>
      </trkpt>
      <trkpt lat="46.0286" lon="6.54576">
        <ele>1514.5999755859</ele>
        <time>2019-10-13T11:42:41.000Z</time>
      </trkpt>
      <trkpt lat="46.02861" lon="6.54576">
        <ele>1515</ele>
        <time>2019-10-13T11:42:42.000Z</time>
      </trkpt>
      <trkpt lat="46.02862" lon="6.54575">
        <ele>1515.1999511719</ele>
        <time>2019-10-13T11:42:43.000Z</time>
      </trkpt>
      <trkpt lat="46.02863" lon="6.54574">
        <ele>1515.1999511719</ele>
        <time>2019-10-13T11:42:44.000Z</time>
      </trkpt>
      <trkpt lat="46.02864" lon="6.54574">
        <ele>1515.4000244141</ele>
        <time>2019-10-13T11:42:45.000Z</time>
      </trkpt>
      <trkpt lat="46.02867" lon="6.54573">
        <ele>1516.4000244141</ele>
        <time>2019-10-13T11:42:49.000Z</time>
      </trkpt>
      <trkpt lat="46.02868" lon="6.54572">
        <ele>1516.5999755859</ele>
        <time>2019-10-13T11:42:50.000Z</time>
      </trkpt>
      <trkpt lat="46.02868" lon="6.54572">
        <ele>1517</ele>
        <time>2019-10-13T11:42:51.000Z</time>
      </trkpt>
      <trkpt lat="46.0287" lon="6.54569">
        <ele>1517.4000244141</ele>
        <time>2019-10-13T11:42:55.000Z</time>
      </trkpt>
      <trkpt lat="46.02872" lon="6.54568">
        <ele>1518.4000244141</ele>
        <time>2019-10-13T11:42:58.000Z</time>
      </trkpt>
      <trkpt lat="46.02873" lon="6.54567">
        <ele>1518.5999755859</ele>
        <time>2019-10-13T11:42:59.000Z</time>
      </trkpt>
      <trkpt lat="46.02875" lon="6.54566">
        <ele>1519</ele>
        <time>2019-10-13T11:43:02.000Z</time>
      </trkpt>
      <trkpt lat="46.02878" lon="6.54566">
        <ele>1519.5999755859</ele>
        <time>2019-10-13T11:43:05.000Z</time>
      </trkpt>
      <trkpt lat="46.0288" lon="6.54566">
        <ele>1520.1999511719</ele>
        <time>2019-10-13T11:43:08.000Z</time>
      </trkpt>
      <trkpt lat="46.02882" lon="6.54565">
        <ele>1521</ele>
        <time>2019-10-13T11:43:10.000Z</time>
      </trkpt>
      <trkpt lat="46.02883" lon="6.54565">
        <ele>1521.1999511719</ele>
        <time>2019-10-13T11:43:11.000Z</time>
      </trkpt>
      <trkpt lat="46.02887" lon="6.54564">
        <ele>1522</ele>
        <time>2019-10-13T11:43:14.000Z</time>
      </trkpt>
      <trkpt lat="46.02888" lon="6.54563">
        <ele>1522.1999511719</ele>
        <time>2019-10-13T11:43:15.000Z</time>
      </trkpt>
      <trkpt lat="46.0289" lon="6.54561">
        <ele>1522.5999755859</ele>
        <time>2019-10-13T11:43:18.000Z</time>
      </trkpt>
      <trkpt lat="46.02891" lon="6.54561">
        <ele>1523</ele>
        <time>2019-10-13T11:43:20.000Z</time>
      </trkpt>
      <trkpt lat="46.02892" lon="6.54561">
        <ele>1523.4000244141</ele>
        <time>2019-10-13T11:43:21.000Z</time>
      </trkpt>
      <trkpt lat="46.02894" lon="6.54562">
        <ele>1523.5999755859</ele>
        <time>2019-10-13T11:43:22.000Z</time>
      </trkpt>
      <trkpt lat="46.02897" lon="6.54563">
        <ele>1524</ele>
        <time>2019-10-13T11:43:24.000Z</time>
      </trkpt>
      <trkpt lat="46.02898" lon="6.54563">
        <ele>1524.1999511719</ele>
        <time>2019-10-13T11:43:25.000Z</time>
      </trkpt>
      <trkpt lat="46.02899" lon="6.54563">
        <ele>1524.4000244141</ele>
        <time>2019-10-13T11:43:26.000Z</time>
      </trkpt>
      <trkpt lat="46.029" lon="6.54563">
        <ele>1524.5999755859</ele>
        <time>2019-10-13T11:43:28.000Z</time>
      </trkpt>
      <trkpt lat="46.02902" lon="6.54562">
        <ele>1525.4000244141</ele>
        <time>2019-10-13T11:43:31.000Z</time>
      </trkpt>
      <trkpt lat="46.02903" lon="6.54562">
        <ele>1525.8000488281</ele>
        <time>2019-10-13T11:43:32.000Z</time>
      </trkpt>
      <trkpt lat="46.02904" lon="6.54562">
        <ele>1526.1999511719</ele>
        <time>2019-10-13T11:43:33.000Z</time>
      </trkpt>
      <trkpt lat="46.02906" lon="6.54562">
        <ele>1526.4000244141</ele>
        <time>2019-10-13T11:43:35.000Z</time>
      </trkpt>
      <trkpt lat="46.02907" lon="6.54564">
        <ele>1527</ele>
        <time>2019-10-13T11:43:37.000Z</time>
      </trkpt>
      <trkpt lat="46.0291" lon="6.54564">
        <ele>1527.5999755859</ele>
        <time>2019-10-13T11:43:40.000Z</time>
      </trkpt>
      <trkpt lat="46.02911" lon="6.54564">
        <ele>1527.8000488281</ele>
        <time>2019-10-13T11:43:41.000Z</time>
      </trkpt>
      <trkpt lat="46.02913" lon="6.54565">
        <ele>1528.1999511719</ele>
        <time>2019-10-13T11:43:43.000Z</time>
      </trkpt>
      <trkpt lat="46.02915" lon="6.54565">
        <ele>1528.5999755859</ele>
        <time>2019-10-13T11:43:45.000Z</time>
      </trkpt>
      <trkpt lat="46.02916" lon="6.54565">
        <ele>1528.8000488281</ele>
        <time>2019-10-13T11:43:46.000Z</time>
      </trkpt>
      <trkpt lat="46.02921" lon="6.54565">
        <ele>1529.4000244141</ele>
        <time>2019-10-13T11:43:50.000Z</time>
      </trkpt>
      <trkpt lat="46.02922" lon="6.54565">
        <ele>1529.8000488281</ele>
        <time>2019-10-13T11:43:51.000Z</time>
      </trkpt>
      <trkpt lat="46.02925" lon="6.54568">
        <ele>1530.1999511719</ele>
        <time>2019-10-13T11:43:54.000Z</time>
      </trkpt>
      <trkpt lat="46.02928" lon="6.54568">
        <ele>1530.4000244141</ele>
        <time>2019-10-13T11:43:58.000Z</time>
      </trkpt>
      <trkpt lat="46.02929" lon="6.54568">
        <ele>1530.8000488281</ele>
        <time>2019-10-13T11:44:00.000Z</time>
      </trkpt>
      <trkpt lat="46.0293" lon="6.54567">
        <ele>1530.8000488281</ele>
        <time>2019-10-13T11:44:01.000Z</time>
      </trkpt>
      <trkpt lat="46.02932" lon="6.54567">
        <ele>1531.5999755859</ele>
        <time>2019-10-13T11:44:04.000Z</time>
      </trkpt>
      <trkpt lat="46.02933" lon="6.54567">
        <ele>1532.1999511719</ele>
        <time>2019-10-13T11:44:05.000Z</time>
      </trkpt>
      <trkpt lat="46.02934" lon="6.54566">
        <ele>1533.4000244141</ele>
        <time>2019-10-13T11:44:08.000Z</time>
      </trkpt>
      <trkpt lat="46.02935" lon="6.54564">
        <ele>1533.8000488281</ele>
        <time>2019-10-13T11:44:09.000Z</time>
      </trkpt>
      <trkpt lat="46.02936" lon="6.54563">
        <ele>1534.4000244141</ele>
        <time>2019-10-13T11:44:11.000Z</time>
      </trkpt>
      <trkpt lat="46.02937" lon="6.54563">
        <ele>1534.5999755859</ele>
        <time>2019-10-13T11:44:12.000Z</time>
      </trkpt>
      <trkpt lat="46.02937" lon="6.54563">
        <ele>1534.8000488281</ele>
        <time>2019-10-13T11:44:13.000Z</time>
      </trkpt>
      <trkpt lat="46.02938" lon="6.54562">
        <ele>1535.1999511719</ele>
        <time>2019-10-13T11:44:14.000Z</time>
      </trkpt>
      <trkpt lat="46.0294" lon="6.54562">
        <ele>1535.4000244141</ele>
        <time>2019-10-13T11:44:15.000Z</time>
      </trkpt>
      <trkpt lat="46.02941" lon="6.54561">
        <ele>1535.5999755859</ele>
        <time>2019-10-13T11:44:16.000Z</time>
      </trkpt>
      <trkpt lat="46.02945" lon="6.54559">
        <ele>1536.4000244141</ele>
        <time>2019-10-13T11:44:20.000Z</time>
      </trkpt>
      <trkpt lat="46.02949" lon="6.54559">
        <ele>1537.5999755859</ele>
        <time>2019-10-13T11:44:24.000Z</time>
      </trkpt>
      <trkpt lat="46.02954" lon="6.54558">
        <ele>1538.4000244141</ele>
        <time>2019-10-13T11:44:29.000Z</time>
      </trkpt>
      <trkpt lat="46.02955" lon="6.54555">
        <ele>1538.8000488281</ele>
        <time>2019-10-13T11:44:31.000Z</time>
      </trkpt>
      <trkpt lat="46.02955" lon="6.54554">
        <ele>1539</ele>
        <time>2019-10-13T11:44:32.000Z</time>
      </trkpt>
      <trkpt lat="46.02957" lon="6.54552">
        <ele>1539.8000488281</ele>
        <time>2019-10-13T11:44:34.000Z</time>
      </trkpt>
      <trkpt lat="46.02957" lon="6.5455">
        <ele>1540.1999511719</ele>
        <time>2019-10-13T11:44:35.000Z</time>
      </trkpt>
      <trkpt lat="46.02958" lon="6.54549">
        <ele>1540.4000244141</ele>
        <time>2019-10-13T11:44:36.000Z</time>
      </trkpt>
      <trkpt lat="46.02959" lon="6.54547">
        <ele>1540.8000488281</ele>
        <time>2019-10-13T11:44:38.000Z</time>
      </trkpt>
      <trkpt lat="46.02961" lon="6.54546">
        <ele>1541.1999511719</ele>
        <time>2019-10-13T11:44:40.000Z</time>
      </trkpt>
      <trkpt lat="46.02965" lon="6.54544">
        <ele>1541.8000488281</ele>
        <time>2019-10-13T11:44:44.000Z</time>
      </trkpt>
      <trkpt lat="46.02967" lon="6.54543">
        <ele>1542</ele>
        <time>2019-10-13T11:44:46.000Z</time>
      </trkpt>
      <trkpt lat="46.02967" lon="6.54543">
        <ele>1542.1999511719</ele>
        <time>2019-10-13T11:44:47.000Z</time>
      </trkpt>
      <trkpt lat="46.0297" lon="6.54541">
        <ele>1542.8000488281</ele>
        <time>2019-10-13T11:44:51.000Z</time>
      </trkpt>
      <trkpt lat="46.02972" lon="6.54541">
        <ele>1543.1999511719</ele>
        <time>2019-10-13T11:44:53.000Z</time>
      </trkpt>
      <trkpt lat="46.02973" lon="6.5454">
        <ele>1543.4000244141</ele>
        <time>2019-10-13T11:44:54.000Z</time>
      </trkpt>
      <trkpt lat="46.02977" lon="6.54539">
        <ele>1544</ele>
        <time>2019-10-13T11:44:57.000Z</time>
      </trkpt>
      <trkpt lat="46.02979" lon="6.54538">
        <ele>1544.1999511719</ele>
        <time>2019-10-13T11:44:59.000Z</time>
      </trkpt>
      <trkpt lat="46.02979" lon="6.54538">
        <ele>1544.5999755859</ele>
        <time>2019-10-13T11:45:00.000Z</time>
      </trkpt>
      <trkpt lat="46.02981" lon="6.54537">
        <ele>1545.1999511719</ele>
        <time>2019-10-13T11:45:03.000Z</time>
      </trkpt>
      <trkpt lat="46.02983" lon="6.54536">
        <ele>1545.4000244141</ele>
        <time>2019-10-13T11:45:05.000Z</time>
      </trkpt>
      <trkpt lat="46.02983" lon="6.54535">
        <ele>1545.5999755859</ele>
        <time>2019-10-13T11:45:06.000Z</time>
      </trkpt>
      <trkpt lat="46.02984" lon="6.54535">
        <ele>1545.5999755859</ele>
        <time>2019-10-13T11:45:07.000Z</time>
      </trkpt>
      <trkpt lat="46.02985" lon="6.54534">
        <ele>1545.8000488281</ele>
        <time>2019-10-13T11:45:08.000Z</time>
      </trkpt>
      <trkpt lat="46.02987" lon="6.54531">
        <ele>1546.4000244141</ele>
        <time>2019-10-13T11:45:11.000Z</time>
      </trkpt>
      <trkpt lat="46.02988" lon="6.54531">
        <ele>1546.8000488281</ele>
        <time>2019-10-13T11:45:13.000Z</time>
      </trkpt>
      <trkpt lat="46.0299" lon="6.54525">
        <ele>1547.1999511719</ele>
        <time>2019-10-13T11:45:18.000Z</time>
      </trkpt>
      <trkpt lat="46.0299" lon="6.54523">
        <ele>1547.1999511719</ele>
        <time>2019-10-13T11:45:19.000Z</time>
      </trkpt>
      <trkpt lat="46.02991" lon="6.54522">
        <ele>1547.1999511719</ele>
        <time>2019-10-13T11:45:20.000Z</time>
      </trkpt>
      <trkpt lat="46.02993" lon="6.54517">
        <ele>1547.4000244141</ele>
        <time>2019-10-13T11:45:25.000Z</time>
      </trkpt>
      <trkpt lat="46.02995" lon="6.54514">
        <ele>1548</ele>
        <time>2019-10-13T11:45:28.000Z</time>
      </trkpt>
      <trkpt lat="46.02996" lon="6.54511">
        <ele>1548.4000244141</ele>
        <time>2019-10-13T11:45:32.000Z</time>
      </trkpt>
      <trkpt lat="46.02996" lon="6.54511">
        <ele>1548.5999755859</ele>
        <time>2019-10-13T11:45:33.000Z</time>
      </trkpt>
      <trkpt lat="46.02998" lon="6.54509">
        <ele>1549</ele>
        <time>2019-10-13T11:45:36.000Z</time>
      </trkpt>
      <trkpt lat="46.03" lon="6.54506">
        <ele>1549.1999511719</ele>
        <time>2019-10-13T11:45:40.000Z</time>
      </trkpt>
      <trkpt lat="46.03004" lon="6.54503">
        <ele>1550</ele>
        <time>2019-10-13T11:45:45.000Z</time>
      </trkpt>
      <trkpt lat="46.03007" lon="6.545">
        <ele>1550.1999511719</ele>
        <time>2019-10-13T11:45:48.000Z</time>
      </trkpt>
      <trkpt lat="46.03008" lon="6.54498">
        <ele>1551</ele>
        <time>2019-10-13T11:45:51.000Z</time>
      </trkpt>
      <trkpt lat="46.03011" lon="6.54495">
        <ele>1552</ele>
        <time>2019-10-13T11:45:55.000Z</time>
      </trkpt>
      <trkpt lat="46.03011" lon="6.54494">
        <ele>1552.1999511719</ele>
        <time>2019-10-13T11:45:56.000Z</time>
      </trkpt>
      <trkpt lat="46.03012" lon="6.54493">
        <ele>1552.5999755859</ele>
        <time>2019-10-13T11:45:58.000Z</time>
      </trkpt>
      <trkpt lat="46.03012" lon="6.54492">
        <ele>1552.8000488281</ele>
        <time>2019-10-13T11:45:59.000Z</time>
      </trkpt>
      <trkpt lat="46.03013" lon="6.54491">
        <ele>1553</ele>
        <time>2019-10-13T11:46:00.000Z</time>
      </trkpt>
      <trkpt lat="46.03013" lon="6.54491">
        <ele>1553.1999511719</ele>
        <time>2019-10-13T11:46:01.000Z</time>
      </trkpt>
      <trkpt lat="46.03014" lon="6.54486">
        <ele>1554.1999511719</ele>
        <time>2019-10-13T11:46:06.000Z</time>
      </trkpt>
      <trkpt lat="46.03015" lon="6.54483">
        <ele>1554.5999755859</ele>
        <time>2019-10-13T11:46:08.000Z</time>
      </trkpt>
      <trkpt lat="46.03016" lon="6.54481">
        <ele>1554.8000488281</ele>
        <time>2019-10-13T11:46:09.000Z</time>
      </trkpt>
      <trkpt lat="46.03019" lon="6.54477">
        <ele>1555.1999511719</ele>
        <time>2019-10-13T11:46:12.000Z</time>
      </trkpt>
      <trkpt lat="46.0302" lon="6.54475">
        <ele>1555.5999755859</ele>
        <time>2019-10-13T11:46:14.000Z</time>
      </trkpt>
      <trkpt lat="46.03022" lon="6.54473">
        <ele>1556.1999511719</ele>
        <time>2019-10-13T11:46:16.000Z</time>
      </trkpt>
      <trkpt lat="46.03023" lon="6.54473">
        <ele>1556.1999511719</ele>
        <time>2019-10-13T11:46:17.000Z</time>
      </trkpt>
      <trkpt lat="46.03025" lon="6.54471">
        <ele>1556.8000488281</ele>
        <time>2019-10-13T11:46:19.000Z</time>
      </trkpt>
      <trkpt lat="46.03027" lon="6.54469">
        <ele>1557.4000244141</ele>
        <time>2019-10-13T11:46:21.000Z</time>
      </trkpt>
      <trkpt lat="46.03027" lon="6.54466">
        <ele>1557.8000488281</ele>
        <time>2019-10-13T11:46:24.000Z</time>
      </trkpt>
      <trkpt lat="46.03028" lon="6.54463">
        <ele>1558.4000244141</ele>
        <time>2019-10-13T11:46:26.000Z</time>
      </trkpt>
      <trkpt lat="46.03028" lon="6.54462">
        <ele>1558.5999755859</ele>
        <time>2019-10-13T11:46:27.000Z</time>
      </trkpt>
      <trkpt lat="46.03028" lon="6.54459">
        <ele>1559.1999511719</ele>
        <time>2019-10-13T11:46:30.000Z</time>
      </trkpt>
      <trkpt lat="46.03028" lon="6.54458">
        <ele>1559.4000244141</ele>
        <time>2019-10-13T11:46:31.000Z</time>
      </trkpt>
      <trkpt lat="46.03029" lon="6.54458">
        <ele>1559.4000244141</ele>
        <time>2019-10-13T11:46:32.000Z</time>
      </trkpt>
      <trkpt lat="46.03029" lon="6.54457">
        <ele>1559.5999755859</ele>
        <time>2019-10-13T11:46:35.000Z</time>
      </trkpt>
      <trkpt lat="46.03029" lon="6.54456">
        <ele>1559.5999755859</ele>
        <time>2019-10-13T11:46:37.000Z</time>
      </trkpt>
      <trkpt lat="46.0303" lon="6.54455">
        <ele>1559.8000488281</ele>
        <time>2019-10-13T11:46:40.000Z</time>
      </trkpt>
      <trkpt lat="46.03033" lon="6.54455">
        <ele>1560.1999511719</ele>
        <time>2019-10-13T11:46:43.000Z</time>
      </trkpt>
      <trkpt lat="46.03035" lon="6.54455">
        <ele>1560.8000488281</ele>
        <time>2019-10-13T11:46:46.000Z</time>
      </trkpt>
      <trkpt lat="46.03036" lon="6.54452">
        <ele>1561.4000244141</ele>
        <time>2019-10-13T11:46:48.000Z</time>
      </trkpt>
      <trkpt lat="46.03037" lon="6.54448">
        <ele>1562</ele>
        <time>2019-10-13T11:46:50.000Z</time>
      </trkpt>
      <trkpt lat="46.03039" lon="6.54446">
        <ele>1562.4000244141</ele>
        <time>2019-10-13T11:46:53.000Z</time>
      </trkpt>
      <trkpt lat="46.03039" lon="6.54439">
        <ele>1562.4000244141</ele>
        <time>2019-10-13T11:46:59.000Z</time>
      </trkpt>
      <trkpt lat="46.0304" lon="6.54437">
        <ele>1562.5999755859</ele>
        <time>2019-10-13T11:47:02.000Z</time>
      </trkpt>
      <trkpt lat="46.0304" lon="6.54436">
        <ele>1562.8000488281</ele>
        <time>2019-10-13T11:47:06.000Z</time>
      </trkpt>
      <trkpt lat="46.03039" lon="6.54436">
        <ele>1563.1999511719</ele>
        <time>2019-10-13T11:47:08.000Z</time>
      </trkpt>
      <trkpt lat="46.03038" lon="6.54433">
        <ele>1564.4000244141</ele>
        <time>2019-10-13T11:47:13.000Z</time>
      </trkpt>
      <trkpt lat="46.03039" lon="6.5443">
        <ele>1565</ele>
        <time>2019-10-13T11:47:16.000Z</time>
      </trkpt>
      <trkpt lat="46.0304" lon="6.54429">
        <ele>1565.1999511719</ele>
        <time>2019-10-13T11:47:17.000Z</time>
      </trkpt>
      <trkpt lat="46.03041" lon="6.54427">
        <ele>1565.4000244141</ele>
        <time>2019-10-13T11:47:19.000Z</time>
      </trkpt>
      <trkpt lat="46.03042" lon="6.54427">
        <ele>1565.5999755859</ele>
        <time>2019-10-13T11:47:20.000Z</time>
      </trkpt>
      <trkpt lat="46.03047" lon="6.54429">
        <ele>1566.4000244141</ele>
        <time>2019-10-13T11:47:26.000Z</time>
      </trkpt>
      <trkpt lat="46.03048" lon="6.5444">
        <ele>1566.1999511719</ele>
        <time>2019-10-13T11:47:33.000Z</time>
      </trkpt>
      <trkpt lat="46.03048" lon="6.54441">
        <ele>1566.1999511719</ele>
        <time>2019-10-13T11:47:35.000Z</time>
      </trkpt>
      <trkpt lat="46.03047" lon="6.54442">
        <ele>1566.1999511719</ele>
        <time>2019-10-13T11:47:37.000Z</time>
      </trkpt>
      <trkpt lat="46.03044" lon="6.54442">
        <ele>1566</ele>
        <time>2019-10-13T11:47:39.000Z</time>
      </trkpt>
      <trkpt lat="46.03043" lon="6.54437">
        <ele>1565.4000244141</ele>
        <time>2019-10-13T11:47:44.000Z</time>
      </trkpt>
      <trkpt lat="46.03043" lon="6.54434">
        <ele>1565.8000488281</ele>
        <time>2019-10-13T11:47:49.000Z</time>
      </trkpt>
      <trkpt lat="46.03043" lon="6.5444">
        <ele>1566.1999511719</ele>
        <time>2019-10-13T11:47:54.000Z</time>
      </trkpt>
      <trkpt lat="46.03042" lon="6.54436">
        <ele>1564.8000488281</ele>
        <time>2019-10-13T11:48:00.000Z</time>
      </trkpt>
      <trkpt lat="46.03042" lon="6.54436">
        <ele>1564.5999755859</ele>
        <time>2019-10-13T11:48:06.000Z</time>
      </trkpt>
      <trkpt lat="46.03042" lon="6.54437">
        <ele>1564.5999755859</ele>
        <time>2019-10-13T11:48:14.000Z</time>
      </trkpt>
      <trkpt lat="46.03044" lon="6.5444">
        <ele>1564.8000488281</ele>
        <time>2019-10-13T11:48:21.000Z</time>
      </trkpt>
      <trkpt lat="46.03042" lon="6.54436">
        <ele>1565</ele>
        <time>2019-10-13T11:48:27.000Z</time>
      </trkpt>
      <trkpt lat="46.0304" lon="6.54433">
        <ele>1564.8000488281</ele>
        <time>2019-10-13T11:48:30.000Z</time>
      </trkpt>
      <trkpt lat="46.03041" lon="6.54432">
        <ele>1564.5999755859</ele>
        <time>2019-10-13T11:48:32.000Z</time>
      </trkpt>
      <trkpt lat="46.03041" lon="6.54429">
        <ele>1564.5999755859</ele>
        <time>2019-10-13T11:48:34.000Z</time>
      </trkpt>
      <trkpt lat="46.03041" lon="6.54429">
        <ele>1564.8000488281</ele>
        <time>2019-10-13T11:48:35.000Z</time>
      </trkpt>
      <trkpt lat="46.0304" lon="6.54431">
        <ele>1564.8000488281</ele>
        <time>2019-10-13T11:48:42.000Z</time>
      </trkpt>
      <trkpt lat="46.03038" lon="6.54431">
        <ele>1564.5999755859</ele>
        <time>2019-10-13T11:48:45.000Z</time>
      </trkpt>
      <trkpt lat="46.03038" lon="6.5443">
        <ele>1565</ele>
        <time>2019-10-13T11:48:48.000Z</time>
      </trkpt>
      <trkpt lat="46.03039" lon="6.54427">
        <ele>1565.8000488281</ele>
        <time>2019-10-13T11:48:52.000Z</time>
      </trkpt>
      <trkpt lat="46.03042" lon="6.54424">
        <ele>1566.5999755859</ele>
        <time>2019-10-13T11:48:56.000Z</time>
      </trkpt>
      <trkpt lat="46.03043" lon="6.54422">
        <ele>1566.8000488281</ele>
        <time>2019-10-13T11:48:58.000Z</time>
      </trkpt>
      <trkpt lat="46.03042" lon="6.54415">
        <ele>1567.5999755859</ele>
        <time>2019-10-13T11:49:02.000Z</time>
      </trkpt>
      <trkpt lat="46.03042" lon="6.54414">
        <ele>1567.5999755859</ele>
        <time>2019-10-13T11:49:03.000Z</time>
      </trkpt>
      <trkpt lat="46.03042" lon="6.54413">
        <ele>1567.8000488281</ele>
        <time>2019-10-13T11:49:04.000Z</time>
      </trkpt>
      <trkpt lat="46.03042" lon="6.54412">
        <ele>1568.1999511719</ele>
        <time>2019-10-13T11:49:05.000Z</time>
      </trkpt>
      <trkpt lat="46.03043" lon="6.54409">
        <ele>1569.1999511719</ele>
        <time>2019-10-13T11:49:07.000Z</time>
      </trkpt>
      <trkpt lat="46.03044" lon="6.54407">
        <ele>1569.5999755859</ele>
        <time>2019-10-13T11:49:09.000Z</time>
      </trkpt>
      <trkpt lat="46.03045" lon="6.54407">
        <ele>1569.8000488281</ele>
        <time>2019-10-13T11:49:10.000Z</time>
      </trkpt>
      <trkpt lat="46.03046" lon="6.54406">
        <ele>1570.1999511719</ele>
        <time>2019-10-13T11:49:11.000Z</time>
      </trkpt>
      <trkpt lat="46.03048" lon="6.54401">
        <ele>1571.1999511719</ele>
        <time>2019-10-13T11:49:14.000Z</time>
      </trkpt>
      <trkpt lat="46.03049" lon="6.544">
        <ele>1571.5999755859</ele>
        <time>2019-10-13T11:49:15.000Z</time>
      </trkpt>
      <trkpt lat="46.03049" lon="6.54398">
        <ele>1572</ele>
        <time>2019-10-13T11:49:16.000Z</time>
      </trkpt>
      <trkpt lat="46.0305" lon="6.54397">
        <ele>1572.4000244141</ele>
        <time>2019-10-13T11:49:17.000Z</time>
      </trkpt>
      <trkpt lat="46.03051" lon="6.54397">
        <ele>1572.4000244141</ele>
        <time>2019-10-13T11:49:18.000Z</time>
      </trkpt>
      <trkpt lat="46.03052" lon="6.54396">
        <ele>1572.5999755859</ele>
        <time>2019-10-13T11:49:20.000Z</time>
      </trkpt>
      <trkpt lat="46.03053" lon="6.54396">
        <ele>1572.8000488281</ele>
        <time>2019-10-13T11:49:21.000Z</time>
      </trkpt>
      <trkpt lat="46.03053" lon="6.54395">
        <ele>1573.1999511719</ele>
        <time>2019-10-13T11:49:23.000Z</time>
      </trkpt>
      <trkpt lat="46.03054" lon="6.54394">
        <ele>1573.5999755859</ele>
        <time>2019-10-13T11:49:25.000Z</time>
      </trkpt>
      <trkpt lat="46.03054" lon="6.54393">
        <ele>1574</ele>
        <time>2019-10-13T11:49:26.000Z</time>
      </trkpt>
      <trkpt lat="46.03055" lon="6.5439">
        <ele>1574.8000488281</ele>
        <time>2019-10-13T11:49:28.000Z</time>
      </trkpt>
      <trkpt lat="46.03055" lon="6.54389">
        <ele>1575</ele>
        <time>2019-10-13T11:49:29.000Z</time>
      </trkpt>
      <trkpt lat="46.03055" lon="6.54386">
        <ele>1575.8000488281</ele>
        <time>2019-10-13T11:49:32.000Z</time>
      </trkpt>
      <trkpt lat="46.03057" lon="6.5438">
        <ele>1576.1999511719</ele>
        <time>2019-10-13T11:49:38.000Z</time>
      </trkpt>
      <trkpt lat="46.03062" lon="6.54368">
        <ele>1576.8000488281</ele>
        <time>2019-10-13T11:49:46.000Z</time>
      </trkpt>
      <trkpt lat="46.03066" lon="6.54366">
        <ele>1576.8000488281</ele>
        <time>2019-10-13T11:49:50.000Z</time>
      </trkpt>
      <trkpt lat="46.0307" lon="6.54364">
        <ele>1577.4000244141</ele>
        <time>2019-10-13T11:49:53.000Z</time>
      </trkpt>
      <trkpt lat="46.03072" lon="6.54362">
        <ele>1577.8000488281</ele>
        <time>2019-10-13T11:49:56.000Z</time>
      </trkpt>
      <trkpt lat="46.03073" lon="6.54361">
        <ele>1577.8000488281</ele>
        <time>2019-10-13T11:49:57.000Z</time>
      </trkpt>
      <trkpt lat="46.03074" lon="6.54359">
        <ele>1578.1999511719</ele>
        <time>2019-10-13T11:49:59.000Z</time>
      </trkpt>
      <trkpt lat="46.03074" lon="6.54358">
        <ele>1578.1999511719</ele>
        <time>2019-10-13T11:50:00.000Z</time>
      </trkpt>
      <trkpt lat="46.03076" lon="6.54355">
        <ele>1578.5999755859</ele>
        <time>2019-10-13T11:50:02.000Z</time>
      </trkpt>
      <trkpt lat="46.03078" lon="6.54353">
        <ele>1579</ele>
        <time>2019-10-13T11:50:04.000Z</time>
      </trkpt>
      <trkpt lat="46.03079" lon="6.54352">
        <ele>1579.4000244141</ele>
        <time>2019-10-13T11:50:06.000Z</time>
      </trkpt>
      <trkpt lat="46.03081" lon="6.54352">
        <ele>1579.8000488281</ele>
        <time>2019-10-13T11:50:08.000Z</time>
      </trkpt>
      <trkpt lat="46.03082" lon="6.54351">
        <ele>1580.1999511719</ele>
        <time>2019-10-13T11:50:09.000Z</time>
      </trkpt>
      <trkpt lat="46.03083" lon="6.54351">
        <ele>1580.5999755859</ele>
        <time>2019-10-13T11:50:10.000Z</time>
      </trkpt>
      <trkpt lat="46.03084" lon="6.5435">
        <ele>1580.8000488281</ele>
        <time>2019-10-13T11:50:11.000Z</time>
      </trkpt>
      <trkpt lat="46.03086" lon="6.5435">
        <ele>1581.1999511719</ele>
        <time>2019-10-13T11:50:12.000Z</time>
      </trkpt>
      <trkpt lat="46.03087" lon="6.54349">
        <ele>1581.4000244141</ele>
        <time>2019-10-13T11:50:13.000Z</time>
      </trkpt>
      <trkpt lat="46.03087" lon="6.54348">
        <ele>1581.4000244141</ele>
        <time>2019-10-13T11:50:14.000Z</time>
      </trkpt>
      <trkpt lat="46.03089" lon="6.54346">
        <ele>1581.5999755859</ele>
        <time>2019-10-13T11:50:16.000Z</time>
      </trkpt>
      <trkpt lat="46.03093" lon="6.54342">
        <ele>1582.1999511719</ele>
        <time>2019-10-13T11:50:20.000Z</time>
      </trkpt>
      <trkpt lat="46.03094" lon="6.54342">
        <ele>1582.1999511719</ele>
        <time>2019-10-13T11:50:21.000Z</time>
      </trkpt>
      <trkpt lat="46.03095" lon="6.54342">
        <ele>1582.1999511719</ele>
        <time>2019-10-13T11:50:22.000Z</time>
      </trkpt>
      <trkpt lat="46.03096" lon="6.54341">
        <ele>1582.4000244141</ele>
        <time>2019-10-13T11:50:23.000Z</time>
      </trkpt>
      <trkpt lat="46.03098" lon="6.5434">
        <ele>1582.8000488281</ele>
        <time>2019-10-13T11:50:25.000Z</time>
      </trkpt>
      <trkpt lat="46.031" lon="6.54339">
        <ele>1583.1999511719</ele>
        <time>2019-10-13T11:50:27.000Z</time>
      </trkpt>
      <trkpt lat="46.03101" lon="6.54338">
        <ele>1583.4000244141</ele>
        <time>2019-10-13T11:50:28.000Z</time>
      </trkpt>
      <trkpt lat="46.03102" lon="6.54337">
        <ele>1583.5999755859</ele>
        <time>2019-10-13T11:50:29.000Z</time>
      </trkpt>
      <trkpt lat="46.03107" lon="6.54334">
        <ele>1584.1999511719</ele>
        <time>2019-10-13T11:50:36.000Z</time>
      </trkpt>
      <trkpt lat="46.03108" lon="6.54333">
        <ele>1584</ele>
        <time>2019-10-13T11:50:37.000Z</time>
      </trkpt>
      <trkpt lat="46.0311" lon="6.54324">
        <ele>1584</ele>
        <time>2019-10-13T11:50:42.000Z</time>
      </trkpt>
      <trkpt lat="46.0311" lon="6.54322">
        <ele>1584</ele>
        <time>2019-10-13T11:50:43.000Z</time>
      </trkpt>
      <trkpt lat="46.0311" lon="6.54317">
        <ele>1584.5999755859</ele>
        <time>2019-10-13T11:50:45.000Z</time>
      </trkpt>
      <trkpt lat="46.03113" lon="6.54313">
        <ele>1585</ele>
        <time>2019-10-13T11:50:48.000Z</time>
      </trkpt>
      <trkpt lat="46.03113" lon="6.54312">
        <ele>1585</ele>
        <time>2019-10-13T11:50:49.000Z</time>
      </trkpt>
      <trkpt lat="46.03114" lon="6.5431">
        <ele>1585.1999511719</ele>
        <time>2019-10-13T11:50:50.000Z</time>
      </trkpt>
      <trkpt lat="46.03115" lon="6.54309">
        <ele>1585</ele>
        <time>2019-10-13T11:50:51.000Z</time>
      </trkpt>
      <trkpt lat="46.03116" lon="6.54304">
        <ele>1585.4000244141</ele>
        <time>2019-10-13T11:50:54.000Z</time>
      </trkpt>
      <trkpt lat="46.03116" lon="6.54303">
        <ele>1585.5999755859</ele>
        <time>2019-10-13T11:50:55.000Z</time>
      </trkpt>
      <trkpt lat="46.03117" lon="6.54302">
        <ele>1585.5999755859</ele>
        <time>2019-10-13T11:50:56.000Z</time>
      </trkpt>
      <trkpt lat="46.03117" lon="6.54301">
        <ele>1585.8000488281</ele>
        <time>2019-10-13T11:50:57.000Z</time>
      </trkpt>
      <trkpt lat="46.03119" lon="6.54299">
        <ele>1586.1999511719</ele>
        <time>2019-10-13T11:50:59.000Z</time>
      </trkpt>
      <trkpt lat="46.03121" lon="6.54294">
        <ele>1586.1999511719</ele>
        <time>2019-10-13T11:51:03.000Z</time>
      </trkpt>
      <trkpt lat="46.03122" lon="6.54293">
        <ele>1586.4000244141</ele>
        <time>2019-10-13T11:51:04.000Z</time>
      </trkpt>
      <trkpt lat="46.03123" lon="6.54289">
        <ele>1586.4000244141</ele>
        <time>2019-10-13T11:51:06.000Z</time>
      </trkpt>
      <trkpt lat="46.03123" lon="6.54286">
        <ele>1586.4000244141</ele>
        <time>2019-10-13T11:51:09.000Z</time>
      </trkpt>
      <trkpt lat="46.03123" lon="6.54281">
        <ele>1586.5999755859</ele>
        <time>2019-10-13T11:51:11.000Z</time>
      </trkpt>
      <trkpt lat="46.03124" lon="6.54277">
        <ele>1587</ele>
        <time>2019-10-13T11:51:14.000Z</time>
      </trkpt>
      <trkpt lat="46.03126" lon="6.54272">
        <ele>1587.1999511719</ele>
        <time>2019-10-13T11:51:17.000Z</time>
      </trkpt>
      <trkpt lat="46.03129" lon="6.5427">
        <ele>1587.4000244141</ele>
        <time>2019-10-13T11:51:19.000Z</time>
      </trkpt>
      <trkpt lat="46.0313" lon="6.54268">
        <ele>1587.8000488281</ele>
        <time>2019-10-13T11:51:21.000Z</time>
      </trkpt>
      <trkpt lat="46.03132" lon="6.54267">
        <ele>1588</ele>
        <time>2019-10-13T11:51:23.000Z</time>
      </trkpt>
      <trkpt lat="46.03134" lon="6.54266">
        <ele>1588</ele>
        <time>2019-10-13T11:51:24.000Z</time>
      </trkpt>
      <trkpt lat="46.03136" lon="6.54265">
        <ele>1588.1999511719</ele>
        <time>2019-10-13T11:51:26.000Z</time>
      </trkpt>
      <trkpt lat="46.03145" lon="6.54268">
        <ele>1588.1999511719</ele>
        <time>2019-10-13T11:51:31.000Z</time>
      </trkpt>
      <trkpt lat="46.03146" lon="6.54261">
        <ele>1588.4000244141</ele>
        <time>2019-10-13T11:51:34.000Z</time>
      </trkpt>
      <trkpt lat="46.03147" lon="6.54256">
        <ele>1588.5999755859</ele>
        <time>2019-10-13T11:51:36.000Z</time>
      </trkpt>
      <trkpt lat="46.03147" lon="6.54255">
        <ele>1588.8000488281</ele>
        <time>2019-10-13T11:51:37.000Z</time>
      </trkpt>
      <trkpt lat="46.03148" lon="6.54254">
        <ele>1589</ele>
        <time>2019-10-13T11:51:38.000Z</time>
      </trkpt>
      <trkpt lat="46.03151" lon="6.54244">
        <ele>1589.5999755859</ele>
        <time>2019-10-13T11:51:44.000Z</time>
      </trkpt>
      <trkpt lat="46.03151" lon="6.54242">
        <ele>1590</ele>
        <time>2019-10-13T11:51:45.000Z</time>
      </trkpt>
      <trkpt lat="46.03152" lon="6.54239">
        <ele>1590.1999511719</ele>
        <time>2019-10-13T11:51:47.000Z</time>
      </trkpt>
      <trkpt lat="46.03152" lon="6.54234">
        <ele>1590.5999755859</ele>
        <time>2019-10-13T11:51:50.000Z</time>
      </trkpt>
      <trkpt lat="46.03153" lon="6.54233">
        <ele>1590.5999755859</ele>
        <time>2019-10-13T11:51:51.000Z</time>
      </trkpt>
      <trkpt lat="46.03155" lon="6.54228">
        <ele>1591</ele>
        <time>2019-10-13T11:51:54.000Z</time>
      </trkpt>
      <trkpt lat="46.03156" lon="6.54227">
        <ele>1591.1999511719</ele>
        <time>2019-10-13T11:51:55.000Z</time>
      </trkpt>
      <trkpt lat="46.03157" lon="6.54225">
        <ele>1591.1999511719</ele>
        <time>2019-10-13T11:51:56.000Z</time>
      </trkpt>
      <trkpt lat="46.0316" lon="6.54217">
        <ele>1592</ele>
        <time>2019-10-13T11:52:00.000Z</time>
      </trkpt>
      <trkpt lat="46.0316" lon="6.54215">
        <ele>1592.1999511719</ele>
        <time>2019-10-13T11:52:01.000Z</time>
      </trkpt>
      <trkpt lat="46.03161" lon="6.54211">
        <ele>1592.4000244141</ele>
        <time>2019-10-13T11:52:03.000Z</time>
      </trkpt>
      <trkpt lat="46.03161" lon="6.54209">
        <ele>1592.4000244141</ele>
        <time>2019-10-13T11:52:04.000Z</time>
      </trkpt>
      <trkpt lat="46.03162" lon="6.54203">
        <ele>1593.1999511719</ele>
        <time>2019-10-13T11:52:09.000Z</time>
      </trkpt>
      <trkpt lat="46.03162" lon="6.542">
        <ele>1593.4000244141</ele>
        <time>2019-10-13T11:52:11.000Z</time>
      </trkpt>
      <trkpt lat="46.03162" lon="6.54197">
        <ele>1593.5999755859</ele>
        <time>2019-10-13T11:52:13.000Z</time>
      </trkpt>
      <trkpt lat="46.03163" lon="6.54193">
        <ele>1594.1999511719</ele>
        <time>2019-10-13T11:52:16.000Z</time>
      </trkpt>
      <trkpt lat="46.03164" lon="6.54191">
        <ele>1594.5999755859</ele>
        <time>2019-10-13T11:52:18.000Z</time>
      </trkpt>
      <trkpt lat="46.03165" lon="6.5419">
        <ele>1594.8000488281</ele>
        <time>2019-10-13T11:52:19.000Z</time>
      </trkpt>
      <trkpt lat="46.03168" lon="6.54185">
        <ele>1595</ele>
        <time>2019-10-13T11:52:23.000Z</time>
      </trkpt>
      <trkpt lat="46.03169" lon="6.54181">
        <ele>1595.4000244141</ele>
        <time>2019-10-13T11:52:25.000Z</time>
      </trkpt>
      <trkpt lat="46.0317" lon="6.54175">
        <ele>1595.8000488281</ele>
        <time>2019-10-13T11:52:29.000Z</time>
      </trkpt>
      <trkpt lat="46.0317" lon="6.54171">
        <ele>1595.8000488281</ele>
        <time>2019-10-13T11:52:31.000Z</time>
      </trkpt>
      <trkpt lat="46.03171" lon="6.54165">
        <ele>1595.8000488281</ele>
        <time>2019-10-13T11:52:34.000Z</time>
      </trkpt>
      <trkpt lat="46.03171" lon="6.5416">
        <ele>1595.8000488281</ele>
        <time>2019-10-13T11:52:37.000Z</time>
      </trkpt>
      <trkpt lat="46.0317" lon="6.54151">
        <ele>1595.8000488281</ele>
        <time>2019-10-13T11:52:42.000Z</time>
      </trkpt>
      <trkpt lat="46.03171" lon="6.5415">
        <ele>1596</ele>
        <time>2019-10-13T11:52:43.000Z</time>
      </trkpt>
      <trkpt lat="46.03171" lon="6.54145">
        <ele>1596.4000244141</ele>
        <time>2019-10-13T11:52:46.000Z</time>
      </trkpt>
      <trkpt lat="46.03171" lon="6.54143">
        <ele>1596.5999755859</ele>
        <time>2019-10-13T11:52:47.000Z</time>
      </trkpt>
      <trkpt lat="46.03171" lon="6.5414">
        <ele>1596.8000488281</ele>
        <time>2019-10-13T11:52:49.000Z</time>
      </trkpt>
      <trkpt lat="46.03171" lon="6.54139">
        <ele>1597</ele>
        <time>2019-10-13T11:52:50.000Z</time>
      </trkpt>
      <trkpt lat="46.0317" lon="6.54135">
        <ele>1597.1999511719</ele>
        <time>2019-10-13T11:52:52.000Z</time>
      </trkpt>
      <trkpt lat="46.03171" lon="6.54131">
        <ele>1597.4000244141</ele>
        <time>2019-10-13T11:52:55.000Z</time>
      </trkpt>
      <trkpt lat="46.0317" lon="6.54128">
        <ele>1597.4000244141</ele>
        <time>2019-10-13T11:52:57.000Z</time>
      </trkpt>
      <trkpt lat="46.0317" lon="6.54126">
        <ele>1597.5999755859</ele>
        <time>2019-10-13T11:52:58.000Z</time>
      </trkpt>
      <trkpt lat="46.0317" lon="6.54125">
        <ele>1597.8000488281</ele>
        <time>2019-10-13T11:52:59.000Z</time>
      </trkpt>
      <trkpt lat="46.03169" lon="6.54122">
        <ele>1598</ele>
        <time>2019-10-13T11:53:01.000Z</time>
      </trkpt>
      <trkpt lat="46.03166" lon="6.5411">
        <ele>1598.4000244141</ele>
        <time>2019-10-13T11:53:07.000Z</time>
      </trkpt>
      <trkpt lat="46.03166" lon="6.54109">
        <ele>1598.5999755859</ele>
        <time>2019-10-13T11:53:08.000Z</time>
      </trkpt>
      <trkpt lat="46.03165" lon="6.54107">
        <ele>1598.8000488281</ele>
        <time>2019-10-13T11:53:09.000Z</time>
      </trkpt>
      <trkpt lat="46.03164" lon="6.54104">
        <ele>1599.1999511719</ele>
        <time>2019-10-13T11:53:11.000Z</time>
      </trkpt>
      <trkpt lat="46.03163" lon="6.54102">
        <ele>1599.5999755859</ele>
        <time>2019-10-13T11:53:13.000Z</time>
      </trkpt>
      <trkpt lat="46.03163" lon="6.54101">
        <ele>1599.8000488281</ele>
        <time>2019-10-13T11:53:14.000Z</time>
      </trkpt>
      <trkpt lat="46.03165" lon="6.54095">
        <ele>1600.4000244141</ele>
        <time>2019-10-13T11:53:19.000Z</time>
      </trkpt>
      <trkpt lat="46.03165" lon="6.54093">
        <ele>1600.8000488281</ele>
        <time>2019-10-13T11:53:20.000Z</time>
      </trkpt>
      <trkpt lat="46.03165" lon="6.5409">
        <ele>1601</ele>
        <time>2019-10-13T11:53:21.000Z</time>
      </trkpt>
      <trkpt lat="46.03165" lon="6.5408">
        <ele>1601.5999755859</ele>
        <time>2019-10-13T11:53:25.000Z</time>
      </trkpt>
      <trkpt lat="46.03165" lon="6.54078">
        <ele>1601.8000488281</ele>
        <time>2019-10-13T11:53:26.000Z</time>
      </trkpt>
      <trkpt lat="46.03164" lon="6.54075">
        <ele>1602</ele>
        <time>2019-10-13T11:53:27.000Z</time>
      </trkpt>
      <trkpt lat="46.03163" lon="6.5407">
        <ele>1602.4000244141</ele>
        <time>2019-10-13T11:53:30.000Z</time>
      </trkpt>
      <trkpt lat="46.03163" lon="6.54068">
        <ele>1602.5999755859</ele>
        <time>2019-10-13T11:53:31.000Z</time>
      </trkpt>
      <trkpt lat="46.03163" lon="6.54066">
        <ele>1602.8000488281</ele>
        <time>2019-10-13T11:53:33.000Z</time>
      </trkpt>
      <trkpt lat="46.03162" lon="6.54065">
        <ele>1603</ele>
        <time>2019-10-13T11:53:34.000Z</time>
      </trkpt>
      <trkpt lat="46.03162" lon="6.54064">
        <ele>1603</ele>
        <time>2019-10-13T11:53:35.000Z</time>
      </trkpt>
      <trkpt lat="46.03161" lon="6.54061">
        <ele>1603.8000488281</ele>
        <time>2019-10-13T11:53:38.000Z</time>
      </trkpt>
      <trkpt lat="46.0316" lon="6.5406">
        <ele>1604</ele>
        <time>2019-10-13T11:53:39.000Z</time>
      </trkpt>
      <trkpt lat="46.03159" lon="6.54057">
        <ele>1604.4000244141</ele>
        <time>2019-10-13T11:53:42.000Z</time>
      </trkpt>
      <trkpt lat="46.0316" lon="6.54055">
        <ele>1604.8000488281</ele>
        <time>2019-10-13T11:53:44.000Z</time>
      </trkpt>
      <trkpt lat="46.0316" lon="6.54054">
        <ele>1605</ele>
        <time>2019-10-13T11:53:45.000Z</time>
      </trkpt>
      <trkpt lat="46.0316" lon="6.5405">
        <ele>1605.5999755859</ele>
        <time>2019-10-13T11:53:48.000Z</time>
      </trkpt>
      <trkpt lat="46.03159" lon="6.54049">
        <ele>1606</ele>
        <time>2019-10-13T11:53:49.000Z</time>
      </trkpt>
      <trkpt lat="46.03158" lon="6.54046">
        <ele>1606.5999755859</ele>
        <time>2019-10-13T11:53:51.000Z</time>
      </trkpt>
      <trkpt lat="46.03157" lon="6.54044">
        <ele>1607.1999511719</ele>
        <time>2019-10-13T11:53:54.000Z</time>
      </trkpt>
      <trkpt lat="46.03157" lon="6.54043">
        <ele>1607.1999511719</ele>
        <time>2019-10-13T11:53:55.000Z</time>
      </trkpt>
      <trkpt lat="46.03157" lon="6.54039">
        <ele>1607.5999755859</ele>
        <time>2019-10-13T11:53:57.000Z</time>
      </trkpt>
      <trkpt lat="46.03157" lon="6.54037">
        <ele>1607.8000488281</ele>
        <time>2019-10-13T11:53:58.000Z</time>
      </trkpt>
      <trkpt lat="46.03157" lon="6.54034">
        <ele>1608</ele>
        <time>2019-10-13T11:54:00.000Z</time>
      </trkpt>
      <trkpt lat="46.03157" lon="6.54032">
        <ele>1608.1999511719</ele>
        <time>2019-10-13T11:54:01.000Z</time>
      </trkpt>
      <trkpt lat="46.03158" lon="6.54028">
        <ele>1608.5999755859</ele>
        <time>2019-10-13T11:54:05.000Z</time>
      </trkpt>
      <trkpt lat="46.03157" lon="6.54026">
        <ele>1608.4000244141</ele>
        <time>2019-10-13T11:54:07.000Z</time>
      </trkpt>
      <trkpt lat="46.03158" lon="6.54024">
        <ele>1608.5999755859</ele>
        <time>2019-10-13T11:54:11.000Z</time>
      </trkpt>
      <trkpt lat="46.03159" lon="6.54024">
        <ele>1608.8000488281</ele>
        <time>2019-10-13T11:54:13.000Z</time>
      </trkpt>
      <trkpt lat="46.03159" lon="6.54023">
        <ele>1609.4000244141</ele>
        <time>2019-10-13T11:54:16.000Z</time>
      </trkpt>
      <trkpt lat="46.03159" lon="6.54023">
        <ele>1609.4000244141</ele>
        <time>2019-10-13T11:54:17.000Z</time>
      </trkpt>
      <trkpt lat="46.0316" lon="6.54024">
        <ele>1609.8000488281</ele>
        <time>2019-10-13T11:54:19.000Z</time>
      </trkpt>
      <trkpt lat="46.0316" lon="6.54023">
        <ele>1609.8000488281</ele>
        <time>2019-10-13T11:54:20.000Z</time>
      </trkpt>
      <trkpt lat="46.03153" lon="6.54014">
        <ele>1610.1999511719</ele>
        <time>2019-10-13T11:54:27.000Z</time>
      </trkpt>
      <trkpt lat="46.03152" lon="6.54013">
        <ele>1610.4000244141</ele>
        <time>2019-10-13T11:54:28.000Z</time>
      </trkpt>
      <trkpt lat="46.03151" lon="6.5401">
        <ele>1611.1999511719</ele>
        <time>2019-10-13T11:54:33.000Z</time>
      </trkpt>
      <trkpt lat="46.03151" lon="6.54009">
        <ele>1611.4000244141</ele>
        <time>2019-10-13T11:54:34.000Z</time>
      </trkpt>
      <trkpt lat="46.03151" lon="6.54009">
        <ele>1611.5999755859</ele>
        <time>2019-10-13T11:54:35.000Z</time>
      </trkpt>
      <trkpt lat="46.0315" lon="6.54007">
        <ele>1612.5999755859</ele>
        <time>2019-10-13T11:54:39.000Z</time>
      </trkpt>
      <trkpt lat="46.03148" lon="6.54005">
        <ele>1612.8000488281</ele>
        <time>2019-10-13T11:54:41.000Z</time>
      </trkpt>
      <trkpt lat="46.03146" lon="6.54003">
        <ele>1613.1999511719</ele>
        <time>2019-10-13T11:54:42.000Z</time>
      </trkpt>
      <trkpt lat="46.03144" lon="6.53999">
        <ele>1614</ele>
        <time>2019-10-13T11:54:44.000Z</time>
      </trkpt>
      <trkpt lat="46.03142" lon="6.53994">
        <ele>1614.4000244141</ele>
        <time>2019-10-13T11:54:46.000Z</time>
      </trkpt>
      <trkpt lat="46.03141" lon="6.5399">
        <ele>1614.8000488281</ele>
        <time>2019-10-13T11:54:48.000Z</time>
      </trkpt>
      <trkpt lat="46.0314" lon="6.53989">
        <ele>1615</ele>
        <time>2019-10-13T11:54:49.000Z</time>
      </trkpt>
      <trkpt lat="46.03139" lon="6.53987">
        <ele>1615.4000244141</ele>
        <time>2019-10-13T11:54:50.000Z</time>
      </trkpt>
      <trkpt lat="46.03139" lon="6.53985">
        <ele>1615.5999755859</ele>
        <time>2019-10-13T11:54:53.000Z</time>
      </trkpt>
      <trkpt lat="46.03141" lon="6.5398">
        <ele>1616.1999511719</ele>
        <time>2019-10-13T11:54:56.000Z</time>
      </trkpt>
      <trkpt lat="46.0314" lon="6.53975">
        <ele>1616.5999755859</ele>
        <time>2019-10-13T11:54:58.000Z</time>
      </trkpt>
      <trkpt lat="46.0314" lon="6.53973">
        <ele>1616.8000488281</ele>
        <time>2019-10-13T11:54:59.000Z</time>
      </trkpt>
      <trkpt lat="46.03139" lon="6.53972">
        <ele>1617</ele>
        <time>2019-10-13T11:55:00.000Z</time>
      </trkpt>
      <trkpt lat="46.03137" lon="6.53969">
        <ele>1617.1999511719</ele>
        <time>2019-10-13T11:55:02.000Z</time>
      </trkpt>
      <trkpt lat="46.03135" lon="6.53966">
        <ele>1617.5999755859</ele>
        <time>2019-10-13T11:55:04.000Z</time>
      </trkpt>
      <trkpt lat="46.03132" lon="6.53961">
        <ele>1618.1999511719</ele>
        <time>2019-10-13T11:55:08.000Z</time>
      </trkpt>
      <trkpt lat="46.03131" lon="6.5396">
        <ele>1618.4000244141</ele>
        <time>2019-10-13T11:55:09.000Z</time>
      </trkpt>
      <trkpt lat="46.03131" lon="6.53957">
        <ele>1618.8000488281</ele>
        <time>2019-10-13T11:55:13.000Z</time>
      </trkpt>
      <trkpt lat="46.0313" lon="6.53957">
        <ele>1619.1999511719</ele>
        <time>2019-10-13T11:55:15.000Z</time>
      </trkpt>
      <trkpt lat="46.03129" lon="6.53957">
        <ele>1619.1999511719</ele>
        <time>2019-10-13T11:55:16.000Z</time>
      </trkpt>
      <trkpt lat="46.03128" lon="6.53957">
        <ele>1619.4000244141</ele>
        <time>2019-10-13T11:55:17.000Z</time>
      </trkpt>
      <trkpt lat="46.03128" lon="6.53956">
        <ele>1619.8000488281</ele>
        <time>2019-10-13T11:55:19.000Z</time>
      </trkpt>
      <trkpt lat="46.03126" lon="6.53948">
        <ele>1620.4000244141</ele>
        <time>2019-10-13T11:55:23.000Z</time>
      </trkpt>
      <trkpt lat="46.03126" lon="6.53945">
        <ele>1620.5999755859</ele>
        <time>2019-10-13T11:55:24.000Z</time>
      </trkpt>
      <trkpt lat="46.03121" lon="6.53942">
        <ele>1621</ele>
        <time>2019-10-13T11:55:27.000Z</time>
      </trkpt>
      <trkpt lat="46.03118" lon="6.53941">
        <ele>1621</ele>
        <time>2019-10-13T11:55:29.000Z</time>
      </trkpt>
      <trkpt lat="46.03114" lon="6.5394">
        <ele>1621.5999755859</ele>
        <time>2019-10-13T11:55:32.000Z</time>
      </trkpt>
      <trkpt lat="46.03112" lon="6.53938">
        <ele>1622</ele>
        <time>2019-10-13T11:55:36.000Z</time>
      </trkpt>
      <trkpt lat="46.03112" lon="6.53937">
        <ele>1622</ele>
        <time>2019-10-13T11:55:37.000Z</time>
      </trkpt>
      <trkpt lat="46.03112" lon="6.53936">
        <ele>1622</ele>
        <time>2019-10-13T11:55:38.000Z</time>
      </trkpt>
      <trkpt lat="46.0311" lon="6.53931">
        <ele>1622.1999511719</ele>
        <time>2019-10-13T11:55:42.000Z</time>
      </trkpt>
      <trkpt lat="46.0311" lon="6.53929">
        <ele>1622.1999511719</ele>
        <time>2019-10-13T11:55:43.000Z</time>
      </trkpt>
      <trkpt lat="46.03109" lon="6.53929">
        <ele>1622.4000244141</ele>
        <time>2019-10-13T11:55:44.000Z</time>
      </trkpt>
      <trkpt lat="46.03108" lon="6.53928">
        <ele>1622.5999755859</ele>
        <time>2019-10-13T11:55:45.000Z</time>
      </trkpt>
      <trkpt lat="46.03104" lon="6.53925">
        <ele>1623.4000244141</ele>
        <time>2019-10-13T11:55:49.000Z</time>
      </trkpt>
      <trkpt lat="46.03101" lon="6.53925">
        <ele>1623.8000488281</ele>
        <time>2019-10-13T11:55:51.000Z</time>
      </trkpt>
      <trkpt lat="46.03098" lon="6.53923">
        <ele>1624.1999511719</ele>
        <time>2019-10-13T11:55:54.000Z</time>
      </trkpt>
      <trkpt lat="46.03097" lon="6.53922">
        <ele>1624.1999511719</ele>
        <time>2019-10-13T11:55:55.000Z</time>
      </trkpt>
      <trkpt lat="46.03095" lon="6.5392">
        <ele>1624.5999755859</ele>
        <time>2019-10-13T11:55:57.000Z</time>
      </trkpt>
      <trkpt lat="46.03093" lon="6.53918">
        <ele>1624.8000488281</ele>
        <time>2019-10-13T11:55:59.000Z</time>
      </trkpt>
      <trkpt lat="46.03092" lon="6.53918">
        <ele>1625.4000244141</ele>
        <time>2019-10-13T11:56:01.000Z</time>
      </trkpt>
      <trkpt lat="46.0309" lon="6.53918">
        <ele>1626.1999511719</ele>
        <time>2019-10-13T11:56:03.000Z</time>
      </trkpt>
      <trkpt lat="46.03091" lon="6.53918">
        <ele>1627</ele>
        <time>2019-10-13T11:56:05.000Z</time>
      </trkpt>
      <trkpt lat="46.03092" lon="6.53918">
        <ele>1627.1999511719</ele>
        <time>2019-10-13T11:56:07.000Z</time>
      </trkpt>
      <trkpt lat="46.03091" lon="6.53919">
        <ele>1627.4000244141</ele>
        <time>2019-10-13T11:56:08.000Z</time>
      </trkpt>
      <trkpt lat="46.03091" lon="6.53919">
        <ele>1627.8000488281</ele>
        <time>2019-10-13T11:56:09.000Z</time>
      </trkpt>
      <trkpt lat="46.0309" lon="6.53918">
        <ele>1628.1999511719</ele>
        <time>2019-10-13T11:56:10.000Z</time>
      </trkpt>
      <trkpt lat="46.0309" lon="6.53918">
        <ele>1628.5999755859</ele>
        <time>2019-10-13T11:56:11.000Z</time>
      </trkpt>
      <trkpt lat="46.03088" lon="6.53916">
        <ele>1629.5999755859</ele>
        <time>2019-10-13T11:56:14.000Z</time>
      </trkpt>
      <trkpt lat="46.03089" lon="6.53915">
        <ele>1630</ele>
        <time>2019-10-13T11:56:15.000Z</time>
      </trkpt>
      <trkpt lat="46.0309" lon="6.53915">
        <ele>1630.1999511719</ele>
        <time>2019-10-13T11:56:16.000Z</time>
      </trkpt>
      <trkpt lat="46.0309" lon="6.53914">
        <ele>1630.4000244141</ele>
        <time>2019-10-13T11:56:17.000Z</time>
      </trkpt>
      <trkpt lat="46.0309" lon="6.53913">
        <ele>1630.4000244141</ele>
        <time>2019-10-13T11:56:18.000Z</time>
      </trkpt>
      <trkpt lat="46.03093" lon="6.53909">
        <ele>1629.8000488281</ele>
        <time>2019-10-13T11:56:23.000Z</time>
      </trkpt>
      <trkpt lat="46.03093" lon="6.53905">
        <ele>1629.5999755859</ele>
        <time>2019-10-13T11:56:33.000Z</time>
      </trkpt>
      <trkpt lat="46.03091" lon="6.53905">
        <ele>1629.5999755859</ele>
        <time>2019-10-13T11:56:34.000Z</time>
      </trkpt>
      <trkpt lat="46.03081" lon="6.53905">
        <ele>1629.8000488281</ele>
        <time>2019-10-13T11:56:39.000Z</time>
      </trkpt>
      <trkpt lat="46.03079" lon="6.53906">
        <ele>1630.1999511719</ele>
        <time>2019-10-13T11:56:40.000Z</time>
      </trkpt>
      <trkpt lat="46.03074" lon="6.53905">
        <ele>1631.1999511719</ele>
        <time>2019-10-13T11:56:43.000Z</time>
      </trkpt>
      <trkpt lat="46.03071" lon="6.53903">
        <ele>1631.8000488281</ele>
        <time>2019-10-13T11:56:46.000Z</time>
      </trkpt>
      <trkpt lat="46.03071" lon="6.53904">
        <ele>1632</ele>
        <time>2019-10-13T11:56:47.000Z</time>
      </trkpt>
      <trkpt lat="46.03071" lon="6.53904">
        <ele>1632.1999511719</ele>
        <time>2019-10-13T11:56:48.000Z</time>
      </trkpt>
      <trkpt lat="46.0307" lon="6.53904">
        <ele>1632.4000244141</ele>
        <time>2019-10-13T11:56:49.000Z</time>
      </trkpt>
      <trkpt lat="46.03069" lon="6.53904">
        <ele>1633</ele>
        <time>2019-10-13T11:56:51.000Z</time>
      </trkpt>
      <trkpt lat="46.03069" lon="6.53904">
        <ele>1633.5999755859</ele>
        <time>2019-10-13T11:56:53.000Z</time>
      </trkpt>
      <trkpt lat="46.03069" lon="6.53905">
        <ele>1634</ele>
        <time>2019-10-13T11:56:54.000Z</time>
      </trkpt>
      <trkpt lat="46.03069" lon="6.53905">
        <ele>1634.5999755859</ele>
        <time>2019-10-13T11:56:55.000Z</time>
      </trkpt>
      <trkpt lat="46.03072" lon="6.53912">
        <ele>1635</ele>
        <time>2019-10-13T11:56:56.000Z</time>
      </trkpt>
      <trkpt lat="46.03072" lon="6.53911">
        <ele>1635.4000244141</ele>
        <time>2019-10-13T11:56:58.000Z</time>
      </trkpt>
      <trkpt lat="46.03071" lon="6.53908">
        <ele>1635.5999755859</ele>
        <time>2019-10-13T11:57:00.000Z</time>
      </trkpt>
      <trkpt lat="46.03062" lon="6.53898">
        <ele>1635.5999755859</ele>
        <time>2019-10-13T11:57:06.000Z</time>
      </trkpt>
      <trkpt lat="46.03061" lon="6.53896">
        <ele>1635.8000488281</ele>
        <time>2019-10-13T11:57:07.000Z</time>
      </trkpt>
      <trkpt lat="46.03061" lon="6.53893">
        <ele>1636.1999511719</ele>
        <time>2019-10-13T11:57:09.000Z</time>
      </trkpt>
      <trkpt lat="46.03063" lon="6.53885">
        <ele>1636.8000488281</ele>
        <time>2019-10-13T11:57:14.000Z</time>
      </trkpt>
      <trkpt lat="46.03062" lon="6.5388">
        <ele>1637.4000244141</ele>
        <time>2019-10-13T11:57:18.000Z</time>
      </trkpt>
      <trkpt lat="46.0306" lon="6.53878">
        <ele>1638</ele>
        <time>2019-10-13T11:57:21.000Z</time>
      </trkpt>
      <trkpt lat="46.03059" lon="6.53877">
        <ele>1638.5999755859</ele>
        <time>2019-10-13T11:57:23.000Z</time>
      </trkpt>
      <trkpt lat="46.03055" lon="6.53874">
        <ele>1639.8000488281</ele>
        <time>2019-10-13T11:57:27.000Z</time>
      </trkpt>
      <trkpt lat="46.03055" lon="6.53874">
        <ele>1640.1999511719</ele>
        <time>2019-10-13T11:57:28.000Z</time>
      </trkpt>
      <trkpt lat="46.03053" lon="6.53876">
        <ele>1640.8000488281</ele>
        <time>2019-10-13T11:57:32.000Z</time>
      </trkpt>
      <trkpt lat="46.03053" lon="6.53876">
        <ele>1641</ele>
        <time>2019-10-13T11:57:33.000Z</time>
      </trkpt>
      <trkpt lat="46.03052" lon="6.53876">
        <ele>1641.1999511719</ele>
        <time>2019-10-13T11:57:34.000Z</time>
      </trkpt>
      <trkpt lat="46.03045" lon="6.53872">
        <ele>1642</ele>
        <time>2019-10-13T11:57:38.000Z</time>
      </trkpt>
      <trkpt lat="46.03044" lon="6.53872">
        <ele>1642.1999511719</ele>
        <time>2019-10-13T11:57:39.000Z</time>
      </trkpt>
      <trkpt lat="46.03041" lon="6.53871">
        <ele>1642.8000488281</ele>
        <time>2019-10-13T11:57:41.000Z</time>
      </trkpt>
      <trkpt lat="46.03039" lon="6.53871">
        <ele>1643</ele>
        <time>2019-10-13T11:57:43.000Z</time>
      </trkpt>
      <trkpt lat="46.03037" lon="6.53871">
        <ele>1643</ele>
        <time>2019-10-13T11:57:45.000Z</time>
      </trkpt>
      <trkpt lat="46.03036" lon="6.5387">
        <ele>1643</ele>
        <time>2019-10-13T11:57:47.000Z</time>
      </trkpt>
      <trkpt lat="46.03039" lon="6.53869">
        <ele>1643</ele>
        <time>2019-10-13T11:57:50.000Z</time>
      </trkpt>
      <trkpt lat="46.03042" lon="6.53867">
        <ele>1643.1999511719</ele>
        <time>2019-10-13T11:57:52.000Z</time>
      </trkpt>
      <trkpt lat="46.03044" lon="6.53866">
        <ele>1643.5999755859</ele>
        <time>2019-10-13T11:57:54.000Z</time>
      </trkpt>
      <trkpt lat="46.03043" lon="6.53865">
        <ele>1644.4000244141</ele>
        <time>2019-10-13T11:57:56.000Z</time>
      </trkpt>
      <trkpt lat="46.03041" lon="6.53861">
        <ele>1645.1999511719</ele>
        <time>2019-10-13T11:58:01.000Z</time>
      </trkpt>
      <trkpt lat="46.03039" lon="6.53858">
        <ele>1645.4000244141</ele>
        <time>2019-10-13T11:58:03.000Z</time>
      </trkpt>
      <trkpt lat="46.03037" lon="6.53857">
        <ele>1645.8000488281</ele>
        <time>2019-10-13T11:58:05.000Z</time>
      </trkpt>
      <trkpt lat="46.03036" lon="6.53857">
        <ele>1646</ele>
        <time>2019-10-13T11:58:06.000Z</time>
      </trkpt>
      <trkpt lat="46.03035" lon="6.53856">
        <ele>1646.1999511719</ele>
        <time>2019-10-13T11:58:07.000Z</time>
      </trkpt>
      <trkpt lat="46.03034" lon="6.53855">
        <ele>1646.4000244141</ele>
        <time>2019-10-13T11:58:08.000Z</time>
      </trkpt>
      <trkpt lat="46.03032" lon="6.53849">
        <ele>1647.1999511719</ele>
        <time>2019-10-13T11:58:11.000Z</time>
      </trkpt>
      <trkpt lat="46.03032" lon="6.53845">
        <ele>1647.5999755859</ele>
        <time>2019-10-13T11:58:14.000Z</time>
      </trkpt>
      <trkpt lat="46.03031" lon="6.53844">
        <ele>1647.5999755859</ele>
        <time>2019-10-13T11:58:15.000Z</time>
      </trkpt>
      <trkpt lat="46.0303" lon="6.53843">
        <ele>1647.8000488281</ele>
        <time>2019-10-13T11:58:17.000Z</time>
      </trkpt>
      <trkpt lat="46.03028" lon="6.53843">
        <ele>1647.8000488281</ele>
        <time>2019-10-13T11:58:20.000Z</time>
      </trkpt>
      <trkpt lat="46.03027" lon="6.53844">
        <ele>1648.4000244141</ele>
        <time>2019-10-13T11:58:22.000Z</time>
      </trkpt>
      <trkpt lat="46.03026" lon="6.53844">
        <ele>1648.5999755859</ele>
        <time>2019-10-13T11:58:23.000Z</time>
      </trkpt>
      <trkpt lat="46.03023" lon="6.53843">
        <ele>1649.4000244141</ele>
        <time>2019-10-13T11:58:26.000Z</time>
      </trkpt>
      <trkpt lat="46.03022" lon="6.53843">
        <ele>1649.5999755859</ele>
        <time>2019-10-13T11:58:27.000Z</time>
      </trkpt>
      <trkpt lat="46.03022" lon="6.53842">
        <ele>1649.8000488281</ele>
        <time>2019-10-13T11:58:28.000Z</time>
      </trkpt>
      <trkpt lat="46.03019" lon="6.53837">
        <ele>1650.5999755859</ele>
        <time>2019-10-13T11:58:33.000Z</time>
      </trkpt>
      <trkpt lat="46.03019" lon="6.53834">
        <ele>1650.8000488281</ele>
        <time>2019-10-13T11:58:36.000Z</time>
      </trkpt>
      <trkpt lat="46.0302" lon="6.53833">
        <ele>1651</ele>
        <time>2019-10-13T11:58:37.000Z</time>
      </trkpt>
      <trkpt lat="46.03017" lon="6.53832">
        <ele>1651.1999511719</ele>
        <time>2019-10-13T11:58:40.000Z</time>
      </trkpt>
      <trkpt lat="46.03017" lon="6.53832">
        <ele>1651.5999755859</ele>
        <time>2019-10-13T11:58:41.000Z</time>
      </trkpt>
      <trkpt lat="46.03016" lon="6.53832">
        <ele>1652</ele>
        <time>2019-10-13T11:58:42.000Z</time>
      </trkpt>
      <trkpt lat="46.03015" lon="6.53832">
        <ele>1652.1999511719</ele>
        <time>2019-10-13T11:58:44.000Z</time>
      </trkpt>
      <trkpt lat="46.03015" lon="6.53832">
        <ele>1652.5999755859</ele>
        <time>2019-10-13T11:58:46.000Z</time>
      </trkpt>
      <trkpt lat="46.03014" lon="6.53832">
        <ele>1652.8000488281</ele>
        <time>2019-10-13T11:58:48.000Z</time>
      </trkpt>
      <trkpt lat="46.03013" lon="6.53832">
        <ele>1653.1999511719</ele>
        <time>2019-10-13T11:58:49.000Z</time>
      </trkpt>
      <trkpt lat="46.03011" lon="6.5383">
        <ele>1654.1999511719</ele>
        <time>2019-10-13T11:58:53.000Z</time>
      </trkpt>
      <trkpt lat="46.03008" lon="6.53828">
        <ele>1654.5999755859</ele>
        <time>2019-10-13T11:58:59.000Z</time>
      </trkpt>
      <trkpt lat="46.03007" lon="6.53827">
        <ele>1654.8000488281</ele>
        <time>2019-10-13T11:59:01.000Z</time>
      </trkpt>
      <trkpt lat="46.03007" lon="6.53826">
        <ele>1655.5999755859</ele>
        <time>2019-10-13T11:59:03.000Z</time>
      </trkpt>
      <trkpt lat="46.03008" lon="6.53822">
        <ele>1656</ele>
        <time>2019-10-13T11:59:08.000Z</time>
      </trkpt>
      <trkpt lat="46.03006" lon="6.5382">
        <ele>1656.1999511719</ele>
        <time>2019-10-13T11:59:17.000Z</time>
      </trkpt>
      <trkpt lat="46.03005" lon="6.5382">
        <ele>1656.5999755859</ele>
        <time>2019-10-13T11:59:18.000Z</time>
      </trkpt>
      <trkpt lat="46.03003" lon="6.53821">
        <ele>1657.5999755859</ele>
        <time>2019-10-13T11:59:23.000Z</time>
      </trkpt>
      <trkpt lat="46.02998" lon="6.5382">
        <ele>1658.8000488281</ele>
        <time>2019-10-13T11:59:29.000Z</time>
      </trkpt>
      <trkpt lat="46.02996" lon="6.53818">
        <ele>1659</ele>
        <time>2019-10-13T11:59:31.000Z</time>
      </trkpt>
      <trkpt lat="46.02992" lon="6.53815">
        <ele>1659.5999755859</ele>
        <time>2019-10-13T11:59:35.000Z</time>
      </trkpt>
      <trkpt lat="46.02991" lon="6.53815">
        <ele>1660</ele>
        <time>2019-10-13T11:59:36.000Z</time>
      </trkpt>
      <trkpt lat="46.0299" lon="6.53816">
        <ele>1660.5999755859</ele>
        <time>2019-10-13T11:59:38.000Z</time>
      </trkpt>
      <trkpt lat="46.02989" lon="6.53816">
        <ele>1660.5999755859</ele>
        <time>2019-10-13T11:59:39.000Z</time>
      </trkpt>
      <trkpt lat="46.02986" lon="6.53816">
        <ele>1661.1999511719</ele>
        <time>2019-10-13T11:59:42.000Z</time>
      </trkpt>
      <trkpt lat="46.02983" lon="6.53815">
        <ele>1661.5999755859</ele>
        <time>2019-10-13T11:59:45.000Z</time>
      </trkpt>
      <trkpt lat="46.02982" lon="6.53813">
        <ele>1662.4000244141</ele>
        <time>2019-10-13T11:59:48.000Z</time>
      </trkpt>
      <trkpt lat="46.0298" lon="6.53811">
        <ele>1662.8000488281</ele>
        <time>2019-10-13T11:59:50.000Z</time>
      </trkpt>
      <trkpt lat="46.02979" lon="6.5381">
        <ele>1663.1999511719</ele>
        <time>2019-10-13T11:59:51.000Z</time>
      </trkpt>
      <trkpt lat="46.02978" lon="6.5381">
        <ele>1663.5999755859</ele>
        <time>2019-10-13T11:59:52.000Z</time>
      </trkpt>
      <trkpt lat="46.02978" lon="6.5381">
        <ele>1663.8000488281</ele>
        <time>2019-10-13T11:59:53.000Z</time>
      </trkpt>
      <trkpt lat="46.02975" lon="6.53807">
        <ele>1664.4000244141</ele>
        <time>2019-10-13T11:59:57.000Z</time>
      </trkpt>
      <trkpt lat="46.02973" lon="6.53806">
        <ele>1664.8000488281</ele>
        <time>2019-10-13T11:59:58.000Z</time>
      </trkpt>
      <trkpt lat="46.02969" lon="6.53804">
        <ele>1665.1999511719</ele>
        <time>2019-10-13T12:00:00.000Z</time>
      </trkpt>
      <trkpt lat="46.02968" lon="6.53802">
        <ele>1665.4000244141</ele>
        <time>2019-10-13T12:00:01.000Z</time>
      </trkpt>
      <trkpt lat="46.02967" lon="6.53801">
        <ele>1665.5999755859</ele>
        <time>2019-10-13T12:00:02.000Z</time>
      </trkpt>
      <trkpt lat="46.02967" lon="6.538">
        <ele>1665.8000488281</ele>
        <time>2019-10-13T12:00:03.000Z</time>
      </trkpt>
      <trkpt lat="46.02966" lon="6.53801">
        <ele>1665.8000488281</ele>
        <time>2019-10-13T12:00:04.000Z</time>
      </trkpt>
      <trkpt lat="46.02965" lon="6.538">
        <ele>1666</ele>
        <time>2019-10-13T12:00:05.000Z</time>
      </trkpt>
      <trkpt lat="46.02964" lon="6.538">
        <ele>1666</ele>
        <time>2019-10-13T12:00:06.000Z</time>
      </trkpt>
      <trkpt lat="46.02963" lon="6.53801">
        <ele>1666.8000488281</ele>
        <time>2019-10-13T12:00:09.000Z</time>
      </trkpt>
      <trkpt lat="46.02963" lon="6.53801">
        <ele>1666.8000488281</ele>
        <time>2019-10-13T12:00:10.000Z</time>
      </trkpt>
      <trkpt lat="46.02963" lon="6.53801">
        <ele>1667</ele>
        <time>2019-10-13T12:00:11.000Z</time>
      </trkpt>
      <trkpt lat="46.02962" lon="6.538">
        <ele>1667</ele>
        <time>2019-10-13T12:00:13.000Z</time>
      </trkpt>
      <trkpt lat="46.02959" lon="6.53799">
        <ele>1667.4000244141</ele>
        <time>2019-10-13T12:00:17.000Z</time>
      </trkpt>
      <trkpt lat="46.02959" lon="6.53799">
        <ele>1667.4000244141</ele>
        <time>2019-10-13T12:00:18.000Z</time>
      </trkpt>
      <trkpt lat="46.02959" lon="6.53796">
        <ele>1667.5999755859</ele>
        <time>2019-10-13T12:00:21.000Z</time>
      </trkpt>
      <trkpt lat="46.02956" lon="6.53792">
        <ele>1667.8000488281</ele>
        <time>2019-10-13T12:00:25.000Z</time>
      </trkpt>
      <trkpt lat="46.02949" lon="6.53788">
        <ele>1668.4000244141</ele>
        <time>2019-10-13T12:00:33.000Z</time>
      </trkpt>
      <trkpt lat="46.02943" lon="6.53782">
        <ele>1669</ele>
        <time>2019-10-13T12:00:37.000Z</time>
      </trkpt>
      <trkpt lat="46.02943" lon="6.53782">
        <ele>1669</ele>
        <time>2019-10-13T12:00:38.000Z</time>
      </trkpt>
      <trkpt lat="46.02943" lon="6.53778">
        <ele>1669.4000244141</ele>
        <time>2019-10-13T12:00:40.000Z</time>
      </trkpt>
      <trkpt lat="46.02943" lon="6.53776">
        <ele>1669.5999755859</ele>
        <time>2019-10-13T12:00:41.000Z</time>
      </trkpt>
      <trkpt lat="46.02941" lon="6.53775">
        <ele>1669.8000488281</ele>
        <time>2019-10-13T12:00:44.000Z</time>
      </trkpt>
      <trkpt lat="46.02936" lon="6.53772">
        <ele>1670</ele>
        <time>2019-10-13T12:00:47.000Z</time>
      </trkpt>
      <trkpt lat="46.02935" lon="6.53771">
        <ele>1670</ele>
        <time>2019-10-13T12:00:48.000Z</time>
      </trkpt>
      <trkpt lat="46.02928" lon="6.53764">
        <ele>1670.4000244141</ele>
        <time>2019-10-13T12:00:53.000Z</time>
      </trkpt>
      <trkpt lat="46.02927" lon="6.53762">
        <ele>1670.5999755859</ele>
        <time>2019-10-13T12:00:54.000Z</time>
      </trkpt>
      <trkpt lat="46.02927" lon="6.53759">
        <ele>1670.4000244141</ele>
        <time>2019-10-13T12:00:55.000Z</time>
      </trkpt>
      <trkpt lat="46.02926" lon="6.53751">
        <ele>1670.1999511719</ele>
        <time>2019-10-13T12:00:59.000Z</time>
      </trkpt>
      <trkpt lat="46.02925" lon="6.53749">
        <ele>1670.4000244141</ele>
        <time>2019-10-13T12:01:00.000Z</time>
      </trkpt>
      <trkpt lat="46.02924" lon="6.53746">
        <ele>1670.5999755859</ele>
        <time>2019-10-13T12:01:02.000Z</time>
      </trkpt>
      <trkpt lat="46.02922" lon="6.53742">
        <ele>1671</ele>
        <time>2019-10-13T12:01:05.000Z</time>
      </trkpt>
      <trkpt lat="46.02921" lon="6.5374">
        <ele>1671.1999511719</ele>
        <time>2019-10-13T12:01:06.000Z</time>
      </trkpt>
      <trkpt lat="46.0292" lon="6.53733">
        <ele>1671.4000244141</ele>
        <time>2019-10-13T12:01:10.000Z</time>
      </trkpt>
      <trkpt lat="46.02919" lon="6.53729">
        <ele>1671.8000488281</ele>
        <time>2019-10-13T12:01:12.000Z</time>
      </trkpt>
      <trkpt lat="46.02917" lon="6.53726">
        <ele>1672.1999511719</ele>
        <time>2019-10-13T12:01:14.000Z</time>
      </trkpt>
      <trkpt lat="46.02916" lon="6.53722">
        <ele>1672.8000488281</ele>
        <time>2019-10-13T12:01:18.000Z</time>
      </trkpt>
      <trkpt lat="46.02915" lon="6.53721">
        <ele>1673</ele>
        <time>2019-10-13T12:01:19.000Z</time>
      </trkpt>
      <trkpt lat="46.02914" lon="6.53721">
        <ele>1673.4000244141</ele>
        <time>2019-10-13T12:01:20.000Z</time>
      </trkpt>
      <trkpt lat="46.02912" lon="6.5372">
        <ele>1673.8000488281</ele>
        <time>2019-10-13T12:01:23.000Z</time>
      </trkpt>
      <trkpt lat="46.02911" lon="6.53718">
        <ele>1674.1999511719</ele>
        <time>2019-10-13T12:01:26.000Z</time>
      </trkpt>
      <trkpt lat="46.02911" lon="6.53717">
        <ele>1674.5999755859</ele>
        <time>2019-10-13T12:01:27.000Z</time>
      </trkpt>
      <trkpt lat="46.02909" lon="6.53716">
        <ele>1674.8000488281</ele>
        <time>2019-10-13T12:01:29.000Z</time>
      </trkpt>
      <trkpt lat="46.02907" lon="6.53715">
        <ele>1675.1999511719</ele>
        <time>2019-10-13T12:01:31.000Z</time>
      </trkpt>
      <trkpt lat="46.02905" lon="6.53713">
        <ele>1675.4000244141</ele>
        <time>2019-10-13T12:01:33.000Z</time>
      </trkpt>
      <trkpt lat="46.02905" lon="6.53713">
        <ele>1675.5999755859</ele>
        <time>2019-10-13T12:01:34.000Z</time>
      </trkpt>
      <trkpt lat="46.02904" lon="6.53714">
        <ele>1676</ele>
        <time>2019-10-13T12:01:35.000Z</time>
      </trkpt>
      <trkpt lat="46.02901" lon="6.53712">
        <ele>1676.8000488281</ele>
        <time>2019-10-13T12:01:38.000Z</time>
      </trkpt>
      <trkpt lat="46.02901" lon="6.53711">
        <ele>1677.1999511719</ele>
        <time>2019-10-13T12:01:39.000Z</time>
      </trkpt>
      <trkpt lat="46.029" lon="6.53712">
        <ele>1677.5999755859</ele>
        <time>2019-10-13T12:01:40.000Z</time>
      </trkpt>
      <trkpt lat="46.02899" lon="6.53713">
        <ele>1678.1999511719</ele>
        <time>2019-10-13T12:01:43.000Z</time>
      </trkpt>
      <trkpt lat="46.02899" lon="6.53714">
        <ele>1678.4000244141</ele>
        <time>2019-10-13T12:01:44.000Z</time>
      </trkpt>
      <trkpt lat="46.02899" lon="6.53715">
        <ele>1678.8000488281</ele>
        <time>2019-10-13T12:01:45.000Z</time>
      </trkpt>
      <trkpt lat="46.029" lon="6.53716">
        <ele>1679.5999755859</ele>
        <time>2019-10-13T12:01:48.000Z</time>
      </trkpt>
      <trkpt lat="46.02899" lon="6.53715">
        <ele>1680.5999755859</ele>
        <time>2019-10-13T12:01:52.000Z</time>
      </trkpt>
      <trkpt lat="46.02898" lon="6.53715">
        <ele>1680.8000488281</ele>
        <time>2019-10-13T12:01:53.000Z</time>
      </trkpt>
      <trkpt lat="46.02894" lon="6.53711">
        <ele>1682</ele>
        <time>2019-10-13T12:01:57.000Z</time>
      </trkpt>
      <trkpt lat="46.02892" lon="6.5371">
        <ele>1682.4000244141</ele>
        <time>2019-10-13T12:01:59.000Z</time>
      </trkpt>
      <trkpt lat="46.02891" lon="6.53706">
        <ele>1683.1999511719</ele>
        <time>2019-10-13T12:02:03.000Z</time>
      </trkpt>
      <trkpt lat="46.02893" lon="6.53702">
        <ele>1684.1999511719</ele>
        <time>2019-10-13T12:02:07.000Z</time>
      </trkpt>
      <trkpt lat="46.02893" lon="6.537">
        <ele>1684.4000244141</ele>
        <time>2019-10-13T12:02:08.000Z</time>
      </trkpt>
      <trkpt lat="46.02892" lon="6.53698">
        <ele>1684.8000488281</ele>
        <time>2019-10-13T12:02:10.000Z</time>
      </trkpt>
      <trkpt lat="46.02888" lon="6.53699">
        <ele>1685.5999755859</ele>
        <time>2019-10-13T12:02:15.000Z</time>
      </trkpt>
      <trkpt lat="46.02886" lon="6.53699">
        <ele>1685.8000488281</ele>
        <time>2019-10-13T12:02:17.000Z</time>
      </trkpt>
      <trkpt lat="46.02884" lon="6.53698">
        <ele>1686.5999755859</ele>
        <time>2019-10-13T12:02:20.000Z</time>
      </trkpt>
      <trkpt lat="46.02884" lon="6.53696">
        <ele>1687</ele>
        <time>2019-10-13T12:02:23.000Z</time>
      </trkpt>
      <trkpt lat="46.02882" lon="6.53694">
        <ele>1687.5999755859</ele>
        <time>2019-10-13T12:02:26.000Z</time>
      </trkpt>
      <trkpt lat="46.02879" lon="6.53688">
        <ele>1688.1999511719</ele>
        <time>2019-10-13T12:02:30.000Z</time>
      </trkpt>
      <trkpt lat="46.02878" lon="6.53684">
        <ele>1688.5999755859</ele>
        <time>2019-10-13T12:02:32.000Z</time>
      </trkpt>
      <trkpt lat="46.02877" lon="6.53683">
        <ele>1688.8000488281</ele>
        <time>2019-10-13T12:02:33.000Z</time>
      </trkpt>
      <trkpt lat="46.02874" lon="6.53683">
        <ele>1689</ele>
        <time>2019-10-13T12:02:36.000Z</time>
      </trkpt>
      <trkpt lat="46.02874" lon="6.53681">
        <ele>1689</ele>
        <time>2019-10-13T12:02:38.000Z</time>
      </trkpt>
      <trkpt lat="46.02873" lon="6.53679">
        <ele>1689.8000488281</ele>
        <time>2019-10-13T12:02:40.000Z</time>
      </trkpt>
      <trkpt lat="46.02872" lon="6.53678">
        <ele>1690.1999511719</ele>
        <time>2019-10-13T12:02:41.000Z</time>
      </trkpt>
      <trkpt lat="46.02872" lon="6.53676">
        <ele>1690.5999755859</ele>
        <time>2019-10-13T12:02:42.000Z</time>
      </trkpt>
      <trkpt lat="46.02872" lon="6.53674">
        <ele>1691</ele>
        <time>2019-10-13T12:02:43.000Z</time>
      </trkpt>
      <trkpt lat="46.02872" lon="6.53672">
        <ele>1691.4000244141</ele>
        <time>2019-10-13T12:02:44.000Z</time>
      </trkpt>
      <trkpt lat="46.02871" lon="6.53672">
        <ele>1691.5999755859</ele>
        <time>2019-10-13T12:02:45.000Z</time>
      </trkpt>
      <trkpt lat="46.0287" lon="6.53671">
        <ele>1692</ele>
        <time>2019-10-13T12:02:46.000Z</time>
      </trkpt>
      <trkpt lat="46.02869" lon="6.5367">
        <ele>1692.1999511719</ele>
        <time>2019-10-13T12:02:47.000Z</time>
      </trkpt>
      <trkpt lat="46.02867" lon="6.53669">
        <ele>1692.4000244141</ele>
        <time>2019-10-13T12:02:49.000Z</time>
      </trkpt>
      <trkpt lat="46.02865" lon="6.53667">
        <ele>1692.5999755859</ele>
        <time>2019-10-13T12:02:52.000Z</time>
      </trkpt>
      <trkpt lat="46.02863" lon="6.53665">
        <ele>1693.1999511719</ele>
        <time>2019-10-13T12:02:54.000Z</time>
      </trkpt>
      <trkpt lat="46.02861" lon="6.53664">
        <ele>1694</ele>
        <time>2019-10-13T12:02:57.000Z</time>
      </trkpt>
      <trkpt lat="46.0286" lon="6.53664">
        <ele>1694.1999511719</ele>
        <time>2019-10-13T12:02:58.000Z</time>
      </trkpt>
      <trkpt lat="46.02859" lon="6.53664">
        <ele>1694.5999755859</ele>
        <time>2019-10-13T12:02:59.000Z</time>
      </trkpt>
      <trkpt lat="46.02858" lon="6.53665">
        <ele>1695</ele>
        <time>2019-10-13T12:03:01.000Z</time>
      </trkpt>
      <trkpt lat="46.02857" lon="6.53665">
        <ele>1695.1999511719</ele>
        <time>2019-10-13T12:03:02.000Z</time>
      </trkpt>
      <trkpt lat="46.02857" lon="6.53667">
        <ele>1695.1999511719</ele>
        <time>2019-10-13T12:03:04.000Z</time>
      </trkpt>
      <trkpt lat="46.02856" lon="6.53667">
        <ele>1695.5999755859</ele>
        <time>2019-10-13T12:03:05.000Z</time>
      </trkpt>
      <trkpt lat="46.02855" lon="6.53668">
        <ele>1696</ele>
        <time>2019-10-13T12:03:07.000Z</time>
      </trkpt>
      <trkpt lat="46.02852" lon="6.53665">
        <ele>1696.4000244141</ele>
        <time>2019-10-13T12:03:11.000Z</time>
      </trkpt>
      <trkpt lat="46.0285" lon="6.5366">
        <ele>1697.1999511719</ele>
        <time>2019-10-13T12:03:14.000Z</time>
      </trkpt>
      <trkpt lat="46.02851" lon="6.53658">
        <ele>1697.4000244141</ele>
        <time>2019-10-13T12:03:15.000Z</time>
      </trkpt>
      <trkpt lat="46.02847" lon="6.53654">
        <ele>1698.5999755859</ele>
        <time>2019-10-13T12:03:19.000Z</time>
      </trkpt>
      <trkpt lat="46.02846" lon="6.53653">
        <ele>1698.8000488281</ele>
        <time>2019-10-13T12:03:20.000Z</time>
      </trkpt>
      <trkpt lat="46.02844" lon="6.53648">
        <ele>1699.4000244141</ele>
        <time>2019-10-13T12:03:23.000Z</time>
      </trkpt>
      <trkpt lat="46.02843" lon="6.53647">
        <ele>1699.5999755859</ele>
        <time>2019-10-13T12:03:25.000Z</time>
      </trkpt>
      <trkpt lat="46.02842" lon="6.53646">
        <ele>1699.8000488281</ele>
        <time>2019-10-13T12:03:26.000Z</time>
      </trkpt>
      <trkpt lat="46.0284" lon="6.53646">
        <ele>1699.8000488281</ele>
        <time>2019-10-13T12:03:28.000Z</time>
      </trkpt>
      <trkpt lat="46.02839" lon="6.53645">
        <ele>1700.1999511719</ele>
        <time>2019-10-13T12:03:30.000Z</time>
      </trkpt>
      <trkpt lat="46.0284" lon="6.53646">
        <ele>1700.5999755859</ele>
        <time>2019-10-13T12:03:32.000Z</time>
      </trkpt>
      <trkpt lat="46.02841" lon="6.53645">
        <ele>1700.8000488281</ele>
        <time>2019-10-13T12:03:34.000Z</time>
      </trkpt>
      <trkpt lat="46.02841" lon="6.53646">
        <ele>1700.8000488281</ele>
        <time>2019-10-13T12:03:35.000Z</time>
      </trkpt>
      <trkpt lat="46.02843" lon="6.53646">
        <ele>1700.8000488281</ele>
        <time>2019-10-13T12:03:37.000Z</time>
      </trkpt>
      <trkpt lat="46.02845" lon="6.53646">
        <ele>1700.8000488281</ele>
        <time>2019-10-13T12:03:39.000Z</time>
      </trkpt>
      <trkpt lat="46.02848" lon="6.53647">
        <ele>1700.8000488281</ele>
        <time>2019-10-13T12:03:41.000Z</time>
      </trkpt>
      <trkpt lat="46.02848" lon="6.53647">
        <ele>1700.5999755859</ele>
        <time>2019-10-13T12:03:43.000Z</time>
      </trkpt>
      <trkpt lat="46.02844" lon="6.53645">
        <ele>1700</ele>
        <time>2019-10-13T12:03:46.000Z</time>
      </trkpt>
      <trkpt lat="46.02842" lon="6.53645">
        <ele>1700</ele>
        <time>2019-10-13T12:03:48.000Z</time>
      </trkpt>
      <trkpt lat="46.02838" lon="6.53645">
        <ele>1700</ele>
        <time>2019-10-13T12:03:51.000Z</time>
      </trkpt>
      <trkpt lat="46.02836" lon="6.53646">
        <ele>1700</ele>
        <time>2019-10-13T12:03:52.000Z</time>
      </trkpt>
      <trkpt lat="46.02834" lon="6.53645">
        <ele>1700.5999755859</ele>
        <time>2019-10-13T12:03:56.000Z</time>
      </trkpt>
      <trkpt lat="46.02832" lon="6.53644">
        <ele>1700.8000488281</ele>
        <time>2019-10-13T12:03:58.000Z</time>
      </trkpt>
      <trkpt lat="46.02831" lon="6.53644">
        <ele>1701</ele>
        <time>2019-10-13T12:04:01.000Z</time>
      </trkpt>
      <trkpt lat="46.02828" lon="6.53641">
        <ele>1701.4000244141</ele>
        <time>2019-10-13T12:04:04.000Z</time>
      </trkpt>
      <trkpt lat="46.02827" lon="6.5364">
        <ele>1701.5999755859</ele>
        <time>2019-10-13T12:04:05.000Z</time>
      </trkpt>
      <trkpt lat="46.02824" lon="6.53636">
        <ele>1702</ele>
        <time>2019-10-13T12:04:08.000Z</time>
      </trkpt>
      <trkpt lat="46.02822" lon="6.5363">
        <ele>1702.4000244141</ele>
        <time>2019-10-13T12:04:12.000Z</time>
      </trkpt>
      <trkpt lat="46.0282" lon="6.53627">
        <ele>1702.8000488281</ele>
        <time>2019-10-13T12:04:14.000Z</time>
      </trkpt>
      <trkpt lat="46.02817" lon="6.53621">
        <ele>1703.4000244141</ele>
        <time>2019-10-13T12:04:17.000Z</time>
      </trkpt>
      <trkpt lat="46.02816" lon="6.53621">
        <ele>1703.5999755859</ele>
        <time>2019-10-13T12:04:18.000Z</time>
      </trkpt>
      <trkpt lat="46.02815" lon="6.5362">
        <ele>1703.8000488281</ele>
        <time>2019-10-13T12:04:19.000Z</time>
      </trkpt>
      <trkpt lat="46.02812" lon="6.53613">
        <ele>1704</ele>
        <time>2019-10-13T12:04:24.000Z</time>
      </trkpt>
      <trkpt lat="46.02808" lon="6.53606">
        <ele>1704.1999511719</ele>
        <time>2019-10-13T12:04:30.000Z</time>
      </trkpt>
      <trkpt lat="46.02805" lon="6.53602">
        <ele>1704.8000488281</ele>
        <time>2019-10-13T12:04:33.000Z</time>
      </trkpt>
      <trkpt lat="46.02804" lon="6.53602">
        <ele>1705</ele>
        <time>2019-10-13T12:04:34.000Z</time>
      </trkpt>
      <trkpt lat="46.02798" lon="6.53598">
        <ele>1705</ele>
        <time>2019-10-13T12:04:38.000Z</time>
      </trkpt>
      <trkpt lat="46.02797" lon="6.53597">
        <ele>1705</ele>
        <time>2019-10-13T12:04:39.000Z</time>
      </trkpt>
      <trkpt lat="46.02795" lon="6.53592">
        <ele>1705</ele>
        <time>2019-10-13T12:04:42.000Z</time>
      </trkpt>
      <trkpt lat="46.02795" lon="6.53587">
        <ele>1706</ele>
        <time>2019-10-13T12:04:45.000Z</time>
      </trkpt>
      <trkpt lat="46.02794" lon="6.53586">
        <ele>1706.1999511719</ele>
        <time>2019-10-13T12:04:46.000Z</time>
      </trkpt>
      <trkpt lat="46.02794" lon="6.53585">
        <ele>1706.4000244141</ele>
        <time>2019-10-13T12:04:47.000Z</time>
      </trkpt>
      <trkpt lat="46.02794" lon="6.53583">
        <ele>1706.5999755859</ele>
        <time>2019-10-13T12:04:49.000Z</time>
      </trkpt>
      <trkpt lat="46.02795" lon="6.53582">
        <ele>1706.8000488281</ele>
        <time>2019-10-13T12:04:51.000Z</time>
      </trkpt>
      <trkpt lat="46.02795" lon="6.53581">
        <ele>1707</ele>
        <time>2019-10-13T12:04:53.000Z</time>
      </trkpt>
      <trkpt lat="46.02794" lon="6.5358">
        <ele>1707</ele>
        <time>2019-10-13T12:04:54.000Z</time>
      </trkpt>
      <trkpt lat="46.02794" lon="6.53579">
        <ele>1707.4000244141</ele>
        <time>2019-10-13T12:04:55.000Z</time>
      </trkpt>
      <trkpt lat="46.02791" lon="6.53574">
        <ele>1707.8000488281</ele>
        <time>2019-10-13T12:04:58.000Z</time>
      </trkpt>
      <trkpt lat="46.0279" lon="6.53573">
        <ele>1707.8000488281</ele>
        <time>2019-10-13T12:04:59.000Z</time>
      </trkpt>
      <trkpt lat="46.02789" lon="6.53571">
        <ele>1708</ele>
        <time>2019-10-13T12:05:00.000Z</time>
      </trkpt>
      <trkpt lat="46.02788" lon="6.53569">
        <ele>1708.1999511719</ele>
        <time>2019-10-13T12:05:02.000Z</time>
      </trkpt>
      <trkpt lat="46.02787" lon="6.53567">
        <ele>1708.5999755859</ele>
        <time>2019-10-13T12:05:04.000Z</time>
      </trkpt>
      <trkpt lat="46.02787" lon="6.53566">
        <ele>1708.5999755859</ele>
        <time>2019-10-13T12:05:05.000Z</time>
      </trkpt>
      <trkpt lat="46.02782" lon="6.53559">
        <ele>1709.4000244141</ele>
        <time>2019-10-13T12:05:10.000Z</time>
      </trkpt>
      <trkpt lat="46.02782" lon="6.53558">
        <ele>1709.5999755859</ele>
        <time>2019-10-13T12:05:11.000Z</time>
      </trkpt>
      <trkpt lat="46.02782" lon="6.53557">
        <ele>1709.8000488281</ele>
        <time>2019-10-13T12:05:12.000Z</time>
      </trkpt>
      <trkpt lat="46.02782" lon="6.53556">
        <ele>1710</ele>
        <time>2019-10-13T12:05:13.000Z</time>
      </trkpt>
      <trkpt lat="46.02782" lon="6.53553">
        <ele>1710.1999511719</ele>
        <time>2019-10-13T12:05:15.000Z</time>
      </trkpt>
      <trkpt lat="46.02779" lon="6.53549">
        <ele>1710.5999755859</ele>
        <time>2019-10-13T12:05:18.000Z</time>
      </trkpt>
      <trkpt lat="46.02776" lon="6.53545">
        <ele>1711.5999755859</ele>
        <time>2019-10-13T12:05:22.000Z</time>
      </trkpt>
      <trkpt lat="46.02776" lon="6.53545">
        <ele>1712</ele>
        <time>2019-10-13T12:05:24.000Z</time>
      </trkpt>
      <trkpt lat="46.02775" lon="6.53545">
        <ele>1712.1999511719</ele>
        <time>2019-10-13T12:05:25.000Z</time>
      </trkpt>
      <trkpt lat="46.02775" lon="6.53544">
        <ele>1712.4000244141</ele>
        <time>2019-10-13T12:05:26.000Z</time>
      </trkpt>
      <trkpt lat="46.02774" lon="6.53544">
        <ele>1712.5999755859</ele>
        <time>2019-10-13T12:05:27.000Z</time>
      </trkpt>
      <trkpt lat="46.02773" lon="6.53541">
        <ele>1712.8000488281</ele>
        <time>2019-10-13T12:05:29.000Z</time>
      </trkpt>
      <trkpt lat="46.02771" lon="6.5354">
        <ele>1713</ele>
        <time>2019-10-13T12:05:31.000Z</time>
      </trkpt>
      <trkpt lat="46.0277" lon="6.53539">
        <ele>1713.1999511719</ele>
        <time>2019-10-13T12:05:32.000Z</time>
      </trkpt>
      <trkpt lat="46.02768" lon="6.53538">
        <ele>1713.8000488281</ele>
        <time>2019-10-13T12:05:34.000Z</time>
      </trkpt>
      <trkpt lat="46.02766" lon="6.53537">
        <ele>1714.1999511719</ele>
        <time>2019-10-13T12:05:35.000Z</time>
      </trkpt>
      <trkpt lat="46.02765" lon="6.53533">
        <ele>1714.5999755859</ele>
        <time>2019-10-13T12:05:37.000Z</time>
      </trkpt>
      <trkpt lat="46.02764" lon="6.5353">
        <ele>1715.1999511719</ele>
        <time>2019-10-13T12:05:40.000Z</time>
      </trkpt>
      <trkpt lat="46.02762" lon="6.53528">
        <ele>1716</ele>
        <time>2019-10-13T12:05:43.000Z</time>
      </trkpt>
      <trkpt lat="46.02761" lon="6.53529">
        <ele>1716.1999511719</ele>
        <time>2019-10-13T12:05:45.000Z</time>
      </trkpt>
      <trkpt lat="46.02761" lon="6.5353">
        <ele>1716.5999755859</ele>
        <time>2019-10-13T12:05:46.000Z</time>
      </trkpt>
      <trkpt lat="46.02759" lon="6.53529">
        <ele>1717.4000244141</ele>
        <time>2019-10-13T12:05:48.000Z</time>
      </trkpt>
      <trkpt lat="46.02758" lon="6.53526">
        <ele>1717.5999755859</ele>
        <time>2019-10-13T12:05:49.000Z</time>
      </trkpt>
      <trkpt lat="46.02755" lon="6.53521">
        <ele>1718.1999511719</ele>
        <time>2019-10-13T12:05:53.000Z</time>
      </trkpt>
      <trkpt lat="46.02753" lon="6.53521">
        <ele>1718.5999755859</ele>
        <time>2019-10-13T12:05:55.000Z</time>
      </trkpt>
      <trkpt lat="46.02752" lon="6.5352">
        <ele>1719</ele>
        <time>2019-10-13T12:05:58.000Z</time>
      </trkpt>
      <trkpt lat="46.02751" lon="6.5352">
        <ele>1719.5999755859</ele>
        <time>2019-10-13T12:06:00.000Z</time>
      </trkpt>
      <trkpt lat="46.0275" lon="6.5352">
        <ele>1719.8000488281</ele>
        <time>2019-10-13T12:06:01.000Z</time>
      </trkpt>
      <trkpt lat="46.02747" lon="6.53519">
        <ele>1720.4000244141</ele>
        <time>2019-10-13T12:06:04.000Z</time>
      </trkpt>
      <trkpt lat="46.02747" lon="6.53519">
        <ele>1720.5999755859</ele>
        <time>2019-10-13T12:06:05.000Z</time>
      </trkpt>
      <trkpt lat="46.02744" lon="6.53517">
        <ele>1721.4000244141</ele>
        <time>2019-10-13T12:06:08.000Z</time>
      </trkpt>
      <trkpt lat="46.02743" lon="6.53515">
        <ele>1721.5999755859</ele>
        <time>2019-10-13T12:06:09.000Z</time>
      </trkpt>
      <trkpt lat="46.02738" lon="6.53509">
        <ele>1722.8000488281</ele>
        <time>2019-10-13T12:06:14.000Z</time>
      </trkpt>
      <trkpt lat="46.02736" lon="6.53509">
        <ele>1723.5999755859</ele>
        <time>2019-10-13T12:06:17.000Z</time>
      </trkpt>
      <trkpt lat="46.02736" lon="6.53508">
        <ele>1723.8000488281</ele>
        <time>2019-10-13T12:06:18.000Z</time>
      </trkpt>
      <trkpt lat="46.02736" lon="6.53509">
        <ele>1724.4000244141</ele>
        <time>2019-10-13T12:06:21.000Z</time>
      </trkpt>
      <trkpt lat="46.02736" lon="6.5351">
        <ele>1724.8000488281</ele>
        <time>2019-10-13T12:06:23.000Z</time>
      </trkpt>
      <trkpt lat="46.02736" lon="6.53509">
        <ele>1724.8000488281</ele>
        <time>2019-10-13T12:06:25.000Z</time>
      </trkpt>
      <trkpt lat="46.02733" lon="6.53509">
        <ele>1725.8000488281</ele>
        <time>2019-10-13T12:06:29.000Z</time>
      </trkpt>
      <trkpt lat="46.02731" lon="6.53508">
        <ele>1726</ele>
        <time>2019-10-13T12:06:31.000Z</time>
      </trkpt>
      <trkpt lat="46.0273" lon="6.53507">
        <ele>1726.1999511719</ele>
        <time>2019-10-13T12:06:32.000Z</time>
      </trkpt>
      <trkpt lat="46.02729" lon="6.53504">
        <ele>1726.8000488281</ele>
        <time>2019-10-13T12:06:34.000Z</time>
      </trkpt>
      <trkpt lat="46.02729" lon="6.53502">
        <ele>1727.1999511719</ele>
        <time>2019-10-13T12:06:35.000Z</time>
      </trkpt>
      <trkpt lat="46.02728" lon="6.53501">
        <ele>1727.5999755859</ele>
        <time>2019-10-13T12:06:36.000Z</time>
      </trkpt>
      <trkpt lat="46.02727" lon="6.535">
        <ele>1728.1999511719</ele>
        <time>2019-10-13T12:06:37.000Z</time>
      </trkpt>
      <trkpt lat="46.02726" lon="6.535">
        <ele>1729</ele>
        <time>2019-10-13T12:06:39.000Z</time>
      </trkpt>
      <trkpt lat="46.02725" lon="6.535">
        <ele>1729.4000244141</ele>
        <time>2019-10-13T12:06:40.000Z</time>
      </trkpt>
      <trkpt lat="46.02723" lon="6.535">
        <ele>1730.1999511719</ele>
        <time>2019-10-13T12:06:42.000Z</time>
      </trkpt>
      <trkpt lat="46.02722" lon="6.535">
        <ele>1730.4000244141</ele>
        <time>2019-10-13T12:06:43.000Z</time>
      </trkpt>
      <trkpt lat="46.02719" lon="6.53496">
        <ele>1731.5999755859</ele>
        <time>2019-10-13T12:06:47.000Z</time>
      </trkpt>
      <trkpt lat="46.02717" lon="6.53494">
        <ele>1732.4000244141</ele>
        <time>2019-10-13T12:06:49.000Z</time>
      </trkpt>
      <trkpt lat="46.02716" lon="6.53494">
        <ele>1733</ele>
        <time>2019-10-13T12:06:50.000Z</time>
      </trkpt>
      <trkpt lat="46.02714" lon="6.53493">
        <ele>1733.8000488281</ele>
        <time>2019-10-13T12:06:52.000Z</time>
      </trkpt>
      <trkpt lat="46.02713" lon="6.53493">
        <ele>1734.1999511719</ele>
        <time>2019-10-13T12:06:53.000Z</time>
      </trkpt>
      <trkpt lat="46.02712" lon="6.53494">
        <ele>1734.5999755859</ele>
        <time>2019-10-13T12:06:54.000Z</time>
      </trkpt>
      <trkpt lat="46.02711" lon="6.53493">
        <ele>1735</ele>
        <time>2019-10-13T12:06:55.000Z</time>
      </trkpt>
      <trkpt lat="46.0271" lon="6.53493">
        <ele>1735.4000244141</ele>
        <time>2019-10-13T12:06:56.000Z</time>
      </trkpt>
      <trkpt lat="46.02708" lon="6.53491">
        <ele>1736.5999755859</ele>
        <time>2019-10-13T12:06:58.000Z</time>
      </trkpt>
      <trkpt lat="46.02708" lon="6.53491">
        <ele>1737.4000244141</ele>
        <time>2019-10-13T12:06:59.000Z</time>
      </trkpt>
      <trkpt lat="46.02707" lon="6.5349">
        <ele>1737.8000488281</ele>
        <time>2019-10-13T12:07:00.000Z</time>
      </trkpt>
      <trkpt lat="46.02706" lon="6.53489">
        <ele>1738.1999511719</ele>
        <time>2019-10-13T12:07:01.000Z</time>
      </trkpt>
      <trkpt lat="46.02704" lon="6.53488">
        <ele>1738.1999511719</ele>
        <time>2019-10-13T12:07:02.000Z</time>
      </trkpt>
      <trkpt lat="46.02701" lon="6.53484">
        <ele>1738.4000244141</ele>
        <time>2019-10-13T12:07:06.000Z</time>
      </trkpt>
      <trkpt lat="46.02702" lon="6.53483">
        <ele>1738.5999755859</ele>
        <time>2019-10-13T12:07:08.000Z</time>
      </trkpt>
      <trkpt lat="46.02701" lon="6.53482">
        <ele>1738.5999755859</ele>
        <time>2019-10-13T12:07:10.000Z</time>
      </trkpt>
      <trkpt lat="46.02698" lon="6.53481">
        <ele>1739</ele>
        <time>2019-10-13T12:07:14.000Z</time>
      </trkpt>
      <trkpt lat="46.02697" lon="6.53481">
        <ele>1739.1999511719</ele>
        <time>2019-10-13T12:07:15.000Z</time>
      </trkpt>
      <trkpt lat="46.02696" lon="6.53481">
        <ele>1739.4000244141</ele>
        <time>2019-10-13T12:07:16.000Z</time>
      </trkpt>
      <trkpt lat="46.02693" lon="6.5348">
        <ele>1740</ele>
        <time>2019-10-13T12:07:19.000Z</time>
      </trkpt>
      <trkpt lat="46.0269" lon="6.5348">
        <ele>1740.5999755859</ele>
        <time>2019-10-13T12:07:21.000Z</time>
      </trkpt>
      <trkpt lat="46.02688" lon="6.53481">
        <ele>1741</ele>
        <time>2019-10-13T12:07:23.000Z</time>
      </trkpt>
      <trkpt lat="46.02688" lon="6.53481">
        <ele>1741.1999511719</ele>
        <time>2019-10-13T12:07:24.000Z</time>
      </trkpt>
      <trkpt lat="46.02687" lon="6.53481">
        <ele>1741.5999755859</ele>
        <time>2019-10-13T12:07:25.000Z</time>
      </trkpt>
      <trkpt lat="46.02684" lon="6.53479">
        <ele>1742.4000244141</ele>
        <time>2019-10-13T12:07:28.000Z</time>
      </trkpt>
      <trkpt lat="46.02683" lon="6.53478">
        <ele>1743</ele>
        <time>2019-10-13T12:07:31.000Z</time>
      </trkpt>
      <trkpt lat="46.02683" lon="6.53477">
        <ele>1743.4000244141</ele>
        <time>2019-10-13T12:07:32.000Z</time>
      </trkpt>
      <trkpt lat="46.02684" lon="6.53477">
        <ele>1743.5999755859</ele>
        <time>2019-10-13T12:07:33.000Z</time>
      </trkpt>
      <trkpt lat="46.02685" lon="6.53475">
        <ele>1744</ele>
        <time>2019-10-13T12:07:35.000Z</time>
      </trkpt>
      <trkpt lat="46.02691" lon="6.53472">
        <ele>1743.5999755859</ele>
        <time>2019-10-13T12:07:41.000Z</time>
      </trkpt>
      <trkpt lat="46.02694" lon="6.53472">
        <ele>1743</ele>
        <time>2019-10-13T12:07:43.000Z</time>
      </trkpt>
      <trkpt lat="46.02695" lon="6.53472">
        <ele>1742.5999755859</ele>
        <time>2019-10-13T12:07:44.000Z</time>
      </trkpt>
      <trkpt lat="46.02698" lon="6.53472">
        <ele>1742.1999511719</ele>
        <time>2019-10-13T12:07:46.000Z</time>
      </trkpt>
      <trkpt lat="46.02701" lon="6.53473">
        <ele>1741.5999755859</ele>
        <time>2019-10-13T12:07:50.000Z</time>
      </trkpt>
      <trkpt lat="46.02702" lon="6.53477">
        <ele>1740.5999755859</ele>
        <time>2019-10-13T12:07:53.000Z</time>
      </trkpt>
      <trkpt lat="46.02698" lon="6.53479">
        <ele>1740.5999755859</ele>
        <time>2019-10-13T12:07:59.000Z</time>
      </trkpt>
      <trkpt lat="46.02693" lon="6.53481">
        <ele>1741.5999755859</ele>
        <time>2019-10-13T12:08:04.000Z</time>
      </trkpt>
      <trkpt lat="46.02689" lon="6.5348">
        <ele>1741.8000488281</ele>
        <time>2019-10-13T12:08:06.000Z</time>
      </trkpt>
      <trkpt lat="46.02682" lon="6.53476">
        <ele>1742.8000488281</ele>
        <time>2019-10-13T12:08:11.000Z</time>
      </trkpt>
      <trkpt lat="46.02681" lon="6.53475">
        <ele>1743</ele>
        <time>2019-10-13T12:08:12.000Z</time>
      </trkpt>
      <trkpt lat="46.0268" lon="6.53476">
        <ele>1743.1999511719</ele>
        <time>2019-10-13T12:08:13.000Z</time>
      </trkpt>
      <trkpt lat="46.02677" lon="6.53476">
        <ele>1744</ele>
        <time>2019-10-13T12:08:18.000Z</time>
      </trkpt>
      <trkpt lat="46.02677" lon="6.53477">
        <ele>1744.1999511719</ele>
        <time>2019-10-13T12:08:19.000Z</time>
      </trkpt>
      <trkpt lat="46.02675" lon="6.53476">
        <ele>1744.5999755859</ele>
        <time>2019-10-13T12:08:22.000Z</time>
      </trkpt>
      <trkpt lat="46.02673" lon="6.53475">
        <ele>1745.1999511719</ele>
        <time>2019-10-13T12:08:24.000Z</time>
      </trkpt>
      <trkpt lat="46.02672" lon="6.53474">
        <ele>1745.5999755859</ele>
        <time>2019-10-13T12:08:25.000Z</time>
      </trkpt>
      <trkpt lat="46.0267" lon="6.53473">
        <ele>1746.1999511719</ele>
        <time>2019-10-13T12:08:26.000Z</time>
      </trkpt>
      <trkpt lat="46.02669" lon="6.53472">
        <ele>1746.5999755859</ele>
        <time>2019-10-13T12:08:27.000Z</time>
      </trkpt>
      <trkpt lat="46.02669" lon="6.53472">
        <ele>1746.8000488281</ele>
        <time>2019-10-13T12:08:28.000Z</time>
      </trkpt>
      <trkpt lat="46.02668" lon="6.53471">
        <ele>1747</ele>
        <time>2019-10-13T12:08:29.000Z</time>
      </trkpt>
      <trkpt lat="46.02667" lon="6.53471">
        <ele>1747.5999755859</ele>
        <time>2019-10-13T12:08:30.000Z</time>
      </trkpt>
      <trkpt lat="46.02666" lon="6.53471">
        <ele>1748.1999511719</ele>
        <time>2019-10-13T12:08:32.000Z</time>
      </trkpt>
      <trkpt lat="46.02666" lon="6.53471">
        <ele>1748.4000244141</ele>
        <time>2019-10-13T12:08:33.000Z</time>
      </trkpt>
      <trkpt lat="46.02664" lon="6.53471">
        <ele>1748.5999755859</ele>
        <time>2019-10-13T12:08:35.000Z</time>
      </trkpt>
      <trkpt lat="46.02662" lon="6.5347">
        <ele>1749</ele>
        <time>2019-10-13T12:08:37.000Z</time>
      </trkpt>
      <trkpt lat="46.02661" lon="6.53469">
        <ele>1749</ele>
        <time>2019-10-13T12:08:39.000Z</time>
      </trkpt>
      <trkpt lat="46.02661" lon="6.53468">
        <ele>1749</ele>
        <time>2019-10-13T12:08:40.000Z</time>
      </trkpt>
      <trkpt lat="46.0266" lon="6.53468">
        <ele>1749</ele>
        <time>2019-10-13T12:08:41.000Z</time>
      </trkpt>
      <trkpt lat="46.02658" lon="6.53465">
        <ele>1749</ele>
        <time>2019-10-13T12:08:43.000Z</time>
      </trkpt>
      <trkpt lat="46.02654" lon="6.53461">
        <ele>1749.5999755859</ele>
        <time>2019-10-13T12:08:47.000Z</time>
      </trkpt>
      <trkpt lat="46.02654" lon="6.5346">
        <ele>1749.8000488281</ele>
        <time>2019-10-13T12:08:48.000Z</time>
      </trkpt>
      <trkpt lat="46.02652" lon="6.53459">
        <ele>1750.4000244141</ele>
        <time>2019-10-13T12:08:52.000Z</time>
      </trkpt>
      <trkpt lat="46.02653" lon="6.53458">
        <ele>1750.5999755859</ele>
        <time>2019-10-13T12:08:53.000Z</time>
      </trkpt>
      <trkpt lat="46.02653" lon="6.53458">
        <ele>1750.5999755859</ele>
        <time>2019-10-13T12:08:54.000Z</time>
      </trkpt>
      <trkpt lat="46.02651" lon="6.53456">
        <ele>1750.8000488281</ele>
        <time>2019-10-13T12:08:56.000Z</time>
      </trkpt>
      <trkpt lat="46.02642" lon="6.53455">
        <ele>1752</ele>
        <time>2019-10-13T12:09:02.000Z</time>
      </trkpt>
      <trkpt lat="46.02641" lon="6.53454">
        <ele>1752</ele>
        <time>2019-10-13T12:09:03.000Z</time>
      </trkpt>
      <trkpt lat="46.02638" lon="6.53453">
        <ele>1752.1999511719</ele>
        <time>2019-10-13T12:09:07.000Z</time>
      </trkpt>
      <trkpt lat="46.02637" lon="6.53454">
        <ele>1752</ele>
        <time>2019-10-13T12:09:08.000Z</time>
      </trkpt>
      <trkpt lat="46.02636" lon="6.53454">
        <ele>1752</ele>
        <time>2019-10-13T12:09:09.000Z</time>
      </trkpt>
      <trkpt lat="46.02635" lon="6.53454">
        <ele>1752</ele>
        <time>2019-10-13T12:09:10.000Z</time>
      </trkpt>
      <trkpt lat="46.02629" lon="6.53447">
        <ele>1752.1999511719</ele>
        <time>2019-10-13T12:09:17.000Z</time>
      </trkpt>
      <trkpt lat="46.02627" lon="6.53446">
        <ele>1752.5999755859</ele>
        <time>2019-10-13T12:09:19.000Z</time>
      </trkpt>
      <trkpt lat="46.02625" lon="6.53448">
        <ele>1753</ele>
        <time>2019-10-13T12:09:22.000Z</time>
      </trkpt>
      <trkpt lat="46.02623" lon="6.5345">
        <ele>1753.4000244141</ele>
        <time>2019-10-13T12:09:24.000Z</time>
      </trkpt>
      <trkpt lat="46.02622" lon="6.5345">
        <ele>1753.8000488281</ele>
        <time>2019-10-13T12:09:25.000Z</time>
      </trkpt>
      <trkpt lat="46.02622" lon="6.53451">
        <ele>1754</ele>
        <time>2019-10-13T12:09:26.000Z</time>
      </trkpt>
      <trkpt lat="46.02621" lon="6.53452">
        <ele>1754.1999511719</ele>
        <time>2019-10-13T12:09:27.000Z</time>
      </trkpt>
      <trkpt lat="46.02621" lon="6.53452">
        <ele>1754.4000244141</ele>
        <time>2019-10-13T12:09:28.000Z</time>
      </trkpt>
      <trkpt lat="46.02619" lon="6.53454">
        <ele>1754.5999755859</ele>
        <time>2019-10-13T12:09:30.000Z</time>
      </trkpt>
      <trkpt lat="46.02616" lon="6.53459">
        <ele>1755</ele>
        <time>2019-10-13T12:09:34.000Z</time>
      </trkpt>
      <trkpt lat="46.02616" lon="6.5346">
        <ele>1755.1999511719</ele>
        <time>2019-10-13T12:09:35.000Z</time>
      </trkpt>
      <trkpt lat="46.02615" lon="6.53461">
        <ele>1755.1999511719</ele>
        <time>2019-10-13T12:09:37.000Z</time>
      </trkpt>
      <trkpt lat="46.02612" lon="6.53461">
        <ele>1755.4000244141</ele>
        <time>2019-10-13T12:09:39.000Z</time>
      </trkpt>
      <trkpt lat="46.02607" lon="6.53459">
        <ele>1755.5999755859</ele>
        <time>2019-10-13T12:09:42.000Z</time>
      </trkpt>
      <trkpt lat="46.02605" lon="6.53456">
        <ele>1755.8000488281</ele>
        <time>2019-10-13T12:09:44.000Z</time>
      </trkpt>
      <trkpt lat="46.02598" lon="6.53449">
        <ele>1755.8000488281</ele>
        <time>2019-10-13T12:09:49.000Z</time>
      </trkpt>
      <trkpt lat="46.02597" lon="6.53448">
        <ele>1756</ele>
        <time>2019-10-13T12:09:50.000Z</time>
      </trkpt>
      <trkpt lat="46.02595" lon="6.53448">
        <ele>1756.1999511719</ele>
        <time>2019-10-13T12:09:51.000Z</time>
      </trkpt>
      <trkpt lat="46.02594" lon="6.53447">
        <ele>1756.1999511719</ele>
        <time>2019-10-13T12:09:52.000Z</time>
      </trkpt>
      <trkpt lat="46.02589" lon="6.53448">
        <ele>1756.5999755859</ele>
        <time>2019-10-13T12:09:57.000Z</time>
      </trkpt>
      <trkpt lat="46.02585" lon="6.5345">
        <ele>1756.5999755859</ele>
        <time>2019-10-13T12:10:00.000Z</time>
      </trkpt>
      <trkpt lat="46.02579" lon="6.53451">
        <ele>1757</ele>
        <time>2019-10-13T12:10:04.000Z</time>
      </trkpt>
      <trkpt lat="46.02579" lon="6.5345">
        <ele>1757</ele>
        <time>2019-10-13T12:10:05.000Z</time>
      </trkpt>
      <trkpt lat="46.02577" lon="6.53447">
        <ele>1757.1999511719</ele>
        <time>2019-10-13T12:10:07.000Z</time>
      </trkpt>
      <trkpt lat="46.02574" lon="6.53437">
        <ele>1757.4000244141</ele>
        <time>2019-10-13T12:10:11.000Z</time>
      </trkpt>
      <trkpt lat="46.02573" lon="6.53429">
        <ele>1758.1999511719</ele>
        <time>2019-10-13T12:10:15.000Z</time>
      </trkpt>
      <trkpt lat="46.02572" lon="6.53425">
        <ele>1758.1999511719</ele>
        <time>2019-10-13T12:10:17.000Z</time>
      </trkpt>
      <trkpt lat="46.02566" lon="6.53416">
        <ele>1757.5999755859</ele>
        <time>2019-10-13T12:10:23.000Z</time>
      </trkpt>
      <trkpt lat="46.02565" lon="6.53415">
        <ele>1757.5999755859</ele>
        <time>2019-10-13T12:10:25.000Z</time>
      </trkpt>
      <trkpt lat="46.02563" lon="6.53411">
        <ele>1757.4000244141</ele>
        <time>2019-10-13T12:10:28.000Z</time>
      </trkpt>
      <trkpt lat="46.02562" lon="6.53409">
        <ele>1757.4000244141</ele>
        <time>2019-10-13T12:10:29.000Z</time>
      </trkpt>
      <trkpt lat="46.02557" lon="6.53403">
        <ele>1758</ele>
        <time>2019-10-13T12:10:34.000Z</time>
      </trkpt>
      <trkpt lat="46.02554" lon="6.53401">
        <ele>1758.1999511719</ele>
        <time>2019-10-13T12:10:36.000Z</time>
      </trkpt>
      <trkpt lat="46.02552" lon="6.53399">
        <ele>1758.4000244141</ele>
        <time>2019-10-13T12:10:40.000Z</time>
      </trkpt>
      <trkpt lat="46.0255" lon="6.53397">
        <ele>1758.8000488281</ele>
        <time>2019-10-13T12:10:42.000Z</time>
      </trkpt>
      <trkpt lat="46.02543" lon="6.53392">
        <ele>1759.1999511719</ele>
        <time>2019-10-13T12:10:47.000Z</time>
      </trkpt>
      <trkpt lat="46.02542" lon="6.5339">
        <ele>1759.8000488281</ele>
        <time>2019-10-13T12:10:49.000Z</time>
      </trkpt>
      <trkpt lat="46.0254" lon="6.53387">
        <ele>1760.4000244141</ele>
        <time>2019-10-13T12:10:52.000Z</time>
      </trkpt>
      <trkpt lat="46.02535" lon="6.53384">
        <ele>1761.4000244141</ele>
        <time>2019-10-13T12:10:56.000Z</time>
      </trkpt>
      <trkpt lat="46.02535" lon="6.53383">
        <ele>1761.5999755859</ele>
        <time>2019-10-13T12:10:57.000Z</time>
      </trkpt>
      <trkpt lat="46.02533" lon="6.5338">
        <ele>1762.1999511719</ele>
        <time>2019-10-13T12:10:59.000Z</time>
      </trkpt>
      <trkpt lat="46.02531" lon="6.53378">
        <ele>1762.4000244141</ele>
        <time>2019-10-13T12:11:01.000Z</time>
      </trkpt>
      <trkpt lat="46.02531" lon="6.53374">
        <ele>1762.5999755859</ele>
        <time>2019-10-13T12:11:03.000Z</time>
      </trkpt>
      <trkpt lat="46.0253" lon="6.53372">
        <ele>1762.8000488281</ele>
        <time>2019-10-13T12:11:04.000Z</time>
      </trkpt>
      <trkpt lat="46.0253" lon="6.53369">
        <ele>1763</ele>
        <time>2019-10-13T12:11:06.000Z</time>
      </trkpt>
      <trkpt lat="46.02529" lon="6.53365">
        <ele>1763.4000244141</ele>
        <time>2019-10-13T12:11:10.000Z</time>
      </trkpt>
      <trkpt lat="46.02528" lon="6.53365">
        <ele>1764</ele>
        <time>2019-10-13T12:11:12.000Z</time>
      </trkpt>
      <trkpt lat="46.02527" lon="6.53365">
        <ele>1764</ele>
        <time>2019-10-13T12:11:13.000Z</time>
      </trkpt>
      <trkpt lat="46.02524" lon="6.53363">
        <ele>1764.1999511719</ele>
        <time>2019-10-13T12:11:16.000Z</time>
      </trkpt>
      <trkpt lat="46.02522" lon="6.53363">
        <ele>1764.1999511719</ele>
        <time>2019-10-13T12:11:17.000Z</time>
      </trkpt>
      <trkpt lat="46.02516" lon="6.53356">
        <ele>1764.1999511719</ele>
        <time>2019-10-13T12:11:22.000Z</time>
      </trkpt>
      <trkpt lat="46.02515" lon="6.53356">
        <ele>1764.4000244141</ele>
        <time>2019-10-13T12:11:23.000Z</time>
      </trkpt>
      <trkpt lat="46.02512" lon="6.53351">
        <ele>1764.1999511719</ele>
        <time>2019-10-13T12:11:29.000Z</time>
      </trkpt>
      <trkpt lat="46.02509" lon="6.53348">
        <ele>1764</ele>
        <time>2019-10-13T12:11:32.000Z</time>
      </trkpt>
      <trkpt lat="46.02506" lon="6.53346">
        <ele>1764.1999511719</ele>
        <time>2019-10-13T12:11:34.000Z</time>
      </trkpt>
      <trkpt lat="46.02504" lon="6.53343">
        <ele>1764.5999755859</ele>
        <time>2019-10-13T12:11:37.000Z</time>
      </trkpt>
      <trkpt lat="46.02502" lon="6.53343">
        <ele>1765</ele>
        <time>2019-10-13T12:11:39.000Z</time>
      </trkpt>
      <trkpt lat="46.02501" lon="6.53343">
        <ele>1765.1999511719</ele>
        <time>2019-10-13T12:11:40.000Z</time>
      </trkpt>
      <trkpt lat="46.025" lon="6.53342">
        <ele>1765.4000244141</ele>
        <time>2019-10-13T12:11:41.000Z</time>
      </trkpt>
      <trkpt lat="46.02498" lon="6.53342">
        <ele>1765.4000244141</ele>
        <time>2019-10-13T12:11:43.000Z</time>
      </trkpt>
      <trkpt lat="46.02491" lon="6.53344">
        <ele>1765.5999755859</ele>
        <time>2019-10-13T12:11:47.000Z</time>
      </trkpt>
      <trkpt lat="46.02486" lon="6.53343">
        <ele>1766</ele>
        <time>2019-10-13T12:11:50.000Z</time>
      </trkpt>
      <trkpt lat="46.02485" lon="6.53343">
        <ele>1766.1999511719</ele>
        <time>2019-10-13T12:11:51.000Z</time>
      </trkpt>
      <trkpt lat="46.02483" lon="6.53342">
        <ele>1766.4000244141</ele>
        <time>2019-10-13T12:11:52.000Z</time>
      </trkpt>
      <trkpt lat="46.02481" lon="6.5334">
        <ele>1767</ele>
        <time>2019-10-13T12:11:54.000Z</time>
      </trkpt>
      <trkpt lat="46.0248" lon="6.53339">
        <ele>1767</ele>
        <time>2019-10-13T12:11:55.000Z</time>
      </trkpt>
      <trkpt lat="46.0248" lon="6.53338">
        <ele>1767.1999511719</ele>
        <time>2019-10-13T12:11:56.000Z</time>
      </trkpt>
      <trkpt lat="46.0248" lon="6.53336">
        <ele>1767.4000244141</ele>
        <time>2019-10-13T12:11:58.000Z</time>
      </trkpt>
      <trkpt lat="46.0248" lon="6.53336">
        <ele>1767.8000488281</ele>
        <time>2019-10-13T12:11:59.000Z</time>
      </trkpt>
      <trkpt lat="46.02478" lon="6.53334">
        <ele>1768.1999511719</ele>
        <time>2019-10-13T12:12:01.000Z</time>
      </trkpt>
      <trkpt lat="46.02478" lon="6.53333">
        <ele>1768.4000244141</ele>
        <time>2019-10-13T12:12:02.000Z</time>
      </trkpt>
      <trkpt lat="46.02477" lon="6.53329">
        <ele>1768.8000488281</ele>
        <time>2019-10-13T12:12:04.000Z</time>
      </trkpt>
      <trkpt lat="46.02476" lon="6.53327">
        <ele>1769</ele>
        <time>2019-10-13T12:12:05.000Z</time>
      </trkpt>
      <trkpt lat="46.02472" lon="6.53325">
        <ele>1769.5999755859</ele>
        <time>2019-10-13T12:12:07.000Z</time>
      </trkpt>
      <trkpt lat="46.02469" lon="6.53326">
        <ele>1770</ele>
        <time>2019-10-13T12:12:09.000Z</time>
      </trkpt>
      <trkpt lat="46.02465" lon="6.53326">
        <ele>1770.8000488281</ele>
        <time>2019-10-13T12:12:12.000Z</time>
      </trkpt>
      <trkpt lat="46.02461" lon="6.53325">
        <ele>1772</ele>
        <time>2019-10-13T12:12:15.000Z</time>
      </trkpt>
      <trkpt lat="46.02457" lon="6.53321">
        <ele>1772.5999755859</ele>
        <time>2019-10-13T12:12:18.000Z</time>
      </trkpt>
      <trkpt lat="46.02454" lon="6.53315">
        <ele>1773.1999511719</ele>
        <time>2019-10-13T12:12:22.000Z</time>
      </trkpt>
      <trkpt lat="46.02454" lon="6.53314">
        <ele>1773.8000488281</ele>
        <time>2019-10-13T12:12:25.000Z</time>
      </trkpt>
      <trkpt lat="46.02454" lon="6.53314">
        <ele>1774.4000244141</ele>
        <time>2019-10-13T12:12:27.000Z</time>
      </trkpt>
      <trkpt lat="46.02452" lon="6.53312">
        <ele>1774.8000488281</ele>
        <time>2019-10-13T12:12:29.000Z</time>
      </trkpt>
      <trkpt lat="46.02451" lon="6.53311">
        <ele>1775</ele>
        <time>2019-10-13T12:12:30.000Z</time>
      </trkpt>
      <trkpt lat="46.02446" lon="6.53305">
        <ele>1775.4000244141</ele>
        <time>2019-10-13T12:12:35.000Z</time>
      </trkpt>
      <trkpt lat="46.02446" lon="6.53303">
        <ele>1775.5999755859</ele>
        <time>2019-10-13T12:12:36.000Z</time>
      </trkpt>
      <trkpt lat="46.02444" lon="6.53292">
        <ele>1776</ele>
        <time>2019-10-13T12:12:41.000Z</time>
      </trkpt>
      <trkpt lat="46.02442" lon="6.53286">
        <ele>1776.1999511719</ele>
        <time>2019-10-13T12:12:45.000Z</time>
      </trkpt>
      <trkpt lat="46.02441" lon="6.53285">
        <ele>1776.8000488281</ele>
        <time>2019-10-13T12:12:47.000Z</time>
      </trkpt>
      <trkpt lat="46.02439" lon="6.53285">
        <ele>1777.1999511719</ele>
        <time>2019-10-13T12:12:48.000Z</time>
      </trkpt>
      <trkpt lat="46.02436" lon="6.53285">
        <ele>1777.8000488281</ele>
        <time>2019-10-13T12:12:50.000Z</time>
      </trkpt>
      <trkpt lat="46.02432" lon="6.53285">
        <ele>1778.1999511719</ele>
        <time>2019-10-13T12:12:54.000Z</time>
      </trkpt>
      <trkpt lat="46.02431" lon="6.53285">
        <ele>1778.4000244141</ele>
        <time>2019-10-13T12:12:55.000Z</time>
      </trkpt>
      <trkpt lat="46.02428" lon="6.53284">
        <ele>1778.5999755859</ele>
        <time>2019-10-13T12:12:57.000Z</time>
      </trkpt>
      <trkpt lat="46.02427" lon="6.53284">
        <ele>1778.8000488281</ele>
        <time>2019-10-13T12:12:58.000Z</time>
      </trkpt>
      <trkpt lat="46.02424" lon="6.5328">
        <ele>1779</ele>
        <time>2019-10-13T12:13:01.000Z</time>
      </trkpt>
      <trkpt lat="46.02425" lon="6.53278">
        <ele>1779.1999511719</ele>
        <time>2019-10-13T12:13:12.000Z</time>
      </trkpt>
      <trkpt lat="46.02421" lon="6.53278">
        <ele>1779</ele>
        <time>2019-10-13T12:13:16.000Z</time>
      </trkpt>
      <trkpt lat="46.02418" lon="6.53276">
        <ele>1779</ele>
        <time>2019-10-13T12:13:19.000Z</time>
      </trkpt>
      <trkpt lat="46.02412" lon="6.53273">
        <ele>1778.8000488281</ele>
        <time>2019-10-13T12:13:27.000Z</time>
      </trkpt>
      <trkpt lat="46.02407" lon="6.53268">
        <ele>1779</ele>
        <time>2019-10-13T12:13:33.000Z</time>
      </trkpt>
      <trkpt lat="46.02401" lon="6.53262">
        <ele>1779.1999511719</ele>
        <time>2019-10-13T12:13:38.000Z</time>
      </trkpt>
      <trkpt lat="46.024" lon="6.53262">
        <ele>1779.1999511719</ele>
        <time>2019-10-13T12:13:39.000Z</time>
      </trkpt>
      <trkpt lat="46.02399" lon="6.5326">
        <ele>1779.1999511719</ele>
        <time>2019-10-13T12:13:41.000Z</time>
      </trkpt>
      <trkpt lat="46.02395" lon="6.53256">
        <ele>1778.8000488281</ele>
        <time>2019-10-13T12:13:44.000Z</time>
      </trkpt>
      <trkpt lat="46.02394" lon="6.53256">
        <ele>1778.5999755859</ele>
        <time>2019-10-13T12:13:45.000Z</time>
      </trkpt>
      <trkpt lat="46.02392" lon="6.53256">
        <ele>1777.5999755859</ele>
        <time>2019-10-13T12:13:48.000Z</time>
      </trkpt>
      <trkpt lat="46.02391" lon="6.53256">
        <ele>1777.5999755859</ele>
        <time>2019-10-13T12:13:49.000Z</time>
      </trkpt>
      <trkpt lat="46.02388" lon="6.53255">
        <ele>1776.5999755859</ele>
        <time>2019-10-13T12:13:53.000Z</time>
      </trkpt>
      <trkpt lat="46.02387" lon="6.53255">
        <ele>1776.4000244141</ele>
        <time>2019-10-13T12:13:54.000Z</time>
      </trkpt>
      <trkpt lat="46.02382" lon="6.53252">
        <ele>1775.1999511719</ele>
        <time>2019-10-13T12:13:58.000Z</time>
      </trkpt>
      <trkpt lat="46.02377" lon="6.53249">
        <ele>1775</ele>
        <time>2019-10-13T12:14:01.000Z</time>
      </trkpt>
      <trkpt lat="46.02373" lon="6.53248">
        <ele>1774.4000244141</ele>
        <time>2019-10-13T12:14:03.000Z</time>
      </trkpt>
      <trkpt lat="46.02372" lon="6.53247">
        <ele>1774.1999511719</ele>
        <time>2019-10-13T12:14:04.000Z</time>
      </trkpt>
      <trkpt lat="46.02367" lon="6.53243">
        <ele>1773.5999755859</ele>
        <time>2019-10-13T12:14:07.000Z</time>
      </trkpt>
      <trkpt lat="46.02365" lon="6.53238">
        <ele>1773.5999755859</ele>
        <time>2019-10-13T12:14:10.000Z</time>
      </trkpt>
      <trkpt lat="46.02362" lon="6.53236">
        <ele>1773.5999755859</ele>
        <time>2019-10-13T12:14:12.000Z</time>
      </trkpt>
      <trkpt lat="46.02361" lon="6.53235">
        <ele>1773.8000488281</ele>
        <time>2019-10-13T12:14:13.000Z</time>
      </trkpt>
      <trkpt lat="46.02359" lon="6.53231">
        <ele>1773.8000488281</ele>
        <time>2019-10-13T12:14:15.000Z</time>
      </trkpt>
      <trkpt lat="46.02357" lon="6.5323">
        <ele>1773.5999755859</ele>
        <time>2019-10-13T12:14:16.000Z</time>
      </trkpt>
      <trkpt lat="46.02356" lon="6.53229">
        <ele>1772.8000488281</ele>
        <time>2019-10-13T12:14:17.000Z</time>
      </trkpt>
      <trkpt lat="46.02354" lon="6.53227">
        <ele>1772.8000488281</ele>
        <time>2019-10-13T12:14:18.000Z</time>
      </trkpt>
      <trkpt lat="46.02353" lon="6.53226">
        <ele>1772.1999511719</ele>
        <time>2019-10-13T12:14:19.000Z</time>
      </trkpt>
      <trkpt lat="46.0235" lon="6.53225">
        <ele>1772</ele>
        <time>2019-10-13T12:14:21.000Z</time>
      </trkpt>
      <trkpt lat="46.02345" lon="6.53223">
        <ele>1771.5999755859</ele>
        <time>2019-10-13T12:14:23.000Z</time>
      </trkpt>
      <trkpt lat="46.02342" lon="6.53222">
        <ele>1771.5999755859</ele>
        <time>2019-10-13T12:14:25.000Z</time>
      </trkpt>
      <trkpt lat="46.0234" lon="6.53223">
        <ele>1771.4000244141</ele>
        <time>2019-10-13T12:14:26.000Z</time>
      </trkpt>
      <trkpt lat="46.02336" lon="6.53221">
        <ele>1770.4000244141</ele>
        <time>2019-10-13T12:14:28.000Z</time>
      </trkpt>
      <trkpt lat="46.02332" lon="6.53219">
        <ele>1770</ele>
        <time>2019-10-13T12:14:30.000Z</time>
      </trkpt>
      <trkpt lat="46.02325" lon="6.53213">
        <ele>1769.5999755859</ele>
        <time>2019-10-13T12:14:34.000Z</time>
      </trkpt>
      <trkpt lat="46.02322" lon="6.53211">
        <ele>1769.5999755859</ele>
        <time>2019-10-13T12:14:36.000Z</time>
      </trkpt>
      <trkpt lat="46.02318" lon="6.53206">
        <ele>1769.4000244141</ele>
        <time>2019-10-13T12:14:40.000Z</time>
      </trkpt>
      <trkpt lat="46.02316" lon="6.53201">
        <ele>1769.1999511719</ele>
        <time>2019-10-13T12:14:43.000Z</time>
      </trkpt>
      <trkpt lat="46.02311" lon="6.53196">
        <ele>1768.8000488281</ele>
        <time>2019-10-13T12:14:49.000Z</time>
      </trkpt>
      <trkpt lat="46.02309" lon="6.53194">
        <ele>1768.8000488281</ele>
        <time>2019-10-13T12:14:51.000Z</time>
      </trkpt>
      <trkpt lat="46.02309" lon="6.53193">
        <ele>1768.8000488281</ele>
        <time>2019-10-13T12:14:52.000Z</time>
      </trkpt>
      <trkpt lat="46.02305" lon="6.53189">
        <ele>1768.1999511719</ele>
        <time>2019-10-13T12:14:55.000Z</time>
      </trkpt>
      <trkpt lat="46.02297" lon="6.53179">
        <ele>1766.8000488281</ele>
        <time>2019-10-13T12:15:02.000Z</time>
      </trkpt>
      <trkpt lat="46.02291" lon="6.53171">
        <ele>1765.8000488281</ele>
        <time>2019-10-13T12:15:07.000Z</time>
      </trkpt>
      <trkpt lat="46.02289" lon="6.53169">
        <ele>1765.1999511719</ele>
        <time>2019-10-13T12:15:08.000Z</time>
      </trkpt>
      <trkpt lat="46.02287" lon="6.53165">
        <ele>1764.8000488281</ele>
        <time>2019-10-13T12:15:11.000Z</time>
      </trkpt>
      <trkpt lat="46.02286" lon="6.53162">
        <ele>1764.8000488281</ele>
        <time>2019-10-13T12:15:12.000Z</time>
      </trkpt>
      <trkpt lat="46.02285" lon="6.53158">
        <ele>1764.8000488281</ele>
        <time>2019-10-13T12:15:14.000Z</time>
      </trkpt>
      <trkpt lat="46.02283" lon="6.53148">
        <ele>1764.4000244141</ele>
        <time>2019-10-13T12:15:18.000Z</time>
      </trkpt>
      <trkpt lat="46.02279" lon="6.53139">
        <ele>1764.1999511719</ele>
        <time>2019-10-13T12:15:22.000Z</time>
      </trkpt>
      <trkpt lat="46.02277" lon="6.53135">
        <ele>1763.5999755859</ele>
        <time>2019-10-13T12:15:25.000Z</time>
      </trkpt>
      <trkpt lat="46.02275" lon="6.53133">
        <ele>1763.1999511719</ele>
        <time>2019-10-13T12:15:27.000Z</time>
      </trkpt>
      <trkpt lat="46.02275" lon="6.53131">
        <ele>1763</ele>
        <time>2019-10-13T12:15:28.000Z</time>
      </trkpt>
      <trkpt lat="46.02268" lon="6.53116">
        <ele>1762.8000488281</ele>
        <time>2019-10-13T12:15:35.000Z</time>
      </trkpt>
      <trkpt lat="46.02268" lon="6.53112">
        <ele>1763</ele>
        <time>2019-10-13T12:15:37.000Z</time>
      </trkpt>
      <trkpt lat="46.02264" lon="6.53105">
        <ele>1763.1999511719</ele>
        <time>2019-10-13T12:15:41.000Z</time>
      </trkpt>
      <trkpt lat="46.02264" lon="6.53103">
        <ele>1763.1999511719</ele>
        <time>2019-10-13T12:15:42.000Z</time>
      </trkpt>
      <trkpt lat="46.02262" lon="6.53096">
        <ele>1763.5999755859</ele>
        <time>2019-10-13T12:15:46.000Z</time>
      </trkpt>
      <trkpt lat="46.0226" lon="6.53092">
        <ele>1763.5999755859</ele>
        <time>2019-10-13T12:15:48.000Z</time>
      </trkpt>
      <trkpt lat="46.02259" lon="6.53079">
        <ele>1763.4000244141</ele>
        <time>2019-10-13T12:15:53.000Z</time>
      </trkpt>
      <trkpt lat="46.02258" lon="6.53068">
        <ele>1763.8000488281</ele>
        <time>2019-10-13T12:15:57.000Z</time>
      </trkpt>
      <trkpt lat="46.02257" lon="6.53063">
        <ele>1764</ele>
        <time>2019-10-13T12:15:59.000Z</time>
      </trkpt>
      <trkpt lat="46.02253" lon="6.53046">
        <ele>1763.5999755859</ele>
        <time>2019-10-13T12:16:06.000Z</time>
      </trkpt>
      <trkpt lat="46.0225" lon="6.53039">
        <ele>1763.8000488281</ele>
        <time>2019-10-13T12:16:13.000Z</time>
      </trkpt>
      <trkpt lat="46.02247" lon="6.53034">
        <ele>1763.8000488281</ele>
        <time>2019-10-13T12:16:16.000Z</time>
      </trkpt>
      <trkpt lat="46.02244" lon="6.53029">
        <ele>1763.5999755859</ele>
        <time>2019-10-13T12:16:18.000Z</time>
      </trkpt>
      <trkpt lat="46.02242" lon="6.53025">
        <ele>1763</ele>
        <time>2019-10-13T12:16:20.000Z</time>
      </trkpt>
      <trkpt lat="46.0224" lon="6.53022">
        <ele>1762.4000244141</ele>
        <time>2019-10-13T12:16:21.000Z</time>
      </trkpt>
      <trkpt lat="46.02237" lon="6.53015">
        <ele>1762</ele>
        <time>2019-10-13T12:16:25.000Z</time>
      </trkpt>
      <trkpt lat="46.02233" lon="6.5301">
        <ele>1762.4000244141</ele>
        <time>2019-10-13T12:16:30.000Z</time>
      </trkpt>
      <trkpt lat="46.0223" lon="6.53003">
        <ele>1761.4000244141</ele>
        <time>2019-10-13T12:16:35.000Z</time>
      </trkpt>
      <trkpt lat="46.02231" lon="6.53">
        <ele>1761.4000244141</ele>
        <time>2019-10-13T12:16:36.000Z</time>
      </trkpt>
      <trkpt lat="46.02231" lon="6.52998">
        <ele>1761.4000244141</ele>
        <time>2019-10-13T12:16:37.000Z</time>
      </trkpt>
      <trkpt lat="46.0223" lon="6.52989">
        <ele>1761.8000488281</ele>
        <time>2019-10-13T12:16:41.000Z</time>
      </trkpt>
      <trkpt lat="46.02228" lon="6.52978">
        <ele>1761.8000488281</ele>
        <time>2019-10-13T12:16:46.000Z</time>
      </trkpt>
      <trkpt lat="46.02227" lon="6.52977">
        <ele>1761.5999755859</ele>
        <time>2019-10-13T12:16:48.000Z</time>
      </trkpt>
      <trkpt lat="46.02226" lon="6.52976">
        <ele>1761.8000488281</ele>
        <time>2019-10-13T12:16:51.000Z</time>
      </trkpt>
      <trkpt lat="46.02226" lon="6.52978">
        <ele>1761.5999755859</ele>
        <time>2019-10-13T12:16:53.000Z</time>
      </trkpt>
      <trkpt lat="46.02226" lon="6.52978">
        <ele>1761.5999755859</ele>
        <time>2019-10-13T12:16:56.000Z</time>
      </trkpt>
      <trkpt lat="46.02225" lon="6.52977">
        <ele>1761.5999755859</ele>
        <time>2019-10-13T12:16:57.000Z</time>
      </trkpt>
      <trkpt lat="46.02225" lon="6.52977">
        <ele>1761.5999755859</ele>
        <time>2019-10-13T12:16:58.000Z</time>
      </trkpt>
      <trkpt lat="46.02226" lon="6.52968">
        <ele>1761.5999755859</ele>
        <time>2019-10-13T12:17:03.000Z</time>
      </trkpt>
      <trkpt lat="46.02226" lon="6.52967">
        <ele>1762</ele>
        <time>2019-10-13T12:17:04.000Z</time>
      </trkpt>
      <trkpt lat="46.02226" lon="6.52963">
        <ele>1762.4000244141</ele>
        <time>2019-10-13T12:17:06.000Z</time>
      </trkpt>
      <trkpt lat="46.02226" lon="6.52959">
        <ele>1762.5999755859</ele>
        <time>2019-10-13T12:17:07.000Z</time>
      </trkpt>
      <trkpt lat="46.02224" lon="6.52953">
        <ele>1762.8000488281</ele>
        <time>2019-10-13T12:17:10.000Z</time>
      </trkpt>
      <trkpt lat="46.02223" lon="6.52944">
        <ele>1763.4000244141</ele>
        <time>2019-10-13T12:17:15.000Z</time>
      </trkpt>
      <trkpt lat="46.02223" lon="6.52943">
        <ele>1763.4000244141</ele>
        <time>2019-10-13T12:17:16.000Z</time>
      </trkpt>
      <trkpt lat="46.0222" lon="6.52938">
        <ele>1763</ele>
        <time>2019-10-13T12:17:19.000Z</time>
      </trkpt>
      <trkpt lat="46.02217" lon="6.52934">
        <ele>1762.1999511719</ele>
        <time>2019-10-13T12:17:22.000Z</time>
      </trkpt>
      <trkpt lat="46.02215" lon="6.52933">
        <ele>1762</ele>
        <time>2019-10-13T12:17:23.000Z</time>
      </trkpt>
      <trkpt lat="46.02214" lon="6.52929">
        <ele>1761.5999755859</ele>
        <time>2019-10-13T12:17:26.000Z</time>
      </trkpt>
      <trkpt lat="46.02212" lon="6.52925">
        <ele>1761.1999511719</ele>
        <time>2019-10-13T12:17:28.000Z</time>
      </trkpt>
      <trkpt lat="46.0221" lon="6.52918">
        <ele>1760.4000244141</ele>
        <time>2019-10-13T12:17:31.000Z</time>
      </trkpt>
      <trkpt lat="46.02209" lon="6.52914">
        <ele>1759.8000488281</ele>
        <time>2019-10-13T12:17:32.000Z</time>
      </trkpt>
      <trkpt lat="46.02208" lon="6.5291">
        <ele>1759.4000244141</ele>
        <time>2019-10-13T12:17:33.000Z</time>
      </trkpt>
      <trkpt lat="46.02207" lon="6.52905">
        <ele>1758.8000488281</ele>
        <time>2019-10-13T12:17:35.000Z</time>
      </trkpt>
      <trkpt lat="46.02205" lon="6.52903">
        <ele>1758.4000244141</ele>
        <time>2019-10-13T12:17:37.000Z</time>
      </trkpt>
      <trkpt lat="46.02204" lon="6.52902">
        <ele>1758.1999511719</ele>
        <time>2019-10-13T12:17:38.000Z</time>
      </trkpt>
      <trkpt lat="46.02203" lon="6.529">
        <ele>1758</ele>
        <time>2019-10-13T12:17:40.000Z</time>
      </trkpt>
      <trkpt lat="46.02202" lon="6.52898">
        <ele>1757.5999755859</ele>
        <time>2019-10-13T12:17:42.000Z</time>
      </trkpt>
      <trkpt lat="46.02198" lon="6.52894">
        <ele>1757.4000244141</ele>
        <time>2019-10-13T12:17:44.000Z</time>
      </trkpt>
      <trkpt lat="46.02193" lon="6.52885">
        <ele>1757.4000244141</ele>
        <time>2019-10-13T12:17:48.000Z</time>
      </trkpt>
      <trkpt lat="46.02192" lon="6.52883">
        <ele>1757.5999755859</ele>
        <time>2019-10-13T12:17:49.000Z</time>
      </trkpt>
      <trkpt lat="46.02191" lon="6.52881">
        <ele>1757.4000244141</ele>
        <time>2019-10-13T12:17:50.000Z</time>
      </trkpt>
      <trkpt lat="46.02189" lon="6.52879">
        <ele>1757.4000244141</ele>
        <time>2019-10-13T12:17:51.000Z</time>
      </trkpt>
      <trkpt lat="46.02187" lon="6.52876">
        <ele>1757.1999511719</ele>
        <time>2019-10-13T12:17:53.000Z</time>
      </trkpt>
      <trkpt lat="46.02186" lon="6.52872">
        <ele>1757</ele>
        <time>2019-10-13T12:17:55.000Z</time>
      </trkpt>
      <trkpt lat="46.02183" lon="6.52866">
        <ele>1756.8000488281</ele>
        <time>2019-10-13T12:17:58.000Z</time>
      </trkpt>
      <trkpt lat="46.02182" lon="6.52862">
        <ele>1756.5999755859</ele>
        <time>2019-10-13T12:18:00.000Z</time>
      </trkpt>
      <trkpt lat="46.0218" lon="6.52855">
        <ele>1756.4000244141</ele>
        <time>2019-10-13T12:18:06.000Z</time>
      </trkpt>
      <trkpt lat="46.02179" lon="6.52853">
        <ele>1756.4000244141</ele>
        <time>2019-10-13T12:18:07.000Z</time>
      </trkpt>
      <trkpt lat="46.02176" lon="6.52843">
        <ele>1756.5999755859</ele>
        <time>2019-10-13T12:18:11.000Z</time>
      </trkpt>
      <trkpt lat="46.02175" lon="6.5284">
        <ele>1756.4000244141</ele>
        <time>2019-10-13T12:18:13.000Z</time>
      </trkpt>
      <trkpt lat="46.02174" lon="6.52839">
        <ele>1756</ele>
        <time>2019-10-13T12:18:14.000Z</time>
      </trkpt>
      <trkpt lat="46.02172" lon="6.52834">
        <ele>1754.8000488281</ele>
        <time>2019-10-13T12:18:17.000Z</time>
      </trkpt>
      <trkpt lat="46.0217" lon="6.52831">
        <ele>1754.5999755859</ele>
        <time>2019-10-13T12:18:19.000Z</time>
      </trkpt>
      <trkpt lat="46.02164" lon="6.52826">
        <ele>1753.5999755859</ele>
        <time>2019-10-13T12:18:23.000Z</time>
      </trkpt>
      <trkpt lat="46.02161" lon="6.52822">
        <ele>1753</ele>
        <time>2019-10-13T12:18:25.000Z</time>
      </trkpt>
      <trkpt lat="46.0216" lon="6.52821">
        <ele>1752.5999755859</ele>
        <time>2019-10-13T12:18:26.000Z</time>
      </trkpt>
      <trkpt lat="46.02153" lon="6.52814">
        <ele>1752</ele>
        <time>2019-10-13T12:18:31.000Z</time>
      </trkpt>
      <trkpt lat="46.02147" lon="6.52806">
        <ele>1752</ele>
        <time>2019-10-13T12:18:36.000Z</time>
      </trkpt>
      <trkpt lat="46.02146" lon="6.52803">
        <ele>1752</ele>
        <time>2019-10-13T12:18:38.000Z</time>
      </trkpt>
      <trkpt lat="46.02144" lon="6.52802">
        <ele>1752</ele>
        <time>2019-10-13T12:18:40.000Z</time>
      </trkpt>
      <trkpt lat="46.02141" lon="6.528">
        <ele>1752</ele>
        <time>2019-10-13T12:18:43.000Z</time>
      </trkpt>
      <trkpt lat="46.02139" lon="6.52798">
        <ele>1751.8000488281</ele>
        <time>2019-10-13T12:18:44.000Z</time>
      </trkpt>
      <trkpt lat="46.02138" lon="6.52797">
        <ele>1751.5999755859</ele>
        <time>2019-10-13T12:18:45.000Z</time>
      </trkpt>
      <trkpt lat="46.02137" lon="6.52795">
        <ele>1751.1999511719</ele>
        <time>2019-10-13T12:18:46.000Z</time>
      </trkpt>
      <trkpt lat="46.02134" lon="6.52789">
        <ele>1750.5999755859</ele>
        <time>2019-10-13T12:18:49.000Z</time>
      </trkpt>
      <trkpt lat="46.02133" lon="6.52787">
        <ele>1750.4000244141</ele>
        <time>2019-10-13T12:18:50.000Z</time>
      </trkpt>
      <trkpt lat="46.0213" lon="6.52785">
        <ele>1750.4000244141</ele>
        <time>2019-10-13T12:18:52.000Z</time>
      </trkpt>
      <trkpt lat="46.02125" lon="6.52784">
        <ele>1750.1999511719</ele>
        <time>2019-10-13T12:18:55.000Z</time>
      </trkpt>
      <trkpt lat="46.02123" lon="6.52786">
        <ele>1749.4000244141</ele>
        <time>2019-10-13T12:18:59.000Z</time>
      </trkpt>
      <trkpt lat="46.02122" lon="6.52785">
        <ele>1749.4000244141</ele>
        <time>2019-10-13T12:19:00.000Z</time>
      </trkpt>
      <trkpt lat="46.02121" lon="6.52785">
        <ele>1749.4000244141</ele>
        <time>2019-10-13T12:19:01.000Z</time>
      </trkpt>
      <trkpt lat="46.0212" lon="6.52784">
        <ele>1749.4000244141</ele>
        <time>2019-10-13T12:19:02.000Z</time>
      </trkpt>
      <trkpt lat="46.02119" lon="6.52782">
        <ele>1749.1999511719</ele>
        <time>2019-10-13T12:19:04.000Z</time>
      </trkpt>
      <trkpt lat="46.02116" lon="6.5278">
        <ele>1749</ele>
        <time>2019-10-13T12:19:06.000Z</time>
      </trkpt>
      <trkpt lat="46.02115" lon="6.52775">
        <ele>1749</ele>
        <time>2019-10-13T12:19:08.000Z</time>
      </trkpt>
      <trkpt lat="46.02113" lon="6.52767">
        <ele>1749.1999511719</ele>
        <time>2019-10-13T12:19:11.000Z</time>
      </trkpt>
      <trkpt lat="46.02112" lon="6.52761">
        <ele>1749.4000244141</ele>
        <time>2019-10-13T12:19:13.000Z</time>
      </trkpt>
      <trkpt lat="46.0211" lon="6.52752">
        <ele>1750</ele>
        <time>2019-10-13T12:19:16.000Z</time>
      </trkpt>
      <trkpt lat="46.02107" lon="6.52746">
        <ele>1750.4000244141</ele>
        <time>2019-10-13T12:19:19.000Z</time>
      </trkpt>
      <trkpt lat="46.02106" lon="6.52744">
        <ele>1750.5999755859</ele>
        <time>2019-10-13T12:19:20.000Z</time>
      </trkpt>
      <trkpt lat="46.02105" lon="6.52739">
        <ele>1750.8000488281</ele>
        <time>2019-10-13T12:19:22.000Z</time>
      </trkpt>
      <trkpt lat="46.02104" lon="6.52736">
        <ele>1751</ele>
        <time>2019-10-13T12:19:24.000Z</time>
      </trkpt>
      <trkpt lat="46.02101" lon="6.52729">
        <ele>1751.1999511719</ele>
        <time>2019-10-13T12:19:29.000Z</time>
      </trkpt>
      <trkpt lat="46.021" lon="6.52729">
        <ele>1751.1999511719</ele>
        <time>2019-10-13T12:19:30.000Z</time>
      </trkpt>
      <trkpt lat="46.021" lon="6.52727">
        <ele>1751.1999511719</ele>
        <time>2019-10-13T12:19:32.000Z</time>
      </trkpt>
      <trkpt lat="46.02097" lon="6.52721">
        <ele>1751.4000244141</ele>
        <time>2019-10-13T12:19:35.000Z</time>
      </trkpt>
      <trkpt lat="46.02096" lon="6.52717">
        <ele>1751.4000244141</ele>
        <time>2019-10-13T12:19:37.000Z</time>
      </trkpt>
      <trkpt lat="46.02092" lon="6.52716">
        <ele>1751.5999755859</ele>
        <time>2019-10-13T12:19:40.000Z</time>
      </trkpt>
      <trkpt lat="46.0209" lon="6.52714">
        <ele>1751.5999755859</ele>
        <time>2019-10-13T12:19:42.000Z</time>
      </trkpt>
      <trkpt lat="46.02088" lon="6.5271">
        <ele>1751.8000488281</ele>
        <time>2019-10-13T12:19:44.000Z</time>
      </trkpt>
      <trkpt lat="46.02087" lon="6.52708">
        <ele>1751.8000488281</ele>
        <time>2019-10-13T12:19:45.000Z</time>
      </trkpt>
      <trkpt lat="46.02085" lon="6.52701">
        <ele>1752</ele>
        <time>2019-10-13T12:19:48.000Z</time>
      </trkpt>
      <trkpt lat="46.02085" lon="6.52697">
        <ele>1752.1999511719</ele>
        <time>2019-10-13T12:19:50.000Z</time>
      </trkpt>
      <trkpt lat="46.02081" lon="6.52692">
        <ele>1752.1999511719</ele>
        <time>2019-10-13T12:19:53.000Z</time>
      </trkpt>
      <trkpt lat="46.02079" lon="6.52687">
        <ele>1752.4000244141</ele>
        <time>2019-10-13T12:19:55.000Z</time>
      </trkpt>
      <trkpt lat="46.02076" lon="6.52681">
        <ele>1752.5999755859</ele>
        <time>2019-10-13T12:19:58.000Z</time>
      </trkpt>
      <trkpt lat="46.02075" lon="6.52676">
        <ele>1752.5999755859</ele>
        <time>2019-10-13T12:20:01.000Z</time>
      </trkpt>
      <trkpt lat="46.02069" lon="6.52662">
        <ele>1752.5999755859</ele>
        <time>2019-10-13T12:20:09.000Z</time>
      </trkpt>
      <trkpt lat="46.02068" lon="6.52661">
        <ele>1752.5999755859</ele>
        <time>2019-10-13T12:20:10.000Z</time>
      </trkpt>
      <trkpt lat="46.02061" lon="6.52653">
        <ele>1752.8000488281</ele>
        <time>2019-10-13T12:20:17.000Z</time>
      </trkpt>
      <trkpt lat="46.02059" lon="6.52647">
        <ele>1753.1999511719</ele>
        <time>2019-10-13T12:20:22.000Z</time>
      </trkpt>
      <trkpt lat="46.02058" lon="6.52646">
        <ele>1753.1999511719</ele>
        <time>2019-10-13T12:20:24.000Z</time>
      </trkpt>
      <trkpt lat="46.02057" lon="6.52645">
        <ele>1753</ele>
        <time>2019-10-13T12:20:25.000Z</time>
      </trkpt>
      <trkpt lat="46.02057" lon="6.52644">
        <ele>1753</ele>
        <time>2019-10-13T12:20:27.000Z</time>
      </trkpt>
      <trkpt lat="46.02056" lon="6.52642">
        <ele>1753.1999511719</ele>
        <time>2019-10-13T12:20:29.000Z</time>
      </trkpt>
      <trkpt lat="46.02054" lon="6.5264">
        <ele>1753.5999755859</ele>
        <time>2019-10-13T12:20:31.000Z</time>
      </trkpt>
      <trkpt lat="46.02051" lon="6.52639">
        <ele>1753.5999755859</ele>
        <time>2019-10-13T12:20:32.000Z</time>
      </trkpt>
      <trkpt lat="46.02049" lon="6.52637">
        <ele>1753.8000488281</ele>
        <time>2019-10-13T12:20:33.000Z</time>
      </trkpt>
      <trkpt lat="46.02048" lon="6.52629">
        <ele>1753.5999755859</ele>
        <time>2019-10-13T12:20:37.000Z</time>
      </trkpt>
      <trkpt lat="46.02047" lon="6.52623">
        <ele>1753.4000244141</ele>
        <time>2019-10-13T12:20:39.000Z</time>
      </trkpt>
      <trkpt lat="46.02047" lon="6.52619">
        <ele>1753.4000244141</ele>
        <time>2019-10-13T12:20:40.000Z</time>
      </trkpt>
      <trkpt lat="46.02046" lon="6.5261">
        <ele>1753.1999511719</ele>
        <time>2019-10-13T12:20:43.000Z</time>
      </trkpt>
      <trkpt lat="46.02045" lon="6.52607">
        <ele>1753.1999511719</ele>
        <time>2019-10-13T12:20:45.000Z</time>
      </trkpt>
      <trkpt lat="46.02036" lon="6.52594">
        <ele>1753.4000244141</ele>
        <time>2019-10-13T12:20:54.000Z</time>
      </trkpt>
      <trkpt lat="46.02029" lon="6.52582">
        <ele>1753</ele>
        <time>2019-10-13T12:21:01.000Z</time>
      </trkpt>
      <trkpt lat="46.02026" lon="6.52573">
        <ele>1753.5999755859</ele>
        <time>2019-10-13T12:21:05.000Z</time>
      </trkpt>
      <trkpt lat="46.02024" lon="6.52561">
        <ele>1754.1999511719</ele>
        <time>2019-10-13T12:21:08.000Z</time>
      </trkpt>
      <trkpt lat="46.02022" lon="6.52557">
        <ele>1754.1999511719</ele>
        <time>2019-10-13T12:21:12.000Z</time>
      </trkpt>
      <trkpt lat="46.02021" lon="6.52554">
        <ele>1754.1999511719</ele>
        <time>2019-10-13T12:21:16.000Z</time>
      </trkpt>
      <trkpt lat="46.02021" lon="6.52553">
        <ele>1754.1999511719</ele>
        <time>2019-10-13T12:21:17.000Z</time>
      </trkpt>
      <trkpt lat="46.0202" lon="6.52549">
        <ele>1754</ele>
        <time>2019-10-13T12:21:19.000Z</time>
      </trkpt>
      <trkpt lat="46.02018" lon="6.52539">
        <ele>1753.5999755859</ele>
        <time>2019-10-13T12:21:23.000Z</time>
      </trkpt>
      <trkpt lat="46.02018" lon="6.52537">
        <ele>1753.4000244141</ele>
        <time>2019-10-13T12:21:24.000Z</time>
      </trkpt>
      <trkpt lat="46.02015" lon="6.52525">
        <ele>1753.5999755859</ele>
        <time>2019-10-13T12:21:30.000Z</time>
      </trkpt>
      <trkpt lat="46.02014" lon="6.52522">
        <ele>1753.5999755859</ele>
        <time>2019-10-13T12:21:31.000Z</time>
      </trkpt>
      <trkpt lat="46.02009" lon="6.52515">
        <ele>1753.4000244141</ele>
        <time>2019-10-13T12:21:35.000Z</time>
      </trkpt>
      <trkpt lat="46.02009" lon="6.52512">
        <ele>1753.1999511719</ele>
        <time>2019-10-13T12:21:37.000Z</time>
      </trkpt>
      <trkpt lat="46.02007" lon="6.52506">
        <ele>1753</ele>
        <time>2019-10-13T12:21:40.000Z</time>
      </trkpt>
      <trkpt lat="46.02004" lon="6.52501">
        <ele>1752.5999755859</ele>
        <time>2019-10-13T12:21:43.000Z</time>
      </trkpt>
      <trkpt lat="46.02003" lon="6.525">
        <ele>1752.5999755859</ele>
        <time>2019-10-13T12:21:44.000Z</time>
      </trkpt>
      <trkpt lat="46.01995" lon="6.5249">
        <ele>1752.1999511719</ele>
        <time>2019-10-13T12:21:50.000Z</time>
      </trkpt>
      <trkpt lat="46.01992" lon="6.52483">
        <ele>1752.1999511719</ele>
        <time>2019-10-13T12:21:54.000Z</time>
      </trkpt>
      <trkpt lat="46.01991" lon="6.52483">
        <ele>1752.1999511719</ele>
        <time>2019-10-13T12:21:55.000Z</time>
      </trkpt>
      <trkpt lat="46.01989" lon="6.5248">
        <ele>1752.8000488281</ele>
        <time>2019-10-13T12:21:57.000Z</time>
      </trkpt>
      <trkpt lat="46.01987" lon="6.52478">
        <ele>1753</ele>
        <time>2019-10-13T12:22:01.000Z</time>
      </trkpt>
      <trkpt lat="46.01986" lon="6.52477">
        <ele>1753</ele>
        <time>2019-10-13T12:22:02.000Z</time>
      </trkpt>
      <trkpt lat="46.01981" lon="6.52475">
        <ele>1752.8000488281</ele>
        <time>2019-10-13T12:22:04.000Z</time>
      </trkpt>
      <trkpt lat="46.01978" lon="6.52468">
        <ele>1752.5999755859</ele>
        <time>2019-10-13T12:22:07.000Z</time>
      </trkpt>
      <trkpt lat="46.01975" lon="6.52464">
        <ele>1752.1999511719</ele>
        <time>2019-10-13T12:22:10.000Z</time>
      </trkpt>
      <trkpt lat="46.01968" lon="6.52456">
        <ele>1751.5999755859</ele>
        <time>2019-10-13T12:22:17.000Z</time>
      </trkpt>
      <trkpt lat="46.01967" lon="6.52454">
        <ele>1751.1999511719</ele>
        <time>2019-10-13T12:22:18.000Z</time>
      </trkpt>
      <trkpt lat="46.01964" lon="6.52449">
        <ele>1750.8000488281</ele>
        <time>2019-10-13T12:22:21.000Z</time>
      </trkpt>
      <trkpt lat="46.01964" lon="6.52447">
        <ele>1750.5999755859</ele>
        <time>2019-10-13T12:22:22.000Z</time>
      </trkpt>
      <trkpt lat="46.01965" lon="6.52442">
        <ele>1750.5999755859</ele>
        <time>2019-10-13T12:22:25.000Z</time>
      </trkpt>
      <trkpt lat="46.01965" lon="6.5244">
        <ele>1751</ele>
        <time>2019-10-13T12:22:28.000Z</time>
      </trkpt>
      <trkpt lat="46.01967" lon="6.52439">
        <ele>1751.5999755859</ele>
        <time>2019-10-13T12:22:30.000Z</time>
      </trkpt>
      <trkpt lat="46.01972" lon="6.5244">
        <ele>1752.8000488281</ele>
        <time>2019-10-13T12:22:35.000Z</time>
      </trkpt>
      <trkpt lat="46.01974" lon="6.52439">
        <ele>1753.4000244141</ele>
        <time>2019-10-13T12:22:37.000Z</time>
      </trkpt>
      <trkpt lat="46.01977" lon="6.52439">
        <ele>1754</ele>
        <time>2019-10-13T12:22:39.000Z</time>
      </trkpt>
      <trkpt lat="46.01981" lon="6.52441">
        <ele>1755.1999511719</ele>
        <time>2019-10-13T12:22:43.000Z</time>
      </trkpt>
      <trkpt lat="46.01982" lon="6.52442">
        <ele>1755.4000244141</ele>
        <time>2019-10-13T12:22:44.000Z</time>
      </trkpt>
      <trkpt lat="46.01982" lon="6.52447">
        <ele>1756.4000244141</ele>
        <time>2019-10-13T12:22:47.000Z</time>
      </trkpt>
      <trkpt lat="46.01982" lon="6.52448">
        <ele>1756.4000244141</ele>
        <time>2019-10-13T12:22:48.000Z</time>
      </trkpt>
      <trkpt lat="46.01984" lon="6.5245">
        <ele>1756.5999755859</ele>
        <time>2019-10-13T12:22:51.000Z</time>
      </trkpt>
      <trkpt lat="46.01986" lon="6.52451">
        <ele>1756.5999755859</ele>
        <time>2019-10-13T12:22:55.000Z</time>
      </trkpt>
      <trkpt lat="46.01987" lon="6.52451">
        <ele>1756.5999755859</ele>
        <time>2019-10-13T12:22:56.000Z</time>
      </trkpt>
      <trkpt lat="46.0199" lon="6.52452">
        <ele>1756.8000488281</ele>
        <time>2019-10-13T12:23:00.000Z</time>
      </trkpt>
      <trkpt lat="46.01991" lon="6.52451">
        <ele>1756.8000488281</ele>
        <time>2019-10-13T12:23:01.000Z</time>
      </trkpt>
      <trkpt lat="46.01991" lon="6.52447">
        <ele>1757.4000244141</ele>
        <time>2019-10-13T12:23:05.000Z</time>
      </trkpt>
      <trkpt lat="46.01991" lon="6.52447">
        <ele>1757.8000488281</ele>
        <time>2019-10-13T12:23:06.000Z</time>
      </trkpt>
      <trkpt lat="46.01994" lon="6.52445">
        <ele>1758.5999755859</ele>
        <time>2019-10-13T12:23:09.000Z</time>
      </trkpt>
      <trkpt lat="46.01996" lon="6.52446">
        <ele>1758.8000488281</ele>
        <time>2019-10-13T12:23:11.000Z</time>
      </trkpt>
      <trkpt lat="46.01998" lon="6.52449">
        <ele>1759.4000244141</ele>
        <time>2019-10-13T12:23:14.000Z</time>
      </trkpt>
      <trkpt lat="46.01998" lon="6.5245">
        <ele>1759.5999755859</ele>
        <time>2019-10-13T12:23:15.000Z</time>
      </trkpt>
      <trkpt lat="46.01999" lon="6.5245">
        <ele>1759.8000488281</ele>
        <time>2019-10-13T12:23:16.000Z</time>
      </trkpt>
      <trkpt lat="46.02" lon="6.5245">
        <ele>1760</ele>
        <time>2019-10-13T12:23:19.000Z</time>
      </trkpt>
      <trkpt lat="46.02003" lon="6.52452">
        <ele>1760.4000244141</ele>
        <time>2019-10-13T12:23:22.000Z</time>
      </trkpt>
      <trkpt lat="46.02005" lon="6.52454">
        <ele>1760.8000488281</ele>
        <time>2019-10-13T12:23:24.000Z</time>
      </trkpt>
      <trkpt lat="46.02008" lon="6.52455">
        <ele>1761.5999755859</ele>
        <time>2019-10-13T12:23:26.000Z</time>
      </trkpt>
      <trkpt lat="46.02012" lon="6.52456">
        <ele>1762</ele>
        <time>2019-10-13T12:23:29.000Z</time>
      </trkpt>
      <trkpt lat="46.02014" lon="6.52456">
        <ele>1762.1999511719</ele>
        <time>2019-10-13T12:23:31.000Z</time>
      </trkpt>
      <trkpt lat="46.02015" lon="6.52456">
        <ele>1762.1999511719</ele>
        <time>2019-10-13T12:23:32.000Z</time>
      </trkpt>
      <trkpt lat="46.02017" lon="6.52457">
        <ele>1762.8000488281</ele>
        <time>2019-10-13T12:23:34.000Z</time>
      </trkpt>
      <trkpt lat="46.02018" lon="6.52457">
        <ele>1763</ele>
        <time>2019-10-13T12:23:35.000Z</time>
      </trkpt>
      <trkpt lat="46.02018" lon="6.52457">
        <ele>1763.1999511719</ele>
        <time>2019-10-13T12:23:36.000Z</time>
      </trkpt>
      <trkpt lat="46.02019" lon="6.52457">
        <ele>1763.1999511719</ele>
        <time>2019-10-13T12:23:37.000Z</time>
      </trkpt>
      <trkpt lat="46.0202" lon="6.52458">
        <ele>1763.4000244141</ele>
        <time>2019-10-13T12:23:38.000Z</time>
      </trkpt>
      <trkpt lat="46.02021" lon="6.52458">
        <ele>1763.8000488281</ele>
        <time>2019-10-13T12:23:40.000Z</time>
      </trkpt>
      <trkpt lat="46.02022" lon="6.52458">
        <ele>1764</ele>
        <time>2019-10-13T12:23:41.000Z</time>
      </trkpt>
      <trkpt lat="46.02022" lon="6.52458">
        <ele>1764.1999511719</ele>
        <time>2019-10-13T12:23:42.000Z</time>
      </trkpt>
      <trkpt lat="46.02022" lon="6.52458">
        <ele>1764.4000244141</ele>
        <time>2019-10-13T12:23:43.000Z</time>
      </trkpt>
      <trkpt lat="46.02024" lon="6.5246">
        <ele>1764.8000488281</ele>
        <time>2019-10-13T12:23:46.000Z</time>
      </trkpt>
      <trkpt lat="46.02024" lon="6.52461">
        <ele>1765.1999511719</ele>
        <time>2019-10-13T12:23:47.000Z</time>
      </trkpt>
      <trkpt lat="46.02025" lon="6.52463">
        <ele>1765.4000244141</ele>
        <time>2019-10-13T12:23:48.000Z</time>
      </trkpt>
      <trkpt lat="46.02026" lon="6.52464">
        <ele>1765.8000488281</ele>
        <time>2019-10-13T12:23:50.000Z</time>
      </trkpt>
      <trkpt lat="46.02028" lon="6.52469">
        <ele>1766</ele>
        <time>2019-10-13T12:23:54.000Z</time>
      </trkpt>
      <trkpt lat="46.02028" lon="6.5247">
        <ele>1766.1999511719</ele>
        <time>2019-10-13T12:23:55.000Z</time>
      </trkpt>
      <trkpt lat="46.0203" lon="6.52472">
        <ele>1766.4000244141</ele>
        <time>2019-10-13T12:23:57.000Z</time>
      </trkpt>
      <trkpt lat="46.02034" lon="6.52475">
        <ele>1767.1999511719</ele>
        <time>2019-10-13T12:24:00.000Z</time>
      </trkpt>
      <trkpt lat="46.02035" lon="6.52475">
        <ele>1767.4000244141</ele>
        <time>2019-10-13T12:24:01.000Z</time>
      </trkpt>
      <trkpt lat="46.02036" lon="6.52475">
        <ele>1767.5999755859</ele>
        <time>2019-10-13T12:24:02.000Z</time>
      </trkpt>
      <trkpt lat="46.02037" lon="6.52475">
        <ele>1767.8000488281</ele>
        <time>2019-10-13T12:24:03.000Z</time>
      </trkpt>
      <trkpt lat="46.02041" lon="6.52473">
        <ele>1768.5999755859</ele>
        <time>2019-10-13T12:24:08.000Z</time>
      </trkpt>
      <trkpt lat="46.02041" lon="6.52473">
        <ele>1769</ele>
        <time>2019-10-13T12:24:09.000Z</time>
      </trkpt>
      <trkpt lat="46.02042" lon="6.52471">
        <ele>1770</ele>
        <time>2019-10-13T12:24:11.000Z</time>
      </trkpt>
      <trkpt lat="46.02042" lon="6.52472">
        <ele>1771</ele>
        <time>2019-10-13T12:24:15.000Z</time>
      </trkpt>
      <trkpt lat="46.02042" lon="6.52473">
        <ele>1771</ele>
        <time>2019-10-13T12:24:16.000Z</time>
      </trkpt>
      <trkpt lat="46.02043" lon="6.52474">
        <ele>1771.5999755859</ele>
        <time>2019-10-13T12:24:18.000Z</time>
      </trkpt>
      <trkpt lat="46.02043" lon="6.52476">
        <ele>1772.4000244141</ele>
        <time>2019-10-13T12:24:21.000Z</time>
      </trkpt>
      <trkpt lat="46.02046" lon="6.52475">
        <ele>1773.4000244141</ele>
        <time>2019-10-13T12:24:24.000Z</time>
      </trkpt>
      <trkpt lat="46.02051" lon="6.52475">
        <ele>1774.1999511719</ele>
        <time>2019-10-13T12:24:28.000Z</time>
      </trkpt>
      <trkpt lat="46.02051" lon="6.52475">
        <ele>1774.5999755859</ele>
        <time>2019-10-13T12:24:29.000Z</time>
      </trkpt>
      <trkpt lat="46.02052" lon="6.52477">
        <ele>1775.1999511719</ele>
        <time>2019-10-13T12:24:31.000Z</time>
      </trkpt>
      <trkpt lat="46.02053" lon="6.52478">
        <ele>1775.5999755859</ele>
        <time>2019-10-13T12:24:33.000Z</time>
      </trkpt>
      <trkpt lat="46.02054" lon="6.5248">
        <ele>1776</ele>
        <time>2019-10-13T12:24:36.000Z</time>
      </trkpt>
      <trkpt lat="46.02052" lon="6.52481">
        <ele>1776.4000244141</ele>
        <time>2019-10-13T12:24:39.000Z</time>
      </trkpt>
      <trkpt lat="46.0205" lon="6.5248">
        <ele>1776.4000244141</ele>
        <time>2019-10-13T12:24:45.000Z</time>
      </trkpt>
      <trkpt lat="46.0205" lon="6.5248">
        <ele>1776.4000244141</ele>
        <time>2019-10-13T12:24:46.000Z</time>
      </trkpt>
      <trkpt lat="46.02049" lon="6.52483">
        <ele>1776.1999511719</ele>
        <time>2019-10-13T12:24:49.000Z</time>
      </trkpt>
      <trkpt lat="46.02045" lon="6.52486">
        <ele>1776</ele>
        <time>2019-10-13T12:24:53.000Z</time>
      </trkpt>
      <trkpt lat="46.02044" lon="6.52481">
        <ele>1776.1999511719</ele>
        <time>2019-10-13T12:24:57.000Z</time>
      </trkpt>
      <trkpt lat="46.02041" lon="6.52477">
        <ele>1776.4000244141</ele>
        <time>2019-10-13T12:25:00.000Z</time>
      </trkpt>
      <trkpt lat="46.0204" lon="6.52477">
        <ele>1776.5999755859</ele>
        <time>2019-10-13T12:25:02.000Z</time>
      </trkpt>
      <trkpt lat="46.0204" lon="6.52477">
        <ele>1776.5999755859</ele>
        <time>2019-10-13T12:25:03.000Z</time>
      </trkpt>
      <trkpt lat="46.0204" lon="6.52477">
        <ele>1776.8000488281</ele>
        <time>2019-10-13T12:25:04.000Z</time>
      </trkpt>
      <trkpt lat="46.0204" lon="6.52477">
        <ele>1776.8000488281</ele>
        <time>2019-10-13T12:25:05.000Z</time>
      </trkpt>
      <trkpt lat="46.02041" lon="6.52477">
        <ele>1776.8000488281</ele>
        <time>2019-10-13T12:25:06.000Z</time>
      </trkpt>
      <trkpt lat="46.02045" lon="6.52476">
        <ele>1776.5999755859</ele>
        <time>2019-10-13T12:25:09.000Z</time>
      </trkpt>
      <trkpt lat="46.02053" lon="6.52477">
        <ele>1777</ele>
        <time>2019-10-13T12:25:13.000Z</time>
      </trkpt>
      <trkpt lat="46.02057" lon="6.52479">
        <ele>1777.1999511719</ele>
        <time>2019-10-13T12:25:16.000Z</time>
      </trkpt>
      <trkpt lat="46.02062" lon="6.52482">
        <ele>1777.5999755859</ele>
        <time>2019-10-13T12:25:19.000Z</time>
      </trkpt>
      <trkpt lat="46.02063" lon="6.52481">
        <ele>1777.8000488281</ele>
        <time>2019-10-13T12:25:21.000Z</time>
      </trkpt>
      <trkpt lat="46.02064" lon="6.52482">
        <ele>1778.1999511719</ele>
        <time>2019-10-13T12:25:23.000Z</time>
      </trkpt>
      <trkpt lat="46.02067" lon="6.52487">
        <ele>1778.8000488281</ele>
        <time>2019-10-13T12:25:28.000Z</time>
      </trkpt>
      <trkpt lat="46.02068" lon="6.52487">
        <ele>1779</ele>
        <time>2019-10-13T12:25:29.000Z</time>
      </trkpt>
      <trkpt lat="46.02069" lon="6.52487">
        <ele>1779.4000244141</ele>
        <time>2019-10-13T12:25:31.000Z</time>
      </trkpt>
      <trkpt lat="46.0207" lon="6.52488">
        <ele>1779.5999755859</ele>
        <time>2019-10-13T12:25:32.000Z</time>
      </trkpt>
      <trkpt lat="46.02071" lon="6.52488">
        <ele>1780</ele>
        <time>2019-10-13T12:25:34.000Z</time>
      </trkpt>
      <trkpt lat="46.02071" lon="6.52489">
        <ele>1780.1999511719</ele>
        <time>2019-10-13T12:25:35.000Z</time>
      </trkpt>
      <trkpt lat="46.02075" lon="6.52493">
        <ele>1780.8000488281</ele>
        <time>2019-10-13T12:25:39.000Z</time>
      </trkpt>
      <trkpt lat="46.02076" lon="6.52495">
        <ele>1781</ele>
        <time>2019-10-13T12:25:41.000Z</time>
      </trkpt>
      <trkpt lat="46.02077" lon="6.52495">
        <ele>1781</ele>
        <time>2019-10-13T12:25:42.000Z</time>
      </trkpt>
      <trkpt lat="46.02077" lon="6.52497">
        <ele>1781.4000244141</ele>
        <time>2019-10-13T12:25:44.000Z</time>
      </trkpt>
      <trkpt lat="46.02079" lon="6.52497">
        <ele>1782.4000244141</ele>
        <time>2019-10-13T12:25:48.000Z</time>
      </trkpt>
      <trkpt lat="46.0208" lon="6.52497">
        <ele>1782.8000488281</ele>
        <time>2019-10-13T12:25:49.000Z</time>
      </trkpt>
      <trkpt lat="46.02081" lon="6.52499">
        <ele>1783.5999755859</ele>
        <time>2019-10-13T12:25:52.000Z</time>
      </trkpt>
      <trkpt lat="46.02082" lon="6.52498">
        <ele>1783.8000488281</ele>
        <time>2019-10-13T12:25:53.000Z</time>
      </trkpt>
      <trkpt lat="46.02084" lon="6.525">
        <ele>1784.4000244141</ele>
        <time>2019-10-13T12:25:55.000Z</time>
      </trkpt>
      <trkpt lat="46.02085" lon="6.52501">
        <ele>1784.5999755859</ele>
        <time>2019-10-13T12:25:56.000Z</time>
      </trkpt>
      <trkpt lat="46.02086" lon="6.52502">
        <ele>1784.8000488281</ele>
        <time>2019-10-13T12:25:57.000Z</time>
      </trkpt>
      <trkpt lat="46.02093" lon="6.52507">
        <ele>1786</ele>
        <time>2019-10-13T12:26:01.000Z</time>
      </trkpt>
      <trkpt lat="46.02094" lon="6.52509">
        <ele>1786.4000244141</ele>
        <time>2019-10-13T12:26:02.000Z</time>
      </trkpt>
      <trkpt lat="46.02095" lon="6.5251">
        <ele>1786.5999755859</ele>
        <time>2019-10-13T12:26:04.000Z</time>
      </trkpt>
      <trkpt lat="46.02096" lon="6.52512">
        <ele>1787</ele>
        <time>2019-10-13T12:26:06.000Z</time>
      </trkpt>
      <trkpt lat="46.02098" lon="6.52513">
        <ele>1787.4000244141</ele>
        <time>2019-10-13T12:26:09.000Z</time>
      </trkpt>
      <trkpt lat="46.021" lon="6.52517">
        <ele>1787.5999755859</ele>
        <time>2019-10-13T12:26:12.000Z</time>
      </trkpt>
      <trkpt lat="46.02103" lon="6.52522">
        <ele>1787.5999755859</ele>
        <time>2019-10-13T12:26:15.000Z</time>
      </trkpt>
      <trkpt lat="46.02104" lon="6.52526">
        <ele>1788.4000244141</ele>
        <time>2019-10-13T12:26:18.000Z</time>
      </trkpt>
      <trkpt lat="46.02106" lon="6.52531">
        <ele>1789</ele>
        <time>2019-10-13T12:26:22.000Z</time>
      </trkpt>
      <trkpt lat="46.02106" lon="6.52533">
        <ele>1789.1999511719</ele>
        <time>2019-10-13T12:26:24.000Z</time>
      </trkpt>
      <trkpt lat="46.02107" lon="6.52534">
        <ele>1789.4000244141</ele>
        <time>2019-10-13T12:26:25.000Z</time>
      </trkpt>
      <trkpt lat="46.02107" lon="6.52534">
        <ele>1789.8000488281</ele>
        <time>2019-10-13T12:26:26.000Z</time>
      </trkpt>
      <trkpt lat="46.0211" lon="6.52537">
        <ele>1790.8000488281</ele>
        <time>2019-10-13T12:26:29.000Z</time>
      </trkpt>
      <trkpt lat="46.02115" lon="6.52541">
        <ele>1791.8000488281</ele>
        <time>2019-10-13T12:26:34.000Z</time>
      </trkpt>
      <trkpt lat="46.02117" lon="6.52542">
        <ele>1792.4000244141</ele>
        <time>2019-10-13T12:26:37.000Z</time>
      </trkpt>
      <trkpt lat="46.02117" lon="6.52542">
        <ele>1792.5999755859</ele>
        <time>2019-10-13T12:26:38.000Z</time>
      </trkpt>
      <trkpt lat="46.02117" lon="6.52543">
        <ele>1793</ele>
        <time>2019-10-13T12:26:41.000Z</time>
      </trkpt>
      <trkpt lat="46.02117" lon="6.52543">
        <ele>1793.1999511719</ele>
        <time>2019-10-13T12:26:42.000Z</time>
      </trkpt>
      <trkpt lat="46.02117" lon="6.52543">
        <ele>1793.4000244141</ele>
        <time>2019-10-13T12:26:43.000Z</time>
      </trkpt>
      <trkpt lat="46.02116" lon="6.52545">
        <ele>1794</ele>
        <time>2019-10-13T12:26:46.000Z</time>
      </trkpt>
      <trkpt lat="46.02114" lon="6.52545">
        <ele>1794.4000244141</ele>
        <time>2019-10-13T12:26:48.000Z</time>
      </trkpt>
      <trkpt lat="46.02113" lon="6.52545">
        <ele>1794.4000244141</ele>
        <time>2019-10-13T12:26:49.000Z</time>
      </trkpt>
      <trkpt lat="46.02114" lon="6.52537">
        <ele>1794.4000244141</ele>
        <time>2019-10-13T12:26:56.000Z</time>
      </trkpt>
      <trkpt lat="46.02116" lon="6.52537">
        <ele>1794.4000244141</ele>
        <time>2019-10-13T12:26:58.000Z</time>
      </trkpt>
      <trkpt lat="46.02123" lon="6.52537">
        <ele>1795</ele>
        <time>2019-10-13T12:27:02.000Z</time>
      </trkpt>
      <trkpt lat="46.02125" lon="6.52538">
        <ele>1795.4000244141</ele>
        <time>2019-10-13T12:27:03.000Z</time>
      </trkpt>
      <trkpt lat="46.02126" lon="6.52539">
        <ele>1795.5999755859</ele>
        <time>2019-10-13T12:27:04.000Z</time>
      </trkpt>
      <trkpt lat="46.02127" lon="6.5254">
        <ele>1795.8000488281</ele>
        <time>2019-10-13T12:27:05.000Z</time>
      </trkpt>
      <trkpt lat="46.0213" lon="6.52541">
        <ele>1796.4000244141</ele>
        <time>2019-10-13T12:27:07.000Z</time>
      </trkpt>
      <trkpt lat="46.02131" lon="6.52541">
        <ele>1796.8000488281</ele>
        <time>2019-10-13T12:27:08.000Z</time>
      </trkpt>
      <trkpt lat="46.02133" lon="6.52542">
        <ele>1797.1999511719</ele>
        <time>2019-10-13T12:27:10.000Z</time>
      </trkpt>
      <trkpt lat="46.02134" lon="6.52543">
        <ele>1797.5999755859</ele>
        <time>2019-10-13T12:27:12.000Z</time>
      </trkpt>
      <trkpt lat="46.02135" lon="6.52543">
        <ele>1797.8000488281</ele>
        <time>2019-10-13T12:27:13.000Z</time>
      </trkpt>
      <trkpt lat="46.02135" lon="6.52544">
        <ele>1798.4000244141</ele>
        <time>2019-10-13T12:27:16.000Z</time>
      </trkpt>
      <trkpt lat="46.02135" lon="6.52544">
        <ele>1798.4000244141</ele>
        <time>2019-10-13T12:27:17.000Z</time>
      </trkpt>
      <trkpt lat="46.02135" lon="6.52544">
        <ele>1798.5999755859</ele>
        <time>2019-10-13T12:27:18.000Z</time>
      </trkpt>
      <trkpt lat="46.02136" lon="6.52544">
        <ele>1798.8000488281</ele>
        <time>2019-10-13T12:27:20.000Z</time>
      </trkpt>
      <trkpt lat="46.02138" lon="6.52541">
        <ele>1799.4000244141</ele>
        <time>2019-10-13T12:27:24.000Z</time>
      </trkpt>
      <trkpt lat="46.02138" lon="6.52541">
        <ele>1799.5999755859</ele>
        <time>2019-10-13T12:27:25.000Z</time>
      </trkpt>
      <trkpt lat="46.02139" lon="6.5254">
        <ele>1800</ele>
        <time>2019-10-13T12:27:27.000Z</time>
      </trkpt>
      <trkpt lat="46.0214" lon="6.52541">
        <ele>1800.1999511719</ele>
        <time>2019-10-13T12:27:28.000Z</time>
      </trkpt>
      <trkpt lat="46.02142" lon="6.52542">
        <ele>1800.5999755859</ele>
        <time>2019-10-13T12:27:30.000Z</time>
      </trkpt>
      <trkpt lat="46.02143" lon="6.52543">
        <ele>1800.8000488281</ele>
        <time>2019-10-13T12:27:31.000Z</time>
      </trkpt>
      <trkpt lat="46.02143" lon="6.52542">
        <ele>1801</ele>
        <time>2019-10-13T12:27:32.000Z</time>
      </trkpt>
      <trkpt lat="46.0215" lon="6.52542">
        <ele>1802.4000244141</ele>
        <time>2019-10-13T12:27:38.000Z</time>
      </trkpt>
      <trkpt lat="46.02151" lon="6.52542">
        <ele>1803</ele>
        <time>2019-10-13T12:27:40.000Z</time>
      </trkpt>
      <trkpt lat="46.02152" lon="6.52542">
        <ele>1803.5999755859</ele>
        <time>2019-10-13T12:27:41.000Z</time>
      </trkpt>
      <trkpt lat="46.02155" lon="6.52546">
        <ele>1804.5999755859</ele>
        <time>2019-10-13T12:27:45.000Z</time>
      </trkpt>
      <trkpt lat="46.02155" lon="6.52549">
        <ele>1804.8000488281</ele>
        <time>2019-10-13T12:27:47.000Z</time>
      </trkpt>
      <trkpt lat="46.02159" lon="6.52562">
        <ele>1804.8000488281</ele>
        <time>2019-10-13T12:27:52.000Z</time>
      </trkpt>
      <trkpt lat="46.02169" lon="6.52582">
        <ele>1804.8000488281</ele>
        <time>2019-10-13T12:27:59.000Z</time>
      </trkpt>
      <trkpt lat="46.02171" lon="6.52587">
        <ele>1804.8000488281</ele>
        <time>2019-10-13T12:28:02.000Z</time>
      </trkpt>
      <trkpt lat="46.0217" lon="6.52591">
        <ele>1804.8000488281</ele>
        <time>2019-10-13T12:28:03.000Z</time>
      </trkpt>
      <trkpt lat="46.0217" lon="6.52595">
        <ele>1804.8000488281</ele>
        <time>2019-10-13T12:28:05.000Z</time>
      </trkpt>
      <trkpt lat="46.02171" lon="6.52587">
        <ele>1804.5999755859</ele>
        <time>2019-10-13T12:28:10.000Z</time>
      </trkpt>
      <trkpt lat="46.02173" lon="6.52586">
        <ele>1804.5999755859</ele>
        <time>2019-10-13T12:28:11.000Z</time>
      </trkpt>
      <trkpt lat="46.02177" lon="6.5259">
        <ele>1804.4000244141</ele>
        <time>2019-10-13T12:28:13.000Z</time>
      </trkpt>
      <trkpt lat="46.0217" lon="6.52569">
        <ele>1804.1999511719</ele>
        <time>2019-10-13T12:28:20.000Z</time>
      </trkpt>
      <trkpt lat="46.0217" lon="6.52566">
        <ele>1804.1999511719</ele>
        <time>2019-10-13T12:28:21.000Z</time>
      </trkpt>
      <trkpt lat="46.02166" lon="6.52545">
        <ele>1805.1999511719</ele>
        <time>2019-10-13T12:28:27.000Z</time>
      </trkpt>
      <trkpt lat="46.02168" lon="6.52547">
        <ele>1805.5999755859</ele>
        <time>2019-10-13T12:28:29.000Z</time>
      </trkpt>
      <trkpt lat="46.02171" lon="6.52548">
        <ele>1806.4000244141</ele>
        <time>2019-10-13T12:28:32.000Z</time>
      </trkpt>
      <trkpt lat="46.02172" lon="6.52548">
        <ele>1806.5999755859</ele>
        <time>2019-10-13T12:28:33.000Z</time>
      </trkpt>
      <trkpt lat="46.02173" lon="6.52548">
        <ele>1807</ele>
        <time>2019-10-13T12:28:35.000Z</time>
      </trkpt>
      <trkpt lat="46.02174" lon="6.52548">
        <ele>1807.1999511719</ele>
        <time>2019-10-13T12:28:36.000Z</time>
      </trkpt>
      <trkpt lat="46.02174" lon="6.52549">
        <ele>1807.8000488281</ele>
        <time>2019-10-13T12:28:37.000Z</time>
      </trkpt>
      <trkpt lat="46.02175" lon="6.52549">
        <ele>1808.5999755859</ele>
        <time>2019-10-13T12:28:40.000Z</time>
      </trkpt>
      <trkpt lat="46.02175" lon="6.52549">
        <ele>1809</ele>
        <time>2019-10-13T12:28:41.000Z</time>
      </trkpt>
      <trkpt lat="46.02176" lon="6.52549">
        <ele>1809.4000244141</ele>
        <time>2019-10-13T12:28:43.000Z</time>
      </trkpt>
      <trkpt lat="46.02177" lon="6.5255">
        <ele>1810</ele>
        <time>2019-10-13T12:28:45.000Z</time>
      </trkpt>
      <trkpt lat="46.02179" lon="6.52551">
        <ele>1810.8000488281</ele>
        <time>2019-10-13T12:28:47.000Z</time>
      </trkpt>
      <trkpt lat="46.02181" lon="6.52552">
        <ele>1811.1999511719</ele>
        <time>2019-10-13T12:28:48.000Z</time>
      </trkpt>
      <trkpt lat="46.02186" lon="6.52553">
        <ele>1811.8000488281</ele>
        <time>2019-10-13T12:28:51.000Z</time>
      </trkpt>
      <trkpt lat="46.02187" lon="6.52553">
        <ele>1812</ele>
        <time>2019-10-13T12:28:52.000Z</time>
      </trkpt>
      <trkpt lat="46.02188" lon="6.52553">
        <ele>1812.4000244141</ele>
        <time>2019-10-13T12:28:53.000Z</time>
      </trkpt>
      <trkpt lat="46.02189" lon="6.52553">
        <ele>1812.5999755859</ele>
        <time>2019-10-13T12:28:54.000Z</time>
      </trkpt>
      <trkpt lat="46.02192" lon="6.52556">
        <ele>1813.1999511719</ele>
        <time>2019-10-13T12:28:57.000Z</time>
      </trkpt>
      <trkpt lat="46.02192" lon="6.52558">
        <ele>1813.4000244141</ele>
        <time>2019-10-13T12:28:58.000Z</time>
      </trkpt>
      <trkpt lat="46.02194" lon="6.52558">
        <ele>1814</ele>
        <time>2019-10-13T12:29:01.000Z</time>
      </trkpt>
      <trkpt lat="46.02195" lon="6.52556">
        <ele>1814.5999755859</ele>
        <time>2019-10-13T12:29:05.000Z</time>
      </trkpt>
      <trkpt lat="46.02199" lon="6.52557">
        <ele>1816</ele>
        <time>2019-10-13T12:29:08.000Z</time>
      </trkpt>
      <trkpt lat="46.02201" lon="6.52556">
        <ele>1817</ele>
        <time>2019-10-13T12:29:11.000Z</time>
      </trkpt>
      <trkpt lat="46.02201" lon="6.52556">
        <ele>1817.4000244141</ele>
        <time>2019-10-13T12:29:12.000Z</time>
      </trkpt>
      <trkpt lat="46.02201" lon="6.52555">
        <ele>1817.8000488281</ele>
        <time>2019-10-13T12:29:13.000Z</time>
      </trkpt>
      <trkpt lat="46.02202" lon="6.52555">
        <ele>1818.1999511719</ele>
        <time>2019-10-13T12:29:16.000Z</time>
      </trkpt>
      <trkpt lat="46.022" lon="6.52552">
        <ele>1818.1999511719</ele>
        <time>2019-10-13T12:29:20.000Z</time>
      </trkpt>
      <trkpt lat="46.02198" lon="6.5255">
        <ele>1818</ele>
        <time>2019-10-13T12:29:27.000Z</time>
      </trkpt>
      <trkpt lat="46.02199" lon="6.52552">
        <ele>1818.1999511719</ele>
        <time>2019-10-13T12:29:31.000Z</time>
      </trkpt>
      <trkpt lat="46.02202" lon="6.52553">
        <ele>1818.4000244141</ele>
        <time>2019-10-13T12:29:34.000Z</time>
      </trkpt>
      <trkpt lat="46.02205" lon="6.52555">
        <ele>1818.5999755859</ele>
        <time>2019-10-13T12:29:44.000Z</time>
      </trkpt>
      <trkpt lat="46.02208" lon="6.52556">
        <ele>1819.1999511719</ele>
        <time>2019-10-13T12:29:48.000Z</time>
      </trkpt>
      <trkpt lat="46.02209" lon="6.52558">
        <ele>1820</ele>
        <time>2019-10-13T12:29:50.000Z</time>
      </trkpt>
      <trkpt lat="46.0221" lon="6.52558">
        <ele>1820.4000244141</ele>
        <time>2019-10-13T12:29:52.000Z</time>
      </trkpt>
      <trkpt lat="46.02213" lon="6.52558">
        <ele>1821.8000488281</ele>
        <time>2019-10-13T12:29:56.000Z</time>
      </trkpt>
      <trkpt lat="46.02214" lon="6.52555">
        <ele>1823.4000244141</ele>
        <time>2019-10-13T12:30:00.000Z</time>
      </trkpt>
      <trkpt lat="46.02215" lon="6.52554">
        <ele>1824</ele>
        <time>2019-10-13T12:30:01.000Z</time>
      </trkpt>
      <trkpt lat="46.02215" lon="6.52553">
        <ele>1824.5999755859</ele>
        <time>2019-10-13T12:30:02.000Z</time>
      </trkpt>
      <trkpt lat="46.02217" lon="6.5255">
        <ele>1825.8000488281</ele>
        <time>2019-10-13T12:30:06.000Z</time>
      </trkpt>
      <trkpt lat="46.0222" lon="6.52551">
        <ele>1826.1999511719</ele>
        <time>2019-10-13T12:30:08.000Z</time>
      </trkpt>
      <trkpt lat="46.02223" lon="6.52554">
        <ele>1827</ele>
        <time>2019-10-13T12:30:10.000Z</time>
      </trkpt>
      <trkpt lat="46.02226" lon="6.52556">
        <ele>1828.1999511719</ele>
        <time>2019-10-13T12:30:13.000Z</time>
      </trkpt>
      <trkpt lat="46.02227" lon="6.52557">
        <ele>1828.5999755859</ele>
        <time>2019-10-13T12:30:14.000Z</time>
      </trkpt>
      <trkpt lat="46.02228" lon="6.52557">
        <ele>1828.8000488281</ele>
        <time>2019-10-13T12:30:15.000Z</time>
      </trkpt>
      <trkpt lat="46.02232" lon="6.52557">
        <ele>1829.1999511719</ele>
        <time>2019-10-13T12:30:19.000Z</time>
      </trkpt>
      <trkpt lat="46.02233" lon="6.52557">
        <ele>1829.8000488281</ele>
        <time>2019-10-13T12:30:20.000Z</time>
      </trkpt>
      <trkpt lat="46.02234" lon="6.52558">
        <ele>1830</ele>
        <time>2019-10-13T12:30:21.000Z</time>
      </trkpt>
      <trkpt lat="46.02241" lon="6.52559">
        <ele>1830.8000488281</ele>
        <time>2019-10-13T12:30:26.000Z</time>
      </trkpt>
      <trkpt lat="46.02242" lon="6.5256">
        <ele>1830.8000488281</ele>
        <time>2019-10-13T12:30:27.000Z</time>
      </trkpt>
      <trkpt lat="46.02244" lon="6.52561">
        <ele>1831</ele>
        <time>2019-10-13T12:30:29.000Z</time>
      </trkpt>
      <trkpt lat="46.02245" lon="6.52562">
        <ele>1831.5999755859</ele>
        <time>2019-10-13T12:30:32.000Z</time>
      </trkpt>
      <trkpt lat="46.02245" lon="6.52562">
        <ele>1831.8000488281</ele>
        <time>2019-10-13T12:30:33.000Z</time>
      </trkpt>
      <trkpt lat="46.02247" lon="6.52563">
        <ele>1832</ele>
        <time>2019-10-13T12:30:35.000Z</time>
      </trkpt>
      <trkpt lat="46.02248" lon="6.52563">
        <ele>1832</ele>
        <time>2019-10-13T12:30:36.000Z</time>
      </trkpt>
      <trkpt lat="46.02249" lon="6.52564">
        <ele>1832.4000244141</ele>
        <time>2019-10-13T12:30:39.000Z</time>
      </trkpt>
      <trkpt lat="46.02251" lon="6.52565">
        <ele>1833</ele>
        <time>2019-10-13T12:30:42.000Z</time>
      </trkpt>
      <trkpt lat="46.02252" lon="6.52566">
        <ele>1833.1999511719</ele>
        <time>2019-10-13T12:30:43.000Z</time>
      </trkpt>
      <trkpt lat="46.02253" lon="6.52567">
        <ele>1833.5999755859</ele>
        <time>2019-10-13T12:30:44.000Z</time>
      </trkpt>
      <trkpt lat="46.02255" lon="6.52569">
        <ele>1834</ele>
        <time>2019-10-13T12:30:46.000Z</time>
      </trkpt>
      <trkpt lat="46.02256" lon="6.52571">
        <ele>1834</ele>
        <time>2019-10-13T12:30:47.000Z</time>
      </trkpt>
      <trkpt lat="46.0226" lon="6.52574">
        <ele>1834.4000244141</ele>
        <time>2019-10-13T12:30:50.000Z</time>
      </trkpt>
      <trkpt lat="46.02261" lon="6.52575">
        <ele>1834.4000244141</ele>
        <time>2019-10-13T12:30:51.000Z</time>
      </trkpt>
      <trkpt lat="46.02263" lon="6.52574">
        <ele>1834.8000488281</ele>
        <time>2019-10-13T12:30:53.000Z</time>
      </trkpt>
      <trkpt lat="46.02264" lon="6.52574">
        <ele>1835.1999511719</ele>
        <time>2019-10-13T12:30:55.000Z</time>
      </trkpt>
      <trkpt lat="46.02265" lon="6.52573">
        <ele>1835.4000244141</ele>
        <time>2019-10-13T12:30:56.000Z</time>
      </trkpt>
      <trkpt lat="46.02268" lon="6.52574">
        <ele>1835.1999511719</ele>
        <time>2019-10-13T12:31:02.000Z</time>
      </trkpt>
      <trkpt lat="46.02271" lon="6.5258">
        <ele>1835.5999755859</ele>
        <time>2019-10-13T12:31:10.000Z</time>
      </trkpt>
      <trkpt lat="46.02273" lon="6.52586">
        <ele>1835.8000488281</ele>
        <time>2019-10-13T12:31:15.000Z</time>
      </trkpt>
      <trkpt lat="46.02273" lon="6.52586">
        <ele>1836</ele>
        <time>2019-10-13T12:31:16.000Z</time>
      </trkpt>
      <trkpt lat="46.02273" lon="6.52587">
        <ele>1836.1999511719</ele>
        <time>2019-10-13T12:31:17.000Z</time>
      </trkpt>
      <trkpt lat="46.02274" lon="6.52597">
        <ele>1836.5999755859</ele>
        <time>2019-10-13T12:31:22.000Z</time>
      </trkpt>
      <trkpt lat="46.02273" lon="6.52604">
        <ele>1836.8000488281</ele>
        <time>2019-10-13T12:31:25.000Z</time>
      </trkpt>
      <trkpt lat="46.02276" lon="6.52606">
        <ele>1837</ele>
        <time>2019-10-13T12:31:29.000Z</time>
      </trkpt>
      <trkpt lat="46.02277" lon="6.52606">
        <ele>1837.1999511719</ele>
        <time>2019-10-13T12:31:30.000Z</time>
      </trkpt>
      <trkpt lat="46.02278" lon="6.52606">
        <ele>1837.4000244141</ele>
        <time>2019-10-13T12:31:31.000Z</time>
      </trkpt>
      <trkpt lat="46.02282" lon="6.52609">
        <ele>1838.5999755859</ele>
        <time>2019-10-13T12:31:35.000Z</time>
      </trkpt>
      <trkpt lat="46.02284" lon="6.5261">
        <ele>1838.8000488281</ele>
        <time>2019-10-13T12:31:36.000Z</time>
      </trkpt>
      <trkpt lat="46.02286" lon="6.52609">
        <ele>1839.1999511719</ele>
        <time>2019-10-13T12:31:38.000Z</time>
      </trkpt>
      <trkpt lat="46.02287" lon="6.52609">
        <ele>1839.4000244141</ele>
        <time>2019-10-13T12:31:39.000Z</time>
      </trkpt>
      <trkpt lat="46.02289" lon="6.52609">
        <ele>1839.8000488281</ele>
        <time>2019-10-13T12:31:41.000Z</time>
      </trkpt>
      <trkpt lat="46.02292" lon="6.52609">
        <ele>1840.1999511719</ele>
        <time>2019-10-13T12:31:43.000Z</time>
      </trkpt>
      <trkpt lat="46.02292" lon="6.5261">
        <ele>1840.5999755859</ele>
        <time>2019-10-13T12:31:45.000Z</time>
      </trkpt>
      <trkpt lat="46.02293" lon="6.5261">
        <ele>1841</ele>
        <time>2019-10-13T12:31:46.000Z</time>
      </trkpt>
      <trkpt lat="46.02293" lon="6.5261">
        <ele>1841.5999755859</ele>
        <time>2019-10-13T12:31:47.000Z</time>
      </trkpt>
      <trkpt lat="46.02294" lon="6.52609">
        <ele>1842</ele>
        <time>2019-10-13T12:31:48.000Z</time>
      </trkpt>
      <trkpt lat="46.02295" lon="6.52609">
        <ele>1842.8000488281</ele>
        <time>2019-10-13T12:31:50.000Z</time>
      </trkpt>
      <trkpt lat="46.02296" lon="6.52609">
        <ele>1843.1999511719</ele>
        <time>2019-10-13T12:31:51.000Z</time>
      </trkpt>
      <trkpt lat="46.02297" lon="6.52609">
        <ele>1844.1999511719</ele>
        <time>2019-10-13T12:31:53.000Z</time>
      </trkpt>
      <trkpt lat="46.02297" lon="6.5261">
        <ele>1844.5999755859</ele>
        <time>2019-10-13T12:31:54.000Z</time>
      </trkpt>
      <trkpt lat="46.02299" lon="6.52609">
        <ele>1845.4000244141</ele>
        <time>2019-10-13T12:31:56.000Z</time>
      </trkpt>
      <trkpt lat="46.02302" lon="6.52609">
        <ele>1846</ele>
        <time>2019-10-13T12:31:59.000Z</time>
      </trkpt>
      <trkpt lat="46.02304" lon="6.5261">
        <ele>1846.1999511719</ele>
        <time>2019-10-13T12:32:02.000Z</time>
      </trkpt>
      <trkpt lat="46.02305" lon="6.5261">
        <ele>1846.4000244141</ele>
        <time>2019-10-13T12:32:04.000Z</time>
      </trkpt>
      <trkpt lat="46.02306" lon="6.5261">
        <ele>1846.5999755859</ele>
        <time>2019-10-13T12:32:05.000Z</time>
      </trkpt>
      <trkpt lat="46.02309" lon="6.52611">
        <ele>1847.4000244141</ele>
        <time>2019-10-13T12:32:08.000Z</time>
      </trkpt>
      <trkpt lat="46.02309" lon="6.52612">
        <ele>1847.5999755859</ele>
        <time>2019-10-13T12:32:09.000Z</time>
      </trkpt>
      <trkpt lat="46.0231" lon="6.52612">
        <ele>1848</ele>
        <time>2019-10-13T12:32:11.000Z</time>
      </trkpt>
      <trkpt lat="46.02311" lon="6.52611">
        <ele>1848.1999511719</ele>
        <time>2019-10-13T12:32:12.000Z</time>
      </trkpt>
      <trkpt lat="46.02312" lon="6.52608">
        <ele>1848.8000488281</ele>
        <time>2019-10-13T12:32:14.000Z</time>
      </trkpt>
      <trkpt lat="46.02313" lon="6.52607">
        <ele>1849.4000244141</ele>
        <time>2019-10-13T12:32:15.000Z</time>
      </trkpt>
      <trkpt lat="46.02313" lon="6.52606">
        <ele>1850</ele>
        <time>2019-10-13T12:32:16.000Z</time>
      </trkpt>
      <trkpt lat="46.02314" lon="6.52606">
        <ele>1850.4000244141</ele>
        <time>2019-10-13T12:32:17.000Z</time>
      </trkpt>
      <trkpt lat="46.02315" lon="6.52605">
        <ele>1851.1999511719</ele>
        <time>2019-10-13T12:32:19.000Z</time>
      </trkpt>
      <trkpt lat="46.02316" lon="6.52605">
        <ele>1852</ele>
        <time>2019-10-13T12:32:21.000Z</time>
      </trkpt>
      <trkpt lat="46.02317" lon="6.52605">
        <ele>1852.1999511719</ele>
        <time>2019-10-13T12:32:22.000Z</time>
      </trkpt>
      <trkpt lat="46.02322" lon="6.52606">
        <ele>1853.5999755859</ele>
        <time>2019-10-13T12:32:26.000Z</time>
      </trkpt>
      <trkpt lat="46.02324" lon="6.52607">
        <ele>1853.8000488281</ele>
        <time>2019-10-13T12:32:27.000Z</time>
      </trkpt>
      <trkpt lat="46.02327" lon="6.52608">
        <ele>1854.5999755859</ele>
        <time>2019-10-13T12:32:29.000Z</time>
      </trkpt>
      <trkpt lat="46.02327" lon="6.52608">
        <ele>1855</ele>
        <time>2019-10-13T12:32:30.000Z</time>
      </trkpt>
      <trkpt lat="46.02328" lon="6.52609">
        <ele>1855.1999511719</ele>
        <time>2019-10-13T12:32:31.000Z</time>
      </trkpt>
      <trkpt lat="46.02329" lon="6.5261">
        <ele>1855.5999755859</ele>
        <time>2019-10-13T12:32:32.000Z</time>
      </trkpt>
      <trkpt lat="46.0233" lon="6.52611">
        <ele>1855.8000488281</ele>
        <time>2019-10-13T12:32:33.000Z</time>
      </trkpt>
      <trkpt lat="46.02332" lon="6.52612">
        <ele>1856</ele>
        <time>2019-10-13T12:32:34.000Z</time>
      </trkpt>
      <trkpt lat="46.02334" lon="6.52613">
        <ele>1856.4000244141</ele>
        <time>2019-10-13T12:32:36.000Z</time>
      </trkpt>
      <trkpt lat="46.02336" lon="6.52614">
        <ele>1856.8000488281</ele>
        <time>2019-10-13T12:32:38.000Z</time>
      </trkpt>
      <trkpt lat="46.02337" lon="6.52614">
        <ele>1856.8000488281</ele>
        <time>2019-10-13T12:32:39.000Z</time>
      </trkpt>
      <trkpt lat="46.02338" lon="6.52615">
        <ele>1857.1999511719</ele>
        <time>2019-10-13T12:32:40.000Z</time>
      </trkpt>
      <trkpt lat="46.02339" lon="6.52615">
        <ele>1857.1999511719</ele>
        <time>2019-10-13T12:32:41.000Z</time>
      </trkpt>
      <trkpt lat="46.0234" lon="6.52617">
        <ele>1857.4000244141</ele>
        <time>2019-10-13T12:32:43.000Z</time>
      </trkpt>
      <trkpt lat="46.02341" lon="6.52618">
        <ele>1857.4000244141</ele>
        <time>2019-10-13T12:32:44.000Z</time>
      </trkpt>
      <trkpt lat="46.02344" lon="6.52625">
        <ele>1858</ele>
        <time>2019-10-13T12:32:48.000Z</time>
      </trkpt>
      <trkpt lat="46.02341" lon="6.52626">
        <ele>1858</ele>
        <time>2019-10-13T12:32:54.000Z</time>
      </trkpt>
      <trkpt lat="46.02341" lon="6.52625">
        <ele>1858</ele>
        <time>2019-10-13T12:32:56.000Z</time>
      </trkpt>
      <trkpt lat="46.02341" lon="6.52625">
        <ele>1858</ele>
        <time>2019-10-13T12:32:57.000Z</time>
      </trkpt>
      <trkpt lat="46.02351" lon="6.5262">
        <ele>1858.1999511719</ele>
        <time>2019-10-13T12:33:04.000Z</time>
      </trkpt>
      <trkpt lat="46.02351" lon="6.52614">
        <ele>1858.1999511719</ele>
        <time>2019-10-13T12:33:06.000Z</time>
      </trkpt>
      <trkpt lat="46.02345" lon="6.52618">
        <ele>1858.5999755859</ele>
        <time>2019-10-13T12:33:12.000Z</time>
      </trkpt>
      <trkpt lat="46.02343" lon="6.52618">
        <ele>1858.5999755859</ele>
        <time>2019-10-13T12:33:13.000Z</time>
      </trkpt>
      <trkpt lat="46.02337" lon="6.5262">
        <ele>1858.4000244141</ele>
        <time>2019-10-13T12:33:16.000Z</time>
      </trkpt>
      <trkpt lat="46.02335" lon="6.5262">
        <ele>1858.1999511719</ele>
        <time>2019-10-13T12:33:17.000Z</time>
      </trkpt>
      <trkpt lat="46.02333" lon="6.5262">
        <ele>1858</ele>
        <time>2019-10-13T12:33:19.000Z</time>
      </trkpt>
      <trkpt lat="46.0233" lon="6.52618">
        <ele>1857.8000488281</ele>
        <time>2019-10-13T12:33:21.000Z</time>
      </trkpt>
      <trkpt lat="46.02329" lon="6.52617">
        <ele>1857.5999755859</ele>
        <time>2019-10-13T12:33:23.000Z</time>
      </trkpt>
      <trkpt lat="46.02328" lon="6.52616">
        <ele>1857.5999755859</ele>
        <time>2019-10-13T12:33:24.000Z</time>
      </trkpt>
      <trkpt lat="46.02329" lon="6.52616">
        <ele>1857.4000244141</ele>
        <time>2019-10-13T12:33:31.000Z</time>
      </trkpt>
      <trkpt lat="46.02329" lon="6.52616">
        <ele>1857.4000244141</ele>
        <time>2019-10-13T12:33:39.000Z</time>
      </trkpt>
      <trkpt lat="46.02328" lon="6.52613">
        <ele>1857.5999755859</ele>
        <time>2019-10-13T12:33:47.000Z</time>
      </trkpt>
      <trkpt lat="46.02328" lon="6.52613">
        <ele>1857.4000244141</ele>
        <time>2019-10-13T12:33:48.000Z</time>
      </trkpt>
      <trkpt lat="46.02329" lon="6.52612">
        <ele>1857.1999511719</ele>
        <time>2019-10-13T12:33:51.000Z</time>
      </trkpt>
      <trkpt lat="46.02327" lon="6.52617">
        <ele>1857.4000244141</ele>
        <time>2019-10-13T12:33:55.000Z</time>
      </trkpt>
      <trkpt lat="46.0233" lon="6.52618">
        <ele>1857.1999511719</ele>
        <time>2019-10-13T12:34:04.000Z</time>
      </trkpt>
      <trkpt lat="46.02328" lon="6.52618">
        <ele>1857.1999511719</ele>
        <time>2019-10-13T12:34:11.000Z</time>
      </trkpt>
      <trkpt lat="46.02334" lon="6.52616">
        <ele>1857.5999755859</ele>
        <time>2019-10-13T12:34:17.000Z</time>
      </trkpt>
      <trkpt lat="46.02341" lon="6.52618">
        <ele>1857.8000488281</ele>
        <time>2019-10-13T12:34:23.000Z</time>
      </trkpt>
      <trkpt lat="46.02343" lon="6.5262">
        <ele>1857.8000488281</ele>
        <time>2019-10-13T12:34:25.000Z</time>
      </trkpt>
      <trkpt lat="46.02348" lon="6.52622">
        <ele>1858.5999755859</ele>
        <time>2019-10-13T12:34:29.000Z</time>
      </trkpt>
      <trkpt lat="46.02352" lon="6.52626">
        <ele>1859</ele>
        <time>2019-10-13T12:34:33.000Z</time>
      </trkpt>
      <trkpt lat="46.02352" lon="6.52627">
        <ele>1859</ele>
        <time>2019-10-13T12:34:34.000Z</time>
      </trkpt>
      <trkpt lat="46.02355" lon="6.52627">
        <ele>1859.1999511719</ele>
        <time>2019-10-13T12:34:36.000Z</time>
      </trkpt>
      <trkpt lat="46.0236" lon="6.52629">
        <ele>1860.1999511719</ele>
        <time>2019-10-13T12:34:41.000Z</time>
      </trkpt>
      <trkpt lat="46.02363" lon="6.52633">
        <ele>1861.1999511719</ele>
        <time>2019-10-13T12:34:44.000Z</time>
      </trkpt>
      <trkpt lat="46.02364" lon="6.52635">
        <ele>1861.5999755859</ele>
        <time>2019-10-13T12:34:45.000Z</time>
      </trkpt>
      <trkpt lat="46.02366" lon="6.52636">
        <ele>1862.4000244141</ele>
        <time>2019-10-13T12:34:47.000Z</time>
      </trkpt>
      <trkpt lat="46.02368" lon="6.52637">
        <ele>1862.8000488281</ele>
        <time>2019-10-13T12:34:49.000Z</time>
      </trkpt>
      <trkpt lat="46.02369" lon="6.52637">
        <ele>1863.1999511719</ele>
        <time>2019-10-13T12:34:50.000Z</time>
      </trkpt>
      <trkpt lat="46.02371" lon="6.52638">
        <ele>1863.4000244141</ele>
        <time>2019-10-13T12:34:51.000Z</time>
      </trkpt>
      <trkpt lat="46.02373" lon="6.52641">
        <ele>1864</ele>
        <time>2019-10-13T12:34:53.000Z</time>
      </trkpt>
      <trkpt lat="46.02373" lon="6.52641">
        <ele>1864.4000244141</ele>
        <time>2019-10-13T12:34:54.000Z</time>
      </trkpt>
      <trkpt lat="46.02373" lon="6.52642">
        <ele>1864.8000488281</ele>
        <time>2019-10-13T12:34:55.000Z</time>
      </trkpt>
      <trkpt lat="46.02374" lon="6.52642">
        <ele>1865</ele>
        <time>2019-10-13T12:34:56.000Z</time>
      </trkpt>
      <trkpt lat="46.02374" lon="6.52642">
        <ele>1865.4000244141</ele>
        <time>2019-10-13T12:34:57.000Z</time>
      </trkpt>
      <trkpt lat="46.02375" lon="6.52642">
        <ele>1866</ele>
        <time>2019-10-13T12:34:59.000Z</time>
      </trkpt>
      <trkpt lat="46.02375" lon="6.52642">
        <ele>1866.1999511719</ele>
        <time>2019-10-13T12:35:00.000Z</time>
      </trkpt>
      <trkpt lat="46.02374" lon="6.52642">
        <ele>1866.5999755859</ele>
        <time>2019-10-13T12:35:01.000Z</time>
      </trkpt>
      <trkpt lat="46.02376" lon="6.52647">
        <ele>1867</ele>
        <time>2019-10-13T12:35:05.000Z</time>
      </trkpt>
      <trkpt lat="46.02377" lon="6.52649">
        <ele>1867.1999511719</ele>
        <time>2019-10-13T12:35:07.000Z</time>
      </trkpt>
      <trkpt lat="46.02377" lon="6.52652">
        <ele>1867.1999511719</ele>
        <time>2019-10-13T12:35:09.000Z</time>
      </trkpt>
      <trkpt lat="46.02378" lon="6.52656">
        <ele>1867.1999511719</ele>
        <time>2019-10-13T12:35:12.000Z</time>
      </trkpt>
      <trkpt lat="46.02379" lon="6.52658">
        <ele>1867.1999511719</ele>
        <time>2019-10-13T12:35:13.000Z</time>
      </trkpt>
      <trkpt lat="46.0238" lon="6.52659">
        <ele>1867.1999511719</ele>
        <time>2019-10-13T12:35:14.000Z</time>
      </trkpt>
      <trkpt lat="46.02382" lon="6.52661">
        <ele>1867.1999511719</ele>
        <time>2019-10-13T12:35:15.000Z</time>
      </trkpt>
      <trkpt lat="46.02382" lon="6.52661">
        <ele>1867.1999511719</ele>
        <time>2019-10-13T12:35:16.000Z</time>
      </trkpt>
      <trkpt lat="46.02383" lon="6.52661">
        <ele>1867.1999511719</ele>
        <time>2019-10-13T12:35:17.000Z</time>
      </trkpt>
      <trkpt lat="46.02383" lon="6.5266">
        <ele>1867.1999511719</ele>
        <time>2019-10-13T12:35:18.000Z</time>
      </trkpt>
      <trkpt lat="46.02382" lon="6.52658">
        <ele>1867</ele>
        <time>2019-10-13T12:35:20.000Z</time>
      </trkpt>
      <trkpt lat="46.02381" lon="6.52658">
        <ele>1867</ele>
        <time>2019-10-13T12:35:21.000Z</time>
      </trkpt>
      <trkpt lat="46.02381" lon="6.52658">
        <ele>1867</ele>
        <time>2019-10-13T12:35:22.000Z</time>
      </trkpt>
      <trkpt lat="46.02381" lon="6.52657">
        <ele>1867</ele>
        <time>2019-10-13T12:35:23.000Z</time>
      </trkpt>
      <trkpt lat="46.0238" lon="6.52657">
        <ele>1867</ele>
        <time>2019-10-13T12:35:24.000Z</time>
      </trkpt>
      <trkpt lat="46.0238" lon="6.52655">
        <ele>1867</ele>
        <time>2019-10-13T12:35:25.000Z</time>
      </trkpt>
      <trkpt lat="46.02378" lon="6.52648">
        <ele>1867</ele>
        <time>2019-10-13T12:35:28.000Z</time>
      </trkpt>
      <trkpt lat="46.02377" lon="6.52636">
        <ele>1866.5999755859</ele>
        <time>2019-10-13T12:35:33.000Z</time>
      </trkpt>
      <trkpt lat="46.02378" lon="6.52634">
        <ele>1868</ele>
        <time>2019-10-13T12:35:39.000Z</time>
      </trkpt>
      <trkpt lat="46.0238" lon="6.52632">
        <ele>1869.1999511719</ele>
        <time>2019-10-13T12:35:41.000Z</time>
      </trkpt>
      <trkpt lat="46.02381" lon="6.52631">
        <ele>1870.1999511719</ele>
        <time>2019-10-13T12:35:43.000Z</time>
      </trkpt>
      <trkpt lat="46.02382" lon="6.5263">
        <ele>1870.5999755859</ele>
        <time>2019-10-13T12:35:44.000Z</time>
      </trkpt>
      <trkpt lat="46.02383" lon="6.52629">
        <ele>1870.8000488281</ele>
        <time>2019-10-13T12:35:45.000Z</time>
      </trkpt>
      <trkpt lat="46.02385" lon="6.52627">
        <ele>1871.1999511719</ele>
        <time>2019-10-13T12:35:47.000Z</time>
      </trkpt>
      <trkpt lat="46.02385" lon="6.52626">
        <ele>1871.5999755859</ele>
        <time>2019-10-13T12:35:48.000Z</time>
      </trkpt>
      <trkpt lat="46.02387" lon="6.52624">
        <ele>1872.1999511719</ele>
        <time>2019-10-13T12:35:50.000Z</time>
      </trkpt>
      <trkpt lat="46.02388" lon="6.52624">
        <ele>1872.5999755859</ele>
        <time>2019-10-13T12:35:51.000Z</time>
      </trkpt>
      <trkpt lat="46.02389" lon="6.52623">
        <ele>1873</ele>
        <time>2019-10-13T12:35:53.000Z</time>
      </trkpt>
      <trkpt lat="46.0239" lon="6.52623">
        <ele>1873.8000488281</ele>
        <time>2019-10-13T12:35:55.000Z</time>
      </trkpt>
      <trkpt lat="46.02392" lon="6.52622">
        <ele>1874.4000244141</ele>
        <time>2019-10-13T12:35:58.000Z</time>
      </trkpt>
      <trkpt lat="46.02393" lon="6.52622">
        <ele>1875</ele>
        <time>2019-10-13T12:36:00.000Z</time>
      </trkpt>
      <trkpt lat="46.02395" lon="6.52623">
        <ele>1876.1999511719</ele>
        <time>2019-10-13T12:36:03.000Z</time>
      </trkpt>
      <trkpt lat="46.02396" lon="6.52625">
        <ele>1877</ele>
        <time>2019-10-13T12:36:05.000Z</time>
      </trkpt>
      <trkpt lat="46.02397" lon="6.52626">
        <ele>1877.4000244141</ele>
        <time>2019-10-13T12:36:06.000Z</time>
      </trkpt>
      <trkpt lat="46.024" lon="6.52629">
        <ele>1878.5999755859</ele>
        <time>2019-10-13T12:36:09.000Z</time>
      </trkpt>
      <trkpt lat="46.02402" lon="6.52631">
        <ele>1879.1999511719</ele>
        <time>2019-10-13T12:36:11.000Z</time>
      </trkpt>
      <trkpt lat="46.02403" lon="6.52632">
        <ele>1879.4000244141</ele>
        <time>2019-10-13T12:36:12.000Z</time>
      </trkpt>
      <trkpt lat="46.02404" lon="6.52632">
        <ele>1879.5999755859</ele>
        <time>2019-10-13T12:36:14.000Z</time>
      </trkpt>
      <trkpt lat="46.02405" lon="6.52633">
        <ele>1880.5999755859</ele>
        <time>2019-10-13T12:36:18.000Z</time>
      </trkpt>
      <trkpt lat="46.02405" lon="6.52633">
        <ele>1880.8000488281</ele>
        <time>2019-10-13T12:36:19.000Z</time>
      </trkpt>
      <trkpt lat="46.02406" lon="6.52634">
        <ele>1882.1999511719</ele>
        <time>2019-10-13T12:36:22.000Z</time>
      </trkpt>
      <trkpt lat="46.02406" lon="6.52634">
        <ele>1882.5999755859</ele>
        <time>2019-10-13T12:36:23.000Z</time>
      </trkpt>
      <trkpt lat="46.02405" lon="6.52634">
        <ele>1883.1999511719</ele>
        <time>2019-10-13T12:36:25.000Z</time>
      </trkpt>
      <trkpt lat="46.02405" lon="6.52635">
        <ele>1883.4000244141</ele>
        <time>2019-10-13T12:36:26.000Z</time>
      </trkpt>
      <trkpt lat="46.02405" lon="6.52636">
        <ele>1883.8000488281</ele>
        <time>2019-10-13T12:36:29.000Z</time>
      </trkpt>
      <trkpt lat="46.02404" lon="6.52637">
        <ele>1883.8000488281</ele>
        <time>2019-10-13T12:36:30.000Z</time>
      </trkpt>
      <trkpt lat="46.02404" lon="6.52637">
        <ele>1883.5999755859</ele>
        <time>2019-10-13T12:36:31.000Z</time>
      </trkpt>
      <trkpt lat="46.02404" lon="6.52636">
        <ele>1883.5999755859</ele>
        <time>2019-10-13T12:36:32.000Z</time>
      </trkpt>
      <trkpt lat="46.02404" lon="6.52636">
        <ele>1883.5999755859</ele>
        <time>2019-10-13T12:36:33.000Z</time>
      </trkpt>
      <trkpt lat="46.02405" lon="6.52633">
        <ele>1883.4000244141</ele>
        <time>2019-10-13T12:36:35.000Z</time>
      </trkpt>
      <trkpt lat="46.02405" lon="6.52633">
        <ele>1883.4000244141</ele>
        <time>2019-10-13T12:36:36.000Z</time>
      </trkpt>
      <trkpt lat="46.02405" lon="6.52635">
        <ele>1883.4000244141</ele>
        <time>2019-10-13T12:36:39.000Z</time>
      </trkpt>
      <trkpt lat="46.02405" lon="6.52637">
        <ele>1883.4000244141</ele>
        <time>2019-10-13T12:36:41.000Z</time>
      </trkpt>
      <trkpt lat="46.02403" lon="6.52643">
        <ele>1883.5999755859</ele>
        <time>2019-10-13T12:36:47.000Z</time>
      </trkpt>
      <trkpt lat="46.02402" lon="6.52642">
        <ele>1883.5999755859</ele>
        <time>2019-10-13T12:36:49.000Z</time>
      </trkpt>
      <trkpt lat="46.02401" lon="6.52641">
        <ele>1883.5999755859</ele>
        <time>2019-10-13T12:36:50.000Z</time>
      </trkpt>
      <trkpt lat="46.024" lon="6.52641">
        <ele>1883.5999755859</ele>
        <time>2019-10-13T12:36:51.000Z</time>
      </trkpt>
      <trkpt lat="46.02396" lon="6.52634">
        <ele>1883.4000244141</ele>
        <time>2019-10-13T12:36:56.000Z</time>
      </trkpt>
      <trkpt lat="46.02391" lon="6.52626">
        <ele>1883.1999511719</ele>
        <time>2019-10-13T12:37:02.000Z</time>
      </trkpt>
      <trkpt lat="46.02392" lon="6.52627">
        <ele>1882.8000488281</ele>
        <time>2019-10-13T12:37:07.000Z</time>
      </trkpt>
      <trkpt lat="46.02396" lon="6.5263">
        <ele>1882.5999755859</ele>
        <time>2019-10-13T12:37:10.000Z</time>
      </trkpt>
      <trkpt lat="46.02401" lon="6.52642">
        <ele>1882.4000244141</ele>
        <time>2019-10-13T12:37:22.000Z</time>
      </trkpt>
      <trkpt lat="46.02401" lon="6.5264">
        <ele>1882.4000244141</ele>
        <time>2019-10-13T12:37:26.000Z</time>
      </trkpt>
      <trkpt lat="46.02402" lon="6.52638">
        <ele>1882.5999755859</ele>
        <time>2019-10-13T12:37:29.000Z</time>
      </trkpt>
      <trkpt lat="46.02403" lon="6.52637">
        <ele>1882.8000488281</ele>
        <time>2019-10-13T12:37:32.000Z</time>
      </trkpt>
      <trkpt lat="46.02401" lon="6.52632">
        <ele>1882.4000244141</ele>
        <time>2019-10-13T12:37:42.000Z</time>
      </trkpt>
      <trkpt lat="46.02405" lon="6.5263">
        <ele>1882</ele>
        <time>2019-10-13T12:37:49.000Z</time>
      </trkpt>
      <trkpt lat="46.02406" lon="6.52627">
        <ele>1882.4000244141</ele>
        <time>2019-10-13T12:37:57.000Z</time>
      </trkpt>
      <trkpt lat="46.02403" lon="6.52633">
        <ele>1882.1999511719</ele>
        <time>2019-10-13T12:38:04.000Z</time>
      </trkpt>
      <trkpt lat="46.02403" lon="6.52632">
        <ele>1882</ele>
        <time>2019-10-13T12:38:05.000Z</time>
      </trkpt>
      <trkpt lat="46.02406" lon="6.52631">
        <ele>1882.4000244141</ele>
        <time>2019-10-13T12:38:13.000Z</time>
      </trkpt>
      <trkpt lat="46.02409" lon="6.52633">
        <ele>1882.8000488281</ele>
        <time>2019-10-13T12:38:21.000Z</time>
      </trkpt>
      <trkpt lat="46.02409" lon="6.52635">
        <ele>1882.5999755859</ele>
        <time>2019-10-13T12:38:23.000Z</time>
      </trkpt>
      <trkpt lat="46.02403" lon="6.52636">
        <ele>1882.4000244141</ele>
        <time>2019-10-13T12:38:31.000Z</time>
      </trkpt>
      <trkpt lat="46.02404" lon="6.52638">
        <ele>1882.5999755859</ele>
        <time>2019-10-13T12:38:39.000Z</time>
      </trkpt>
      <trkpt lat="46.02408" lon="6.52637">
        <ele>1882.4000244141</ele>
        <time>2019-10-13T12:38:47.000Z</time>
      </trkpt>
      <trkpt lat="46.0241" lon="6.52639">
        <ele>1882.4000244141</ele>
        <time>2019-10-13T12:38:56.000Z</time>
      </trkpt>
      <trkpt lat="46.02412" lon="6.52643">
        <ele>1883.4000244141</ele>
        <time>2019-10-13T12:38:59.000Z</time>
      </trkpt>
      <trkpt lat="46.02413" lon="6.52643">
        <ele>1883.8000488281</ele>
        <time>2019-10-13T12:39:02.000Z</time>
      </trkpt>
      <trkpt lat="46.02414" lon="6.52643">
        <ele>1884</ele>
        <time>2019-10-13T12:39:03.000Z</time>
      </trkpt>
      <trkpt lat="46.02415" lon="6.52643">
        <ele>1884.5999755859</ele>
        <time>2019-10-13T12:39:05.000Z</time>
      </trkpt>
      <trkpt lat="46.02416" lon="6.52644">
        <ele>1885.5999755859</ele>
        <time>2019-10-13T12:39:07.000Z</time>
      </trkpt>
      <trkpt lat="46.02416" lon="6.52644">
        <ele>1886</ele>
        <time>2019-10-13T12:39:09.000Z</time>
      </trkpt>
      <trkpt lat="46.0242" lon="6.52646">
        <ele>1886.8000488281</ele>
        <time>2019-10-13T12:39:14.000Z</time>
      </trkpt>
      <trkpt lat="46.02421" lon="6.52647">
        <ele>1888</ele>
        <time>2019-10-13T12:39:16.000Z</time>
      </trkpt>
      <trkpt lat="46.02423" lon="6.52648">
        <ele>1889</ele>
        <time>2019-10-13T12:39:20.000Z</time>
      </trkpt>
      <trkpt lat="46.02424" lon="6.5265">
        <ele>1889.4000244141</ele>
        <time>2019-10-13T12:39:21.000Z</time>
      </trkpt>
      <trkpt lat="46.02424" lon="6.5265">
        <ele>1889.8000488281</ele>
        <time>2019-10-13T12:39:22.000Z</time>
      </trkpt>
      <trkpt lat="46.02425" lon="6.52649">
        <ele>1890.5999755859</ele>
        <time>2019-10-13T12:39:26.000Z</time>
      </trkpt>
      <trkpt lat="46.02426" lon="6.52648">
        <ele>1891</ele>
        <time>2019-10-13T12:39:27.000Z</time>
      </trkpt>
      <trkpt lat="46.02428" lon="6.52648">
        <ele>1891.5999755859</ele>
        <time>2019-10-13T12:39:29.000Z</time>
      </trkpt>
      <trkpt lat="46.02429" lon="6.52648">
        <ele>1892.1999511719</ele>
        <time>2019-10-13T12:39:30.000Z</time>
      </trkpt>
      <trkpt lat="46.0243" lon="6.52647">
        <ele>1893.1999511719</ele>
        <time>2019-10-13T12:39:33.000Z</time>
      </trkpt>
      <trkpt lat="46.0243" lon="6.52646">
        <ele>1894.1999511719</ele>
        <time>2019-10-13T12:39:36.000Z</time>
      </trkpt>
      <trkpt lat="46.02429" lon="6.52647">
        <ele>1895.4000244141</ele>
        <time>2019-10-13T12:39:40.000Z</time>
      </trkpt>
      <trkpt lat="46.02431" lon="6.52646">
        <ele>1896.5999755859</ele>
        <time>2019-10-13T12:39:44.000Z</time>
      </trkpt>
      <trkpt lat="46.02434" lon="6.52648">
        <ele>1897.4000244141</ele>
        <time>2019-10-13T12:39:48.000Z</time>
      </trkpt>
      <trkpt lat="46.02435" lon="6.52649">
        <ele>1897.8000488281</ele>
        <time>2019-10-13T12:39:49.000Z</time>
      </trkpt>
      <trkpt lat="46.02437" lon="6.52652">
        <ele>1899</ele>
        <time>2019-10-13T12:39:52.000Z</time>
      </trkpt>
      <trkpt lat="46.02439" lon="6.52654">
        <ele>1899.8000488281</ele>
        <time>2019-10-13T12:39:54.000Z</time>
      </trkpt>
      <trkpt lat="46.0244" lon="6.52655">
        <ele>1900.1999511719</ele>
        <time>2019-10-13T12:39:55.000Z</time>
      </trkpt>
      <trkpt lat="46.02443" lon="6.52657">
        <ele>1901.1999511719</ele>
        <time>2019-10-13T12:39:59.000Z</time>
      </trkpt>
      <trkpt lat="46.02443" lon="6.52649">
        <ele>1902.5999755859</ele>
        <time>2019-10-13T12:40:05.000Z</time>
      </trkpt>
      <trkpt lat="46.02443" lon="6.52648">
        <ele>1902.8000488281</ele>
        <time>2019-10-13T12:40:06.000Z</time>
      </trkpt>
      <trkpt lat="46.02444" lon="6.52647">
        <ele>1903.8000488281</ele>
        <time>2019-10-13T12:40:10.000Z</time>
      </trkpt>
      <trkpt lat="46.02448" lon="6.52647">
        <ele>1904.5999755859</ele>
        <time>2019-10-13T12:40:13.000Z</time>
      </trkpt>
      <trkpt lat="46.02449" lon="6.52648">
        <ele>1904.8000488281</ele>
        <time>2019-10-13T12:40:14.000Z</time>
      </trkpt>
      <trkpt lat="46.02452" lon="6.52652">
        <ele>1905.8000488281</ele>
        <time>2019-10-13T12:40:19.000Z</time>
      </trkpt>
      <trkpt lat="46.02452" lon="6.52652">
        <ele>1906.1999511719</ele>
        <time>2019-10-13T12:40:20.000Z</time>
      </trkpt>
      <trkpt lat="46.0245" lon="6.52651">
        <ele>1907</ele>
        <time>2019-10-13T12:40:24.000Z</time>
      </trkpt>
      <trkpt lat="46.02448" lon="6.5265">
        <ele>1907.4000244141</ele>
        <time>2019-10-13T12:40:26.000Z</time>
      </trkpt>
      <trkpt lat="46.02445" lon="6.52647">
        <ele>1908</ele>
        <time>2019-10-13T12:40:31.000Z</time>
      </trkpt>
      <trkpt lat="46.02445" lon="6.52648">
        <ele>1908</ele>
        <time>2019-10-13T12:40:32.000Z</time>
      </trkpt>
      <trkpt lat="46.02445" lon="6.52648">
        <ele>1908</ele>
        <time>2019-10-13T12:40:33.000Z</time>
      </trkpt>
      <trkpt lat="46.02445" lon="6.52649">
        <ele>1907.8000488281</ele>
        <time>2019-10-13T12:40:34.000Z</time>
      </trkpt>
      <trkpt lat="46.02445" lon="6.52649">
        <ele>1907.8000488281</ele>
        <time>2019-10-13T12:40:35.000Z</time>
      </trkpt>
      <trkpt lat="46.02445" lon="6.52651">
        <ele>1907.8000488281</ele>
        <time>2019-10-13T12:40:37.000Z</time>
      </trkpt>
      <trkpt lat="46.02447" lon="6.52655">
        <ele>1908</ele>
        <time>2019-10-13T12:40:44.000Z</time>
      </trkpt>
      <trkpt lat="46.02447" lon="6.52655">
        <ele>1908.4000244141</ele>
        <time>2019-10-13T12:40:45.000Z</time>
      </trkpt>
      <trkpt lat="46.0245" lon="6.52655">
        <ele>1909.1999511719</ele>
        <time>2019-10-13T12:40:48.000Z</time>
      </trkpt>
      <trkpt lat="46.02452" lon="6.52657">
        <ele>1910.4000244141</ele>
        <time>2019-10-13T12:40:52.000Z</time>
      </trkpt>
      <trkpt lat="46.02456" lon="6.5266">
        <ele>1911.1999511719</ele>
        <time>2019-10-13T12:40:56.000Z</time>
      </trkpt>
      <trkpt lat="46.02457" lon="6.52661">
        <ele>1911.5999755859</ele>
        <time>2019-10-13T12:40:57.000Z</time>
      </trkpt>
      <trkpt lat="46.02458" lon="6.52661">
        <ele>1911.8000488281</ele>
        <time>2019-10-13T12:40:58.000Z</time>
      </trkpt>
      <trkpt lat="46.02461" lon="6.52662">
        <ele>1912.5999755859</ele>
        <time>2019-10-13T12:41:01.000Z</time>
      </trkpt>
      <trkpt lat="46.02461" lon="6.52662">
        <ele>1912.8000488281</ele>
        <time>2019-10-13T12:41:02.000Z</time>
      </trkpt>
      <trkpt lat="46.02463" lon="6.52662">
        <ele>1913.1999511719</ele>
        <time>2019-10-13T12:41:05.000Z</time>
      </trkpt>
      <trkpt lat="46.02462" lon="6.52663">
        <ele>1913.1999511719</ele>
        <time>2019-10-13T12:41:06.000Z</time>
      </trkpt>
      <trkpt lat="46.02462" lon="6.52662">
        <ele>1913.8000488281</ele>
        <time>2019-10-13T12:41:09.000Z</time>
      </trkpt>
      <trkpt lat="46.02463" lon="6.52662">
        <ele>1914</ele>
        <time>2019-10-13T12:41:10.000Z</time>
      </trkpt>
      <trkpt lat="46.02464" lon="6.52663">
        <ele>1914.4000244141</ele>
        <time>2019-10-13T12:41:11.000Z</time>
      </trkpt>
      <trkpt lat="46.02465" lon="6.52663">
        <ele>1914.5999755859</ele>
        <time>2019-10-13T12:41:12.000Z</time>
      </trkpt>
      <trkpt lat="46.02466" lon="6.52664">
        <ele>1915</ele>
        <time>2019-10-13T12:41:13.000Z</time>
      </trkpt>
      <trkpt lat="46.02467" lon="6.52663">
        <ele>1915.5999755859</ele>
        <time>2019-10-13T12:41:15.000Z</time>
      </trkpt>
      <trkpt lat="46.02468" lon="6.52663">
        <ele>1916.1999511719</ele>
        <time>2019-10-13T12:41:17.000Z</time>
      </trkpt>
      <trkpt lat="46.02468" lon="6.52664">
        <ele>1916.4000244141</ele>
        <time>2019-10-13T12:41:18.000Z</time>
      </trkpt>
      <trkpt lat="46.02468" lon="6.52664">
        <ele>1917.4000244141</ele>
        <time>2019-10-13T12:41:22.000Z</time>
      </trkpt>
      <trkpt lat="46.02468" lon="6.52664">
        <ele>1917.5999755859</ele>
        <time>2019-10-13T12:41:23.000Z</time>
      </trkpt>
      <trkpt lat="46.02468" lon="6.52664">
        <ele>1917.8000488281</ele>
        <time>2019-10-13T12:41:24.000Z</time>
      </trkpt>
      <trkpt lat="46.02468" lon="6.52665">
        <ele>1918.4000244141</ele>
        <time>2019-10-13T12:41:25.000Z</time>
      </trkpt>
      <trkpt lat="46.02468" lon="6.52666">
        <ele>1919</ele>
        <time>2019-10-13T12:41:26.000Z</time>
      </trkpt>
      <trkpt lat="46.02468" lon="6.52667">
        <ele>1919.5999755859</ele>
        <time>2019-10-13T12:41:27.000Z</time>
      </trkpt>
      <trkpt lat="46.02469" lon="6.52668">
        <ele>1920</ele>
        <time>2019-10-13T12:41:29.000Z</time>
      </trkpt>
      <trkpt lat="46.02471" lon="6.5267">
        <ele>1920.5999755859</ele>
        <time>2019-10-13T12:41:31.000Z</time>
      </trkpt>
      <trkpt lat="46.02471" lon="6.52671">
        <ele>1920.8000488281</ele>
        <time>2019-10-13T12:41:32.000Z</time>
      </trkpt>
      <trkpt lat="46.02472" lon="6.52672">
        <ele>1921</ele>
        <time>2019-10-13T12:41:33.000Z</time>
      </trkpt>
      <trkpt lat="46.02472" lon="6.52672">
        <ele>1921.4000244141</ele>
        <time>2019-10-13T12:41:34.000Z</time>
      </trkpt>
      <trkpt lat="46.02473" lon="6.52673">
        <ele>1922.1999511719</ele>
        <time>2019-10-13T12:41:36.000Z</time>
      </trkpt>
      <trkpt lat="46.02474" lon="6.52674">
        <ele>1923</ele>
        <time>2019-10-13T12:41:38.000Z</time>
      </trkpt>
      <trkpt lat="46.02474" lon="6.52675">
        <ele>1923.1999511719</ele>
        <time>2019-10-13T12:41:40.000Z</time>
      </trkpt>
      <trkpt lat="46.02475" lon="6.52676">
        <ele>1923.4000244141</ele>
        <time>2019-10-13T12:41:41.000Z</time>
      </trkpt>
      <trkpt lat="46.02475" lon="6.52676">
        <ele>1924.4000244141</ele>
        <time>2019-10-13T12:41:44.000Z</time>
      </trkpt>
      <trkpt lat="46.02475" lon="6.52676">
        <ele>1924.8000488281</ele>
        <time>2019-10-13T12:41:45.000Z</time>
      </trkpt>
      <trkpt lat="46.02476" lon="6.52676">
        <ele>1925.4000244141</ele>
        <time>2019-10-13T12:41:49.000Z</time>
      </trkpt>
      <trkpt lat="46.02478" lon="6.52676">
        <ele>1926</ele>
        <time>2019-10-13T12:41:54.000Z</time>
      </trkpt>
      <trkpt lat="46.02481" lon="6.52679">
        <ele>1926.5999755859</ele>
        <time>2019-10-13T12:42:00.000Z</time>
      </trkpt>
      <trkpt lat="46.02482" lon="6.52681">
        <ele>1927</ele>
        <time>2019-10-13T12:42:01.000Z</time>
      </trkpt>
      <trkpt lat="46.02483" lon="6.52683">
        <ele>1927.5999755859</ele>
        <time>2019-10-13T12:42:03.000Z</time>
      </trkpt>
      <trkpt lat="46.02485" lon="6.52689">
        <ele>1928.1999511719</ele>
        <time>2019-10-13T12:42:07.000Z</time>
      </trkpt>
      <trkpt lat="46.02486" lon="6.5269">
        <ele>1928.4000244141</ele>
        <time>2019-10-13T12:42:08.000Z</time>
      </trkpt>
      <trkpt lat="46.02486" lon="6.5269">
        <ele>1928.5999755859</ele>
        <time>2019-10-13T12:42:09.000Z</time>
      </trkpt>
      <trkpt lat="46.02486" lon="6.5269">
        <ele>1928.5999755859</ele>
        <time>2019-10-13T12:42:10.000Z</time>
      </trkpt>
      <trkpt lat="46.02486" lon="6.52691">
        <ele>1928.5999755859</ele>
        <time>2019-10-13T12:42:11.000Z</time>
      </trkpt>
      <trkpt lat="46.02486" lon="6.52693">
        <ele>1928.8000488281</ele>
        <time>2019-10-13T12:42:13.000Z</time>
      </trkpt>
      <trkpt lat="46.02487" lon="6.52699">
        <ele>1929.8000488281</ele>
        <time>2019-10-13T12:42:17.000Z</time>
      </trkpt>
      <trkpt lat="46.02488" lon="6.52703">
        <ele>1930.4000244141</ele>
        <time>2019-10-13T12:42:19.000Z</time>
      </trkpt>
      <trkpt lat="46.02489" lon="6.52704">
        <ele>1930.4000244141</ele>
        <time>2019-10-13T12:42:20.000Z</time>
      </trkpt>
      <trkpt lat="46.02489" lon="6.52706">
        <ele>1930.5999755859</ele>
        <time>2019-10-13T12:42:21.000Z</time>
      </trkpt>
      <trkpt lat="46.0249" lon="6.52711">
        <ele>1931</ele>
        <time>2019-10-13T12:42:24.000Z</time>
      </trkpt>
      <trkpt lat="46.02492" lon="6.52713">
        <ele>1931.5999755859</ele>
        <time>2019-10-13T12:42:28.000Z</time>
      </trkpt>
      <trkpt lat="46.02493" lon="6.52714">
        <ele>1931.8000488281</ele>
        <time>2019-10-13T12:42:29.000Z</time>
      </trkpt>
      <trkpt lat="46.02493" lon="6.52714">
        <ele>1932.1999511719</ele>
        <time>2019-10-13T12:42:30.000Z</time>
      </trkpt>
      <trkpt lat="46.02494" lon="6.52715">
        <ele>1932.5999755859</ele>
        <time>2019-10-13T12:42:31.000Z</time>
      </trkpt>
      <trkpt lat="46.02495" lon="6.52717">
        <ele>1933.1999511719</ele>
        <time>2019-10-13T12:42:34.000Z</time>
      </trkpt>
      <trkpt lat="46.02495" lon="6.52718">
        <ele>1933.4000244141</ele>
        <time>2019-10-13T12:42:35.000Z</time>
      </trkpt>
      <trkpt lat="46.02495" lon="6.52719">
        <ele>1933.5999755859</ele>
        <time>2019-10-13T12:42:36.000Z</time>
      </trkpt>
      <trkpt lat="46.02495" lon="6.52721">
        <ele>1934.1999511719</ele>
        <time>2019-10-13T12:42:39.000Z</time>
      </trkpt>
      <trkpt lat="46.02495" lon="6.52722">
        <ele>1934.4000244141</ele>
        <time>2019-10-13T12:42:40.000Z</time>
      </trkpt>
      <trkpt lat="46.02496" lon="6.52726">
        <ele>1935.4000244141</ele>
        <time>2019-10-13T12:42:43.000Z</time>
      </trkpt>
      <trkpt lat="46.02498" lon="6.5273">
        <ele>1936</ele>
        <time>2019-10-13T12:42:47.000Z</time>
      </trkpt>
      <trkpt lat="46.02499" lon="6.5273">
        <ele>1936.1999511719</ele>
        <time>2019-10-13T12:42:48.000Z</time>
      </trkpt>
      <trkpt lat="46.02499" lon="6.5273">
        <ele>1936.4000244141</ele>
        <time>2019-10-13T12:42:49.000Z</time>
      </trkpt>
      <trkpt lat="46.025" lon="6.52731">
        <ele>1936.5999755859</ele>
        <time>2019-10-13T12:42:51.000Z</time>
      </trkpt>
      <trkpt lat="46.02501" lon="6.52731">
        <ele>1937</ele>
        <time>2019-10-13T12:42:54.000Z</time>
      </trkpt>
      <trkpt lat="46.02502" lon="6.52731">
        <ele>1937.1999511719</ele>
        <time>2019-10-13T12:42:55.000Z</time>
      </trkpt>
      <trkpt lat="46.02503" lon="6.52733">
        <ele>1937.5999755859</ele>
        <time>2019-10-13T12:42:57.000Z</time>
      </trkpt>
      <trkpt lat="46.02505" lon="6.52735">
        <ele>1938</ele>
        <time>2019-10-13T12:43:00.000Z</time>
      </trkpt>
      <trkpt lat="46.02506" lon="6.52736">
        <ele>1938</ele>
        <time>2019-10-13T12:43:01.000Z</time>
      </trkpt>
      <trkpt lat="46.02507" lon="6.52737">
        <ele>1938.1999511719</ele>
        <time>2019-10-13T12:43:02.000Z</time>
      </trkpt>
      <trkpt lat="46.02508" lon="6.5274">
        <ele>1938.5999755859</ele>
        <time>2019-10-13T12:43:05.000Z</time>
      </trkpt>
      <trkpt lat="46.02506" lon="6.52742">
        <ele>1938.8000488281</ele>
        <time>2019-10-13T12:43:08.000Z</time>
      </trkpt>
      <trkpt lat="46.02509" lon="6.52748">
        <ele>1939.4000244141</ele>
        <time>2019-10-13T12:43:15.000Z</time>
      </trkpt>
      <trkpt lat="46.02508" lon="6.52749">
        <ele>1939.5999755859</ele>
        <time>2019-10-13T12:43:16.000Z</time>
      </trkpt>
      <trkpt lat="46.02507" lon="6.52747">
        <ele>1940</ele>
        <time>2019-10-13T12:43:23.000Z</time>
      </trkpt>
      <trkpt lat="46.02507" lon="6.52749">
        <ele>1939.4000244141</ele>
        <time>2019-10-13T12:43:34.000Z</time>
      </trkpt>
      <trkpt lat="46.02502" lon="6.52751">
        <ele>1939.1999511719</ele>
        <time>2019-10-13T12:43:43.000Z</time>
      </trkpt>
      <trkpt lat="46.02505" lon="6.52757">
        <ele>1939.5999755859</ele>
        <time>2019-10-13T12:43:48.000Z</time>
      </trkpt>
      <trkpt lat="46.02505" lon="6.52758">
        <ele>1940</ele>
        <time>2019-10-13T12:43:49.000Z</time>
      </trkpt>
      <trkpt lat="46.02506" lon="6.52757">
        <ele>1940.8000488281</ele>
        <time>2019-10-13T12:43:52.000Z</time>
      </trkpt>
      <trkpt lat="46.02507" lon="6.52756">
        <ele>1941.5999755859</ele>
        <time>2019-10-13T12:43:55.000Z</time>
      </trkpt>
      <trkpt lat="46.02507" lon="6.52755">
        <ele>1941.8000488281</ele>
        <time>2019-10-13T12:43:56.000Z</time>
      </trkpt>
      <trkpt lat="46.02509" lon="6.52759">
        <ele>1943</ele>
        <time>2019-10-13T12:44:00.000Z</time>
      </trkpt>
      <trkpt lat="46.0251" lon="6.52759">
        <ele>1943.8000488281</ele>
        <time>2019-10-13T12:44:02.000Z</time>
      </trkpt>
      <trkpt lat="46.0251" lon="6.52759">
        <ele>1944</ele>
        <time>2019-10-13T12:44:03.000Z</time>
      </trkpt>
      <trkpt lat="46.02513" lon="6.5276">
        <ele>1945.1999511719</ele>
        <time>2019-10-13T12:44:07.000Z</time>
      </trkpt>
      <trkpt lat="46.02513" lon="6.52761">
        <ele>1945.5999755859</ele>
        <time>2019-10-13T12:44:08.000Z</time>
      </trkpt>
      <trkpt lat="46.02513" lon="6.52762">
        <ele>1946.1999511719</ele>
        <time>2019-10-13T12:44:10.000Z</time>
      </trkpt>
      <trkpt lat="46.02513" lon="6.52761">
        <ele>1947</ele>
        <time>2019-10-13T12:44:14.000Z</time>
      </trkpt>
      <trkpt lat="46.02513" lon="6.52761">
        <ele>1947.1999511719</ele>
        <time>2019-10-13T12:44:16.000Z</time>
      </trkpt>
      <trkpt lat="46.02513" lon="6.52763">
        <ele>1947.4000244141</ele>
        <time>2019-10-13T12:44:17.000Z</time>
      </trkpt>
      <trkpt lat="46.02513" lon="6.52763">
        <ele>1948.1999511719</ele>
        <time>2019-10-13T12:44:19.000Z</time>
      </trkpt>
      <trkpt lat="46.02513" lon="6.52763">
        <ele>1948.4000244141</ele>
        <time>2019-10-13T12:44:20.000Z</time>
      </trkpt>
      <trkpt lat="46.02514" lon="6.52764">
        <ele>1949.1999511719</ele>
        <time>2019-10-13T12:44:22.000Z</time>
      </trkpt>
      <trkpt lat="46.02515" lon="6.52764">
        <ele>1949.8000488281</ele>
        <time>2019-10-13T12:44:23.000Z</time>
      </trkpt>
      <trkpt lat="46.02516" lon="6.52765">
        <ele>1951</ele>
        <time>2019-10-13T12:44:26.000Z</time>
      </trkpt>
      <trkpt lat="46.02518" lon="6.52768">
        <ele>1952.1999511719</ele>
        <time>2019-10-13T12:44:32.000Z</time>
      </trkpt>
      <trkpt lat="46.02521" lon="6.52776">
        <ele>1953</ele>
        <time>2019-10-13T12:44:39.000Z</time>
      </trkpt>
      <trkpt lat="46.0252" lon="6.52778">
        <ele>1953.1999511719</ele>
        <time>2019-10-13T12:44:41.000Z</time>
      </trkpt>
      <trkpt lat="46.02519" lon="6.52779">
        <ele>1953.1999511719</ele>
        <time>2019-10-13T12:44:44.000Z</time>
      </trkpt>
      <trkpt lat="46.02518" lon="6.52778">
        <ele>1953.4000244141</ele>
        <time>2019-10-13T12:44:46.000Z</time>
      </trkpt>
      <trkpt lat="46.02518" lon="6.52778">
        <ele>1953.5999755859</ele>
        <time>2019-10-13T12:44:48.000Z</time>
      </trkpt>
      <trkpt lat="46.0252" lon="6.52773">
        <ele>1954.5999755859</ele>
        <time>2019-10-13T12:44:52.000Z</time>
      </trkpt>
      <trkpt lat="46.02522" lon="6.5277">
        <ele>1955.8000488281</ele>
        <time>2019-10-13T12:44:55.000Z</time>
      </trkpt>
      <trkpt lat="46.02523" lon="6.52768">
        <ele>1956</ele>
        <time>2019-10-13T12:44:56.000Z</time>
      </trkpt>
      <trkpt lat="46.02523" lon="6.52764">
        <ele>1957</ele>
        <time>2019-10-13T12:45:00.000Z</time>
      </trkpt>
      <trkpt lat="46.02524" lon="6.52762">
        <ele>1958.1999511719</ele>
        <time>2019-10-13T12:45:04.000Z</time>
      </trkpt>
      <trkpt lat="46.02526" lon="6.52763">
        <ele>1959</ele>
        <time>2019-10-13T12:45:07.000Z</time>
      </trkpt>
      <trkpt lat="46.02526" lon="6.52764">
        <ele>1959.1999511719</ele>
        <time>2019-10-13T12:45:08.000Z</time>
      </trkpt>
      <trkpt lat="46.02527" lon="6.52764">
        <ele>1960.4000244141</ele>
        <time>2019-10-13T12:45:11.000Z</time>
      </trkpt>
      <trkpt lat="46.02527" lon="6.52765">
        <ele>1960.8000488281</ele>
        <time>2019-10-13T12:45:12.000Z</time>
      </trkpt>
      <trkpt lat="46.02525" lon="6.52759">
        <ele>1961.1999511719</ele>
        <time>2019-10-13T12:45:20.000Z</time>
      </trkpt>
      <trkpt lat="46.02524" lon="6.52767">
        <ele>1961</ele>
        <time>2019-10-13T12:45:29.000Z</time>
      </trkpt>
      <trkpt lat="46.02523" lon="6.5277">
        <ele>1961.5999755859</ele>
        <time>2019-10-13T12:45:31.000Z</time>
      </trkpt>
      <trkpt lat="46.0252" lon="6.52775">
        <ele>1961.8000488281</ele>
        <time>2019-10-13T12:45:35.000Z</time>
      </trkpt>
      <trkpt lat="46.02517" lon="6.52775">
        <ele>1961.5999755859</ele>
        <time>2019-10-13T12:45:38.000Z</time>
      </trkpt>
      <trkpt lat="46.02509" lon="6.52777">
        <ele>1961.1999511719</ele>
        <time>2019-10-13T12:45:54.000Z</time>
      </trkpt>
      <trkpt lat="46.02508" lon="6.52776">
        <ele>1961.1999511719</ele>
        <time>2019-10-13T12:45:58.000Z</time>
      </trkpt>
      <trkpt lat="46.02508" lon="6.52776">
        <ele>1961.1999511719</ele>
        <time>2019-10-13T12:45:59.000Z</time>
      </trkpt>
      <trkpt lat="46.02509" lon="6.52777">
        <ele>1961</ele>
        <time>2019-10-13T12:46:08.000Z</time>
      </trkpt>
      <trkpt lat="46.0251" lon="6.52777">
        <ele>1961.1999511719</ele>
        <time>2019-10-13T12:46:10.000Z</time>
      </trkpt>
      <trkpt lat="46.0251" lon="6.52777">
        <ele>1961.4000244141</ele>
        <time>2019-10-13T12:46:12.000Z</time>
      </trkpt>
      <trkpt lat="46.0251" lon="6.52776">
        <ele>1961.4000244141</ele>
        <time>2019-10-13T12:46:13.000Z</time>
      </trkpt>
      <trkpt lat="46.02509" lon="6.52775">
        <ele>1961.4000244141</ele>
        <time>2019-10-13T12:46:16.000Z</time>
      </trkpt>
      <trkpt lat="46.02511" lon="6.52775">
        <ele>1961.4000244141</ele>
        <time>2019-10-13T12:46:24.000Z</time>
      </trkpt>
      <trkpt lat="46.02513" lon="6.52776">
        <ele>1961.1999511719</ele>
        <time>2019-10-13T12:46:28.000Z</time>
      </trkpt>
      <trkpt lat="46.0252" lon="6.52772">
        <ele>1960.8000488281</ele>
        <time>2019-10-13T12:46:35.000Z</time>
      </trkpt>
      <trkpt lat="46.02523" lon="6.52773">
        <ele>1961</ele>
        <time>2019-10-13T12:46:43.000Z</time>
      </trkpt>
      <trkpt lat="46.02528" lon="6.52772">
        <ele>1960.8000488281</ele>
        <time>2019-10-13T12:46:51.000Z</time>
      </trkpt>
      <trkpt lat="46.02528" lon="6.5277">
        <ele>1960.5999755859</ele>
        <time>2019-10-13T12:46:58.000Z</time>
      </trkpt>
      <trkpt lat="46.02528" lon="6.52768">
        <ele>1960.4000244141</ele>
        <time>2019-10-13T12:46:59.000Z</time>
      </trkpt>
      <trkpt lat="46.0253" lon="6.52772">
        <ele>1961</ele>
        <time>2019-10-13T12:47:05.000Z</time>
      </trkpt>
      <trkpt lat="46.02531" lon="6.52775">
        <ele>1961.4000244141</ele>
        <time>2019-10-13T12:47:07.000Z</time>
      </trkpt>
      <trkpt lat="46.02532" lon="6.52777">
        <ele>1962.5999755859</ele>
        <time>2019-10-13T12:47:10.000Z</time>
      </trkpt>
      <trkpt lat="46.02535" lon="6.52782">
        <ele>1963.5999755859</ele>
        <time>2019-10-13T12:47:14.000Z</time>
      </trkpt>
      <trkpt lat="46.02536" lon="6.52782">
        <ele>1963.8000488281</ele>
        <time>2019-10-13T12:47:15.000Z</time>
      </trkpt>
      <trkpt lat="46.02537" lon="6.52783">
        <ele>1964.4000244141</ele>
        <time>2019-10-13T12:47:17.000Z</time>
      </trkpt>
      <trkpt lat="46.02537" lon="6.52782">
        <ele>1965</ele>
        <time>2019-10-13T12:47:19.000Z</time>
      </trkpt>
      <trkpt lat="46.02536" lon="6.52781">
        <ele>1966.1999511719</ele>
        <time>2019-10-13T12:47:23.000Z</time>
      </trkpt>
      <trkpt lat="46.02535" lon="6.52777">
        <ele>1966.8000488281</ele>
        <time>2019-10-13T12:47:27.000Z</time>
      </trkpt>
      <trkpt lat="46.02536" lon="6.52777">
        <ele>1966.5999755859</ele>
        <time>2019-10-13T12:47:37.000Z</time>
      </trkpt>
      <trkpt lat="46.02533" lon="6.52777">
        <ele>1966.5999755859</ele>
        <time>2019-10-13T12:47:54.000Z</time>
      </trkpt>
      <trkpt lat="46.02533" lon="6.52777">
        <ele>1966.4000244141</ele>
        <time>2019-10-13T12:47:57.000Z</time>
      </trkpt>
      <trkpt lat="46.02537" lon="6.52777">
        <ele>1967</ele>
        <time>2019-10-13T12:48:02.000Z</time>
      </trkpt>
      <trkpt lat="46.02538" lon="6.52778">
        <ele>1967.4000244141</ele>
        <time>2019-10-13T12:48:04.000Z</time>
      </trkpt>
      <trkpt lat="46.0254" lon="6.52776">
        <ele>1968.5999755859</ele>
        <time>2019-10-13T12:48:07.000Z</time>
      </trkpt>
      <trkpt lat="46.0254" lon="6.52776">
        <ele>1969</ele>
        <time>2019-10-13T12:48:08.000Z</time>
      </trkpt>
      <trkpt lat="46.02541" lon="6.52775">
        <ele>1969.8000488281</ele>
        <time>2019-10-13T12:48:10.000Z</time>
      </trkpt>
      <trkpt lat="46.02542" lon="6.52774">
        <ele>1970</ele>
        <time>2019-10-13T12:48:12.000Z</time>
      </trkpt>
      <trkpt lat="46.02544" lon="6.52777">
        <ele>1969.5999755859</ele>
        <time>2019-10-13T12:48:19.000Z</time>
      </trkpt>
      <trkpt lat="46.02544" lon="6.52776">
        <ele>1969.5999755859</ele>
        <time>2019-10-13T12:48:21.000Z</time>
      </trkpt>
      <trkpt lat="46.02544" lon="6.52779">
        <ele>1969.5999755859</ele>
        <time>2019-10-13T12:48:28.000Z</time>
      </trkpt>
      <trkpt lat="46.02542" lon="6.52781">
        <ele>1969.5999755859</ele>
        <time>2019-10-13T12:48:34.000Z</time>
      </trkpt>
      <trkpt lat="46.02541" lon="6.52781">
        <ele>1969.8000488281</ele>
        <time>2019-10-13T12:48:35.000Z</time>
      </trkpt>
      <trkpt lat="46.02541" lon="6.52782">
        <ele>1969.8000488281</ele>
        <time>2019-10-13T12:48:42.000Z</time>
      </trkpt>
      <trkpt lat="46.02541" lon="6.52784">
        <ele>1970</ele>
        <time>2019-10-13T12:48:49.000Z</time>
      </trkpt>
      <trkpt lat="46.02541" lon="6.52788">
        <ele>1969</ele>
        <time>2019-10-13T12:48:56.000Z</time>
      </trkpt>
      <trkpt lat="46.0254" lon="6.52789">
        <ele>1969.1999511719</ele>
        <time>2019-10-13T12:48:58.000Z</time>
      </trkpt>
      <trkpt lat="46.02539" lon="6.52792">
        <ele>1969.1999511719</ele>
        <time>2019-10-13T12:49:04.000Z</time>
      </trkpt>
      <trkpt lat="46.02541" lon="6.52795">
        <ele>1970.1999511719</ele>
        <time>2019-10-13T12:49:10.000Z</time>
      </trkpt>
      <trkpt lat="46.02542" lon="6.52795">
        <ele>1970.4000244141</ele>
        <time>2019-10-13T12:49:12.000Z</time>
      </trkpt>
      <trkpt lat="46.02543" lon="6.52794">
        <ele>1970.8000488281</ele>
        <time>2019-10-13T12:49:14.000Z</time>
      </trkpt>
      <trkpt lat="46.02545" lon="6.52793">
        <ele>1971.8000488281</ele>
        <time>2019-10-13T12:49:18.000Z</time>
      </trkpt>
      <trkpt lat="46.02546" lon="6.52793">
        <ele>1972</ele>
        <time>2019-10-13T12:49:19.000Z</time>
      </trkpt>
      <trkpt lat="46.02547" lon="6.52793">
        <ele>1973</ele>
        <time>2019-10-13T12:49:21.000Z</time>
      </trkpt>
      <trkpt lat="46.02547" lon="6.52794">
        <ele>1974</ele>
        <time>2019-10-13T12:49:23.000Z</time>
      </trkpt>
      <trkpt lat="46.02547" lon="6.52794">
        <ele>1974.4000244141</ele>
        <time>2019-10-13T12:49:24.000Z</time>
      </trkpt>
      <trkpt lat="46.02548" lon="6.52797">
        <ele>1975.1999511719</ele>
        <time>2019-10-13T12:49:27.000Z</time>
      </trkpt>
      <trkpt lat="46.02548" lon="6.52799">
        <ele>1975.5999755859</ele>
        <time>2019-10-13T12:49:29.000Z</time>
      </trkpt>
      <trkpt lat="46.02549" lon="6.52801">
        <ele>1976.1999511719</ele>
        <time>2019-10-13T12:49:31.000Z</time>
      </trkpt>
      <trkpt lat="46.02549" lon="6.52803">
        <ele>1977.1999511719</ele>
        <time>2019-10-13T12:49:33.000Z</time>
      </trkpt>
      <trkpt lat="46.02547" lon="6.52803">
        <ele>1978.1999511719</ele>
        <time>2019-10-13T12:49:35.000Z</time>
      </trkpt>
      <trkpt lat="46.02547" lon="6.52804">
        <ele>1978.5999755859</ele>
        <time>2019-10-13T12:49:36.000Z</time>
      </trkpt>
      <trkpt lat="46.02548" lon="6.52804">
        <ele>1979</ele>
        <time>2019-10-13T12:49:37.000Z</time>
      </trkpt>
      <trkpt lat="46.02548" lon="6.52804">
        <ele>1979.4000244141</ele>
        <time>2019-10-13T12:49:39.000Z</time>
      </trkpt>
      <trkpt lat="46.02546" lon="6.52802">
        <ele>1979.4000244141</ele>
        <time>2019-10-13T12:49:44.000Z</time>
      </trkpt>
      <trkpt lat="46.02546" lon="6.52805">
        <ele>1978.8000488281</ele>
        <time>2019-10-13T12:49:50.000Z</time>
      </trkpt>
      <trkpt lat="46.02547" lon="6.52805">
        <ele>1978.5999755859</ele>
        <time>2019-10-13T12:49:54.000Z</time>
      </trkpt>
      <trkpt lat="46.02546" lon="6.52805">
        <ele>1978.1999511719</ele>
        <time>2019-10-13T12:49:59.000Z</time>
      </trkpt>
      <trkpt lat="46.02545" lon="6.52803">
        <ele>1977.5999755859</ele>
        <time>2019-10-13T12:50:08.000Z</time>
      </trkpt>
      <trkpt lat="46.02548" lon="6.52811">
        <ele>1978.5999755859</ele>
        <time>2019-10-13T12:50:15.000Z</time>
      </trkpt>
      <trkpt lat="46.02548" lon="6.52812">
        <ele>1978.5999755859</ele>
        <time>2019-10-13T12:50:18.000Z</time>
      </trkpt>
      <trkpt lat="46.02548" lon="6.52809">
        <ele>1978.8000488281</ele>
        <time>2019-10-13T12:50:20.000Z</time>
      </trkpt>
      <trkpt lat="46.02548" lon="6.52809">
        <ele>1978.8000488281</ele>
        <time>2019-10-13T12:50:21.000Z</time>
      </trkpt>
      <trkpt lat="46.02548" lon="6.52809">
        <ele>1978.8000488281</ele>
        <time>2019-10-13T12:50:22.000Z</time>
      </trkpt>
      <trkpt lat="46.02549" lon="6.52807">
        <ele>1978.4000244141</ele>
        <time>2019-10-13T12:50:26.000Z</time>
      </trkpt>
      <trkpt lat="46.02549" lon="6.52806">
        <ele>1978.1999511719</ele>
        <time>2019-10-13T12:50:27.000Z</time>
      </trkpt>
      <trkpt lat="46.02549" lon="6.52803">
        <ele>1978</ele>
        <time>2019-10-13T12:50:29.000Z</time>
      </trkpt>
      <trkpt lat="46.0255" lon="6.52805">
        <ele>1977.5999755859</ele>
        <time>2019-10-13T12:50:32.000Z</time>
      </trkpt>
      <trkpt lat="46.0255" lon="6.52802">
        <ele>1977.1999511719</ele>
        <time>2019-10-13T12:50:35.000Z</time>
      </trkpt>
      <trkpt lat="46.0255" lon="6.52804">
        <ele>1977.5999755859</ele>
        <time>2019-10-13T12:50:42.000Z</time>
      </trkpt>
      <trkpt lat="46.02549" lon="6.52804">
        <ele>1977.8000488281</ele>
        <time>2019-10-13T12:50:43.000Z</time>
      </trkpt>
      <trkpt lat="46.02549" lon="6.52805">
        <ele>1978.5999755859</ele>
        <time>2019-10-13T12:50:45.000Z</time>
      </trkpt>
      <trkpt lat="46.02551" lon="6.52806">
        <ele>1979.8000488281</ele>
        <time>2019-10-13T12:50:48.000Z</time>
      </trkpt>
      <trkpt lat="46.02552" lon="6.52806">
        <ele>1979.8000488281</ele>
        <time>2019-10-13T12:50:49.000Z</time>
      </trkpt>
      <trkpt lat="46.02556" lon="6.52807">
        <ele>1980</ele>
        <time>2019-10-13T12:50:56.000Z</time>
      </trkpt>
      <trkpt lat="46.02558" lon="6.52806">
        <ele>1981</ele>
        <time>2019-10-13T12:51:01.000Z</time>
      </trkpt>
      <trkpt lat="46.02558" lon="6.52805">
        <ele>1981.1999511719</ele>
        <time>2019-10-13T12:51:02.000Z</time>
      </trkpt>
      <trkpt lat="46.02559" lon="6.52804">
        <ele>1981.4000244141</ele>
        <time>2019-10-13T12:51:03.000Z</time>
      </trkpt>
      <trkpt lat="46.02561" lon="6.52802">
        <ele>1982</ele>
        <time>2019-10-13T12:51:06.000Z</time>
      </trkpt>
      <trkpt lat="46.02561" lon="6.52802">
        <ele>1983</ele>
        <time>2019-10-13T12:51:11.000Z</time>
      </trkpt>
      <trkpt lat="46.02561" lon="6.52802">
        <ele>1983.1999511719</ele>
        <time>2019-10-13T12:51:12.000Z</time>
      </trkpt>
      <trkpt lat="46.02561" lon="6.52799">
        <ele>1983.8000488281</ele>
        <time>2019-10-13T12:51:20.000Z</time>
      </trkpt>
      <trkpt lat="46.0256" lon="6.52796">
        <ele>1984.1999511719</ele>
        <time>2019-10-13T12:51:22.000Z</time>
      </trkpt>
      <trkpt lat="46.02559" lon="6.52793">
        <ele>1985.5999755859</ele>
        <time>2019-10-13T12:51:26.000Z</time>
      </trkpt>
      <trkpt lat="46.02559" lon="6.5279">
        <ele>1986.1999511719</ele>
        <time>2019-10-13T12:51:30.000Z</time>
      </trkpt>
      <trkpt lat="46.0256" lon="6.52789">
        <ele>1986.1999511719</ele>
        <time>2019-10-13T12:51:33.000Z</time>
      </trkpt>
      <trkpt lat="46.02561" lon="6.52789">
        <ele>1986.4000244141</ele>
        <time>2019-10-13T12:51:36.000Z</time>
      </trkpt>
      <trkpt lat="46.02561" lon="6.5279">
        <ele>1986.5999755859</ele>
        <time>2019-10-13T12:51:37.000Z</time>
      </trkpt>
      <trkpt lat="46.02563" lon="6.52793">
        <ele>1987.4000244141</ele>
        <time>2019-10-13T12:51:42.000Z</time>
      </trkpt>
      <trkpt lat="46.02565" lon="6.52792">
        <ele>1987.5999755859</ele>
        <time>2019-10-13T12:51:50.000Z</time>
      </trkpt>
      <trkpt lat="46.02565" lon="6.52791">
        <ele>1987.5999755859</ele>
        <time>2019-10-13T12:51:51.000Z</time>
      </trkpt>
      <trkpt lat="46.02565" lon="6.52794">
        <ele>1988.4000244141</ele>
        <time>2019-10-13T12:51:56.000Z</time>
      </trkpt>
      <trkpt lat="46.02564" lon="6.52792">
        <ele>1988.8000488281</ele>
        <time>2019-10-13T12:51:58.000Z</time>
      </trkpt>
      <trkpt lat="46.02564" lon="6.52791">
        <ele>1989</ele>
        <time>2019-10-13T12:51:59.000Z</time>
      </trkpt>
      <trkpt lat="46.02565" lon="6.52793">
        <ele>1993.5999755859</ele>
        <time>2019-10-13T12:52:01.000Z</time>
      </trkpt>
      <trkpt lat="46.02569" lon="6.52788">
        <ele>1992</ele>
        <time>2019-10-13T12:52:06.000Z</time>
      </trkpt>
      <trkpt lat="46.02569" lon="6.52786">
        <ele>1992</ele>
        <time>2019-10-13T12:52:08.000Z</time>
      </trkpt>
      <trkpt lat="46.02572" lon="6.5278">
        <ele>1992.4000244141</ele>
        <time>2019-10-13T12:52:15.000Z</time>
      </trkpt>
      <trkpt lat="46.0257" lon="6.5278">
        <ele>1992.4000244141</ele>
        <time>2019-10-13T12:52:20.000Z</time>
      </trkpt>
      <trkpt lat="46.02571" lon="6.5278">
        <ele>1992.1999511719</ele>
        <time>2019-10-13T12:52:22.000Z</time>
      </trkpt>
      <trkpt lat="46.02571" lon="6.5278">
        <ele>1992.4000244141</ele>
        <time>2019-10-13T12:52:23.000Z</time>
      </trkpt>
      <trkpt lat="46.02574" lon="6.52779">
        <ele>1993</ele>
        <time>2019-10-13T12:52:27.000Z</time>
      </trkpt>
      <trkpt lat="46.02575" lon="6.5278">
        <ele>1993.5999755859</ele>
        <time>2019-10-13T12:52:29.000Z</time>
      </trkpt>
      <trkpt lat="46.02576" lon="6.52782">
        <ele>1994.1999511719</ele>
        <time>2019-10-13T12:52:31.000Z</time>
      </trkpt>
      <trkpt lat="46.02577" lon="6.52782">
        <ele>1995</ele>
        <time>2019-10-13T12:52:35.000Z</time>
      </trkpt>
      <trkpt lat="46.02577" lon="6.52782">
        <ele>1995.4000244141</ele>
        <time>2019-10-13T12:52:36.000Z</time>
      </trkpt>
      <trkpt lat="46.02583" lon="6.52779">
        <ele>1996.4000244141</ele>
        <time>2019-10-13T12:52:42.000Z</time>
      </trkpt>
      <trkpt lat="46.02585" lon="6.52776">
        <ele>1996.4000244141</ele>
        <time>2019-10-13T12:52:44.000Z</time>
      </trkpt>
      <trkpt lat="46.02587" lon="6.52773">
        <ele>1996.8000488281</ele>
        <time>2019-10-13T12:52:47.000Z</time>
      </trkpt>
      <trkpt lat="46.02588" lon="6.5277">
        <ele>1997.1999511719</ele>
        <time>2019-10-13T12:52:49.000Z</time>
      </trkpt>
      <trkpt lat="46.02588" lon="6.5277">
        <ele>1997.5999755859</ele>
        <time>2019-10-13T12:52:50.000Z</time>
      </trkpt>
      <trkpt lat="46.02589" lon="6.52769">
        <ele>1998</ele>
        <time>2019-10-13T12:52:51.000Z</time>
      </trkpt>
      <trkpt lat="46.0259" lon="6.52768">
        <ele>1998.8000488281</ele>
        <time>2019-10-13T12:52:53.000Z</time>
      </trkpt>
      <trkpt lat="46.02592" lon="6.52767">
        <ele>1999.4000244141</ele>
        <time>2019-10-13T12:52:56.000Z</time>
      </trkpt>
      <trkpt lat="46.02597" lon="6.52766">
        <ele>1999.5999755859</ele>
        <time>2019-10-13T12:53:01.000Z</time>
      </trkpt>
      <trkpt lat="46.02598" lon="6.52766">
        <ele>1999.8000488281</ele>
        <time>2019-10-13T12:53:02.000Z</time>
      </trkpt>
      <trkpt lat="46.02599" lon="6.52766">
        <ele>1999.8000488281</ele>
        <time>2019-10-13T12:53:03.000Z</time>
      </trkpt>
      <trkpt lat="46.026" lon="6.52765">
        <ele>2000.1999511719</ele>
        <time>2019-10-13T12:53:05.000Z</time>
      </trkpt>
      <trkpt lat="46.02602" lon="6.52763">
        <ele>2001</ele>
        <time>2019-10-13T12:53:08.000Z</time>
      </trkpt>
      <trkpt lat="46.02602" lon="6.52764">
        <ele>2001.1999511719</ele>
        <time>2019-10-13T12:53:09.000Z</time>
      </trkpt>
      <trkpt lat="46.02602" lon="6.52767">
        <ele>2002</ele>
        <time>2019-10-13T12:53:13.000Z</time>
      </trkpt>
      <trkpt lat="46.02601" lon="6.52768">
        <ele>2002.4000244141</ele>
        <time>2019-10-13T12:53:15.000Z</time>
      </trkpt>
      <trkpt lat="46.026" lon="6.52767">
        <ele>2003.1999511719</ele>
        <time>2019-10-13T12:53:20.000Z</time>
      </trkpt>
      <trkpt lat="46.026" lon="6.52766">
        <ele>2003.4000244141</ele>
        <time>2019-10-13T12:53:21.000Z</time>
      </trkpt>
      <trkpt lat="46.02601" lon="6.52765">
        <ele>2003.4000244141</ele>
        <time>2019-10-13T12:53:22.000Z</time>
      </trkpt>
      <trkpt lat="46.02603" lon="6.52761">
        <ele>2003.4000244141</ele>
        <time>2019-10-13T12:53:23.000Z</time>
      </trkpt>
      <trkpt lat="46.02606" lon="6.52761">
        <ele>2003.1999511719</ele>
        <time>2019-10-13T12:53:26.000Z</time>
      </trkpt>
      <trkpt lat="46.02608" lon="6.52761">
        <ele>2004.4000244141</ele>
        <time>2019-10-13T12:53:31.000Z</time>
      </trkpt>
      <trkpt lat="46.02608" lon="6.52759">
        <ele>2004.4000244141</ele>
        <time>2019-10-13T12:53:32.000Z</time>
      </trkpt>
      <trkpt lat="46.02607" lon="6.52754">
        <ele>2004.5999755859</ele>
        <time>2019-10-13T12:53:35.000Z</time>
      </trkpt>
      <trkpt lat="46.02607" lon="6.5275">
        <ele>2005</ele>
        <time>2019-10-13T12:53:38.000Z</time>
      </trkpt>
      <trkpt lat="46.02606" lon="6.52748">
        <ele>2005.4000244141</ele>
        <time>2019-10-13T12:53:40.000Z</time>
      </trkpt>
      <trkpt lat="46.02606" lon="6.52745">
        <ele>2005.8000488281</ele>
        <time>2019-10-13T12:53:43.000Z</time>
      </trkpt>
      <trkpt lat="46.02607" lon="6.52743">
        <ele>2006.4000244141</ele>
        <time>2019-10-13T12:53:45.000Z</time>
      </trkpt>
      <trkpt lat="46.02607" lon="6.52736">
        <ele>2007.5999755859</ele>
        <time>2019-10-13T12:53:50.000Z</time>
      </trkpt>
      <trkpt lat="46.02606" lon="6.52737">
        <ele>2007.8000488281</ele>
        <time>2019-10-13T12:53:51.000Z</time>
      </trkpt>
      <trkpt lat="46.02606" lon="6.52737">
        <ele>2008</ele>
        <time>2019-10-13T12:53:52.000Z</time>
      </trkpt>
      <trkpt lat="46.02605" lon="6.52736">
        <ele>2008.4000244141</ele>
        <time>2019-10-13T12:53:54.000Z</time>
      </trkpt>
      <trkpt lat="46.02605" lon="6.52734">
        <ele>2008.8000488281</ele>
        <time>2019-10-13T12:53:55.000Z</time>
      </trkpt>
      <trkpt lat="46.02604" lon="6.52732">
        <ele>2009.1999511719</ele>
        <time>2019-10-13T12:53:56.000Z</time>
      </trkpt>
      <trkpt lat="46.02604" lon="6.52731">
        <ele>2009.8000488281</ele>
        <time>2019-10-13T12:53:59.000Z</time>
      </trkpt>
      <trkpt lat="46.02604" lon="6.52731">
        <ele>2010</ele>
        <time>2019-10-13T12:54:00.000Z</time>
      </trkpt>
      <trkpt lat="46.02604" lon="6.52731">
        <ele>2010</ele>
        <time>2019-10-13T12:54:01.000Z</time>
      </trkpt>
      <trkpt lat="46.02602" lon="6.52728">
        <ele>2010.4000244141</ele>
        <time>2019-10-13T12:54:09.000Z</time>
      </trkpt>
      <trkpt lat="46.02601" lon="6.52727">
        <ele>2010.5999755859</ele>
        <time>2019-10-13T12:54:13.000Z</time>
      </trkpt>
      <trkpt lat="46.02601" lon="6.52729">
        <ele>2010.5999755859</ele>
        <time>2019-10-13T12:54:16.000Z</time>
      </trkpt>
      <trkpt lat="46.026" lon="6.52729">
        <ele>2010.8000488281</ele>
        <time>2019-10-13T12:54:18.000Z</time>
      </trkpt>
      <trkpt lat="46.02598" lon="6.52725">
        <ele>2011</ele>
        <time>2019-10-13T12:54:22.000Z</time>
      </trkpt>
      <trkpt lat="46.02598" lon="6.52723">
        <ele>2011.1999511719</ele>
        <time>2019-10-13T12:54:24.000Z</time>
      </trkpt>
      <trkpt lat="46.02597" lon="6.5272">
        <ele>2012.1999511719</ele>
        <time>2019-10-13T12:54:29.000Z</time>
      </trkpt>
      <trkpt lat="46.02596" lon="6.5272">
        <ele>2012.5999755859</ele>
        <time>2019-10-13T12:54:30.000Z</time>
      </trkpt>
      <trkpt lat="46.02595" lon="6.52719">
        <ele>2012.8000488281</ele>
        <time>2019-10-13T12:54:32.000Z</time>
      </trkpt>
      <trkpt lat="46.02594" lon="6.52717">
        <ele>2013.1999511719</ele>
        <time>2019-10-13T12:54:34.000Z</time>
      </trkpt>
      <trkpt lat="46.02593" lon="6.52717">
        <ele>2013.4000244141</ele>
        <time>2019-10-13T12:54:35.000Z</time>
      </trkpt>
      <trkpt lat="46.02592" lon="6.52716">
        <ele>2013.5999755859</ele>
        <time>2019-10-13T12:54:37.000Z</time>
      </trkpt>
      <trkpt lat="46.02591" lon="6.52717">
        <ele>2013.8000488281</ele>
        <time>2019-10-13T12:54:39.000Z</time>
      </trkpt>
      <trkpt lat="46.02588" lon="6.52715">
        <ele>2013.8000488281</ele>
        <time>2019-10-13T12:54:42.000Z</time>
      </trkpt>
      <trkpt lat="46.02588" lon="6.52716">
        <ele>2013.8000488281</ele>
        <time>2019-10-13T12:54:43.000Z</time>
      </trkpt>
      <trkpt lat="46.02587" lon="6.52715">
        <ele>2013.8000488281</ele>
        <time>2019-10-13T12:54:44.000Z</time>
      </trkpt>
      <trkpt lat="46.02585" lon="6.52709">
        <ele>2013.5999755859</ele>
        <time>2019-10-13T12:54:47.000Z</time>
      </trkpt>
      <trkpt lat="46.02583" lon="6.52706">
        <ele>2013.8000488281</ele>
        <time>2019-10-13T12:54:49.000Z</time>
      </trkpt>
      <trkpt lat="46.02581" lon="6.52703">
        <ele>2014.4000244141</ele>
        <time>2019-10-13T12:54:52.000Z</time>
      </trkpt>
      <trkpt lat="46.02577" lon="6.52697">
        <ele>2014.5999755859</ele>
        <time>2019-10-13T12:54:56.000Z</time>
      </trkpt>
      <trkpt lat="46.02574" lon="6.52693">
        <ele>2014.5999755859</ele>
        <time>2019-10-13T12:54:59.000Z</time>
      </trkpt>
      <trkpt lat="46.02572" lon="6.52689">
        <ele>2015.1999511719</ele>
        <time>2019-10-13T12:55:02.000Z</time>
      </trkpt>
      <trkpt lat="46.02571" lon="6.52687">
        <ele>2015.5999755859</ele>
        <time>2019-10-13T12:55:04.000Z</time>
      </trkpt>
      <trkpt lat="46.02571" lon="6.52687">
        <ele>2015.8000488281</ele>
        <time>2019-10-13T12:55:05.000Z</time>
      </trkpt>
      <trkpt lat="46.0257" lon="6.52686">
        <ele>2015.8000488281</ele>
        <time>2019-10-13T12:55:07.000Z</time>
      </trkpt>
      <trkpt lat="46.02568" lon="6.52684">
        <ele>2016</ele>
        <time>2019-10-13T12:55:09.000Z</time>
      </trkpt>
      <trkpt lat="46.02568" lon="6.52682">
        <ele>2016</ele>
        <time>2019-10-13T12:55:10.000Z</time>
      </trkpt>
      <trkpt lat="46.02568" lon="6.5268">
        <ele>2016.1999511719</ele>
        <time>2019-10-13T12:55:11.000Z</time>
      </trkpt>
      <trkpt lat="46.02569" lon="6.52678">
        <ele>2016.1999511719</ele>
        <time>2019-10-13T12:55:13.000Z</time>
      </trkpt>
      <trkpt lat="46.02568" lon="6.52677">
        <ele>2016.4000244141</ele>
        <time>2019-10-13T12:55:15.000Z</time>
      </trkpt>
      <trkpt lat="46.02568" lon="6.52677">
        <ele>2016.5999755859</ele>
        <time>2019-10-13T12:55:16.000Z</time>
      </trkpt>
      <trkpt lat="46.02569" lon="6.52675">
        <ele>2017.1999511719</ele>
        <time>2019-10-13T12:55:19.000Z</time>
      </trkpt>
      <trkpt lat="46.0257" lon="6.52673">
        <ele>2017.4000244141</ele>
        <time>2019-10-13T12:55:21.000Z</time>
      </trkpt>
      <trkpt lat="46.0257" lon="6.5267">
        <ele>2017.8000488281</ele>
        <time>2019-10-13T12:55:23.000Z</time>
      </trkpt>
      <trkpt lat="46.02569" lon="6.52666">
        <ele>2018.4000244141</ele>
        <time>2019-10-13T12:55:25.000Z</time>
      </trkpt>
      <trkpt lat="46.02569" lon="6.52666">
        <ele>2018.4000244141</ele>
        <time>2019-10-13T12:55:26.000Z</time>
      </trkpt>
      <trkpt lat="46.02568" lon="6.52664">
        <ele>2019.1999511719</ele>
        <time>2019-10-13T12:55:28.000Z</time>
      </trkpt>
      <trkpt lat="46.0257" lon="6.52658">
        <ele>2020</ele>
        <time>2019-10-13T12:55:32.000Z</time>
      </trkpt>
      <trkpt lat="46.0257" lon="6.52657">
        <ele>2020.1999511719</ele>
        <time>2019-10-13T12:55:33.000Z</time>
      </trkpt>
      <trkpt lat="46.02571" lon="6.52655">
        <ele>2020.4000244141</ele>
        <time>2019-10-13T12:55:35.000Z</time>
      </trkpt>
      <trkpt lat="46.02571" lon="6.52654">
        <ele>2020.8000488281</ele>
        <time>2019-10-13T12:55:36.000Z</time>
      </trkpt>
      <trkpt lat="46.02571" lon="6.52654">
        <ele>2021</ele>
        <time>2019-10-13T12:55:37.000Z</time>
      </trkpt>
      <trkpt lat="46.02571" lon="6.52654">
        <ele>2021.4000244141</ele>
        <time>2019-10-13T12:55:38.000Z</time>
      </trkpt>
      <trkpt lat="46.02571" lon="6.52647">
        <ele>2022.4000244141</ele>
        <time>2019-10-13T12:55:43.000Z</time>
      </trkpt>
      <trkpt lat="46.02572" lon="6.52638">
        <ele>2023.5999755859</ele>
        <time>2019-10-13T12:55:48.000Z</time>
      </trkpt>
      <trkpt lat="46.02572" lon="6.52636">
        <ele>2023.5999755859</ele>
        <time>2019-10-13T12:55:49.000Z</time>
      </trkpt>
      <trkpt lat="46.02571" lon="6.52636">
        <ele>2023.5999755859</ele>
        <time>2019-10-13T12:55:50.000Z</time>
      </trkpt>
      <trkpt lat="46.02571" lon="6.52632">
        <ele>2024.5999755859</ele>
        <time>2019-10-13T12:55:54.000Z</time>
      </trkpt>
      <trkpt lat="46.02571" lon="6.52633">
        <ele>2024.8000488281</ele>
        <time>2019-10-13T12:55:55.000Z</time>
      </trkpt>
      <trkpt lat="46.02572" lon="6.52631">
        <ele>2025.1999511719</ele>
        <time>2019-10-13T12:55:57.000Z</time>
      </trkpt>
      <trkpt lat="46.02573" lon="6.52627">
        <ele>2025.4000244141</ele>
        <time>2019-10-13T12:56:00.000Z</time>
      </trkpt>
      <trkpt lat="46.02573" lon="6.52625">
        <ele>2025.5999755859</ele>
        <time>2019-10-13T12:56:01.000Z</time>
      </trkpt>
      <trkpt lat="46.02573" lon="6.52624">
        <ele>2025.5999755859</ele>
        <time>2019-10-13T12:56:02.000Z</time>
      </trkpt>
      <trkpt lat="46.02573" lon="6.52622">
        <ele>2026</ele>
        <time>2019-10-13T12:56:04.000Z</time>
      </trkpt>
      <trkpt lat="46.02574" lon="6.52621">
        <ele>2026.1999511719</ele>
        <time>2019-10-13T12:56:05.000Z</time>
      </trkpt>
      <trkpt lat="46.02573" lon="6.5262">
        <ele>2026.5999755859</ele>
        <time>2019-10-13T12:56:06.000Z</time>
      </trkpt>
      <trkpt lat="46.02574" lon="6.52619">
        <ele>2026.8000488281</ele>
        <time>2019-10-13T12:56:07.000Z</time>
      </trkpt>
      <trkpt lat="46.02574" lon="6.52617">
        <ele>2027.4000244141</ele>
        <time>2019-10-13T12:56:10.000Z</time>
      </trkpt>
      <trkpt lat="46.02575" lon="6.52614">
        <ele>2027.8000488281</ele>
        <time>2019-10-13T12:56:12.000Z</time>
      </trkpt>
      <trkpt lat="46.02578" lon="6.52608">
        <ele>2028.5999755859</ele>
        <time>2019-10-13T12:56:17.000Z</time>
      </trkpt>
      <trkpt lat="46.02579" lon="6.52607">
        <ele>2028.8000488281</ele>
        <time>2019-10-13T12:56:18.000Z</time>
      </trkpt>
      <trkpt lat="46.02581" lon="6.52601">
        <ele>2030</ele>
        <time>2019-10-13T12:56:23.000Z</time>
      </trkpt>
      <trkpt lat="46.02581" lon="6.526">
        <ele>2030</ele>
        <time>2019-10-13T12:56:24.000Z</time>
      </trkpt>
      <trkpt lat="46.02582" lon="6.52599">
        <ele>2030</ele>
        <time>2019-10-13T12:56:26.000Z</time>
      </trkpt>
      <trkpt lat="46.02584" lon="6.52598">
        <ele>2030.8000488281</ele>
        <time>2019-10-13T12:56:30.000Z</time>
      </trkpt>
      <trkpt lat="46.02584" lon="6.52598">
        <ele>2031.1999511719</ele>
        <time>2019-10-13T12:56:31.000Z</time>
      </trkpt>
      <trkpt lat="46.02585" lon="6.52597">
        <ele>2031.4000244141</ele>
        <time>2019-10-13T12:56:32.000Z</time>
      </trkpt>
      <trkpt lat="46.02586" lon="6.52593">
        <ele>2031.8000488281</ele>
        <time>2019-10-13T12:56:36.000Z</time>
      </trkpt>
      <trkpt lat="46.02586" lon="6.52593">
        <ele>2032.1999511719</ele>
        <time>2019-10-13T12:56:37.000Z</time>
      </trkpt>
      <trkpt lat="46.02587" lon="6.52592">
        <ele>2032.4000244141</ele>
        <time>2019-10-13T12:56:38.000Z</time>
      </trkpt>
      <trkpt lat="46.02589" lon="6.52586">
        <ele>2033.4000244141</ele>
        <time>2019-10-13T12:56:42.000Z</time>
      </trkpt>
      <trkpt lat="46.0259" lon="6.52583">
        <ele>2034</ele>
        <time>2019-10-13T12:56:47.000Z</time>
      </trkpt>
      <trkpt lat="46.0259" lon="6.52581">
        <ele>2034.5999755859</ele>
        <time>2019-10-13T12:56:50.000Z</time>
      </trkpt>
      <trkpt lat="46.0259" lon="6.52578">
        <ele>2035.1999511719</ele>
        <time>2019-10-13T12:56:54.000Z</time>
      </trkpt>
      <trkpt lat="46.02591" lon="6.5258">
        <ele>2035.5999755859</ele>
        <time>2019-10-13T12:56:58.000Z</time>
      </trkpt>
      <trkpt lat="46.0259" lon="6.52579">
        <ele>2035.8000488281</ele>
        <time>2019-10-13T12:57:00.000Z</time>
      </trkpt>
      <trkpt lat="46.0259" lon="6.52572">
        <ele>2036.4000244141</ele>
        <time>2019-10-13T12:57:03.000Z</time>
      </trkpt>
      <trkpt lat="46.02592" lon="6.52569">
        <ele>2036.5999755859</ele>
        <time>2019-10-13T12:57:05.000Z</time>
      </trkpt>
      <trkpt lat="46.02592" lon="6.52567">
        <ele>2036.5999755859</ele>
        <time>2019-10-13T12:57:06.000Z</time>
      </trkpt>
      <trkpt lat="46.02595" lon="6.52565">
        <ele>2037.4000244141</ele>
        <time>2019-10-13T12:57:11.000Z</time>
      </trkpt>
      <trkpt lat="46.02595" lon="6.52564">
        <ele>2037.4000244141</ele>
        <time>2019-10-13T12:57:12.000Z</time>
      </trkpt>
      <trkpt lat="46.02596" lon="6.52563">
        <ele>2037.8000488281</ele>
        <time>2019-10-13T12:57:14.000Z</time>
      </trkpt>
      <trkpt lat="46.02599" lon="6.52557">
        <ele>2038.1999511719</ele>
        <time>2019-10-13T12:57:19.000Z</time>
      </trkpt>
      <trkpt lat="46.026" lon="6.52554">
        <ele>2038.5999755859</ele>
        <time>2019-10-13T12:57:21.000Z</time>
      </trkpt>
      <trkpt lat="46.026" lon="6.52553">
        <ele>2038.8000488281</ele>
        <time>2019-10-13T12:57:22.000Z</time>
      </trkpt>
      <trkpt lat="46.02601" lon="6.52552">
        <ele>2039</ele>
        <time>2019-10-13T12:57:23.000Z</time>
      </trkpt>
      <trkpt lat="46.02603" lon="6.5255">
        <ele>2039.1999511719</ele>
        <time>2019-10-13T12:57:27.000Z</time>
      </trkpt>
      <trkpt lat="46.02607" lon="6.52548">
        <ele>2040.1999511719</ele>
        <time>2019-10-13T12:57:32.000Z</time>
      </trkpt>
      <trkpt lat="46.02609" lon="6.52548">
        <ele>2041</ele>
        <time>2019-10-13T12:57:34.000Z</time>
      </trkpt>
      <trkpt lat="46.02612" lon="6.52546">
        <ele>2041.4000244141</ele>
        <time>2019-10-13T12:57:36.000Z</time>
      </trkpt>
      <trkpt lat="46.02615" lon="6.52546">
        <ele>2041.8000488281</ele>
        <time>2019-10-13T12:57:39.000Z</time>
      </trkpt>
      <trkpt lat="46.0262" lon="6.52542">
        <ele>2042.1999511719</ele>
        <time>2019-10-13T12:57:46.000Z</time>
      </trkpt>
      <trkpt lat="46.02624" lon="6.52538">
        <ele>2042.1999511719</ele>
        <time>2019-10-13T12:57:51.000Z</time>
      </trkpt>
      <trkpt lat="46.02624" lon="6.52537">
        <ele>2042.1999511719</ele>
        <time>2019-10-13T12:57:52.000Z</time>
      </trkpt>
      <trkpt lat="46.02624" lon="6.52536">
        <ele>2042.1999511719</ele>
        <time>2019-10-13T12:57:53.000Z</time>
      </trkpt>
      <trkpt lat="46.02627" lon="6.52531">
        <ele>2042.4000244141</ele>
        <time>2019-10-13T12:57:58.000Z</time>
      </trkpt>
      <trkpt lat="46.02628" lon="6.52527">
        <ele>2041.5999755859</ele>
        <time>2019-10-13T12:58:01.000Z</time>
      </trkpt>
      <trkpt lat="46.0263" lon="6.52524">
        <ele>2041.1999511719</ele>
        <time>2019-10-13T12:58:04.000Z</time>
      </trkpt>
      <trkpt lat="46.02631" lon="6.52524">
        <ele>2041.1999511719</ele>
        <time>2019-10-13T12:58:05.000Z</time>
      </trkpt>
      <trkpt lat="46.02632" lon="6.52523">
        <ele>2041.1999511719</ele>
        <time>2019-10-13T12:58:06.000Z</time>
      </trkpt>
      <trkpt lat="46.02634" lon="6.52523">
        <ele>2041.1999511719</ele>
        <time>2019-10-13T12:58:08.000Z</time>
      </trkpt>
      <trkpt lat="46.02638" lon="6.52524">
        <ele>2041.4000244141</ele>
        <time>2019-10-13T12:58:11.000Z</time>
      </trkpt>
      <trkpt lat="46.02642" lon="6.52525">
        <ele>2041.5999755859</ele>
        <time>2019-10-13T12:58:15.000Z</time>
      </trkpt>
      <trkpt lat="46.02645" lon="6.52526">
        <ele>2041.4000244141</ele>
        <time>2019-10-13T12:58:19.000Z</time>
      </trkpt>
      <trkpt lat="46.02646" lon="6.52527">
        <ele>2041.5999755859</ele>
        <time>2019-10-13T12:58:21.000Z</time>
      </trkpt>
      <trkpt lat="46.02645" lon="6.52532">
        <ele>2042.1999511719</ele>
        <time>2019-10-13T12:58:24.000Z</time>
      </trkpt>
      <trkpt lat="46.02642" lon="6.52532">
        <ele>2042.1999511719</ele>
        <time>2019-10-13T12:58:28.000Z</time>
      </trkpt>
      <trkpt lat="46.02641" lon="6.52529">
        <ele>2042</ele>
        <time>2019-10-13T12:58:31.000Z</time>
      </trkpt>
      <trkpt lat="46.02648" lon="6.52521">
        <ele>2041.8000488281</ele>
        <time>2019-10-13T12:58:37.000Z</time>
      </trkpt>
      <trkpt lat="46.0265" lon="6.5252">
        <ele>2041.8000488281</ele>
        <time>2019-10-13T12:58:40.000Z</time>
      </trkpt>
      <trkpt lat="46.02653" lon="6.52518">
        <ele>2041.5999755859</ele>
        <time>2019-10-13T12:58:42.000Z</time>
      </trkpt>
      <trkpt lat="46.02654" lon="6.52514">
        <ele>2041</ele>
        <time>2019-10-13T12:58:45.000Z</time>
      </trkpt>
      <trkpt lat="46.02654" lon="6.52512">
        <ele>2040.8000488281</ele>
        <time>2019-10-13T12:58:47.000Z</time>
      </trkpt>
      <trkpt lat="46.02654" lon="6.52509">
        <ele>2041.1999511719</ele>
        <time>2019-10-13T12:58:49.000Z</time>
      </trkpt>
      <trkpt lat="46.02657" lon="6.52499">
        <ele>2041.5999755859</ele>
        <time>2019-10-13T12:58:57.000Z</time>
      </trkpt>
      <trkpt lat="46.02658" lon="6.52496">
        <ele>2041.8000488281</ele>
        <time>2019-10-13T12:59:00.000Z</time>
      </trkpt>
      <trkpt lat="46.02657" lon="6.52493">
        <ele>2042.5999755859</ele>
        <time>2019-10-13T12:59:03.000Z</time>
      </trkpt>
      <trkpt lat="46.02658" lon="6.52491">
        <ele>2042.8000488281</ele>
        <time>2019-10-13T12:59:04.000Z</time>
      </trkpt>
      <trkpt lat="46.02658" lon="6.52489">
        <ele>2042.8000488281</ele>
        <time>2019-10-13T12:59:05.000Z</time>
      </trkpt>
      <trkpt lat="46.02656" lon="6.52486">
        <ele>2043</ele>
        <time>2019-10-13T12:59:07.000Z</time>
      </trkpt>
      <trkpt lat="46.02656" lon="6.52486">
        <ele>2043</ele>
        <time>2019-10-13T12:59:08.000Z</time>
      </trkpt>
      <trkpt lat="46.02656" lon="6.52485">
        <ele>2043</ele>
        <time>2019-10-13T12:59:09.000Z</time>
      </trkpt>
      <trkpt lat="46.02655" lon="6.52485">
        <ele>2043.5999755859</ele>
        <time>2019-10-13T12:59:11.000Z</time>
      </trkpt>
      <trkpt lat="46.02655" lon="6.52485">
        <ele>2043.8000488281</ele>
        <time>2019-10-13T12:59:12.000Z</time>
      </trkpt>
      <trkpt lat="46.02654" lon="6.52485">
        <ele>2044.1999511719</ele>
        <time>2019-10-13T12:59:14.000Z</time>
      </trkpt>
      <trkpt lat="46.0265" lon="6.52483">
        <ele>2045</ele>
        <time>2019-10-13T12:59:19.000Z</time>
      </trkpt>
      <trkpt lat="46.0265" lon="6.52482">
        <ele>2045</ele>
        <time>2019-10-13T12:59:20.000Z</time>
      </trkpt>
      <trkpt lat="46.0265" lon="6.52481">
        <ele>2045.1999511719</ele>
        <time>2019-10-13T12:59:21.000Z</time>
      </trkpt>
      <trkpt lat="46.02647" lon="6.52472">
        <ele>2045.8000488281</ele>
        <time>2019-10-13T12:59:26.000Z</time>
      </trkpt>
      <trkpt lat="46.02647" lon="6.52471">
        <ele>2046</ele>
        <time>2019-10-13T12:59:27.000Z</time>
      </trkpt>
      <trkpt lat="46.02646" lon="6.52467">
        <ele>2046.5999755859</ele>
        <time>2019-10-13T12:59:31.000Z</time>
      </trkpt>
      <trkpt lat="46.02644" lon="6.52467">
        <ele>2046.8000488281</ele>
        <time>2019-10-13T12:59:34.000Z</time>
      </trkpt>
      <trkpt lat="46.02643" lon="6.52467">
        <ele>2046.8000488281</ele>
        <time>2019-10-13T12:59:36.000Z</time>
      </trkpt>
      <trkpt lat="46.02641" lon="6.52463">
        <ele>2047</ele>
        <time>2019-10-13T12:59:38.000Z</time>
      </trkpt>
      <trkpt lat="46.02639" lon="6.5246">
        <ele>2047.5999755859</ele>
        <time>2019-10-13T12:59:40.000Z</time>
      </trkpt>
      <trkpt lat="46.02635" lon="6.5245">
        <ele>2047.5999755859</ele>
        <time>2019-10-13T12:59:46.000Z</time>
      </trkpt>
      <trkpt lat="46.02634" lon="6.52448">
        <ele>2047.5999755859</ele>
        <time>2019-10-13T12:59:47.000Z</time>
      </trkpt>
      <trkpt lat="46.02634" lon="6.52447">
        <ele>2047.5999755859</ele>
        <time>2019-10-13T12:59:48.000Z</time>
      </trkpt>
      <trkpt lat="46.02633" lon="6.52445">
        <ele>2047.8000488281</ele>
        <time>2019-10-13T12:59:50.000Z</time>
      </trkpt>
      <trkpt lat="46.02633" lon="6.52444">
        <ele>2048</ele>
        <time>2019-10-13T12:59:51.000Z</time>
      </trkpt>
      <trkpt lat="46.02634" lon="6.52442">
        <ele>2048.1999511719</ele>
        <time>2019-10-13T12:59:52.000Z</time>
      </trkpt>
      <trkpt lat="46.02634" lon="6.52439">
        <ele>2048.8000488281</ele>
        <time>2019-10-13T12:59:55.000Z</time>
      </trkpt>
      <trkpt lat="46.02633" lon="6.52438">
        <ele>2049.1999511719</ele>
        <time>2019-10-13T12:59:56.000Z</time>
      </trkpt>
      <trkpt lat="46.02632" lon="6.52434">
        <ele>2049.6000976562</ele>
        <time>2019-10-13T12:59:58.000Z</time>
      </trkpt>
      <trkpt lat="46.02631" lon="6.52432">
        <ele>2049.6000976562</ele>
        <time>2019-10-13T12:59:59.000Z</time>
      </trkpt>
      <trkpt lat="46.02634" lon="6.52429">
        <ele>2050.3999023438</ele>
        <time>2019-10-13T13:00:02.000Z</time>
      </trkpt>
      <trkpt lat="46.02634" lon="6.52425">
        <ele>2050.3999023438</ele>
        <time>2019-10-13T13:00:05.000Z</time>
      </trkpt>
      <trkpt lat="46.02634" lon="6.52424">
        <ele>2050.3999023438</ele>
        <time>2019-10-13T13:00:06.000Z</time>
      </trkpt>
      <trkpt lat="46.02634" lon="6.52421">
        <ele>2050</ele>
        <time>2019-10-13T13:00:09.000Z</time>
      </trkpt>
      <trkpt lat="46.02634" lon="6.52421">
        <ele>2049.8000488281</ele>
        <time>2019-10-13T13:00:10.000Z</time>
      </trkpt>
      <trkpt lat="46.02634" lon="6.52419">
        <ele>2049.8000488281</ele>
        <time>2019-10-13T13:00:11.000Z</time>
      </trkpt>
      <trkpt lat="46.02636" lon="6.52415">
        <ele>2049.6000976562</ele>
        <time>2019-10-13T13:00:13.000Z</time>
      </trkpt>
      <trkpt lat="46.02636" lon="6.52405">
        <ele>2049.6000976562</ele>
        <time>2019-10-13T13:00:18.000Z</time>
      </trkpt>
      <trkpt lat="46.02637" lon="6.52401">
        <ele>2050.3999023438</ele>
        <time>2019-10-13T13:00:21.000Z</time>
      </trkpt>
      <trkpt lat="46.02641" lon="6.52397">
        <ele>2050.8000488281</ele>
        <time>2019-10-13T13:00:24.000Z</time>
      </trkpt>
      <trkpt lat="46.02646" lon="6.52394">
        <ele>2051</ele>
        <time>2019-10-13T13:00:30.000Z</time>
      </trkpt>
      <trkpt lat="46.02647" lon="6.52391">
        <ele>2051</ele>
        <time>2019-10-13T13:00:32.000Z</time>
      </trkpt>
      <trkpt lat="46.02648" lon="6.52388">
        <ele>2051</ele>
        <time>2019-10-13T13:00:35.000Z</time>
      </trkpt>
      <trkpt lat="46.02649" lon="6.52384">
        <ele>2051.3999023438</ele>
        <time>2019-10-13T13:00:37.000Z</time>
      </trkpt>
      <trkpt lat="46.02649" lon="6.52383">
        <ele>2051.6000976562</ele>
        <time>2019-10-13T13:00:38.000Z</time>
      </trkpt>
      <trkpt lat="46.0265" lon="6.52381">
        <ele>2052</ele>
        <time>2019-10-13T13:00:40.000Z</time>
      </trkpt>
      <trkpt lat="46.0265" lon="6.52379">
        <ele>2052.3999023438</ele>
        <time>2019-10-13T13:00:42.000Z</time>
      </trkpt>
      <trkpt lat="46.02651" lon="6.52375">
        <ele>2053</ele>
        <time>2019-10-13T13:00:45.000Z</time>
      </trkpt>
      <trkpt lat="46.0265" lon="6.52371">
        <ele>2053.1999511719</ele>
        <time>2019-10-13T13:00:48.000Z</time>
      </trkpt>
      <trkpt lat="46.02651" lon="6.52367">
        <ele>2053.6000976562</ele>
        <time>2019-10-13T13:00:51.000Z</time>
      </trkpt>
      <trkpt lat="46.02652" lon="6.52365">
        <ele>2054.8000488281</ele>
        <time>2019-10-13T13:00:54.000Z</time>
      </trkpt>
      <trkpt lat="46.02654" lon="6.5236">
        <ele>2056.1999511719</ele>
        <time>2019-10-13T13:00:58.000Z</time>
      </trkpt>
      <trkpt lat="46.02656" lon="6.52355">
        <ele>2057</ele>
        <time>2019-10-13T13:01:02.000Z</time>
      </trkpt>
      <trkpt lat="46.02657" lon="6.52354">
        <ele>2057.1999511719</ele>
        <time>2019-10-13T13:01:03.000Z</time>
      </trkpt>
      <trkpt lat="46.02659" lon="6.52352">
        <ele>2058</ele>
        <time>2019-10-13T13:01:09.000Z</time>
      </trkpt>
      <trkpt lat="46.02661" lon="6.5235">
        <ele>2058.6000976562</ele>
        <time>2019-10-13T13:01:11.000Z</time>
      </trkpt>
      <trkpt lat="46.02665" lon="6.52349">
        <ele>2059.6000976562</ele>
        <time>2019-10-13T13:01:15.000Z</time>
      </trkpt>
      <trkpt lat="46.02668" lon="6.52344">
        <ele>2060.6000976562</ele>
        <time>2019-10-13T13:01:19.000Z</time>
      </trkpt>
      <trkpt lat="46.02668" lon="6.52344">
        <ele>2061</ele>
        <time>2019-10-13T13:01:20.000Z</time>
      </trkpt>
      <trkpt lat="46.0267" lon="6.52343">
        <ele>2061.8000488281</ele>
        <time>2019-10-13T13:01:22.000Z</time>
      </trkpt>
      <trkpt lat="46.02673" lon="6.5234">
        <ele>2062.1999511719</ele>
        <time>2019-10-13T13:01:27.000Z</time>
      </trkpt>
      <trkpt lat="46.02677" lon="6.52337">
        <ele>2062.3999023438</ele>
        <time>2019-10-13T13:01:31.000Z</time>
      </trkpt>
      <trkpt lat="46.02678" lon="6.52335">
        <ele>2062.8000488281</ele>
        <time>2019-10-13T13:01:34.000Z</time>
      </trkpt>
      <trkpt lat="46.02678" lon="6.52332">
        <ele>2063.3999023438</ele>
        <time>2019-10-13T13:01:37.000Z</time>
      </trkpt>
      <trkpt lat="46.02681" lon="6.52329">
        <ele>2064</ele>
        <time>2019-10-13T13:01:40.000Z</time>
      </trkpt>
      <trkpt lat="46.02681" lon="6.52328">
        <ele>2064</ele>
        <time>2019-10-13T13:01:41.000Z</time>
      </trkpt>
      <trkpt lat="46.02686" lon="6.52328">
        <ele>2064.6000976562</ele>
        <time>2019-10-13T13:01:48.000Z</time>
      </trkpt>
      <trkpt lat="46.02691" lon="6.52322">
        <ele>2064.3999023438</ele>
        <time>2019-10-13T13:01:54.000Z</time>
      </trkpt>
      <trkpt lat="46.02692" lon="6.52319">
        <ele>2065</ele>
        <time>2019-10-13T13:01:58.000Z</time>
      </trkpt>
      <trkpt lat="46.02692" lon="6.52318">
        <ele>2065</ele>
        <time>2019-10-13T13:01:59.000Z</time>
      </trkpt>
      <trkpt lat="46.02692" lon="6.52314">
        <ele>2065.6000976562</ele>
        <time>2019-10-13T13:02:03.000Z</time>
      </trkpt>
      <trkpt lat="46.02691" lon="6.52315">
        <ele>2065.6000976562</ele>
        <time>2019-10-13T13:02:04.000Z</time>
      </trkpt>
      <trkpt lat="46.02692" lon="6.52316">
        <ele>2065.6000976562</ele>
        <time>2019-10-13T13:02:06.000Z</time>
      </trkpt>
      <trkpt lat="46.02694" lon="6.52315">
        <ele>2065.1999511719</ele>
        <time>2019-10-13T13:02:09.000Z</time>
      </trkpt>
      <trkpt lat="46.02699" lon="6.5231">
        <ele>2064</ele>
        <time>2019-10-13T13:02:16.000Z</time>
      </trkpt>
      <trkpt lat="46.02703" lon="6.52306">
        <ele>2064.6000976562</ele>
        <time>2019-10-13T13:02:22.000Z</time>
      </trkpt>
      <trkpt lat="46.02705" lon="6.52301">
        <ele>2065.6000976562</ele>
        <time>2019-10-13T13:02:29.000Z</time>
      </trkpt>
      <trkpt lat="46.02705" lon="6.52298">
        <ele>2066</ele>
        <time>2019-10-13T13:02:33.000Z</time>
      </trkpt>
      <trkpt lat="46.02705" lon="6.52297">
        <ele>2066.3999023438</ele>
        <time>2019-10-13T13:02:36.000Z</time>
      </trkpt>
      <trkpt lat="46.02704" lon="6.52297">
        <ele>2066.3999023438</ele>
        <time>2019-10-13T13:02:38.000Z</time>
      </trkpt>
      <trkpt lat="46.02707" lon="6.52298">
        <ele>2066.3999023438</ele>
        <time>2019-10-13T13:02:46.000Z</time>
      </trkpt>
      <trkpt lat="46.02707" lon="6.52299">
        <ele>2066.3999023438</ele>
        <time>2019-10-13T13:02:49.000Z</time>
      </trkpt>
      <trkpt lat="46.02707" lon="6.52299">
        <ele>2066.6000976562</ele>
        <time>2019-10-13T13:02:53.000Z</time>
      </trkpt>
      <trkpt lat="46.02705" lon="6.52299">
        <ele>2066.8000488281</ele>
        <time>2019-10-13T13:02:56.000Z</time>
      </trkpt>
      <trkpt lat="46.02705" lon="6.52297">
        <ele>2066.6000976562</ele>
        <time>2019-10-13T13:02:59.000Z</time>
      </trkpt>
      <trkpt lat="46.02704" lon="6.52295">
        <ele>2066.6000976562</ele>
        <time>2019-10-13T13:03:07.000Z</time>
      </trkpt>
      <trkpt lat="46.02704" lon="6.52295">
        <ele>2066.6000976562</ele>
        <time>2019-10-13T13:03:08.000Z</time>
      </trkpt>
      <trkpt lat="46.02702" lon="6.52299">
        <ele>2067</ele>
        <time>2019-10-13T13:03:15.000Z</time>
      </trkpt>
      <trkpt lat="46.027" lon="6.52299">
        <ele>2067.1999511719</ele>
        <time>2019-10-13T13:03:18.000Z</time>
      </trkpt>
      <trkpt lat="46.027" lon="6.523">
        <ele>2067.1999511719</ele>
        <time>2019-10-13T13:03:20.000Z</time>
      </trkpt>
      <trkpt lat="46.027" lon="6.523">
        <ele>2067.3999023438</ele>
        <time>2019-10-13T13:03:24.000Z</time>
      </trkpt>
      <trkpt lat="46.02705" lon="6.52299">
        <ele>2067.3999023438</ele>
        <time>2019-10-13T13:03:34.000Z</time>
      </trkpt>
      <trkpt lat="46.02706" lon="6.52297">
        <ele>2067.6000976562</ele>
        <time>2019-10-13T13:03:39.000Z</time>
      </trkpt>
      <trkpt lat="46.02708" lon="6.52295">
        <ele>2066.6000976562</ele>
        <time>2019-10-13T13:03:42.000Z</time>
      </trkpt>
      <trkpt lat="46.02709" lon="6.52291">
        <ele>2066.1999511719</ele>
        <time>2019-10-13T13:03:47.000Z</time>
      </trkpt>
      <trkpt lat="46.02711" lon="6.52289">
        <ele>2066.1999511719</ele>
        <time>2019-10-13T13:03:50.000Z</time>
      </trkpt>
      <trkpt lat="46.02712" lon="6.52286">
        <ele>2066</ele>
        <time>2019-10-13T13:03:53.000Z</time>
      </trkpt>
      <trkpt lat="46.02712" lon="6.52286">
        <ele>2065.6000976562</ele>
        <time>2019-10-13T13:03:56.000Z</time>
      </trkpt>
      <trkpt lat="46.02711" lon="6.52286">
        <ele>2065.3999023438</ele>
        <time>2019-10-13T13:03:58.000Z</time>
      </trkpt>
      <trkpt lat="46.02711" lon="6.52286">
        <ele>2065.1999511719</ele>
        <time>2019-10-13T13:03:59.000Z</time>
      </trkpt>
      <trkpt lat="46.02709" lon="6.52286">
        <ele>2065.1999511719</ele>
        <time>2019-10-13T13:04:04.000Z</time>
      </trkpt>
      <trkpt lat="46.02705" lon="6.52278">
        <ele>2065.3999023438</ele>
        <time>2019-10-13T13:04:10.000Z</time>
      </trkpt>
      <trkpt lat="46.02707" lon="6.52274">
        <ele>2065.6000976562</ele>
        <time>2019-10-13T13:04:17.000Z</time>
      </trkpt>
      <trkpt lat="46.02707" lon="6.52271">
        <ele>2066.3999023438</ele>
        <time>2019-10-13T13:04:23.000Z</time>
      </trkpt>
      <trkpt lat="46.02706" lon="6.52269">
        <ele>2066.6000976562</ele>
        <time>2019-10-13T13:04:24.000Z</time>
      </trkpt>
      <trkpt lat="46.02707" lon="6.52266">
        <ele>2067</ele>
        <time>2019-10-13T13:04:27.000Z</time>
      </trkpt>
      <trkpt lat="46.02708" lon="6.52264">
        <ele>2067</ele>
        <time>2019-10-13T13:04:29.000Z</time>
      </trkpt>
      <trkpt lat="46.02709" lon="6.52264">
        <ele>2066.8000488281</ele>
        <time>2019-10-13T13:04:30.000Z</time>
      </trkpt>
      <trkpt lat="46.02712" lon="6.52257">
        <ele>2067</ele>
        <time>2019-10-13T13:04:36.000Z</time>
      </trkpt>
      <trkpt lat="46.02713" lon="6.52254">
        <ele>2067.6000976562</ele>
        <time>2019-10-13T13:04:38.000Z</time>
      </trkpt>
      <trkpt lat="46.02714" lon="6.52252">
        <ele>2068.8000488281</ele>
        <time>2019-10-13T13:04:41.000Z</time>
      </trkpt>
      <trkpt lat="46.02713" lon="6.52251">
        <ele>2069</ele>
        <time>2019-10-13T13:04:42.000Z</time>
      </trkpt>
      <trkpt lat="46.02713" lon="6.5225">
        <ele>2069.3999023438</ele>
        <time>2019-10-13T13:04:43.000Z</time>
      </trkpt>
      <trkpt lat="46.0271" lon="6.52249">
        <ele>2069.8000488281</ele>
        <time>2019-10-13T13:04:47.000Z</time>
      </trkpt>
      <trkpt lat="46.0271" lon="6.52249">
        <ele>2070</ele>
        <time>2019-10-13T13:04:48.000Z</time>
      </trkpt>
      <trkpt lat="46.02709" lon="6.52248">
        <ele>2070.1999511719</ele>
        <time>2019-10-13T13:04:50.000Z</time>
      </trkpt>
      <trkpt lat="46.02706" lon="6.52244">
        <ele>2070.8000488281</ele>
        <time>2019-10-13T13:04:55.000Z</time>
      </trkpt>
      <trkpt lat="46.02705" lon="6.52244">
        <ele>2071.1999511719</ele>
        <time>2019-10-13T13:04:56.000Z</time>
      </trkpt>
      <trkpt lat="46.02705" lon="6.52243">
        <ele>2071.8000488281</ele>
        <time>2019-10-13T13:04:59.000Z</time>
      </trkpt>
      <trkpt lat="46.02703" lon="6.52245">
        <ele>2072.1999511719</ele>
        <time>2019-10-13T13:05:02.000Z</time>
      </trkpt>
      <trkpt lat="46.02704" lon="6.52244">
        <ele>2072.8000488281</ele>
        <time>2019-10-13T13:05:06.000Z</time>
      </trkpt>
      <trkpt lat="46.02704" lon="6.52243">
        <ele>2072.8000488281</ele>
        <time>2019-10-13T13:05:08.000Z</time>
      </trkpt>
      <trkpt lat="46.02702" lon="6.5224">
        <ele>2072.6000976562</ele>
        <time>2019-10-13T13:05:14.000Z</time>
      </trkpt>
      <trkpt lat="46.02702" lon="6.5224">
        <ele>2072.6000976562</ele>
        <time>2019-10-13T13:05:15.000Z</time>
      </trkpt>
      <trkpt lat="46.02702" lon="6.52238">
        <ele>2073</ele>
        <time>2019-10-13T13:05:18.000Z</time>
      </trkpt>
      <trkpt lat="46.02705" lon="6.52236">
        <ele>2073.8000488281</ele>
        <time>2019-10-13T13:05:23.000Z</time>
      </trkpt>
      <trkpt lat="46.02704" lon="6.52237">
        <ele>2074.1999511719</ele>
        <time>2019-10-13T13:05:24.000Z</time>
      </trkpt>
      <trkpt lat="46.02699" lon="6.52236">
        <ele>2075.1999511719</ele>
        <time>2019-10-13T13:05:32.000Z</time>
      </trkpt>
      <trkpt lat="46.02698" lon="6.52235">
        <ele>2075.1999511719</ele>
        <time>2019-10-13T13:05:33.000Z</time>
      </trkpt>
      <trkpt lat="46.02697" lon="6.52239">
        <ele>2075.8000488281</ele>
        <time>2019-10-13T13:05:38.000Z</time>
      </trkpt>
      <trkpt lat="46.02697" lon="6.52238">
        <ele>2075.8000488281</ele>
        <time>2019-10-13T13:05:39.000Z</time>
      </trkpt>
      <trkpt lat="46.02692" lon="6.52231">
        <ele>2076.1999511719</ele>
        <time>2019-10-13T13:05:43.000Z</time>
      </trkpt>
      <trkpt lat="46.02691" lon="6.52229">
        <ele>2076.3999023438</ele>
        <time>2019-10-13T13:05:44.000Z</time>
      </trkpt>
      <trkpt lat="46.02693" lon="6.52227">
        <ele>2076.8000488281</ele>
        <time>2019-10-13T13:05:54.000Z</time>
      </trkpt>
      <trkpt lat="46.02692" lon="6.52225">
        <ele>2077.3999023438</ele>
        <time>2019-10-13T13:05:59.000Z</time>
      </trkpt>
      <trkpt lat="46.02691" lon="6.52223">
        <ele>2078</ele>
        <time>2019-10-13T13:06:01.000Z</time>
      </trkpt>
      <trkpt lat="46.0269" lon="6.52222">
        <ele>2078.3999023438</ele>
        <time>2019-10-13T13:06:02.000Z</time>
      </trkpt>
      <trkpt lat="46.0269" lon="6.52221">
        <ele>2078.8000488281</ele>
        <time>2019-10-13T13:06:03.000Z</time>
      </trkpt>
      <trkpt lat="46.02689" lon="6.52222">
        <ele>2079.1999511719</ele>
        <time>2019-10-13T13:06:05.000Z</time>
      </trkpt>
      <trkpt lat="46.02689" lon="6.52222">
        <ele>2079.1999511719</ele>
        <time>2019-10-13T13:06:06.000Z</time>
      </trkpt>
      <trkpt lat="46.02688" lon="6.52222">
        <ele>2079.6000976562</ele>
        <time>2019-10-13T13:06:07.000Z</time>
      </trkpt>
      <trkpt lat="46.02684" lon="6.52216">
        <ele>2080.6000976562</ele>
        <time>2019-10-13T13:06:11.000Z</time>
      </trkpt>
      <trkpt lat="46.02683" lon="6.52214">
        <ele>2081.1999511719</ele>
        <time>2019-10-13T13:06:13.000Z</time>
      </trkpt>
      <trkpt lat="46.02682" lon="6.52213">
        <ele>2081.3999023438</ele>
        <time>2019-10-13T13:06:14.000Z</time>
      </trkpt>
      <trkpt lat="46.02679" lon="6.52215">
        <ele>2081.6000976562</ele>
        <time>2019-10-13T13:06:19.000Z</time>
      </trkpt>
      <trkpt lat="46.02678" lon="6.52217">
        <ele>2081.8000488281</ele>
        <time>2019-10-13T13:06:22.000Z</time>
      </trkpt>
      <trkpt lat="46.02678" lon="6.52223">
        <ele>2082.1999511719</ele>
        <time>2019-10-13T13:06:27.000Z</time>
      </trkpt>
      <trkpt lat="46.0268" lon="6.52218">
        <ele>2082.3999023438</ele>
        <time>2019-10-13T13:06:34.000Z</time>
      </trkpt>
      <trkpt lat="46.02681" lon="6.52218">
        <ele>2082.8000488281</ele>
        <time>2019-10-13T13:06:39.000Z</time>
      </trkpt>
      <trkpt lat="46.02681" lon="6.52221">
        <ele>2083</ele>
        <time>2019-10-13T13:06:41.000Z</time>
      </trkpt>
      <trkpt lat="46.02678" lon="6.5222">
        <ele>2082.8000488281</ele>
        <time>2019-10-13T13:06:46.000Z</time>
      </trkpt>
      <trkpt lat="46.02676" lon="6.52218">
        <ele>2083</ele>
        <time>2019-10-13T13:06:48.000Z</time>
      </trkpt>
      <trkpt lat="46.02675" lon="6.52213">
        <ele>2083.8000488281</ele>
        <time>2019-10-13T13:06:51.000Z</time>
      </trkpt>
      <trkpt lat="46.02675" lon="6.52211">
        <ele>2084</ele>
        <time>2019-10-13T13:06:52.000Z</time>
      </trkpt>
      <trkpt lat="46.02675" lon="6.52209">
        <ele>2084.6000976562</ele>
        <time>2019-10-13T13:06:54.000Z</time>
      </trkpt>
      <trkpt lat="46.02675" lon="6.52205">
        <ele>2085</ele>
        <time>2019-10-13T13:06:57.000Z</time>
      </trkpt>
      <trkpt lat="46.02674" lon="6.52201">
        <ele>2086</ele>
        <time>2019-10-13T13:07:00.000Z</time>
      </trkpt>
      <trkpt lat="46.02674" lon="6.522">
        <ele>2086.1999511719</ele>
        <time>2019-10-13T13:07:01.000Z</time>
      </trkpt>
      <trkpt lat="46.02674" lon="6.52197">
        <ele>2086.1999511719</ele>
        <time>2019-10-13T13:07:04.000Z</time>
      </trkpt>
      <trkpt lat="46.02674" lon="6.52197">
        <ele>2086.1999511719</ele>
        <time>2019-10-13T13:07:06.000Z</time>
      </trkpt>
      <trkpt lat="46.02674" lon="6.52197">
        <ele>2086.3999023438</ele>
        <time>2019-10-13T13:07:07.000Z</time>
      </trkpt>
      <trkpt lat="46.02673" lon="6.52195">
        <ele>2087.1999511719</ele>
        <time>2019-10-13T13:07:12.000Z</time>
      </trkpt>
      <trkpt lat="46.02674" lon="6.52196">
        <ele>2087.1999511719</ele>
        <time>2019-10-13T13:07:14.000Z</time>
      </trkpt>
      <trkpt lat="46.02675" lon="6.522">
        <ele>2087.6000976562</ele>
        <time>2019-10-13T13:07:20.000Z</time>
      </trkpt>
      <trkpt lat="46.02676" lon="6.52205">
        <ele>2087.3999023438</ele>
        <time>2019-10-13T13:07:26.000Z</time>
      </trkpt>
      <trkpt lat="46.02676" lon="6.52206">
        <ele>2087.3999023438</ele>
        <time>2019-10-13T13:07:27.000Z</time>
      </trkpt>
      <trkpt lat="46.02672" lon="6.52198">
        <ele>2087.8000488281</ele>
        <time>2019-10-13T13:07:36.000Z</time>
      </trkpt>
      <trkpt lat="46.02667" lon="6.52195">
        <ele>2087.6000976562</ele>
        <time>2019-10-13T13:07:42.000Z</time>
      </trkpt>
      <trkpt lat="46.02669" lon="6.52191">
        <ele>2087.3999023438</ele>
        <time>2019-10-13T13:07:47.000Z</time>
      </trkpt>
      <trkpt lat="46.02668" lon="6.52192">
        <ele>2088</ele>
        <time>2019-10-13T13:07:56.000Z</time>
      </trkpt>
      <trkpt lat="46.0267" lon="6.5219">
        <ele>2088.1999511719</ele>
        <time>2019-10-13T13:08:00.000Z</time>
      </trkpt>
      <trkpt lat="46.02669" lon="6.5219">
        <ele>2088.1999511719</ele>
        <time>2019-10-13T13:08:01.000Z</time>
      </trkpt>
      <trkpt lat="46.02667" lon="6.52186">
        <ele>2089.3999023438</ele>
        <time>2019-10-13T13:08:05.000Z</time>
      </trkpt>
      <trkpt lat="46.02666" lon="6.52185">
        <ele>2090.1999511719</ele>
        <time>2019-10-13T13:08:07.000Z</time>
      </trkpt>
      <trkpt lat="46.02666" lon="6.52185">
        <ele>2090.6000976562</ele>
        <time>2019-10-13T13:08:08.000Z</time>
      </trkpt>
      <trkpt lat="46.02663" lon="6.52183">
        <ele>2091</ele>
        <time>2019-10-13T13:08:12.000Z</time>
      </trkpt>
      <trkpt lat="46.02662" lon="6.52183">
        <ele>2091.8000488281</ele>
        <time>2019-10-13T13:08:14.000Z</time>
      </trkpt>
      <trkpt lat="46.02662" lon="6.52183">
        <ele>2092.3999023438</ele>
        <time>2019-10-13T13:08:16.000Z</time>
      </trkpt>
      <trkpt lat="46.02662" lon="6.52184">
        <ele>2092.6000976562</ele>
        <time>2019-10-13T13:08:17.000Z</time>
      </trkpt>
      <trkpt lat="46.02661" lon="6.52186">
        <ele>2092.6000976562</ele>
        <time>2019-10-13T13:08:19.000Z</time>
      </trkpt>
      <trkpt lat="46.02661" lon="6.52188">
        <ele>2092.6000976562</ele>
        <time>2019-10-13T13:08:25.000Z</time>
      </trkpt>
      <trkpt lat="46.02662" lon="6.52186">
        <ele>2092.6000976562</ele>
        <time>2019-10-13T13:08:27.000Z</time>
      </trkpt>
      <trkpt lat="46.02663" lon="6.52185">
        <ele>2092.8000488281</ele>
        <time>2019-10-13T13:08:31.000Z</time>
      </trkpt>
      <trkpt lat="46.02661" lon="6.52182">
        <ele>2093.6000976562</ele>
        <time>2019-10-13T13:08:35.000Z</time>
      </trkpt>
      <trkpt lat="46.02661" lon="6.5218">
        <ele>2093.8000488281</ele>
        <time>2019-10-13T13:08:37.000Z</time>
      </trkpt>
      <trkpt lat="46.0266" lon="6.52178">
        <ele>2094.6000976562</ele>
        <time>2019-10-13T13:08:41.000Z</time>
      </trkpt>
      <trkpt lat="46.0266" lon="6.52177">
        <ele>2094.8000488281</ele>
        <time>2019-10-13T13:08:42.000Z</time>
      </trkpt>
      <trkpt lat="46.02659" lon="6.52173">
        <ele>2095.8000488281</ele>
        <time>2019-10-13T13:08:45.000Z</time>
      </trkpt>
      <trkpt lat="46.02658" lon="6.52171">
        <ele>2097</ele>
        <time>2019-10-13T13:08:48.000Z</time>
      </trkpt>
      <trkpt lat="46.02656" lon="6.52168">
        <ele>2097.8000488281</ele>
        <time>2019-10-13T13:08:55.000Z</time>
      </trkpt>
      <trkpt lat="46.02656" lon="6.52168">
        <ele>2098</ele>
        <time>2019-10-13T13:08:56.000Z</time>
      </trkpt>
      <trkpt lat="46.02658" lon="6.52167">
        <ele>2098.8000488281</ele>
        <time>2019-10-13T13:09:00.000Z</time>
      </trkpt>
      <trkpt lat="46.0266" lon="6.52167">
        <ele>2099</ele>
        <time>2019-10-13T13:09:07.000Z</time>
      </trkpt>
      <trkpt lat="46.0266" lon="6.52168">
        <ele>2099</ele>
        <time>2019-10-13T13:09:08.000Z</time>
      </trkpt>
      <trkpt lat="46.0266" lon="6.52165">
        <ele>2099</ele>
        <time>2019-10-13T13:09:11.000Z</time>
      </trkpt>
      <trkpt lat="46.0266" lon="6.52165">
        <ele>2099</ele>
        <time>2019-10-13T13:09:12.000Z</time>
      </trkpt>
      <trkpt lat="46.0266" lon="6.52164">
        <ele>2099.1999511719</ele>
        <time>2019-10-13T13:09:13.000Z</time>
      </trkpt>
      <trkpt lat="46.0266" lon="6.52164">
        <ele>2099.1999511719</ele>
        <time>2019-10-13T13:09:17.000Z</time>
      </trkpt>
      <trkpt lat="46.0266" lon="6.52164">
        <ele>2099.1999511719</ele>
        <time>2019-10-13T13:09:18.000Z</time>
      </trkpt>
      <trkpt lat="46.02659" lon="6.52162">
        <ele>2100.1999511719</ele>
        <time>2019-10-13T13:09:23.000Z</time>
      </trkpt>
      <trkpt lat="46.02659" lon="6.52162">
        <ele>2100.3999023438</ele>
        <time>2019-10-13T13:09:24.000Z</time>
      </trkpt>
      <trkpt lat="46.02658" lon="6.52163">
        <ele>2100.8000488281</ele>
        <time>2019-10-13T13:09:32.000Z</time>
      </trkpt>
      <trkpt lat="46.02659" lon="6.52163">
        <ele>2100.8000488281</ele>
        <time>2019-10-13T13:09:33.000Z</time>
      </trkpt>
      <trkpt lat="46.02662" lon="6.52162">
        <ele>2100.3999023438</ele>
        <time>2019-10-13T13:09:37.000Z</time>
      </trkpt>
      <trkpt lat="46.02663" lon="6.52162">
        <ele>2100.1999511719</ele>
        <time>2019-10-13T13:09:39.000Z</time>
      </trkpt>
      <trkpt lat="46.02664" lon="6.52162">
        <ele>2100.1999511719</ele>
        <time>2019-10-13T13:09:40.000Z</time>
      </trkpt>
      <trkpt lat="46.02665" lon="6.52162">
        <ele>2100.1999511719</ele>
        <time>2019-10-13T13:09:41.000Z</time>
      </trkpt>
      <trkpt lat="46.02665" lon="6.52162">
        <ele>2100.1999511719</ele>
        <time>2019-10-13T13:09:42.000Z</time>
      </trkpt>
      <trkpt lat="46.02667" lon="6.52162">
        <ele>2100.1999511719</ele>
        <time>2019-10-13T13:09:46.000Z</time>
      </trkpt>
      <trkpt lat="46.02669" lon="6.52164">
        <ele>2100</ele>
        <time>2019-10-13T13:09:55.000Z</time>
      </trkpt>
      <trkpt lat="46.02668" lon="6.52165">
        <ele>2100</ele>
        <time>2019-10-13T13:09:58.000Z</time>
      </trkpt>
      <trkpt lat="46.02666" lon="6.52169">
        <ele>2100</ele>
        <time>2019-10-13T13:10:03.000Z</time>
      </trkpt>
      <trkpt lat="46.02665" lon="6.52166">
        <ele>2099.8000488281</ele>
        <time>2019-10-13T13:10:06.000Z</time>
      </trkpt>
      <trkpt lat="46.02664" lon="6.52162">
        <ele>2100.1999511719</ele>
        <time>2019-10-13T13:10:10.000Z</time>
      </trkpt>
      <trkpt lat="46.02661" lon="6.5216">
        <ele>2100.6000976562</ele>
        <time>2019-10-13T13:10:15.000Z</time>
      </trkpt>
      <trkpt lat="46.02659" lon="6.52159">
        <ele>2100.8000488281</ele>
        <time>2019-10-13T13:10:18.000Z</time>
      </trkpt>
      <trkpt lat="46.02659" lon="6.52157">
        <ele>2101</ele>
        <time>2019-10-13T13:10:20.000Z</time>
      </trkpt>
      <trkpt lat="46.02659" lon="6.52155">
        <ele>2101.1999511719</ele>
        <time>2019-10-13T13:10:22.000Z</time>
      </trkpt>
      <trkpt lat="46.02657" lon="6.52153">
        <ele>2101.1999511719</ele>
        <time>2019-10-13T13:10:26.000Z</time>
      </trkpt>
      <trkpt lat="46.02658" lon="6.52155">
        <ele>2101</ele>
        <time>2019-10-13T13:10:28.000Z</time>
      </trkpt>
      <trkpt lat="46.02658" lon="6.52154">
        <ele>2100.8000488281</ele>
        <time>2019-10-13T13:10:31.000Z</time>
      </trkpt>
      <trkpt lat="46.02658" lon="6.52154">
        <ele>2101</ele>
        <time>2019-10-13T13:10:34.000Z</time>
      </trkpt>
      <trkpt lat="46.02656" lon="6.52153">
        <ele>2101.3999023438</ele>
        <time>2019-10-13T13:10:39.000Z</time>
      </trkpt>
      <trkpt lat="46.02654" lon="6.52149">
        <ele>2101.8000488281</ele>
        <time>2019-10-13T13:10:44.000Z</time>
      </trkpt>
      <trkpt lat="46.02651" lon="6.52149">
        <ele>2102</ele>
        <time>2019-10-13T13:10:50.000Z</time>
      </trkpt>
      <trkpt lat="46.02652" lon="6.52145">
        <ele>2102.3999023438</ele>
        <time>2019-10-13T13:10:55.000Z</time>
      </trkpt>
      <trkpt lat="46.02653" lon="6.52145">
        <ele>2102.3999023438</ele>
        <time>2019-10-13T13:10:58.000Z</time>
      </trkpt>
      <trkpt lat="46.02654" lon="6.52143">
        <ele>2102.6000976562</ele>
        <time>2019-10-13T13:11:00.000Z</time>
      </trkpt>
      <trkpt lat="46.02655" lon="6.5214">
        <ele>2103.1999511719</ele>
        <time>2019-10-13T13:11:06.000Z</time>
      </trkpt>
      <trkpt lat="46.02655" lon="6.52139">
        <ele>2103.3999023438</ele>
        <time>2019-10-13T13:11:07.000Z</time>
      </trkpt>
      <trkpt lat="46.02655" lon="6.52139">
        <ele>2103.3999023438</ele>
        <time>2019-10-13T13:11:08.000Z</time>
      </trkpt>
      <trkpt lat="46.02655" lon="6.52139">
        <ele>2103.6000976562</ele>
        <time>2019-10-13T13:11:09.000Z</time>
      </trkpt>
      <trkpt lat="46.02655" lon="6.5214">
        <ele>2103.6000976562</ele>
        <time>2019-10-13T13:11:11.000Z</time>
      </trkpt>
      <trkpt lat="46.02653" lon="6.5214">
        <ele>2103.6000976562</ele>
        <time>2019-10-13T13:11:16.000Z</time>
      </trkpt>
      <trkpt lat="46.02653" lon="6.52139">
        <ele>2103.8000488281</ele>
        <time>2019-10-13T13:11:19.000Z</time>
      </trkpt>
      <trkpt lat="46.02653" lon="6.52136">
        <ele>2103.6000976562</ele>
        <time>2019-10-13T13:11:25.000Z</time>
      </trkpt>
      <trkpt lat="46.02652" lon="6.52136">
        <ele>2103.6000976562</ele>
        <time>2019-10-13T13:11:26.000Z</time>
      </trkpt>
      <trkpt lat="46.02648" lon="6.52136">
        <ele>2104</ele>
        <time>2019-10-13T13:11:30.000Z</time>
      </trkpt>
      <trkpt lat="46.02649" lon="6.52133">
        <ele>2104.6000976562</ele>
        <time>2019-10-13T13:11:33.000Z</time>
      </trkpt>
      <trkpt lat="46.02648" lon="6.52131">
        <ele>2106</ele>
        <time>2019-10-13T13:11:36.000Z</time>
      </trkpt>
      <trkpt lat="46.02647" lon="6.52131">
        <ele>2107</ele>
        <time>2019-10-13T13:11:40.000Z</time>
      </trkpt>
      <trkpt lat="46.02648" lon="6.52131">
        <ele>2107</ele>
        <time>2019-10-13T13:11:41.000Z</time>
      </trkpt>
      <trkpt lat="46.02647" lon="6.52133">
        <ele>2108</ele>
        <time>2019-10-13T13:11:46.000Z</time>
      </trkpt>
      <trkpt lat="46.02646" lon="6.52133">
        <ele>2108.3999023438</ele>
        <time>2019-10-13T13:11:47.000Z</time>
      </trkpt>
      <trkpt lat="46.02645" lon="6.52133">
        <ele>2109</ele>
        <time>2019-10-13T13:11:49.000Z</time>
      </trkpt>
      <trkpt lat="46.02644" lon="6.52133">
        <ele>2109.3999023438</ele>
        <time>2019-10-13T13:11:50.000Z</time>
      </trkpt>
      <trkpt lat="46.0264" lon="6.52128">
        <ele>2110.1999511719</ele>
        <time>2019-10-13T13:11:54.000Z</time>
      </trkpt>
      <trkpt lat="46.0264" lon="6.52127">
        <ele>2110.6000976562</ele>
        <time>2019-10-13T13:11:55.000Z</time>
      </trkpt>
      <trkpt lat="46.02638" lon="6.52125">
        <ele>2111</ele>
        <time>2019-10-13T13:11:57.000Z</time>
      </trkpt>
      <trkpt lat="46.02636" lon="6.52125">
        <ele>2111</ele>
        <time>2019-10-13T13:11:59.000Z</time>
      </trkpt>
      <trkpt lat="46.02634" lon="6.52126">
        <ele>2111</ele>
        <time>2019-10-13T13:12:02.000Z</time>
      </trkpt>
      <trkpt lat="46.02634" lon="6.52126">
        <ele>2111</ele>
        <time>2019-10-13T13:12:06.000Z</time>
      </trkpt>
      <trkpt lat="46.02633" lon="6.52124">
        <ele>2111.6000976562</ele>
        <time>2019-10-13T13:12:11.000Z</time>
      </trkpt>
      <trkpt lat="46.0263" lon="6.52123">
        <ele>2112.1999511719</ele>
        <time>2019-10-13T13:12:16.000Z</time>
      </trkpt>
      <trkpt lat="46.02631" lon="6.52124">
        <ele>2112.1999511719</ele>
        <time>2019-10-13T13:12:17.000Z</time>
      </trkpt>
      <trkpt lat="46.02632" lon="6.52122">
        <ele>2112.3999023438</ele>
        <time>2019-10-13T13:12:19.000Z</time>
      </trkpt>
      <trkpt lat="46.02634" lon="6.5212">
        <ele>2112.6000976562</ele>
        <time>2019-10-13T13:12:22.000Z</time>
      </trkpt>
      <trkpt lat="46.02634" lon="6.52119">
        <ele>2112.8000488281</ele>
        <time>2019-10-13T13:12:23.000Z</time>
      </trkpt>
      <trkpt lat="46.02635" lon="6.52119">
        <ele>2113</ele>
        <time>2019-10-13T13:12:24.000Z</time>
      </trkpt>
      <trkpt lat="46.02634" lon="6.52117">
        <ele>2113.8000488281</ele>
        <time>2019-10-13T13:12:26.000Z</time>
      </trkpt>
      <trkpt lat="46.02634" lon="6.52118">
        <ele>2114.3999023438</ele>
        <time>2019-10-13T13:12:28.000Z</time>
      </trkpt>
      <trkpt lat="46.02632" lon="6.52116">
        <ele>2114.3999023438</ele>
        <time>2019-10-13T13:12:37.000Z</time>
      </trkpt>
      <trkpt lat="46.02633" lon="6.52117">
        <ele>2114.1999511719</ele>
        <time>2019-10-13T13:12:40.000Z</time>
      </trkpt>
      <trkpt lat="46.02631" lon="6.52117">
        <ele>2115</ele>
        <time>2019-10-13T13:12:44.000Z</time>
      </trkpt>
      <trkpt lat="46.02629" lon="6.52115">
        <ele>2115.6000976562</ele>
        <time>2019-10-13T13:12:47.000Z</time>
      </trkpt>
      <trkpt lat="46.0263" lon="6.52114">
        <ele>2115.8000488281</ele>
        <time>2019-10-13T13:12:51.000Z</time>
      </trkpt>
      <trkpt lat="46.02629" lon="6.52111">
        <ele>2115.8000488281</ele>
        <time>2019-10-13T13:12:53.000Z</time>
      </trkpt>
      <trkpt lat="46.02629" lon="6.5211">
        <ele>2115.8000488281</ele>
        <time>2019-10-13T13:12:57.000Z</time>
      </trkpt>
      <trkpt lat="46.02629" lon="6.5211">
        <ele>2116</ele>
        <time>2019-10-13T13:12:58.000Z</time>
      </trkpt>
      <trkpt lat="46.02627" lon="6.52114">
        <ele>2116.3999023438</ele>
        <time>2019-10-13T13:13:03.000Z</time>
      </trkpt>
      <trkpt lat="46.02624" lon="6.52116">
        <ele>2117.1999511719</ele>
        <time>2019-10-13T13:13:07.000Z</time>
      </trkpt>
      <trkpt lat="46.02623" lon="6.52115">
        <ele>2117.6000976562</ele>
        <time>2019-10-13T13:13:08.000Z</time>
      </trkpt>
      <trkpt lat="46.02623" lon="6.52113">
        <ele>2118.1999511719</ele>
        <time>2019-10-13T13:13:09.000Z</time>
      </trkpt>
      <trkpt lat="46.02623" lon="6.52111">
        <ele>2118.3999023438</ele>
        <time>2019-10-13T13:13:10.000Z</time>
      </trkpt>
      <trkpt lat="46.0262" lon="6.52108">
        <ele>2118.6000976562</ele>
        <time>2019-10-13T13:13:14.000Z</time>
      </trkpt>
      <trkpt lat="46.02618" lon="6.52104">
        <ele>2119</ele>
        <time>2019-10-13T13:13:18.000Z</time>
      </trkpt>
      <trkpt lat="46.02617" lon="6.52103">
        <ele>2119.3999023438</ele>
        <time>2019-10-13T13:13:19.000Z</time>
      </trkpt>
      <trkpt lat="46.02617" lon="6.52102">
        <ele>2119.8000488281</ele>
        <time>2019-10-13T13:13:20.000Z</time>
      </trkpt>
      <trkpt lat="46.02617" lon="6.521">
        <ele>2120.3999023438</ele>
        <time>2019-10-13T13:13:23.000Z</time>
      </trkpt>
      <trkpt lat="46.02617" lon="6.52099">
        <ele>2120.6000976562</ele>
        <time>2019-10-13T13:13:24.000Z</time>
      </trkpt>
      <trkpt lat="46.02617" lon="6.52098">
        <ele>2120.6000976562</ele>
        <time>2019-10-13T13:13:25.000Z</time>
      </trkpt>
      <trkpt lat="46.02616" lon="6.52097">
        <ele>2121.1999511719</ele>
        <time>2019-10-13T13:13:28.000Z</time>
      </trkpt>
      <trkpt lat="46.02616" lon="6.52097">
        <ele>2121.6000976562</ele>
        <time>2019-10-13T13:13:30.000Z</time>
      </trkpt>
      <trkpt lat="46.02615" lon="6.52093">
        <ele>2122</ele>
        <time>2019-10-13T13:13:34.000Z</time>
      </trkpt>
      <trkpt lat="46.02614" lon="6.52091">
        <ele>2122.1999511719</ele>
        <time>2019-10-13T13:13:39.000Z</time>
      </trkpt>
      <trkpt lat="46.02615" lon="6.52093">
        <ele>2122.1999511719</ele>
        <time>2019-10-13T13:13:47.000Z</time>
      </trkpt>
      <trkpt lat="46.02615" lon="6.52094">
        <ele>2122</ele>
        <time>2019-10-13T13:13:51.000Z</time>
      </trkpt>
      <trkpt lat="46.02615" lon="6.52094">
        <ele>2122.1999511719</ele>
        <time>2019-10-13T13:13:52.000Z</time>
      </trkpt>
      <trkpt lat="46.02616" lon="6.52095">
        <ele>2122</ele>
        <time>2019-10-13T13:13:55.000Z</time>
      </trkpt>
      <trkpt lat="46.02614" lon="6.52092">
        <ele>2121.8000488281</ele>
        <time>2019-10-13T13:14:03.000Z</time>
      </trkpt>
      <trkpt lat="46.02612" lon="6.52088">
        <ele>2121.6000976562</ele>
        <time>2019-10-13T13:14:11.000Z</time>
      </trkpt>
      <trkpt lat="46.02612" lon="6.52085">
        <ele>2121.6000976562</ele>
        <time>2019-10-13T13:14:14.000Z</time>
      </trkpt>
      <trkpt lat="46.02612" lon="6.52087">
        <ele>2122.1999511719</ele>
        <time>2019-10-13T13:14:18.000Z</time>
      </trkpt>
      <trkpt lat="46.02612" lon="6.52088">
        <ele>2122.3999023438</ele>
        <time>2019-10-13T13:14:20.000Z</time>
      </trkpt>
      <trkpt lat="46.02611" lon="6.52081">
        <ele>2122.3999023438</ele>
        <time>2019-10-13T13:14:24.000Z</time>
      </trkpt>
      <trkpt lat="46.0261" lon="6.5208">
        <ele>2122.6000976562</ele>
        <time>2019-10-13T13:14:27.000Z</time>
      </trkpt>
      <trkpt lat="46.0261" lon="6.52085">
        <ele>2122.6000976562</ele>
        <time>2019-10-13T13:14:32.000Z</time>
      </trkpt>
      <trkpt lat="46.02612" lon="6.52088">
        <ele>2122.6000976562</ele>
        <time>2019-10-13T13:14:39.000Z</time>
      </trkpt>
      <trkpt lat="46.02614" lon="6.5209">
        <ele>2123.6000976562</ele>
        <time>2019-10-13T13:14:44.000Z</time>
      </trkpt>
      <trkpt lat="46.02614" lon="6.5209">
        <ele>2123.8000488281</ele>
        <time>2019-10-13T13:14:45.000Z</time>
      </trkpt>
      <trkpt lat="46.02614" lon="6.52089">
        <ele>2123.8000488281</ele>
        <time>2019-10-13T13:14:46.000Z</time>
      </trkpt>
      <trkpt lat="46.02614" lon="6.52088">
        <ele>2123.6000976562</ele>
        <time>2019-10-13T13:14:51.000Z</time>
      </trkpt>
      <trkpt lat="46.02612" lon="6.52082">
        <ele>2123.1999511719</ele>
        <time>2019-10-13T13:14:56.000Z</time>
      </trkpt>
      <trkpt lat="46.02612" lon="6.52081">
        <ele>2123.3999023438</ele>
        <time>2019-10-13T13:14:57.000Z</time>
      </trkpt>
      <trkpt lat="46.02611" lon="6.52074">
        <ele>2124.3999023438</ele>
        <time>2019-10-13T13:15:03.000Z</time>
      </trkpt>
      <trkpt lat="46.02611" lon="6.52073">
        <ele>2124.3999023438</ele>
        <time>2019-10-13T13:15:04.000Z</time>
      </trkpt>
      <trkpt lat="46.0261" lon="6.52071">
        <ele>2124.6000976562</ele>
        <time>2019-10-13T13:15:08.000Z</time>
      </trkpt>
      <trkpt lat="46.02609" lon="6.52068">
        <ele>2124.8000488281</ele>
        <time>2019-10-13T13:15:13.000Z</time>
      </trkpt>
      <trkpt lat="46.02608" lon="6.52066">
        <ele>2125</ele>
        <time>2019-10-13T13:15:15.000Z</time>
      </trkpt>
      <trkpt lat="46.02606" lon="6.52068">
        <ele>2125.1999511719</ele>
        <time>2019-10-13T13:15:19.000Z</time>
      </trkpt>
      <trkpt lat="46.02605" lon="6.52065">
        <ele>2125.8000488281</ele>
        <time>2019-10-13T13:15:22.000Z</time>
      </trkpt>
      <trkpt lat="46.02604" lon="6.52063">
        <ele>2126</ele>
        <time>2019-10-13T13:15:23.000Z</time>
      </trkpt>
      <trkpt lat="46.02603" lon="6.52061">
        <ele>2126.3999023438</ele>
        <time>2019-10-13T13:15:25.000Z</time>
      </trkpt>
      <trkpt lat="46.02602" lon="6.52059">
        <ele>2126.8000488281</ele>
        <time>2019-10-13T13:15:27.000Z</time>
      </trkpt>
      <trkpt lat="46.02602" lon="6.52059">
        <ele>2127</ele>
        <time>2019-10-13T13:15:28.000Z</time>
      </trkpt>
      <trkpt lat="46.026" lon="6.52057">
        <ele>2128</ele>
        <time>2019-10-13T13:15:30.000Z</time>
      </trkpt>
      <trkpt lat="46.026" lon="6.52056">
        <ele>2128.1999511719</ele>
        <time>2019-10-13T13:15:31.000Z</time>
      </trkpt>
      <trkpt lat="46.02597" lon="6.52054">
        <ele>2128.8000488281</ele>
        <time>2019-10-13T13:15:34.000Z</time>
      </trkpt>
      <trkpt lat="46.02596" lon="6.52054">
        <ele>2128.8000488281</ele>
        <time>2019-10-13T13:15:37.000Z</time>
      </trkpt>
      <trkpt lat="46.02596" lon="6.52051">
        <ele>2129.1999511719</ele>
        <time>2019-10-13T13:15:42.000Z</time>
      </trkpt>
      <trkpt lat="46.02596" lon="6.5205">
        <ele>2129.1999511719</ele>
        <time>2019-10-13T13:15:43.000Z</time>
      </trkpt>
      <trkpt lat="46.02596" lon="6.52047">
        <ele>2129.3999023438</ele>
        <time>2019-10-13T13:15:47.000Z</time>
      </trkpt>
      <trkpt lat="46.02596" lon="6.52045">
        <ele>2129.3999023438</ele>
        <time>2019-10-13T13:15:48.000Z</time>
      </trkpt>
      <trkpt lat="46.02593" lon="6.52042">
        <ele>2129</ele>
        <time>2019-10-13T13:15:53.000Z</time>
      </trkpt>
      <trkpt lat="46.02591" lon="6.52037">
        <ele>2129.3999023438</ele>
        <time>2019-10-13T13:15:58.000Z</time>
      </trkpt>
      <trkpt lat="46.02591" lon="6.52037">
        <ele>2129.3999023438</ele>
        <time>2019-10-13T13:15:59.000Z</time>
      </trkpt>
      <trkpt lat="46.0259" lon="6.52037">
        <ele>2129.8000488281</ele>
        <time>2019-10-13T13:16:02.000Z</time>
      </trkpt>
      <trkpt lat="46.02588" lon="6.52034">
        <ele>2129.8000488281</ele>
        <time>2019-10-13T13:16:05.000Z</time>
      </trkpt>
      <trkpt lat="46.02587" lon="6.52031">
        <ele>2130.1999511719</ele>
        <time>2019-10-13T13:16:09.000Z</time>
      </trkpt>
      <trkpt lat="46.02587" lon="6.5203">
        <ele>2130.1999511719</ele>
        <time>2019-10-13T13:16:11.000Z</time>
      </trkpt>
      <trkpt lat="46.02587" lon="6.5203">
        <ele>2130.1999511719</ele>
        <time>2019-10-13T13:16:13.000Z</time>
      </trkpt>
      <trkpt lat="46.02585" lon="6.5203">
        <ele>2130.1999511719</ele>
        <time>2019-10-13T13:16:17.000Z</time>
      </trkpt>
      <trkpt lat="46.02586" lon="6.5203">
        <ele>2130.3999023438</ele>
        <time>2019-10-13T13:16:18.000Z</time>
      </trkpt>
      <trkpt lat="46.02587" lon="6.52028">
        <ele>2131.3999023438</ele>
        <time>2019-10-13T13:16:20.000Z</time>
      </trkpt>
      <trkpt lat="46.02588" lon="6.52025">
        <ele>2132.6000976562</ele>
        <time>2019-10-13T13:16:22.000Z</time>
      </trkpt>
      <trkpt lat="46.02588" lon="6.52027">
        <ele>2133.6000976562</ele>
        <time>2019-10-13T13:16:25.000Z</time>
      </trkpt>
      <trkpt lat="46.0259" lon="6.52024">
        <ele>2133.8000488281</ele>
        <time>2019-10-13T13:16:34.000Z</time>
      </trkpt>
      <trkpt lat="46.0259" lon="6.52023">
        <ele>2133</ele>
        <time>2019-10-13T13:16:36.000Z</time>
      </trkpt>
      <trkpt lat="46.02589" lon="6.52021">
        <ele>2132.3999023438</ele>
        <time>2019-10-13T13:16:40.000Z</time>
      </trkpt>
      <trkpt lat="46.02589" lon="6.5202">
        <ele>2132.1999511719</ele>
        <time>2019-10-13T13:16:41.000Z</time>
      </trkpt>
      <trkpt lat="46.02585" lon="6.52013">
        <ele>2131.1999511719</ele>
        <time>2019-10-13T13:16:45.000Z</time>
      </trkpt>
      <trkpt lat="46.02584" lon="6.52012">
        <ele>2131</ele>
        <time>2019-10-13T13:16:46.000Z</time>
      </trkpt>
      <trkpt lat="46.02584" lon="6.52008">
        <ele>2130.3999023438</ele>
        <time>2019-10-13T13:16:49.000Z</time>
      </trkpt>
      <trkpt lat="46.02584" lon="6.52006">
        <ele>2130.1999511719</ele>
        <time>2019-10-13T13:16:50.000Z</time>
      </trkpt>
      <trkpt lat="46.02584" lon="6.52002">
        <ele>2130</ele>
        <time>2019-10-13T13:16:53.000Z</time>
      </trkpt>
      <trkpt lat="46.02585" lon="6.51998">
        <ele>2130.6000976562</ele>
        <time>2019-10-13T13:16:59.000Z</time>
      </trkpt>
      <trkpt lat="46.02584" lon="6.51995">
        <ele>2131</ele>
        <time>2019-10-13T13:17:04.000Z</time>
      </trkpt>
      <trkpt lat="46.02583" lon="6.51994">
        <ele>2131.1999511719</ele>
        <time>2019-10-13T13:17:06.000Z</time>
      </trkpt>
      <trkpt lat="46.02581" lon="6.51988">
        <ele>2131.8000488281</ele>
        <time>2019-10-13T13:17:10.000Z</time>
      </trkpt>
      <trkpt lat="46.0258" lon="6.51987">
        <ele>2132.1999511719</ele>
        <time>2019-10-13T13:17:12.000Z</time>
      </trkpt>
      <trkpt lat="46.0258" lon="6.51985">
        <ele>2133</ele>
        <time>2019-10-13T13:17:16.000Z</time>
      </trkpt>
      <trkpt lat="46.0258" lon="6.51986">
        <ele>2132</ele>
        <time>2019-10-13T13:17:22.000Z</time>
      </trkpt>
      <trkpt lat="46.02579" lon="6.51978">
        <ele>2131.8000488281</ele>
        <time>2019-10-13T13:17:26.000Z</time>
      </trkpt>
      <trkpt lat="46.02579" lon="6.51976">
        <ele>2132</ele>
        <time>2019-10-13T13:17:27.000Z</time>
      </trkpt>
      <trkpt lat="46.02579" lon="6.51973">
        <ele>2132</ele>
        <time>2019-10-13T13:17:29.000Z</time>
      </trkpt>
      <trkpt lat="46.0258" lon="6.51971">
        <ele>2132.3999023438</ele>
        <time>2019-10-13T13:17:33.000Z</time>
      </trkpt>
      <trkpt lat="46.02578" lon="6.5197">
        <ele>2133</ele>
        <time>2019-10-13T13:17:40.000Z</time>
      </trkpt>
      <trkpt lat="46.02578" lon="6.51974">
        <ele>2133</ele>
        <time>2019-10-13T13:17:45.000Z</time>
      </trkpt>
      <trkpt lat="46.02576" lon="6.51967">
        <ele>2133.1999511719</ele>
        <time>2019-10-13T13:17:54.000Z</time>
      </trkpt>
      <trkpt lat="46.02576" lon="6.51965">
        <ele>2133.3999023438</ele>
        <time>2019-10-13T13:17:55.000Z</time>
      </trkpt>
      <trkpt lat="46.02575" lon="6.51961">
        <ele>2134</ele>
        <time>2019-10-13T13:17:57.000Z</time>
      </trkpt>
      <trkpt lat="46.02573" lon="6.5196">
        <ele>2134.3999023438</ele>
        <time>2019-10-13T13:18:00.000Z</time>
      </trkpt>
      <trkpt lat="46.02574" lon="6.5196">
        <ele>2134.3999023438</ele>
        <time>2019-10-13T13:18:01.000Z</time>
      </trkpt>
      <trkpt lat="46.02574" lon="6.51959">
        <ele>2134.6000976562</ele>
        <time>2019-10-13T13:18:02.000Z</time>
      </trkpt>
      <trkpt lat="46.02578" lon="6.51956">
        <ele>2134.3999023438</ele>
        <time>2019-10-13T13:18:05.000Z</time>
      </trkpt>
      <trkpt lat="46.02578" lon="6.51956">
        <ele>2134.3999023438</ele>
        <time>2019-10-13T13:18:06.000Z</time>
      </trkpt>
      <trkpt lat="46.02578" lon="6.51956">
        <ele>2134.3999023438</ele>
        <time>2019-10-13T13:18:07.000Z</time>
      </trkpt>
      <trkpt lat="46.02576" lon="6.51956">
        <ele>2134</ele>
        <time>2019-10-13T13:18:11.000Z</time>
      </trkpt>
      <trkpt lat="46.02572" lon="6.51955">
        <ele>2133.3999023438</ele>
        <time>2019-10-13T13:18:18.000Z</time>
      </trkpt>
      <trkpt lat="46.02572" lon="6.51955">
        <ele>2133.3999023438</ele>
        <time>2019-10-13T13:18:19.000Z</time>
      </trkpt>
      <trkpt lat="46.0257" lon="6.51953">
        <ele>2132.3999023438</ele>
        <time>2019-10-13T13:18:25.000Z</time>
      </trkpt>
      <trkpt lat="46.0257" lon="6.51953">
        <ele>2132.1999511719</ele>
        <time>2019-10-13T13:18:26.000Z</time>
      </trkpt>
      <trkpt lat="46.02567" lon="6.5195">
        <ele>2131.3999023438</ele>
        <time>2019-10-13T13:18:31.000Z</time>
      </trkpt>
      <trkpt lat="46.02566" lon="6.51948">
        <ele>2131.1999511719</ele>
        <time>2019-10-13T13:18:34.000Z</time>
      </trkpt>
      <trkpt lat="46.02566" lon="6.51948">
        <ele>2131</ele>
        <time>2019-10-13T13:18:35.000Z</time>
      </trkpt>
      <trkpt lat="46.02567" lon="6.51953">
        <ele>2131.1999511719</ele>
        <time>2019-10-13T13:18:42.000Z</time>
      </trkpt>
      <trkpt lat="46.02566" lon="6.51947">
        <ele>2131</ele>
        <time>2019-10-13T13:18:49.000Z</time>
      </trkpt>
      <trkpt lat="46.02566" lon="6.5195">
        <ele>2130.8000488281</ele>
        <time>2019-10-13T13:18:52.000Z</time>
      </trkpt>
      <trkpt lat="46.02566" lon="6.51951">
        <ele>2130.8000488281</ele>
        <time>2019-10-13T13:18:53.000Z</time>
      </trkpt>
      <trkpt lat="46.02566" lon="6.51952">
        <ele>2131</ele>
        <time>2019-10-13T13:18:55.000Z</time>
      </trkpt>
      <trkpt lat="46.02566" lon="6.51952">
        <ele>2131</ele>
        <time>2019-10-13T13:18:56.000Z</time>
      </trkpt>
      <trkpt lat="46.02565" lon="6.51954">
        <ele>2131</ele>
        <time>2019-10-13T13:19:00.000Z</time>
      </trkpt>
      <trkpt lat="46.02565" lon="6.51956">
        <ele>2131</ele>
        <time>2019-10-13T13:19:04.000Z</time>
      </trkpt>
      <trkpt lat="46.02566" lon="6.51956">
        <ele>2131</ele>
        <time>2019-10-13T13:19:09.000Z</time>
      </trkpt>
      <trkpt lat="46.02564" lon="6.51946">
        <ele>2130.6000976562</ele>
        <time>2019-10-13T13:19:14.000Z</time>
      </trkpt>
      <trkpt lat="46.02564" lon="6.51949">
        <ele>2130.6000976562</ele>
        <time>2019-10-13T13:19:19.000Z</time>
      </trkpt>
      <trkpt lat="46.02561" lon="6.51951">
        <ele>2130</ele>
        <time>2019-10-13T13:19:25.000Z</time>
      </trkpt>
      <trkpt lat="46.02561" lon="6.5195">
        <ele>2129.8000488281</ele>
        <time>2019-10-13T13:19:26.000Z</time>
      </trkpt>
      <trkpt lat="46.02558" lon="6.51953">
        <ele>2129</ele>
        <time>2019-10-13T13:19:30.000Z</time>
      </trkpt>
      <trkpt lat="46.02557" lon="6.51953">
        <ele>2128.1999511719</ele>
        <time>2019-10-13T13:19:31.000Z</time>
      </trkpt>
      <trkpt lat="46.02556" lon="6.51954">
        <ele>2127.8000488281</ele>
        <time>2019-10-13T13:19:32.000Z</time>
      </trkpt>
      <trkpt lat="46.02553" lon="6.51955">
        <ele>2126.8000488281</ele>
        <time>2019-10-13T13:19:36.000Z</time>
      </trkpt>
      <trkpt lat="46.02551" lon="6.51955">
        <ele>2126.6000976562</ele>
        <time>2019-10-13T13:19:37.000Z</time>
      </trkpt>
      <trkpt lat="46.02543" lon="6.51951">
        <ele>2125.8000488281</ele>
        <time>2019-10-13T13:19:41.000Z</time>
      </trkpt>
      <trkpt lat="46.02541" lon="6.5195">
        <ele>2125.6000976562</ele>
        <time>2019-10-13T13:19:42.000Z</time>
      </trkpt>
      <trkpt lat="46.0254" lon="6.51949">
        <ele>2125.3999023438</ele>
        <time>2019-10-13T13:19:43.000Z</time>
      </trkpt>
      <trkpt lat="46.02533" lon="6.51944">
        <ele>2124.8000488281</ele>
        <time>2019-10-13T13:19:48.000Z</time>
      </trkpt>
      <trkpt lat="46.02532" lon="6.51942">
        <ele>2125.1999511719</ele>
        <time>2019-10-13T13:19:51.000Z</time>
      </trkpt>
      <trkpt lat="46.02532" lon="6.51939">
        <ele>2125.6000976562</ele>
        <time>2019-10-13T13:19:53.000Z</time>
      </trkpt>
      <trkpt lat="46.02532" lon="6.51938">
        <ele>2125.8000488281</ele>
        <time>2019-10-13T13:19:54.000Z</time>
      </trkpt>
      <trkpt lat="46.02529" lon="6.51933">
        <ele>2126.8000488281</ele>
        <time>2019-10-13T13:19:59.000Z</time>
      </trkpt>
      <trkpt lat="46.02528" lon="6.51932">
        <ele>2127.1999511719</ele>
        <time>2019-10-13T13:20:00.000Z</time>
      </trkpt>
      <trkpt lat="46.02527" lon="6.51931">
        <ele>2127.8000488281</ele>
        <time>2019-10-13T13:20:02.000Z</time>
      </trkpt>
      <trkpt lat="46.02527" lon="6.51931">
        <ele>2128.1999511719</ele>
        <time>2019-10-13T13:20:03.000Z</time>
      </trkpt>
      <trkpt lat="46.02526" lon="6.51929">
        <ele>2128.3999023438</ele>
        <time>2019-10-13T13:20:05.000Z</time>
      </trkpt>
      <trkpt lat="46.02526" lon="6.51928">
        <ele>2128.6000976562</ele>
        <time>2019-10-13T13:20:06.000Z</time>
      </trkpt>
      <trkpt lat="46.02524" lon="6.51926">
        <ele>2129</ele>
        <time>2019-10-13T13:20:08.000Z</time>
      </trkpt>
      <trkpt lat="46.02523" lon="6.51925">
        <ele>2129.1999511719</ele>
        <time>2019-10-13T13:20:09.000Z</time>
      </trkpt>
      <trkpt lat="46.02522" lon="6.51924">
        <ele>2130.1999511719</ele>
        <time>2019-10-13T13:20:12.000Z</time>
      </trkpt>
      <trkpt lat="46.02516" lon="6.5192">
        <ele>2131.3999023438</ele>
        <time>2019-10-13T13:20:19.000Z</time>
      </trkpt>
      <trkpt lat="46.02513" lon="6.51916">
        <ele>2132.1999511719</ele>
        <time>2019-10-13T13:20:23.000Z</time>
      </trkpt>
      <trkpt lat="46.02512" lon="6.51914">
        <ele>2132.3999023438</ele>
        <time>2019-10-13T13:20:24.000Z</time>
      </trkpt>
      <trkpt lat="46.02512" lon="6.51914">
        <ele>2132.8000488281</ele>
        <time>2019-10-13T13:20:25.000Z</time>
      </trkpt>
      <trkpt lat="46.02512" lon="6.51914">
        <ele>2133</ele>
        <time>2019-10-13T13:20:26.000Z</time>
      </trkpt>
      <trkpt lat="46.02511" lon="6.5191">
        <ele>2133.3999023438</ele>
        <time>2019-10-13T13:20:29.000Z</time>
      </trkpt>
      <trkpt lat="46.0251" lon="6.51908">
        <ele>2133.6000976562</ele>
        <time>2019-10-13T13:20:31.000Z</time>
      </trkpt>
      <trkpt lat="46.02509" lon="6.51904">
        <ele>2134.1999511719</ele>
        <time>2019-10-13T13:20:35.000Z</time>
      </trkpt>
      <trkpt lat="46.02509" lon="6.51901">
        <ele>2134.6000976562</ele>
        <time>2019-10-13T13:20:37.000Z</time>
      </trkpt>
      <trkpt lat="46.02509" lon="6.51899">
        <ele>2134.6000976562</ele>
        <time>2019-10-13T13:20:38.000Z</time>
      </trkpt>
      <trkpt lat="46.02509" lon="6.51898">
        <ele>2135</ele>
        <time>2019-10-13T13:20:39.000Z</time>
      </trkpt>
      <trkpt lat="46.02509" lon="6.51895">
        <ele>2135</ele>
        <time>2019-10-13T13:20:41.000Z</time>
      </trkpt>
      <trkpt lat="46.02509" lon="6.51892">
        <ele>2135.3999023438</ele>
        <time>2019-10-13T13:20:43.000Z</time>
      </trkpt>
      <trkpt lat="46.02509" lon="6.51891">
        <ele>2135.3999023438</ele>
        <time>2019-10-13T13:20:44.000Z</time>
      </trkpt>
      <trkpt lat="46.02508" lon="6.51892">
        <ele>2135.3999023438</ele>
        <time>2019-10-13T13:20:45.000Z</time>
      </trkpt>
      <trkpt lat="46.02508" lon="6.51894">
        <ele>2135.8000488281</ele>
        <time>2019-10-13T13:20:47.000Z</time>
      </trkpt>
      <trkpt lat="46.02509" lon="6.51895">
        <ele>2137</ele>
        <time>2019-10-13T13:20:50.000Z</time>
      </trkpt>
      <trkpt lat="46.02512" lon="6.51899">
        <ele>2137.3999023438</ele>
        <time>2019-10-13T13:20:53.000Z</time>
      </trkpt>
      <trkpt lat="46.02516" lon="6.51897">
        <ele>2137.3999023438</ele>
        <time>2019-10-13T13:20:58.000Z</time>
      </trkpt>
      <trkpt lat="46.02507" lon="6.51892">
        <ele>2137.3999023438</ele>
        <time>2019-10-13T13:21:05.000Z</time>
      </trkpt>
      <trkpt lat="46.02505" lon="6.51889">
        <ele>2138.1999511719</ele>
        <time>2019-10-13T13:21:09.000Z</time>
      </trkpt>
      <trkpt lat="46.02505" lon="6.51887">
        <ele>2138.8000488281</ele>
        <time>2019-10-13T13:21:11.000Z</time>
      </trkpt>
      <trkpt lat="46.02504" lon="6.51885">
        <ele>2139.1999511719</ele>
        <time>2019-10-13T13:21:14.000Z</time>
      </trkpt>
      <trkpt lat="46.02502" lon="6.51884">
        <ele>2139.6000976562</ele>
        <time>2019-10-13T13:21:17.000Z</time>
      </trkpt>
      <trkpt lat="46.025" lon="6.51883">
        <ele>2140.1999511719</ele>
        <time>2019-10-13T13:21:20.000Z</time>
      </trkpt>
      <trkpt lat="46.02497" lon="6.51883">
        <ele>2140.8000488281</ele>
        <time>2019-10-13T13:21:24.000Z</time>
      </trkpt>
      <trkpt lat="46.02493" lon="6.5188">
        <ele>2141.1999511719</ele>
        <time>2019-10-13T13:21:30.000Z</time>
      </trkpt>
      <trkpt lat="46.02492" lon="6.51879">
        <ele>2141.6000976562</ele>
        <time>2019-10-13T13:21:34.000Z</time>
      </trkpt>
      <trkpt lat="46.02491" lon="6.51878">
        <ele>2141.8000488281</ele>
        <time>2019-10-13T13:21:36.000Z</time>
      </trkpt>
      <trkpt lat="46.02489" lon="6.51877">
        <ele>2142.1999511719</ele>
        <time>2019-10-13T13:21:39.000Z</time>
      </trkpt>
      <trkpt lat="46.02486" lon="6.51875">
        <ele>2143</ele>
        <time>2019-10-13T13:21:42.000Z</time>
      </trkpt>
      <trkpt lat="46.02484" lon="6.51874">
        <ele>2143.3999023438</ele>
        <time>2019-10-13T13:21:44.000Z</time>
      </trkpt>
      <trkpt lat="46.02484" lon="6.51873">
        <ele>2143.3999023438</ele>
        <time>2019-10-13T13:21:45.000Z</time>
      </trkpt>
      <trkpt lat="46.02483" lon="6.51872">
        <ele>2143.6000976562</ele>
        <time>2019-10-13T13:21:46.000Z</time>
      </trkpt>
      <trkpt lat="46.0248" lon="6.5187">
        <ele>2144.6000976562</ele>
        <time>2019-10-13T13:21:51.000Z</time>
      </trkpt>
      <trkpt lat="46.02479" lon="6.5187">
        <ele>2144.8000488281</ele>
        <time>2019-10-13T13:21:52.000Z</time>
      </trkpt>
      <trkpt lat="46.02478" lon="6.5187">
        <ele>2145.1999511719</ele>
        <time>2019-10-13T13:21:53.000Z</time>
      </trkpt>
      <trkpt lat="46.02477" lon="6.51869">
        <ele>2145.6000976562</ele>
        <time>2019-10-13T13:21:54.000Z</time>
      </trkpt>
      <trkpt lat="46.02472" lon="6.51865">
        <ele>2146.1999511719</ele>
        <time>2019-10-13T13:21:58.000Z</time>
      </trkpt>
      <trkpt lat="46.02471" lon="6.51864">
        <ele>2146.8000488281</ele>
        <time>2019-10-13T13:22:00.000Z</time>
      </trkpt>
      <trkpt lat="46.02471" lon="6.51863">
        <ele>2147.8000488281</ele>
        <time>2019-10-13T13:22:03.000Z</time>
      </trkpt>
      <trkpt lat="46.02471" lon="6.51863">
        <ele>2148</ele>
        <time>2019-10-13T13:22:04.000Z</time>
      </trkpt>
      <trkpt lat="46.0247" lon="6.51863">
        <ele>2148.3999023438</ele>
        <time>2019-10-13T13:22:08.000Z</time>
      </trkpt>
      <trkpt lat="46.02471" lon="6.51864">
        <ele>2148.6000976562</ele>
        <time>2019-10-13T13:22:12.000Z</time>
      </trkpt>
      <trkpt lat="46.02472" lon="6.51864">
        <ele>2149</ele>
        <time>2019-10-13T13:22:17.000Z</time>
      </trkpt>
      <trkpt lat="46.02472" lon="6.51864">
        <ele>2149.6000976562</ele>
        <time>2019-10-13T13:22:19.000Z</time>
      </trkpt>
      <trkpt lat="46.02469" lon="6.51862">
        <ele>2150</ele>
        <time>2019-10-13T13:22:29.000Z</time>
      </trkpt>
      <trkpt lat="46.02467" lon="6.51859">
        <ele>2149.8000488281</ele>
        <time>2019-10-13T13:22:34.000Z</time>
      </trkpt>
      <trkpt lat="46.02467" lon="6.5186">
        <ele>2149.6000976562</ele>
        <time>2019-10-13T13:22:38.000Z</time>
      </trkpt>
      <trkpt lat="46.02467" lon="6.51858">
        <ele>2149.6000976562</ele>
        <time>2019-10-13T13:22:40.000Z</time>
      </trkpt>
      <trkpt lat="46.02465" lon="6.51857">
        <ele>2149.6000976562</ele>
        <time>2019-10-13T13:22:41.000Z</time>
      </trkpt>
      <trkpt lat="46.02463" lon="6.51854">
        <ele>2149.3999023438</ele>
        <time>2019-10-13T13:22:44.000Z</time>
      </trkpt>
      <trkpt lat="46.0246" lon="6.51853">
        <ele>2149</ele>
        <time>2019-10-13T13:22:49.000Z</time>
      </trkpt>
      <trkpt lat="46.02456" lon="6.51849">
        <ele>2148.1999511719</ele>
        <time>2019-10-13T13:22:53.000Z</time>
      </trkpt>
      <trkpt lat="46.02453" lon="6.51847">
        <ele>2148.1999511719</ele>
        <time>2019-10-13T13:22:55.000Z</time>
      </trkpt>
      <trkpt lat="46.02449" lon="6.51844">
        <ele>2148.8000488281</ele>
        <time>2019-10-13T13:22:59.000Z</time>
      </trkpt>
      <trkpt lat="46.02448" lon="6.51841">
        <ele>2148.8000488281</ele>
        <time>2019-10-13T13:23:01.000Z</time>
      </trkpt>
      <trkpt lat="46.02447" lon="6.5184">
        <ele>2148.6000976562</ele>
        <time>2019-10-13T13:23:02.000Z</time>
      </trkpt>
      <trkpt lat="46.02444" lon="6.51835">
        <ele>2148.6000976562</ele>
        <time>2019-10-13T13:23:05.000Z</time>
      </trkpt>
      <trkpt lat="46.02444" lon="6.51833">
        <ele>2148.6000976562</ele>
        <time>2019-10-13T13:23:07.000Z</time>
      </trkpt>
      <trkpt lat="46.02442" lon="6.51826">
        <ele>2148.8000488281</ele>
        <time>2019-10-13T13:23:12.000Z</time>
      </trkpt>
      <trkpt lat="46.02442" lon="6.51825">
        <ele>2148.6000976562</ele>
        <time>2019-10-13T13:23:13.000Z</time>
      </trkpt>
      <trkpt lat="46.02441" lon="6.51823">
        <ele>2148.8000488281</ele>
        <time>2019-10-13T13:23:15.000Z</time>
      </trkpt>
      <trkpt lat="46.02441" lon="6.51822">
        <ele>2148.8000488281</ele>
        <time>2019-10-13T13:23:16.000Z</time>
      </trkpt>
      <trkpt lat="46.0244" lon="6.51818">
        <ele>2148.8000488281</ele>
        <time>2019-10-13T13:23:21.000Z</time>
      </trkpt>
      <trkpt lat="46.02436" lon="6.5181">
        <ele>2150.1999511719</ele>
        <time>2019-10-13T13:23:29.000Z</time>
      </trkpt>
      <trkpt lat="46.02435" lon="6.51807">
        <ele>2150.3999023438</ele>
        <time>2019-10-13T13:23:32.000Z</time>
      </trkpt>
      <trkpt lat="46.02435" lon="6.51805">
        <ele>2150.6000976562</ele>
        <time>2019-10-13T13:23:33.000Z</time>
      </trkpt>
      <trkpt lat="46.02433" lon="6.51803">
        <ele>2150.8000488281</ele>
        <time>2019-10-13T13:23:35.000Z</time>
      </trkpt>
      <trkpt lat="46.02429" lon="6.51797">
        <ele>2150.8000488281</ele>
        <time>2019-10-13T13:23:42.000Z</time>
      </trkpt>
      <trkpt lat="46.02428" lon="6.51798">
        <ele>2151.1999511719</ele>
        <time>2019-10-13T13:23:44.000Z</time>
      </trkpt>
      <trkpt lat="46.02426" lon="6.51793">
        <ele>2152</ele>
        <time>2019-10-13T13:23:49.000Z</time>
      </trkpt>
      <trkpt lat="46.02425" lon="6.51792">
        <ele>2152.1999511719</ele>
        <time>2019-10-13T13:23:50.000Z</time>
      </trkpt>
      <trkpt lat="46.02422" lon="6.51788">
        <ele>2153.3999023438</ele>
        <time>2019-10-13T13:23:54.000Z</time>
      </trkpt>
      <trkpt lat="46.02422" lon="6.51787">
        <ele>2153.6000976562</ele>
        <time>2019-10-13T13:23:55.000Z</time>
      </trkpt>
      <trkpt lat="46.02421" lon="6.51787">
        <ele>2154</ele>
        <time>2019-10-13T13:23:56.000Z</time>
      </trkpt>
      <trkpt lat="46.02418" lon="6.51786">
        <ele>2154.3999023438</ele>
        <time>2019-10-13T13:23:59.000Z</time>
      </trkpt>
      <trkpt lat="46.02417" lon="6.51785">
        <ele>2154.6000976562</ele>
        <time>2019-10-13T13:24:00.000Z</time>
      </trkpt>
      <trkpt lat="46.02416" lon="6.51784">
        <ele>2154.8000488281</ele>
        <time>2019-10-13T13:24:01.000Z</time>
      </trkpt>
      <trkpt lat="46.02413" lon="6.51782">
        <ele>2155.6000976562</ele>
        <time>2019-10-13T13:24:05.000Z</time>
      </trkpt>
      <trkpt lat="46.02412" lon="6.51781">
        <ele>2156</ele>
        <time>2019-10-13T13:24:07.000Z</time>
      </trkpt>
      <trkpt lat="46.0241" lon="6.5178">
        <ele>2156.1999511719</ele>
        <time>2019-10-13T13:24:08.000Z</time>
      </trkpt>
      <trkpt lat="46.02409" lon="6.51778">
        <ele>2156.3999023438</ele>
        <time>2019-10-13T13:24:09.000Z</time>
      </trkpt>
      <trkpt lat="46.02408" lon="6.51777">
        <ele>2156.8000488281</ele>
        <time>2019-10-13T13:24:11.000Z</time>
      </trkpt>
      <trkpt lat="46.02406" lon="6.51773">
        <ele>2157.3999023438</ele>
        <time>2019-10-13T13:24:14.000Z</time>
      </trkpt>
      <trkpt lat="46.02406" lon="6.51774">
        <ele>2157.3999023438</ele>
        <time>2019-10-13T13:24:16.000Z</time>
      </trkpt>
      <trkpt lat="46.02406" lon="6.51769">
        <ele>2157.8000488281</ele>
        <time>2019-10-13T13:24:21.000Z</time>
      </trkpt>
      <trkpt lat="46.02405" lon="6.51767">
        <ele>2158</ele>
        <time>2019-10-13T13:24:22.000Z</time>
      </trkpt>
      <trkpt lat="46.02403" lon="6.51763">
        <ele>2158.6000976562</ele>
        <time>2019-10-13T13:24:26.000Z</time>
      </trkpt>
      <trkpt lat="46.02402" lon="6.51761">
        <ele>2159.1999511719</ele>
        <time>2019-10-13T13:24:28.000Z</time>
      </trkpt>
      <trkpt lat="46.024" lon="6.51756">
        <ele>2159.6000976562</ele>
        <time>2019-10-13T13:24:32.000Z</time>
      </trkpt>
      <trkpt lat="46.02398" lon="6.51752">
        <ele>2160.1999511719</ele>
        <time>2019-10-13T13:24:36.000Z</time>
      </trkpt>
      <trkpt lat="46.02397" lon="6.51752">
        <ele>2160.3999023438</ele>
        <time>2019-10-13T13:24:37.000Z</time>
      </trkpt>
      <trkpt lat="46.02396" lon="6.51751">
        <ele>2160.3999023438</ele>
        <time>2019-10-13T13:24:38.000Z</time>
      </trkpt>
      <trkpt lat="46.02395" lon="6.51746">
        <ele>2161.1999511719</ele>
        <time>2019-10-13T13:24:42.000Z</time>
      </trkpt>
      <trkpt lat="46.02396" lon="6.51747">
        <ele>2161.3999023438</ele>
        <time>2019-10-13T13:24:44.000Z</time>
      </trkpt>
      <trkpt lat="46.02396" lon="6.51747">
        <ele>2162</ele>
        <time>2019-10-13T13:24:45.000Z</time>
      </trkpt>
      <trkpt lat="46.02397" lon="6.51747">
        <ele>2162.6000976562</ele>
        <time>2019-10-13T13:24:47.000Z</time>
      </trkpt>
      <trkpt lat="46.02397" lon="6.51747">
        <ele>2162.6000976562</ele>
        <time>2019-10-13T13:24:56.000Z</time>
      </trkpt>
      <trkpt lat="46.02396" lon="6.51747">
        <ele>2162.6000976562</ele>
        <time>2019-10-13T13:24:57.000Z</time>
      </trkpt>
      <trkpt lat="46.02396" lon="6.51747">
        <ele>2162.3999023438</ele>
        <time>2019-10-13T13:24:59.000Z</time>
      </trkpt>
      <trkpt lat="46.02396" lon="6.51748">
        <ele>2162.3999023438</ele>
        <time>2019-10-13T13:25:02.000Z</time>
      </trkpt>
      <trkpt lat="46.02395" lon="6.51747">
        <ele>2162</ele>
        <time>2019-10-13T13:25:13.000Z</time>
      </trkpt>
      <trkpt lat="46.02394" lon="6.51741">
        <ele>2161.8000488281</ele>
        <time>2019-10-13T13:25:16.000Z</time>
      </trkpt>
      <trkpt lat="46.02393" lon="6.51737">
        <ele>2162.1999511719</ele>
        <time>2019-10-13T13:25:19.000Z</time>
      </trkpt>
      <trkpt lat="46.02392" lon="6.51735">
        <ele>2162.1999511719</ele>
        <time>2019-10-13T13:25:20.000Z</time>
      </trkpt>
      <trkpt lat="46.02391" lon="6.5173">
        <ele>2162.3999023438</ele>
        <time>2019-10-13T13:25:26.000Z</time>
      </trkpt>
      <trkpt lat="46.02391" lon="6.51727">
        <ele>2163.1999511719</ele>
        <time>2019-10-13T13:25:29.000Z</time>
      </trkpt>
      <trkpt lat="46.0239" lon="6.51726">
        <ele>2163.3999023438</ele>
        <time>2019-10-13T13:25:30.000Z</time>
      </trkpt>
      <trkpt lat="46.02391" lon="6.51724">
        <ele>2163.8000488281</ele>
        <time>2019-10-13T13:25:32.000Z</time>
      </trkpt>
      <trkpt lat="46.02392" lon="6.51718">
        <ele>2164.1999511719</ele>
        <time>2019-10-13T13:25:37.000Z</time>
      </trkpt>
      <trkpt lat="46.02393" lon="6.51715">
        <ele>2164.1999511719</ele>
        <time>2019-10-13T13:25:39.000Z</time>
      </trkpt>
      <trkpt lat="46.02392" lon="6.51711">
        <ele>2164.1999511719</ele>
        <time>2019-10-13T13:25:43.000Z</time>
      </trkpt>
      <trkpt lat="46.0239" lon="6.51707">
        <ele>2163.8000488281</ele>
        <time>2019-10-13T13:25:47.000Z</time>
      </trkpt>
      <trkpt lat="46.02388" lon="6.51705">
        <ele>2164</ele>
        <time>2019-10-13T13:25:50.000Z</time>
      </trkpt>
      <trkpt lat="46.02389" lon="6.517">
        <ele>2164.6000976562</ele>
        <time>2019-10-13T13:25:53.000Z</time>
      </trkpt>
      <trkpt lat="46.02388" lon="6.51699">
        <ele>2164.8000488281</ele>
        <time>2019-10-13T13:25:54.000Z</time>
      </trkpt>
      <trkpt lat="46.02387" lon="6.51694">
        <ele>2166.1999511719</ele>
        <time>2019-10-13T13:25:57.000Z</time>
      </trkpt>
      <trkpt lat="46.02387" lon="6.51693">
        <ele>2166.3999023438</ele>
        <time>2019-10-13T13:25:58.000Z</time>
      </trkpt>
      <trkpt lat="46.02387" lon="6.51692">
        <ele>2166.6000976562</ele>
        <time>2019-10-13T13:25:59.000Z</time>
      </trkpt>
      <trkpt lat="46.02385" lon="6.51688">
        <ele>2166</ele>
        <time>2019-10-13T13:26:03.000Z</time>
      </trkpt>
      <trkpt lat="46.02384" lon="6.51686">
        <ele>2165.8000488281</ele>
        <time>2019-10-13T13:26:08.000Z</time>
      </trkpt>
      <trkpt lat="46.02384" lon="6.5168">
        <ele>2166.1999511719</ele>
        <time>2019-10-13T13:26:12.000Z</time>
      </trkpt>
      <trkpt lat="46.02383" lon="6.5168">
        <ele>2166.3999023438</ele>
        <time>2019-10-13T13:26:13.000Z</time>
      </trkpt>
      <trkpt lat="46.02383" lon="6.5168">
        <ele>2166.6000976562</ele>
        <time>2019-10-13T13:26:14.000Z</time>
      </trkpt>
      <trkpt lat="46.02382" lon="6.51674">
        <ele>2167.3999023438</ele>
        <time>2019-10-13T13:26:18.000Z</time>
      </trkpt>
      <trkpt lat="46.02382" lon="6.51672">
        <ele>2167.3999023438</ele>
        <time>2019-10-13T13:26:19.000Z</time>
      </trkpt>
      <trkpt lat="46.02379" lon="6.51667">
        <ele>2168</ele>
        <time>2019-10-13T13:26:24.000Z</time>
      </trkpt>
      <trkpt lat="46.02379" lon="6.51663">
        <ele>2168.6000976562</ele>
        <time>2019-10-13T13:26:26.000Z</time>
      </trkpt>
      <trkpt lat="46.02379" lon="6.51661">
        <ele>2169</ele>
        <time>2019-10-13T13:26:27.000Z</time>
      </trkpt>
      <trkpt lat="46.02382" lon="6.51657">
        <ele>2169.3999023438</ele>
        <time>2019-10-13T13:26:30.000Z</time>
      </trkpt>
      <trkpt lat="46.02382" lon="6.51656">
        <ele>2169.6000976562</ele>
        <time>2019-10-13T13:26:31.000Z</time>
      </trkpt>
      <trkpt lat="46.02381" lon="6.51653">
        <ele>2169.6000976562</ele>
        <time>2019-10-13T13:26:33.000Z</time>
      </trkpt>
      <trkpt lat="46.02382" lon="6.51652">
        <ele>2169.8000488281</ele>
        <time>2019-10-13T13:26:34.000Z</time>
      </trkpt>
      <trkpt lat="46.02382" lon="6.5165">
        <ele>2169.8000488281</ele>
        <time>2019-10-13T13:26:35.000Z</time>
      </trkpt>
      <trkpt lat="46.02383" lon="6.51643">
        <ele>2171</ele>
        <time>2019-10-13T13:26:39.000Z</time>
      </trkpt>
      <trkpt lat="46.02384" lon="6.5164">
        <ele>2171.3999023438</ele>
        <time>2019-10-13T13:26:41.000Z</time>
      </trkpt>
      <trkpt lat="46.02384" lon="6.51636">
        <ele>2172.1999511719</ele>
        <time>2019-10-13T13:26:43.000Z</time>
      </trkpt>
      <trkpt lat="46.02384" lon="6.51633">
        <ele>2172.8000488281</ele>
        <time>2019-10-13T13:26:45.000Z</time>
      </trkpt>
      <trkpt lat="46.02385" lon="6.51631">
        <ele>2173</ele>
        <time>2019-10-13T13:26:46.000Z</time>
      </trkpt>
      <trkpt lat="46.02385" lon="6.51627">
        <ele>2172.8000488281</ele>
        <time>2019-10-13T13:26:49.000Z</time>
      </trkpt>
      <trkpt lat="46.02386" lon="6.51625">
        <ele>2172.8000488281</ele>
        <time>2019-10-13T13:26:51.000Z</time>
      </trkpt>
      <trkpt lat="46.02388" lon="6.51619">
        <ele>2173.1999511719</ele>
        <time>2019-10-13T13:26:56.000Z</time>
      </trkpt>
      <trkpt lat="46.02388" lon="6.51616">
        <ele>2173.6000976562</ele>
        <time>2019-10-13T13:26:58.000Z</time>
      </trkpt>
      <trkpt lat="46.02387" lon="6.51609">
        <ele>2174.1999511719</ele>
        <time>2019-10-13T13:27:02.000Z</time>
      </trkpt>
      <trkpt lat="46.02386" lon="6.51605">
        <ele>2174.6000976562</ele>
        <time>2019-10-13T13:27:05.000Z</time>
      </trkpt>
      <trkpt lat="46.02386" lon="6.51601">
        <ele>2175.1999511719</ele>
        <time>2019-10-13T13:27:08.000Z</time>
      </trkpt>
      <trkpt lat="46.02386" lon="6.51599">
        <ele>2175.6000976562</ele>
        <time>2019-10-13T13:27:10.000Z</time>
      </trkpt>
      <trkpt lat="46.02385" lon="6.51598">
        <ele>2175.8000488281</ele>
        <time>2019-10-13T13:27:11.000Z</time>
      </trkpt>
      <trkpt lat="46.02385" lon="6.51595">
        <ele>2176.6000976562</ele>
        <time>2019-10-13T13:27:14.000Z</time>
      </trkpt>
      <trkpt lat="46.02384" lon="6.51593">
        <ele>2176.3999023438</ele>
        <time>2019-10-13T13:27:20.000Z</time>
      </trkpt>
      <trkpt lat="46.02382" lon="6.5159">
        <ele>2176.6000976562</ele>
        <time>2019-10-13T13:27:25.000Z</time>
      </trkpt>
      <trkpt lat="46.02384" lon="6.51589">
        <ele>2176.3999023438</ele>
        <time>2019-10-13T13:27:31.000Z</time>
      </trkpt>
      <trkpt lat="46.02384" lon="6.5159">
        <ele>2176.3999023438</ele>
        <time>2019-10-13T13:27:33.000Z</time>
      </trkpt>
      <trkpt lat="46.02383" lon="6.51594">
        <ele>2175.3999023438</ele>
        <time>2019-10-13T13:27:39.000Z</time>
      </trkpt>
      <trkpt lat="46.02379" lon="6.51593">
        <ele>2175</ele>
        <time>2019-10-13T13:27:45.000Z</time>
      </trkpt>
      <trkpt lat="46.02374" lon="6.51592">
        <ele>2176</ele>
        <time>2019-10-13T13:27:50.000Z</time>
      </trkpt>
      <trkpt lat="46.02373" lon="6.51594">
        <ele>2176</ele>
        <time>2019-10-13T13:27:56.000Z</time>
      </trkpt>
      <trkpt lat="46.02371" lon="6.51597">
        <ele>2175.6000976562</ele>
        <time>2019-10-13T13:28:05.000Z</time>
      </trkpt>
      <trkpt lat="46.02369" lon="6.51594">
        <ele>2175.3999023438</ele>
        <time>2019-10-13T13:28:13.000Z</time>
      </trkpt>
      <trkpt lat="46.02367" lon="6.51589">
        <ele>2175.1999511719</ele>
        <time>2019-10-13T13:28:18.000Z</time>
      </trkpt>
      <trkpt lat="46.02366" lon="6.51584">
        <ele>2182.6000976562</ele>
        <time>2019-10-13T13:28:23.000Z</time>
      </trkpt>
      <trkpt lat="46.02366" lon="6.51584">
        <ele>2179.8000488281</ele>
        <time>2019-10-13T13:28:24.000Z</time>
      </trkpt>
      <trkpt lat="46.02366" lon="6.51583">
        <ele>2178.1999511719</ele>
        <time>2019-10-13T13:28:25.000Z</time>
      </trkpt>
      <trkpt lat="46.02366" lon="6.51583">
        <ele>2177.1999511719</ele>
        <time>2019-10-13T13:28:27.000Z</time>
      </trkpt>
      <trkpt lat="46.02365" lon="6.51582">
        <ele>2177</ele>
        <time>2019-10-13T13:28:29.000Z</time>
      </trkpt>
      <trkpt lat="46.02363" lon="6.51579">
        <ele>2176.8000488281</ele>
        <time>2019-10-13T13:28:32.000Z</time>
      </trkpt>
      <trkpt lat="46.02362" lon="6.51578">
        <ele>2176.8000488281</ele>
        <time>2019-10-13T13:28:34.000Z</time>
      </trkpt>
      <trkpt lat="46.02359" lon="6.51577">
        <ele>2178.1999511719</ele>
        <time>2019-10-13T13:28:37.000Z</time>
      </trkpt>
      <trkpt lat="46.02359" lon="6.51576">
        <ele>2178.8000488281</ele>
        <time>2019-10-13T13:28:38.000Z</time>
      </trkpt>
      <trkpt lat="46.02359" lon="6.51575">
        <ele>2179</ele>
        <time>2019-10-13T13:28:39.000Z</time>
      </trkpt>
      <trkpt lat="46.02359" lon="6.51574">
        <ele>2179.1999511719</ele>
        <time>2019-10-13T13:28:40.000Z</time>
      </trkpt>
      <trkpt lat="46.02359" lon="6.51575">
        <ele>2179.6000976562</ele>
        <time>2019-10-13T13:28:41.000Z</time>
      </trkpt>
      <trkpt lat="46.02358" lon="6.51574">
        <ele>2179.8000488281</ele>
        <time>2019-10-13T13:28:43.000Z</time>
      </trkpt>
      <trkpt lat="46.02357" lon="6.51571">
        <ele>2180.3999023438</ele>
        <time>2019-10-13T13:28:46.000Z</time>
      </trkpt>
      <trkpt lat="46.02353" lon="6.51571">
        <ele>2180.6000976562</ele>
        <time>2019-10-13T13:28:50.000Z</time>
      </trkpt>
      <trkpt lat="46.02353" lon="6.51571">
        <ele>2180.6000976562</ele>
        <time>2019-10-13T13:28:51.000Z</time>
      </trkpt>
      <trkpt lat="46.0235" lon="6.5157">
        <ele>2180.6000976562</ele>
        <time>2019-10-13T13:28:55.000Z</time>
      </trkpt>
      <trkpt lat="46.02347" lon="6.51568">
        <ele>2180.8000488281</ele>
        <time>2019-10-13T13:28:59.000Z</time>
      </trkpt>
      <trkpt lat="46.02344" lon="6.51566">
        <ele>2180.6000976562</ele>
        <time>2019-10-13T13:29:03.000Z</time>
      </trkpt>
      <trkpt lat="46.02343" lon="6.51564">
        <ele>2180.6000976562</ele>
        <time>2019-10-13T13:29:05.000Z</time>
      </trkpt>
      <trkpt lat="46.02339" lon="6.51561">
        <ele>2180.8000488281</ele>
        <time>2019-10-13T13:29:09.000Z</time>
      </trkpt>
      <trkpt lat="46.02339" lon="6.5156">
        <ele>2181</ele>
        <time>2019-10-13T13:29:10.000Z</time>
      </trkpt>
      <trkpt lat="46.02338" lon="6.51559">
        <ele>2181.1999511719</ele>
        <time>2019-10-13T13:29:12.000Z</time>
      </trkpt>
      <trkpt lat="46.02337" lon="6.51559">
        <ele>2181.6000976562</ele>
        <time>2019-10-13T13:29:13.000Z</time>
      </trkpt>
      <trkpt lat="46.02336" lon="6.51557">
        <ele>2182</ele>
        <time>2019-10-13T13:29:15.000Z</time>
      </trkpt>
      <trkpt lat="46.02332" lon="6.51554">
        <ele>2182.3999023438</ele>
        <time>2019-10-13T13:29:21.000Z</time>
      </trkpt>
      <trkpt lat="46.02331" lon="6.51553">
        <ele>2182.6000976562</ele>
        <time>2019-10-13T13:29:22.000Z</time>
      </trkpt>
      <trkpt lat="46.0233" lon="6.5155">
        <ele>2183.3999023438</ele>
        <time>2019-10-13T13:29:25.000Z</time>
      </trkpt>
      <trkpt lat="46.0233" lon="6.51549">
        <ele>2183.3999023438</ele>
        <time>2019-10-13T13:29:26.000Z</time>
      </trkpt>
      <trkpt lat="46.02328" lon="6.51548">
        <ele>2183.6000976562</ele>
        <time>2019-10-13T13:29:28.000Z</time>
      </trkpt>
      <trkpt lat="46.02324" lon="6.51542">
        <ele>2183.3999023438</ele>
        <time>2019-10-13T13:29:33.000Z</time>
      </trkpt>
      <trkpt lat="46.02319" lon="6.51537">
        <ele>2184.1999511719</ele>
        <time>2019-10-13T13:29:39.000Z</time>
      </trkpt>
      <trkpt lat="46.02317" lon="6.51533">
        <ele>2184.8000488281</ele>
        <time>2019-10-13T13:29:42.000Z</time>
      </trkpt>
      <trkpt lat="46.02315" lon="6.51527">
        <ele>2185.3999023438</ele>
        <time>2019-10-13T13:29:46.000Z</time>
      </trkpt>
      <trkpt lat="46.02309" lon="6.51523">
        <ele>2185.1999511719</ele>
        <time>2019-10-13T13:29:52.000Z</time>
      </trkpt>
      <trkpt lat="46.02306" lon="6.51521">
        <ele>2185.8000488281</ele>
        <time>2019-10-13T13:29:54.000Z</time>
      </trkpt>
      <trkpt lat="46.02304" lon="6.51517">
        <ele>2186</ele>
        <time>2019-10-13T13:29:56.000Z</time>
      </trkpt>
      <trkpt lat="46.02304" lon="6.51515">
        <ele>2186.6000976562</ele>
        <time>2019-10-13T13:29:58.000Z</time>
      </trkpt>
      <trkpt lat="46.02304" lon="6.51514">
        <ele>2187</ele>
        <time>2019-10-13T13:29:59.000Z</time>
      </trkpt>
      <trkpt lat="46.02303" lon="6.51509">
        <ele>2188</ele>
        <time>2019-10-13T13:30:03.000Z</time>
      </trkpt>
      <trkpt lat="46.02302" lon="6.51508">
        <ele>2188.1999511719</ele>
        <time>2019-10-13T13:30:04.000Z</time>
      </trkpt>
      <trkpt lat="46.023" lon="6.51502">
        <ele>2188.3999023438</ele>
        <time>2019-10-13T13:30:08.000Z</time>
      </trkpt>
      <trkpt lat="46.02299" lon="6.51501">
        <ele>2188.1999511719</ele>
        <time>2019-10-13T13:30:09.000Z</time>
      </trkpt>
      <trkpt lat="46.02296" lon="6.51495">
        <ele>2188</ele>
        <time>2019-10-13T13:30:13.000Z</time>
      </trkpt>
      <trkpt lat="46.02295" lon="6.51494">
        <ele>2188</ele>
        <time>2019-10-13T13:30:14.000Z</time>
      </trkpt>
      <trkpt lat="46.02294" lon="6.5149">
        <ele>2189.1999511719</ele>
        <time>2019-10-13T13:30:17.000Z</time>
      </trkpt>
      <trkpt lat="46.02293" lon="6.51488">
        <ele>2189.8000488281</ele>
        <time>2019-10-13T13:30:19.000Z</time>
      </trkpt>
      <trkpt lat="46.02293" lon="6.51487">
        <ele>2190.3999023438</ele>
        <time>2019-10-13T13:30:20.000Z</time>
      </trkpt>
      <trkpt lat="46.02293" lon="6.51485">
        <ele>2191</ele>
        <time>2019-10-13T13:30:22.000Z</time>
      </trkpt>
      <trkpt lat="46.02292" lon="6.51482">
        <ele>2191.6000976562</ele>
        <time>2019-10-13T13:30:24.000Z</time>
      </trkpt>
      <trkpt lat="46.02292" lon="6.5148">
        <ele>2191.8000488281</ele>
        <time>2019-10-13T13:30:25.000Z</time>
      </trkpt>
      <trkpt lat="46.02291" lon="6.51475">
        <ele>2192.8000488281</ele>
        <time>2019-10-13T13:30:29.000Z</time>
      </trkpt>
      <trkpt lat="46.0229" lon="6.51474">
        <ele>2192.8000488281</ele>
        <time>2019-10-13T13:30:30.000Z</time>
      </trkpt>
      <trkpt lat="46.0229" lon="6.51467">
        <ele>2192.8000488281</ele>
        <time>2019-10-13T13:30:36.000Z</time>
      </trkpt>
      <trkpt lat="46.0229" lon="6.51465">
        <ele>2192.6000976562</ele>
        <time>2019-10-13T13:30:37.000Z</time>
      </trkpt>
      <trkpt lat="46.02289" lon="6.51458">
        <ele>2192.8000488281</ele>
        <time>2019-10-13T13:30:41.000Z</time>
      </trkpt>
      <trkpt lat="46.02289" lon="6.51453">
        <ele>2193.8000488281</ele>
        <time>2019-10-13T13:30:44.000Z</time>
      </trkpt>
      <trkpt lat="46.0229" lon="6.51451">
        <ele>2194.3999023438</ele>
        <time>2019-10-13T13:30:46.000Z</time>
      </trkpt>
      <trkpt lat="46.02291" lon="6.5145">
        <ele>2194.6000976562</ele>
        <time>2019-10-13T13:30:48.000Z</time>
      </trkpt>
      <trkpt lat="46.02291" lon="6.51449">
        <ele>2194.6000976562</ele>
        <time>2019-10-13T13:30:50.000Z</time>
      </trkpt>
      <trkpt lat="46.0229" lon="6.51448">
        <ele>2194.6000976562</ele>
        <time>2019-10-13T13:30:51.000Z</time>
      </trkpt>
      <trkpt lat="46.02289" lon="6.51444">
        <ele>2194.3999023438</ele>
        <time>2019-10-13T13:30:54.000Z</time>
      </trkpt>
      <trkpt lat="46.02288" lon="6.51443">
        <ele>2194.6000976562</ele>
        <time>2019-10-13T13:30:56.000Z</time>
      </trkpt>
      <trkpt lat="46.02289" lon="6.51444">
        <ele>2194.1999511719</ele>
        <time>2019-10-13T13:30:59.000Z</time>
      </trkpt>
      <trkpt lat="46.0229" lon="6.51444">
        <ele>2192.8000488281</ele>
        <time>2019-10-13T13:31:07.000Z</time>
      </trkpt>
      <trkpt lat="46.02289" lon="6.51444">
        <ele>2192.8000488281</ele>
        <time>2019-10-13T13:31:08.000Z</time>
      </trkpt>
      <trkpt lat="46.0229" lon="6.51445">
        <ele>2192.8000488281</ele>
        <time>2019-10-13T13:31:12.000Z</time>
      </trkpt>
      <trkpt lat="46.02291" lon="6.51445">
        <ele>2192.8000488281</ele>
        <time>2019-10-13T13:31:19.000Z</time>
      </trkpt>
      <trkpt lat="46.02291" lon="6.51445">
        <ele>2192.8000488281</ele>
        <time>2019-10-13T13:31:21.000Z</time>
      </trkpt>
      <trkpt lat="46.0229" lon="6.51445">
        <ele>2192.6000976562</ele>
        <time>2019-10-13T13:31:24.000Z</time>
      </trkpt>
      <trkpt lat="46.02289" lon="6.51445">
        <ele>2192.3999023438</ele>
        <time>2019-10-13T13:31:26.000Z</time>
      </trkpt>
      <trkpt lat="46.02288" lon="6.51443">
        <ele>2192.3999023438</ele>
        <time>2019-10-13T13:31:28.000Z</time>
      </trkpt>
      <trkpt lat="46.02287" lon="6.51441">
        <ele>2192.6000976562</ele>
        <time>2019-10-13T13:31:30.000Z</time>
      </trkpt>
      <trkpt lat="46.02286" lon="6.5144">
        <ele>2193</ele>
        <time>2019-10-13T13:31:31.000Z</time>
      </trkpt>
      <trkpt lat="46.02284" lon="6.51438">
        <ele>2193.8000488281</ele>
        <time>2019-10-13T13:31:34.000Z</time>
      </trkpt>
      <trkpt lat="46.02284" lon="6.51439">
        <ele>2194</ele>
        <time>2019-10-13T13:31:36.000Z</time>
      </trkpt>
      <trkpt lat="46.02282" lon="6.51435">
        <ele>2193.6000976562</ele>
        <time>2019-10-13T13:31:44.000Z</time>
      </trkpt>
      <trkpt lat="46.02282" lon="6.51431">
        <ele>2194.6000976562</ele>
        <time>2019-10-13T13:31:52.000Z</time>
      </trkpt>
      <trkpt lat="46.02279" lon="6.51427">
        <ele>2195</ele>
        <time>2019-10-13T13:31:57.000Z</time>
      </trkpt>
      <trkpt lat="46.02279" lon="6.51427">
        <ele>2195</ele>
        <time>2019-10-13T13:31:58.000Z</time>
      </trkpt>
      <trkpt lat="46.02278" lon="6.51424">
        <ele>2195.8000488281</ele>
        <time>2019-10-13T13:32:03.000Z</time>
      </trkpt>
      <trkpt lat="46.02278" lon="6.51424">
        <ele>2196</ele>
        <time>2019-10-13T13:32:04.000Z</time>
      </trkpt>
      <trkpt lat="46.02276" lon="6.51418">
        <ele>2197.1999511719</ele>
        <time>2019-10-13T13:32:09.000Z</time>
      </trkpt>
      <trkpt lat="46.02274" lon="6.51414">
        <ele>2198.1999511719</ele>
        <time>2019-10-13T13:32:14.000Z</time>
      </trkpt>
      <trkpt lat="46.02274" lon="6.51413">
        <ele>2198.3999023438</ele>
        <time>2019-10-13T13:32:15.000Z</time>
      </trkpt>
      <trkpt lat="46.02274" lon="6.51412">
        <ele>2199.1999511719</ele>
        <time>2019-10-13T13:32:17.000Z</time>
      </trkpt>
      <trkpt lat="46.02273" lon="6.51409">
        <ele>2199.6000976562</ele>
        <time>2019-10-13T13:32:22.000Z</time>
      </trkpt>
      <trkpt lat="46.02272" lon="6.51407">
        <ele>2199.3999023438</ele>
        <time>2019-10-13T13:32:24.000Z</time>
      </trkpt>
      <trkpt lat="46.02269" lon="6.51406">
        <ele>2200</ele>
        <time>2019-10-13T13:32:28.000Z</time>
      </trkpt>
      <trkpt lat="46.02265" lon="6.51402">
        <ele>2199.8000488281</ele>
        <time>2019-10-13T13:32:33.000Z</time>
      </trkpt>
      <trkpt lat="46.02265" lon="6.51402">
        <ele>2199.8000488281</ele>
        <time>2019-10-13T13:32:36.000Z</time>
      </trkpt>
      <trkpt lat="46.02263" lon="6.51397">
        <ele>2199.8000488281</ele>
        <time>2019-10-13T13:32:44.000Z</time>
      </trkpt>
      <trkpt lat="46.02259" lon="6.51393">
        <ele>2198.6000976562</ele>
        <time>2019-10-13T13:32:50.000Z</time>
      </trkpt>
      <trkpt lat="46.02258" lon="6.5139">
        <ele>2199.3999023438</ele>
        <time>2019-10-13T13:32:52.000Z</time>
      </trkpt>
      <trkpt lat="46.02258" lon="6.51388">
        <ele>2200.3999023438</ele>
        <time>2019-10-13T13:32:54.000Z</time>
      </trkpt>
      <trkpt lat="46.02257" lon="6.51386">
        <ele>2201.1999511719</ele>
        <time>2019-10-13T13:32:56.000Z</time>
      </trkpt>
      <trkpt lat="46.02257" lon="6.51385">
        <ele>2201.6000976562</ele>
        <time>2019-10-13T13:32:57.000Z</time>
      </trkpt>
      <trkpt lat="46.02256" lon="6.51379">
        <ele>2201.8000488281</ele>
        <time>2019-10-13T13:33:01.000Z</time>
      </trkpt>
      <trkpt lat="46.02254" lon="6.51375">
        <ele>2202.1999511719</ele>
        <time>2019-10-13T13:33:04.000Z</time>
      </trkpt>
      <trkpt lat="46.02254" lon="6.51373">
        <ele>2202.6000976562</ele>
        <time>2019-10-13T13:33:06.000Z</time>
      </trkpt>
      <trkpt lat="46.02253" lon="6.51372">
        <ele>2202.8000488281</ele>
        <time>2019-10-13T13:33:07.000Z</time>
      </trkpt>
      <trkpt lat="46.02252" lon="6.5137">
        <ele>2204.1999511719</ele>
        <time>2019-10-13T13:33:10.000Z</time>
      </trkpt>
      <trkpt lat="46.02251" lon="6.5137">
        <ele>2204.8000488281</ele>
        <time>2019-10-13T13:33:11.000Z</time>
      </trkpt>
      <trkpt lat="46.02251" lon="6.51369">
        <ele>2205.1999511719</ele>
        <time>2019-10-13T13:33:12.000Z</time>
      </trkpt>
      <trkpt lat="46.0225" lon="6.51367">
        <ele>2205.6000976562</ele>
        <time>2019-10-13T13:33:14.000Z</time>
      </trkpt>
      <trkpt lat="46.02249" lon="6.51364">
        <ele>2205.6000976562</ele>
        <time>2019-10-13T13:33:16.000Z</time>
      </trkpt>
      <trkpt lat="46.02248" lon="6.51363">
        <ele>2205.6000976562</ele>
        <time>2019-10-13T13:33:17.000Z</time>
      </trkpt>
      <trkpt lat="46.02246" lon="6.51359">
        <ele>2206.1999511719</ele>
        <time>2019-10-13T13:33:21.000Z</time>
      </trkpt>
      <trkpt lat="46.02246" lon="6.51358">
        <ele>2206.3999023438</ele>
        <time>2019-10-13T13:33:22.000Z</time>
      </trkpt>
      <trkpt lat="46.02246" lon="6.51354">
        <ele>2207.3999023438</ele>
        <time>2019-10-13T13:33:25.000Z</time>
      </trkpt>
      <trkpt lat="46.02246" lon="6.51348">
        <ele>2208.1999511719</ele>
        <time>2019-10-13T13:33:30.000Z</time>
      </trkpt>
      <trkpt lat="46.02247" lon="6.51348">
        <ele>2208.3999023438</ele>
        <time>2019-10-13T13:33:31.000Z</time>
      </trkpt>
      <trkpt lat="46.02247" lon="6.51348">
        <ele>2208.8000488281</ele>
        <time>2019-10-13T13:33:32.000Z</time>
      </trkpt>
      <trkpt lat="46.02248" lon="6.51347">
        <ele>2209.6000976562</ele>
        <time>2019-10-13T13:33:34.000Z</time>
      </trkpt>
      <trkpt lat="46.02249" lon="6.51348">
        <ele>2210.1999511719</ele>
        <time>2019-10-13T13:33:35.000Z</time>
      </trkpt>
      <trkpt lat="46.0225" lon="6.51348">
        <ele>2211</ele>
        <time>2019-10-13T13:33:38.000Z</time>
      </trkpt>
      <trkpt lat="46.02251" lon="6.51347">
        <ele>2211.3999023438</ele>
        <time>2019-10-13T13:33:40.000Z</time>
      </trkpt>
      <trkpt lat="46.02252" lon="6.51344">
        <ele>2212.1999511719</ele>
        <time>2019-10-13T13:33:43.000Z</time>
      </trkpt>
      <trkpt lat="46.02252" lon="6.51344">
        <ele>2212.6000976562</ele>
        <time>2019-10-13T13:33:44.000Z</time>
      </trkpt>
      <trkpt lat="46.02252" lon="6.51343">
        <ele>2212.8000488281</ele>
        <time>2019-10-13T13:33:45.000Z</time>
      </trkpt>
      <trkpt lat="46.02252" lon="6.51342">
        <ele>2213.6000976562</ele>
        <time>2019-10-13T13:33:47.000Z</time>
      </trkpt>
      <trkpt lat="46.02253" lon="6.51342">
        <ele>2213.8000488281</ele>
        <time>2019-10-13T13:33:49.000Z</time>
      </trkpt>
      <trkpt lat="46.02253" lon="6.51342">
        <ele>2214</ele>
        <time>2019-10-13T13:33:53.000Z</time>
      </trkpt>
      <trkpt lat="46.02254" lon="6.51343">
        <ele>2214.3999023438</ele>
        <time>2019-10-13T13:33:58.000Z</time>
      </trkpt>
      <trkpt lat="46.02253" lon="6.51343">
        <ele>2214.8000488281</ele>
        <time>2019-10-13T13:34:05.000Z</time>
      </trkpt>
      <trkpt lat="46.02253" lon="6.51343">
        <ele>2214.8000488281</ele>
        <time>2019-10-13T13:34:08.000Z</time>
      </trkpt>
      <trkpt lat="46.02252" lon="6.51342">
        <ele>2214.6000976562</ele>
        <time>2019-10-13T13:34:14.000Z</time>
      </trkpt>
      <trkpt lat="46.02253" lon="6.51338">
        <ele>2215.1999511719</ele>
        <time>2019-10-13T13:34:25.000Z</time>
      </trkpt>
      <trkpt lat="46.02251" lon="6.51335">
        <ele>2215.8000488281</ele>
        <time>2019-10-13T13:34:29.000Z</time>
      </trkpt>
      <trkpt lat="46.0225" lon="6.51334">
        <ele>2216.1999511719</ele>
        <time>2019-10-13T13:34:31.000Z</time>
      </trkpt>
      <trkpt lat="46.02249" lon="6.51332">
        <ele>2217</ele>
        <time>2019-10-13T13:34:34.000Z</time>
      </trkpt>
      <trkpt lat="46.02246" lon="6.51328">
        <ele>2217.8000488281</ele>
        <time>2019-10-13T13:34:37.000Z</time>
      </trkpt>
      <trkpt lat="46.02245" lon="6.51326">
        <ele>2218</ele>
        <time>2019-10-13T13:34:38.000Z</time>
      </trkpt>
      <trkpt lat="46.02244" lon="6.5132">
        <ele>2219.1999511719</ele>
        <time>2019-10-13T13:34:42.000Z</time>
      </trkpt>
      <trkpt lat="46.02244" lon="6.51317">
        <ele>2219.3999023438</ele>
        <time>2019-10-13T13:34:45.000Z</time>
      </trkpt>
      <trkpt lat="46.02242" lon="6.51314">
        <ele>2220</ele>
        <time>2019-10-13T13:34:48.000Z</time>
      </trkpt>
      <trkpt lat="46.02241" lon="6.51313">
        <ele>2220.1999511719</ele>
        <time>2019-10-13T13:34:50.000Z</time>
      </trkpt>
      <trkpt lat="46.0224" lon="6.51312">
        <ele>2220.1999511719</ele>
        <time>2019-10-13T13:34:51.000Z</time>
      </trkpt>
      <trkpt lat="46.02239" lon="6.51311">
        <ele>2220.6000976562</ele>
        <time>2019-10-13T13:34:54.000Z</time>
      </trkpt>
      <trkpt lat="46.02238" lon="6.51311">
        <ele>2221.1999511719</ele>
        <time>2019-10-13T13:34:56.000Z</time>
      </trkpt>
      <trkpt lat="46.02238" lon="6.5131">
        <ele>2222.3999023438</ele>
        <time>2019-10-13T13:34:59.000Z</time>
      </trkpt>
      <trkpt lat="46.02238" lon="6.51308">
        <ele>2222.6000976562</ele>
        <time>2019-10-13T13:35:00.000Z</time>
      </trkpt>
      <trkpt lat="46.02239" lon="6.51306">
        <ele>2223.3999023438</ele>
        <time>2019-10-13T13:35:02.000Z</time>
      </trkpt>
      <trkpt lat="46.0224" lon="6.51304">
        <ele>2224.3999023438</ele>
        <time>2019-10-13T13:35:04.000Z</time>
      </trkpt>
      <trkpt lat="46.0224" lon="6.51304">
        <ele>2224.6000976562</ele>
        <time>2019-10-13T13:35:05.000Z</time>
      </trkpt>
      <trkpt lat="46.02241" lon="6.51304">
        <ele>2224.8000488281</ele>
        <time>2019-10-13T13:35:06.000Z</time>
      </trkpt>
      <trkpt lat="46.02245" lon="6.51308">
        <ele>2225</ele>
        <time>2019-10-13T13:35:14.000Z</time>
      </trkpt>
      <trkpt lat="46.02246" lon="6.51309">
        <ele>2224.6000976562</ele>
        <time>2019-10-13T13:35:22.000Z</time>
      </trkpt>
      <trkpt lat="46.0224" lon="6.51304">
        <ele>2225.1999511719</ele>
        <time>2019-10-13T13:35:30.000Z</time>
      </trkpt>
      <trkpt lat="46.02238" lon="6.51303">
        <ele>2225.6000976562</ele>
        <time>2019-10-13T13:35:31.000Z</time>
      </trkpt>
      <trkpt lat="46.02236" lon="6.513">
        <ele>2226.8000488281</ele>
        <time>2019-10-13T13:35:33.000Z</time>
      </trkpt>
      <trkpt lat="46.02235" lon="6.51299">
        <ele>2227.3999023438</ele>
        <time>2019-10-13T13:35:35.000Z</time>
      </trkpt>
      <trkpt lat="46.02234" lon="6.51297">
        <ele>2227.8000488281</ele>
        <time>2019-10-13T13:35:37.000Z</time>
      </trkpt>
      <trkpt lat="46.02234" lon="6.51296">
        <ele>2228</ele>
        <time>2019-10-13T13:35:38.000Z</time>
      </trkpt>
      <trkpt lat="46.02234" lon="6.51294">
        <ele>2228.1999511719</ele>
        <time>2019-10-13T13:35:39.000Z</time>
      </trkpt>
      <trkpt lat="46.02233" lon="6.51292">
        <ele>2228.6000976562</ele>
        <time>2019-10-13T13:35:42.000Z</time>
      </trkpt>
      <trkpt lat="46.02233" lon="6.51291">
        <ele>2229.1999511719</ele>
        <time>2019-10-13T13:35:46.000Z</time>
      </trkpt>
      <trkpt lat="46.02233" lon="6.51287">
        <ele>2230</ele>
        <time>2019-10-13T13:35:50.000Z</time>
      </trkpt>
      <trkpt lat="46.02234" lon="6.51285">
        <ele>2230.6000976562</ele>
        <time>2019-10-13T13:35:52.000Z</time>
      </trkpt>
      <trkpt lat="46.02236" lon="6.51284">
        <ele>2231.1999511719</ele>
        <time>2019-10-13T13:35:55.000Z</time>
      </trkpt>
      <trkpt lat="46.02236" lon="6.51283">
        <ele>2231.8000488281</ele>
        <time>2019-10-13T13:35:56.000Z</time>
      </trkpt>
      <trkpt lat="46.02238" lon="6.51283">
        <ele>2233.3999023438</ele>
        <time>2019-10-13T13:36:01.000Z</time>
      </trkpt>
      <trkpt lat="46.02239" lon="6.51281">
        <ele>2232.3999023438</ele>
        <time>2019-10-13T13:36:07.000Z</time>
      </trkpt>
      <trkpt lat="46.02239" lon="6.51281">
        <ele>2231.3999023438</ele>
        <time>2019-10-13T13:36:08.000Z</time>
      </trkpt>
      <trkpt lat="46.02243" lon="6.51282">
        <ele>2231.3999023438</ele>
        <time>2019-10-13T13:36:13.000Z</time>
      </trkpt>
      <trkpt lat="46.02244" lon="6.51283">
        <ele>2231.6000976562</ele>
        <time>2019-10-13T13:36:14.000Z</time>
      </trkpt>
      <trkpt lat="46.02245" lon="6.51283">
        <ele>2231.6000976562</ele>
        <time>2019-10-13T13:36:15.000Z</time>
      </trkpt>
      <trkpt lat="46.02246" lon="6.51282">
        <ele>2231.8000488281</ele>
        <time>2019-10-13T13:36:16.000Z</time>
      </trkpt>
      <trkpt lat="46.0225" lon="6.51281">
        <ele>2231.6000976562</ele>
        <time>2019-10-13T13:36:19.000Z</time>
      </trkpt>
      <trkpt lat="46.02252" lon="6.51279">
        <ele>2232.1999511719</ele>
        <time>2019-10-13T13:36:22.000Z</time>
      </trkpt>
      <trkpt lat="46.02251" lon="6.51278">
        <ele>2232.3999023438</ele>
        <time>2019-10-13T13:36:25.000Z</time>
      </trkpt>
      <trkpt lat="46.02252" lon="6.51279">
        <ele>2232</ele>
        <time>2019-10-13T13:36:31.000Z</time>
      </trkpt>
      <trkpt lat="46.02252" lon="6.5128">
        <ele>2231.6000976562</ele>
        <time>2019-10-13T13:36:35.000Z</time>
      </trkpt>
      <trkpt lat="46.02248" lon="6.51281">
        <ele>2232.3999023438</ele>
        <time>2019-10-13T13:36:40.000Z</time>
      </trkpt>
      <trkpt lat="46.0224" lon="6.51281">
        <ele>2231.8000488281</ele>
        <time>2019-10-13T13:36:47.000Z</time>
      </trkpt>
      <trkpt lat="46.02238" lon="6.5128">
        <ele>2232.1999511719</ele>
        <time>2019-10-13T13:36:51.000Z</time>
      </trkpt>
      <trkpt lat="46.02236" lon="6.51281">
        <ele>2232.8000488281</ele>
        <time>2019-10-13T13:36:55.000Z</time>
      </trkpt>
      <trkpt lat="46.02234" lon="6.51281">
        <ele>2232.3999023438</ele>
        <time>2019-10-13T13:36:59.000Z</time>
      </trkpt>
      <trkpt lat="46.02234" lon="6.51284">
        <ele>2231.1999511719</ele>
        <time>2019-10-13T13:37:04.000Z</time>
      </trkpt>
      <trkpt lat="46.02234" lon="6.51284">
        <ele>2231.1999511719</ele>
        <time>2019-10-13T13:37:05.000Z</time>
      </trkpt>
      <trkpt lat="46.02233" lon="6.51284">
        <ele>2231</ele>
        <time>2019-10-13T13:37:06.000Z</time>
      </trkpt>
      <trkpt lat="46.02233" lon="6.51287">
        <ele>2230.1999511719</ele>
        <time>2019-10-13T13:37:12.000Z</time>
      </trkpt>
      <trkpt lat="46.02233" lon="6.51287">
        <ele>2230</ele>
        <time>2019-10-13T13:37:15.000Z</time>
      </trkpt>
      <trkpt lat="46.02233" lon="6.51286">
        <ele>2229.8000488281</ele>
        <time>2019-10-13T13:37:21.000Z</time>
      </trkpt>
      <trkpt lat="46.02233" lon="6.51285">
        <ele>2229.8000488281</ele>
        <time>2019-10-13T13:37:24.000Z</time>
      </trkpt>
      <trkpt lat="46.02233" lon="6.51284">
        <ele>2229.8000488281</ele>
        <time>2019-10-13T13:37:26.000Z</time>
      </trkpt>
      <trkpt lat="46.02233" lon="6.51284">
        <ele>2229.6000976562</ele>
        <time>2019-10-13T13:37:27.000Z</time>
      </trkpt>
      <trkpt lat="46.02235" lon="6.51284">
        <ele>2229.8000488281</ele>
        <time>2019-10-13T13:37:37.000Z</time>
      </trkpt>
      <trkpt lat="46.02235" lon="6.51284">
        <ele>2230</ele>
        <time>2019-10-13T13:37:40.000Z</time>
      </trkpt>
      <trkpt lat="46.02235" lon="6.51283">
        <ele>2230.1999511719</ele>
        <time>2019-10-13T13:37:42.000Z</time>
      </trkpt>
      <trkpt lat="46.02235" lon="6.51283">
        <ele>2230.6000976562</ele>
        <time>2019-10-13T13:37:44.000Z</time>
      </trkpt>
      <trkpt lat="46.02233" lon="6.51283">
        <ele>2231.1999511719</ele>
        <time>2019-10-13T13:37:54.000Z</time>
      </trkpt>
      <trkpt lat="46.02233" lon="6.51283">
        <ele>2231.1999511719</ele>
        <time>2019-10-13T13:37:55.000Z</time>
      </trkpt>
      <trkpt lat="46.02233" lon="6.51284">
        <ele>2231.1999511719</ele>
        <time>2019-10-13T13:37:58.000Z</time>
      </trkpt>
      <trkpt lat="46.02233" lon="6.51284">
        <ele>2231.3999023438</ele>
        <time>2019-10-13T13:38:03.000Z</time>
      </trkpt>
      <trkpt lat="46.02231" lon="6.51284">
        <ele>2230.6000976562</ele>
        <time>2019-10-13T13:38:10.000Z</time>
      </trkpt>
      <trkpt lat="46.02233" lon="6.51285">
        <ele>2232.3999023438</ele>
        <time>2019-10-13T13:38:18.000Z</time>
      </trkpt>
      <trkpt lat="46.02232" lon="6.51282">
        <ele>2231.8000488281</ele>
        <time>2019-10-13T13:38:23.000Z</time>
      </trkpt>
      <trkpt lat="46.02232" lon="6.51282">
        <ele>2231.1999511719</ele>
        <time>2019-10-13T13:38:39.000Z</time>
      </trkpt>
      <trkpt lat="46.02233" lon="6.51283">
        <ele>2231</ele>
        <time>2019-10-13T13:38:43.000Z</time>
      </trkpt>
      <trkpt lat="46.02233" lon="6.51282">
        <ele>2231</ele>
        <time>2019-10-13T13:38:44.000Z</time>
      </trkpt>
      <trkpt lat="46.02233" lon="6.51282">
        <ele>2230.8000488281</ele>
        <time>2019-10-13T13:38:48.000Z</time>
      </trkpt>
      <trkpt lat="46.02233" lon="6.51284">
        <ele>2230.3999023438</ele>
        <time>2019-10-13T13:39:02.000Z</time>
      </trkpt>
      <trkpt lat="46.02232" lon="6.51283">
        <ele>2230.6000976562</ele>
        <time>2019-10-13T13:39:07.000Z</time>
      </trkpt>
      <trkpt lat="46.02232" lon="6.51284">
        <ele>2230.3999023438</ele>
        <time>2019-10-13T13:39:12.000Z</time>
      </trkpt>
      <trkpt lat="46.02234" lon="6.51282">
        <ele>2230.1999511719</ele>
        <time>2019-10-13T13:39:15.000Z</time>
      </trkpt>
      <trkpt lat="46.02237" lon="6.51279">
        <ele>2230.3999023438</ele>
        <time>2019-10-13T13:39:18.000Z</time>
      </trkpt>
      <trkpt lat="46.02237" lon="6.51277">
        <ele>2231.1999511719</ele>
        <time>2019-10-13T13:39:20.000Z</time>
      </trkpt>
      <trkpt lat="46.02238" lon="6.51275">
        <ele>2232.1999511719</ele>
        <time>2019-10-13T13:39:23.000Z</time>
      </trkpt>
      <trkpt lat="46.02239" lon="6.51274">
        <ele>2232.6000976562</ele>
        <time>2019-10-13T13:39:24.000Z</time>
      </trkpt>
      <trkpt lat="46.0224" lon="6.51274">
        <ele>2234</ele>
        <time>2019-10-13T13:39:26.000Z</time>
      </trkpt>
      <trkpt lat="46.02241" lon="6.51275">
        <ele>2234.8000488281</ele>
        <time>2019-10-13T13:39:28.000Z</time>
      </trkpt>
      <trkpt lat="46.02241" lon="6.51275">
        <ele>2235</ele>
        <time>2019-10-13T13:39:29.000Z</time>
      </trkpt>
      <trkpt lat="46.02239" lon="6.51276">
        <ele>2235.1999511719</ele>
        <time>2019-10-13T13:39:31.000Z</time>
      </trkpt>
      <trkpt lat="46.02239" lon="6.51276">
        <ele>2235.1999511719</ele>
        <time>2019-10-13T13:39:32.000Z</time>
      </trkpt>
      <trkpt lat="46.02239" lon="6.51277">
        <ele>2234</ele>
        <time>2019-10-13T13:39:35.000Z</time>
      </trkpt>
      <trkpt lat="46.02241" lon="6.51278">
        <ele>2233.3999023438</ele>
        <time>2019-10-13T13:39:37.000Z</time>
      </trkpt>
      <trkpt lat="46.02244" lon="6.51279">
        <ele>2233</ele>
        <time>2019-10-13T13:39:40.000Z</time>
      </trkpt>
      <trkpt lat="46.02246" lon="6.51279">
        <ele>2232.8000488281</ele>
        <time>2019-10-13T13:39:42.000Z</time>
      </trkpt>
      <trkpt lat="46.02249" lon="6.51278">
        <ele>2232.3999023438</ele>
        <time>2019-10-13T13:39:45.000Z</time>
      </trkpt>
      <trkpt lat="46.02251" lon="6.51277">
        <ele>2232.1999511719</ele>
        <time>2019-10-13T13:39:47.000Z</time>
      </trkpt>
      <trkpt lat="46.02254" lon="6.51279">
        <ele>2232.3999023438</ele>
        <time>2019-10-13T13:39:51.000Z</time>
      </trkpt>
      <trkpt lat="46.02254" lon="6.5128">
        <ele>2232.3999023438</ele>
        <time>2019-10-13T13:39:53.000Z</time>
      </trkpt>
      <trkpt lat="46.02258" lon="6.51283">
        <ele>2232</ele>
        <time>2019-10-13T13:39:57.000Z</time>
      </trkpt>
      <trkpt lat="46.02259" lon="6.51283">
        <ele>2231.8000488281</ele>
        <time>2019-10-13T13:39:58.000Z</time>
      </trkpt>
      <trkpt lat="46.02262" lon="6.51284">
        <ele>2231.1999511719</ele>
        <time>2019-10-13T13:40:02.000Z</time>
      </trkpt>
      <trkpt lat="46.02265" lon="6.51285">
        <ele>2231.1999511719</ele>
        <time>2019-10-13T13:40:07.000Z</time>
      </trkpt>
      <trkpt lat="46.02266" lon="6.51285">
        <ele>2231</ele>
        <time>2019-10-13T13:40:09.000Z</time>
      </trkpt>
      <trkpt lat="46.02268" lon="6.51286">
        <ele>2230.8000488281</ele>
        <time>2019-10-13T13:40:11.000Z</time>
      </trkpt>
      <trkpt lat="46.02268" lon="6.51287">
        <ele>2230.6000976562</ele>
        <time>2019-10-13T13:40:12.000Z</time>
      </trkpt>
      <trkpt lat="46.0227" lon="6.5129">
        <ele>2230.6000976562</ele>
        <time>2019-10-13T13:40:15.000Z</time>
      </trkpt>
      <trkpt lat="46.02271" lon="6.51292">
        <ele>2230.1999511719</ele>
        <time>2019-10-13T13:40:17.000Z</time>
      </trkpt>
      <trkpt lat="46.02271" lon="6.51294">
        <ele>2229.6000976562</ele>
        <time>2019-10-13T13:40:20.000Z</time>
      </trkpt>
      <trkpt lat="46.02272" lon="6.51293">
        <ele>2228.8000488281</ele>
        <time>2019-10-13T13:40:23.000Z</time>
      </trkpt>
      <trkpt lat="46.02274" lon="6.51292">
        <ele>2228.3999023438</ele>
        <time>2019-10-13T13:40:25.000Z</time>
      </trkpt>
      <trkpt lat="46.0228" lon="6.51292">
        <ele>2227.6000976562</ele>
        <time>2019-10-13T13:40:29.000Z</time>
      </trkpt>
      <trkpt lat="46.02282" lon="6.51294">
        <ele>2227.3999023438</ele>
        <time>2019-10-13T13:40:32.000Z</time>
      </trkpt>
      <trkpt lat="46.02285" lon="6.51296">
        <ele>2227</ele>
        <time>2019-10-13T13:40:35.000Z</time>
      </trkpt>
      <trkpt lat="46.02288" lon="6.513">
        <ele>2227</ele>
        <time>2019-10-13T13:40:39.000Z</time>
      </trkpt>
      <trkpt lat="46.02288" lon="6.51301">
        <ele>2227</ele>
        <time>2019-10-13T13:40:40.000Z</time>
      </trkpt>
      <trkpt lat="46.0229" lon="6.51303">
        <ele>2227</ele>
        <time>2019-10-13T13:40:43.000Z</time>
      </trkpt>
      <trkpt lat="46.02291" lon="6.51301">
        <ele>2227</ele>
        <time>2019-10-13T13:40:45.000Z</time>
      </trkpt>
      <trkpt lat="46.02292" lon="6.51301">
        <ele>2227</ele>
        <time>2019-10-13T13:40:46.000Z</time>
      </trkpt>
      <trkpt lat="46.02293" lon="6.513">
        <ele>2226.1999511719</ele>
        <time>2019-10-13T13:40:49.000Z</time>
      </trkpt>
      <trkpt lat="46.02295" lon="6.513">
        <ele>2225.8000488281</ele>
        <time>2019-10-13T13:40:52.000Z</time>
      </trkpt>
      <trkpt lat="46.02295" lon="6.513">
        <ele>2225.8000488281</ele>
        <time>2019-10-13T13:40:53.000Z</time>
      </trkpt>
      <trkpt lat="46.02299" lon="6.51296">
        <ele>2225.6000976562</ele>
        <time>2019-10-13T13:40:57.000Z</time>
      </trkpt>
      <trkpt lat="46.02301" lon="6.51297">
        <ele>2225.3999023438</ele>
        <time>2019-10-13T13:40:58.000Z</time>
      </trkpt>
      <trkpt lat="46.02305" lon="6.51298">
        <ele>2225.1999511719</ele>
        <time>2019-10-13T13:41:01.000Z</time>
      </trkpt>
      <trkpt lat="46.02307" lon="6.51298">
        <ele>2225</ele>
        <time>2019-10-13T13:41:02.000Z</time>
      </trkpt>
      <trkpt lat="46.02312" lon="6.51298">
        <ele>2225</ele>
        <time>2019-10-13T13:41:07.000Z</time>
      </trkpt>
      <trkpt lat="46.02317" lon="6.51298">
        <ele>2225.1999511719</ele>
        <time>2019-10-13T13:41:12.000Z</time>
      </trkpt>
      <trkpt lat="46.02318" lon="6.51298">
        <ele>2225.1999511719</ele>
        <time>2019-10-13T13:41:13.000Z</time>
      </trkpt>
      <trkpt lat="46.02319" lon="6.51298">
        <ele>2225</ele>
        <time>2019-10-13T13:41:14.000Z</time>
      </trkpt>
      <trkpt lat="46.0232" lon="6.51297">
        <ele>2224.3999023438</ele>
        <time>2019-10-13T13:41:17.000Z</time>
      </trkpt>
      <trkpt lat="46.0232" lon="6.51297">
        <ele>2224</ele>
        <time>2019-10-13T13:41:18.000Z</time>
      </trkpt>
      <trkpt lat="46.0232" lon="6.51297">
        <ele>2223.6000976562</ele>
        <time>2019-10-13T13:41:19.000Z</time>
      </trkpt>
      <trkpt lat="46.02319" lon="6.51296">
        <ele>2223</ele>
        <time>2019-10-13T13:41:21.000Z</time>
      </trkpt>
      <trkpt lat="46.02319" lon="6.51298">
        <ele>2223.6000976562</ele>
        <time>2019-10-13T13:41:30.000Z</time>
      </trkpt>
      <trkpt lat="46.0232" lon="6.51299">
        <ele>2223.8000488281</ele>
        <time>2019-10-13T13:41:33.000Z</time>
      </trkpt>
      <trkpt lat="46.0232" lon="6.51299">
        <ele>2223.8000488281</ele>
        <time>2019-10-13T13:41:35.000Z</time>
      </trkpt>
      <trkpt lat="46.02321" lon="6.51299">
        <ele>2224</ele>
        <time>2019-10-13T13:41:39.000Z</time>
      </trkpt>
      <trkpt lat="46.02324" lon="6.51299">
        <ele>2224</ele>
        <time>2019-10-13T13:41:42.000Z</time>
      </trkpt>
      <trkpt lat="46.02327" lon="6.51299">
        <ele>2223.8000488281</ele>
        <time>2019-10-13T13:41:45.000Z</time>
      </trkpt>
      <trkpt lat="46.02329" lon="6.513">
        <ele>2223.8000488281</ele>
        <time>2019-10-13T13:41:47.000Z</time>
      </trkpt>
      <trkpt lat="46.02331" lon="6.513">
        <ele>2223.6000976562</ele>
        <time>2019-10-13T13:41:49.000Z</time>
      </trkpt>
      <trkpt lat="46.02333" lon="6.51299">
        <ele>2223</ele>
        <time>2019-10-13T13:41:51.000Z</time>
      </trkpt>
      <trkpt lat="46.02335" lon="6.51299">
        <ele>2223</ele>
        <time>2019-10-13T13:41:52.000Z</time>
      </trkpt>
      <trkpt lat="46.02339" lon="6.51298">
        <ele>2222</ele>
        <time>2019-10-13T13:41:56.000Z</time>
      </trkpt>
      <trkpt lat="46.02339" lon="6.51298">
        <ele>2221.8000488281</ele>
        <time>2019-10-13T13:41:57.000Z</time>
      </trkpt>
      <trkpt lat="46.0234" lon="6.51298">
        <ele>2222</ele>
        <time>2019-10-13T13:41:59.000Z</time>
      </trkpt>
      <trkpt lat="46.02341" lon="6.51301">
        <ele>2222</ele>
        <time>2019-10-13T13:42:01.000Z</time>
      </trkpt>
      <trkpt lat="46.02342" lon="6.51304">
        <ele>2222</ele>
        <time>2019-10-13T13:42:04.000Z</time>
      </trkpt>
      <trkpt lat="46.02342" lon="6.51304">
        <ele>2222.1999511719</ele>
        <time>2019-10-13T13:42:06.000Z</time>
      </trkpt>
      <trkpt lat="46.02342" lon="6.51304">
        <ele>2222.3999023438</ele>
        <time>2019-10-13T13:42:07.000Z</time>
      </trkpt>
      <trkpt lat="46.02342" lon="6.51304">
        <ele>2222.8000488281</ele>
        <time>2019-10-13T13:42:09.000Z</time>
      </trkpt>
      <trkpt lat="46.02343" lon="6.51304">
        <ele>2223</ele>
        <time>2019-10-13T13:42:11.000Z</time>
      </trkpt>
      <trkpt lat="46.02344" lon="6.51305">
        <ele>2222.8000488281</ele>
        <time>2019-10-13T13:42:13.000Z</time>
      </trkpt>
      <trkpt lat="46.02345" lon="6.51305">
        <ele>2222.8000488281</ele>
        <time>2019-10-13T13:42:15.000Z</time>
      </trkpt>
      <trkpt lat="46.02345" lon="6.51306">
        <ele>2221.8000488281</ele>
        <time>2019-10-13T13:42:22.000Z</time>
      </trkpt>
      <trkpt lat="46.02344" lon="6.51305">
        <ele>2221.3999023438</ele>
        <time>2019-10-13T13:42:23.000Z</time>
      </trkpt>
      <trkpt lat="46.02344" lon="6.51303">
        <ele>2220.8000488281</ele>
        <time>2019-10-13T13:42:30.000Z</time>
      </trkpt>
      <trkpt lat="46.02343" lon="6.51303">
        <ele>2222</ele>
        <time>2019-10-13T13:42:38.000Z</time>
      </trkpt>
      <trkpt lat="46.02342" lon="6.51302">
        <ele>2222</ele>
        <time>2019-10-13T13:42:43.000Z</time>
      </trkpt>
      <trkpt lat="46.02343" lon="6.51301">
        <ele>2221.6000976562</ele>
        <time>2019-10-13T13:42:48.000Z</time>
      </trkpt>
      <trkpt lat="46.02342" lon="6.513">
        <ele>2221.6000976562</ele>
        <time>2019-10-13T13:42:51.000Z</time>
      </trkpt>
      <trkpt lat="46.02343" lon="6.51303">
        <ele>2221.1999511719</ele>
        <time>2019-10-13T13:42:56.000Z</time>
      </trkpt>
      <trkpt lat="46.02344" lon="6.51301">
        <ele>2221.6000976562</ele>
        <time>2019-10-13T13:43:02.000Z</time>
      </trkpt>
      <trkpt lat="46.02343" lon="6.513">
        <ele>2220.3999023438</ele>
        <time>2019-10-13T13:43:06.000Z</time>
      </trkpt>
      <trkpt lat="46.02344" lon="6.51302">
        <ele>2219.6000976562</ele>
        <time>2019-10-13T13:43:15.000Z</time>
      </trkpt>
      <trkpt lat="46.02344" lon="6.51302">
        <ele>2219.3999023438</ele>
        <time>2019-10-13T13:43:18.000Z</time>
      </trkpt>
      <trkpt lat="46.02341" lon="6.51305">
        <ele>2219.3999023438</ele>
        <time>2019-10-13T13:43:30.000Z</time>
      </trkpt>
      <trkpt lat="46.02343" lon="6.51305">
        <ele>2219.8000488281</ele>
        <time>2019-10-13T13:43:40.000Z</time>
      </trkpt>
      <trkpt lat="46.02343" lon="6.51303">
        <ele>2219.6000976562</ele>
        <time>2019-10-13T13:44:00.000Z</time>
      </trkpt>
      <trkpt lat="46.02345" lon="6.51303">
        <ele>2218.6000976562</ele>
        <time>2019-10-13T13:44:13.000Z</time>
      </trkpt>
      <trkpt lat="46.02345" lon="6.51303">
        <ele>2218.6000976562</ele>
        <time>2019-10-13T13:44:15.000Z</time>
      </trkpt>
      <trkpt lat="46.02344" lon="6.51307">
        <ele>2219.8000488281</ele>
        <time>2019-10-13T13:44:27.000Z</time>
      </trkpt>
      <trkpt lat="46.02344" lon="6.51306">
        <ele>2219.6000976562</ele>
        <time>2019-10-13T13:44:30.000Z</time>
      </trkpt>
      <trkpt lat="46.02343" lon="6.51306">
        <ele>2216.6000976562</ele>
        <time>2019-10-13T13:44:41.000Z</time>
      </trkpt>
      <trkpt lat="46.02343" lon="6.51306">
        <ele>2217.6000976562</ele>
        <time>2019-10-13T13:44:42.000Z</time>
      </trkpt>
      <trkpt lat="46.02344" lon="6.51306">
        <ele>2218.1999511719</ele>
        <time>2019-10-13T13:44:43.000Z</time>
      </trkpt>
      <trkpt lat="46.02345" lon="6.51305">
        <ele>2218.3999023438</ele>
        <time>2019-10-13T13:44:45.000Z</time>
      </trkpt>
      <trkpt lat="46.02346" lon="6.51304">
        <ele>2218.6000976562</ele>
        <time>2019-10-13T13:44:47.000Z</time>
      </trkpt>
      <trkpt lat="46.02344" lon="6.51304">
        <ele>2218.6000976562</ele>
        <time>2019-10-13T13:45:07.000Z</time>
      </trkpt>
      <trkpt lat="46.02346" lon="6.51303">
        <ele>2218.6000976562</ele>
        <time>2019-10-13T13:45:15.000Z</time>
      </trkpt>
      <trkpt lat="46.02345" lon="6.51303">
        <ele>2218.6000976562</ele>
        <time>2019-10-13T13:45:19.000Z</time>
      </trkpt>
      <trkpt lat="46.02341" lon="6.51299">
        <ele>2218.6000976562</ele>
        <time>2019-10-13T13:45:25.000Z</time>
      </trkpt>
      <trkpt lat="46.02342" lon="6.51301">
        <ele>2218.6000976562</ele>
        <time>2019-10-13T13:45:31.000Z</time>
      </trkpt>
      <trkpt lat="46.02344" lon="6.51304">
        <ele>2220.8000488281</ele>
        <time>2019-10-13T13:45:33.000Z</time>
      </trkpt>
      <trkpt lat="46.02344" lon="6.51306">
        <ele>2222</ele>
        <time>2019-10-13T13:45:36.000Z</time>
      </trkpt>
      <trkpt lat="46.02344" lon="6.51306">
        <ele>2222.3999023438</ele>
        <time>2019-10-13T13:45:41.000Z</time>
      </trkpt>
      <trkpt lat="46.02342" lon="6.51306">
        <ele>2222</ele>
        <time>2019-10-13T13:45:57.000Z</time>
      </trkpt>
      <trkpt lat="46.02342" lon="6.51305">
        <ele>2221.8000488281</ele>
        <time>2019-10-13T13:46:00.000Z</time>
      </trkpt>
      <trkpt lat="46.02342" lon="6.51303">
        <ele>2222</ele>
        <time>2019-10-13T13:46:06.000Z</time>
      </trkpt>
      <trkpt lat="46.02342" lon="6.513">
        <ele>2222</ele>
        <time>2019-10-13T13:46:08.000Z</time>
      </trkpt>
      <trkpt lat="46.02344" lon="6.513">
        <ele>2221.8000488281</ele>
        <time>2019-10-13T13:46:13.000Z</time>
      </trkpt>
      <trkpt lat="46.02343" lon="6.51302">
        <ele>2222.8000488281</ele>
        <time>2019-10-13T13:46:22.000Z</time>
      </trkpt>
      <trkpt lat="46.02343" lon="6.51303">
        <ele>2222.6000976562</ele>
        <time>2019-10-13T13:46:23.000Z</time>
      </trkpt>
      <trkpt lat="46.02344" lon="6.51308">
        <ele>2222.3999023438</ele>
        <time>2019-10-13T13:46:32.000Z</time>
      </trkpt>
      <trkpt lat="46.02346" lon="6.51306">
        <ele>2222.1999511719</ele>
        <time>2019-10-13T13:46:39.000Z</time>
      </trkpt>
      <trkpt lat="46.02346" lon="6.51306">
        <ele>2222.1999511719</ele>
        <time>2019-10-13T13:46:43.000Z</time>
      </trkpt>
      <trkpt lat="46.02344" lon="6.51307">
        <ele>2222.6000976562</ele>
        <time>2019-10-13T13:46:46.000Z</time>
      </trkpt>
      <trkpt lat="46.02344" lon="6.51305">
        <ele>2222.6000976562</ele>
        <time>2019-10-13T13:46:52.000Z</time>
      </trkpt>
      <trkpt lat="46.02343" lon="6.51305">
        <ele>2222.3999023438</ele>
        <time>2019-10-13T13:46:54.000Z</time>
      </trkpt>
      <trkpt lat="46.02341" lon="6.51302">
        <ele>2222.1999511719</ele>
        <time>2019-10-13T13:47:01.000Z</time>
      </trkpt>
      <trkpt lat="46.02339" lon="6.51299">
        <ele>2223.1999511719</ele>
        <time>2019-10-13T13:47:06.000Z</time>
      </trkpt>
      <trkpt lat="46.02339" lon="6.51298">
        <ele>2223.3999023438</ele>
        <time>2019-10-13T13:47:07.000Z</time>
      </trkpt>
      <trkpt lat="46.02338" lon="6.51297">
        <ele>2223.3999023438</ele>
        <time>2019-10-13T13:47:09.000Z</time>
      </trkpt>
      <trkpt lat="46.02336" lon="6.51296">
        <ele>2222.8000488281</ele>
        <time>2019-10-13T13:47:11.000Z</time>
      </trkpt>
      <trkpt lat="46.02336" lon="6.51296">
        <ele>2222.3999023438</ele>
        <time>2019-10-13T13:47:12.000Z</time>
      </trkpt>
      <trkpt lat="46.02335" lon="6.51295">
        <ele>2221.8000488281</ele>
        <time>2019-10-13T13:47:13.000Z</time>
      </trkpt>
      <trkpt lat="46.02332" lon="6.51294">
        <ele>2221.6000976562</ele>
        <time>2019-10-13T13:47:19.000Z</time>
      </trkpt>
      <trkpt lat="46.02331" lon="6.51294">
        <ele>2223.6000976562</ele>
        <time>2019-10-13T13:47:21.000Z</time>
      </trkpt>
      <trkpt lat="46.02331" lon="6.51296">
        <ele>2225</ele>
        <time>2019-10-13T13:47:25.000Z</time>
      </trkpt>
      <trkpt lat="46.0233" lon="6.51295">
        <ele>2225.6000976562</ele>
        <time>2019-10-13T13:47:27.000Z</time>
      </trkpt>
      <trkpt lat="46.02327" lon="6.51294">
        <ele>2224.8000488281</ele>
        <time>2019-10-13T13:47:33.000Z</time>
      </trkpt>
      <trkpt lat="46.02324" lon="6.51294">
        <ele>2226.1999511719</ele>
        <time>2019-10-13T13:47:37.000Z</time>
      </trkpt>
      <trkpt lat="46.02322" lon="6.51294">
        <ele>2227.6000976562</ele>
        <time>2019-10-13T13:47:39.000Z</time>
      </trkpt>
      <trkpt lat="46.02321" lon="6.51296">
        <ele>2229.3999023438</ele>
        <time>2019-10-13T13:47:41.000Z</time>
      </trkpt>
      <trkpt lat="46.02318" lon="6.51297">
        <ele>2230.6000976562</ele>
        <time>2019-10-13T13:47:44.000Z</time>
      </trkpt>
      <trkpt lat="46.02312" lon="6.51295">
        <ele>2229.3999023438</ele>
        <time>2019-10-13T13:47:49.000Z</time>
      </trkpt>
      <trkpt lat="46.0231" lon="6.51296">
        <ele>2229.1999511719</ele>
        <time>2019-10-13T13:47:51.000Z</time>
      </trkpt>
      <trkpt lat="46.02304" lon="6.51297">
        <ele>2229.3999023438</ele>
        <time>2019-10-13T13:47:57.000Z</time>
      </trkpt>
      <trkpt lat="46.023" lon="6.51296">
        <ele>2228</ele>
        <time>2019-10-13T13:48:00.000Z</time>
      </trkpt>
      <trkpt lat="46.02298" lon="6.51295">
        <ele>2226.8000488281</ele>
        <time>2019-10-13T13:48:03.000Z</time>
      </trkpt>
      <trkpt lat="46.02297" lon="6.51294">
        <ele>2226.6000976562</ele>
        <time>2019-10-13T13:48:04.000Z</time>
      </trkpt>
      <trkpt lat="46.02296" lon="6.51295">
        <ele>2226.6000976562</ele>
        <time>2019-10-13T13:48:06.000Z</time>
      </trkpt>
      <trkpt lat="46.02295" lon="6.51296">
        <ele>2226.6000976562</ele>
        <time>2019-10-13T13:48:08.000Z</time>
      </trkpt>
      <trkpt lat="46.02292" lon="6.51295">
        <ele>2226.3999023438</ele>
        <time>2019-10-13T13:48:11.000Z</time>
      </trkpt>
      <trkpt lat="46.02291" lon="6.51294">
        <ele>2226.3999023438</ele>
        <time>2019-10-13T13:48:13.000Z</time>
      </trkpt>
      <trkpt lat="46.0229" lon="6.51294">
        <ele>2226.3999023438</ele>
        <time>2019-10-13T13:48:14.000Z</time>
      </trkpt>
      <trkpt lat="46.02287" lon="6.51295">
        <ele>2227</ele>
        <time>2019-10-13T13:48:18.000Z</time>
      </trkpt>
      <trkpt lat="46.02286" lon="6.51295">
        <ele>2227.6000976562</ele>
        <time>2019-10-13T13:48:21.000Z</time>
      </trkpt>
      <trkpt lat="46.02286" lon="6.51295">
        <ele>2227.6000976562</ele>
        <time>2019-10-13T13:48:22.000Z</time>
      </trkpt>
      <trkpt lat="46.02284" lon="6.51297">
        <ele>2228</ele>
        <time>2019-10-13T13:48:24.000Z</time>
      </trkpt>
      <trkpt lat="46.02282" lon="6.51297">
        <ele>2228.3999023438</ele>
        <time>2019-10-13T13:48:27.000Z</time>
      </trkpt>
      <trkpt lat="46.02282" lon="6.51297">
        <ele>2228.3999023438</ele>
        <time>2019-10-13T13:48:28.000Z</time>
      </trkpt>
      <trkpt lat="46.02279" lon="6.51296">
        <ele>2228.3999023438</ele>
        <time>2019-10-13T13:48:33.000Z</time>
      </trkpt>
      <trkpt lat="46.02275" lon="6.51292">
        <ele>2229</ele>
        <time>2019-10-13T13:48:39.000Z</time>
      </trkpt>
      <trkpt lat="46.02275" lon="6.51291">
        <ele>2229.1999511719</ele>
        <time>2019-10-13T13:48:40.000Z</time>
      </trkpt>
      <trkpt lat="46.02274" lon="6.51291">
        <ele>2229.1999511719</ele>
        <time>2019-10-13T13:48:42.000Z</time>
      </trkpt>
      <trkpt lat="46.02271" lon="6.5129">
        <ele>2229.3999023438</ele>
        <time>2019-10-13T13:48:47.000Z</time>
      </trkpt>
      <trkpt lat="46.02269" lon="6.51289">
        <ele>2230</ele>
        <time>2019-10-13T13:48:50.000Z</time>
      </trkpt>
      <trkpt lat="46.02269" lon="6.51289">
        <ele>2230.1999511719</ele>
        <time>2019-10-13T13:48:52.000Z</time>
      </trkpt>
      <trkpt lat="46.02265" lon="6.51287">
        <ele>2230.6000976562</ele>
        <time>2019-10-13T13:48:58.000Z</time>
      </trkpt>
      <trkpt lat="46.02264" lon="6.51285">
        <ele>2230.6000976562</ele>
        <time>2019-10-13T13:49:00.000Z</time>
      </trkpt>
      <trkpt lat="46.02262" lon="6.51283">
        <ele>2230.3999023438</ele>
        <time>2019-10-13T13:49:04.000Z</time>
      </trkpt>
      <trkpt lat="46.02259" lon="6.51282">
        <ele>2231.3999023438</ele>
        <time>2019-10-13T13:49:08.000Z</time>
      </trkpt>
      <trkpt lat="46.02258" lon="6.51282">
        <ele>2231.8000488281</ele>
        <time>2019-10-13T13:49:09.000Z</time>
      </trkpt>
      <trkpt lat="46.02255" lon="6.51283">
        <ele>2232</ele>
        <time>2019-10-13T13:49:11.000Z</time>
      </trkpt>
      <trkpt lat="46.02253" lon="6.51282">
        <ele>2231.8000488281</ele>
        <time>2019-10-13T13:49:14.000Z</time>
      </trkpt>
      <trkpt lat="46.02251" lon="6.51282">
        <ele>2231.6000976562</ele>
        <time>2019-10-13T13:49:17.000Z</time>
      </trkpt>
      <trkpt lat="46.02248" lon="6.51282">
        <ele>2232</ele>
        <time>2019-10-13T13:49:21.000Z</time>
      </trkpt>
      <trkpt lat="46.02247" lon="6.51282">
        <ele>2232.3999023438</ele>
        <time>2019-10-13T13:49:22.000Z</time>
      </trkpt>
      <trkpt lat="46.02245" lon="6.51282">
        <ele>2233.6000976562</ele>
        <time>2019-10-13T13:49:25.000Z</time>
      </trkpt>
      <trkpt lat="46.02244" lon="6.51283">
        <ele>2233.6000976562</ele>
        <time>2019-10-13T13:49:26.000Z</time>
      </trkpt>
      <trkpt lat="46.02241" lon="6.51283">
        <ele>2233.1999511719</ele>
        <time>2019-10-13T13:49:29.000Z</time>
      </trkpt>
      <trkpt lat="46.0224" lon="6.51282">
        <ele>2232.8000488281</ele>
        <time>2019-10-13T13:49:32.000Z</time>
      </trkpt>
      <trkpt lat="46.0224" lon="6.51281">
        <ele>2233.1999511719</ele>
        <time>2019-10-13T13:49:34.000Z</time>
      </trkpt>
      <trkpt lat="46.02238" lon="6.51282">
        <ele>2231.8000488281</ele>
        <time>2019-10-13T13:49:37.000Z</time>
      </trkpt>
      <trkpt lat="46.02237" lon="6.51281">
        <ele>2231.6000976562</ele>
        <time>2019-10-13T13:49:39.000Z</time>
      </trkpt>
      <trkpt lat="46.02237" lon="6.51281">
        <ele>2233</ele>
        <time>2019-10-13T13:49:43.000Z</time>
      </trkpt>
      <trkpt lat="46.02236" lon="6.51283">
        <ele>2234.6000976562</ele>
        <time>2019-10-13T13:49:45.000Z</time>
      </trkpt>
      <trkpt lat="46.02235" lon="6.51282">
        <ele>2235.1999511719</ele>
        <time>2019-10-13T13:49:48.000Z</time>
      </trkpt>
      <trkpt lat="46.02234" lon="6.51283">
        <ele>2233.3999023438</ele>
        <time>2019-10-13T13:49:51.000Z</time>
      </trkpt>
      <trkpt lat="46.02233" lon="6.51283">
        <ele>2232</ele>
        <time>2019-10-13T13:49:53.000Z</time>
      </trkpt>
      <trkpt lat="46.02231" lon="6.51284">
        <ele>2232</ele>
        <time>2019-10-13T13:49:58.000Z</time>
      </trkpt>
      <trkpt lat="46.0223" lon="6.51284">
        <ele>2232.8000488281</ele>
        <time>2019-10-13T13:50:03.000Z</time>
      </trkpt>
      <trkpt lat="46.02229" lon="6.51286">
        <ele>2230.3999023438</ele>
        <time>2019-10-13T13:50:13.000Z</time>
      </trkpt>
      <trkpt lat="46.02229" lon="6.51286">
        <ele>2229.1999511719</ele>
        <time>2019-10-13T13:50:14.000Z</time>
      </trkpt>
      <trkpt lat="46.02228" lon="6.51285">
        <ele>2228</ele>
        <time>2019-10-13T13:50:15.000Z</time>
      </trkpt>
      <trkpt lat="46.02228" lon="6.51284">
        <ele>2226.6000976562</ele>
        <time>2019-10-13T13:50:17.000Z</time>
      </trkpt>
      <trkpt lat="46.02229" lon="6.51286">
        <ele>2225.3999023438</ele>
        <time>2019-10-13T13:50:21.000Z</time>
      </trkpt>
      <trkpt lat="46.02231" lon="6.51284">
        <ele>2227.8000488281</ele>
        <time>2019-10-13T13:50:24.000Z</time>
      </trkpt>
      <trkpt lat="46.02232" lon="6.51284">
        <ele>2229.3999023438</ele>
        <time>2019-10-13T13:50:25.000Z</time>
      </trkpt>
      <trkpt lat="46.02232" lon="6.51284">
        <ele>2231.1999511719</ele>
        <time>2019-10-13T13:50:27.000Z</time>
      </trkpt>
      <trkpt lat="46.02234" lon="6.51285">
        <ele>2231.1999511719</ele>
        <time>2019-10-13T13:50:34.000Z</time>
      </trkpt>
      <trkpt lat="46.02233" lon="6.51287">
        <ele>2230.3999023438</ele>
        <time>2019-10-13T13:50:39.000Z</time>
      </trkpt>
      <trkpt lat="46.02229" lon="6.51284">
        <ele>2230.1999511719</ele>
        <time>2019-10-13T13:50:51.000Z</time>
      </trkpt>
      <trkpt lat="46.02229" lon="6.51285">
        <ele>2229.8000488281</ele>
        <time>2019-10-13T13:50:53.000Z</time>
      </trkpt>
      <trkpt lat="46.0223" lon="6.51285">
        <ele>2229.6000976562</ele>
        <time>2019-10-13T13:50:56.000Z</time>
      </trkpt>
      <trkpt lat="46.02233" lon="6.51287">
        <ele>2230.3999023438</ele>
        <time>2019-10-13T13:51:02.000Z</time>
      </trkpt>
      <trkpt lat="46.02234" lon="6.51287">
        <ele>2230.8000488281</ele>
        <time>2019-10-13T13:51:03.000Z</time>
      </trkpt>
      <trkpt lat="46.02235" lon="6.51287">
        <ele>2231.3999023438</ele>
        <time>2019-10-13T13:51:06.000Z</time>
      </trkpt>
      <trkpt lat="46.02235" lon="6.51285">
        <ele>2232</ele>
        <time>2019-10-13T13:51:10.000Z</time>
      </trkpt>
      <trkpt lat="46.02232" lon="6.51287">
        <ele>2231.3999023438</ele>
        <time>2019-10-13T13:51:19.000Z</time>
      </trkpt>
      <trkpt lat="46.02231" lon="6.51286">
        <ele>2231.3999023438</ele>
        <time>2019-10-13T13:51:22.000Z</time>
      </trkpt>
      <trkpt lat="46.02232" lon="6.51286">
        <ele>2231.8000488281</ele>
        <time>2019-10-13T13:51:24.000Z</time>
      </trkpt>
      <trkpt lat="46.02232" lon="6.51286">
        <ele>2232.1999511719</ele>
        <time>2019-10-13T13:51:26.000Z</time>
      </trkpt>
      <trkpt lat="46.0223" lon="6.51287">
        <ele>2229.8000488281</ele>
        <time>2019-10-13T13:51:31.000Z</time>
      </trkpt>
      <trkpt lat="46.02231" lon="6.51287">
        <ele>2228.3999023438</ele>
        <time>2019-10-13T13:51:32.000Z</time>
      </trkpt>
      <trkpt lat="46.02231" lon="6.51288">
        <ele>2227.3999023438</ele>
        <time>2019-10-13T13:51:34.000Z</time>
      </trkpt>
      <trkpt lat="46.02232" lon="6.51287">
        <ele>2228.1999511719</ele>
        <time>2019-10-13T13:51:37.000Z</time>
      </trkpt>
      <trkpt lat="46.02231" lon="6.51287">
        <ele>2228.6000976562</ele>
        <time>2019-10-13T13:51:38.000Z</time>
      </trkpt>
      <trkpt lat="46.02231" lon="6.51288">
        <ele>2229.8000488281</ele>
        <time>2019-10-13T13:51:41.000Z</time>
      </trkpt>
      <trkpt lat="46.02232" lon="6.51286">
        <ele>2229.8000488281</ele>
        <time>2019-10-13T13:51:50.000Z</time>
      </trkpt>
      <trkpt lat="46.02233" lon="6.51284">
        <ele>2229.8000488281</ele>
        <time>2019-10-13T13:51:58.000Z</time>
      </trkpt>
      <trkpt lat="46.02233" lon="6.51285">
        <ele>2229.8000488281</ele>
        <time>2019-10-13T13:52:00.000Z</time>
      </trkpt>
      <trkpt lat="46.02232" lon="6.51285">
        <ele>2229.8000488281</ele>
        <time>2019-10-13T13:52:01.000Z</time>
      </trkpt>
      <trkpt lat="46.02231" lon="6.51286">
        <ele>2229.8000488281</ele>
        <time>2019-10-13T13:52:08.000Z</time>
      </trkpt>
      <trkpt lat="46.02229" lon="6.51286">
        <ele>2229.8000488281</ele>
        <time>2019-10-13T13:52:13.000Z</time>
      </trkpt>
      <trkpt lat="46.02226" lon="6.51283">
        <ele>2229.8000488281</ele>
        <time>2019-10-13T13:52:20.000Z</time>
      </trkpt>
      <trkpt lat="46.02226" lon="6.5128">
        <ele>2229.8000488281</ele>
        <time>2019-10-13T13:52:24.000Z</time>
      </trkpt>
      <trkpt lat="46.02226" lon="6.51279">
        <ele>2229.8000488281</ele>
        <time>2019-10-13T13:52:26.000Z</time>
      </trkpt>
      <trkpt lat="46.02224" lon="6.51277">
        <ele>2228</ele>
        <time>2019-10-13T13:52:31.000Z</time>
      </trkpt>
      <trkpt lat="46.02224" lon="6.51278">
        <ele>2227</ele>
        <time>2019-10-13T13:52:33.000Z</time>
      </trkpt>
      <trkpt lat="46.02224" lon="6.51278">
        <ele>2226.8000488281</ele>
        <time>2019-10-13T13:52:35.000Z</time>
      </trkpt>
      <trkpt lat="46.02224" lon="6.51277">
        <ele>2226.8000488281</ele>
        <time>2019-10-13T13:52:37.000Z</time>
      </trkpt>
      <trkpt lat="46.02226" lon="6.51277">
        <ele>2228.3999023438</ele>
        <time>2019-10-13T13:52:44.000Z</time>
      </trkpt>
      <trkpt lat="46.02227" lon="6.51281">
        <ele>2229.1999511719</ele>
        <time>2019-10-13T13:52:47.000Z</time>
      </trkpt>
      <trkpt lat="46.02223" lon="6.51281">
        <ele>2229.1999511719</ele>
        <time>2019-10-13T13:52:53.000Z</time>
      </trkpt>
      <trkpt lat="46.02222" lon="6.5128">
        <ele>2229.6000976562</ele>
        <time>2019-10-13T13:52:55.000Z</time>
      </trkpt>
      <trkpt lat="46.02223" lon="6.5128">
        <ele>2230</ele>
        <time>2019-10-13T13:52:58.000Z</time>
      </trkpt>
      <trkpt lat="46.02222" lon="6.5128">
        <ele>2230.6000976562</ele>
        <time>2019-10-13T13:53:01.000Z</time>
      </trkpt>
      <trkpt lat="46.02222" lon="6.5128">
        <ele>2230.1999511719</ele>
        <time>2019-10-13T13:53:02.000Z</time>
      </trkpt>
      <trkpt lat="46.02222" lon="6.5128">
        <ele>2229.1999511719</ele>
        <time>2019-10-13T13:53:03.000Z</time>
      </trkpt>
      <trkpt lat="46.02223" lon="6.51281">
        <ele>2227.8000488281</ele>
        <time>2019-10-13T13:53:04.000Z</time>
      </trkpt>
      <trkpt lat="46.02223" lon="6.5128">
        <ele>2226.6000976562</ele>
        <time>2019-10-13T13:53:05.000Z</time>
      </trkpt>
      <trkpt lat="46.02223" lon="6.5128">
        <ele>2225.1999511719</ele>
        <time>2019-10-13T13:53:07.000Z</time>
      </trkpt>
      <trkpt lat="46.02223" lon="6.5128">
        <ele>2225.1999511719</ele>
        <time>2019-10-13T13:53:08.000Z</time>
      </trkpt>
      <trkpt lat="46.02225" lon="6.51281">
        <ele>2226.6000976562</ele>
        <time>2019-10-13T13:53:12.000Z</time>
      </trkpt>
      <trkpt lat="46.02225" lon="6.51281">
        <ele>2227.8000488281</ele>
        <time>2019-10-13T13:53:14.000Z</time>
      </trkpt>
      <trkpt lat="46.02223" lon="6.5128">
        <ele>2228.3999023438</ele>
        <time>2019-10-13T13:53:17.000Z</time>
      </trkpt>
      <trkpt lat="46.02223" lon="6.51279">
        <ele>2226.8000488281</ele>
        <time>2019-10-13T13:53:19.000Z</time>
      </trkpt>
      <trkpt lat="46.02223" lon="6.51278">
        <ele>2225.6000976562</ele>
        <time>2019-10-13T13:53:20.000Z</time>
      </trkpt>
      <trkpt lat="46.02223" lon="6.51275">
        <ele>2224.6000976562</ele>
        <time>2019-10-13T13:53:22.000Z</time>
      </trkpt>
      <trkpt lat="46.02223" lon="6.51274">
        <ele>2224.1999511719</ele>
        <time>2019-10-13T13:53:23.000Z</time>
      </trkpt>
      <trkpt lat="46.02226" lon="6.51269">
        <ele>2224.3999023438</ele>
        <time>2019-10-13T13:53:28.000Z</time>
      </trkpt>
      <trkpt lat="46.02226" lon="6.51266">
        <ele>2224.3999023438</ele>
        <time>2019-10-13T13:53:30.000Z</time>
      </trkpt>
      <trkpt lat="46.02226" lon="6.51265">
        <ele>2224</ele>
        <time>2019-10-13T13:53:33.000Z</time>
      </trkpt>
      <trkpt lat="46.02226" lon="6.51265">
        <ele>2223.3999023438</ele>
        <time>2019-10-13T13:53:35.000Z</time>
      </trkpt>
      <trkpt lat="46.02228" lon="6.51268">
        <ele>2223.1999511719</ele>
        <time>2019-10-13T13:53:39.000Z</time>
      </trkpt>
      <trkpt lat="46.02233" lon="6.51265">
        <ele>2224.6000976562</ele>
        <time>2019-10-13T13:53:45.000Z</time>
      </trkpt>
      <trkpt lat="46.02235" lon="6.51265">
        <ele>2225.8000488281</ele>
        <time>2019-10-13T13:53:47.000Z</time>
      </trkpt>
      <trkpt lat="46.02237" lon="6.51264">
        <ele>2226.1999511719</ele>
        <time>2019-10-13T13:53:49.000Z</time>
      </trkpt>
      <trkpt lat="46.02238" lon="6.51264">
        <ele>2226.1999511719</ele>
        <time>2019-10-13T13:53:51.000Z</time>
      </trkpt>
      <trkpt lat="46.02238" lon="6.51263">
        <ele>2226.1999511719</ele>
        <time>2019-10-13T13:53:52.000Z</time>
      </trkpt>
      <trkpt lat="46.02239" lon="6.51265">
        <ele>2226.8000488281</ele>
        <time>2019-10-13T13:53:55.000Z</time>
      </trkpt>
      <trkpt lat="46.0224" lon="6.51264">
        <ele>2227</ele>
        <time>2019-10-13T13:53:56.000Z</time>
      </trkpt>
      <trkpt lat="46.0224" lon="6.51263">
        <ele>2228</ele>
        <time>2019-10-13T13:53:59.000Z</time>
      </trkpt>
      <trkpt lat="46.02239" lon="6.5126">
        <ele>2228.1999511719</ele>
        <time>2019-10-13T13:54:01.000Z</time>
      </trkpt>
      <trkpt lat="46.02239" lon="6.51257">
        <ele>2226.6000976562</ele>
        <time>2019-10-13T13:54:05.000Z</time>
      </trkpt>
      <trkpt lat="46.02238" lon="6.51257">
        <ele>2226</ele>
        <time>2019-10-13T13:54:06.000Z</time>
      </trkpt>
      <trkpt lat="46.02238" lon="6.51257">
        <ele>2225.1999511719</ele>
        <time>2019-10-13T13:54:07.000Z</time>
      </trkpt>
      <trkpt lat="46.02238" lon="6.51256">
        <ele>2224.1999511719</ele>
        <time>2019-10-13T13:54:09.000Z</time>
      </trkpt>
      <trkpt lat="46.02237" lon="6.51253">
        <ele>2223.6000976562</ele>
        <time>2019-10-13T13:54:12.000Z</time>
      </trkpt>
      <trkpt lat="46.02237" lon="6.51251">
        <ele>2223</ele>
        <time>2019-10-13T13:54:14.000Z</time>
      </trkpt>
      <trkpt lat="46.02235" lon="6.51249">
        <ele>2222</ele>
        <time>2019-10-13T13:54:18.000Z</time>
      </trkpt>
      <trkpt lat="46.02234" lon="6.51246">
        <ele>2221</ele>
        <time>2019-10-13T13:54:21.000Z</time>
      </trkpt>
      <trkpt lat="46.02234" lon="6.51243">
        <ele>2220.1999511719</ele>
        <time>2019-10-13T13:54:23.000Z</time>
      </trkpt>
      <trkpt lat="46.02234" lon="6.51242">
        <ele>2219.6000976562</ele>
        <time>2019-10-13T13:54:25.000Z</time>
      </trkpt>
      <trkpt lat="46.02233" lon="6.51236">
        <ele>2218.8000488281</ele>
        <time>2019-10-13T13:54:29.000Z</time>
      </trkpt>
      <trkpt lat="46.02233" lon="6.51234">
        <ele>2218.6000976562</ele>
        <time>2019-10-13T13:54:31.000Z</time>
      </trkpt>
      <trkpt lat="46.02234" lon="6.51233">
        <ele>2218.6000976562</ele>
        <time>2019-10-13T13:54:32.000Z</time>
      </trkpt>
      <trkpt lat="46.02236" lon="6.51229">
        <ele>2218</ele>
        <time>2019-10-13T13:54:35.000Z</time>
      </trkpt>
      <trkpt lat="46.02236" lon="6.51226">
        <ele>2217.6000976562</ele>
        <time>2019-10-13T13:54:38.000Z</time>
      </trkpt>
      <trkpt lat="46.02235" lon="6.51223">
        <ele>2216.3999023438</ele>
        <time>2019-10-13T13:54:42.000Z</time>
      </trkpt>
      <trkpt lat="46.02235" lon="6.51222">
        <ele>2215.8000488281</ele>
        <time>2019-10-13T13:54:43.000Z</time>
      </trkpt>
      <trkpt lat="46.02239" lon="6.5122">
        <ele>2215.8000488281</ele>
        <time>2019-10-13T13:54:47.000Z</time>
      </trkpt>
      <trkpt lat="46.0224" lon="6.51219">
        <ele>2216</ele>
        <time>2019-10-13T13:54:48.000Z</time>
      </trkpt>
      <trkpt lat="46.02246" lon="6.51217">
        <ele>2216.3999023438</ele>
        <time>2019-10-13T13:54:54.000Z</time>
      </trkpt>
      <trkpt lat="46.02253" lon="6.51213">
        <ele>2216.6000976562</ele>
        <time>2019-10-13T13:54:59.000Z</time>
      </trkpt>
      <trkpt lat="46.02256" lon="6.51211">
        <ele>2216.8000488281</ele>
        <time>2019-10-13T13:55:01.000Z</time>
      </trkpt>
      <trkpt lat="46.02264" lon="6.5121">
        <ele>2216.1999511719</ele>
        <time>2019-10-13T13:55:07.000Z</time>
      </trkpt>
      <trkpt lat="46.02266" lon="6.51209">
        <ele>2216.1999511719</ele>
        <time>2019-10-13T13:55:12.000Z</time>
      </trkpt>
      <trkpt lat="46.02267" lon="6.51208">
        <ele>2216.1999511719</ele>
        <time>2019-10-13T13:55:14.000Z</time>
      </trkpt>
      <trkpt lat="46.0227" lon="6.51209">
        <ele>2216.1999511719</ele>
        <time>2019-10-13T13:55:17.000Z</time>
      </trkpt>
      <trkpt lat="46.0227" lon="6.51209">
        <ele>2216</ele>
        <time>2019-10-13T13:55:18.000Z</time>
      </trkpt>
      <trkpt lat="46.0227" lon="6.51209">
        <ele>2215.3999023438</ele>
        <time>2019-10-13T13:55:20.000Z</time>
      </trkpt>
      <trkpt lat="46.02271" lon="6.51207">
        <ele>2214</ele>
        <time>2019-10-13T13:55:22.000Z</time>
      </trkpt>
      <trkpt lat="46.02272" lon="6.51205">
        <ele>2213.6000976562</ele>
        <time>2019-10-13T13:55:23.000Z</time>
      </trkpt>
      <trkpt lat="46.02274" lon="6.51197">
        <ele>2212.8000488281</ele>
        <time>2019-10-13T13:55:27.000Z</time>
      </trkpt>
      <trkpt lat="46.02274" lon="6.51194">
        <ele>2212.6000976562</ele>
        <time>2019-10-13T13:55:29.000Z</time>
      </trkpt>
      <trkpt lat="46.02275" lon="6.51189">
        <ele>2211.8000488281</ele>
        <time>2019-10-13T13:55:32.000Z</time>
      </trkpt>
      <trkpt lat="46.02276" lon="6.51188">
        <ele>2211.3999023438</ele>
        <time>2019-10-13T13:55:33.000Z</time>
      </trkpt>
      <trkpt lat="46.02279" lon="6.51184">
        <ele>2210.8000488281</ele>
        <time>2019-10-13T13:55:35.000Z</time>
      </trkpt>
      <trkpt lat="46.0228" lon="6.51183">
        <ele>2210.6000976562</ele>
        <time>2019-10-13T13:55:36.000Z</time>
      </trkpt>
      <trkpt lat="46.02285" lon="6.51175">
        <ele>2209.8000488281</ele>
        <time>2019-10-13T13:55:42.000Z</time>
      </trkpt>
      <trkpt lat="46.02287" lon="6.51173">
        <ele>2209.6000976562</ele>
        <time>2019-10-13T13:55:44.000Z</time>
      </trkpt>
      <trkpt lat="46.02291" lon="6.51168">
        <ele>2208.8000488281</ele>
        <time>2019-10-13T13:55:48.000Z</time>
      </trkpt>
      <trkpt lat="46.0229" lon="6.51165">
        <ele>2208.3999023438</ele>
        <time>2019-10-13T13:55:50.000Z</time>
      </trkpt>
      <trkpt lat="46.0229" lon="6.51162">
        <ele>2207.6000976562</ele>
        <time>2019-10-13T13:55:52.000Z</time>
      </trkpt>
      <trkpt lat="46.02291" lon="6.51161">
        <ele>2207</ele>
        <time>2019-10-13T13:55:53.000Z</time>
      </trkpt>
      <trkpt lat="46.02293" lon="6.5116">
        <ele>2207.1999511719</ele>
        <time>2019-10-13T13:55:56.000Z</time>
      </trkpt>
      <trkpt lat="46.02294" lon="6.5116">
        <ele>2208</ele>
        <time>2019-10-13T13:55:58.000Z</time>
      </trkpt>
      <trkpt lat="46.02296" lon="6.51158">
        <ele>2207.1999511719</ele>
        <time>2019-10-13T13:56:01.000Z</time>
      </trkpt>
      <trkpt lat="46.02297" lon="6.51158">
        <ele>2206.8000488281</ele>
        <time>2019-10-13T13:56:02.000Z</time>
      </trkpt>
      <trkpt lat="46.02299" lon="6.51156">
        <ele>2206</ele>
        <time>2019-10-13T13:56:06.000Z</time>
      </trkpt>
      <trkpt lat="46.023" lon="6.51155">
        <ele>2206.3999023438</ele>
        <time>2019-10-13T13:56:08.000Z</time>
      </trkpt>
      <trkpt lat="46.02301" lon="6.51152">
        <ele>2205</ele>
        <time>2019-10-13T13:56:11.000Z</time>
      </trkpt>
      <trkpt lat="46.02302" lon="6.51151">
        <ele>2203.8000488281</ele>
        <time>2019-10-13T13:56:12.000Z</time>
      </trkpt>
      <trkpt lat="46.02303" lon="6.51149">
        <ele>2202.6000976562</ele>
        <time>2019-10-13T13:56:14.000Z</time>
      </trkpt>
      <trkpt lat="46.02303" lon="6.51148">
        <ele>2201.8000488281</ele>
        <time>2019-10-13T13:56:16.000Z</time>
      </trkpt>
      <trkpt lat="46.02303" lon="6.51147">
        <ele>2201.1999511719</ele>
        <time>2019-10-13T13:56:17.000Z</time>
      </trkpt>
      <trkpt lat="46.02302" lon="6.51144">
        <ele>2199.6000976562</ele>
        <time>2019-10-13T13:56:20.000Z</time>
      </trkpt>
      <trkpt lat="46.02302" lon="6.51141">
        <ele>2198.3999023438</ele>
        <time>2019-10-13T13:56:22.000Z</time>
      </trkpt>
      <trkpt lat="46.02303" lon="6.51139">
        <ele>2198</ele>
        <time>2019-10-13T13:56:24.000Z</time>
      </trkpt>
      <trkpt lat="46.02304" lon="6.51136">
        <ele>2197.1999511719</ele>
        <time>2019-10-13T13:56:27.000Z</time>
      </trkpt>
      <trkpt lat="46.02304" lon="6.51136">
        <ele>2197</ele>
        <time>2019-10-13T13:56:28.000Z</time>
      </trkpt>
      <trkpt lat="46.02304" lon="6.51135">
        <ele>2196.6000976562</ele>
        <time>2019-10-13T13:56:29.000Z</time>
      </trkpt>
      <trkpt lat="46.02303" lon="6.51133">
        <ele>2196</ele>
        <time>2019-10-13T13:56:31.000Z</time>
      </trkpt>
      <trkpt lat="46.02303" lon="6.51131">
        <ele>2195.3999023438</ele>
        <time>2019-10-13T13:56:32.000Z</time>
      </trkpt>
      <trkpt lat="46.02303" lon="6.51129">
        <ele>2194.8000488281</ele>
        <time>2019-10-13T13:56:34.000Z</time>
      </trkpt>
      <trkpt lat="46.02303" lon="6.51127">
        <ele>2194.1999511719</ele>
        <time>2019-10-13T13:56:35.000Z</time>
      </trkpt>
      <trkpt lat="46.02302" lon="6.51124">
        <ele>2194</ele>
        <time>2019-10-13T13:56:37.000Z</time>
      </trkpt>
      <trkpt lat="46.02302" lon="6.51122">
        <ele>2193.6000976562</ele>
        <time>2019-10-13T13:56:38.000Z</time>
      </trkpt>
      <trkpt lat="46.02301" lon="6.51114">
        <ele>2193.1999511719</ele>
        <time>2019-10-13T13:56:42.000Z</time>
      </trkpt>
      <trkpt lat="46.023" lon="6.51107">
        <ele>2193</ele>
        <time>2019-10-13T13:56:45.000Z</time>
      </trkpt>
      <trkpt lat="46.023" lon="6.51103">
        <ele>2192.1999511719</ele>
        <time>2019-10-13T13:56:47.000Z</time>
      </trkpt>
      <trkpt lat="46.02301" lon="6.51101">
        <ele>2192.1999511719</ele>
        <time>2019-10-13T13:56:50.000Z</time>
      </trkpt>
      <trkpt lat="46.02301" lon="6.51099">
        <ele>2191.3999023438</ele>
        <time>2019-10-13T13:56:52.000Z</time>
      </trkpt>
      <trkpt lat="46.02301" lon="6.51098">
        <ele>2190.6000976562</ele>
        <time>2019-10-13T13:56:53.000Z</time>
      </trkpt>
      <trkpt lat="46.023" lon="6.51097">
        <ele>2191.3999023438</ele>
        <time>2019-10-13T13:56:56.000Z</time>
      </trkpt>
      <trkpt lat="46.02301" lon="6.51091">
        <ele>2192.3999023438</ele>
        <time>2019-10-13T13:57:00.000Z</time>
      </trkpt>
      <trkpt lat="46.023" lon="6.51086">
        <ele>2192</ele>
        <time>2019-10-13T13:57:02.000Z</time>
      </trkpt>
      <trkpt lat="46.023" lon="6.51085">
        <ele>2191.1999511719</ele>
        <time>2019-10-13T13:57:03.000Z</time>
      </trkpt>
      <trkpt lat="46.02297" lon="6.51082">
        <ele>2190.3999023438</ele>
        <time>2019-10-13T13:57:06.000Z</time>
      </trkpt>
      <trkpt lat="46.02297" lon="6.51082">
        <ele>2189.8000488281</ele>
        <time>2019-10-13T13:57:07.000Z</time>
      </trkpt>
      <trkpt lat="46.02297" lon="6.51083">
        <ele>2189.6000976562</ele>
        <time>2019-10-13T13:57:08.000Z</time>
      </trkpt>
      <trkpt lat="46.02299" lon="6.51083">
        <ele>2189.1999511719</ele>
        <time>2019-10-13T13:57:10.000Z</time>
      </trkpt>
      <trkpt lat="46.02299" lon="6.51084">
        <ele>2189.8000488281</ele>
        <time>2019-10-13T13:57:11.000Z</time>
      </trkpt>
      <trkpt lat="46.023" lon="6.51089">
        <ele>2191</ele>
        <time>2019-10-13T13:57:14.000Z</time>
      </trkpt>
      <trkpt lat="46.023" lon="6.51091">
        <ele>2191.6000976562</ele>
        <time>2019-10-13T13:57:15.000Z</time>
      </trkpt>
      <trkpt lat="46.02299" lon="6.51095">
        <ele>2192.1999511719</ele>
        <time>2019-10-13T13:57:17.000Z</time>
      </trkpt>
      <trkpt lat="46.02299" lon="6.51098">
        <ele>2192.3999023438</ele>
        <time>2019-10-13T13:57:19.000Z</time>
      </trkpt>
      <trkpt lat="46.02299" lon="6.51099">
        <ele>2192.6000976562</ele>
        <time>2019-10-13T13:57:20.000Z</time>
      </trkpt>
      <trkpt lat="46.02299" lon="6.511">
        <ele>2192.3999023438</ele>
        <time>2019-10-13T13:57:21.000Z</time>
      </trkpt>
      <trkpt lat="46.02298" lon="6.51101">
        <ele>2192.3999023438</ele>
        <time>2019-10-13T13:57:23.000Z</time>
      </trkpt>
      <trkpt lat="46.02296" lon="6.51101">
        <ele>2192</ele>
        <time>2019-10-13T13:57:25.000Z</time>
      </trkpt>
      <trkpt lat="46.02294" lon="6.511">
        <ele>2191.3999023438</ele>
        <time>2019-10-13T13:57:26.000Z</time>
      </trkpt>
      <trkpt lat="46.02292" lon="6.511">
        <ele>2190.8000488281</ele>
        <time>2019-10-13T13:57:28.000Z</time>
      </trkpt>
      <trkpt lat="46.02289" lon="6.51098">
        <ele>2189.8000488281</ele>
        <time>2019-10-13T13:57:30.000Z</time>
      </trkpt>
      <trkpt lat="46.02288" lon="6.51098">
        <ele>2189.1999511719</ele>
        <time>2019-10-13T13:57:31.000Z</time>
      </trkpt>
      <trkpt lat="46.02287" lon="6.51098">
        <ele>2188</ele>
        <time>2019-10-13T13:57:32.000Z</time>
      </trkpt>
      <trkpt lat="46.02286" lon="6.51098">
        <ele>2187</ele>
        <time>2019-10-13T13:57:33.000Z</time>
      </trkpt>
      <trkpt lat="46.02284" lon="6.51097">
        <ele>2185.8000488281</ele>
        <time>2019-10-13T13:57:35.000Z</time>
      </trkpt>
      <trkpt lat="46.02283" lon="6.51096">
        <ele>2185.1999511719</ele>
        <time>2019-10-13T13:57:36.000Z</time>
      </trkpt>
      <trkpt lat="46.02282" lon="6.51095">
        <ele>2184.8000488281</ele>
        <time>2019-10-13T13:57:37.000Z</time>
      </trkpt>
      <trkpt lat="46.0228" lon="6.51093">
        <ele>2184.1999511719</ele>
        <time>2019-10-13T13:57:40.000Z</time>
      </trkpt>
      <trkpt lat="46.02279" lon="6.51092">
        <ele>2183.8000488281</ele>
        <time>2019-10-13T13:57:43.000Z</time>
      </trkpt>
      <trkpt lat="46.02278" lon="6.5109">
        <ele>2183.3999023438</ele>
        <time>2019-10-13T13:57:45.000Z</time>
      </trkpt>
      <trkpt lat="46.02274" lon="6.51089">
        <ele>2183</ele>
        <time>2019-10-13T13:57:49.000Z</time>
      </trkpt>
      <trkpt lat="46.02273" lon="6.51088">
        <ele>2182.8000488281</ele>
        <time>2019-10-13T13:57:50.000Z</time>
      </trkpt>
      <trkpt lat="46.02273" lon="6.51087">
        <ele>2182.3999023438</ele>
        <time>2019-10-13T13:57:51.000Z</time>
      </trkpt>
      <trkpt lat="46.02271" lon="6.51082">
        <ele>2181.1999511719</ele>
        <time>2019-10-13T13:57:54.000Z</time>
      </trkpt>
      <trkpt lat="46.0227" lon="6.5108">
        <ele>2180.1999511719</ele>
        <time>2019-10-13T13:57:56.000Z</time>
      </trkpt>
      <trkpt lat="46.02269" lon="6.51078">
        <ele>2179.3999023438</ele>
        <time>2019-10-13T13:57:58.000Z</time>
      </trkpt>
      <trkpt lat="46.02269" lon="6.51078">
        <ele>2178.8000488281</ele>
        <time>2019-10-13T13:57:59.000Z</time>
      </trkpt>
      <trkpt lat="46.02269" lon="6.51077">
        <ele>2178.1999511719</ele>
        <time>2019-10-13T13:58:00.000Z</time>
      </trkpt>
      <trkpt lat="46.0227" lon="6.51076">
        <ele>2177.6000976562</ele>
        <time>2019-10-13T13:58:02.000Z</time>
      </trkpt>
      <trkpt lat="46.0227" lon="6.51075">
        <ele>2177.1999511719</ele>
        <time>2019-10-13T13:58:05.000Z</time>
      </trkpt>
      <trkpt lat="46.02272" lon="6.51076">
        <ele>2176.8000488281</ele>
        <time>2019-10-13T13:58:10.000Z</time>
      </trkpt>
      <trkpt lat="46.02273" lon="6.51074">
        <ele>2176.6000976562</ele>
        <time>2019-10-13T13:58:14.000Z</time>
      </trkpt>
      <trkpt lat="46.02272" lon="6.51073">
        <ele>2176.3999023438</ele>
        <time>2019-10-13T13:58:15.000Z</time>
      </trkpt>
      <trkpt lat="46.02271" lon="6.5107">
        <ele>2176</ele>
        <time>2019-10-13T13:58:18.000Z</time>
      </trkpt>
      <trkpt lat="46.02269" lon="6.51069">
        <ele>2175.3999023438</ele>
        <time>2019-10-13T13:58:21.000Z</time>
      </trkpt>
      <trkpt lat="46.02267" lon="6.51069">
        <ele>2175</ele>
        <time>2019-10-13T13:58:23.000Z</time>
      </trkpt>
      <trkpt lat="46.02264" lon="6.51069">
        <ele>2174.6000976562</ele>
        <time>2019-10-13T13:58:27.000Z</time>
      </trkpt>
      <trkpt lat="46.02262" lon="6.51068">
        <ele>2174.6000976562</ele>
        <time>2019-10-13T13:58:30.000Z</time>
      </trkpt>
      <trkpt lat="46.02262" lon="6.51067">
        <ele>2174.3999023438</ele>
        <time>2019-10-13T13:58:32.000Z</time>
      </trkpt>
      <trkpt lat="46.02261" lon="6.51064">
        <ele>2173.6000976562</ele>
        <time>2019-10-13T13:58:35.000Z</time>
      </trkpt>
      <trkpt lat="46.02262" lon="6.51064">
        <ele>2173.1999511719</ele>
        <time>2019-10-13T13:58:38.000Z</time>
      </trkpt>
      <trkpt lat="46.02262" lon="6.51063">
        <ele>2173</ele>
        <time>2019-10-13T13:58:40.000Z</time>
      </trkpt>
      <trkpt lat="46.0226" lon="6.51062">
        <ele>2172.1999511719</ele>
        <time>2019-10-13T13:58:43.000Z</time>
      </trkpt>
      <trkpt lat="46.02259" lon="6.5106">
        <ele>2172</ele>
        <time>2019-10-13T13:58:45.000Z</time>
      </trkpt>
      <trkpt lat="46.02259" lon="6.51059">
        <ele>2171.1999511719</ele>
        <time>2019-10-13T13:58:48.000Z</time>
      </trkpt>
      <trkpt lat="46.0226" lon="6.51059">
        <ele>2171.1999511719</ele>
        <time>2019-10-13T13:58:49.000Z</time>
      </trkpt>
      <trkpt lat="46.02259" lon="6.5106">
        <ele>2171</ele>
        <time>2019-10-13T13:58:52.000Z</time>
      </trkpt>
      <trkpt lat="46.02257" lon="6.51059">
        <ele>2170.6000976562</ele>
        <time>2019-10-13T13:58:54.000Z</time>
      </trkpt>
      <trkpt lat="46.02256" lon="6.51058">
        <ele>2170.3999023438</ele>
        <time>2019-10-13T13:58:55.000Z</time>
      </trkpt>
      <trkpt lat="46.02255" lon="6.51057">
        <ele>2170.1999511719</ele>
        <time>2019-10-13T13:58:57.000Z</time>
      </trkpt>
      <trkpt lat="46.02255" lon="6.51055">
        <ele>2170</ele>
        <time>2019-10-13T13:59:00.000Z</time>
      </trkpt>
      <trkpt lat="46.02254" lon="6.51054">
        <ele>2169.1999511719</ele>
        <time>2019-10-13T13:59:02.000Z</time>
      </trkpt>
      <trkpt lat="46.02254" lon="6.51054">
        <ele>2168.6000976562</ele>
        <time>2019-10-13T13:59:03.000Z</time>
      </trkpt>
      <trkpt lat="46.02252" lon="6.51056">
        <ele>2167.6000976562</ele>
        <time>2019-10-13T13:59:06.000Z</time>
      </trkpt>
      <trkpt lat="46.02251" lon="6.51057">
        <ele>2167.3999023438</ele>
        <time>2019-10-13T13:59:07.000Z</time>
      </trkpt>
      <trkpt lat="46.02249" lon="6.51056">
        <ele>2166.3999023438</ele>
        <time>2019-10-13T13:59:10.000Z</time>
      </trkpt>
      <trkpt lat="46.02249" lon="6.51056">
        <ele>2165.6000976562</ele>
        <time>2019-10-13T13:59:12.000Z</time>
      </trkpt>
      <trkpt lat="46.02249" lon="6.51056">
        <ele>2165.1999511719</ele>
        <time>2019-10-13T13:59:13.000Z</time>
      </trkpt>
      <trkpt lat="46.0225" lon="6.51054">
        <ele>2164</ele>
        <time>2019-10-13T13:59:18.000Z</time>
      </trkpt>
      <trkpt lat="46.02249" lon="6.51055">
        <ele>2163.8000488281</ele>
        <time>2019-10-13T13:59:19.000Z</time>
      </trkpt>
      <trkpt lat="46.02248" lon="6.51055">
        <ele>2162.8000488281</ele>
        <time>2019-10-13T13:59:21.000Z</time>
      </trkpt>
      <trkpt lat="46.02247" lon="6.51055">
        <ele>2161.6000976562</ele>
        <time>2019-10-13T13:59:24.000Z</time>
      </trkpt>
      <trkpt lat="46.02247" lon="6.51055">
        <ele>2161.6000976562</ele>
        <time>2019-10-13T13:59:25.000Z</time>
      </trkpt>
      <trkpt lat="46.02244" lon="6.51053">
        <ele>2162.1999511719</ele>
        <time>2019-10-13T13:59:30.000Z</time>
      </trkpt>
      <trkpt lat="46.02244" lon="6.51051">
        <ele>2162.1999511719</ele>
        <time>2019-10-13T13:59:34.000Z</time>
      </trkpt>
      <trkpt lat="46.02244" lon="6.5105">
        <ele>2162.1999511719</ele>
        <time>2019-10-13T13:59:35.000Z</time>
      </trkpt>
      <trkpt lat="46.02243" lon="6.51047">
        <ele>2161.1999511719</ele>
        <time>2019-10-13T13:59:43.000Z</time>
      </trkpt>
      <trkpt lat="46.02245" lon="6.51047">
        <ele>2161</ele>
        <time>2019-10-13T13:59:48.000Z</time>
      </trkpt>
      <trkpt lat="46.02245" lon="6.51047">
        <ele>2160.6000976562</ele>
        <time>2019-10-13T13:59:50.000Z</time>
      </trkpt>
      <trkpt lat="46.02245" lon="6.51045">
        <ele>2159.6000976562</ele>
        <time>2019-10-13T13:59:55.000Z</time>
      </trkpt>
      <trkpt lat="46.02245" lon="6.51045">
        <ele>2159.3999023438</ele>
        <time>2019-10-13T13:59:56.000Z</time>
      </trkpt>
      <trkpt lat="46.02244" lon="6.51044">
        <ele>2159.6000976562</ele>
        <time>2019-10-13T13:59:58.000Z</time>
      </trkpt>
      <trkpt lat="46.02244" lon="6.51043">
        <ele>2159.6000976562</ele>
        <time>2019-10-13T14:00:01.000Z</time>
      </trkpt>
      <trkpt lat="46.02243" lon="6.51041">
        <ele>2159</ele>
        <time>2019-10-13T14:00:06.000Z</time>
      </trkpt>
      <trkpt lat="46.02243" lon="6.51041">
        <ele>2158.3999023438</ele>
        <time>2019-10-13T14:00:10.000Z</time>
      </trkpt>
      <trkpt lat="46.02242" lon="6.51042">
        <ele>2158.3999023438</ele>
        <time>2019-10-13T14:00:12.000Z</time>
      </trkpt>
      <trkpt lat="46.02239" lon="6.5104">
        <ele>2157.3999023438</ele>
        <time>2019-10-13T14:00:16.000Z</time>
      </trkpt>
      <trkpt lat="46.02237" lon="6.51037">
        <ele>2156.6000976562</ele>
        <time>2019-10-13T14:00:19.000Z</time>
      </trkpt>
      <trkpt lat="46.02237" lon="6.51036">
        <ele>2156.6000976562</ele>
        <time>2019-10-13T14:00:20.000Z</time>
      </trkpt>
      <trkpt lat="46.02238" lon="6.51035">
        <ele>2156.3999023438</ele>
        <time>2019-10-13T14:00:23.000Z</time>
      </trkpt>
      <trkpt lat="46.02239" lon="6.51035">
        <ele>2156.1999511719</ele>
        <time>2019-10-13T14:00:25.000Z</time>
      </trkpt>
      <trkpt lat="46.0224" lon="6.51036">
        <ele>2156</ele>
        <time>2019-10-13T14:00:26.000Z</time>
      </trkpt>
      <trkpt lat="46.02241" lon="6.51036">
        <ele>2156</ele>
        <time>2019-10-13T14:00:27.000Z</time>
      </trkpt>
      <trkpt lat="46.02241" lon="6.51036">
        <ele>2156</ele>
        <time>2019-10-13T14:00:28.000Z</time>
      </trkpt>
      <trkpt lat="46.02241" lon="6.51036">
        <ele>2156</ele>
        <time>2019-10-13T14:00:31.000Z</time>
      </trkpt>
      <trkpt lat="46.0224" lon="6.51035">
        <ele>2156.1999511719</ele>
        <time>2019-10-13T14:00:36.000Z</time>
      </trkpt>
      <trkpt lat="46.02242" lon="6.51037">
        <ele>2155.8000488281</ele>
        <time>2019-10-13T14:00:43.000Z</time>
      </trkpt>
      <trkpt lat="46.02247" lon="6.51028">
        <ele>2156.6000976562</ele>
        <time>2019-10-13T14:00:49.000Z</time>
      </trkpt>
      <trkpt lat="46.02239" lon="6.51032">
        <ele>2157.1999511719</ele>
        <time>2019-10-13T14:00:56.000Z</time>
      </trkpt>
      <trkpt lat="46.02238" lon="6.51033">
        <ele>2157.3999023438</ele>
        <time>2019-10-13T14:00:59.000Z</time>
      </trkpt>
      <trkpt lat="46.0224" lon="6.51033">
        <ele>2156.1999511719</ele>
        <time>2019-10-13T14:01:04.000Z</time>
      </trkpt>
      <trkpt lat="46.02241" lon="6.51037">
        <ele>2156.1999511719</ele>
        <time>2019-10-13T14:01:08.000Z</time>
      </trkpt>
      <trkpt lat="46.02241" lon="6.51042">
        <ele>2156.6000976562</ele>
        <time>2019-10-13T14:01:11.000Z</time>
      </trkpt>
      <trkpt lat="46.02242" lon="6.51045">
        <ele>2156.1999511719</ele>
        <time>2019-10-13T14:01:14.000Z</time>
      </trkpt>
      <trkpt lat="46.02242" lon="6.51051">
        <ele>2155.8000488281</ele>
        <time>2019-10-13T14:01:19.000Z</time>
      </trkpt>
      <trkpt lat="46.02242" lon="6.51051">
        <ele>2155.8000488281</ele>
        <time>2019-10-13T14:01:20.000Z</time>
      </trkpt>
      <trkpt lat="46.02242" lon="6.51052">
        <ele>2155.8000488281</ele>
        <time>2019-10-13T14:01:21.000Z</time>
      </trkpt>
      <trkpt lat="46.0224" lon="6.51052">
        <ele>2155.6000976562</ele>
        <time>2019-10-13T14:01:25.000Z</time>
      </trkpt>
      <trkpt lat="46.02237" lon="6.51053">
        <ele>2155.6000976562</ele>
        <time>2019-10-13T14:01:31.000Z</time>
      </trkpt>
      <trkpt lat="46.02235" lon="6.51052">
        <ele>2155</ele>
        <time>2019-10-13T14:01:34.000Z</time>
      </trkpt>
      <trkpt lat="46.02235" lon="6.5105">
        <ele>2154.6000976562</ele>
        <time>2019-10-13T14:01:38.000Z</time>
      </trkpt>
      <trkpt lat="46.02236" lon="6.51049">
        <ele>2154.3999023438</ele>
        <time>2019-10-13T14:01:41.000Z</time>
      </trkpt>
      <trkpt lat="46.02237" lon="6.51049">
        <ele>2154.6000976562</ele>
        <time>2019-10-13T14:01:42.000Z</time>
      </trkpt>
      <trkpt lat="46.02239" lon="6.51052">
        <ele>2154.3999023438</ele>
        <time>2019-10-13T14:01:44.000Z</time>
      </trkpt>
      <trkpt lat="46.02237" lon="6.5105">
        <ele>2153.6000976562</ele>
        <time>2019-10-13T14:01:47.000Z</time>
      </trkpt>
      <trkpt lat="46.02236" lon="6.51051">
        <ele>2152.6000976562</ele>
        <time>2019-10-13T14:01:49.000Z</time>
      </trkpt>
      <trkpt lat="46.02236" lon="6.51051">
        <ele>2152.1999511719</ele>
        <time>2019-10-13T14:01:50.000Z</time>
      </trkpt>
      <trkpt lat="46.02236" lon="6.51052">
        <ele>2152.6000976562</ele>
        <time>2019-10-13T14:01:51.000Z</time>
      </trkpt>
      <trkpt lat="46.02236" lon="6.5105">
        <ele>2153</ele>
        <time>2019-10-13T14:01:56.000Z</time>
      </trkpt>
      <trkpt lat="46.02236" lon="6.5105">
        <ele>2152.6000976562</ele>
        <time>2019-10-13T14:02:01.000Z</time>
      </trkpt>
      <trkpt lat="46.02231" lon="6.51051">
        <ele>2151.8000488281</ele>
        <time>2019-10-13T14:02:07.000Z</time>
      </trkpt>
      <trkpt lat="46.02229" lon="6.51048">
        <ele>2151</ele>
        <time>2019-10-13T14:02:11.000Z</time>
      </trkpt>
      <trkpt lat="46.02229" lon="6.51047">
        <ele>2150.6000976562</ele>
        <time>2019-10-13T14:02:12.000Z</time>
      </trkpt>
      <trkpt lat="46.02227" lon="6.51046">
        <ele>2150</ele>
        <time>2019-10-13T14:02:14.000Z</time>
      </trkpt>
      <trkpt lat="46.02225" lon="6.51041">
        <ele>2149.1999511719</ele>
        <time>2019-10-13T14:02:19.000Z</time>
      </trkpt>
      <trkpt lat="46.02225" lon="6.51039">
        <ele>2149</ele>
        <time>2019-10-13T14:02:20.000Z</time>
      </trkpt>
      <trkpt lat="46.02224" lon="6.51038">
        <ele>2147.6000976562</ele>
        <time>2019-10-13T14:02:22.000Z</time>
      </trkpt>
      <trkpt lat="46.02222" lon="6.51037">
        <ele>2147</ele>
        <time>2019-10-13T14:02:24.000Z</time>
      </trkpt>
      <trkpt lat="46.02222" lon="6.51036">
        <ele>2146.8000488281</ele>
        <time>2019-10-13T14:02:25.000Z</time>
      </trkpt>
      <trkpt lat="46.02221" lon="6.51035">
        <ele>2146.6000976562</ele>
        <time>2019-10-13T14:02:26.000Z</time>
      </trkpt>
      <trkpt lat="46.0222" lon="6.51036">
        <ele>2146.1999511719</ele>
        <time>2019-10-13T14:02:28.000Z</time>
      </trkpt>
      <trkpt lat="46.02218" lon="6.51037">
        <ele>2146</ele>
        <time>2019-10-13T14:02:30.000Z</time>
      </trkpt>
      <trkpt lat="46.02216" lon="6.51037">
        <ele>2145.3999023438</ele>
        <time>2019-10-13T14:02:33.000Z</time>
      </trkpt>
      <trkpt lat="46.02214" lon="6.51037">
        <ele>2144.8000488281</ele>
        <time>2019-10-13T14:02:35.000Z</time>
      </trkpt>
      <trkpt lat="46.02212" lon="6.51038">
        <ele>2144.3999023438</ele>
        <time>2019-10-13T14:02:37.000Z</time>
      </trkpt>
      <trkpt lat="46.02212" lon="6.51037">
        <ele>2144</ele>
        <time>2019-10-13T14:02:38.000Z</time>
      </trkpt>
      <trkpt lat="46.02211" lon="6.51035">
        <ele>2143.3999023438</ele>
        <time>2019-10-13T14:02:39.000Z</time>
      </trkpt>
      <trkpt lat="46.02211" lon="6.51035">
        <ele>2142.8000488281</ele>
        <time>2019-10-13T14:02:40.000Z</time>
      </trkpt>
      <trkpt lat="46.02208" lon="6.51033">
        <ele>2141.8000488281</ele>
        <time>2019-10-13T14:02:44.000Z</time>
      </trkpt>
      <trkpt lat="46.02205" lon="6.51034">
        <ele>2140.6000976562</ele>
        <time>2019-10-13T14:02:47.000Z</time>
      </trkpt>
      <trkpt lat="46.02203" lon="6.51034">
        <ele>2139.1999511719</ele>
        <time>2019-10-13T14:02:49.000Z</time>
      </trkpt>
      <trkpt lat="46.02202" lon="6.51033">
        <ele>2138.6000976562</ele>
        <time>2019-10-13T14:02:50.000Z</time>
      </trkpt>
      <trkpt lat="46.02201" lon="6.51033">
        <ele>2138.1999511719</ele>
        <time>2019-10-13T14:02:51.000Z</time>
      </trkpt>
      <trkpt lat="46.02199" lon="6.51032">
        <ele>2137</ele>
        <time>2019-10-13T14:02:55.000Z</time>
      </trkpt>
      <trkpt lat="46.02199" lon="6.51031">
        <ele>2136.6000976562</ele>
        <time>2019-10-13T14:02:56.000Z</time>
      </trkpt>
      <trkpt lat="46.02197" lon="6.5103">
        <ele>2136</ele>
        <time>2019-10-13T14:03:01.000Z</time>
      </trkpt>
      <trkpt lat="46.02196" lon="6.51028">
        <ele>2135.8000488281</ele>
        <time>2019-10-13T14:03:03.000Z</time>
      </trkpt>
      <trkpt lat="46.02195" lon="6.51027">
        <ele>2135.1999511719</ele>
        <time>2019-10-13T14:03:04.000Z</time>
      </trkpt>
      <trkpt lat="46.02195" lon="6.51027">
        <ele>2134.6000976562</ele>
        <time>2019-10-13T14:03:05.000Z</time>
      </trkpt>
      <trkpt lat="46.02193" lon="6.51026">
        <ele>2134</ele>
        <time>2019-10-13T14:03:07.000Z</time>
      </trkpt>
      <trkpt lat="46.02192" lon="6.51025">
        <ele>2133.8000488281</ele>
        <time>2019-10-13T14:03:13.000Z</time>
      </trkpt>
      <trkpt lat="46.02197" lon="6.51024">
        <ele>2133.6000976562</ele>
        <time>2019-10-13T14:03:15.000Z</time>
      </trkpt>
      <trkpt lat="46.02205" lon="6.51029">
        <ele>2133.8000488281</ele>
        <time>2019-10-13T14:03:19.000Z</time>
      </trkpt>
      <trkpt lat="46.02201" lon="6.5103">
        <ele>2133.6000976562</ele>
        <time>2019-10-13T14:03:21.000Z</time>
      </trkpt>
      <trkpt lat="46.02199" lon="6.51032">
        <ele>2133.3999023438</ele>
        <time>2019-10-13T14:03:22.000Z</time>
      </trkpt>
      <trkpt lat="46.0219" lon="6.51033">
        <ele>2133</ele>
        <time>2019-10-13T14:03:30.000Z</time>
      </trkpt>
      <trkpt lat="46.0219" lon="6.51031">
        <ele>2132.8000488281</ele>
        <time>2019-10-13T14:03:33.000Z</time>
      </trkpt>
      <trkpt lat="46.02191" lon="6.5103">
        <ele>2133.8000488281</ele>
        <time>2019-10-13T14:03:40.000Z</time>
      </trkpt>
      <trkpt lat="46.02192" lon="6.51029">
        <ele>2133.8000488281</ele>
        <time>2019-10-13T14:03:41.000Z</time>
      </trkpt>
      <trkpt lat="46.02193" lon="6.51031">
        <ele>2133.1999511719</ele>
        <time>2019-10-13T14:03:48.000Z</time>
      </trkpt>
      <trkpt lat="46.02195" lon="6.51025">
        <ele>2132.8000488281</ele>
        <time>2019-10-13T14:03:52.000Z</time>
      </trkpt>
      <trkpt lat="46.02194" lon="6.51026">
        <ele>2132.8000488281</ele>
        <time>2019-10-13T14:03:56.000Z</time>
      </trkpt>
      <trkpt lat="46.02194" lon="6.51026">
        <ele>2133</ele>
        <time>2019-10-13T14:04:05.000Z</time>
      </trkpt>
      <trkpt lat="46.02195" lon="6.51026">
        <ele>2132.8000488281</ele>
        <time>2019-10-13T14:04:13.000Z</time>
      </trkpt>
      <trkpt lat="46.02195" lon="6.51025">
        <ele>2133</ele>
        <time>2019-10-13T14:04:15.000Z</time>
      </trkpt>
      <trkpt lat="46.02194" lon="6.51024">
        <ele>2132.8000488281</ele>
        <time>2019-10-13T14:04:20.000Z</time>
      </trkpt>
      <trkpt lat="46.02195" lon="6.51025">
        <ele>2132.8000488281</ele>
        <time>2019-10-13T14:04:22.000Z</time>
      </trkpt>
      <trkpt lat="46.02194" lon="6.51029">
        <ele>2132.8000488281</ele>
        <time>2019-10-13T14:04:29.000Z</time>
      </trkpt>
      <trkpt lat="46.02195" lon="6.51027">
        <ele>2133.1999511719</ele>
        <time>2019-10-13T14:04:35.000Z</time>
      </trkpt>
      <trkpt lat="46.02195" lon="6.51029">
        <ele>2133</ele>
        <time>2019-10-13T14:04:44.000Z</time>
      </trkpt>
      <trkpt lat="46.02195" lon="6.51031">
        <ele>2133</ele>
        <time>2019-10-13T14:04:50.000Z</time>
      </trkpt>
      <trkpt lat="46.02195" lon="6.51031">
        <ele>2133.1999511719</ele>
        <time>2019-10-13T14:04:51.000Z</time>
      </trkpt>
      <trkpt lat="46.02196" lon="6.51031">
        <ele>2133.3999023438</ele>
        <time>2019-10-13T14:04:52.000Z</time>
      </trkpt>
      <trkpt lat="46.02196" lon="6.5103">
        <ele>2133.6000976562</ele>
        <time>2019-10-13T14:04:54.000Z</time>
      </trkpt>
      <trkpt lat="46.02196" lon="6.51029">
        <ele>2133.6000976562</ele>
        <time>2019-10-13T14:04:55.000Z</time>
      </trkpt>
      <trkpt lat="46.02196" lon="6.51027">
        <ele>2133.3999023438</ele>
        <time>2019-10-13T14:04:58.000Z</time>
      </trkpt>
      <trkpt lat="46.02196" lon="6.51026">
        <ele>2133.3999023438</ele>
        <time>2019-10-13T14:04:59.000Z</time>
      </trkpt>
      <trkpt lat="46.02197" lon="6.51028">
        <ele>2133</ele>
        <time>2019-10-13T14:05:07.000Z</time>
      </trkpt>
      <trkpt lat="46.02198" lon="6.51028">
        <ele>2133.8000488281</ele>
        <time>2019-10-13T14:05:17.000Z</time>
      </trkpt>
      <trkpt lat="46.02199" lon="6.51025">
        <ele>2134.6000976562</ele>
        <time>2019-10-13T14:05:23.000Z</time>
      </trkpt>
      <trkpt lat="46.02198" lon="6.51024">
        <ele>2134.8000488281</ele>
        <time>2019-10-13T14:05:29.000Z</time>
      </trkpt>
      <trkpt lat="46.02197" lon="6.51024">
        <ele>2134.8000488281</ele>
        <time>2019-10-13T14:05:31.000Z</time>
      </trkpt>
      <trkpt lat="46.02197" lon="6.51024">
        <ele>2134.8000488281</ele>
        <time>2019-10-13T14:05:32.000Z</time>
      </trkpt>
      <trkpt lat="46.02197" lon="6.51024">
        <ele>2134.8000488281</ele>
        <time>2019-10-13T14:05:33.000Z</time>
      </trkpt>
      <trkpt lat="46.02197" lon="6.51028">
        <ele>2134.8000488281</ele>
        <time>2019-10-13T14:05:38.000Z</time>
      </trkpt>
      <trkpt lat="46.02196" lon="6.5103">
        <ele>2135.6000976562</ele>
        <time>2019-10-13T14:05:49.000Z</time>
      </trkpt>
      <trkpt lat="46.02196" lon="6.5103">
        <ele>2135.8000488281</ele>
        <time>2019-10-13T14:05:50.000Z</time>
      </trkpt>
      <trkpt lat="46.02196" lon="6.51025">
        <ele>2135</ele>
        <time>2019-10-13T14:05:58.000Z</time>
      </trkpt>
      <trkpt lat="46.02195" lon="6.51025">
        <ele>2135.6000976562</ele>
        <time>2019-10-13T14:06:07.000Z</time>
      </trkpt>
      <trkpt lat="46.02195" lon="6.51026">
        <ele>2134.8000488281</ele>
        <time>2019-10-13T14:06:09.000Z</time>
      </trkpt>
      <trkpt lat="46.02196" lon="6.51025">
        <ele>2134.6000976562</ele>
        <time>2019-10-13T14:06:11.000Z</time>
      </trkpt>
      <trkpt lat="46.02197" lon="6.51026">
        <ele>2135.1999511719</ele>
        <time>2019-10-13T14:06:17.000Z</time>
      </trkpt>
      <trkpt lat="46.02196" lon="6.51026">
        <ele>2135.6000976562</ele>
        <time>2019-10-13T14:06:26.000Z</time>
      </trkpt>
      <trkpt lat="46.02194" lon="6.51026">
        <ele>2136</ele>
        <time>2019-10-13T14:06:35.000Z</time>
      </trkpt>
      <trkpt lat="46.02197" lon="6.51027">
        <ele>2135.8000488281</ele>
        <time>2019-10-13T14:06:46.000Z</time>
      </trkpt>
      <trkpt lat="46.02199" lon="6.51029">
        <ele>2135.8000488281</ele>
        <time>2019-10-13T14:06:50.000Z</time>
      </trkpt>
      <trkpt lat="46.02199" lon="6.51026">
        <ele>2135</ele>
        <time>2019-10-13T14:06:58.000Z</time>
      </trkpt>
      <trkpt lat="46.02198" lon="6.51026">
        <ele>2135.3999023438</ele>
        <time>2019-10-13T14:07:03.000Z</time>
      </trkpt>
      <trkpt lat="46.02198" lon="6.51027">
        <ele>2135.3999023438</ele>
        <time>2019-10-13T14:07:05.000Z</time>
      </trkpt>
      <trkpt lat="46.02199" lon="6.51026">
        <ele>2135.8000488281</ele>
        <time>2019-10-13T14:07:08.000Z</time>
      </trkpt>
      <trkpt lat="46.02197" lon="6.51025">
        <ele>2135.6000976562</ele>
        <time>2019-10-13T14:07:11.000Z</time>
      </trkpt>
      <trkpt lat="46.02196" lon="6.51025">
        <ele>2135.3999023438</ele>
        <time>2019-10-13T14:07:13.000Z</time>
      </trkpt>
      <trkpt lat="46.02197" lon="6.51027">
        <ele>2136.6000976562</ele>
        <time>2019-10-13T14:07:19.000Z</time>
      </trkpt>
      <trkpt lat="46.02198" lon="6.51028">
        <ele>2137</ele>
        <time>2019-10-13T14:07:21.000Z</time>
      </trkpt>
      <trkpt lat="46.02192" lon="6.51031">
        <ele>2136.6000976562</ele>
        <time>2019-10-13T14:07:29.000Z</time>
      </trkpt>
      <trkpt lat="46.02188" lon="6.51023">
        <ele>2135.3999023438</ele>
        <time>2019-10-13T14:07:32.000Z</time>
      </trkpt>
      <trkpt lat="46.02187" lon="6.51021">
        <ele>2134.6000976562</ele>
        <time>2019-10-13T14:07:35.000Z</time>
      </trkpt>
      <trkpt lat="46.02188" lon="6.51024">
        <ele>2134</ele>
        <time>2019-10-13T14:07:37.000Z</time>
      </trkpt>
      <trkpt lat="46.0219" lon="6.51025">
        <ele>2133.3999023438</ele>
        <time>2019-10-13T14:07:40.000Z</time>
      </trkpt>
      <trkpt lat="46.0219" lon="6.51025">
        <ele>2133</ele>
        <time>2019-10-13T14:07:41.000Z</time>
      </trkpt>
      <trkpt lat="46.02189" lon="6.51027">
        <ele>2132.8000488281</ele>
        <time>2019-10-13T14:07:46.000Z</time>
      </trkpt>
      <trkpt lat="46.02189" lon="6.51027">
        <ele>2132.8000488281</ele>
        <time>2019-10-13T14:07:52.000Z</time>
      </trkpt>
      <trkpt lat="46.02183" lon="6.51032">
        <ele>2132.8000488281</ele>
        <time>2019-10-13T14:07:58.000Z</time>
      </trkpt>
      <trkpt lat="46.0218" lon="6.51038">
        <ele>2132</ele>
        <time>2019-10-13T14:08:01.000Z</time>
      </trkpt>
      <trkpt lat="46.02177" lon="6.51047">
        <ele>2132.6000976562</ele>
        <time>2019-10-13T14:08:09.000Z</time>
      </trkpt>
      <trkpt lat="46.02179" lon="6.51041">
        <ele>2132.1999511719</ele>
        <time>2019-10-13T14:08:16.000Z</time>
      </trkpt>
      <trkpt lat="46.02179" lon="6.51039">
        <ele>2132.1999511719</ele>
        <time>2019-10-13T14:08:18.000Z</time>
      </trkpt>
      <trkpt lat="46.02178" lon="6.51044">
        <ele>2130.6000976562</ele>
        <time>2019-10-13T14:08:25.000Z</time>
      </trkpt>
      <trkpt lat="46.02179" lon="6.51044">
        <ele>2130.1999511719</ele>
        <time>2019-10-13T14:08:26.000Z</time>
      </trkpt>
      <trkpt lat="46.02178" lon="6.51045">
        <ele>2129.8000488281</ele>
        <time>2019-10-13T14:08:28.000Z</time>
      </trkpt>
      <trkpt lat="46.02177" lon="6.51046">
        <ele>2129.3999023438</ele>
        <time>2019-10-13T14:08:31.000Z</time>
      </trkpt>
      <trkpt lat="46.02173" lon="6.51046">
        <ele>2128.8000488281</ele>
        <time>2019-10-13T14:08:34.000Z</time>
      </trkpt>
      <trkpt lat="46.02173" lon="6.51046">
        <ele>2128.3999023438</ele>
        <time>2019-10-13T14:08:36.000Z</time>
      </trkpt>
      <trkpt lat="46.02174" lon="6.51046">
        <ele>2127.6000976562</ele>
        <time>2019-10-13T14:08:41.000Z</time>
      </trkpt>
      <trkpt lat="46.02173" lon="6.51045">
        <ele>2127.6000976562</ele>
        <time>2019-10-13T14:08:46.000Z</time>
      </trkpt>
      <trkpt lat="46.02174" lon="6.51041">
        <ele>2127.1999511719</ele>
        <time>2019-10-13T14:08:49.000Z</time>
      </trkpt>
      <trkpt lat="46.02174" lon="6.51039">
        <ele>2126.1999511719</ele>
        <time>2019-10-13T14:08:53.000Z</time>
      </trkpt>
      <trkpt lat="46.02175" lon="6.5104">
        <ele>2125.8000488281</ele>
        <time>2019-10-13T14:08:54.000Z</time>
      </trkpt>
      <trkpt lat="46.02177" lon="6.51042">
        <ele>2125.6000976562</ele>
        <time>2019-10-13T14:09:00.000Z</time>
      </trkpt>
      <trkpt lat="46.02182" lon="6.51047">
        <ele>2126</ele>
        <time>2019-10-13T14:09:07.000Z</time>
      </trkpt>
      <trkpt lat="46.02182" lon="6.51049">
        <ele>2126</ele>
        <time>2019-10-13T14:09:08.000Z</time>
      </trkpt>
      <trkpt lat="46.02182" lon="6.51049">
        <ele>2125.8000488281</ele>
        <time>2019-10-13T14:09:11.000Z</time>
      </trkpt>
      <trkpt lat="46.02175" lon="6.51055">
        <ele>2125.8000488281</ele>
        <time>2019-10-13T14:09:18.000Z</time>
      </trkpt>
      <trkpt lat="46.02176" lon="6.51057">
        <ele>2128.3999023438</ele>
        <time>2019-10-13T14:09:23.000Z</time>
      </trkpt>
      <trkpt lat="46.02177" lon="6.51056">
        <ele>2127.3999023438</ele>
        <time>2019-10-13T14:09:25.000Z</time>
      </trkpt>
      <trkpt lat="46.02176" lon="6.51059">
        <ele>2127</ele>
        <time>2019-10-13T14:09:29.000Z</time>
      </trkpt>
      <trkpt lat="46.0218" lon="6.51056">
        <ele>2127</ele>
        <time>2019-10-13T14:09:36.000Z</time>
      </trkpt>
      <trkpt lat="46.02178" lon="6.51055">
        <ele>2127</ele>
        <time>2019-10-13T14:09:39.000Z</time>
      </trkpt>
      <trkpt lat="46.02176" lon="6.51054">
        <ele>2127</ele>
        <time>2019-10-13T14:09:42.000Z</time>
      </trkpt>
      <trkpt lat="46.02182" lon="6.51044">
        <ele>2127</ele>
        <time>2019-10-13T14:09:47.000Z</time>
      </trkpt>
      <trkpt lat="46.02182" lon="6.51045">
        <ele>2127</ele>
        <time>2019-10-13T14:09:53.000Z</time>
      </trkpt>
      <trkpt lat="46.02183" lon="6.51039">
        <ele>2127</ele>
        <time>2019-10-13T14:09:59.000Z</time>
      </trkpt>
      <trkpt lat="46.02183" lon="6.5105">
        <ele>2126</ele>
        <time>2019-10-13T14:10:05.000Z</time>
      </trkpt>
      <trkpt lat="46.02182" lon="6.5105">
        <ele>2124.6000976562</ele>
        <time>2019-10-13T14:10:07.000Z</time>
      </trkpt>
      <trkpt lat="46.02182" lon="6.51045">
        <ele>2123.3999023438</ele>
        <time>2019-10-13T14:10:12.000Z</time>
      </trkpt>
      <trkpt lat="46.02182" lon="6.51044">
        <ele>2122.8000488281</ele>
        <time>2019-10-13T14:10:13.000Z</time>
      </trkpt>
      <trkpt lat="46.02184" lon="6.51042">
        <ele>2122.1999511719</ele>
        <time>2019-10-13T14:10:16.000Z</time>
      </trkpt>
      <trkpt lat="46.02184" lon="6.51043">
        <ele>2121.6000976562</ele>
        <time>2019-10-13T14:10:20.000Z</time>
      </trkpt>
      <trkpt lat="46.02182" lon="6.51044">
        <ele>2121.1999511719</ele>
        <time>2019-10-13T14:10:24.000Z</time>
      </trkpt>
      <trkpt lat="46.02181" lon="6.51043">
        <ele>2121.1999511719</ele>
        <time>2019-10-13T14:10:25.000Z</time>
      </trkpt>
      <trkpt lat="46.02177" lon="6.51039">
        <ele>2121.1999511719</ele>
        <time>2019-10-13T14:10:30.000Z</time>
      </trkpt>
      <trkpt lat="46.02176" lon="6.51041">
        <ele>2120.6000976562</ele>
        <time>2019-10-13T14:10:37.000Z</time>
      </trkpt>
      <trkpt lat="46.02178" lon="6.5104">
        <ele>2120</ele>
        <time>2019-10-13T14:10:39.000Z</time>
      </trkpt>
      <trkpt lat="46.02179" lon="6.5104">
        <ele>2119.6000976562</ele>
        <time>2019-10-13T14:10:41.000Z</time>
      </trkpt>
      <trkpt lat="46.02179" lon="6.5104">
        <ele>2119.3999023438</ele>
        <time>2019-10-13T14:10:42.000Z</time>
      </trkpt>
      <trkpt lat="46.02174" lon="6.51037">
        <ele>2119.1999511719</ele>
        <time>2019-10-13T14:10:47.000Z</time>
      </trkpt>
      <trkpt lat="46.02173" lon="6.51037">
        <ele>2119</ele>
        <time>2019-10-13T14:10:48.000Z</time>
      </trkpt>
      <trkpt lat="46.02174" lon="6.51032">
        <ele>2118.1999511719</ele>
        <time>2019-10-13T14:10:52.000Z</time>
      </trkpt>
      <trkpt lat="46.02174" lon="6.51031">
        <ele>2118</ele>
        <time>2019-10-13T14:10:53.000Z</time>
      </trkpt>
      <trkpt lat="46.02175" lon="6.51031">
        <ele>2117.3999023438</ele>
        <time>2019-10-13T14:10:56.000Z</time>
      </trkpt>
      <trkpt lat="46.02173" lon="6.51029">
        <ele>2116.8000488281</ele>
        <time>2019-10-13T14:11:00.000Z</time>
      </trkpt>
      <trkpt lat="46.02172" lon="6.5103">
        <ele>2116.6000976562</ele>
        <time>2019-10-13T14:11:01.000Z</time>
      </trkpt>
      <trkpt lat="46.0217" lon="6.51031">
        <ele>2116</ele>
        <time>2019-10-13T14:11:06.000Z</time>
      </trkpt>
      <trkpt lat="46.0217" lon="6.51032">
        <ele>2115.8000488281</ele>
        <time>2019-10-13T14:11:07.000Z</time>
      </trkpt>
      <trkpt lat="46.02167" lon="6.51034">
        <ele>2115</ele>
        <time>2019-10-13T14:11:12.000Z</time>
      </trkpt>
      <trkpt lat="46.02166" lon="6.51035">
        <ele>2114.3999023438</ele>
        <time>2019-10-13T14:11:14.000Z</time>
      </trkpt>
      <trkpt lat="46.02162" lon="6.51032">
        <ele>2113.3999023438</ele>
        <time>2019-10-13T14:11:19.000Z</time>
      </trkpt>
      <trkpt lat="46.02159" lon="6.51025">
        <ele>2112.3999023438</ele>
        <time>2019-10-13T14:11:23.000Z</time>
      </trkpt>
      <trkpt lat="46.02159" lon="6.51031">
        <ele>2112.1999511719</ele>
        <time>2019-10-13T14:11:25.000Z</time>
      </trkpt>
      <trkpt lat="46.02157" lon="6.51022">
        <ele>2111.6000976562</ele>
        <time>2019-10-13T14:11:32.000Z</time>
      </trkpt>
      <trkpt lat="46.02156" lon="6.51019">
        <ele>2111.1999511719</ele>
        <time>2019-10-13T14:11:34.000Z</time>
      </trkpt>
      <trkpt lat="46.02157" lon="6.51018">
        <ele>2110.1999511719</ele>
        <time>2019-10-13T14:11:37.000Z</time>
      </trkpt>
      <trkpt lat="46.02157" lon="6.5102">
        <ele>2110</ele>
        <time>2019-10-13T14:11:38.000Z</time>
      </trkpt>
      <trkpt lat="46.02158" lon="6.51022">
        <ele>2109.8000488281</ele>
        <time>2019-10-13T14:11:41.000Z</time>
      </trkpt>
      <trkpt lat="46.02159" lon="6.51016">
        <ele>2109.8000488281</ele>
        <time>2019-10-13T14:11:43.000Z</time>
      </trkpt>
      <trkpt lat="46.0216" lon="6.51016">
        <ele>2109.8000488281</ele>
        <time>2019-10-13T14:11:44.000Z</time>
      </trkpt>
      <trkpt lat="46.0216" lon="6.51014">
        <ele>2109</ele>
        <time>2019-10-13T14:11:47.000Z</time>
      </trkpt>
      <trkpt lat="46.0216" lon="6.51012">
        <ele>2108.8000488281</ele>
        <time>2019-10-13T14:11:48.000Z</time>
      </trkpt>
      <trkpt lat="46.0216" lon="6.51012">
        <ele>2108.6000976562</ele>
        <time>2019-10-13T14:11:49.000Z</time>
      </trkpt>
      <trkpt lat="46.0216" lon="6.51013">
        <ele>2107.8000488281</ele>
        <time>2019-10-13T14:11:52.000Z</time>
      </trkpt>
      <trkpt lat="46.02159" lon="6.51013">
        <ele>2106.8000488281</ele>
        <time>2019-10-13T14:11:55.000Z</time>
      </trkpt>
      <trkpt lat="46.02159" lon="6.51013">
        <ele>2106.8000488281</ele>
        <time>2019-10-13T14:11:56.000Z</time>
      </trkpt>
      <trkpt lat="46.02162" lon="6.51013">
        <ele>2106.6000976562</ele>
        <time>2019-10-13T14:11:59.000Z</time>
      </trkpt>
      <trkpt lat="46.02162" lon="6.51007">
        <ele>2106.8000488281</ele>
        <time>2019-10-13T14:12:02.000Z</time>
      </trkpt>
      <trkpt lat="46.02161" lon="6.51005">
        <ele>2106.6000976562</ele>
        <time>2019-10-13T14:12:03.000Z</time>
      </trkpt>
      <trkpt lat="46.02161" lon="6.50995">
        <ele>2106</ele>
        <time>2019-10-13T14:12:08.000Z</time>
      </trkpt>
      <trkpt lat="46.0216" lon="6.50994">
        <ele>2105.6000976562</ele>
        <time>2019-10-13T14:12:11.000Z</time>
      </trkpt>
      <trkpt lat="46.02159" lon="6.50997">
        <ele>2105.3999023438</ele>
        <time>2019-10-13T14:12:13.000Z</time>
      </trkpt>
      <trkpt lat="46.02159" lon="6.50999">
        <ele>2105.1999511719</ele>
        <time>2019-10-13T14:12:14.000Z</time>
      </trkpt>
      <trkpt lat="46.02159" lon="6.51001">
        <ele>2104.1999511719</ele>
        <time>2019-10-13T14:12:16.000Z</time>
      </trkpt>
      <trkpt lat="46.02159" lon="6.51002">
        <ele>2104</ele>
        <time>2019-10-13T14:12:17.000Z</time>
      </trkpt>
      <trkpt lat="46.02159" lon="6.51002">
        <ele>2103.8000488281</ele>
        <time>2019-10-13T14:12:18.000Z</time>
      </trkpt>
      <trkpt lat="46.02156" lon="6.51002">
        <ele>2103.8000488281</ele>
        <time>2019-10-13T14:12:22.000Z</time>
      </trkpt>
      <trkpt lat="46.02155" lon="6.51">
        <ele>2103.8000488281</ele>
        <time>2019-10-13T14:12:23.000Z</time>
      </trkpt>
      <trkpt lat="46.02153" lon="6.50996">
        <ele>2103.1999511719</ele>
        <time>2019-10-13T14:12:26.000Z</time>
      </trkpt>
      <trkpt lat="46.02151" lon="6.50993">
        <ele>2102.1999511719</ele>
        <time>2019-10-13T14:12:29.000Z</time>
      </trkpt>
      <trkpt lat="46.0215" lon="6.50992">
        <ele>2102</ele>
        <time>2019-10-13T14:12:30.000Z</time>
      </trkpt>
      <trkpt lat="46.0215" lon="6.50993">
        <ele>2101.3999023438</ele>
        <time>2019-10-13T14:12:32.000Z</time>
      </trkpt>
      <trkpt lat="46.0215" lon="6.50994">
        <ele>2101</ele>
        <time>2019-10-13T14:12:34.000Z</time>
      </trkpt>
      <trkpt lat="46.0215" lon="6.50995">
        <ele>2100.8000488281</ele>
        <time>2019-10-13T14:12:35.000Z</time>
      </trkpt>
      <trkpt lat="46.02151" lon="6.50998">
        <ele>2100</ele>
        <time>2019-10-13T14:12:37.000Z</time>
      </trkpt>
      <trkpt lat="46.02151" lon="6.51">
        <ele>2099.3999023438</ele>
        <time>2019-10-13T14:12:39.000Z</time>
      </trkpt>
      <trkpt lat="46.02148" lon="6.51001">
        <ele>2098.8000488281</ele>
        <time>2019-10-13T14:12:41.000Z</time>
      </trkpt>
      <trkpt lat="46.02146" lon="6.51">
        <ele>2098.3999023438</ele>
        <time>2019-10-13T14:12:42.000Z</time>
      </trkpt>
      <trkpt lat="46.02144" lon="6.51">
        <ele>2098</ele>
        <time>2019-10-13T14:12:43.000Z</time>
      </trkpt>
      <trkpt lat="46.02142" lon="6.50999">
        <ele>2097.6000976562</ele>
        <time>2019-10-13T14:12:44.000Z</time>
      </trkpt>
      <trkpt lat="46.02138" lon="6.51003">
        <ele>2097.1999511719</ele>
        <time>2019-10-13T14:12:46.000Z</time>
      </trkpt>
      <trkpt lat="46.02137" lon="6.51003">
        <ele>2097</ele>
        <time>2019-10-13T14:12:47.000Z</time>
      </trkpt>
      <trkpt lat="46.02137" lon="6.51004">
        <ele>2096.6000976562</ele>
        <time>2019-10-13T14:12:49.000Z</time>
      </trkpt>
      <trkpt lat="46.02138" lon="6.51004">
        <ele>2096.3999023438</ele>
        <time>2019-10-13T14:12:50.000Z</time>
      </trkpt>
      <trkpt lat="46.0214" lon="6.51004">
        <ele>2096.1999511719</ele>
        <time>2019-10-13T14:12:51.000Z</time>
      </trkpt>
      <trkpt lat="46.02141" lon="6.51003">
        <ele>2096</ele>
        <time>2019-10-13T14:12:52.000Z</time>
      </trkpt>
      <trkpt lat="46.02141" lon="6.51002">
        <ele>2095.8000488281</ele>
        <time>2019-10-13T14:12:55.000Z</time>
      </trkpt>
      <trkpt lat="46.02139" lon="6.51">
        <ele>2095.6000976562</ele>
        <time>2019-10-13T14:12:57.000Z</time>
      </trkpt>
      <trkpt lat="46.02138" lon="6.51">
        <ele>2095.3999023438</ele>
        <time>2019-10-13T14:12:58.000Z</time>
      </trkpt>
      <trkpt lat="46.02136" lon="6.50998">
        <ele>2094.3999023438</ele>
        <time>2019-10-13T14:13:02.000Z</time>
      </trkpt>
      <trkpt lat="46.02138" lon="6.51002">
        <ele>2093.8000488281</ele>
        <time>2019-10-13T14:13:06.000Z</time>
      </trkpt>
      <trkpt lat="46.02138" lon="6.51003">
        <ele>2093.6000976562</ele>
        <time>2019-10-13T14:13:07.000Z</time>
      </trkpt>
      <trkpt lat="46.02138" lon="6.51004">
        <ele>2093.1999511719</ele>
        <time>2019-10-13T14:13:08.000Z</time>
      </trkpt>
      <trkpt lat="46.02128" lon="6.51008">
        <ele>2092.3999023438</ele>
        <time>2019-10-13T14:13:14.000Z</time>
      </trkpt>
      <trkpt lat="46.02127" lon="6.51007">
        <ele>2092</ele>
        <time>2019-10-13T14:13:16.000Z</time>
      </trkpt>
      <trkpt lat="46.02136" lon="6.51011">
        <ele>2091.1999511719</ele>
        <time>2019-10-13T14:13:22.000Z</time>
      </trkpt>
      <trkpt lat="46.02137" lon="6.51012">
        <ele>2091.1999511719</ele>
        <time>2019-10-13T14:13:23.000Z</time>
      </trkpt>
      <trkpt lat="46.02139" lon="6.51013">
        <ele>2090.8000488281</ele>
        <time>2019-10-13T14:13:25.000Z</time>
      </trkpt>
      <trkpt lat="46.02141" lon="6.51013">
        <ele>2089.8000488281</ele>
        <time>2019-10-13T14:13:28.000Z</time>
      </trkpt>
      <trkpt lat="46.02141" lon="6.51014">
        <ele>2089.6000976562</ele>
        <time>2019-10-13T14:13:29.000Z</time>
      </trkpt>
      <trkpt lat="46.02142" lon="6.51015">
        <ele>2089.3999023438</ele>
        <time>2019-10-13T14:13:30.000Z</time>
      </trkpt>
      <trkpt lat="46.02142" lon="6.51017">
        <ele>2088.8000488281</ele>
        <time>2019-10-13T14:13:32.000Z</time>
      </trkpt>
      <trkpt lat="46.02142" lon="6.51017">
        <ele>2088.6000976562</ele>
        <time>2019-10-13T14:13:33.000Z</time>
      </trkpt>
      <trkpt lat="46.02141" lon="6.51018">
        <ele>2088.1999511719</ele>
        <time>2019-10-13T14:13:34.000Z</time>
      </trkpt>
      <trkpt lat="46.02141" lon="6.51019">
        <ele>2088</ele>
        <time>2019-10-13T14:13:35.000Z</time>
      </trkpt>
      <trkpt lat="46.02141" lon="6.5102">
        <ele>2087.8000488281</ele>
        <time>2019-10-13T14:13:36.000Z</time>
      </trkpt>
      <trkpt lat="46.02142" lon="6.51024">
        <ele>2087</ele>
        <time>2019-10-13T14:13:39.000Z</time>
      </trkpt>
      <trkpt lat="46.02142" lon="6.51025">
        <ele>2086.6000976562</ele>
        <time>2019-10-13T14:13:40.000Z</time>
      </trkpt>
      <trkpt lat="46.02142" lon="6.51025">
        <ele>2086</ele>
        <time>2019-10-13T14:13:41.000Z</time>
      </trkpt>
      <trkpt lat="46.02141" lon="6.51026">
        <ele>2085.6000976562</ele>
        <time>2019-10-13T14:13:42.000Z</time>
      </trkpt>
      <trkpt lat="46.02141" lon="6.51026">
        <ele>2085.3999023438</ele>
        <time>2019-10-13T14:13:43.000Z</time>
      </trkpt>
      <trkpt lat="46.02141" lon="6.51027">
        <ele>2085.3999023438</ele>
        <time>2019-10-13T14:13:44.000Z</time>
      </trkpt>
      <trkpt lat="46.02138" lon="6.5103">
        <ele>2084.1999511719</ele>
        <time>2019-10-13T14:13:49.000Z</time>
      </trkpt>
      <trkpt lat="46.02138" lon="6.51031">
        <ele>2083.8000488281</ele>
        <time>2019-10-13T14:13:50.000Z</time>
      </trkpt>
      <trkpt lat="46.02137" lon="6.51032">
        <ele>2083.1999511719</ele>
        <time>2019-10-13T14:13:52.000Z</time>
      </trkpt>
      <trkpt lat="46.02136" lon="6.51036">
        <ele>2082</ele>
        <time>2019-10-13T14:13:55.000Z</time>
      </trkpt>
      <trkpt lat="46.02136" lon="6.51036">
        <ele>2081.6000976562</ele>
        <time>2019-10-13T14:13:56.000Z</time>
      </trkpt>
      <trkpt lat="46.02135" lon="6.51037">
        <ele>2080.8000488281</ele>
        <time>2019-10-13T14:13:58.000Z</time>
      </trkpt>
      <trkpt lat="46.02133" lon="6.51038">
        <ele>2080.6000976562</ele>
        <time>2019-10-13T14:14:02.000Z</time>
      </trkpt>
      <trkpt lat="46.02133" lon="6.51039">
        <ele>2080.6000976562</ele>
        <time>2019-10-13T14:14:03.000Z</time>
      </trkpt>
      <trkpt lat="46.02134" lon="6.51043">
        <ele>2079.8000488281</ele>
        <time>2019-10-13T14:14:06.000Z</time>
      </trkpt>
      <trkpt lat="46.02133" lon="6.51045">
        <ele>2079.3999023438</ele>
        <time>2019-10-13T14:14:07.000Z</time>
      </trkpt>
      <trkpt lat="46.02133" lon="6.51047">
        <ele>2079</ele>
        <time>2019-10-13T14:14:08.000Z</time>
      </trkpt>
      <trkpt lat="46.02132" lon="6.51048">
        <ele>2078.8000488281</ele>
        <time>2019-10-13T14:14:09.000Z</time>
      </trkpt>
      <trkpt lat="46.02133" lon="6.51052">
        <ele>2077.8000488281</ele>
        <time>2019-10-13T14:14:12.000Z</time>
      </trkpt>
      <trkpt lat="46.02133" lon="6.51052">
        <ele>2077.6000976562</ele>
        <time>2019-10-13T14:14:13.000Z</time>
      </trkpt>
      <trkpt lat="46.02134" lon="6.51054">
        <ele>2077.3999023438</ele>
        <time>2019-10-13T14:14:14.000Z</time>
      </trkpt>
      <trkpt lat="46.02129" lon="6.51059">
        <ele>2077</ele>
        <time>2019-10-13T14:14:18.000Z</time>
      </trkpt>
      <trkpt lat="46.02127" lon="6.5106">
        <ele>2077</ele>
        <time>2019-10-13T14:14:19.000Z</time>
      </trkpt>
      <trkpt lat="46.02127" lon="6.51061">
        <ele>2077</ele>
        <time>2019-10-13T14:14:20.000Z</time>
      </trkpt>
      <trkpt lat="46.02128" lon="6.51063">
        <ele>2077.1999511719</ele>
        <time>2019-10-13T14:14:23.000Z</time>
      </trkpt>
      <trkpt lat="46.02128" lon="6.51064">
        <ele>2077.1999511719</ele>
        <time>2019-10-13T14:14:24.000Z</time>
      </trkpt>
      <trkpt lat="46.02127" lon="6.51065">
        <ele>2076.6000976562</ele>
        <time>2019-10-13T14:14:26.000Z</time>
      </trkpt>
      <trkpt lat="46.02122" lon="6.51065">
        <ele>2075.6000976562</ele>
        <time>2019-10-13T14:14:29.000Z</time>
      </trkpt>
      <trkpt lat="46.0212" lon="6.51066">
        <ele>2075</ele>
        <time>2019-10-13T14:14:31.000Z</time>
      </trkpt>
      <trkpt lat="46.0212" lon="6.51066">
        <ele>2074.8000488281</ele>
        <time>2019-10-13T14:14:32.000Z</time>
      </trkpt>
      <trkpt lat="46.0212" lon="6.5107">
        <ele>2074.3999023438</ele>
        <time>2019-10-13T14:14:37.000Z</time>
      </trkpt>
      <trkpt lat="46.02118" lon="6.5107">
        <ele>2074.6000976562</ele>
        <time>2019-10-13T14:14:39.000Z</time>
      </trkpt>
      <trkpt lat="46.02112" lon="6.51069">
        <ele>2074.8000488281</ele>
        <time>2019-10-13T14:14:43.000Z</time>
      </trkpt>
      <trkpt lat="46.02113" lon="6.51071">
        <ele>2074.3999023438</ele>
        <time>2019-10-13T14:14:47.000Z</time>
      </trkpt>
      <trkpt lat="46.02107" lon="6.51071">
        <ele>2073.3999023438</ele>
        <time>2019-10-13T14:14:52.000Z</time>
      </trkpt>
      <trkpt lat="46.02106" lon="6.51071">
        <ele>2073.3999023438</ele>
        <time>2019-10-13T14:14:53.000Z</time>
      </trkpt>
      <trkpt lat="46.02104" lon="6.51071">
        <ele>2073.3999023438</ele>
        <time>2019-10-13T14:14:55.000Z</time>
      </trkpt>
      <trkpt lat="46.02103" lon="6.51071">
        <ele>2073.3999023438</ele>
        <time>2019-10-13T14:14:57.000Z</time>
      </trkpt>
      <trkpt lat="46.02102" lon="6.51071">
        <ele>2073</ele>
        <time>2019-10-13T14:14:59.000Z</time>
      </trkpt>
      <trkpt lat="46.021" lon="6.51069">
        <ele>2071.8000488281</ele>
        <time>2019-10-13T14:15:02.000Z</time>
      </trkpt>
      <trkpt lat="46.021" lon="6.51069">
        <ele>2071</ele>
        <time>2019-10-13T14:15:04.000Z</time>
      </trkpt>
      <trkpt lat="46.021" lon="6.51069">
        <ele>2070.8000488281</ele>
        <time>2019-10-13T14:15:05.000Z</time>
      </trkpt>
      <trkpt lat="46.02101" lon="6.51069">
        <ele>2070</ele>
        <time>2019-10-13T14:15:06.000Z</time>
      </trkpt>
      <trkpt lat="46.02101" lon="6.51071">
        <ele>2069.1999511719</ele>
        <time>2019-10-13T14:15:07.000Z</time>
      </trkpt>
      <trkpt lat="46.02101" lon="6.51072">
        <ele>2068.6000976562</ele>
        <time>2019-10-13T14:15:08.000Z</time>
      </trkpt>
      <trkpt lat="46.02101" lon="6.51073">
        <ele>2068.3999023438</ele>
        <time>2019-10-13T14:15:09.000Z</time>
      </trkpt>
      <trkpt lat="46.02101" lon="6.51075">
        <ele>2068</ele>
        <time>2019-10-13T14:15:10.000Z</time>
      </trkpt>
      <trkpt lat="46.02103" lon="6.51077">
        <ele>2067.8000488281</ele>
        <time>2019-10-13T14:15:11.000Z</time>
      </trkpt>
      <trkpt lat="46.02105" lon="6.51079">
        <ele>2067.8000488281</ele>
        <time>2019-10-13T14:15:13.000Z</time>
      </trkpt>
      <trkpt lat="46.02103" lon="6.51079">
        <ele>2067</ele>
        <time>2019-10-13T14:15:16.000Z</time>
      </trkpt>
      <trkpt lat="46.021" lon="6.51078">
        <ele>2067</ele>
        <time>2019-10-13T14:15:17.000Z</time>
      </trkpt>
      <trkpt lat="46.02098" lon="6.51076">
        <ele>2066.8000488281</ele>
        <time>2019-10-13T14:15:18.000Z</time>
      </trkpt>
      <trkpt lat="46.02097" lon="6.51075">
        <ele>2067</ele>
        <time>2019-10-13T14:15:26.000Z</time>
      </trkpt>
      <trkpt lat="46.02099" lon="6.51083">
        <ele>2065.6000976562</ele>
        <time>2019-10-13T14:15:29.000Z</time>
      </trkpt>
      <trkpt lat="46.02099" lon="6.51089">
        <ele>2065</ele>
        <time>2019-10-13T14:15:31.000Z</time>
      </trkpt>
      <trkpt lat="46.02099" lon="6.51093">
        <ele>2064.3999023438</ele>
        <time>2019-10-13T14:15:33.000Z</time>
      </trkpt>
      <trkpt lat="46.02101" lon="6.51098">
        <ele>2063.6000976562</ele>
        <time>2019-10-13T14:15:37.000Z</time>
      </trkpt>
      <trkpt lat="46.02095" lon="6.51104">
        <ele>2063.1999511719</ele>
        <time>2019-10-13T14:15:42.000Z</time>
      </trkpt>
      <trkpt lat="46.02094" lon="6.51104">
        <ele>2062.3999023438</ele>
        <time>2019-10-13T14:15:43.000Z</time>
      </trkpt>
      <trkpt lat="46.02093" lon="6.51105">
        <ele>2062</ele>
        <time>2019-10-13T14:15:44.000Z</time>
      </trkpt>
      <trkpt lat="46.02095" lon="6.51108">
        <ele>2062.1999511719</ele>
        <time>2019-10-13T14:15:49.000Z</time>
      </trkpt>
      <trkpt lat="46.02096" lon="6.51108">
        <ele>2062.3999023438</ele>
        <time>2019-10-13T14:15:50.000Z</time>
      </trkpt>
      <trkpt lat="46.02097" lon="6.51108">
        <ele>2062.3999023438</ele>
        <time>2019-10-13T14:15:51.000Z</time>
      </trkpt>
      <trkpt lat="46.02095" lon="6.5111">
        <ele>2060.8000488281</ele>
        <time>2019-10-13T14:15:56.000Z</time>
      </trkpt>
      <trkpt lat="46.02093" lon="6.5111">
        <ele>2059.3999023438</ele>
        <time>2019-10-13T14:15:58.000Z</time>
      </trkpt>
      <trkpt lat="46.02091" lon="6.5111">
        <ele>2058.8000488281</ele>
        <time>2019-10-13T14:16:01.000Z</time>
      </trkpt>
      <trkpt lat="46.0209" lon="6.51111">
        <ele>2058.8000488281</ele>
        <time>2019-10-13T14:16:02.000Z</time>
      </trkpt>
      <trkpt lat="46.02089" lon="6.51113">
        <ele>2059</ele>
        <time>2019-10-13T14:16:04.000Z</time>
      </trkpt>
      <trkpt lat="46.02089" lon="6.51115">
        <ele>2058.8000488281</ele>
        <time>2019-10-13T14:16:06.000Z</time>
      </trkpt>
      <trkpt lat="46.02088" lon="6.51115">
        <ele>2058.6000976562</ele>
        <time>2019-10-13T14:16:07.000Z</time>
      </trkpt>
      <trkpt lat="46.02088" lon="6.51116">
        <ele>2058.3999023438</ele>
        <time>2019-10-13T14:16:09.000Z</time>
      </trkpt>
      <trkpt lat="46.0209" lon="6.51118">
        <ele>2058.6000976562</ele>
        <time>2019-10-13T14:16:11.000Z</time>
      </trkpt>
      <trkpt lat="46.02092" lon="6.51118">
        <ele>2057.8000488281</ele>
        <time>2019-10-13T14:16:16.000Z</time>
      </trkpt>
      <trkpt lat="46.02091" lon="6.51119">
        <ele>2057</ele>
        <time>2019-10-13T14:16:17.000Z</time>
      </trkpt>
      <trkpt lat="46.02091" lon="6.51122">
        <ele>2055.8000488281</ele>
        <time>2019-10-13T14:16:20.000Z</time>
      </trkpt>
      <trkpt lat="46.0209" lon="6.51123">
        <ele>2055.3999023438</ele>
        <time>2019-10-13T14:16:21.000Z</time>
      </trkpt>
      <trkpt lat="46.02089" lon="6.51122">
        <ele>2054.6000976562</ele>
        <time>2019-10-13T14:16:23.000Z</time>
      </trkpt>
      <trkpt lat="46.02086" lon="6.51123">
        <ele>2053.3999023438</ele>
        <time>2019-10-13T14:16:26.000Z</time>
      </trkpt>
      <trkpt lat="46.02086" lon="6.51124">
        <ele>2053</ele>
        <time>2019-10-13T14:16:28.000Z</time>
      </trkpt>
      <trkpt lat="46.02082" lon="6.51128">
        <ele>2052.3999023438</ele>
        <time>2019-10-13T14:16:35.000Z</time>
      </trkpt>
      <trkpt lat="46.02082" lon="6.51129">
        <ele>2052.1999511719</ele>
        <time>2019-10-13T14:16:36.000Z</time>
      </trkpt>
      <trkpt lat="46.02081" lon="6.51131">
        <ele>2051.1999511719</ele>
        <time>2019-10-13T14:16:43.000Z</time>
      </trkpt>
      <trkpt lat="46.02079" lon="6.51136">
        <ele>2050.6000976562</ele>
        <time>2019-10-13T14:16:49.000Z</time>
      </trkpt>
      <trkpt lat="46.02076" lon="6.51136">
        <ele>2050.1999511719</ele>
        <time>2019-10-13T14:16:54.000Z</time>
      </trkpt>
      <trkpt lat="46.02075" lon="6.51136">
        <ele>2050</ele>
        <time>2019-10-13T14:16:55.000Z</time>
      </trkpt>
      <trkpt lat="46.02073" lon="6.51135">
        <ele>2049.8000488281</ele>
        <time>2019-10-13T14:17:01.000Z</time>
      </trkpt>
      <trkpt lat="46.02074" lon="6.51142">
        <ele>2049.1999511719</ele>
        <time>2019-10-13T14:17:06.000Z</time>
      </trkpt>
      <trkpt lat="46.02074" lon="6.51144">
        <ele>2049</ele>
        <time>2019-10-13T14:17:07.000Z</time>
      </trkpt>
      <trkpt lat="46.02075" lon="6.51146">
        <ele>2048</ele>
        <time>2019-10-13T14:17:12.000Z</time>
      </trkpt>
      <trkpt lat="46.02075" lon="6.51149">
        <ele>2047.5999755859</ele>
        <time>2019-10-13T14:17:15.000Z</time>
      </trkpt>
      <trkpt lat="46.02075" lon="6.51153">
        <ele>2046.8000488281</ele>
        <time>2019-10-13T14:17:18.000Z</time>
      </trkpt>
      <trkpt lat="46.02074" lon="6.51153">
        <ele>2046.5999755859</ele>
        <time>2019-10-13T14:17:19.000Z</time>
      </trkpt>
      <trkpt lat="46.02072" lon="6.51152">
        <ele>2046.4000244141</ele>
        <time>2019-10-13T14:17:21.000Z</time>
      </trkpt>
      <trkpt lat="46.02071" lon="6.51153">
        <ele>2046.4000244141</ele>
        <time>2019-10-13T14:17:24.000Z</time>
      </trkpt>
      <trkpt lat="46.02064" lon="6.5115">
        <ele>2046.4000244141</ele>
        <time>2019-10-13T14:17:28.000Z</time>
      </trkpt>
      <trkpt lat="46.02063" lon="6.5115">
        <ele>2046.5999755859</ele>
        <time>2019-10-13T14:17:29.000Z</time>
      </trkpt>
      <trkpt lat="46.02061" lon="6.51148">
        <ele>2046.8000488281</ele>
        <time>2019-10-13T14:17:31.000Z</time>
      </trkpt>
      <trkpt lat="46.02062" lon="6.51148">
        <ele>2046.5999755859</ele>
        <time>2019-10-13T14:17:34.000Z</time>
      </trkpt>
      <trkpt lat="46.02063" lon="6.51149">
        <ele>2045.5999755859</ele>
        <time>2019-10-13T14:17:38.000Z</time>
      </trkpt>
      <trkpt lat="46.02063" lon="6.51149">
        <ele>2045.5999755859</ele>
        <time>2019-10-13T14:17:39.000Z</time>
      </trkpt>
      <trkpt lat="46.02059" lon="6.51154">
        <ele>2044.4000244141</ele>
        <time>2019-10-13T14:17:46.000Z</time>
      </trkpt>
      <trkpt lat="46.02059" lon="6.51154">
        <ele>2043.1999511719</ele>
        <time>2019-10-13T14:17:51.000Z</time>
      </trkpt>
      <trkpt lat="46.02058" lon="6.51154">
        <ele>2042.8000488281</ele>
        <time>2019-10-13T14:17:53.000Z</time>
      </trkpt>
      <trkpt lat="46.02054" lon="6.51155">
        <ele>2042.8000488281</ele>
        <time>2019-10-13T14:17:57.000Z</time>
      </trkpt>
      <trkpt lat="46.0205" lon="6.51152">
        <ele>2043.1999511719</ele>
        <time>2019-10-13T14:18:04.000Z</time>
      </trkpt>
      <trkpt lat="46.0205" lon="6.51152">
        <ele>2042.8000488281</ele>
        <time>2019-10-13T14:18:10.000Z</time>
      </trkpt>
      <trkpt lat="46.02049" lon="6.51155">
        <ele>2042</ele>
        <time>2019-10-13T14:18:12.000Z</time>
      </trkpt>
      <trkpt lat="46.02048" lon="6.51159">
        <ele>2041.1999511719</ele>
        <time>2019-10-13T14:18:17.000Z</time>
      </trkpt>
      <trkpt lat="46.02047" lon="6.5116">
        <ele>2041.1999511719</ele>
        <time>2019-10-13T14:18:18.000Z</time>
      </trkpt>
      <trkpt lat="46.02047" lon="6.51161">
        <ele>2041</ele>
        <time>2019-10-13T14:18:19.000Z</time>
      </trkpt>
      <trkpt lat="46.02046" lon="6.51166">
        <ele>2040.5999755859</ele>
        <time>2019-10-13T14:18:24.000Z</time>
      </trkpt>
      <trkpt lat="46.02047" lon="6.51172">
        <ele>2039.8000488281</ele>
        <time>2019-10-13T14:18:27.000Z</time>
      </trkpt>
      <trkpt lat="46.02047" lon="6.51173">
        <ele>2039.4000244141</ele>
        <time>2019-10-13T14:18:28.000Z</time>
      </trkpt>
      <trkpt lat="46.02047" lon="6.51173">
        <ele>2038.8000488281</ele>
        <time>2019-10-13T14:18:29.000Z</time>
      </trkpt>
      <trkpt lat="46.02046" lon="6.51174">
        <ele>2038.1999511719</ele>
        <time>2019-10-13T14:18:30.000Z</time>
      </trkpt>
      <trkpt lat="46.02046" lon="6.51175">
        <ele>2038</ele>
        <time>2019-10-13T14:18:31.000Z</time>
      </trkpt>
      <trkpt lat="46.02045" lon="6.51176">
        <ele>2037.8000488281</ele>
        <time>2019-10-13T14:18:33.000Z</time>
      </trkpt>
      <trkpt lat="46.02045" lon="6.51182">
        <ele>2037.5999755859</ele>
        <time>2019-10-13T14:18:37.000Z</time>
      </trkpt>
      <trkpt lat="46.02045" lon="6.51186">
        <ele>2037.4000244141</ele>
        <time>2019-10-13T14:18:39.000Z</time>
      </trkpt>
      <trkpt lat="46.02042" lon="6.51186">
        <ele>2036.8000488281</ele>
        <time>2019-10-13T14:18:43.000Z</time>
      </trkpt>
      <trkpt lat="46.02041" lon="6.51186">
        <ele>2036.5999755859</ele>
        <time>2019-10-13T14:18:44.000Z</time>
      </trkpt>
      <trkpt lat="46.0204" lon="6.51187">
        <ele>2036.5999755859</ele>
        <time>2019-10-13T14:18:45.000Z</time>
      </trkpt>
      <trkpt lat="46.02039" lon="6.51188">
        <ele>2036.5999755859</ele>
        <time>2019-10-13T14:18:46.000Z</time>
      </trkpt>
      <trkpt lat="46.02037" lon="6.51191">
        <ele>2035.8000488281</ele>
        <time>2019-10-13T14:18:51.000Z</time>
      </trkpt>
      <trkpt lat="46.02034" lon="6.51191">
        <ele>2035.4000244141</ele>
        <time>2019-10-13T14:18:53.000Z</time>
      </trkpt>
      <trkpt lat="46.0203" lon="6.51186">
        <ele>2035.1999511719</ele>
        <time>2019-10-13T14:18:57.000Z</time>
      </trkpt>
      <trkpt lat="46.02029" lon="6.51186">
        <ele>2035.1999511719</ele>
        <time>2019-10-13T14:18:58.000Z</time>
      </trkpt>
      <trkpt lat="46.02029" lon="6.51186">
        <ele>2035.4000244141</ele>
        <time>2019-10-13T14:19:00.000Z</time>
      </trkpt>
      <trkpt lat="46.0203" lon="6.51188">
        <ele>2035.1999511719</ele>
        <time>2019-10-13T14:19:02.000Z</time>
      </trkpt>
      <trkpt lat="46.02031" lon="6.51189">
        <ele>2035</ele>
        <time>2019-10-13T14:19:03.000Z</time>
      </trkpt>
      <trkpt lat="46.02034" lon="6.51193">
        <ele>2034.4000244141</ele>
        <time>2019-10-13T14:19:06.000Z</time>
      </trkpt>
      <trkpt lat="46.02036" lon="6.51195">
        <ele>2033.5999755859</ele>
        <time>2019-10-13T14:19:10.000Z</time>
      </trkpt>
      <trkpt lat="46.02036" lon="6.51195">
        <ele>2033.5999755859</ele>
        <time>2019-10-13T14:19:11.000Z</time>
      </trkpt>
      <trkpt lat="46.02034" lon="6.51197">
        <ele>2033.4000244141</ele>
        <time>2019-10-13T14:19:13.000Z</time>
      </trkpt>
      <trkpt lat="46.02031" lon="6.51197">
        <ele>2033.1999511719</ele>
        <time>2019-10-13T14:19:17.000Z</time>
      </trkpt>
      <trkpt lat="46.0203" lon="6.51202">
        <ele>2032.4000244141</ele>
        <time>2019-10-13T14:19:23.000Z</time>
      </trkpt>
      <trkpt lat="46.0203" lon="6.51204">
        <ele>2032</ele>
        <time>2019-10-13T14:19:24.000Z</time>
      </trkpt>
      <trkpt lat="46.02029" lon="6.51213">
        <ele>2031</ele>
        <time>2019-10-13T14:19:29.000Z</time>
      </trkpt>
      <trkpt lat="46.02028" lon="6.51215">
        <ele>2031</ele>
        <time>2019-10-13T14:19:31.000Z</time>
      </trkpt>
      <trkpt lat="46.02027" lon="6.51216">
        <ele>2030.8000488281</ele>
        <time>2019-10-13T14:19:32.000Z</time>
      </trkpt>
      <trkpt lat="46.02026" lon="6.51218">
        <ele>2030.5999755859</ele>
        <time>2019-10-13T14:19:33.000Z</time>
      </trkpt>
      <trkpt lat="46.02025" lon="6.51218">
        <ele>2030.4000244141</ele>
        <time>2019-10-13T14:19:34.000Z</time>
      </trkpt>
      <trkpt lat="46.02024" lon="6.51218">
        <ele>2030.4000244141</ele>
        <time>2019-10-13T14:19:35.000Z</time>
      </trkpt>
      <trkpt lat="46.02023" lon="6.51218">
        <ele>2029.8000488281</ele>
        <time>2019-10-13T14:19:37.000Z</time>
      </trkpt>
      <trkpt lat="46.02025" lon="6.51218">
        <ele>2028.8000488281</ele>
        <time>2019-10-13T14:19:39.000Z</time>
      </trkpt>
      <trkpt lat="46.02026" lon="6.51217">
        <ele>2028.4000244141</ele>
        <time>2019-10-13T14:19:40.000Z</time>
      </trkpt>
      <trkpt lat="46.02027" lon="6.51217">
        <ele>2028</ele>
        <time>2019-10-13T14:19:41.000Z</time>
      </trkpt>
      <trkpt lat="46.02034" lon="6.51218">
        <ele>2028.8000488281</ele>
        <time>2019-10-13T14:19:51.000Z</time>
      </trkpt>
      <trkpt lat="46.02035" lon="6.51223">
        <ele>2028.1999511719</ele>
        <time>2019-10-13T14:19:55.000Z</time>
      </trkpt>
      <trkpt lat="46.02035" lon="6.51224">
        <ele>2028</ele>
        <time>2019-10-13T14:19:56.000Z</time>
      </trkpt>
      <trkpt lat="46.02031" lon="6.51225">
        <ele>2027.1999511719</ele>
        <time>2019-10-13T14:20:00.000Z</time>
      </trkpt>
      <trkpt lat="46.02029" lon="6.51226">
        <ele>2026.8000488281</ele>
        <time>2019-10-13T14:20:02.000Z</time>
      </trkpt>
      <trkpt lat="46.02028" lon="6.51227">
        <ele>2026.5999755859</ele>
        <time>2019-10-13T14:20:03.000Z</time>
      </trkpt>
      <trkpt lat="46.0202" lon="6.51226">
        <ele>2026.1999511719</ele>
        <time>2019-10-13T14:20:08.000Z</time>
      </trkpt>
      <trkpt lat="46.0202" lon="6.51227">
        <ele>2026</ele>
        <time>2019-10-13T14:20:09.000Z</time>
      </trkpt>
      <trkpt lat="46.02021" lon="6.51233">
        <ele>2025</ele>
        <time>2019-10-13T14:20:14.000Z</time>
      </trkpt>
      <trkpt lat="46.02019" lon="6.51234">
        <ele>2024</ele>
        <time>2019-10-13T14:20:16.000Z</time>
      </trkpt>
      <trkpt lat="46.02017" lon="6.51235">
        <ele>2023.1999511719</ele>
        <time>2019-10-13T14:20:19.000Z</time>
      </trkpt>
      <trkpt lat="46.02016" lon="6.51236">
        <ele>2022.8000488281</ele>
        <time>2019-10-13T14:20:20.000Z</time>
      </trkpt>
      <trkpt lat="46.02013" lon="6.51239">
        <ele>2021.5999755859</ele>
        <time>2019-10-13T14:20:25.000Z</time>
      </trkpt>
      <trkpt lat="46.02013" lon="6.51239">
        <ele>2021.4000244141</ele>
        <time>2019-10-13T14:20:27.000Z</time>
      </trkpt>
      <trkpt lat="46.02014" lon="6.51242">
        <ele>2020.5999755859</ele>
        <time>2019-10-13T14:20:32.000Z</time>
      </trkpt>
      <trkpt lat="46.02011" lon="6.51242">
        <ele>2019.8000488281</ele>
        <time>2019-10-13T14:20:34.000Z</time>
      </trkpt>
      <trkpt lat="46.02011" lon="6.51245">
        <ele>2019.4000244141</ele>
        <time>2019-10-13T14:20:36.000Z</time>
      </trkpt>
      <trkpt lat="46.02011" lon="6.51248">
        <ele>2018.8000488281</ele>
        <time>2019-10-13T14:20:38.000Z</time>
      </trkpt>
      <trkpt lat="46.02011" lon="6.51248">
        <ele>2018.4000244141</ele>
        <time>2019-10-13T14:20:39.000Z</time>
      </trkpt>
      <trkpt lat="46.0201" lon="6.51249">
        <ele>2018</ele>
        <time>2019-10-13T14:20:40.000Z</time>
      </trkpt>
      <trkpt lat="46.02008" lon="6.51252">
        <ele>2017.5999755859</ele>
        <time>2019-10-13T14:20:44.000Z</time>
      </trkpt>
      <trkpt lat="46.02011" lon="6.51255">
        <ele>2017</ele>
        <time>2019-10-13T14:20:48.000Z</time>
      </trkpt>
      <trkpt lat="46.02012" lon="6.51257">
        <ele>2015.8000488281</ele>
        <time>2019-10-13T14:20:51.000Z</time>
      </trkpt>
      <trkpt lat="46.02013" lon="6.51261">
        <ele>2015.1999511719</ele>
        <time>2019-10-13T14:20:56.000Z</time>
      </trkpt>
      <trkpt lat="46.0201" lon="6.51262">
        <ele>2014.8000488281</ele>
        <time>2019-10-13T14:21:00.000Z</time>
      </trkpt>
      <trkpt lat="46.02005" lon="6.51261">
        <ele>2014</ele>
        <time>2019-10-13T14:21:03.000Z</time>
      </trkpt>
      <trkpt lat="46.02002" lon="6.51262">
        <ele>2013.8000488281</ele>
        <time>2019-10-13T14:21:05.000Z</time>
      </trkpt>
      <trkpt lat="46.02001" lon="6.51261">
        <ele>2013.5999755859</ele>
        <time>2019-10-13T14:21:07.000Z</time>
      </trkpt>
      <trkpt lat="46.02" lon="6.51262">
        <ele>2013.4000244141</ele>
        <time>2019-10-13T14:21:08.000Z</time>
      </trkpt>
      <trkpt lat="46.01998" lon="6.51264">
        <ele>2012.4000244141</ele>
        <time>2019-10-13T14:21:10.000Z</time>
      </trkpt>
      <trkpt lat="46.01997" lon="6.51266">
        <ele>2011.8000488281</ele>
        <time>2019-10-13T14:21:13.000Z</time>
      </trkpt>
      <trkpt lat="46.01997" lon="6.51266">
        <ele>2011.4000244141</ele>
        <time>2019-10-13T14:21:15.000Z</time>
      </trkpt>
      <trkpt lat="46.01994" lon="6.51268">
        <ele>2010.1999511719</ele>
        <time>2019-10-13T14:21:18.000Z</time>
      </trkpt>
      <trkpt lat="46.01992" lon="6.51269">
        <ele>2009.1999511719</ele>
        <time>2019-10-13T14:21:20.000Z</time>
      </trkpt>
      <trkpt lat="46.01992" lon="6.51269">
        <ele>2009</ele>
        <time>2019-10-13T14:21:21.000Z</time>
      </trkpt>
      <trkpt lat="46.01993" lon="6.51271">
        <ele>2008.4000244141</ele>
        <time>2019-10-13T14:21:23.000Z</time>
      </trkpt>
      <trkpt lat="46.01994" lon="6.51274">
        <ele>2007.8000488281</ele>
        <time>2019-10-13T14:21:26.000Z</time>
      </trkpt>
      <trkpt lat="46.0199" lon="6.51275">
        <ele>2007.4000244141</ele>
        <time>2019-10-13T14:21:31.000Z</time>
      </trkpt>
      <trkpt lat="46.01989" lon="6.51276">
        <ele>2007.5999755859</ele>
        <time>2019-10-13T14:21:32.000Z</time>
      </trkpt>
      <trkpt lat="46.0199" lon="6.51279">
        <ele>2006.4000244141</ele>
        <time>2019-10-13T14:21:36.000Z</time>
      </trkpt>
      <trkpt lat="46.01987" lon="6.5128">
        <ele>2005.5999755859</ele>
        <time>2019-10-13T14:21:38.000Z</time>
      </trkpt>
      <trkpt lat="46.01986" lon="6.51279">
        <ele>2005.1999511719</ele>
        <time>2019-10-13T14:21:39.000Z</time>
      </trkpt>
      <trkpt lat="46.01981" lon="6.51277">
        <ele>2004.5999755859</ele>
        <time>2019-10-13T14:21:42.000Z</time>
      </trkpt>
      <trkpt lat="46.01979" lon="6.51277">
        <ele>2004.1999511719</ele>
        <time>2019-10-13T14:21:44.000Z</time>
      </trkpt>
      <trkpt lat="46.01977" lon="6.51279">
        <ele>2003.1999511719</ele>
        <time>2019-10-13T14:21:46.000Z</time>
      </trkpt>
      <trkpt lat="46.01977" lon="6.51281">
        <ele>2002</ele>
        <time>2019-10-13T14:21:48.000Z</time>
      </trkpt>
      <trkpt lat="46.01978" lon="6.51286">
        <ele>2001</ele>
        <time>2019-10-13T14:21:51.000Z</time>
      </trkpt>
      <trkpt lat="46.01978" lon="6.51287">
        <ele>2000.5999755859</ele>
        <time>2019-10-13T14:21:52.000Z</time>
      </trkpt>
      <trkpt lat="46.01981" lon="6.5129">
        <ele>2000.4000244141</ele>
        <time>2019-10-13T14:21:55.000Z</time>
      </trkpt>
      <trkpt lat="46.01981" lon="6.51292">
        <ele>1999.5999755859</ele>
        <time>2019-10-13T14:21:57.000Z</time>
      </trkpt>
      <trkpt lat="46.01981" lon="6.51296">
        <ele>1998.4000244141</ele>
        <time>2019-10-13T14:22:01.000Z</time>
      </trkpt>
      <trkpt lat="46.01982" lon="6.51298">
        <ele>1998.1999511719</ele>
        <time>2019-10-13T14:22:02.000Z</time>
      </trkpt>
      <trkpt lat="46.01982" lon="6.51298">
        <ele>1997.8000488281</ele>
        <time>2019-10-13T14:22:03.000Z</time>
      </trkpt>
      <trkpt lat="46.01983" lon="6.51297">
        <ele>1997.8000488281</ele>
        <time>2019-10-13T14:22:04.000Z</time>
      </trkpt>
      <trkpt lat="46.01984" lon="6.51298">
        <ele>1997.5999755859</ele>
        <time>2019-10-13T14:22:05.000Z</time>
      </trkpt>
      <trkpt lat="46.01984" lon="6.51299">
        <ele>1997.4000244141</ele>
        <time>2019-10-13T14:22:06.000Z</time>
      </trkpt>
      <trkpt lat="46.01984" lon="6.51303">
        <ele>1997.4000244141</ele>
        <time>2019-10-13T14:22:08.000Z</time>
      </trkpt>
      <trkpt lat="46.01984" lon="6.51308">
        <ele>1996.5999755859</ele>
        <time>2019-10-13T14:22:10.000Z</time>
      </trkpt>
      <trkpt lat="46.01984" lon="6.5131">
        <ele>1996.1999511719</ele>
        <time>2019-10-13T14:22:11.000Z</time>
      </trkpt>
      <trkpt lat="46.01985" lon="6.51314">
        <ele>1995.4000244141</ele>
        <time>2019-10-13T14:22:13.000Z</time>
      </trkpt>
      <trkpt lat="46.01985" lon="6.51316">
        <ele>1995</ele>
        <time>2019-10-13T14:22:14.000Z</time>
      </trkpt>
      <trkpt lat="46.01985" lon="6.51318">
        <ele>1994.4000244141</ele>
        <time>2019-10-13T14:22:15.000Z</time>
      </trkpt>
      <trkpt lat="46.01984" lon="6.51319">
        <ele>1993.5999755859</ele>
        <time>2019-10-13T14:22:16.000Z</time>
      </trkpt>
      <trkpt lat="46.01984" lon="6.5132">
        <ele>1992.4000244141</ele>
        <time>2019-10-13T14:22:18.000Z</time>
      </trkpt>
      <trkpt lat="46.01984" lon="6.51321">
        <ele>1992</ele>
        <time>2019-10-13T14:22:19.000Z</time>
      </trkpt>
      <trkpt lat="46.01982" lon="6.51322">
        <ele>1991.1999511719</ele>
        <time>2019-10-13T14:22:21.000Z</time>
      </trkpt>
      <trkpt lat="46.0198" lon="6.51322">
        <ele>1990.8000488281</ele>
        <time>2019-10-13T14:22:22.000Z</time>
      </trkpt>
      <trkpt lat="46.01979" lon="6.51322">
        <ele>1990.4000244141</ele>
        <time>2019-10-13T14:22:23.000Z</time>
      </trkpt>
      <trkpt lat="46.01976" lon="6.51322">
        <ele>1990.1999511719</ele>
        <time>2019-10-13T14:22:24.000Z</time>
      </trkpt>
      <trkpt lat="46.01974" lon="6.51324">
        <ele>1990</ele>
        <time>2019-10-13T14:22:27.000Z</time>
      </trkpt>
      <trkpt lat="46.01975" lon="6.51326">
        <ele>1989.5999755859</ele>
        <time>2019-10-13T14:22:29.000Z</time>
      </trkpt>
      <trkpt lat="46.01976" lon="6.51328">
        <ele>1989</ele>
        <time>2019-10-13T14:22:31.000Z</time>
      </trkpt>
      <trkpt lat="46.01976" lon="6.51329">
        <ele>1988</ele>
        <time>2019-10-13T14:22:34.000Z</time>
      </trkpt>
      <trkpt lat="46.01976" lon="6.51329">
        <ele>1987.5999755859</ele>
        <time>2019-10-13T14:22:36.000Z</time>
      </trkpt>
      <trkpt lat="46.01977" lon="6.5133">
        <ele>1987</ele>
        <time>2019-10-13T14:22:42.000Z</time>
      </trkpt>
      <trkpt lat="46.0198" lon="6.51332">
        <ele>1986.5999755859</ele>
        <time>2019-10-13T14:22:43.000Z</time>
      </trkpt>
      <trkpt lat="46.0198" lon="6.51335">
        <ele>1985.5999755859</ele>
        <time>2019-10-13T14:22:45.000Z</time>
      </trkpt>
      <trkpt lat="46.01979" lon="6.51339">
        <ele>1985</ele>
        <time>2019-10-13T14:22:47.000Z</time>
      </trkpt>
      <trkpt lat="46.01979" lon="6.5134">
        <ele>1984.5999755859</ele>
        <time>2019-10-13T14:22:49.000Z</time>
      </trkpt>
      <trkpt lat="46.01977" lon="6.5134">
        <ele>1984.1999511719</ele>
        <time>2019-10-13T14:22:50.000Z</time>
      </trkpt>
      <trkpt lat="46.01975" lon="6.5134">
        <ele>1984</ele>
        <time>2019-10-13T14:22:51.000Z</time>
      </trkpt>
      <trkpt lat="46.0198" lon="6.51343">
        <ele>1983.1999511719</ele>
        <time>2019-10-13T14:22:53.000Z</time>
      </trkpt>
      <trkpt lat="46.01983" lon="6.51346">
        <ele>1983</ele>
        <time>2019-10-13T14:22:56.000Z</time>
      </trkpt>
      <trkpt lat="46.01984" lon="6.51351">
        <ele>1982.1999511719</ele>
        <time>2019-10-13T14:23:00.000Z</time>
      </trkpt>
      <trkpt lat="46.01984" lon="6.51354">
        <ele>1981.1999511719</ele>
        <time>2019-10-13T14:23:02.000Z</time>
      </trkpt>
      <trkpt lat="46.01984" lon="6.51356">
        <ele>1981</ele>
        <time>2019-10-13T14:23:03.000Z</time>
      </trkpt>
      <trkpt lat="46.01986" lon="6.51359">
        <ele>1979.8000488281</ele>
        <time>2019-10-13T14:23:05.000Z</time>
      </trkpt>
      <trkpt lat="46.01989" lon="6.51365">
        <ele>1978.4000244141</ele>
        <time>2019-10-13T14:23:08.000Z</time>
      </trkpt>
      <trkpt lat="46.01991" lon="6.5137">
        <ele>1976.8000488281</ele>
        <time>2019-10-13T14:23:11.000Z</time>
      </trkpt>
      <trkpt lat="46.01993" lon="6.51375">
        <ele>1975.5999755859</ele>
        <time>2019-10-13T14:23:14.000Z</time>
      </trkpt>
      <trkpt lat="46.01994" lon="6.51378">
        <ele>1974.8000488281</ele>
        <time>2019-10-13T14:23:16.000Z</time>
      </trkpt>
      <trkpt lat="46.01994" lon="6.5138">
        <ele>1974.4000244141</ele>
        <time>2019-10-13T14:23:17.000Z</time>
      </trkpt>
      <trkpt lat="46.01994" lon="6.51382">
        <ele>1973.5999755859</ele>
        <time>2019-10-13T14:23:19.000Z</time>
      </trkpt>
      <trkpt lat="46.01995" lon="6.51382">
        <ele>1973</ele>
        <time>2019-10-13T14:23:20.000Z</time>
      </trkpt>
      <trkpt lat="46.01996" lon="6.51381">
        <ele>1972.5999755859</ele>
        <time>2019-10-13T14:23:21.000Z</time>
      </trkpt>
      <trkpt lat="46.01996" lon="6.51379">
        <ele>1972.4000244141</ele>
        <time>2019-10-13T14:23:23.000Z</time>
      </trkpt>
      <trkpt lat="46.01996" lon="6.51383">
        <ele>1972</ele>
        <time>2019-10-13T14:23:27.000Z</time>
      </trkpt>
      <trkpt lat="46.01997" lon="6.51387">
        <ele>1971.8000488281</ele>
        <time>2019-10-13T14:23:29.000Z</time>
      </trkpt>
      <trkpt lat="46.01997" lon="6.5139">
        <ele>1971.8000488281</ele>
        <time>2019-10-13T14:23:31.000Z</time>
      </trkpt>
      <trkpt lat="46.01999" lon="6.51392">
        <ele>1971.8000488281</ele>
        <time>2019-10-13T14:23:33.000Z</time>
      </trkpt>
      <trkpt lat="46.01999" lon="6.51395">
        <ele>1970.8000488281</ele>
        <time>2019-10-13T14:23:36.000Z</time>
      </trkpt>
      <trkpt lat="46.01995" lon="6.51398">
        <ele>1969.5999755859</ele>
        <time>2019-10-13T14:23:39.000Z</time>
      </trkpt>
      <trkpt lat="46.01995" lon="6.51398">
        <ele>1969.1999511719</ele>
        <time>2019-10-13T14:23:41.000Z</time>
      </trkpt>
      <trkpt lat="46.0199" lon="6.514">
        <ele>1968.8000488281</ele>
        <time>2019-10-13T14:23:46.000Z</time>
      </trkpt>
      <trkpt lat="46.01991" lon="6.51403">
        <ele>1968.4000244141</ele>
        <time>2019-10-13T14:23:48.000Z</time>
      </trkpt>
      <trkpt lat="46.01993" lon="6.51403">
        <ele>1967.1999511719</ele>
        <time>2019-10-13T14:23:51.000Z</time>
      </trkpt>
      <trkpt lat="46.01992" lon="6.51409">
        <ele>1966</ele>
        <time>2019-10-13T14:23:55.000Z</time>
      </trkpt>
      <trkpt lat="46.01992" lon="6.5141">
        <ele>1965.5999755859</ele>
        <time>2019-10-13T14:23:56.000Z</time>
      </trkpt>
      <trkpt lat="46.01991" lon="6.51415">
        <ele>1965</ele>
        <time>2019-10-13T14:24:00.000Z</time>
      </trkpt>
      <trkpt lat="46.01989" lon="6.51416">
        <ele>1965</ele>
        <time>2019-10-13T14:24:01.000Z</time>
      </trkpt>
      <trkpt lat="46.01987" lon="6.51416">
        <ele>1964.8000488281</ele>
        <time>2019-10-13T14:24:02.000Z</time>
      </trkpt>
      <trkpt lat="46.01984" lon="6.51415">
        <ele>1964.5999755859</ele>
        <time>2019-10-13T14:24:04.000Z</time>
      </trkpt>
      <trkpt lat="46.01984" lon="6.51415">
        <ele>1964.5999755859</ele>
        <time>2019-10-13T14:24:05.000Z</time>
      </trkpt>
      <trkpt lat="46.01981" lon="6.51414">
        <ele>1963.5999755859</ele>
        <time>2019-10-13T14:24:09.000Z</time>
      </trkpt>
      <trkpt lat="46.01983" lon="6.51413">
        <ele>1963</ele>
        <time>2019-10-13T14:24:11.000Z</time>
      </trkpt>
      <trkpt lat="46.01983" lon="6.51413">
        <ele>1962.5999755859</ele>
        <time>2019-10-13T14:24:12.000Z</time>
      </trkpt>
      <trkpt lat="46.01984" lon="6.51415">
        <ele>1961.8000488281</ele>
        <time>2019-10-13T14:24:16.000Z</time>
      </trkpt>
      <trkpt lat="46.01983" lon="6.51415">
        <ele>1961.8000488281</ele>
        <time>2019-10-13T14:24:17.000Z</time>
      </trkpt>
      <trkpt lat="46.01982" lon="6.51415">
        <ele>1961.4000244141</ele>
        <time>2019-10-13T14:24:19.000Z</time>
      </trkpt>
      <trkpt lat="46.01976" lon="6.51413">
        <ele>1959.8000488281</ele>
        <time>2019-10-13T14:24:23.000Z</time>
      </trkpt>
      <trkpt lat="46.01974" lon="6.51414">
        <ele>1958.8000488281</ele>
        <time>2019-10-13T14:24:28.000Z</time>
      </trkpt>
      <trkpt lat="46.01974" lon="6.51418">
        <ele>1958.5999755859</ele>
        <time>2019-10-13T14:24:30.000Z</time>
      </trkpt>
      <trkpt lat="46.01975" lon="6.51417">
        <ele>1958.5999755859</ele>
        <time>2019-10-13T14:24:32.000Z</time>
      </trkpt>
      <trkpt lat="46.01975" lon="6.51415">
        <ele>1958.5999755859</ele>
        <time>2019-10-13T14:24:34.000Z</time>
      </trkpt>
      <trkpt lat="46.01973" lon="6.51412">
        <ele>1958.4000244141</ele>
        <time>2019-10-13T14:24:37.000Z</time>
      </trkpt>
      <trkpt lat="46.01969" lon="6.5141">
        <ele>1957.5999755859</ele>
        <time>2019-10-13T14:24:44.000Z</time>
      </trkpt>
      <trkpt lat="46.01967" lon="6.51411">
        <ele>1956.4000244141</ele>
        <time>2019-10-13T14:24:46.000Z</time>
      </trkpt>
      <trkpt lat="46.01964" lon="6.5141">
        <ele>1955.5999755859</ele>
        <time>2019-10-13T14:24:49.000Z</time>
      </trkpt>
      <trkpt lat="46.01963" lon="6.51409">
        <ele>1955.1999511719</ele>
        <time>2019-10-13T14:24:50.000Z</time>
      </trkpt>
      <trkpt lat="46.01961" lon="6.5141">
        <ele>1954.1999511719</ele>
        <time>2019-10-13T14:24:53.000Z</time>
      </trkpt>
      <trkpt lat="46.0196" lon="6.5141">
        <ele>1953.8000488281</ele>
        <time>2019-10-13T14:24:54.000Z</time>
      </trkpt>
      <trkpt lat="46.01959" lon="6.5141">
        <ele>1953.1999511719</ele>
        <time>2019-10-13T14:24:57.000Z</time>
      </trkpt>
      <trkpt lat="46.01958" lon="6.51411">
        <ele>1952.5999755859</ele>
        <time>2019-10-13T14:25:00.000Z</time>
      </trkpt>
      <trkpt lat="46.01957" lon="6.51412">
        <ele>1952</ele>
        <time>2019-10-13T14:25:02.000Z</time>
      </trkpt>
      <trkpt lat="46.01955" lon="6.51411">
        <ele>1951.1999511719</ele>
        <time>2019-10-13T14:25:04.000Z</time>
      </trkpt>
      <trkpt lat="46.01956" lon="6.5141">
        <ele>1950</ele>
        <time>2019-10-13T14:25:08.000Z</time>
      </trkpt>
      <trkpt lat="46.01958" lon="6.51414">
        <ele>1948.5999755859</ele>
        <time>2019-10-13T14:25:13.000Z</time>
      </trkpt>
      <trkpt lat="46.01958" lon="6.51416">
        <ele>1948.1999511719</ele>
        <time>2019-10-13T14:25:14.000Z</time>
      </trkpt>
      <trkpt lat="46.01961" lon="6.51417">
        <ele>1947.4000244141</ele>
        <time>2019-10-13T14:25:17.000Z</time>
      </trkpt>
      <trkpt lat="46.01961" lon="6.51419">
        <ele>1946.1999511719</ele>
        <time>2019-10-13T14:25:20.000Z</time>
      </trkpt>
      <trkpt lat="46.01959" lon="6.5142">
        <ele>1945.4000244141</ele>
        <time>2019-10-13T14:25:22.000Z</time>
      </trkpt>
      <trkpt lat="46.01959" lon="6.51422">
        <ele>1945</ele>
        <time>2019-10-13T14:25:24.000Z</time>
      </trkpt>
      <trkpt lat="46.01958" lon="6.51426">
        <ele>1944.5999755859</ele>
        <time>2019-10-13T14:25:28.000Z</time>
      </trkpt>
      <trkpt lat="46.01955" lon="6.51426">
        <ele>1943.8000488281</ele>
        <time>2019-10-13T14:25:32.000Z</time>
      </trkpt>
      <trkpt lat="46.01953" lon="6.51426">
        <ele>1943.8000488281</ele>
        <time>2019-10-13T14:25:33.000Z</time>
      </trkpt>
      <trkpt lat="46.01949" lon="6.51425">
        <ele>1942.8000488281</ele>
        <time>2019-10-13T14:25:38.000Z</time>
      </trkpt>
      <trkpt lat="46.01948" lon="6.51424">
        <ele>1942.5999755859</ele>
        <time>2019-10-13T14:25:39.000Z</time>
      </trkpt>
      <trkpt lat="46.01947" lon="6.51424">
        <ele>1942</ele>
        <time>2019-10-13T14:25:42.000Z</time>
      </trkpt>
      <trkpt lat="46.01947" lon="6.51427">
        <ele>1941.4000244141</ele>
        <time>2019-10-13T14:25:44.000Z</time>
      </trkpt>
      <trkpt lat="46.01948" lon="6.51428">
        <ele>1940.5999755859</ele>
        <time>2019-10-13T14:25:45.000Z</time>
      </trkpt>
      <trkpt lat="46.01949" lon="6.5143">
        <ele>1939.8000488281</ele>
        <time>2019-10-13T14:25:46.000Z</time>
      </trkpt>
      <trkpt lat="46.01949" lon="6.51435">
        <ele>1938.8000488281</ele>
        <time>2019-10-13T14:25:48.000Z</time>
      </trkpt>
      <trkpt lat="46.01948" lon="6.51439">
        <ele>1938.4000244141</ele>
        <time>2019-10-13T14:25:50.000Z</time>
      </trkpt>
      <trkpt lat="46.01948" lon="6.51439">
        <ele>1938.4000244141</ele>
        <time>2019-10-13T14:25:51.000Z</time>
      </trkpt>
      <trkpt lat="46.01947" lon="6.51442">
        <ele>1937.8000488281</ele>
        <time>2019-10-13T14:25:54.000Z</time>
      </trkpt>
      <trkpt lat="46.01948" lon="6.51444">
        <ele>1936.8000488281</ele>
        <time>2019-10-13T14:25:57.000Z</time>
      </trkpt>
      <trkpt lat="46.01945" lon="6.51444">
        <ele>1936</ele>
        <time>2019-10-13T14:25:59.000Z</time>
      </trkpt>
      <trkpt lat="46.01943" lon="6.51443">
        <ele>1935.1999511719</ele>
        <time>2019-10-13T14:26:01.000Z</time>
      </trkpt>
      <trkpt lat="46.01944" lon="6.51445">
        <ele>1933.8000488281</ele>
        <time>2019-10-13T14:26:04.000Z</time>
      </trkpt>
      <trkpt lat="46.01945" lon="6.51449">
        <ele>1933.1999511719</ele>
        <time>2019-10-13T14:26:07.000Z</time>
      </trkpt>
      <trkpt lat="46.01945" lon="6.51452">
        <ele>1932.8000488281</ele>
        <time>2019-10-13T14:26:09.000Z</time>
      </trkpt>
      <trkpt lat="46.01943" lon="6.51453">
        <ele>1931</ele>
        <time>2019-10-13T14:26:11.000Z</time>
      </trkpt>
      <trkpt lat="46.01942" lon="6.51453">
        <ele>1930.5999755859</ele>
        <time>2019-10-13T14:26:12.000Z</time>
      </trkpt>
      <trkpt lat="46.01941" lon="6.51454">
        <ele>1930.5999755859</ele>
        <time>2019-10-13T14:26:13.000Z</time>
      </trkpt>
      <trkpt lat="46.0194" lon="6.51454">
        <ele>1930.5999755859</ele>
        <time>2019-10-13T14:26:14.000Z</time>
      </trkpt>
      <trkpt lat="46.01939" lon="6.51454">
        <ele>1930.5999755859</ele>
        <time>2019-10-13T14:26:15.000Z</time>
      </trkpt>
      <trkpt lat="46.01939" lon="6.51453">
        <ele>1930.5999755859</ele>
        <time>2019-10-13T14:26:16.000Z</time>
      </trkpt>
      <trkpt lat="46.01941" lon="6.51448">
        <ele>1930.5999755859</ele>
        <time>2019-10-13T14:26:18.000Z</time>
      </trkpt>
      <trkpt lat="46.01943" lon="6.51444">
        <ele>1929.8000488281</ele>
        <time>2019-10-13T14:26:21.000Z</time>
      </trkpt>
      <trkpt lat="46.01945" lon="6.51442">
        <ele>1929.5999755859</ele>
        <time>2019-10-13T14:26:24.000Z</time>
      </trkpt>
      <trkpt lat="46.01946" lon="6.51442">
        <ele>1929.5999755859</ele>
        <time>2019-10-13T14:26:26.000Z</time>
      </trkpt>
      <trkpt lat="46.01948" lon="6.51452">
        <ele>1929.8000488281</ele>
        <time>2019-10-13T14:26:31.000Z</time>
      </trkpt>
      <trkpt lat="46.01948" lon="6.51454">
        <ele>1929.5999755859</ele>
        <time>2019-10-13T14:26:33.000Z</time>
      </trkpt>
      <trkpt lat="46.01946" lon="6.5146">
        <ele>1928.1999511719</ele>
        <time>2019-10-13T14:26:37.000Z</time>
      </trkpt>
      <trkpt lat="46.01938" lon="6.5146">
        <ele>1927</ele>
        <time>2019-10-13T14:26:40.000Z</time>
      </trkpt>
      <trkpt lat="46.01937" lon="6.51461">
        <ele>1926.5999755859</ele>
        <time>2019-10-13T14:26:41.000Z</time>
      </trkpt>
      <trkpt lat="46.01935" lon="6.51462">
        <ele>1926.4000244141</ele>
        <time>2019-10-13T14:26:42.000Z</time>
      </trkpt>
      <trkpt lat="46.01934" lon="6.51462">
        <ele>1926.4000244141</ele>
        <time>2019-10-13T14:26:43.000Z</time>
      </trkpt>
      <trkpt lat="46.01932" lon="6.51464">
        <ele>1926.1999511719</ele>
        <time>2019-10-13T14:26:46.000Z</time>
      </trkpt>
      <trkpt lat="46.01932" lon="6.51466">
        <ele>1926</ele>
        <time>2019-10-13T14:26:47.000Z</time>
      </trkpt>
      <trkpt lat="46.0193" lon="6.51469">
        <ele>1926</ele>
        <time>2019-10-13T14:26:49.000Z</time>
      </trkpt>
      <trkpt lat="46.01929" lon="6.5147">
        <ele>1925.5999755859</ele>
        <time>2019-10-13T14:26:50.000Z</time>
      </trkpt>
      <trkpt lat="46.01928" lon="6.51471">
        <ele>1925.1999511719</ele>
        <time>2019-10-13T14:26:51.000Z</time>
      </trkpt>
      <trkpt lat="46.01927" lon="6.51473">
        <ele>1924.8000488281</ele>
        <time>2019-10-13T14:26:52.000Z</time>
      </trkpt>
      <trkpt lat="46.01926" lon="6.51475">
        <ele>1924.4000244141</ele>
        <time>2019-10-13T14:26:53.000Z</time>
      </trkpt>
      <trkpt lat="46.01925" lon="6.51476">
        <ele>1923.8000488281</ele>
        <time>2019-10-13T14:26:55.000Z</time>
      </trkpt>
      <trkpt lat="46.01922" lon="6.51478">
        <ele>1922.1999511719</ele>
        <time>2019-10-13T14:26:58.000Z</time>
      </trkpt>
      <trkpt lat="46.01921" lon="6.51478">
        <ele>1921.8000488281</ele>
        <time>2019-10-13T14:26:59.000Z</time>
      </trkpt>
      <trkpt lat="46.0192" lon="6.51478">
        <ele>1921.5999755859</ele>
        <time>2019-10-13T14:27:00.000Z</time>
      </trkpt>
      <trkpt lat="46.01917" lon="6.51476">
        <ele>1921</ele>
        <time>2019-10-13T14:27:03.000Z</time>
      </trkpt>
      <trkpt lat="46.01914" lon="6.51477">
        <ele>1919.8000488281</ele>
        <time>2019-10-13T14:27:06.000Z</time>
      </trkpt>
      <trkpt lat="46.01915" lon="6.51478">
        <ele>1918.5999755859</ele>
        <time>2019-10-13T14:27:08.000Z</time>
      </trkpt>
      <trkpt lat="46.01919" lon="6.51473">
        <ele>1918</ele>
        <time>2019-10-13T14:27:11.000Z</time>
      </trkpt>
      <trkpt lat="46.01918" lon="6.51476">
        <ele>1917.8000488281</ele>
        <time>2019-10-13T14:27:14.000Z</time>
      </trkpt>
      <trkpt lat="46.01918" lon="6.51476">
        <ele>1917.8000488281</ele>
        <time>2019-10-13T14:27:15.000Z</time>
      </trkpt>
      <trkpt lat="46.01916" lon="6.51476">
        <ele>1917.5999755859</ele>
        <time>2019-10-13T14:27:16.000Z</time>
      </trkpt>
      <trkpt lat="46.01914" lon="6.51477">
        <ele>1917.1999511719</ele>
        <time>2019-10-13T14:27:18.000Z</time>
      </trkpt>
      <trkpt lat="46.0191" lon="6.51479">
        <ele>1916.4000244141</ele>
        <time>2019-10-13T14:27:21.000Z</time>
      </trkpt>
      <trkpt lat="46.01903" lon="6.51481">
        <ele>1915.4000244141</ele>
        <time>2019-10-13T14:27:25.000Z</time>
      </trkpt>
      <trkpt lat="46.01902" lon="6.51482">
        <ele>1915.4000244141</ele>
        <time>2019-10-13T14:27:26.000Z</time>
      </trkpt>
      <trkpt lat="46.01896" lon="6.51483">
        <ele>1914</ele>
        <time>2019-10-13T14:27:31.000Z</time>
      </trkpt>
      <trkpt lat="46.01893" lon="6.51484">
        <ele>1912.5999755859</ele>
        <time>2019-10-13T14:27:33.000Z</time>
      </trkpt>
      <trkpt lat="46.0189" lon="6.51484">
        <ele>1911.1999511719</ele>
        <time>2019-10-13T14:27:36.000Z</time>
      </trkpt>
      <trkpt lat="46.01889" lon="6.51484">
        <ele>1910.8000488281</ele>
        <time>2019-10-13T14:27:37.000Z</time>
      </trkpt>
      <trkpt lat="46.01883" lon="6.51487">
        <ele>1910.4000244141</ele>
        <time>2019-10-13T14:27:42.000Z</time>
      </trkpt>
      <trkpt lat="46.01883" lon="6.51488">
        <ele>1910</ele>
        <time>2019-10-13T14:27:43.000Z</time>
      </trkpt>
      <trkpt lat="46.01883" lon="6.5149">
        <ele>1909.4000244141</ele>
        <time>2019-10-13T14:27:44.000Z</time>
      </trkpt>
      <trkpt lat="46.01884" lon="6.51492">
        <ele>1909</ele>
        <time>2019-10-13T14:27:45.000Z</time>
      </trkpt>
      <trkpt lat="46.01885" lon="6.51493">
        <ele>1908.5999755859</ele>
        <time>2019-10-13T14:27:46.000Z</time>
      </trkpt>
      <trkpt lat="46.01885" lon="6.51496">
        <ele>1908.4000244141</ele>
        <time>2019-10-13T14:27:48.000Z</time>
      </trkpt>
      <trkpt lat="46.01885" lon="6.51496">
        <ele>1908.1999511719</ele>
        <time>2019-10-13T14:27:49.000Z</time>
      </trkpt>
      <trkpt lat="46.01884" lon="6.51498">
        <ele>1907.8000488281</ele>
        <time>2019-10-13T14:27:50.000Z</time>
      </trkpt>
      <trkpt lat="46.01882" lon="6.51501">
        <ele>1906.8000488281</ele>
        <time>2019-10-13T14:27:52.000Z</time>
      </trkpt>
      <trkpt lat="46.01876" lon="6.51504">
        <ele>1905.8000488281</ele>
        <time>2019-10-13T14:27:55.000Z</time>
      </trkpt>
      <trkpt lat="46.01874" lon="6.51505">
        <ele>1905.4000244141</ele>
        <time>2019-10-13T14:27:56.000Z</time>
      </trkpt>
      <trkpt lat="46.0187" lon="6.51507">
        <ele>1904.4000244141</ele>
        <time>2019-10-13T14:27:59.000Z</time>
      </trkpt>
      <trkpt lat="46.01866" lon="6.51509">
        <ele>1903</ele>
        <time>2019-10-13T14:28:02.000Z</time>
      </trkpt>
      <trkpt lat="46.01864" lon="6.51509">
        <ele>1902.5999755859</ele>
        <time>2019-10-13T14:28:03.000Z</time>
      </trkpt>
      <trkpt lat="46.01863" lon="6.51509">
        <ele>1902</ele>
        <time>2019-10-13T14:28:05.000Z</time>
      </trkpt>
      <trkpt lat="46.01859" lon="6.5151">
        <ele>1901.1999511719</ele>
        <time>2019-10-13T14:28:08.000Z</time>
      </trkpt>
      <trkpt lat="46.01857" lon="6.5151">
        <ele>1900.5999755859</ele>
        <time>2019-10-13T14:28:10.000Z</time>
      </trkpt>
      <trkpt lat="46.01857" lon="6.5151">
        <ele>1900.1999511719</ele>
        <time>2019-10-13T14:28:11.000Z</time>
      </trkpt>
      <trkpt lat="46.01854" lon="6.51509">
        <ele>1899.4000244141</ele>
        <time>2019-10-13T14:28:15.000Z</time>
      </trkpt>
      <trkpt lat="46.01853" lon="6.51508">
        <ele>1899.1999511719</ele>
        <time>2019-10-13T14:28:16.000Z</time>
      </trkpt>
      <trkpt lat="46.01852" lon="6.51507">
        <ele>1899.1999511719</ele>
        <time>2019-10-13T14:28:17.000Z</time>
      </trkpt>
      <trkpt lat="46.01849" lon="6.51509">
        <ele>1898</ele>
        <time>2019-10-13T14:28:21.000Z</time>
      </trkpt>
      <trkpt lat="46.01848" lon="6.51511">
        <ele>1897.4000244141</ele>
        <time>2019-10-13T14:28:22.000Z</time>
      </trkpt>
      <trkpt lat="46.01847" lon="6.51513">
        <ele>1897</ele>
        <time>2019-10-13T14:28:23.000Z</time>
      </trkpt>
      <trkpt lat="46.01845" lon="6.51515">
        <ele>1896</ele>
        <time>2019-10-13T14:28:25.000Z</time>
      </trkpt>
      <trkpt lat="46.01844" lon="6.51516">
        <ele>1895.5999755859</ele>
        <time>2019-10-13T14:28:26.000Z</time>
      </trkpt>
      <trkpt lat="46.01844" lon="6.51517">
        <ele>1895.4000244141</ele>
        <time>2019-10-13T14:28:27.000Z</time>
      </trkpt>
      <trkpt lat="46.01842" lon="6.51519">
        <ele>1895</ele>
        <time>2019-10-13T14:28:30.000Z</time>
      </trkpt>
      <trkpt lat="46.01842" lon="6.5152">
        <ele>1894.4000244141</ele>
        <time>2019-10-13T14:28:33.000Z</time>
      </trkpt>
      <trkpt lat="46.01842" lon="6.51527">
        <ele>1893.1999511719</ele>
        <time>2019-10-13T14:28:38.000Z</time>
      </trkpt>
      <trkpt lat="46.01843" lon="6.51528">
        <ele>1892.8000488281</ele>
        <time>2019-10-13T14:28:39.000Z</time>
      </trkpt>
      <trkpt lat="46.01844" lon="6.5153">
        <ele>1892.4000244141</ele>
        <time>2019-10-13T14:28:41.000Z</time>
      </trkpt>
      <trkpt lat="46.01844" lon="6.51531">
        <ele>1892.1999511719</ele>
        <time>2019-10-13T14:28:42.000Z</time>
      </trkpt>
      <trkpt lat="46.01844" lon="6.51534">
        <ele>1891.8000488281</ele>
        <time>2019-10-13T14:28:44.000Z</time>
      </trkpt>
      <trkpt lat="46.01839" lon="6.51539">
        <ele>1891</ele>
        <time>2019-10-13T14:28:50.000Z</time>
      </trkpt>
      <trkpt lat="46.01838" lon="6.5154">
        <ele>1890.8000488281</ele>
        <time>2019-10-13T14:28:51.000Z</time>
      </trkpt>
      <trkpt lat="46.01837" lon="6.5154">
        <ele>1889.8000488281</ele>
        <time>2019-10-13T14:28:54.000Z</time>
      </trkpt>
      <trkpt lat="46.01834" lon="6.51542">
        <ele>1888.4000244141</ele>
        <time>2019-10-13T14:28:56.000Z</time>
      </trkpt>
      <trkpt lat="46.01834" lon="6.51543">
        <ele>1887.8000488281</ele>
        <time>2019-10-13T14:28:57.000Z</time>
      </trkpt>
      <trkpt lat="46.01833" lon="6.51544">
        <ele>1887.4000244141</ele>
        <time>2019-10-13T14:28:58.000Z</time>
      </trkpt>
      <trkpt lat="46.01832" lon="6.51546">
        <ele>1886.1999511719</ele>
        <time>2019-10-13T14:29:01.000Z</time>
      </trkpt>
      <trkpt lat="46.01832" lon="6.51547">
        <ele>1885</ele>
        <time>2019-10-13T14:29:03.000Z</time>
      </trkpt>
      <trkpt lat="46.01833" lon="6.51551">
        <ele>1883.8000488281</ele>
        <time>2019-10-13T14:29:06.000Z</time>
      </trkpt>
      <trkpt lat="46.01832" lon="6.51555">
        <ele>1883.1999511719</ele>
        <time>2019-10-13T14:29:09.000Z</time>
      </trkpt>
      <trkpt lat="46.01832" lon="6.51555">
        <ele>1882.8000488281</ele>
        <time>2019-10-13T14:29:10.000Z</time>
      </trkpt>
      <trkpt lat="46.01832" lon="6.51558">
        <ele>1881.8000488281</ele>
        <time>2019-10-13T14:29:12.000Z</time>
      </trkpt>
      <trkpt lat="46.01832" lon="6.51562">
        <ele>1880.5999755859</ele>
        <time>2019-10-13T14:29:16.000Z</time>
      </trkpt>
      <trkpt lat="46.01832" lon="6.51564">
        <ele>1880.4000244141</ele>
        <time>2019-10-13T14:29:17.000Z</time>
      </trkpt>
      <trkpt lat="46.01833" lon="6.51569">
        <ele>1879.5999755859</ele>
        <time>2019-10-13T14:29:20.000Z</time>
      </trkpt>
      <trkpt lat="46.01833" lon="6.51573">
        <ele>1879.1999511719</ele>
        <time>2019-10-13T14:29:22.000Z</time>
      </trkpt>
      <trkpt lat="46.01833" lon="6.51575">
        <ele>1878.8000488281</ele>
        <time>2019-10-13T14:29:23.000Z</time>
      </trkpt>
      <trkpt lat="46.01833" lon="6.51576">
        <ele>1878.1999511719</ele>
        <time>2019-10-13T14:29:24.000Z</time>
      </trkpt>
      <trkpt lat="46.01834" lon="6.51577">
        <ele>1877</ele>
        <time>2019-10-13T14:29:27.000Z</time>
      </trkpt>
      <trkpt lat="46.01833" lon="6.51578">
        <ele>1876.5999755859</ele>
        <time>2019-10-13T14:29:29.000Z</time>
      </trkpt>
      <trkpt lat="46.01827" lon="6.51579">
        <ele>1875.8000488281</ele>
        <time>2019-10-13T14:29:34.000Z</time>
      </trkpt>
      <trkpt lat="46.01829" lon="6.51584">
        <ele>1875.4000244141</ele>
        <time>2019-10-13T14:29:40.000Z</time>
      </trkpt>
      <trkpt lat="46.01829" lon="6.51586">
        <ele>1875</ele>
        <time>2019-10-13T14:29:41.000Z</time>
      </trkpt>
      <trkpt lat="46.0183" lon="6.51587">
        <ele>1874.8000488281</ele>
        <time>2019-10-13T14:29:42.000Z</time>
      </trkpt>
      <trkpt lat="46.01831" lon="6.51589">
        <ele>1873.4000244141</ele>
        <time>2019-10-13T14:29:45.000Z</time>
      </trkpt>
      <trkpt lat="46.01829" lon="6.51593">
        <ele>1872.4000244141</ele>
        <time>2019-10-13T14:29:48.000Z</time>
      </trkpt>
      <trkpt lat="46.01828" lon="6.51594">
        <ele>1872.1999511719</ele>
        <time>2019-10-13T14:29:49.000Z</time>
      </trkpt>
      <trkpt lat="46.0183" lon="6.51595">
        <ele>1871.1999511719</ele>
        <time>2019-10-13T14:29:54.000Z</time>
      </trkpt>
      <trkpt lat="46.0183" lon="6.51594">
        <ele>1871.1999511719</ele>
        <time>2019-10-13T14:29:55.000Z</time>
      </trkpt>
      <trkpt lat="46.01832" lon="6.51596">
        <ele>1870</ele>
        <time>2019-10-13T14:29:59.000Z</time>
      </trkpt>
      <trkpt lat="46.01834" lon="6.516">
        <ele>1869.1999511719</ele>
        <time>2019-10-13T14:30:02.000Z</time>
      </trkpt>
      <trkpt lat="46.01834" lon="6.51601">
        <ele>1869</ele>
        <time>2019-10-13T14:30:03.000Z</time>
      </trkpt>
      <trkpt lat="46.01835" lon="6.51602">
        <ele>1868.5999755859</ele>
        <time>2019-10-13T14:30:04.000Z</time>
      </trkpt>
      <trkpt lat="46.01835" lon="6.51605">
        <ele>1867.8000488281</ele>
        <time>2019-10-13T14:30:07.000Z</time>
      </trkpt>
      <trkpt lat="46.01834" lon="6.51606">
        <ele>1867.5999755859</ele>
        <time>2019-10-13T14:30:08.000Z</time>
      </trkpt>
      <trkpt lat="46.01834" lon="6.51609">
        <ele>1866.8000488281</ele>
        <time>2019-10-13T14:30:11.000Z</time>
      </trkpt>
      <trkpt lat="46.01834" lon="6.51609">
        <ele>1866.5999755859</ele>
        <time>2019-10-13T14:30:12.000Z</time>
      </trkpt>
      <trkpt lat="46.01834" lon="6.51611">
        <ele>1866</ele>
        <time>2019-10-13T14:30:13.000Z</time>
      </trkpt>
      <trkpt lat="46.01834" lon="6.51612">
        <ele>1865.4000244141</ele>
        <time>2019-10-13T14:30:14.000Z</time>
      </trkpt>
      <trkpt lat="46.01834" lon="6.51614">
        <ele>1864.8000488281</ele>
        <time>2019-10-13T14:30:15.000Z</time>
      </trkpt>
      <trkpt lat="46.01833" lon="6.51618">
        <ele>1864.1999511719</ele>
        <time>2019-10-13T14:30:17.000Z</time>
      </trkpt>
      <trkpt lat="46.01833" lon="6.51619">
        <ele>1863.8000488281</ele>
        <time>2019-10-13T14:30:19.000Z</time>
      </trkpt>
      <trkpt lat="46.01832" lon="6.5162">
        <ele>1863.8000488281</ele>
        <time>2019-10-13T14:30:20.000Z</time>
      </trkpt>
      <trkpt lat="46.01832" lon="6.51622">
        <ele>1863.1999511719</ele>
        <time>2019-10-13T14:30:22.000Z</time>
      </trkpt>
      <trkpt lat="46.01833" lon="6.51622">
        <ele>1863</ele>
        <time>2019-10-13T14:30:23.000Z</time>
      </trkpt>
      <trkpt lat="46.01833" lon="6.51625">
        <ele>1862.1999511719</ele>
        <time>2019-10-13T14:30:26.000Z</time>
      </trkpt>
      <trkpt lat="46.01833" lon="6.51627">
        <ele>1862.1999511719</ele>
        <time>2019-10-13T14:30:27.000Z</time>
      </trkpt>
      <trkpt lat="46.01833" lon="6.5163">
        <ele>1861.5999755859</ele>
        <time>2019-10-13T14:30:29.000Z</time>
      </trkpt>
      <trkpt lat="46.01832" lon="6.51634">
        <ele>1861</ele>
        <time>2019-10-13T14:30:32.000Z</time>
      </trkpt>
      <trkpt lat="46.01832" lon="6.5164">
        <ele>1860.4000244141</ele>
        <time>2019-10-13T14:30:35.000Z</time>
      </trkpt>
      <trkpt lat="46.01833" lon="6.51644">
        <ele>1859.1999511719</ele>
        <time>2019-10-13T14:30:37.000Z</time>
      </trkpt>
      <trkpt lat="46.01833" lon="6.51645">
        <ele>1858.5999755859</ele>
        <time>2019-10-13T14:30:38.000Z</time>
      </trkpt>
      <trkpt lat="46.01833" lon="6.51646">
        <ele>1858.1999511719</ele>
        <time>2019-10-13T14:30:39.000Z</time>
      </trkpt>
      <trkpt lat="46.01832" lon="6.51647">
        <ele>1857.8000488281</ele>
        <time>2019-10-13T14:30:40.000Z</time>
      </trkpt>
      <trkpt lat="46.01832" lon="6.51649">
        <ele>1857.4000244141</ele>
        <time>2019-10-13T14:30:41.000Z</time>
      </trkpt>
      <trkpt lat="46.0183" lon="6.51651">
        <ele>1857</ele>
        <time>2019-10-13T14:30:43.000Z</time>
      </trkpt>
      <trkpt lat="46.01829" lon="6.51652">
        <ele>1857</ele>
        <time>2019-10-13T14:30:44.000Z</time>
      </trkpt>
      <trkpt lat="46.01829" lon="6.51652">
        <ele>1856.5999755859</ele>
        <time>2019-10-13T14:30:45.000Z</time>
      </trkpt>
      <trkpt lat="46.01829" lon="6.51651">
        <ele>1856</ele>
        <time>2019-10-13T14:30:47.000Z</time>
      </trkpt>
      <trkpt lat="46.01829" lon="6.51651">
        <ele>1855.4000244141</ele>
        <time>2019-10-13T14:30:49.000Z</time>
      </trkpt>
      <trkpt lat="46.0183" lon="6.51653">
        <ele>1854.8000488281</ele>
        <time>2019-10-13T14:30:51.000Z</time>
      </trkpt>
      <trkpt lat="46.01831" lon="6.51657">
        <ele>1853.8000488281</ele>
        <time>2019-10-13T14:30:55.000Z</time>
      </trkpt>
      <trkpt lat="46.0183" lon="6.5166">
        <ele>1852.5999755859</ele>
        <time>2019-10-13T14:31:00.000Z</time>
      </trkpt>
      <trkpt lat="46.01827" lon="6.51662">
        <ele>1851.5999755859</ele>
        <time>2019-10-13T14:31:07.000Z</time>
      </trkpt>
      <trkpt lat="46.01828" lon="6.51664">
        <ele>1850.5999755859</ele>
        <time>2019-10-13T14:31:11.000Z</time>
      </trkpt>
      <trkpt lat="46.01829" lon="6.51664">
        <ele>1850.1999511719</ele>
        <time>2019-10-13T14:31:12.000Z</time>
      </trkpt>
      <trkpt lat="46.0183" lon="6.51669">
        <ele>1849.4000244141</ele>
        <time>2019-10-13T14:31:15.000Z</time>
      </trkpt>
      <trkpt lat="46.01826" lon="6.51675">
        <ele>1849.1999511719</ele>
        <time>2019-10-13T14:31:18.000Z</time>
      </trkpt>
      <trkpt lat="46.01826" lon="6.51682">
        <ele>1849.1999511719</ele>
        <time>2019-10-13T14:31:21.000Z</time>
      </trkpt>
      <trkpt lat="46.01826" lon="6.51687">
        <ele>1849.1999511719</ele>
        <time>2019-10-13T14:31:24.000Z</time>
      </trkpt>
      <trkpt lat="46.01827" lon="6.51687">
        <ele>1849</ele>
        <time>2019-10-13T14:31:25.000Z</time>
      </trkpt>
      <trkpt lat="46.0183" lon="6.51687">
        <ele>1848.5999755859</ele>
        <time>2019-10-13T14:31:30.000Z</time>
      </trkpt>
      <trkpt lat="46.01828" lon="6.5169">
        <ele>1849.1999511719</ele>
        <time>2019-10-13T14:31:36.000Z</time>
      </trkpt>
      <trkpt lat="46.01828" lon="6.5169">
        <ele>1849</ele>
        <time>2019-10-13T14:31:37.000Z</time>
      </trkpt>
      <trkpt lat="46.01828" lon="6.51688">
        <ele>1848.5999755859</ele>
        <time>2019-10-13T14:31:43.000Z</time>
      </trkpt>
      <trkpt lat="46.01828" lon="6.51688">
        <ele>1848.5999755859</ele>
        <time>2019-10-13T14:31:45.000Z</time>
      </trkpt>
      <trkpt lat="46.01825" lon="6.51687">
        <ele>1848.5999755859</ele>
        <time>2019-10-13T14:31:49.000Z</time>
      </trkpt>
      <trkpt lat="46.01821" lon="6.51693">
        <ele>1848.8000488281</ele>
        <time>2019-10-13T14:31:52.000Z</time>
      </trkpt>
      <trkpt lat="46.01821" lon="6.51696">
        <ele>1848.1999511719</ele>
        <time>2019-10-13T14:31:54.000Z</time>
      </trkpt>
      <trkpt lat="46.01821" lon="6.51697">
        <ele>1847.5999755859</ele>
        <time>2019-10-13T14:31:55.000Z</time>
      </trkpt>
      <trkpt lat="46.0182" lon="6.51699">
        <ele>1847.1999511719</ele>
        <time>2019-10-13T14:31:57.000Z</time>
      </trkpt>
      <trkpt lat="46.01819" lon="6.517">
        <ele>1846.8000488281</ele>
        <time>2019-10-13T14:31:59.000Z</time>
      </trkpt>
      <trkpt lat="46.01817" lon="6.51702">
        <ele>1846.1999511719</ele>
        <time>2019-10-13T14:32:02.000Z</time>
      </trkpt>
      <trkpt lat="46.01816" lon="6.51703">
        <ele>1846</ele>
        <time>2019-10-13T14:32:04.000Z</time>
      </trkpt>
      <trkpt lat="46.01816" lon="6.51705">
        <ele>1845.8000488281</ele>
        <time>2019-10-13T14:32:07.000Z</time>
      </trkpt>
      <trkpt lat="46.01817" lon="6.51708">
        <ele>1844.8000488281</ele>
        <time>2019-10-13T14:32:11.000Z</time>
      </trkpt>
      <trkpt lat="46.01817" lon="6.51709">
        <ele>1844.4000244141</ele>
        <time>2019-10-13T14:32:12.000Z</time>
      </trkpt>
      <trkpt lat="46.01817" lon="6.5171">
        <ele>1843.8000488281</ele>
        <time>2019-10-13T14:32:13.000Z</time>
      </trkpt>
      <trkpt lat="46.01816" lon="6.51711">
        <ele>1843.5999755859</ele>
        <time>2019-10-13T14:32:14.000Z</time>
      </trkpt>
      <trkpt lat="46.01816" lon="6.51712">
        <ele>1843.1999511719</ele>
        <time>2019-10-13T14:32:15.000Z</time>
      </trkpt>
      <trkpt lat="46.01814" lon="6.51713">
        <ele>1842.4000244141</ele>
        <time>2019-10-13T14:32:17.000Z</time>
      </trkpt>
      <trkpt lat="46.01815" lon="6.5172">
        <ele>1841.4000244141</ele>
        <time>2019-10-13T14:32:22.000Z</time>
      </trkpt>
      <trkpt lat="46.01815" lon="6.51721">
        <ele>1841.1999511719</ele>
        <time>2019-10-13T14:32:23.000Z</time>
      </trkpt>
      <trkpt lat="46.01816" lon="6.51725">
        <ele>1840.5999755859</ele>
        <time>2019-10-13T14:32:26.000Z</time>
      </trkpt>
      <trkpt lat="46.01816" lon="6.51729">
        <ele>1840.1999511719</ele>
        <time>2019-10-13T14:32:28.000Z</time>
      </trkpt>
      <trkpt lat="46.01816" lon="6.51732">
        <ele>1840</ele>
        <time>2019-10-13T14:32:29.000Z</time>
      </trkpt>
      <trkpt lat="46.01816" lon="6.51736">
        <ele>1839.5999755859</ele>
        <time>2019-10-13T14:32:31.000Z</time>
      </trkpt>
      <trkpt lat="46.01816" lon="6.5174">
        <ele>1838.5999755859</ele>
        <time>2019-10-13T14:32:33.000Z</time>
      </trkpt>
      <trkpt lat="46.01817" lon="6.51742">
        <ele>1838.4000244141</ele>
        <time>2019-10-13T14:32:34.000Z</time>
      </trkpt>
      <trkpt lat="46.01817" lon="6.51743">
        <ele>1837.8000488281</ele>
        <time>2019-10-13T14:32:36.000Z</time>
      </trkpt>
      <trkpt lat="46.01816" lon="6.51746">
        <ele>1837.4000244141</ele>
        <time>2019-10-13T14:32:38.000Z</time>
      </trkpt>
      <trkpt lat="46.01816" lon="6.51748">
        <ele>1837.4000244141</ele>
        <time>2019-10-13T14:32:39.000Z</time>
      </trkpt>
      <trkpt lat="46.01816" lon="6.51751">
        <ele>1836.4000244141</ele>
        <time>2019-10-13T14:32:41.000Z</time>
      </trkpt>
      <trkpt lat="46.01815" lon="6.51754">
        <ele>1835.1999511719</ele>
        <time>2019-10-13T14:32:43.000Z</time>
      </trkpt>
      <trkpt lat="46.01814" lon="6.51759">
        <ele>1834.5999755859</ele>
        <time>2019-10-13T14:32:46.000Z</time>
      </trkpt>
      <trkpt lat="46.01814" lon="6.5176">
        <ele>1834.4000244141</ele>
        <time>2019-10-13T14:32:47.000Z</time>
      </trkpt>
      <trkpt lat="46.01806" lon="6.51763">
        <ele>1834.5999755859</ele>
        <time>2019-10-13T14:32:52.000Z</time>
      </trkpt>
      <trkpt lat="46.01805" lon="6.51762">
        <ele>1834.1999511719</ele>
        <time>2019-10-13T14:32:54.000Z</time>
      </trkpt>
      <trkpt lat="46.01804" lon="6.51763">
        <ele>1833.8000488281</ele>
        <time>2019-10-13T14:32:56.000Z</time>
      </trkpt>
      <trkpt lat="46.01804" lon="6.51764">
        <ele>1833.5999755859</ele>
        <time>2019-10-13T14:32:57.000Z</time>
      </trkpt>
      <trkpt lat="46.01804" lon="6.51764">
        <ele>1833</ele>
        <time>2019-10-13T14:32:58.000Z</time>
      </trkpt>
      <trkpt lat="46.01804" lon="6.51765">
        <ele>1832.4000244141</ele>
        <time>2019-10-13T14:33:02.000Z</time>
      </trkpt>
      <trkpt lat="46.01804" lon="6.51765">
        <ele>1832</ele>
        <time>2019-10-13T14:33:03.000Z</time>
      </trkpt>
      <trkpt lat="46.01804" lon="6.51764">
        <ele>1831.8000488281</ele>
        <time>2019-10-13T14:33:04.000Z</time>
      </trkpt>
      <trkpt lat="46.01804" lon="6.51764">
        <ele>1831.5999755859</ele>
        <time>2019-10-13T14:33:05.000Z</time>
      </trkpt>
      <trkpt lat="46.01803" lon="6.51766">
        <ele>1831</ele>
        <time>2019-10-13T14:33:07.000Z</time>
      </trkpt>
      <trkpt lat="46.01803" lon="6.51767">
        <ele>1830.1999511719</ele>
        <time>2019-10-13T14:33:09.000Z</time>
      </trkpt>
      <trkpt lat="46.01803" lon="6.51768">
        <ele>1829.8000488281</ele>
        <time>2019-10-13T14:33:10.000Z</time>
      </trkpt>
      <trkpt lat="46.01802" lon="6.51768">
        <ele>1829.5999755859</ele>
        <time>2019-10-13T14:33:11.000Z</time>
      </trkpt>
      <trkpt lat="46.01802" lon="6.5177">
        <ele>1828.8000488281</ele>
        <time>2019-10-13T14:33:15.000Z</time>
      </trkpt>
      <trkpt lat="46.01803" lon="6.51772">
        <ele>1828.5999755859</ele>
        <time>2019-10-13T14:33:17.000Z</time>
      </trkpt>
      <trkpt lat="46.01804" lon="6.51777">
        <ele>1827.5999755859</ele>
        <time>2019-10-13T14:33:21.000Z</time>
      </trkpt>
      <trkpt lat="46.01805" lon="6.51782">
        <ele>1827</ele>
        <time>2019-10-13T14:33:24.000Z</time>
      </trkpt>
      <trkpt lat="46.01805" lon="6.51784">
        <ele>1826.4000244141</ele>
        <time>2019-10-13T14:33:26.000Z</time>
      </trkpt>
      <trkpt lat="46.01804" lon="6.51786">
        <ele>1825.4000244141</ele>
        <time>2019-10-13T14:33:29.000Z</time>
      </trkpt>
      <trkpt lat="46.01804" lon="6.51786">
        <ele>1825</ele>
        <time>2019-10-13T14:33:30.000Z</time>
      </trkpt>
      <trkpt lat="46.01803" lon="6.5179">
        <ele>1824.1999511719</ele>
        <time>2019-10-13T14:33:34.000Z</time>
      </trkpt>
      <trkpt lat="46.01802" lon="6.51791">
        <ele>1823.8000488281</ele>
        <time>2019-10-13T14:33:36.000Z</time>
      </trkpt>
      <trkpt lat="46.01802" lon="6.51792">
        <ele>1823</ele>
        <time>2019-10-13T14:33:39.000Z</time>
      </trkpt>
      <trkpt lat="46.01803" lon="6.51794">
        <ele>1822.5999755859</ele>
        <time>2019-10-13T14:33:41.000Z</time>
      </trkpt>
      <trkpt lat="46.01803" lon="6.51795">
        <ele>1822.4000244141</ele>
        <time>2019-10-13T14:33:42.000Z</time>
      </trkpt>
      <trkpt lat="46.01804" lon="6.51798">
        <ele>1822</ele>
        <time>2019-10-13T14:33:44.000Z</time>
      </trkpt>
      <trkpt lat="46.01804" lon="6.518">
        <ele>1821.5999755859</ele>
        <time>2019-10-13T14:33:46.000Z</time>
      </trkpt>
      <trkpt lat="46.01802" lon="6.51799">
        <ele>1821.1999511719</ele>
        <time>2019-10-13T14:33:48.000Z</time>
      </trkpt>
      <trkpt lat="46.01802" lon="6.51801">
        <ele>1821</ele>
        <time>2019-10-13T14:33:50.000Z</time>
      </trkpt>
      <trkpt lat="46.01802" lon="6.51801">
        <ele>1820.8000488281</ele>
        <time>2019-10-13T14:33:51.000Z</time>
      </trkpt>
      <trkpt lat="46.01802" lon="6.51801">
        <ele>1820.4000244141</ele>
        <time>2019-10-13T14:33:53.000Z</time>
      </trkpt>
      <trkpt lat="46.01805" lon="6.51805">
        <ele>1820</ele>
        <time>2019-10-13T14:34:01.000Z</time>
      </trkpt>
      <trkpt lat="46.01804" lon="6.51806">
        <ele>1819.8000488281</ele>
        <time>2019-10-13T14:34:05.000Z</time>
      </trkpt>
      <trkpt lat="46.01805" lon="6.51808">
        <ele>1819.8000488281</ele>
        <time>2019-10-13T14:34:06.000Z</time>
      </trkpt>
      <trkpt lat="46.01806" lon="6.51808">
        <ele>1819.5999755859</ele>
        <time>2019-10-13T14:34:07.000Z</time>
      </trkpt>
      <trkpt lat="46.01806" lon="6.51808">
        <ele>1818.5999755859</ele>
        <time>2019-10-13T14:34:11.000Z</time>
      </trkpt>
      <trkpt lat="46.01806" lon="6.51808">
        <ele>1818.1999511719</ele>
        <time>2019-10-13T14:34:12.000Z</time>
      </trkpt>
      <trkpt lat="46.01806" lon="6.51816">
        <ele>1817.4000244141</ele>
        <time>2019-10-13T14:34:17.000Z</time>
      </trkpt>
      <trkpt lat="46.01805" lon="6.51818">
        <ele>1816.5999755859</ele>
        <time>2019-10-13T14:34:18.000Z</time>
      </trkpt>
      <trkpt lat="46.01804" lon="6.5182">
        <ele>1816</ele>
        <time>2019-10-13T14:34:19.000Z</time>
      </trkpt>
      <trkpt lat="46.01802" lon="6.51825">
        <ele>1815.5999755859</ele>
        <time>2019-10-13T14:34:21.000Z</time>
      </trkpt>
      <trkpt lat="46.01799" lon="6.51829">
        <ele>1815.4000244141</ele>
        <time>2019-10-13T14:34:23.000Z</time>
      </trkpt>
      <trkpt lat="46.01799" lon="6.5183">
        <ele>1815.1999511719</ele>
        <time>2019-10-13T14:34:24.000Z</time>
      </trkpt>
      <trkpt lat="46.01796" lon="6.51832">
        <ele>1815</ele>
        <time>2019-10-13T14:34:26.000Z</time>
      </trkpt>
      <trkpt lat="46.01795" lon="6.51833">
        <ele>1814.5999755859</ele>
        <time>2019-10-13T14:34:27.000Z</time>
      </trkpt>
      <trkpt lat="46.01792" lon="6.51835">
        <ele>1814</ele>
        <time>2019-10-13T14:34:29.000Z</time>
      </trkpt>
      <trkpt lat="46.0179" lon="6.51836">
        <ele>1813.4000244141</ele>
        <time>2019-10-13T14:34:30.000Z</time>
      </trkpt>
      <trkpt lat="46.01789" lon="6.51837">
        <ele>1812.8000488281</ele>
        <time>2019-10-13T14:34:31.000Z</time>
      </trkpt>
      <trkpt lat="46.01789" lon="6.51837">
        <ele>1812.4000244141</ele>
        <time>2019-10-13T14:34:32.000Z</time>
      </trkpt>
      <trkpt lat="46.01789" lon="6.51838">
        <ele>1811.5999755859</ele>
        <time>2019-10-13T14:34:34.000Z</time>
      </trkpt>
      <trkpt lat="46.01789" lon="6.51839">
        <ele>1811.1999511719</ele>
        <time>2019-10-13T14:34:35.000Z</time>
      </trkpt>
      <trkpt lat="46.01789" lon="6.5184">
        <ele>1810.5999755859</ele>
        <time>2019-10-13T14:34:36.000Z</time>
      </trkpt>
      <trkpt lat="46.01788" lon="6.51843">
        <ele>1810.1999511719</ele>
        <time>2019-10-13T14:34:38.000Z</time>
      </trkpt>
      <trkpt lat="46.01789" lon="6.51844">
        <ele>1810</ele>
        <time>2019-10-13T14:34:39.000Z</time>
      </trkpt>
      <trkpt lat="46.01792" lon="6.51847">
        <ele>1809</ele>
        <time>2019-10-13T14:34:43.000Z</time>
      </trkpt>
      <trkpt lat="46.01793" lon="6.51848">
        <ele>1808.8000488281</ele>
        <time>2019-10-13T14:34:44.000Z</time>
      </trkpt>
      <trkpt lat="46.01794" lon="6.51849">
        <ele>1808.5999755859</ele>
        <time>2019-10-13T14:34:45.000Z</time>
      </trkpt>
      <trkpt lat="46.01795" lon="6.51853">
        <ele>1808.1999511719</ele>
        <time>2019-10-13T14:34:48.000Z</time>
      </trkpt>
      <trkpt lat="46.01796" lon="6.51855">
        <ele>1808</ele>
        <time>2019-10-13T14:34:49.000Z</time>
      </trkpt>
      <trkpt lat="46.01796" lon="6.51863">
        <ele>1808</ele>
        <time>2019-10-13T14:34:53.000Z</time>
      </trkpt>
      <trkpt lat="46.01796" lon="6.51864">
        <ele>1808</ele>
        <time>2019-10-13T14:34:54.000Z</time>
      </trkpt>
      <trkpt lat="46.01794" lon="6.51869">
        <ele>1807.4000244141</ele>
        <time>2019-10-13T14:34:57.000Z</time>
      </trkpt>
      <trkpt lat="46.01793" lon="6.51871">
        <ele>1806.8000488281</ele>
        <time>2019-10-13T14:34:58.000Z</time>
      </trkpt>
      <trkpt lat="46.01793" lon="6.51872">
        <ele>1806.8000488281</ele>
        <time>2019-10-13T14:34:59.000Z</time>
      </trkpt>
      <trkpt lat="46.01793" lon="6.51874">
        <ele>1806.1999511719</ele>
        <time>2019-10-13T14:35:01.000Z</time>
      </trkpt>
      <trkpt lat="46.01792" lon="6.51878">
        <ele>1806</ele>
        <time>2019-10-13T14:35:04.000Z</time>
      </trkpt>
      <trkpt lat="46.01791" lon="6.51884">
        <ele>1805.8000488281</ele>
        <time>2019-10-13T14:35:08.000Z</time>
      </trkpt>
      <trkpt lat="46.0179" lon="6.51886">
        <ele>1805.5999755859</ele>
        <time>2019-10-13T14:35:09.000Z</time>
      </trkpt>
      <trkpt lat="46.0179" lon="6.51887">
        <ele>1805.1999511719</ele>
        <time>2019-10-13T14:35:10.000Z</time>
      </trkpt>
      <trkpt lat="46.01788" lon="6.51891">
        <ele>1804.4000244141</ele>
        <time>2019-10-13T14:35:12.000Z</time>
      </trkpt>
      <trkpt lat="46.01786" lon="6.51892">
        <ele>1803.4000244141</ele>
        <time>2019-10-13T14:35:14.000Z</time>
      </trkpt>
      <trkpt lat="46.01785" lon="6.51893">
        <ele>1803.1999511719</ele>
        <time>2019-10-13T14:35:15.000Z</time>
      </trkpt>
      <trkpt lat="46.01781" lon="6.51893">
        <ele>1802.8000488281</ele>
        <time>2019-10-13T14:35:17.000Z</time>
      </trkpt>
      <trkpt lat="46.01775" lon="6.51891">
        <ele>1802.1999511719</ele>
        <time>2019-10-13T14:35:20.000Z</time>
      </trkpt>
      <trkpt lat="46.01773" lon="6.5189">
        <ele>1801.1999511719</ele>
        <time>2019-10-13T14:35:23.000Z</time>
      </trkpt>
      <trkpt lat="46.01772" lon="6.5189">
        <ele>1801</ele>
        <time>2019-10-13T14:35:24.000Z</time>
      </trkpt>
      <trkpt lat="46.01771" lon="6.51893">
        <ele>1800.8000488281</ele>
        <time>2019-10-13T14:35:27.000Z</time>
      </trkpt>
      <trkpt lat="46.01774" lon="6.51897">
        <ele>1799.8000488281</ele>
        <time>2019-10-13T14:35:32.000Z</time>
      </trkpt>
      <trkpt lat="46.01774" lon="6.51897">
        <ele>1799.4000244141</ele>
        <time>2019-10-13T14:35:33.000Z</time>
      </trkpt>
      <trkpt lat="46.01775" lon="6.51899">
        <ele>1798.5999755859</ele>
        <time>2019-10-13T14:35:35.000Z</time>
      </trkpt>
      <trkpt lat="46.01775" lon="6.51904">
        <ele>1797.4000244141</ele>
        <time>2019-10-13T14:35:39.000Z</time>
      </trkpt>
      <trkpt lat="46.01775" lon="6.51906">
        <ele>1797</ele>
        <time>2019-10-13T14:35:40.000Z</time>
      </trkpt>
      <trkpt lat="46.01775" lon="6.51909">
        <ele>1796.5999755859</ele>
        <time>2019-10-13T14:35:42.000Z</time>
      </trkpt>
      <trkpt lat="46.01775" lon="6.5191">
        <ele>1796.4000244141</ele>
        <time>2019-10-13T14:35:43.000Z</time>
      </trkpt>
      <trkpt lat="46.01776" lon="6.51915">
        <ele>1796</ele>
        <time>2019-10-13T14:35:46.000Z</time>
      </trkpt>
      <trkpt lat="46.01775" lon="6.5192">
        <ele>1795.1999511719</ele>
        <time>2019-10-13T14:35:49.000Z</time>
      </trkpt>
      <trkpt lat="46.01773" lon="6.51926">
        <ele>1794.1999511719</ele>
        <time>2019-10-13T14:35:53.000Z</time>
      </trkpt>
      <trkpt lat="46.01773" lon="6.51928">
        <ele>1794</ele>
        <time>2019-10-13T14:35:55.000Z</time>
      </trkpt>
      <trkpt lat="46.01774" lon="6.5193">
        <ele>1794</ele>
        <time>2019-10-13T14:35:58.000Z</time>
      </trkpt>
      <trkpt lat="46.01773" lon="6.51929">
        <ele>1794</ele>
        <time>2019-10-13T14:36:00.000Z</time>
      </trkpt>
      <trkpt lat="46.0177" lon="6.51926">
        <ele>1793.8000488281</ele>
        <time>2019-10-13T14:36:09.000Z</time>
      </trkpt>
      <trkpt lat="46.01769" lon="6.51927">
        <ele>1793.8000488281</ele>
        <time>2019-10-13T14:36:10.000Z</time>
      </trkpt>
      <trkpt lat="46.01768" lon="6.51927">
        <ele>1793.8000488281</ele>
        <time>2019-10-13T14:36:11.000Z</time>
      </trkpt>
      <trkpt lat="46.01768" lon="6.51929">
        <ele>1793.8000488281</ele>
        <time>2019-10-13T14:36:15.000Z</time>
      </trkpt>
      <trkpt lat="46.0177" lon="6.51929">
        <ele>1793.5999755859</ele>
        <time>2019-10-13T14:36:22.000Z</time>
      </trkpt>
      <trkpt lat="46.0177" lon="6.51927">
        <ele>1793.5999755859</ele>
        <time>2019-10-13T14:36:24.000Z</time>
      </trkpt>
      <trkpt lat="46.01768" lon="6.51923">
        <ele>1793.1999511719</ele>
        <time>2019-10-13T14:36:27.000Z</time>
      </trkpt>
      <trkpt lat="46.01768" lon="6.51924">
        <ele>1793</ele>
        <time>2019-10-13T14:36:29.000Z</time>
      </trkpt>
      <trkpt lat="46.01767" lon="6.5193">
        <ele>1793</ele>
        <time>2019-10-13T14:36:36.000Z</time>
      </trkpt>
      <trkpt lat="46.01767" lon="6.51933">
        <ele>1793</ele>
        <time>2019-10-13T14:36:40.000Z</time>
      </trkpt>
      <trkpt lat="46.01768" lon="6.51933">
        <ele>1793</ele>
        <time>2019-10-13T14:36:44.000Z</time>
      </trkpt>
      <trkpt lat="46.01769" lon="6.51933">
        <ele>1792.8000488281</ele>
        <time>2019-10-13T14:36:45.000Z</time>
      </trkpt>
      <trkpt lat="46.01771" lon="6.51933">
        <ele>1792.5999755859</ele>
        <time>2019-10-13T14:36:49.000Z</time>
      </trkpt>
      <trkpt lat="46.01777" lon="6.51937">
        <ele>1793</ele>
        <time>2019-10-13T14:36:55.000Z</time>
      </trkpt>
      <trkpt lat="46.0178" lon="6.51941">
        <ele>1793.8000488281</ele>
        <time>2019-10-13T14:36:59.000Z</time>
      </trkpt>
      <trkpt lat="46.0178" lon="6.51942">
        <ele>1794</ele>
        <time>2019-10-13T14:37:00.000Z</time>
      </trkpt>
      <trkpt lat="46.0178" lon="6.51944">
        <ele>1794</ele>
        <time>2019-10-13T14:37:01.000Z</time>
      </trkpt>
      <trkpt lat="46.01782" lon="6.51946">
        <ele>1793.8000488281</ele>
        <time>2019-10-13T14:37:04.000Z</time>
      </trkpt>
      <trkpt lat="46.01782" lon="6.51949">
        <ele>1793.8000488281</ele>
        <time>2019-10-13T14:37:06.000Z</time>
      </trkpt>
      <trkpt lat="46.01783" lon="6.51953">
        <ele>1793.5999755859</ele>
        <time>2019-10-13T14:37:10.000Z</time>
      </trkpt>
      <trkpt lat="46.01783" lon="6.51954">
        <ele>1793.5999755859</ele>
        <time>2019-10-13T14:37:12.000Z</time>
      </trkpt>
      <trkpt lat="46.01783" lon="6.51957">
        <ele>1792.1999511719</ele>
        <time>2019-10-13T14:37:19.000Z</time>
      </trkpt>
      <trkpt lat="46.0178" lon="6.51956">
        <ele>1792</ele>
        <time>2019-10-13T14:37:21.000Z</time>
      </trkpt>
      <trkpt lat="46.01777" lon="6.51955">
        <ele>1792</ele>
        <time>2019-10-13T14:37:25.000Z</time>
      </trkpt>
      <trkpt lat="46.01778" lon="6.51956">
        <ele>1792.1999511719</ele>
        <time>2019-10-13T14:37:29.000Z</time>
      </trkpt>
      <trkpt lat="46.01778" lon="6.51956">
        <ele>1792</ele>
        <time>2019-10-13T14:37:30.000Z</time>
      </trkpt>
      <trkpt lat="46.01777" lon="6.5196">
        <ele>1791</ele>
        <time>2019-10-13T14:37:37.000Z</time>
      </trkpt>
      <trkpt lat="46.01777" lon="6.5196">
        <ele>1790.8000488281</ele>
        <time>2019-10-13T14:37:38.000Z</time>
      </trkpt>
      <trkpt lat="46.01777" lon="6.51959">
        <ele>1790.8000488281</ele>
        <time>2019-10-13T14:37:39.000Z</time>
      </trkpt>
      <trkpt lat="46.01777" lon="6.51959">
        <ele>1790.8000488281</ele>
        <time>2019-10-13T14:37:41.000Z</time>
      </trkpt>
      <trkpt lat="46.01775" lon="6.51958">
        <ele>1790.5999755859</ele>
        <time>2019-10-13T14:37:45.000Z</time>
      </trkpt>
      <trkpt lat="46.01779" lon="6.51957">
        <ele>1789.8000488281</ele>
        <time>2019-10-13T14:37:52.000Z</time>
      </trkpt>
      <trkpt lat="46.01777" lon="6.51956">
        <ele>1789.4000244141</ele>
        <time>2019-10-13T14:38:00.000Z</time>
      </trkpt>
      <trkpt lat="46.01774" lon="6.51953">
        <ele>1789</ele>
        <time>2019-10-13T14:38:09.000Z</time>
      </trkpt>
      <trkpt lat="46.01778" lon="6.51948">
        <ele>1789</ele>
        <time>2019-10-13T14:38:11.000Z</time>
      </trkpt>
      <trkpt lat="46.01779" lon="6.51951">
        <ele>1789</ele>
        <time>2019-10-13T14:38:13.000Z</time>
      </trkpt>
      <trkpt lat="46.01778" lon="6.51954">
        <ele>1789.1999511719</ele>
        <time>2019-10-13T14:38:16.000Z</time>
      </trkpt>
      <trkpt lat="46.01777" lon="6.51956">
        <ele>1789.4000244141</ele>
        <time>2019-10-13T14:38:24.000Z</time>
      </trkpt>
      <trkpt lat="46.01777" lon="6.51957">
        <ele>1789.4000244141</ele>
        <time>2019-10-13T14:38:28.000Z</time>
      </trkpt>
      <trkpt lat="46.01777" lon="6.51956">
        <ele>1790</ele>
        <time>2019-10-13T14:38:35.000Z</time>
      </trkpt>
      <trkpt lat="46.01777" lon="6.51955">
        <ele>1791.1999511719</ele>
        <time>2019-10-13T14:38:38.000Z</time>
      </trkpt>
      <trkpt lat="46.01775" lon="6.51955">
        <ele>1791.4000244141</ele>
        <time>2019-10-13T14:38:42.000Z</time>
      </trkpt>
      <trkpt lat="46.01776" lon="6.51958">
        <ele>1791.5999755859</ele>
        <time>2019-10-13T14:38:46.000Z</time>
      </trkpt>
      <trkpt lat="46.01776" lon="6.51959">
        <ele>1791.5999755859</ele>
        <time>2019-10-13T14:38:48.000Z</time>
      </trkpt>
      <trkpt lat="46.01774" lon="6.51954">
        <ele>1791.1999511719</ele>
        <time>2019-10-13T14:38:55.000Z</time>
      </trkpt>
      <trkpt lat="46.01777" lon="6.51949">
        <ele>1791.4000244141</ele>
        <time>2019-10-13T14:39:01.000Z</time>
      </trkpt>
      <trkpt lat="46.0178" lon="6.51949">
        <ele>1791.8000488281</ele>
        <time>2019-10-13T14:39:06.000Z</time>
      </trkpt>
      <trkpt lat="46.01779" lon="6.5195">
        <ele>1791.5999755859</ele>
        <time>2019-10-13T14:39:08.000Z</time>
      </trkpt>
      <trkpt lat="46.01782" lon="6.51951">
        <ele>1792.1999511719</ele>
        <time>2019-10-13T14:39:13.000Z</time>
      </trkpt>
      <trkpt lat="46.01784" lon="6.5195">
        <ele>1792.4000244141</ele>
        <time>2019-10-13T14:39:14.000Z</time>
      </trkpt>
      <trkpt lat="46.01785" lon="6.51949">
        <ele>1792.5999755859</ele>
        <time>2019-10-13T14:39:15.000Z</time>
      </trkpt>
      <trkpt lat="46.01786" lon="6.51949">
        <ele>1792.8000488281</ele>
        <time>2019-10-13T14:39:16.000Z</time>
      </trkpt>
      <trkpt lat="46.01794" lon="6.51946">
        <ele>1792</ele>
        <time>2019-10-13T14:39:23.000Z</time>
      </trkpt>
      <trkpt lat="46.01795" lon="6.51944">
        <ele>1792</ele>
        <time>2019-10-13T14:39:24.000Z</time>
      </trkpt>
      <trkpt lat="46.01796" lon="6.5194">
        <ele>1792</ele>
        <time>2019-10-13T14:39:28.000Z</time>
      </trkpt>
      <trkpt lat="46.01797" lon="6.51939">
        <ele>1792</ele>
        <time>2019-10-13T14:39:29.000Z</time>
      </trkpt>
      <trkpt lat="46.01802" lon="6.51936">
        <ele>1791</ele>
        <time>2019-10-13T14:39:33.000Z</time>
      </trkpt>
      <trkpt lat="46.01803" lon="6.51937">
        <ele>1791</ele>
        <time>2019-10-13T14:39:34.000Z</time>
      </trkpt>
      <trkpt lat="46.01807" lon="6.51941">
        <ele>1791</ele>
        <time>2019-10-13T14:39:37.000Z</time>
      </trkpt>
      <trkpt lat="46.0181" lon="6.51945">
        <ele>1790.8000488281</ele>
        <time>2019-10-13T14:39:39.000Z</time>
      </trkpt>
      <trkpt lat="46.01811" lon="6.51945">
        <ele>1790.5999755859</ele>
        <time>2019-10-13T14:39:40.000Z</time>
      </trkpt>
      <trkpt lat="46.01816" lon="6.51943">
        <ele>1790.1999511719</ele>
        <time>2019-10-13T14:39:43.000Z</time>
      </trkpt>
      <trkpt lat="46.0182" lon="6.51945">
        <ele>1790.1999511719</ele>
        <time>2019-10-13T14:39:46.000Z</time>
      </trkpt>
      <trkpt lat="46.0182" lon="6.51945">
        <ele>1790.1999511719</ele>
        <time>2019-10-13T14:39:47.000Z</time>
      </trkpt>
      <trkpt lat="46.0182" lon="6.51945">
        <ele>1790.1999511719</ele>
        <time>2019-10-13T14:39:48.000Z</time>
      </trkpt>
      <trkpt lat="46.01822" lon="6.51946">
        <ele>1790.5999755859</ele>
        <time>2019-10-13T14:39:54.000Z</time>
      </trkpt>
      <trkpt lat="46.01821" lon="6.51947">
        <ele>1791.4000244141</ele>
        <time>2019-10-13T14:39:59.000Z</time>
      </trkpt>
      <trkpt lat="46.01825" lon="6.5195">
        <ele>1791.4000244141</ele>
        <time>2019-10-13T14:40:04.000Z</time>
      </trkpt>
      <trkpt lat="46.01828" lon="6.51958">
        <ele>1790.1999511719</ele>
        <time>2019-10-13T14:40:10.000Z</time>
      </trkpt>
      <trkpt lat="46.01829" lon="6.51959">
        <ele>1790</ele>
        <time>2019-10-13T14:40:11.000Z</time>
      </trkpt>
      <trkpt lat="46.0183" lon="6.5196">
        <ele>1790</ele>
        <time>2019-10-13T14:40:12.000Z</time>
      </trkpt>
      <trkpt lat="46.01833" lon="6.51966">
        <ele>1789.4000244141</ele>
        <time>2019-10-13T14:40:15.000Z</time>
      </trkpt>
      <trkpt lat="46.01834" lon="6.51968">
        <ele>1789.4000244141</ele>
        <time>2019-10-13T14:40:16.000Z</time>
      </trkpt>
      <trkpt lat="46.01835" lon="6.51973">
        <ele>1790.4000244141</ele>
        <time>2019-10-13T14:40:19.000Z</time>
      </trkpt>
      <trkpt lat="46.01835" lon="6.5198">
        <ele>1789.8000488281</ele>
        <time>2019-10-13T14:40:23.000Z</time>
      </trkpt>
      <trkpt lat="46.01836" lon="6.51982">
        <ele>1789</ele>
        <time>2019-10-13T14:40:25.000Z</time>
      </trkpt>
      <trkpt lat="46.01836" lon="6.51984">
        <ele>1788.8000488281</ele>
        <time>2019-10-13T14:40:26.000Z</time>
      </trkpt>
      <trkpt lat="46.01837" lon="6.51985">
        <ele>1788.5999755859</ele>
        <time>2019-10-13T14:40:27.000Z</time>
      </trkpt>
      <trkpt lat="46.01837" lon="6.51986">
        <ele>1788.1999511719</ele>
        <time>2019-10-13T14:40:28.000Z</time>
      </trkpt>
      <trkpt lat="46.01836" lon="6.51987">
        <ele>1788</ele>
        <time>2019-10-13T14:40:29.000Z</time>
      </trkpt>
      <trkpt lat="46.01835" lon="6.51989">
        <ele>1788</ele>
        <time>2019-10-13T14:40:30.000Z</time>
      </trkpt>
      <trkpt lat="46.01834" lon="6.51991">
        <ele>1787.5999755859</ele>
        <time>2019-10-13T14:40:32.000Z</time>
      </trkpt>
      <trkpt lat="46.01834" lon="6.51994">
        <ele>1787.1999511719</ele>
        <time>2019-10-13T14:40:34.000Z</time>
      </trkpt>
      <trkpt lat="46.01834" lon="6.51995">
        <ele>1787</ele>
        <time>2019-10-13T14:40:35.000Z</time>
      </trkpt>
      <trkpt lat="46.01833" lon="6.51996">
        <ele>1787.1999511719</ele>
        <time>2019-10-13T14:40:36.000Z</time>
      </trkpt>
      <trkpt lat="46.01832" lon="6.51996">
        <ele>1787</ele>
        <time>2019-10-13T14:40:38.000Z</time>
      </trkpt>
      <trkpt lat="46.01831" lon="6.51996">
        <ele>1787</ele>
        <time>2019-10-13T14:40:39.000Z</time>
      </trkpt>
      <trkpt lat="46.0183" lon="6.51996">
        <ele>1786.8000488281</ele>
        <time>2019-10-13T14:40:40.000Z</time>
      </trkpt>
      <trkpt lat="46.01827" lon="6.51998">
        <ele>1785.8000488281</ele>
        <time>2019-10-13T14:40:43.000Z</time>
      </trkpt>
      <trkpt lat="46.01825" lon="6.51998">
        <ele>1785.5999755859</ele>
        <time>2019-10-13T14:40:45.000Z</time>
      </trkpt>
      <trkpt lat="46.01825" lon="6.51999">
        <ele>1785</ele>
        <time>2019-10-13T14:40:47.000Z</time>
      </trkpt>
      <trkpt lat="46.01825" lon="6.52001">
        <ele>1784.4000244141</ele>
        <time>2019-10-13T14:40:49.000Z</time>
      </trkpt>
      <trkpt lat="46.01824" lon="6.52001">
        <ele>1784.1999511719</ele>
        <time>2019-10-13T14:40:50.000Z</time>
      </trkpt>
      <trkpt lat="46.01823" lon="6.52001">
        <ele>1784</ele>
        <time>2019-10-13T14:40:52.000Z</time>
      </trkpt>
      <trkpt lat="46.01822" lon="6.52">
        <ele>1783.8000488281</ele>
        <time>2019-10-13T14:40:53.000Z</time>
      </trkpt>
      <trkpt lat="46.0182" lon="6.51997">
        <ele>1783.4000244141</ele>
        <time>2019-10-13T14:40:56.000Z</time>
      </trkpt>
      <trkpt lat="46.0182" lon="6.51996">
        <ele>1783.1999511719</ele>
        <time>2019-10-13T14:40:57.000Z</time>
      </trkpt>
      <trkpt lat="46.01818" lon="6.51996">
        <ele>1782.8000488281</ele>
        <time>2019-10-13T14:40:59.000Z</time>
      </trkpt>
      <trkpt lat="46.01816" lon="6.51997">
        <ele>1782</ele>
        <time>2019-10-13T14:41:02.000Z</time>
      </trkpt>
      <trkpt lat="46.01816" lon="6.51998">
        <ele>1781.5999755859</ele>
        <time>2019-10-13T14:41:03.000Z</time>
      </trkpt>
      <trkpt lat="46.01816" lon="6.52001">
        <ele>1781.1999511719</ele>
        <time>2019-10-13T14:41:05.000Z</time>
      </trkpt>
      <trkpt lat="46.01815" lon="6.52002">
        <ele>1781</ele>
        <time>2019-10-13T14:41:06.000Z</time>
      </trkpt>
      <trkpt lat="46.01815" lon="6.52002">
        <ele>1780.8000488281</ele>
        <time>2019-10-13T14:41:09.000Z</time>
      </trkpt>
      <trkpt lat="46.01816" lon="6.52003">
        <ele>1780.8000488281</ele>
        <time>2019-10-13T14:41:10.000Z</time>
      </trkpt>
      <trkpt lat="46.0182" lon="6.52009">
        <ele>1779.8000488281</ele>
        <time>2019-10-13T14:41:15.000Z</time>
      </trkpt>
      <trkpt lat="46.0182" lon="6.52009">
        <ele>1779.5999755859</ele>
        <time>2019-10-13T14:41:16.000Z</time>
      </trkpt>
      <trkpt lat="46.01817" lon="6.52014">
        <ele>1778.8000488281</ele>
        <time>2019-10-13T14:41:22.000Z</time>
      </trkpt>
      <trkpt lat="46.01814" lon="6.52015">
        <ele>1777.4000244141</ele>
        <time>2019-10-13T14:41:27.000Z</time>
      </trkpt>
      <trkpt lat="46.01814" lon="6.52017">
        <ele>1776.1999511719</ele>
        <time>2019-10-13T14:41:29.000Z</time>
      </trkpt>
      <trkpt lat="46.01814" lon="6.5202">
        <ele>1775.5999755859</ele>
        <time>2019-10-13T14:41:31.000Z</time>
      </trkpt>
      <trkpt lat="46.01814" lon="6.52022">
        <ele>1775.5999755859</ele>
        <time>2019-10-13T14:41:32.000Z</time>
      </trkpt>
      <trkpt lat="46.01814" lon="6.52023">
        <ele>1775.5999755859</ele>
        <time>2019-10-13T14:41:33.000Z</time>
      </trkpt>
      <trkpt lat="46.01814" lon="6.52027">
        <ele>1775.4000244141</ele>
        <time>2019-10-13T14:41:36.000Z</time>
      </trkpt>
      <trkpt lat="46.01814" lon="6.52032">
        <ele>1775.1999511719</ele>
        <time>2019-10-13T14:41:39.000Z</time>
      </trkpt>
      <trkpt lat="46.01814" lon="6.52035">
        <ele>1774.4000244141</ele>
        <time>2019-10-13T14:41:41.000Z</time>
      </trkpt>
      <trkpt lat="46.01814" lon="6.52036">
        <ele>1774</ele>
        <time>2019-10-13T14:41:42.000Z</time>
      </trkpt>
      <trkpt lat="46.01811" lon="6.52037">
        <ele>1772.8000488281</ele>
        <time>2019-10-13T14:41:45.000Z</time>
      </trkpt>
      <trkpt lat="46.0181" lon="6.52037">
        <ele>1772.5999755859</ele>
        <time>2019-10-13T14:41:46.000Z</time>
      </trkpt>
      <trkpt lat="46.01808" lon="6.52036">
        <ele>1772</ele>
        <time>2019-10-13T14:41:48.000Z</time>
      </trkpt>
      <trkpt lat="46.01807" lon="6.52036">
        <ele>1771.8000488281</ele>
        <time>2019-10-13T14:41:49.000Z</time>
      </trkpt>
      <trkpt lat="46.01808" lon="6.52036">
        <ele>1771.4000244141</ele>
        <time>2019-10-13T14:41:52.000Z</time>
      </trkpt>
      <trkpt lat="46.01805" lon="6.52028">
        <ele>1770.8000488281</ele>
        <time>2019-10-13T14:41:59.000Z</time>
      </trkpt>
      <trkpt lat="46.01804" lon="6.52026">
        <ele>1770.8000488281</ele>
        <time>2019-10-13T14:42:00.000Z</time>
      </trkpt>
      <trkpt lat="46.01804" lon="6.52024">
        <ele>1770.4000244141</ele>
        <time>2019-10-13T14:42:02.000Z</time>
      </trkpt>
      <trkpt lat="46.01804" lon="6.52023">
        <ele>1770.1999511719</ele>
        <time>2019-10-13T14:42:04.000Z</time>
      </trkpt>
      <trkpt lat="46.01802" lon="6.52022">
        <ele>1770</ele>
        <time>2019-10-13T14:42:06.000Z</time>
      </trkpt>
      <trkpt lat="46.01799" lon="6.52022">
        <ele>1769.5999755859</ele>
        <time>2019-10-13T14:42:09.000Z</time>
      </trkpt>
      <trkpt lat="46.01798" lon="6.5202">
        <ele>1769</ele>
        <time>2019-10-13T14:42:11.000Z</time>
      </trkpt>
      <trkpt lat="46.01798" lon="6.5202">
        <ele>1768.5999755859</ele>
        <time>2019-10-13T14:42:13.000Z</time>
      </trkpt>
      <trkpt lat="46.01797" lon="6.52022">
        <ele>1768.1999511719</ele>
        <time>2019-10-13T14:42:15.000Z</time>
      </trkpt>
      <trkpt lat="46.01796" lon="6.52023">
        <ele>1768</ele>
        <time>2019-10-13T14:42:18.000Z</time>
      </trkpt>
      <trkpt lat="46.01797" lon="6.52023">
        <ele>1767.5999755859</ele>
        <time>2019-10-13T14:42:20.000Z</time>
      </trkpt>
      <trkpt lat="46.01796" lon="6.52023">
        <ele>1766.4000244141</ele>
        <time>2019-10-13T14:42:23.000Z</time>
      </trkpt>
      <trkpt lat="46.01794" lon="6.52022">
        <ele>1766</ele>
        <time>2019-10-13T14:42:25.000Z</time>
      </trkpt>
      <trkpt lat="46.01793" lon="6.52023">
        <ele>1765.4000244141</ele>
        <time>2019-10-13T14:42:28.000Z</time>
      </trkpt>
      <trkpt lat="46.0179" lon="6.5202">
        <ele>1765</ele>
        <time>2019-10-13T14:42:32.000Z</time>
      </trkpt>
      <trkpt lat="46.01787" lon="6.52017">
        <ele>1764.1999511719</ele>
        <time>2019-10-13T14:42:36.000Z</time>
      </trkpt>
      <trkpt lat="46.01787" lon="6.52016">
        <ele>1763.5999755859</ele>
        <time>2019-10-13T14:42:40.000Z</time>
      </trkpt>
      <trkpt lat="46.01789" lon="6.52017">
        <ele>1762.8000488281</ele>
        <time>2019-10-13T14:42:42.000Z</time>
      </trkpt>
      <trkpt lat="46.01788" lon="6.52016">
        <ele>1761.8000488281</ele>
        <time>2019-10-13T14:42:45.000Z</time>
      </trkpt>
      <trkpt lat="46.01788" lon="6.52016">
        <ele>1761.5999755859</ele>
        <time>2019-10-13T14:42:46.000Z</time>
      </trkpt>
      <trkpt lat="46.01789" lon="6.52017">
        <ele>1760.5999755859</ele>
        <time>2019-10-13T14:42:50.000Z</time>
      </trkpt>
      <trkpt lat="46.01789" lon="6.52018">
        <ele>1760.1999511719</ele>
        <time>2019-10-13T14:42:52.000Z</time>
      </trkpt>
      <trkpt lat="46.01794" lon="6.52021">
        <ele>1759.5999755859</ele>
        <time>2019-10-13T14:42:57.000Z</time>
      </trkpt>
      <trkpt lat="46.01795" lon="6.52022">
        <ele>1759</ele>
        <time>2019-10-13T14:42:59.000Z</time>
      </trkpt>
      <trkpt lat="46.01794" lon="6.52022">
        <ele>1758.4000244141</ele>
        <time>2019-10-13T14:43:01.000Z</time>
      </trkpt>
      <trkpt lat="46.01793" lon="6.52025">
        <ele>1757</ele>
        <time>2019-10-13T14:43:05.000Z</time>
      </trkpt>
      <trkpt lat="46.01792" lon="6.52025">
        <ele>1756.5999755859</ele>
        <time>2019-10-13T14:43:06.000Z</time>
      </trkpt>
      <trkpt lat="46.01791" lon="6.52022">
        <ele>1756</ele>
        <time>2019-10-13T14:43:09.000Z</time>
      </trkpt>
      <trkpt lat="46.0179" lon="6.52019">
        <ele>1755.1999511719</ele>
        <time>2019-10-13T14:43:13.000Z</time>
      </trkpt>
      <trkpt lat="46.01789" lon="6.52018">
        <ele>1755</ele>
        <time>2019-10-13T14:43:14.000Z</time>
      </trkpt>
      <trkpt lat="46.01788" lon="6.52017">
        <ele>1754.8000488281</ele>
        <time>2019-10-13T14:43:15.000Z</time>
      </trkpt>
      <trkpt lat="46.01792" lon="6.52017">
        <ele>1755.1999511719</ele>
        <time>2019-10-13T14:43:23.000Z</time>
      </trkpt>
      <trkpt lat="46.01797" lon="6.52019">
        <ele>1755.1999511719</ele>
        <time>2019-10-13T14:43:27.000Z</time>
      </trkpt>
      <trkpt lat="46.01798" lon="6.52023">
        <ele>1755.1999511719</ele>
        <time>2019-10-13T14:43:31.000Z</time>
      </trkpt>
      <trkpt lat="46.01788" lon="6.52019">
        <ele>1754.5999755859</ele>
        <time>2019-10-13T14:43:40.000Z</time>
      </trkpt>
      <trkpt lat="46.0178" lon="6.5202">
        <ele>1754.1999511719</ele>
        <time>2019-10-13T14:43:45.000Z</time>
      </trkpt>
      <trkpt lat="46.01777" lon="6.5202">
        <ele>1754</ele>
        <time>2019-10-13T14:43:46.000Z</time>
      </trkpt>
      <trkpt lat="46.01774" lon="6.5202">
        <ele>1753.8000488281</ele>
        <time>2019-10-13T14:43:48.000Z</time>
      </trkpt>
      <trkpt lat="46.01772" lon="6.52021">
        <ele>1753.1999511719</ele>
        <time>2019-10-13T14:43:50.000Z</time>
      </trkpt>
      <trkpt lat="46.01771" lon="6.52021">
        <ele>1752.8000488281</ele>
        <time>2019-10-13T14:43:51.000Z</time>
      </trkpt>
      <trkpt lat="46.0177" lon="6.5202">
        <ele>1752.5999755859</ele>
        <time>2019-10-13T14:43:52.000Z</time>
      </trkpt>
      <trkpt lat="46.01765" lon="6.5202">
        <ele>1751.4000244141</ele>
        <time>2019-10-13T14:43:57.000Z</time>
      </trkpt>
      <trkpt lat="46.01764" lon="6.52019">
        <ele>1751</ele>
        <time>2019-10-13T14:43:58.000Z</time>
      </trkpt>
      <trkpt lat="46.01763" lon="6.52019">
        <ele>1750.5999755859</ele>
        <time>2019-10-13T14:43:59.000Z</time>
      </trkpt>
      <trkpt lat="46.01762" lon="6.52018">
        <ele>1750.1999511719</ele>
        <time>2019-10-13T14:44:00.000Z</time>
      </trkpt>
      <trkpt lat="46.0176" lon="6.52017">
        <ele>1749.8000488281</ele>
        <time>2019-10-13T14:44:01.000Z</time>
      </trkpt>
      <trkpt lat="46.01759" lon="6.52016">
        <ele>1749.4000244141</ele>
        <time>2019-10-13T14:44:02.000Z</time>
      </trkpt>
      <trkpt lat="46.01758" lon="6.52014">
        <ele>1749.1999511719</ele>
        <time>2019-10-13T14:44:03.000Z</time>
      </trkpt>
      <trkpt lat="46.01757" lon="6.52012">
        <ele>1748.8000488281</ele>
        <time>2019-10-13T14:44:04.000Z</time>
      </trkpt>
      <trkpt lat="46.01755" lon="6.52009">
        <ele>1748.4000244141</ele>
        <time>2019-10-13T14:44:06.000Z</time>
      </trkpt>
      <trkpt lat="46.01754" lon="6.52008">
        <ele>1748.1999511719</ele>
        <time>2019-10-13T14:44:07.000Z</time>
      </trkpt>
      <trkpt lat="46.01752" lon="6.52007">
        <ele>1747.8000488281</ele>
        <time>2019-10-13T14:44:09.000Z</time>
      </trkpt>
      <trkpt lat="46.01752" lon="6.52005">
        <ele>1747.8000488281</ele>
        <time>2019-10-13T14:44:10.000Z</time>
      </trkpt>
      <trkpt lat="46.01748" lon="6.52">
        <ele>1747.5999755859</ele>
        <time>2019-10-13T14:44:14.000Z</time>
      </trkpt>
      <trkpt lat="46.01746" lon="6.51997">
        <ele>1747.4000244141</ele>
        <time>2019-10-13T14:44:16.000Z</time>
      </trkpt>
      <trkpt lat="46.01746" lon="6.51996">
        <ele>1747.4000244141</ele>
        <time>2019-10-13T14:44:17.000Z</time>
      </trkpt>
      <trkpt lat="46.01745" lon="6.51994">
        <ele>1747.1999511719</ele>
        <time>2019-10-13T14:44:19.000Z</time>
      </trkpt>
      <trkpt lat="46.01743" lon="6.51991">
        <ele>1746.8000488281</ele>
        <time>2019-10-13T14:44:22.000Z</time>
      </trkpt>
      <trkpt lat="46.01742" lon="6.51989">
        <ele>1746.1999511719</ele>
        <time>2019-10-13T14:44:24.000Z</time>
      </trkpt>
      <trkpt lat="46.01742" lon="6.51988">
        <ele>1745.5999755859</ele>
        <time>2019-10-13T14:44:28.000Z</time>
      </trkpt>
      <trkpt lat="46.01742" lon="6.51988">
        <ele>1745.4000244141</ele>
        <time>2019-10-13T14:44:29.000Z</time>
      </trkpt>
      <trkpt lat="46.01742" lon="6.51987">
        <ele>1745.1999511719</ele>
        <time>2019-10-13T14:44:30.000Z</time>
      </trkpt>
      <trkpt lat="46.01738" lon="6.51985">
        <ele>1745.1999511719</ele>
        <time>2019-10-13T14:44:33.000Z</time>
      </trkpt>
      <trkpt lat="46.01736" lon="6.51984">
        <ele>1745.1999511719</ele>
        <time>2019-10-13T14:44:34.000Z</time>
      </trkpt>
      <trkpt lat="46.01735" lon="6.51985">
        <ele>1745.1999511719</ele>
        <time>2019-10-13T14:44:35.000Z</time>
      </trkpt>
      <trkpt lat="46.01734" lon="6.51985">
        <ele>1745.1999511719</ele>
        <time>2019-10-13T14:44:36.000Z</time>
      </trkpt>
      <trkpt lat="46.01732" lon="6.51986">
        <ele>1745.4000244141</ele>
        <time>2019-10-13T14:44:39.000Z</time>
      </trkpt>
      <trkpt lat="46.01732" lon="6.51984">
        <ele>1745.4000244141</ele>
        <time>2019-10-13T14:44:40.000Z</time>
      </trkpt>
      <trkpt lat="46.0173" lon="6.51982">
        <ele>1745.4000244141</ele>
        <time>2019-10-13T14:44:42.000Z</time>
      </trkpt>
      <trkpt lat="46.01727" lon="6.51981">
        <ele>1745</ele>
        <time>2019-10-13T14:44:46.000Z</time>
      </trkpt>
      <trkpt lat="46.01726" lon="6.51981">
        <ele>1744.8000488281</ele>
        <time>2019-10-13T14:44:48.000Z</time>
      </trkpt>
      <trkpt lat="46.01725" lon="6.5198">
        <ele>1744.8000488281</ele>
        <time>2019-10-13T14:44:52.000Z</time>
      </trkpt>
      <trkpt lat="46.01725" lon="6.5198">
        <ele>1744.5999755859</ele>
        <time>2019-10-13T14:44:53.000Z</time>
      </trkpt>
      <trkpt lat="46.01725" lon="6.5198">
        <ele>1744.5999755859</ele>
        <time>2019-10-13T14:44:54.000Z</time>
      </trkpt>
      <trkpt lat="46.01725" lon="6.5198">
        <ele>1744.5999755859</ele>
        <time>2019-10-13T14:44:55.000Z</time>
      </trkpt>
      <trkpt lat="46.01726" lon="6.5198">
        <ele>1744.5999755859</ele>
        <time>2019-10-13T14:44:59.000Z</time>
      </trkpt>
      <trkpt lat="46.01725" lon="6.51982">
        <ele>1744.5999755859</ele>
        <time>2019-10-13T14:45:03.000Z</time>
      </trkpt>
      <trkpt lat="46.01728" lon="6.51984">
        <ele>1744.8000488281</ele>
        <time>2019-10-13T14:45:07.000Z</time>
      </trkpt>
      <trkpt lat="46.01729" lon="6.51985">
        <ele>1744.8000488281</ele>
        <time>2019-10-13T14:45:09.000Z</time>
      </trkpt>
      <trkpt lat="46.01729" lon="6.51985">
        <ele>1744.8000488281</ele>
        <time>2019-10-13T14:45:10.000Z</time>
      </trkpt>
      <trkpt lat="46.01731" lon="6.51982">
        <ele>1744.4000244141</ele>
        <time>2019-10-13T14:45:13.000Z</time>
      </trkpt>
      <trkpt lat="46.01729" lon="6.51981">
        <ele>1744.4000244141</ele>
        <time>2019-10-13T14:45:15.000Z</time>
      </trkpt>
      <trkpt lat="46.01726" lon="6.51975">
        <ele>1744.4000244141</ele>
        <time>2019-10-13T14:45:18.000Z</time>
      </trkpt>
      <trkpt lat="46.01725" lon="6.51971">
        <ele>1744.5999755859</ele>
        <time>2019-10-13T14:45:21.000Z</time>
      </trkpt>
      <trkpt lat="46.01724" lon="6.51968">
        <ele>1744.8000488281</ele>
        <time>2019-10-13T14:45:23.000Z</time>
      </trkpt>
      <trkpt lat="46.01722" lon="6.51964">
        <ele>1744.5999755859</ele>
        <time>2019-10-13T14:45:26.000Z</time>
      </trkpt>
      <trkpt lat="46.0172" lon="6.5196">
        <ele>1744.5999755859</ele>
        <time>2019-10-13T14:45:28.000Z</time>
      </trkpt>
      <trkpt lat="46.0172" lon="6.51958">
        <ele>1744.4000244141</ele>
        <time>2019-10-13T14:45:29.000Z</time>
      </trkpt>
      <trkpt lat="46.01719" lon="6.51956">
        <ele>1744.4000244141</ele>
        <time>2019-10-13T14:45:30.000Z</time>
      </trkpt>
      <trkpt lat="46.01718" lon="6.51953">
        <ele>1743.4000244141</ele>
        <time>2019-10-13T14:45:33.000Z</time>
      </trkpt>
      <trkpt lat="46.01717" lon="6.51952">
        <ele>1743</ele>
        <time>2019-10-13T14:45:35.000Z</time>
      </trkpt>
      <trkpt lat="46.01717" lon="6.51951">
        <ele>1742.8000488281</ele>
        <time>2019-10-13T14:45:36.000Z</time>
      </trkpt>
      <trkpt lat="46.01716" lon="6.51946">
        <ele>1742.5999755859</ele>
        <time>2019-10-13T14:45:40.000Z</time>
      </trkpt>
      <trkpt lat="46.01716" lon="6.51944">
        <ele>1742.5999755859</ele>
        <time>2019-10-13T14:45:41.000Z</time>
      </trkpt>
      <trkpt lat="46.01715" lon="6.51943">
        <ele>1742.5999755859</ele>
        <time>2019-10-13T14:45:42.000Z</time>
      </trkpt>
      <trkpt lat="46.01715" lon="6.5194">
        <ele>1742</ele>
        <time>2019-10-13T14:45:45.000Z</time>
      </trkpt>
      <trkpt lat="46.01715" lon="6.51939">
        <ele>1741.8000488281</ele>
        <time>2019-10-13T14:45:46.000Z</time>
      </trkpt>
      <trkpt lat="46.01714" lon="6.51937">
        <ele>1741.8000488281</ele>
        <time>2019-10-13T14:45:47.000Z</time>
      </trkpt>
      <trkpt lat="46.01714" lon="6.51936">
        <ele>1741.8000488281</ele>
        <time>2019-10-13T14:45:48.000Z</time>
      </trkpt>
      <trkpt lat="46.01714" lon="6.51934">
        <ele>1741.8000488281</ele>
        <time>2019-10-13T14:45:49.000Z</time>
      </trkpt>
      <trkpt lat="46.01714" lon="6.51933">
        <ele>1741.8000488281</ele>
        <time>2019-10-13T14:45:50.000Z</time>
      </trkpt>
      <trkpt lat="46.01713" lon="6.51933">
        <ele>1741.8000488281</ele>
        <time>2019-10-13T14:45:51.000Z</time>
      </trkpt>
      <trkpt lat="46.01713" lon="6.51933">
        <ele>1741.8000488281</ele>
        <time>2019-10-13T14:45:52.000Z</time>
      </trkpt>
      <trkpt lat="46.01713" lon="6.51933">
        <ele>1741.8000488281</ele>
        <time>2019-10-13T14:45:53.000Z</time>
      </trkpt>
      <trkpt lat="46.01711" lon="6.51932">
        <ele>1741.4000244141</ele>
        <time>2019-10-13T14:45:55.000Z</time>
      </trkpt>
      <trkpt lat="46.01711" lon="6.51931">
        <ele>1741</ele>
        <time>2019-10-13T14:45:56.000Z</time>
      </trkpt>
      <trkpt lat="46.0171" lon="6.51932">
        <ele>1740.5999755859</ele>
        <time>2019-10-13T14:45:58.000Z</time>
      </trkpt>
      <trkpt lat="46.01709" lon="6.51932">
        <ele>1740.5999755859</ele>
        <time>2019-10-13T14:45:59.000Z</time>
      </trkpt>
      <trkpt lat="46.01709" lon="6.51931">
        <ele>1739.8000488281</ele>
        <time>2019-10-13T14:46:02.000Z</time>
      </trkpt>
      <trkpt lat="46.0171" lon="6.51932">
        <ele>1739.5999755859</ele>
        <time>2019-10-13T14:46:04.000Z</time>
      </trkpt>
      <trkpt lat="46.0171" lon="6.51932">
        <ele>1739.4000244141</ele>
        <time>2019-10-13T14:46:05.000Z</time>
      </trkpt>
      <trkpt lat="46.0171" lon="6.51933">
        <ele>1738.8000488281</ele>
        <time>2019-10-13T14:46:10.000Z</time>
      </trkpt>
      <trkpt lat="46.0171" lon="6.51933">
        <ele>1738.5999755859</ele>
        <time>2019-10-13T14:46:11.000Z</time>
      </trkpt>
      <trkpt lat="46.0171" lon="6.51933">
        <ele>1738.5999755859</ele>
        <time>2019-10-13T14:46:12.000Z</time>
      </trkpt>
      <trkpt lat="46.01705" lon="6.51927">
        <ele>1737.8000488281</ele>
        <time>2019-10-13T14:46:18.000Z</time>
      </trkpt>
      <trkpt lat="46.01704" lon="6.51927">
        <ele>1737.5999755859</ele>
        <time>2019-10-13T14:46:19.000Z</time>
      </trkpt>
      <trkpt lat="46.017" lon="6.51925">
        <ele>1736.8000488281</ele>
        <time>2019-10-13T14:46:23.000Z</time>
      </trkpt>
      <trkpt lat="46.017" lon="6.51924">
        <ele>1736.1999511719</ele>
        <time>2019-10-13T14:46:24.000Z</time>
      </trkpt>
      <trkpt lat="46.01695" lon="6.51918">
        <ele>1735</ele>
        <time>2019-10-13T14:46:28.000Z</time>
      </trkpt>
      <trkpt lat="46.01694" lon="6.51918">
        <ele>1734.8000488281</ele>
        <time>2019-10-13T14:46:29.000Z</time>
      </trkpt>
      <trkpt lat="46.01693" lon="6.51917">
        <ele>1734.1999511719</ele>
        <time>2019-10-13T14:46:30.000Z</time>
      </trkpt>
      <trkpt lat="46.01692" lon="6.51917">
        <ele>1733.5999755859</ele>
        <time>2019-10-13T14:46:31.000Z</time>
      </trkpt>
      <trkpt lat="46.01688" lon="6.51916">
        <ele>1733</ele>
        <time>2019-10-13T14:46:34.000Z</time>
      </trkpt>
      <trkpt lat="46.01687" lon="6.51915">
        <ele>1733</ele>
        <time>2019-10-13T14:46:35.000Z</time>
      </trkpt>
      <trkpt lat="46.01683" lon="6.51914">
        <ele>1732.5999755859</ele>
        <time>2019-10-13T14:46:40.000Z</time>
      </trkpt>
      <trkpt lat="46.01683" lon="6.51914">
        <ele>1732</ele>
        <time>2019-10-13T14:46:41.000Z</time>
      </trkpt>
      <trkpt lat="46.01683" lon="6.51914">
        <ele>1731.1999511719</ele>
        <time>2019-10-13T14:46:42.000Z</time>
      </trkpt>
      <trkpt lat="46.01682" lon="6.51913">
        <ele>1730.1999511719</ele>
        <time>2019-10-13T14:46:45.000Z</time>
      </trkpt>
      <trkpt lat="46.01683" lon="6.51913">
        <ele>1730.1999511719</ele>
        <time>2019-10-13T14:46:46.000Z</time>
      </trkpt>
      <trkpt lat="46.01681" lon="6.5191">
        <ele>1729.4000244141</ele>
        <time>2019-10-13T14:46:56.000Z</time>
      </trkpt>
      <trkpt lat="46.01681" lon="6.51904">
        <ele>1729.1999511719</ele>
        <time>2019-10-13T14:47:00.000Z</time>
      </trkpt>
      <trkpt lat="46.01681" lon="6.51904">
        <ele>1729</ele>
        <time>2019-10-13T14:47:01.000Z</time>
      </trkpt>
      <trkpt lat="46.01681" lon="6.51905">
        <ele>1728.1999511719</ele>
        <time>2019-10-13T14:47:07.000Z</time>
      </trkpt>
      <trkpt lat="46.0168" lon="6.51904">
        <ele>1728.1999511719</ele>
        <time>2019-10-13T14:47:11.000Z</time>
      </trkpt>
      <trkpt lat="46.01681" lon="6.51903">
        <ele>1728</ele>
        <time>2019-10-13T14:47:19.000Z</time>
      </trkpt>
      <trkpt lat="46.01682" lon="6.519">
        <ele>1728</ele>
        <time>2019-10-13T14:47:24.000Z</time>
      </trkpt>
      <trkpt lat="46.01682" lon="6.51901">
        <ele>1727.8000488281</ele>
        <time>2019-10-13T14:47:27.000Z</time>
      </trkpt>
      <trkpt lat="46.01684" lon="6.51902">
        <ele>1728.4000244141</ele>
        <time>2019-10-13T14:47:33.000Z</time>
      </trkpt>
      <trkpt lat="46.01681" lon="6.519">
        <ele>1728.4000244141</ele>
        <time>2019-10-13T14:47:37.000Z</time>
      </trkpt>
      <trkpt lat="46.01677" lon="6.51897">
        <ele>1728</ele>
        <time>2019-10-13T14:47:40.000Z</time>
      </trkpt>
      <trkpt lat="46.01676" lon="6.51896">
        <ele>1727.8000488281</ele>
        <time>2019-10-13T14:47:41.000Z</time>
      </trkpt>
      <trkpt lat="46.01673" lon="6.51892">
        <ele>1727</ele>
        <time>2019-10-13T14:47:44.000Z</time>
      </trkpt>
      <trkpt lat="46.01672" lon="6.5189">
        <ele>1727</ele>
        <time>2019-10-13T14:47:45.000Z</time>
      </trkpt>
      <trkpt lat="46.0167" lon="6.51888">
        <ele>1726.5999755859</ele>
        <time>2019-10-13T14:47:47.000Z</time>
      </trkpt>
      <trkpt lat="46.0167" lon="6.51886">
        <ele>1725.8000488281</ele>
        <time>2019-10-13T14:47:49.000Z</time>
      </trkpt>
      <trkpt lat="46.01668" lon="6.51882">
        <ele>1724.8000488281</ele>
        <time>2019-10-13T14:47:53.000Z</time>
      </trkpt>
      <trkpt lat="46.01668" lon="6.51882">
        <ele>1724.5999755859</ele>
        <time>2019-10-13T14:47:54.000Z</time>
      </trkpt>
      <trkpt lat="46.01667" lon="6.51881">
        <ele>1724.4000244141</ele>
        <time>2019-10-13T14:47:55.000Z</time>
      </trkpt>
      <trkpt lat="46.01667" lon="6.51881">
        <ele>1724</ele>
        <time>2019-10-13T14:47:56.000Z</time>
      </trkpt>
      <trkpt lat="46.01666" lon="6.51881">
        <ele>1723.5999755859</ele>
        <time>2019-10-13T14:47:57.000Z</time>
      </trkpt>
      <trkpt lat="46.01665" lon="6.51881">
        <ele>1723.4000244141</ele>
        <time>2019-10-13T14:47:58.000Z</time>
      </trkpt>
      <trkpt lat="46.01664" lon="6.5188">
        <ele>1723.4000244141</ele>
        <time>2019-10-13T14:47:59.000Z</time>
      </trkpt>
      <trkpt lat="46.01662" lon="6.5188">
        <ele>1723</ele>
        <time>2019-10-13T14:48:00.000Z</time>
      </trkpt>
      <trkpt lat="46.01661" lon="6.51879">
        <ele>1723</ele>
        <time>2019-10-13T14:48:01.000Z</time>
      </trkpt>
      <trkpt lat="46.01658" lon="6.51875">
        <ele>1722.5999755859</ele>
        <time>2019-10-13T14:48:04.000Z</time>
      </trkpt>
      <trkpt lat="46.01655" lon="6.51873">
        <ele>1721.8000488281</ele>
        <time>2019-10-13T14:48:06.000Z</time>
      </trkpt>
      <trkpt lat="46.01654" lon="6.51873">
        <ele>1721.4000244141</ele>
        <time>2019-10-13T14:48:07.000Z</time>
      </trkpt>
      <trkpt lat="46.01653" lon="6.51872">
        <ele>1721</ele>
        <time>2019-10-13T14:48:08.000Z</time>
      </trkpt>
      <trkpt lat="46.01651" lon="6.51871">
        <ele>1720.5999755859</ele>
        <time>2019-10-13T14:48:10.000Z</time>
      </trkpt>
      <trkpt lat="46.01651" lon="6.51872">
        <ele>1720.1999511719</ele>
        <time>2019-10-13T14:48:11.000Z</time>
      </trkpt>
      <trkpt lat="46.01652" lon="6.51875">
        <ele>1718.8000488281</ele>
        <time>2019-10-13T14:48:14.000Z</time>
      </trkpt>
      <trkpt lat="46.01653" lon="6.51881">
        <ele>1717.8000488281</ele>
        <time>2019-10-13T14:48:17.000Z</time>
      </trkpt>
      <trkpt lat="46.01653" lon="6.51883">
        <ele>1717.5999755859</ele>
        <time>2019-10-13T14:48:18.000Z</time>
      </trkpt>
      <trkpt lat="46.01652" lon="6.51886">
        <ele>1717</ele>
        <time>2019-10-13T14:48:21.000Z</time>
      </trkpt>
      <trkpt lat="46.01652" lon="6.51887">
        <ele>1716.5999755859</ele>
        <time>2019-10-13T14:48:22.000Z</time>
      </trkpt>
      <trkpt lat="46.01649" lon="6.5189">
        <ele>1715.8000488281</ele>
        <time>2019-10-13T14:48:26.000Z</time>
      </trkpt>
      <trkpt lat="46.01647" lon="6.51891">
        <ele>1715.5999755859</ele>
        <time>2019-10-13T14:48:28.000Z</time>
      </trkpt>
      <trkpt lat="46.01644" lon="6.51895">
        <ele>1715</ele>
        <time>2019-10-13T14:48:31.000Z</time>
      </trkpt>
      <trkpt lat="46.01643" lon="6.51895">
        <ele>1714.5999755859</ele>
        <time>2019-10-13T14:48:32.000Z</time>
      </trkpt>
      <trkpt lat="46.01641" lon="6.51895">
        <ele>1714</ele>
        <time>2019-10-13T14:48:33.000Z</time>
      </trkpt>
      <trkpt lat="46.01636" lon="6.51895">
        <ele>1712.8000488281</ele>
        <time>2019-10-13T14:48:36.000Z</time>
      </trkpt>
      <trkpt lat="46.01632" lon="6.51894">
        <ele>1712.4000244141</ele>
        <time>2019-10-13T14:48:38.000Z</time>
      </trkpt>
      <trkpt lat="46.01631" lon="6.51892">
        <ele>1712.4000244141</ele>
        <time>2019-10-13T14:48:39.000Z</time>
      </trkpt>
      <trkpt lat="46.01626" lon="6.51887">
        <ele>1711.4000244141</ele>
        <time>2019-10-13T14:48:42.000Z</time>
      </trkpt>
      <trkpt lat="46.01626" lon="6.51886">
        <ele>1711</ele>
        <time>2019-10-13T14:48:43.000Z</time>
      </trkpt>
      <trkpt lat="46.01624" lon="6.51882">
        <ele>1709.8000488281</ele>
        <time>2019-10-13T14:48:45.000Z</time>
      </trkpt>
      <trkpt lat="46.01623" lon="6.51881">
        <ele>1709.4000244141</ele>
        <time>2019-10-13T14:48:46.000Z</time>
      </trkpt>
      <trkpt lat="46.01622" lon="6.5188">
        <ele>1708.8000488281</ele>
        <time>2019-10-13T14:48:48.000Z</time>
      </trkpt>
      <trkpt lat="46.01623" lon="6.51879">
        <ele>1708.4000244141</ele>
        <time>2019-10-13T14:48:52.000Z</time>
      </trkpt>
      <trkpt lat="46.01624" lon="6.51881">
        <ele>1708</ele>
        <time>2019-10-13T14:48:54.000Z</time>
      </trkpt>
      <trkpt lat="46.01623" lon="6.5188">
        <ele>1707.5999755859</ele>
        <time>2019-10-13T14:48:55.000Z</time>
      </trkpt>
      <trkpt lat="46.01621" lon="6.51879">
        <ele>1707.1999511719</ele>
        <time>2019-10-13T14:48:57.000Z</time>
      </trkpt>
      <trkpt lat="46.01621" lon="6.51879">
        <ele>1707.1999511719</ele>
        <time>2019-10-13T14:48:58.000Z</time>
      </trkpt>
      <trkpt lat="46.0162" lon="6.51879">
        <ele>1707</ele>
        <time>2019-10-13T14:49:00.000Z</time>
      </trkpt>
      <trkpt lat="46.01622" lon="6.51878">
        <ele>1706.5999755859</ele>
        <time>2019-10-13T14:49:01.000Z</time>
      </trkpt>
      <trkpt lat="46.01626" lon="6.51878">
        <ele>1705.5999755859</ele>
        <time>2019-10-13T14:49:05.000Z</time>
      </trkpt>
      <trkpt lat="46.01627" lon="6.51879">
        <ele>1705.4000244141</ele>
        <time>2019-10-13T14:49:06.000Z</time>
      </trkpt>
      <trkpt lat="46.01628" lon="6.51881">
        <ele>1705.1999511719</ele>
        <time>2019-10-13T14:49:07.000Z</time>
      </trkpt>
      <trkpt lat="46.01629" lon="6.51885">
        <ele>1704.4000244141</ele>
        <time>2019-10-13T14:49:10.000Z</time>
      </trkpt>
      <trkpt lat="46.01629" lon="6.51886">
        <ele>1703.8000488281</ele>
        <time>2019-10-13T14:49:11.000Z</time>
      </trkpt>
      <trkpt lat="46.0163" lon="6.51888">
        <ele>1703.4000244141</ele>
        <time>2019-10-13T14:49:13.000Z</time>
      </trkpt>
      <trkpt lat="46.0163" lon="6.51891">
        <ele>1703.1999511719</ele>
        <time>2019-10-13T14:49:15.000Z</time>
      </trkpt>
      <trkpt lat="46.0163" lon="6.51894">
        <ele>1703</ele>
        <time>2019-10-13T14:49:17.000Z</time>
      </trkpt>
      <trkpt lat="46.0163" lon="6.51896">
        <ele>1702.8000488281</ele>
        <time>2019-10-13T14:49:18.000Z</time>
      </trkpt>
      <trkpt lat="46.01629" lon="6.51901">
        <ele>1702</ele>
        <time>2019-10-13T14:49:21.000Z</time>
      </trkpt>
      <trkpt lat="46.01629" lon="6.51902">
        <ele>1701.8000488281</ele>
        <time>2019-10-13T14:49:22.000Z</time>
      </trkpt>
      <trkpt lat="46.01629" lon="6.51904">
        <ele>1701.5999755859</ele>
        <time>2019-10-13T14:49:23.000Z</time>
      </trkpt>
      <trkpt lat="46.01628" lon="6.51908">
        <ele>1700.5999755859</ele>
        <time>2019-10-13T14:49:26.000Z</time>
      </trkpt>
      <trkpt lat="46.01628" lon="6.51909">
        <ele>1700.1999511719</ele>
        <time>2019-10-13T14:49:27.000Z</time>
      </trkpt>
      <trkpt lat="46.01628" lon="6.51913">
        <ele>1699.4000244141</ele>
        <time>2019-10-13T14:49:30.000Z</time>
      </trkpt>
      <trkpt lat="46.01628" lon="6.51913">
        <ele>1699.4000244141</ele>
        <time>2019-10-13T14:49:31.000Z</time>
      </trkpt>
      <trkpt lat="46.01628" lon="6.51913">
        <ele>1699.1999511719</ele>
        <time>2019-10-13T14:49:32.000Z</time>
      </trkpt>
      <trkpt lat="46.01626" lon="6.51913">
        <ele>1699</ele>
        <time>2019-10-13T14:49:42.000Z</time>
      </trkpt>
      <trkpt lat="46.01626" lon="6.5191">
        <ele>1699.1999511719</ele>
        <time>2019-10-13T14:49:47.000Z</time>
      </trkpt>
      <trkpt lat="46.01626" lon="6.5191">
        <ele>1699.1999511719</ele>
        <time>2019-10-13T14:49:48.000Z</time>
      </trkpt>
      <trkpt lat="46.01626" lon="6.5191">
        <ele>1698.4000244141</ele>
        <time>2019-10-13T14:49:56.000Z</time>
      </trkpt>
      <trkpt lat="46.01627" lon="6.51912">
        <ele>1698.4000244141</ele>
        <time>2019-10-13T14:49:58.000Z</time>
      </trkpt>
      <trkpt lat="46.01628" lon="6.51913">
        <ele>1698.4000244141</ele>
        <time>2019-10-13T14:50:02.000Z</time>
      </trkpt>
      <trkpt lat="46.01633" lon="6.51915">
        <ele>1698.4000244141</ele>
        <time>2019-10-13T14:50:08.000Z</time>
      </trkpt>
      <trkpt lat="46.01631" lon="6.51913">
        <ele>1698.5999755859</ele>
        <time>2019-10-13T14:50:13.000Z</time>
      </trkpt>
      <trkpt lat="46.01628" lon="6.51915">
        <ele>1698.5999755859</ele>
        <time>2019-10-13T14:50:19.000Z</time>
      </trkpt>
      <trkpt lat="46.0163" lon="6.51912">
        <ele>1698.5999755859</ele>
        <time>2019-10-13T14:50:26.000Z</time>
      </trkpt>
      <trkpt lat="46.01631" lon="6.51911">
        <ele>1698.5999755859</ele>
        <time>2019-10-13T14:50:27.000Z</time>
      </trkpt>
      <trkpt lat="46.01633" lon="6.51909">
        <ele>1698.5999755859</ele>
        <time>2019-10-13T14:50:30.000Z</time>
      </trkpt>
      <trkpt lat="46.01636" lon="6.51912">
        <ele>1685.1999511719</ele>
        <time>2019-10-13T14:50:36.000Z</time>
      </trkpt>
      <trkpt lat="46.01635" lon="6.51913">
        <ele>1691.5999755859</ele>
        <time>2019-10-13T14:50:37.000Z</time>
      </trkpt>
      <trkpt lat="46.01633" lon="6.51913">
        <ele>1694.5999755859</ele>
        <time>2019-10-13T14:50:38.000Z</time>
      </trkpt>
      <trkpt lat="46.01632" lon="6.51914">
        <ele>1696.1999511719</ele>
        <time>2019-10-13T14:50:39.000Z</time>
      </trkpt>
      <trkpt lat="46.01631" lon="6.51917">
        <ele>1697.4000244141</ele>
        <time>2019-10-13T14:50:41.000Z</time>
      </trkpt>
      <trkpt lat="46.01628" lon="6.5191">
        <ele>1697.8000488281</ele>
        <time>2019-10-13T14:50:46.000Z</time>
      </trkpt>
      <trkpt lat="46.01628" lon="6.51908">
        <ele>1697.8000488281</ele>
        <time>2019-10-13T14:50:48.000Z</time>
      </trkpt>
      <trkpt lat="46.01629" lon="6.51908">
        <ele>1697.8000488281</ele>
        <time>2019-10-13T14:50:51.000Z</time>
      </trkpt>
      <trkpt lat="46.0163" lon="6.51914">
        <ele>1697.8000488281</ele>
        <time>2019-10-13T14:51:02.000Z</time>
      </trkpt>
      <trkpt lat="46.01628" lon="6.51917">
        <ele>1697.8000488281</ele>
        <time>2019-10-13T14:51:13.000Z</time>
      </trkpt>
      <trkpt lat="46.01627" lon="6.51914">
        <ele>1697.8000488281</ele>
        <time>2019-10-13T14:51:23.000Z</time>
      </trkpt>
      <trkpt lat="46.01626" lon="6.51917">
        <ele>1697.8000488281</ele>
        <time>2019-10-13T14:51:26.000Z</time>
      </trkpt>
      <trkpt lat="46.01628" lon="6.51913">
        <ele>1697.8000488281</ele>
        <time>2019-10-13T14:51:31.000Z</time>
      </trkpt>
      <trkpt lat="46.01629" lon="6.51914">
        <ele>1697.8000488281</ele>
        <time>2019-10-13T14:51:33.000Z</time>
      </trkpt>
      <trkpt lat="46.01629" lon="6.51916">
        <ele>1697.8000488281</ele>
        <time>2019-10-13T14:51:36.000Z</time>
      </trkpt>
      <trkpt lat="46.01629" lon="6.51917">
        <ele>1697.8000488281</ele>
        <time>2019-10-13T14:51:38.000Z</time>
      </trkpt>
      <trkpt lat="46.01631" lon="6.51919">
        <ele>1697.8000488281</ele>
        <time>2019-10-13T14:51:44.000Z</time>
      </trkpt>
      <trkpt lat="46.01627" lon="6.5192">
        <ele>1697.8000488281</ele>
        <time>2019-10-13T14:51:48.000Z</time>
      </trkpt>
      <trkpt lat="46.01625" lon="6.51917">
        <ele>1697.8000488281</ele>
        <time>2019-10-13T14:51:53.000Z</time>
      </trkpt>
      <trkpt lat="46.01625" lon="6.51914">
        <ele>1697.8000488281</ele>
        <time>2019-10-13T14:51:55.000Z</time>
      </trkpt>
      <trkpt lat="46.01625" lon="6.51914">
        <ele>1697.8000488281</ele>
        <time>2019-10-13T14:51:56.000Z</time>
      </trkpt>
      <trkpt lat="46.01624" lon="6.51913">
        <ele>1697.8000488281</ele>
        <time>2019-10-13T14:51:59.000Z</time>
      </trkpt>
      <trkpt lat="46.01619" lon="6.51918">
        <ele>1697.8000488281</ele>
        <time>2019-10-13T14:52:10.000Z</time>
      </trkpt>
      <trkpt lat="46.01618" lon="6.51917">
        <ele>1697.8000488281</ele>
        <time>2019-10-13T14:52:12.000Z</time>
      </trkpt>
      <trkpt lat="46.01616" lon="6.51917">
        <ele>1697.8000488281</ele>
        <time>2019-10-13T14:52:16.000Z</time>
      </trkpt>
      <trkpt lat="46.01615" lon="6.51917">
        <ele>1697.8000488281</ele>
        <time>2019-10-13T14:52:17.000Z</time>
      </trkpt>
      <trkpt lat="46.01613" lon="6.51917">
        <ele>1697.8000488281</ele>
        <time>2019-10-13T14:52:19.000Z</time>
      </trkpt>
      <trkpt lat="46.01607" lon="6.51916">
        <ele>1696.1999511719</ele>
        <time>2019-10-13T14:52:23.000Z</time>
      </trkpt>
      <trkpt lat="46.01606" lon="6.51916">
        <ele>1695</ele>
        <time>2019-10-13T14:52:24.000Z</time>
      </trkpt>
      <trkpt lat="46.01603" lon="6.51915">
        <ele>1693.4000244141</ele>
        <time>2019-10-13T14:52:26.000Z</time>
      </trkpt>
      <trkpt lat="46.016" lon="6.51915">
        <ele>1692.4000244141</ele>
        <time>2019-10-13T14:52:28.000Z</time>
      </trkpt>
      <trkpt lat="46.016" lon="6.51916">
        <ele>1692</ele>
        <time>2019-10-13T14:52:29.000Z</time>
      </trkpt>
      <trkpt lat="46.016" lon="6.51917">
        <ele>1691.5999755859</ele>
        <time>2019-10-13T14:52:30.000Z</time>
      </trkpt>
      <trkpt lat="46.01601" lon="6.51918">
        <ele>1691.1999511719</ele>
        <time>2019-10-13T14:52:31.000Z</time>
      </trkpt>
      <trkpt lat="46.01601" lon="6.51919">
        <ele>1690.8000488281</ele>
        <time>2019-10-13T14:52:33.000Z</time>
      </trkpt>
      <trkpt lat="46.01602" lon="6.51919">
        <ele>1690.8000488281</ele>
        <time>2019-10-13T14:52:34.000Z</time>
      </trkpt>
      <trkpt lat="46.01602" lon="6.51919">
        <ele>1690.8000488281</ele>
        <time>2019-10-13T14:52:35.000Z</time>
      </trkpt>
      <trkpt lat="46.01602" lon="6.5192">
        <ele>1690.5999755859</ele>
        <time>2019-10-13T14:52:36.000Z</time>
      </trkpt>
      <trkpt lat="46.01602" lon="6.51922">
        <ele>1690.4000244141</ele>
        <time>2019-10-13T14:52:37.000Z</time>
      </trkpt>
      <trkpt lat="46.01602" lon="6.51923">
        <ele>1690.1999511719</ele>
        <time>2019-10-13T14:52:38.000Z</time>
      </trkpt>
      <trkpt lat="46.01602" lon="6.51924">
        <ele>1690</ele>
        <time>2019-10-13T14:52:39.000Z</time>
      </trkpt>
      <trkpt lat="46.01603" lon="6.51926">
        <ele>1689.5999755859</ele>
        <time>2019-10-13T14:52:40.000Z</time>
      </trkpt>
      <trkpt lat="46.01603" lon="6.51927">
        <ele>1689.1999511719</ele>
        <time>2019-10-13T14:52:41.000Z</time>
      </trkpt>
      <trkpt lat="46.01603" lon="6.51928">
        <ele>1689</ele>
        <time>2019-10-13T14:52:42.000Z</time>
      </trkpt>
      <trkpt lat="46.01604" lon="6.51929">
        <ele>1688.8000488281</ele>
        <time>2019-10-13T14:52:43.000Z</time>
      </trkpt>
      <trkpt lat="46.01605" lon="6.51931">
        <ele>1688.4000244141</ele>
        <time>2019-10-13T14:52:45.000Z</time>
      </trkpt>
      <trkpt lat="46.01604" lon="6.51931">
        <ele>1688.1999511719</ele>
        <time>2019-10-13T14:52:46.000Z</time>
      </trkpt>
      <trkpt lat="46.01604" lon="6.51937">
        <ele>1687.8000488281</ele>
        <time>2019-10-13T14:52:50.000Z</time>
      </trkpt>
      <trkpt lat="46.01603" lon="6.51938">
        <ele>1687.5999755859</ele>
        <time>2019-10-13T14:52:51.000Z</time>
      </trkpt>
      <trkpt lat="46.01603" lon="6.51945">
        <ele>1687.1999511719</ele>
        <time>2019-10-13T14:52:54.000Z</time>
      </trkpt>
      <trkpt lat="46.016" lon="6.51952">
        <ele>1686.1999511719</ele>
        <time>2019-10-13T14:52:57.000Z</time>
      </trkpt>
      <trkpt lat="46.01596" lon="6.51954">
        <ele>1685.1999511719</ele>
        <time>2019-10-13T14:53:00.000Z</time>
      </trkpt>
      <trkpt lat="46.01593" lon="6.51959">
        <ele>1684.1999511719</ele>
        <time>2019-10-13T14:53:05.000Z</time>
      </trkpt>
      <trkpt lat="46.01593" lon="6.5196">
        <ele>1684</ele>
        <time>2019-10-13T14:53:06.000Z</time>
      </trkpt>
      <trkpt lat="46.01592" lon="6.51962">
        <ele>1683.5999755859</ele>
        <time>2019-10-13T14:53:08.000Z</time>
      </trkpt>
      <trkpt lat="46.01592" lon="6.51962">
        <ele>1683</ele>
        <time>2019-10-13T14:53:10.000Z</time>
      </trkpt>
      <trkpt lat="46.01593" lon="6.51962">
        <ele>1682.8000488281</ele>
        <time>2019-10-13T14:53:11.000Z</time>
      </trkpt>
      <trkpt lat="46.01593" lon="6.51962">
        <ele>1682.5999755859</ele>
        <time>2019-10-13T14:53:12.000Z</time>
      </trkpt>
      <trkpt lat="46.01594" lon="6.5196">
        <ele>1682</ele>
        <time>2019-10-13T14:53:22.000Z</time>
      </trkpt>
      <trkpt lat="46.01595" lon="6.51959">
        <ele>1682</ele>
        <time>2019-10-13T14:53:26.000Z</time>
      </trkpt>
      <trkpt lat="46.01595" lon="6.51961">
        <ele>1682</ele>
        <time>2019-10-13T14:53:27.000Z</time>
      </trkpt>
      <trkpt lat="46.01593" lon="6.51965">
        <ele>1681.8000488281</ele>
        <time>2019-10-13T14:53:29.000Z</time>
      </trkpt>
      <trkpt lat="46.01592" lon="6.51967">
        <ele>1681.8000488281</ele>
        <time>2019-10-13T14:53:30.000Z</time>
      </trkpt>
      <trkpt lat="46.01587" lon="6.51972">
        <ele>1680.8000488281</ele>
        <time>2019-10-13T14:53:34.000Z</time>
      </trkpt>
      <trkpt lat="46.01586" lon="6.51974">
        <ele>1680.8000488281</ele>
        <time>2019-10-13T14:53:35.000Z</time>
      </trkpt>
      <trkpt lat="46.01584" lon="6.51976">
        <ele>1680.5999755859</ele>
        <time>2019-10-13T14:53:36.000Z</time>
      </trkpt>
      <trkpt lat="46.01581" lon="6.51982">
        <ele>1680.1999511719</ele>
        <time>2019-10-13T14:53:39.000Z</time>
      </trkpt>
      <trkpt lat="46.01573" lon="6.51986">
        <ele>1679.5999755859</ele>
        <time>2019-10-13T14:53:45.000Z</time>
      </trkpt>
      <trkpt lat="46.01572" lon="6.51987">
        <ele>1679.5999755859</ele>
        <time>2019-10-13T14:53:46.000Z</time>
      </trkpt>
      <trkpt lat="46.01571" lon="6.51988">
        <ele>1678.8000488281</ele>
        <time>2019-10-13T14:53:50.000Z</time>
      </trkpt>
      <trkpt lat="46.01571" lon="6.51987">
        <ele>1678.5999755859</ele>
        <time>2019-10-13T14:53:52.000Z</time>
      </trkpt>
      <trkpt lat="46.0157" lon="6.51992">
        <ele>1678</ele>
        <time>2019-10-13T14:53:57.000Z</time>
      </trkpt>
      <trkpt lat="46.01568" lon="6.51992">
        <ele>1677.5999755859</ele>
        <time>2019-10-13T14:54:01.000Z</time>
      </trkpt>
      <trkpt lat="46.01567" lon="6.51992">
        <ele>1677.5999755859</ele>
        <time>2019-10-13T14:54:03.000Z</time>
      </trkpt>
      <trkpt lat="46.01566" lon="6.52">
        <ele>1678.1999511719</ele>
        <time>2019-10-13T14:54:13.000Z</time>
      </trkpt>
      <trkpt lat="46.01564" lon="6.52008">
        <ele>1677.5999755859</ele>
        <time>2019-10-13T14:54:17.000Z</time>
      </trkpt>
      <trkpt lat="46.01561" lon="6.52011">
        <ele>1676.4000244141</ele>
        <time>2019-10-13T14:54:20.000Z</time>
      </trkpt>
      <trkpt lat="46.01561" lon="6.52012">
        <ele>1676.4000244141</ele>
        <time>2019-10-13T14:54:21.000Z</time>
      </trkpt>
      <trkpt lat="46.0156" lon="6.52015">
        <ele>1675.8000488281</ele>
        <time>2019-10-13T14:54:26.000Z</time>
      </trkpt>
      <trkpt lat="46.0156" lon="6.52017">
        <ele>1675.4000244141</ele>
        <time>2019-10-13T14:54:28.000Z</time>
      </trkpt>
      <trkpt lat="46.01558" lon="6.52025">
        <ele>1674.1999511719</ele>
        <time>2019-10-13T14:54:34.000Z</time>
      </trkpt>
      <trkpt lat="46.01558" lon="6.5203">
        <ele>1673</ele>
        <time>2019-10-13T14:54:38.000Z</time>
      </trkpt>
      <trkpt lat="46.01558" lon="6.5203">
        <ele>1673</ele>
        <time>2019-10-13T14:54:39.000Z</time>
      </trkpt>
      <trkpt lat="46.01557" lon="6.52031">
        <ele>1672.8000488281</ele>
        <time>2019-10-13T14:54:41.000Z</time>
      </trkpt>
      <trkpt lat="46.01556" lon="6.52033">
        <ele>1672</ele>
        <time>2019-10-13T14:54:44.000Z</time>
      </trkpt>
      <trkpt lat="46.01554" lon="6.52037">
        <ele>1671</ele>
        <time>2019-10-13T14:54:48.000Z</time>
      </trkpt>
      <trkpt lat="46.01553" lon="6.52043">
        <ele>1670</ele>
        <time>2019-10-13T14:54:54.000Z</time>
      </trkpt>
      <trkpt lat="46.01553" lon="6.52045">
        <ele>1669.5999755859</ele>
        <time>2019-10-13T14:54:55.000Z</time>
      </trkpt>
      <trkpt lat="46.01553" lon="6.52048">
        <ele>1668.4000244141</ele>
        <time>2019-10-13T14:54:57.000Z</time>
      </trkpt>
      <trkpt lat="46.01553" lon="6.5205">
        <ele>1668</ele>
        <time>2019-10-13T14:54:58.000Z</time>
      </trkpt>
      <trkpt lat="46.01552" lon="6.52051">
        <ele>1667.4000244141</ele>
        <time>2019-10-13T14:54:59.000Z</time>
      </trkpt>
      <trkpt lat="46.01552" lon="6.52053">
        <ele>1667.1999511719</ele>
        <time>2019-10-13T14:55:00.000Z</time>
      </trkpt>
      <trkpt lat="46.01552" lon="6.52056">
        <ele>1666.5999755859</ele>
        <time>2019-10-13T14:55:02.000Z</time>
      </trkpt>
      <trkpt lat="46.01551" lon="6.52063">
        <ele>1666</ele>
        <time>2019-10-13T14:55:06.000Z</time>
      </trkpt>
      <trkpt lat="46.01551" lon="6.52065">
        <ele>1665.5999755859</ele>
        <time>2019-10-13T14:55:08.000Z</time>
      </trkpt>
      <trkpt lat="46.01551" lon="6.52068">
        <ele>1665</ele>
        <time>2019-10-13T14:55:10.000Z</time>
      </trkpt>
      <trkpt lat="46.01551" lon="6.52073">
        <ele>1664.4000244141</ele>
        <time>2019-10-13T14:55:13.000Z</time>
      </trkpt>
      <trkpt lat="46.01551" lon="6.52075">
        <ele>1664.4000244141</ele>
        <time>2019-10-13T14:55:14.000Z</time>
      </trkpt>
      <trkpt lat="46.01551" lon="6.52077">
        <ele>1664.1999511719</ele>
        <time>2019-10-13T14:55:15.000Z</time>
      </trkpt>
      <trkpt lat="46.0155" lon="6.52078">
        <ele>1663.8000488281</ele>
        <time>2019-10-13T14:55:16.000Z</time>
      </trkpt>
      <trkpt lat="46.01549" lon="6.52079">
        <ele>1663.1999511719</ele>
        <time>2019-10-13T14:55:17.000Z</time>
      </trkpt>
      <trkpt lat="46.01548" lon="6.5208">
        <ele>1662.5999755859</ele>
        <time>2019-10-13T14:55:18.000Z</time>
      </trkpt>
      <trkpt lat="46.01546" lon="6.52086">
        <ele>1661.5999755859</ele>
        <time>2019-10-13T14:55:21.000Z</time>
      </trkpt>
      <trkpt lat="46.01546" lon="6.52088">
        <ele>1661.5999755859</ele>
        <time>2019-10-13T14:55:22.000Z</time>
      </trkpt>
      <trkpt lat="46.01547" lon="6.52092">
        <ele>1661.4000244141</ele>
        <time>2019-10-13T14:55:24.000Z</time>
      </trkpt>
      <trkpt lat="46.01548" lon="6.52094">
        <ele>1661.1999511719</ele>
        <time>2019-10-13T14:55:27.000Z</time>
      </trkpt>
      <trkpt lat="46.01548" lon="6.52095">
        <ele>1661</ele>
        <time>2019-10-13T14:55:28.000Z</time>
      </trkpt>
      <trkpt lat="46.01546" lon="6.52098">
        <ele>1660.4000244141</ele>
        <time>2019-10-13T14:55:30.000Z</time>
      </trkpt>
      <trkpt lat="46.01545" lon="6.52099">
        <ele>1659.5999755859</ele>
        <time>2019-10-13T14:55:31.000Z</time>
      </trkpt>
      <trkpt lat="46.01544" lon="6.521">
        <ele>1658.8000488281</ele>
        <time>2019-10-13T14:55:32.000Z</time>
      </trkpt>
      <trkpt lat="46.01543" lon="6.52103">
        <ele>1658.1999511719</ele>
        <time>2019-10-13T14:55:34.000Z</time>
      </trkpt>
      <trkpt lat="46.01543" lon="6.52105">
        <ele>1657.8000488281</ele>
        <time>2019-10-13T14:55:35.000Z</time>
      </trkpt>
      <trkpt lat="46.01539" lon="6.52113">
        <ele>1656.8000488281</ele>
        <time>2019-10-13T14:55:40.000Z</time>
      </trkpt>
      <trkpt lat="46.01537" lon="6.52117">
        <ele>1656.4000244141</ele>
        <time>2019-10-13T14:55:42.000Z</time>
      </trkpt>
      <trkpt lat="46.01537" lon="6.52119">
        <ele>1656.4000244141</ele>
        <time>2019-10-13T14:55:43.000Z</time>
      </trkpt>
      <trkpt lat="46.01537" lon="6.52125">
        <ele>1656</ele>
        <time>2019-10-13T14:55:46.000Z</time>
      </trkpt>
      <trkpt lat="46.01536" lon="6.52127">
        <ele>1655.8000488281</ele>
        <time>2019-10-13T14:55:47.000Z</time>
      </trkpt>
      <trkpt lat="46.01535" lon="6.5213">
        <ele>1654.5999755859</ele>
        <time>2019-10-13T14:55:49.000Z</time>
      </trkpt>
      <trkpt lat="46.01533" lon="6.52138">
        <ele>1653.5999755859</ele>
        <time>2019-10-13T14:55:52.000Z</time>
      </trkpt>
      <trkpt lat="46.01531" lon="6.5215">
        <ele>1652.4000244141</ele>
        <time>2019-10-13T14:55:58.000Z</time>
      </trkpt>
      <trkpt lat="46.0153" lon="6.52154">
        <ele>1651.4000244141</ele>
        <time>2019-10-13T14:56:00.000Z</time>
      </trkpt>
      <trkpt lat="46.01529" lon="6.52158">
        <ele>1650</ele>
        <time>2019-10-13T14:56:02.000Z</time>
      </trkpt>
      <trkpt lat="46.01528" lon="6.52161">
        <ele>1648.8000488281</ele>
        <time>2019-10-13T14:56:04.000Z</time>
      </trkpt>
      <trkpt lat="46.01528" lon="6.52162">
        <ele>1648.1999511719</ele>
        <time>2019-10-13T14:56:05.000Z</time>
      </trkpt>
      <trkpt lat="46.01527" lon="6.52163">
        <ele>1647.5999755859</ele>
        <time>2019-10-13T14:56:06.000Z</time>
      </trkpt>
      <trkpt lat="46.01527" lon="6.52164">
        <ele>1647</ele>
        <time>2019-10-13T14:56:07.000Z</time>
      </trkpt>
      <trkpt lat="46.01526" lon="6.52163">
        <ele>1646.1999511719</ele>
        <time>2019-10-13T14:56:09.000Z</time>
      </trkpt>
      <trkpt lat="46.01524" lon="6.52162">
        <ele>1646</ele>
        <time>2019-10-13T14:56:10.000Z</time>
      </trkpt>
      <trkpt lat="46.01523" lon="6.52161">
        <ele>1646</ele>
        <time>2019-10-13T14:56:11.000Z</time>
      </trkpt>
      <trkpt lat="46.01523" lon="6.52159">
        <ele>1645.5999755859</ele>
        <time>2019-10-13T14:56:13.000Z</time>
      </trkpt>
      <trkpt lat="46.01525" lon="6.5216">
        <ele>1645.1999511719</ele>
        <time>2019-10-13T14:56:16.000Z</time>
      </trkpt>
      <trkpt lat="46.01527" lon="6.52161">
        <ele>1644.4000244141</ele>
        <time>2019-10-13T14:56:18.000Z</time>
      </trkpt>
      <trkpt lat="46.01528" lon="6.52163">
        <ele>1644</ele>
        <time>2019-10-13T14:56:19.000Z</time>
      </trkpt>
      <trkpt lat="46.0153" lon="6.52165">
        <ele>1643.1999511719</ele>
        <time>2019-10-13T14:56:21.000Z</time>
      </trkpt>
      <trkpt lat="46.01531" lon="6.52165">
        <ele>1643</ele>
        <time>2019-10-13T14:56:22.000Z</time>
      </trkpt>
      <trkpt lat="46.01532" lon="6.52168">
        <ele>1642.8000488281</ele>
        <time>2019-10-13T14:56:24.000Z</time>
      </trkpt>
      <trkpt lat="46.01534" lon="6.52171">
        <ele>1641.8000488281</ele>
        <time>2019-10-13T14:56:27.000Z</time>
      </trkpt>
      <trkpt lat="46.01536" lon="6.52175">
        <ele>1641</ele>
        <time>2019-10-13T14:56:29.000Z</time>
      </trkpt>
      <trkpt lat="46.01537" lon="6.52176">
        <ele>1640.5999755859</ele>
        <time>2019-10-13T14:56:30.000Z</time>
      </trkpt>
      <trkpt lat="46.01537" lon="6.52178">
        <ele>1639.5999755859</ele>
        <time>2019-10-13T14:56:32.000Z</time>
      </trkpt>
      <trkpt lat="46.01538" lon="6.52179">
        <ele>1639.5999755859</ele>
        <time>2019-10-13T14:56:33.000Z</time>
      </trkpt>
      <trkpt lat="46.01539" lon="6.5218">
        <ele>1639</ele>
        <time>2019-10-13T14:56:35.000Z</time>
      </trkpt>
      <trkpt lat="46.01539" lon="6.52181">
        <ele>1638.4000244141</ele>
        <time>2019-10-13T14:56:36.000Z</time>
      </trkpt>
      <trkpt lat="46.0154" lon="6.52183">
        <ele>1638</ele>
        <time>2019-10-13T14:56:37.000Z</time>
      </trkpt>
      <trkpt lat="46.01541" lon="6.52186">
        <ele>1637.4000244141</ele>
        <time>2019-10-13T14:56:39.000Z</time>
      </trkpt>
      <trkpt lat="46.01543" lon="6.5219">
        <ele>1636.4000244141</ele>
        <time>2019-10-13T14:56:42.000Z</time>
      </trkpt>
      <trkpt lat="46.01544" lon="6.52192">
        <ele>1636.1999511719</ele>
        <time>2019-10-13T14:56:43.000Z</time>
      </trkpt>
      <trkpt lat="46.01546" lon="6.52195">
        <ele>1635.5999755859</ele>
        <time>2019-10-13T14:56:45.000Z</time>
      </trkpt>
      <trkpt lat="46.01547" lon="6.52198">
        <ele>1635</ele>
        <time>2019-10-13T14:56:47.000Z</time>
      </trkpt>
      <trkpt lat="46.01547" lon="6.52199">
        <ele>1634.5999755859</ele>
        <time>2019-10-13T14:56:48.000Z</time>
      </trkpt>
      <trkpt lat="46.01547" lon="6.522">
        <ele>1634.1999511719</ele>
        <time>2019-10-13T14:56:49.000Z</time>
      </trkpt>
      <trkpt lat="46.01547" lon="6.52202">
        <ele>1633.8000488281</ele>
        <time>2019-10-13T14:56:50.000Z</time>
      </trkpt>
      <trkpt lat="46.01548" lon="6.52205">
        <ele>1632.8000488281</ele>
        <time>2019-10-13T14:56:52.000Z</time>
      </trkpt>
      <trkpt lat="46.01548" lon="6.52207">
        <ele>1632.5999755859</ele>
        <time>2019-10-13T14:56:53.000Z</time>
      </trkpt>
      <trkpt lat="46.01549" lon="6.52208">
        <ele>1632</ele>
        <time>2019-10-13T14:56:54.000Z</time>
      </trkpt>
      <trkpt lat="46.0155" lon="6.5221">
        <ele>1631.4000244141</ele>
        <time>2019-10-13T14:56:55.000Z</time>
      </trkpt>
      <trkpt lat="46.01551" lon="6.52212">
        <ele>1630.1999511719</ele>
        <time>2019-10-13T14:56:57.000Z</time>
      </trkpt>
      <trkpt lat="46.01551" lon="6.52216">
        <ele>1630</ele>
        <time>2019-10-13T14:56:59.000Z</time>
      </trkpt>
      <trkpt lat="46.01551" lon="6.52218">
        <ele>1629.5999755859</ele>
        <time>2019-10-13T14:57:00.000Z</time>
      </trkpt>
      <trkpt lat="46.01549" lon="6.52222">
        <ele>1629.1999511719</ele>
        <time>2019-10-13T14:57:02.000Z</time>
      </trkpt>
      <trkpt lat="46.01546" lon="6.52226">
        <ele>1628.5999755859</ele>
        <time>2019-10-13T14:57:04.000Z</time>
      </trkpt>
      <trkpt lat="46.01545" lon="6.52229">
        <ele>1628.1999511719</ele>
        <time>2019-10-13T14:57:05.000Z</time>
      </trkpt>
      <trkpt lat="46.01544" lon="6.52231">
        <ele>1628</ele>
        <time>2019-10-13T14:57:06.000Z</time>
      </trkpt>
      <trkpt lat="46.01543" lon="6.52234">
        <ele>1627.1999511719</ele>
        <time>2019-10-13T14:57:08.000Z</time>
      </trkpt>
      <trkpt lat="46.01543" lon="6.52237">
        <ele>1626.5999755859</ele>
        <time>2019-10-13T14:57:09.000Z</time>
      </trkpt>
      <trkpt lat="46.01545" lon="6.52242">
        <ele>1625.4000244141</ele>
        <time>2019-10-13T14:57:12.000Z</time>
      </trkpt>
      <trkpt lat="46.01546" lon="6.52243">
        <ele>1625</ele>
        <time>2019-10-13T14:57:13.000Z</time>
      </trkpt>
      <trkpt lat="46.01548" lon="6.52245">
        <ele>1624.4000244141</ele>
        <time>2019-10-13T14:57:15.000Z</time>
      </trkpt>
      <trkpt lat="46.01549" lon="6.52247">
        <ele>1624</ele>
        <time>2019-10-13T14:57:16.000Z</time>
      </trkpt>
      <trkpt lat="46.01552" lon="6.52256">
        <ele>1622.5999755859</ele>
        <time>2019-10-13T14:57:20.000Z</time>
      </trkpt>
      <trkpt lat="46.01552" lon="6.52259">
        <ele>1622.4000244141</ele>
        <time>2019-10-13T14:57:21.000Z</time>
      </trkpt>
      <trkpt lat="46.0155" lon="6.52262">
        <ele>1622.1999511719</ele>
        <time>2019-10-13T14:57:23.000Z</time>
      </trkpt>
      <trkpt lat="46.0155" lon="6.52265">
        <ele>1621.4000244141</ele>
        <time>2019-10-13T14:57:25.000Z</time>
      </trkpt>
      <trkpt lat="46.0155" lon="6.52266">
        <ele>1621</ele>
        <time>2019-10-13T14:57:26.000Z</time>
      </trkpt>
      <trkpt lat="46.01549" lon="6.52268">
        <ele>1620</ele>
        <time>2019-10-13T14:57:28.000Z</time>
      </trkpt>
      <trkpt lat="46.01545" lon="6.52269">
        <ele>1619.4000244141</ele>
        <time>2019-10-13T14:57:29.000Z</time>
      </trkpt>
      <trkpt lat="46.01545" lon="6.52269">
        <ele>1619</ele>
        <time>2019-10-13T14:57:30.000Z</time>
      </trkpt>
      <trkpt lat="46.01545" lon="6.52269">
        <ele>1618.5999755859</ele>
        <time>2019-10-13T14:57:31.000Z</time>
      </trkpt>
      <trkpt lat="46.01544" lon="6.5227">
        <ele>1618</ele>
        <time>2019-10-13T14:57:36.000Z</time>
      </trkpt>
      <trkpt lat="46.01544" lon="6.52273">
        <ele>1618</ele>
        <time>2019-10-13T14:57:41.000Z</time>
      </trkpt>
      <trkpt lat="46.01544" lon="6.52272">
        <ele>1618</ele>
        <time>2019-10-13T14:57:45.000Z</time>
      </trkpt>
      <trkpt lat="46.01545" lon="6.52272">
        <ele>1617.8000488281</ele>
        <time>2019-10-13T14:57:47.000Z</time>
      </trkpt>
      <trkpt lat="46.01546" lon="6.5227">
        <ele>1617.8000488281</ele>
        <time>2019-10-13T14:57:50.000Z</time>
      </trkpt>
      <trkpt lat="46.01547" lon="6.52268">
        <ele>1617.8000488281</ele>
        <time>2019-10-13T14:57:53.000Z</time>
      </trkpt>
      <trkpt lat="46.01549" lon="6.52269">
        <ele>1618</ele>
        <time>2019-10-13T14:57:55.000Z</time>
      </trkpt>
      <trkpt lat="46.01552" lon="6.52274">
        <ele>1617.5999755859</ele>
        <time>2019-10-13T14:57:59.000Z</time>
      </trkpt>
      <trkpt lat="46.01552" lon="6.52275">
        <ele>1617.4000244141</ele>
        <time>2019-10-13T14:58:00.000Z</time>
      </trkpt>
      <trkpt lat="46.01552" lon="6.52275">
        <ele>1617</ele>
        <time>2019-10-13T14:58:01.000Z</time>
      </trkpt>
      <trkpt lat="46.01553" lon="6.52275">
        <ele>1616.5999755859</ele>
        <time>2019-10-13T14:58:02.000Z</time>
      </trkpt>
      <trkpt lat="46.01555" lon="6.52276">
        <ele>1616</ele>
        <time>2019-10-13T14:58:04.000Z</time>
      </trkpt>
      <trkpt lat="46.01557" lon="6.52284">
        <ele>1615.8000488281</ele>
        <time>2019-10-13T14:58:06.000Z</time>
      </trkpt>
      <trkpt lat="46.01557" lon="6.52288">
        <ele>1615.5999755859</ele>
        <time>2019-10-13T14:58:07.000Z</time>
      </trkpt>
      <trkpt lat="46.01556" lon="6.52295">
        <ele>1614.1999511719</ele>
        <time>2019-10-13T14:58:10.000Z</time>
      </trkpt>
      <trkpt lat="46.01555" lon="6.52296">
        <ele>1613.8000488281</ele>
        <time>2019-10-13T14:58:11.000Z</time>
      </trkpt>
      <trkpt lat="46.01553" lon="6.52297">
        <ele>1613.4000244141</ele>
        <time>2019-10-13T14:58:12.000Z</time>
      </trkpt>
      <trkpt lat="46.01551" lon="6.52298">
        <ele>1613.1999511719</ele>
        <time>2019-10-13T14:58:13.000Z</time>
      </trkpt>
      <trkpt lat="46.01549" lon="6.52299">
        <ele>1613.1999511719</ele>
        <time>2019-10-13T14:58:14.000Z</time>
      </trkpt>
      <trkpt lat="46.01547" lon="6.52299">
        <ele>1612.8000488281</ele>
        <time>2019-10-13T14:58:15.000Z</time>
      </trkpt>
      <trkpt lat="46.01546" lon="6.52299">
        <ele>1612.5999755859</ele>
        <time>2019-10-13T14:58:16.000Z</time>
      </trkpt>
      <trkpt lat="46.01545" lon="6.52299">
        <ele>1612.1999511719</ele>
        <time>2019-10-13T14:58:18.000Z</time>
      </trkpt>
      <trkpt lat="46.01544" lon="6.523">
        <ele>1612</ele>
        <time>2019-10-13T14:58:19.000Z</time>
      </trkpt>
      <trkpt lat="46.01544" lon="6.523">
        <ele>1612</ele>
        <time>2019-10-13T14:58:21.000Z</time>
      </trkpt>
      <trkpt lat="46.01543" lon="6.52302">
        <ele>1612.1999511719</ele>
        <time>2019-10-13T14:58:25.000Z</time>
      </trkpt>
      <trkpt lat="46.01541" lon="6.52303">
        <ele>1612</ele>
        <time>2019-10-13T14:58:28.000Z</time>
      </trkpt>
      <trkpt lat="46.01539" lon="6.52303">
        <ele>1612</ele>
        <time>2019-10-13T14:58:29.000Z</time>
      </trkpt>
      <trkpt lat="46.01536" lon="6.52302">
        <ele>1611.5999755859</ele>
        <time>2019-10-13T14:58:32.000Z</time>
      </trkpt>
      <trkpt lat="46.01532" lon="6.523">
        <ele>1611.1999511719</ele>
        <time>2019-10-13T14:58:34.000Z</time>
      </trkpt>
      <trkpt lat="46.01531" lon="6.52298">
        <ele>1611</ele>
        <time>2019-10-13T14:58:35.000Z</time>
      </trkpt>
      <trkpt lat="46.01529" lon="6.52295">
        <ele>1610.5999755859</ele>
        <time>2019-10-13T14:58:37.000Z</time>
      </trkpt>
      <trkpt lat="46.01528" lon="6.52294">
        <ele>1610.4000244141</ele>
        <time>2019-10-13T14:58:38.000Z</time>
      </trkpt>
      <trkpt lat="46.01526" lon="6.52293">
        <ele>1610.1999511719</ele>
        <time>2019-10-13T14:58:39.000Z</time>
      </trkpt>
      <trkpt lat="46.01525" lon="6.52292">
        <ele>1609.8000488281</ele>
        <time>2019-10-13T14:58:40.000Z</time>
      </trkpt>
      <trkpt lat="46.01523" lon="6.52291">
        <ele>1609</ele>
        <time>2019-10-13T14:58:42.000Z</time>
      </trkpt>
      <trkpt lat="46.01518" lon="6.5229">
        <ele>1608.5999755859</ele>
        <time>2019-10-13T14:58:45.000Z</time>
      </trkpt>
      <trkpt lat="46.01515" lon="6.52288">
        <ele>1607.4000244141</ele>
        <time>2019-10-13T14:58:47.000Z</time>
      </trkpt>
      <trkpt lat="46.01514" lon="6.52287">
        <ele>1606.5999755859</ele>
        <time>2019-10-13T14:58:48.000Z</time>
      </trkpt>
      <trkpt lat="46.01513" lon="6.52286">
        <ele>1605.8000488281</ele>
        <time>2019-10-13T14:58:49.000Z</time>
      </trkpt>
      <trkpt lat="46.01511" lon="6.52286">
        <ele>1605.1999511719</ele>
        <time>2019-10-13T14:58:50.000Z</time>
      </trkpt>
      <trkpt lat="46.0151" lon="6.52286">
        <ele>1604.8000488281</ele>
        <time>2019-10-13T14:58:51.000Z</time>
      </trkpt>
      <trkpt lat="46.01507" lon="6.52286">
        <ele>1603.5999755859</ele>
        <time>2019-10-13T14:58:53.000Z</time>
      </trkpt>
      <trkpt lat="46.01506" lon="6.52286">
        <ele>1603.1999511719</ele>
        <time>2019-10-13T14:58:54.000Z</time>
      </trkpt>
      <trkpt lat="46.01505" lon="6.52287">
        <ele>1602.8000488281</ele>
        <time>2019-10-13T14:58:55.000Z</time>
      </trkpt>
      <trkpt lat="46.01504" lon="6.52287">
        <ele>1603</ele>
        <time>2019-10-13T14:58:56.000Z</time>
      </trkpt>
      <trkpt lat="46.01502" lon="6.52288">
        <ele>1602.4000244141</ele>
        <time>2019-10-13T14:58:58.000Z</time>
      </trkpt>
      <trkpt lat="46.01498" lon="6.52287">
        <ele>1601.1999511719</ele>
        <time>2019-10-13T14:59:01.000Z</time>
      </trkpt>
      <trkpt lat="46.01496" lon="6.52286">
        <ele>1600.5999755859</ele>
        <time>2019-10-13T14:59:02.000Z</time>
      </trkpt>
      <trkpt lat="46.01494" lon="6.52285">
        <ele>1599.8000488281</ele>
        <time>2019-10-13T14:59:04.000Z</time>
      </trkpt>
      <trkpt lat="46.01492" lon="6.52284">
        <ele>1598.4000244141</ele>
        <time>2019-10-13T14:59:07.000Z</time>
      </trkpt>
      <trkpt lat="46.01491" lon="6.52283">
        <ele>1598</ele>
        <time>2019-10-13T14:59:08.000Z</time>
      </trkpt>
      <trkpt lat="46.01489" lon="6.52284">
        <ele>1597.4000244141</ele>
        <time>2019-10-13T14:59:10.000Z</time>
      </trkpt>
      <trkpt lat="46.01487" lon="6.52284">
        <ele>1596.5999755859</ele>
        <time>2019-10-13T14:59:12.000Z</time>
      </trkpt>
      <trkpt lat="46.01486" lon="6.52284">
        <ele>1596.1999511719</ele>
        <time>2019-10-13T14:59:13.000Z</time>
      </trkpt>
      <trkpt lat="46.01485" lon="6.52285">
        <ele>1595.8000488281</ele>
        <time>2019-10-13T14:59:14.000Z</time>
      </trkpt>
      <trkpt lat="46.01482" lon="6.52285">
        <ele>1595.1999511719</ele>
        <time>2019-10-13T14:59:16.000Z</time>
      </trkpt>
      <trkpt lat="46.01478" lon="6.52283">
        <ele>1594.4000244141</ele>
        <time>2019-10-13T14:59:19.000Z</time>
      </trkpt>
      <trkpt lat="46.01478" lon="6.52282">
        <ele>1594</ele>
        <time>2019-10-13T14:59:20.000Z</time>
      </trkpt>
      <trkpt lat="46.01479" lon="6.52282">
        <ele>1593.8000488281</ele>
        <time>2019-10-13T14:59:21.000Z</time>
      </trkpt>
      <trkpt lat="46.01481" lon="6.52282">
        <ele>1593.4000244141</ele>
        <time>2019-10-13T14:59:23.000Z</time>
      </trkpt>
      <trkpt lat="46.01481" lon="6.52284">
        <ele>1593.4000244141</ele>
        <time>2019-10-13T14:59:24.000Z</time>
      </trkpt>
      <trkpt lat="46.01478" lon="6.52286">
        <ele>1593</ele>
        <time>2019-10-13T14:59:28.000Z</time>
      </trkpt>
      <trkpt lat="46.01475" lon="6.52283">
        <ele>1592.8000488281</ele>
        <time>2019-10-13T14:59:30.000Z</time>
      </trkpt>
      <trkpt lat="46.0147" lon="6.52279">
        <ele>1591.8000488281</ele>
        <time>2019-10-13T14:59:33.000Z</time>
      </trkpt>
      <trkpt lat="46.01468" lon="6.52276">
        <ele>1591</ele>
        <time>2019-10-13T14:59:35.000Z</time>
      </trkpt>
      <trkpt lat="46.01467" lon="6.52274">
        <ele>1590.8000488281</ele>
        <time>2019-10-13T14:59:36.000Z</time>
      </trkpt>
      <trkpt lat="46.01462" lon="6.52271">
        <ele>1589.8000488281</ele>
        <time>2019-10-13T14:59:39.000Z</time>
      </trkpt>
      <trkpt lat="46.01457" lon="6.52267">
        <ele>1588.8000488281</ele>
        <time>2019-10-13T14:59:43.000Z</time>
      </trkpt>
      <trkpt lat="46.01455" lon="6.52265">
        <ele>1588.5999755859</ele>
        <time>2019-10-13T14:59:44.000Z</time>
      </trkpt>
      <trkpt lat="46.01452" lon="6.52263">
        <ele>1587.5999755859</ele>
        <time>2019-10-13T14:59:46.000Z</time>
      </trkpt>
      <trkpt lat="46.01451" lon="6.52262">
        <ele>1586.5999755859</ele>
        <time>2019-10-13T14:59:47.000Z</time>
      </trkpt>
      <trkpt lat="46.01448" lon="6.52261">
        <ele>1585</ele>
        <time>2019-10-13T14:59:49.000Z</time>
      </trkpt>
      <trkpt lat="46.01444" lon="6.52259">
        <ele>1583.8000488281</ele>
        <time>2019-10-13T14:59:53.000Z</time>
      </trkpt>
      <trkpt lat="46.01442" lon="6.52259">
        <ele>1583.4000244141</ele>
        <time>2019-10-13T14:59:54.000Z</time>
      </trkpt>
      <trkpt lat="46.0144" lon="6.52259">
        <ele>1582.1999511719</ele>
        <time>2019-10-13T14:59:56.000Z</time>
      </trkpt>
      <trkpt lat="46.01439" lon="6.52259">
        <ele>1581.8000488281</ele>
        <time>2019-10-13T14:59:58.000Z</time>
      </trkpt>
      <trkpt lat="46.01438" lon="6.5226">
        <ele>1581.5999755859</ele>
        <time>2019-10-13T15:00:00.000Z</time>
      </trkpt>
      <trkpt lat="46.01438" lon="6.5226">
        <ele>1581</ele>
        <time>2019-10-13T15:00:02.000Z</time>
      </trkpt>
      <trkpt lat="46.01438" lon="6.52259">
        <ele>1581</ele>
        <time>2019-10-13T15:00:03.000Z</time>
      </trkpt>
      <trkpt lat="46.01439" lon="6.52258">
        <ele>1580.8000488281</ele>
        <time>2019-10-13T15:00:06.000Z</time>
      </trkpt>
      <trkpt lat="46.01432" lon="6.52259">
        <ele>1580.1999511719</ele>
        <time>2019-10-13T15:00:13.000Z</time>
      </trkpt>
      <trkpt lat="46.0143" lon="6.52257">
        <ele>1579.5999755859</ele>
        <time>2019-10-13T15:00:14.000Z</time>
      </trkpt>
      <trkpt lat="46.01426" lon="6.5225">
        <ele>1578.4000244141</ele>
        <time>2019-10-13T15:00:17.000Z</time>
      </trkpt>
      <trkpt lat="46.01424" lon="6.52247">
        <ele>1576.8000488281</ele>
        <time>2019-10-13T15:00:19.000Z</time>
      </trkpt>
      <trkpt lat="46.01423" lon="6.52246">
        <ele>1576.4000244141</ele>
        <time>2019-10-13T15:00:20.000Z</time>
      </trkpt>
      <trkpt lat="46.01421" lon="6.52244">
        <ele>1575.8000488281</ele>
        <time>2019-10-13T15:00:21.000Z</time>
      </trkpt>
      <trkpt lat="46.01418" lon="6.5224">
        <ele>1575.4000244141</ele>
        <time>2019-10-13T15:00:23.000Z</time>
      </trkpt>
      <trkpt lat="46.01415" lon="6.52237">
        <ele>1574.4000244141</ele>
        <time>2019-10-13T15:00:25.000Z</time>
      </trkpt>
      <trkpt lat="46.01412" lon="6.52235">
        <ele>1573</ele>
        <time>2019-10-13T15:00:27.000Z</time>
      </trkpt>
      <trkpt lat="46.01408" lon="6.52233">
        <ele>1572</ele>
        <time>2019-10-13T15:00:29.000Z</time>
      </trkpt>
      <trkpt lat="46.01405" lon="6.5223">
        <ele>1571</ele>
        <time>2019-10-13T15:00:31.000Z</time>
      </trkpt>
      <trkpt lat="46.01401" lon="6.52227">
        <ele>1569.4000244141</ele>
        <time>2019-10-13T15:00:34.000Z</time>
      </trkpt>
      <trkpt lat="46.01398" lon="6.52224">
        <ele>1568.1999511719</ele>
        <time>2019-10-13T15:00:36.000Z</time>
      </trkpt>
      <trkpt lat="46.01396" lon="6.52223">
        <ele>1567.8000488281</ele>
        <time>2019-10-13T15:00:37.000Z</time>
      </trkpt>
      <trkpt lat="46.01391" lon="6.52218">
        <ele>1566.8000488281</ele>
        <time>2019-10-13T15:00:40.000Z</time>
      </trkpt>
      <trkpt lat="46.01388" lon="6.52215">
        <ele>1565.1999511719</ele>
        <time>2019-10-13T15:00:42.000Z</time>
      </trkpt>
      <trkpt lat="46.01386" lon="6.52213">
        <ele>1565</ele>
        <time>2019-10-13T15:00:43.000Z</time>
      </trkpt>
      <trkpt lat="46.0138" lon="6.52205">
        <ele>1564</ele>
        <time>2019-10-13T15:00:47.000Z</time>
      </trkpt>
      <trkpt lat="46.01377" lon="6.52204">
        <ele>1562.4000244141</ele>
        <time>2019-10-13T15:00:49.000Z</time>
      </trkpt>
      <trkpt lat="46.01374" lon="6.52203">
        <ele>1561</ele>
        <time>2019-10-13T15:00:51.000Z</time>
      </trkpt>
      <trkpt lat="46.01369" lon="6.52201">
        <ele>1559.8000488281</ele>
        <time>2019-10-13T15:00:54.000Z</time>
      </trkpt>
      <trkpt lat="46.01367" lon="6.52198">
        <ele>1559.5999755859</ele>
        <time>2019-10-13T15:00:56.000Z</time>
      </trkpt>
      <trkpt lat="46.01365" lon="6.52194">
        <ele>1558.5999755859</ele>
        <time>2019-10-13T15:00:58.000Z</time>
      </trkpt>
      <trkpt lat="46.01364" lon="6.52192">
        <ele>1557.8000488281</ele>
        <time>2019-10-13T15:00:59.000Z</time>
      </trkpt>
      <trkpt lat="46.01363" lon="6.5219">
        <ele>1557.4000244141</ele>
        <time>2019-10-13T15:01:00.000Z</time>
      </trkpt>
      <trkpt lat="46.0136" lon="6.52189">
        <ele>1556.1999511719</ele>
        <time>2019-10-13T15:01:02.000Z</time>
      </trkpt>
      <trkpt lat="46.01358" lon="6.52187">
        <ele>1555.8000488281</ele>
        <time>2019-10-13T15:01:03.000Z</time>
      </trkpt>
      <trkpt lat="46.01356" lon="6.52185">
        <ele>1555</ele>
        <time>2019-10-13T15:01:05.000Z</time>
      </trkpt>
      <trkpt lat="46.01354" lon="6.52184">
        <ele>1554.8000488281</ele>
        <time>2019-10-13T15:01:06.000Z</time>
      </trkpt>
      <trkpt lat="46.01353" lon="6.52183">
        <ele>1554.5999755859</ele>
        <time>2019-10-13T15:01:07.000Z</time>
      </trkpt>
      <trkpt lat="46.01351" lon="6.52182">
        <ele>1554.4000244141</ele>
        <time>2019-10-13T15:01:08.000Z</time>
      </trkpt>
      <trkpt lat="46.0135" lon="6.52181">
        <ele>1554</ele>
        <time>2019-10-13T15:01:09.000Z</time>
      </trkpt>
      <trkpt lat="46.01348" lon="6.5218">
        <ele>1553.4000244141</ele>
        <time>2019-10-13T15:01:10.000Z</time>
      </trkpt>
      <trkpt lat="46.01347" lon="6.52178">
        <ele>1552.5999755859</ele>
        <time>2019-10-13T15:01:11.000Z</time>
      </trkpt>
      <trkpt lat="46.01346" lon="6.52177">
        <ele>1551.8000488281</ele>
        <time>2019-10-13T15:01:12.000Z</time>
      </trkpt>
      <trkpt lat="46.01344" lon="6.52175">
        <ele>1551.4000244141</ele>
        <time>2019-10-13T15:01:13.000Z</time>
      </trkpt>
      <trkpt lat="46.01342" lon="6.52173">
        <ele>1551.1999511719</ele>
        <time>2019-10-13T15:01:14.000Z</time>
      </trkpt>
      <trkpt lat="46.0134" lon="6.52167">
        <ele>1550.5999755859</ele>
        <time>2019-10-13T15:01:16.000Z</time>
      </trkpt>
      <trkpt lat="46.01339" lon="6.52165">
        <ele>1550.1999511719</ele>
        <time>2019-10-13T15:01:17.000Z</time>
      </trkpt>
      <trkpt lat="46.01335" lon="6.52158">
        <ele>1548.8000488281</ele>
        <time>2019-10-13T15:01:20.000Z</time>
      </trkpt>
      <trkpt lat="46.01333" lon="6.52153">
        <ele>1548.1999511719</ele>
        <time>2019-10-13T15:01:22.000Z</time>
      </trkpt>
      <trkpt lat="46.01332" lon="6.52151">
        <ele>1547.8000488281</ele>
        <time>2019-10-13T15:01:23.000Z</time>
      </trkpt>
      <trkpt lat="46.0133" lon="6.5215">
        <ele>1547.5999755859</ele>
        <time>2019-10-13T15:01:24.000Z</time>
      </trkpt>
      <trkpt lat="46.01326" lon="6.52146">
        <ele>1546.1999511719</ele>
        <time>2019-10-13T15:01:27.000Z</time>
      </trkpt>
      <trkpt lat="46.01324" lon="6.52145">
        <ele>1545.8000488281</ele>
        <time>2019-10-13T15:01:28.000Z</time>
      </trkpt>
      <trkpt lat="46.01323" lon="6.52144">
        <ele>1545.4000244141</ele>
        <time>2019-10-13T15:01:29.000Z</time>
      </trkpt>
      <trkpt lat="46.0132" lon="6.52144">
        <ele>1545</ele>
        <time>2019-10-13T15:01:30.000Z</time>
      </trkpt>
      <trkpt lat="46.01316" lon="6.52141">
        <ele>1544</ele>
        <time>2019-10-13T15:01:32.000Z</time>
      </trkpt>
      <trkpt lat="46.01312" lon="6.52139">
        <ele>1543.4000244141</ele>
        <time>2019-10-13T15:01:34.000Z</time>
      </trkpt>
      <trkpt lat="46.0131" lon="6.52137">
        <ele>1543.1999511719</ele>
        <time>2019-10-13T15:01:35.000Z</time>
      </trkpt>
      <trkpt lat="46.01307" lon="6.52134">
        <ele>1543</ele>
        <time>2019-10-13T15:01:37.000Z</time>
      </trkpt>
      <trkpt lat="46.01303" lon="6.5213">
        <ele>1542.5999755859</ele>
        <time>2019-10-13T15:01:40.000Z</time>
      </trkpt>
      <trkpt lat="46.01302" lon="6.52129">
        <ele>1542.4000244141</ele>
        <time>2019-10-13T15:01:41.000Z</time>
      </trkpt>
      <trkpt lat="46.01298" lon="6.52128">
        <ele>1541.5999755859</ele>
        <time>2019-10-13T15:01:43.000Z</time>
      </trkpt>
      <trkpt lat="46.01293" lon="6.52123">
        <ele>1540.5999755859</ele>
        <time>2019-10-13T15:01:46.000Z</time>
      </trkpt>
      <trkpt lat="46.01291" lon="6.5212">
        <ele>1540</ele>
        <time>2019-10-13T15:01:47.000Z</time>
      </trkpt>
      <trkpt lat="46.01285" lon="6.52113">
        <ele>1539</ele>
        <time>2019-10-13T15:01:50.000Z</time>
      </trkpt>
      <trkpt lat="46.01283" lon="6.5211">
        <ele>1538.8000488281</ele>
        <time>2019-10-13T15:01:51.000Z</time>
      </trkpt>
      <trkpt lat="46.01277" lon="6.52104">
        <ele>1537.5999755859</ele>
        <time>2019-10-13T15:01:55.000Z</time>
      </trkpt>
      <trkpt lat="46.01276" lon="6.52102">
        <ele>1537</ele>
        <time>2019-10-13T15:01:56.000Z</time>
      </trkpt>
      <trkpt lat="46.01274" lon="6.52101">
        <ele>1536.5999755859</ele>
        <time>2019-10-13T15:01:57.000Z</time>
      </trkpt>
      <trkpt lat="46.01268" lon="6.52093">
        <ele>1535.4000244141</ele>
        <time>2019-10-13T15:02:00.000Z</time>
      </trkpt>
      <trkpt lat="46.01264" lon="6.52089">
        <ele>1533.8000488281</ele>
        <time>2019-10-13T15:02:02.000Z</time>
      </trkpt>
      <trkpt lat="46.01263" lon="6.52087">
        <ele>1533.5999755859</ele>
        <time>2019-10-13T15:02:03.000Z</time>
      </trkpt>
      <trkpt lat="46.0126" lon="6.52084">
        <ele>1532.8000488281</ele>
        <time>2019-10-13T15:02:05.000Z</time>
      </trkpt>
      <trkpt lat="46.01256" lon="6.52078">
        <ele>1531.4000244141</ele>
        <time>2019-10-13T15:02:08.000Z</time>
      </trkpt>
      <trkpt lat="46.01251" lon="6.52073">
        <ele>1530</ele>
        <time>2019-10-13T15:02:10.000Z</time>
      </trkpt>
      <trkpt lat="46.01246" lon="6.52069">
        <ele>1528.8000488281</ele>
        <time>2019-10-13T15:02:12.000Z</time>
      </trkpt>
      <trkpt lat="46.01245" lon="6.52068">
        <ele>1528.1999511719</ele>
        <time>2019-10-13T15:02:13.000Z</time>
      </trkpt>
      <trkpt lat="46.01243" lon="6.52067">
        <ele>1527.8000488281</ele>
        <time>2019-10-13T15:02:14.000Z</time>
      </trkpt>
      <trkpt lat="46.01242" lon="6.52066">
        <ele>1527</ele>
        <time>2019-10-13T15:02:15.000Z</time>
      </trkpt>
      <trkpt lat="46.01241" lon="6.52064">
        <ele>1526.5999755859</ele>
        <time>2019-10-13T15:02:16.000Z</time>
      </trkpt>
      <trkpt lat="46.01239" lon="6.52062">
        <ele>1525.1999511719</ele>
        <time>2019-10-13T15:02:19.000Z</time>
      </trkpt>
      <trkpt lat="46.01238" lon="6.52061">
        <ele>1525</ele>
        <time>2019-10-13T15:02:20.000Z</time>
      </trkpt>
      <trkpt lat="46.01235" lon="6.52059">
        <ele>1524.8000488281</ele>
        <time>2019-10-13T15:02:22.000Z</time>
      </trkpt>
      <trkpt lat="46.01231" lon="6.52057">
        <ele>1524.5999755859</ele>
        <time>2019-10-13T15:02:24.000Z</time>
      </trkpt>
      <trkpt lat="46.01228" lon="6.52056">
        <ele>1524</ele>
        <time>2019-10-13T15:02:26.000Z</time>
      </trkpt>
      <trkpt lat="46.01228" lon="6.52056">
        <ele>1523.5999755859</ele>
        <time>2019-10-13T15:02:27.000Z</time>
      </trkpt>
      <trkpt lat="46.01227" lon="6.52056">
        <ele>1523</ele>
        <time>2019-10-13T15:02:29.000Z</time>
      </trkpt>
      <trkpt lat="46.01226" lon="6.52055">
        <ele>1522.4000244141</ele>
        <time>2019-10-13T15:02:34.000Z</time>
      </trkpt>
      <trkpt lat="46.01222" lon="6.52051">
        <ele>1522.4000244141</ele>
        <time>2019-10-13T15:02:41.000Z</time>
      </trkpt>
      <trkpt lat="46.01219" lon="6.52049">
        <ele>1522.8000488281</ele>
        <time>2019-10-13T15:02:43.000Z</time>
      </trkpt>
      <trkpt lat="46.01214" lon="6.52045">
        <ele>1521.4000244141</ele>
        <time>2019-10-13T15:02:46.000Z</time>
      </trkpt>
      <trkpt lat="46.01212" lon="6.52043">
        <ele>1520.8000488281</ele>
        <time>2019-10-13T15:02:47.000Z</time>
      </trkpt>
      <trkpt lat="46.01211" lon="6.5204">
        <ele>1520.1999511719</ele>
        <time>2019-10-13T15:02:48.000Z</time>
      </trkpt>
      <trkpt lat="46.01207" lon="6.52034">
        <ele>1519</ele>
        <time>2019-10-13T15:02:51.000Z</time>
      </trkpt>
      <trkpt lat="46.01205" lon="6.5203">
        <ele>1518</ele>
        <time>2019-10-13T15:02:53.000Z</time>
      </trkpt>
      <trkpt lat="46.01204" lon="6.52028">
        <ele>1517.5999755859</ele>
        <time>2019-10-13T15:02:54.000Z</time>
      </trkpt>
      <trkpt lat="46.01202" lon="6.52025">
        <ele>1516.5999755859</ele>
        <time>2019-10-13T15:02:56.000Z</time>
      </trkpt>
      <trkpt lat="46.01199" lon="6.52023">
        <ele>1515.8000488281</ele>
        <time>2019-10-13T15:02:58.000Z</time>
      </trkpt>
      <trkpt lat="46.01197" lon="6.52021">
        <ele>1515.4000244141</ele>
        <time>2019-10-13T15:02:59.000Z</time>
      </trkpt>
      <trkpt lat="46.01195" lon="6.52019">
        <ele>1514.8000488281</ele>
        <time>2019-10-13T15:03:00.000Z</time>
      </trkpt>
      <trkpt lat="46.01191" lon="6.52016">
        <ele>1514.1999511719</ele>
        <time>2019-10-13T15:03:02.000Z</time>
      </trkpt>
      <trkpt lat="46.01189" lon="6.52011">
        <ele>1514</ele>
        <time>2019-10-13T15:03:04.000Z</time>
      </trkpt>
      <trkpt lat="46.01187" lon="6.52005">
        <ele>1513.1999511719</ele>
        <time>2019-10-13T15:03:07.000Z</time>
      </trkpt>
      <trkpt lat="46.01186" lon="6.52003">
        <ele>1512.4000244141</ele>
        <time>2019-10-13T15:03:08.000Z</time>
      </trkpt>
      <trkpt lat="46.01184" lon="6.52002">
        <ele>1511.5999755859</ele>
        <time>2019-10-13T15:03:09.000Z</time>
      </trkpt>
      <trkpt lat="46.01183" lon="6.52">
        <ele>1511.1999511719</ele>
        <time>2019-10-13T15:03:10.000Z</time>
      </trkpt>
      <trkpt lat="46.01177" lon="6.51993">
        <ele>1510</ele>
        <time>2019-10-13T15:03:14.000Z</time>
      </trkpt>
      <trkpt lat="46.01174" lon="6.51989">
        <ele>1508.1999511719</ele>
        <time>2019-10-13T15:03:16.000Z</time>
      </trkpt>
      <trkpt lat="46.01171" lon="6.51986">
        <ele>1506.5999755859</ele>
        <time>2019-10-13T15:03:18.000Z</time>
      </trkpt>
      <trkpt lat="46.01168" lon="6.51983">
        <ele>1505.5999755859</ele>
        <time>2019-10-13T15:03:20.000Z</time>
      </trkpt>
      <trkpt lat="46.01163" lon="6.51981">
        <ele>1504.5999755859</ele>
        <time>2019-10-13T15:03:22.000Z</time>
      </trkpt>
      <trkpt lat="46.01161" lon="6.51981">
        <ele>1504.4000244141</ele>
        <time>2019-10-13T15:03:23.000Z</time>
      </trkpt>
      <trkpt lat="46.01155" lon="6.51981">
        <ele>1504</ele>
        <time>2019-10-13T15:03:26.000Z</time>
      </trkpt>
      <trkpt lat="46.01154" lon="6.5198">
        <ele>1504</ele>
        <time>2019-10-13T15:03:28.000Z</time>
      </trkpt>
      <trkpt lat="46.01148" lon="6.51976">
        <ele>1503.1999511719</ele>
        <time>2019-10-13T15:03:32.000Z</time>
      </trkpt>
      <trkpt lat="46.01145" lon="6.51973">
        <ele>1502.1999511719</ele>
        <time>2019-10-13T15:03:35.000Z</time>
      </trkpt>
      <trkpt lat="46.01144" lon="6.51972">
        <ele>1502</ele>
        <time>2019-10-13T15:03:36.000Z</time>
      </trkpt>
      <trkpt lat="46.01139" lon="6.51968">
        <ele>1501.8000488281</ele>
        <time>2019-10-13T15:03:41.000Z</time>
      </trkpt>
      <trkpt lat="46.01136" lon="6.51966">
        <ele>1501.8000488281</ele>
        <time>2019-10-13T15:03:43.000Z</time>
      </trkpt>
      <trkpt lat="46.0113" lon="6.51962">
        <ele>1501.8000488281</ele>
        <time>2019-10-13T15:03:46.000Z</time>
      </trkpt>
      <trkpt lat="46.01129" lon="6.51962">
        <ele>1501.8000488281</ele>
        <time>2019-10-13T15:03:47.000Z</time>
      </trkpt>
      <trkpt lat="46.01127" lon="6.51962">
        <ele>1501.8000488281</ele>
        <time>2019-10-13T15:03:48.000Z</time>
      </trkpt>
      <trkpt lat="46.0112" lon="6.51962">
        <ele>1501</ele>
        <time>2019-10-13T15:03:52.000Z</time>
      </trkpt>
      <trkpt lat="46.01118" lon="6.51962">
        <ele>1501</ele>
        <time>2019-10-13T15:03:53.000Z</time>
      </trkpt>
      <trkpt lat="46.01114" lon="6.5196">
        <ele>1500.8000488281</ele>
        <time>2019-10-13T15:03:56.000Z</time>
      </trkpt>
      <trkpt lat="46.01112" lon="6.51957">
        <ele>1500.8000488281</ele>
        <time>2019-10-13T15:03:58.000Z</time>
      </trkpt>
      <trkpt lat="46.01108" lon="6.51951">
        <ele>1500</ele>
        <time>2019-10-13T15:04:01.000Z</time>
      </trkpt>
      <trkpt lat="46.01104" lon="6.51938">
        <ele>1498.8000488281</ele>
        <time>2019-10-13T15:04:06.000Z</time>
      </trkpt>
      <trkpt lat="46.01103" lon="6.51937">
        <ele>1498.8000488281</ele>
        <time>2019-10-13T15:04:07.000Z</time>
      </trkpt>
      <trkpt lat="46.01098" lon="6.5193">
        <ele>1497.8000488281</ele>
        <time>2019-10-13T15:04:11.000Z</time>
      </trkpt>
      <trkpt lat="46.01098" lon="6.51929">
        <ele>1497.8000488281</ele>
        <time>2019-10-13T15:04:12.000Z</time>
      </trkpt>
      <trkpt lat="46.01094" lon="6.51923">
        <ele>1497.5999755859</ele>
        <time>2019-10-13T15:04:16.000Z</time>
      </trkpt>
      <trkpt lat="46.01092" lon="6.5192">
        <ele>1497.4000244141</ele>
        <time>2019-10-13T15:04:18.000Z</time>
      </trkpt>
      <trkpt lat="46.01091" lon="6.51919">
        <ele>1497.1999511719</ele>
        <time>2019-10-13T15:04:19.000Z</time>
      </trkpt>
      <trkpt lat="46.0109" lon="6.51917">
        <ele>1497.1999511719</ele>
        <time>2019-10-13T15:04:20.000Z</time>
      </trkpt>
      <trkpt lat="46.01085" lon="6.51913">
        <ele>1497</ele>
        <time>2019-10-13T15:04:23.000Z</time>
      </trkpt>
      <trkpt lat="46.01076" lon="6.51906">
        <ele>1497.4000244141</ele>
        <time>2019-10-13T15:04:28.000Z</time>
      </trkpt>
      <trkpt lat="46.01074" lon="6.51904">
        <ele>1497.1999511719</ele>
        <time>2019-10-13T15:04:30.000Z</time>
      </trkpt>
      <trkpt lat="46.01072" lon="6.51901">
        <ele>1496.8000488281</ele>
        <time>2019-10-13T15:04:32.000Z</time>
      </trkpt>
      <trkpt lat="46.01071" lon="6.519">
        <ele>1496.5999755859</ele>
        <time>2019-10-13T15:04:33.000Z</time>
      </trkpt>
      <trkpt lat="46.0107" lon="6.51899">
        <ele>1496.4000244141</ele>
        <time>2019-10-13T15:04:34.000Z</time>
      </trkpt>
      <trkpt lat="46.01063" lon="6.51892">
        <ele>1495.8000488281</ele>
        <time>2019-10-13T15:04:39.000Z</time>
      </trkpt>
      <trkpt lat="46.01062" lon="6.51891">
        <ele>1495.8000488281</ele>
        <time>2019-10-13T15:04:40.000Z</time>
      </trkpt>
      <trkpt lat="46.01057" lon="6.51884">
        <ele>1495.5999755859</ele>
        <time>2019-10-13T15:04:45.000Z</time>
      </trkpt>
      <trkpt lat="46.01056" lon="6.51882">
        <ele>1495.4000244141</ele>
        <time>2019-10-13T15:04:46.000Z</time>
      </trkpt>
      <trkpt lat="46.01054" lon="6.5188">
        <ele>1495.4000244141</ele>
        <time>2019-10-13T15:04:48.000Z</time>
      </trkpt>
      <trkpt lat="46.01053" lon="6.51879">
        <ele>1495.4000244141</ele>
        <time>2019-10-13T15:04:49.000Z</time>
      </trkpt>
      <trkpt lat="46.01051" lon="6.51877">
        <ele>1495.8000488281</ele>
        <time>2019-10-13T15:04:50.000Z</time>
      </trkpt>
      <trkpt lat="46.01045" lon="6.51867">
        <ele>1496</ele>
        <time>2019-10-13T15:04:56.000Z</time>
      </trkpt>
      <trkpt lat="46.01042" lon="6.51864">
        <ele>1496</ele>
        <time>2019-10-13T15:04:59.000Z</time>
      </trkpt>
      <trkpt lat="46.01037" lon="6.51862">
        <ele>1495.5999755859</ele>
        <time>2019-10-13T15:05:03.000Z</time>
      </trkpt>
      <trkpt lat="46.01034" lon="6.51862">
        <ele>1495.4000244141</ele>
        <time>2019-10-13T15:05:05.000Z</time>
      </trkpt>
      <trkpt lat="46.0103" lon="6.51861">
        <ele>1495</ele>
        <time>2019-10-13T15:05:08.000Z</time>
      </trkpt>
      <trkpt lat="46.01028" lon="6.51859">
        <ele>1495</ele>
        <time>2019-10-13T15:05:10.000Z</time>
      </trkpt>
      <trkpt lat="46.01026" lon="6.51857">
        <ele>1495</ele>
        <time>2019-10-13T15:05:12.000Z</time>
      </trkpt>
      <trkpt lat="46.01023" lon="6.51857">
        <ele>1495.1999511719</ele>
        <time>2019-10-13T15:05:14.000Z</time>
      </trkpt>
      <trkpt lat="46.01021" lon="6.51858">
        <ele>1495.1999511719</ele>
        <time>2019-10-13T15:05:16.000Z</time>
      </trkpt>
      <trkpt lat="46.0102" lon="6.51858">
        <ele>1495</ele>
        <time>2019-10-13T15:05:17.000Z</time>
      </trkpt>
      <trkpt lat="46.01018" lon="6.51856">
        <ele>1495.1999511719</ele>
        <time>2019-10-13T15:05:19.000Z</time>
      </trkpt>
      <trkpt lat="46.01017" lon="6.51855">
        <ele>1495.1999511719</ele>
        <time>2019-10-13T15:05:20.000Z</time>
      </trkpt>
      <trkpt lat="46.01015" lon="6.51848">
        <ele>1494.8000488281</ele>
        <time>2019-10-13T15:05:24.000Z</time>
      </trkpt>
      <trkpt lat="46.01014" lon="6.51847">
        <ele>1494.8000488281</ele>
        <time>2019-10-13T15:05:25.000Z</time>
      </trkpt>
      <trkpt lat="46.01013" lon="6.51845">
        <ele>1494.5999755859</ele>
        <time>2019-10-13T15:05:26.000Z</time>
      </trkpt>
      <trkpt lat="46.01011" lon="6.51841">
        <ele>1494.4000244141</ele>
        <time>2019-10-13T15:05:28.000Z</time>
      </trkpt>
      <trkpt lat="46.0101" lon="6.5184">
        <ele>1494.4000244141</ele>
        <time>2019-10-13T15:05:29.000Z</time>
      </trkpt>
      <trkpt lat="46.01009" lon="6.51839">
        <ele>1494.4000244141</ele>
        <time>2019-10-13T15:05:30.000Z</time>
      </trkpt>
      <trkpt lat="46.01008" lon="6.51838">
        <ele>1494.4000244141</ele>
        <time>2019-10-13T15:05:31.000Z</time>
      </trkpt>
      <trkpt lat="46.01002" lon="6.51832">
        <ele>1494.4000244141</ele>
        <time>2019-10-13T15:05:36.000Z</time>
      </trkpt>
      <trkpt lat="46.01001" lon="6.51832">
        <ele>1494.1999511719</ele>
        <time>2019-10-13T15:05:37.000Z</time>
      </trkpt>
      <trkpt lat="46.00999" lon="6.5183">
        <ele>1493.8000488281</ele>
        <time>2019-10-13T15:05:39.000Z</time>
      </trkpt>
      <trkpt lat="46.00997" lon="6.51829">
        <ele>1493.8000488281</ele>
        <time>2019-10-13T15:05:41.000Z</time>
      </trkpt>
      <trkpt lat="46.00996" lon="6.51828">
        <ele>1493.8000488281</ele>
        <time>2019-10-13T15:05:42.000Z</time>
      </trkpt>
      <trkpt lat="46.00993" lon="6.51824">
        <ele>1493.8000488281</ele>
        <time>2019-10-13T15:05:45.000Z</time>
      </trkpt>
      <trkpt lat="46.00992" lon="6.5182">
        <ele>1493.5999755859</ele>
        <time>2019-10-13T15:05:48.000Z</time>
      </trkpt>
      <trkpt lat="46.00991" lon="6.51818">
        <ele>1493.1999511719</ele>
        <time>2019-10-13T15:05:49.000Z</time>
      </trkpt>
      <trkpt lat="46.0099" lon="6.51817">
        <ele>1492.4000244141</ele>
        <time>2019-10-13T15:05:52.000Z</time>
      </trkpt>
      <trkpt lat="46.0099" lon="6.51816">
        <ele>1492.4000244141</ele>
        <time>2019-10-13T15:05:53.000Z</time>
      </trkpt>
      <trkpt lat="46.0099" lon="6.51816">
        <ele>1492.5999755859</ele>
        <time>2019-10-13T15:05:59.000Z</time>
      </trkpt>
      <trkpt lat="46.00988" lon="6.51814">
        <ele>1492.5999755859</ele>
        <time>2019-10-13T15:06:02.000Z</time>
      </trkpt>
      <trkpt lat="46.00982" lon="6.5181">
        <ele>1492.5999755859</ele>
        <time>2019-10-13T15:06:08.000Z</time>
      </trkpt>
      <trkpt lat="46.0098" lon="6.51809">
        <ele>1492.1999511719</ele>
        <time>2019-10-13T15:06:10.000Z</time>
      </trkpt>
      <trkpt lat="46.00979" lon="6.51808">
        <ele>1492.1999511719</ele>
        <time>2019-10-13T15:06:11.000Z</time>
      </trkpt>
      <trkpt lat="46.00978" lon="6.51807">
        <ele>1492</ele>
        <time>2019-10-13T15:06:12.000Z</time>
      </trkpt>
      <trkpt lat="46.00972" lon="6.51799">
        <ele>1491.4000244141</ele>
        <time>2019-10-13T15:06:17.000Z</time>
      </trkpt>
      <trkpt lat="46.00971" lon="6.51798">
        <ele>1491.4000244141</ele>
        <time>2019-10-13T15:06:18.000Z</time>
      </trkpt>
      <trkpt lat="46.00969" lon="6.51797">
        <ele>1491</ele>
        <time>2019-10-13T15:06:20.000Z</time>
      </trkpt>
      <trkpt lat="46.00962" lon="6.51794">
        <ele>1490.1999511719</ele>
        <time>2019-10-13T15:06:26.000Z</time>
      </trkpt>
      <trkpt lat="46.0096" lon="6.51792">
        <ele>1490.4000244141</ele>
        <time>2019-10-13T15:06:28.000Z</time>
      </trkpt>
      <trkpt lat="46.00959" lon="6.51791">
        <ele>1490.4000244141</ele>
        <time>2019-10-13T15:06:29.000Z</time>
      </trkpt>
      <trkpt lat="46.00954" lon="6.51789">
        <ele>1490.1999511719</ele>
        <time>2019-10-13T15:06:32.000Z</time>
      </trkpt>
      <trkpt lat="46.00952" lon="6.51787">
        <ele>1490</ele>
        <time>2019-10-13T15:06:34.000Z</time>
      </trkpt>
      <trkpt lat="46.00947" lon="6.51783">
        <ele>1489.8000488281</ele>
        <time>2019-10-13T15:06:38.000Z</time>
      </trkpt>
      <trkpt lat="46.00946" lon="6.51782">
        <ele>1489.5999755859</ele>
        <time>2019-10-13T15:06:39.000Z</time>
      </trkpt>
      <trkpt lat="46.00942" lon="6.5178">
        <ele>1488.8000488281</ele>
        <time>2019-10-13T15:06:43.000Z</time>
      </trkpt>
      <trkpt lat="46.00941" lon="6.51779">
        <ele>1488.4000244141</ele>
        <time>2019-10-13T15:06:44.000Z</time>
      </trkpt>
      <trkpt lat="46.00938" lon="6.51776">
        <ele>1488</ele>
        <time>2019-10-13T15:06:47.000Z</time>
      </trkpt>
      <trkpt lat="46.00933" lon="6.51769">
        <ele>1488.4000244141</ele>
        <time>2019-10-13T15:06:52.000Z</time>
      </trkpt>
      <trkpt lat="46.00934" lon="6.51767">
        <ele>1488.4000244141</ele>
        <time>2019-10-13T15:06:53.000Z</time>
      </trkpt>
      <trkpt lat="46.00937" lon="6.51764">
        <ele>1488</ele>
        <time>2019-10-13T15:07:04.000Z</time>
      </trkpt>
      <trkpt lat="46.00937" lon="6.51764">
        <ele>1487.8000488281</ele>
        <time>2019-10-13T15:07:05.000Z</time>
      </trkpt>
      <trkpt lat="46.00936" lon="6.51764">
        <ele>1487.5999755859</ele>
        <time>2019-10-13T15:07:07.000Z</time>
      </trkpt>
      <trkpt lat="46.00934" lon="6.51758">
        <ele>1487</ele>
        <time>2019-10-13T15:07:14.000Z</time>
      </trkpt>
      <trkpt lat="46.00934" lon="6.51757">
        <ele>1487.1999511719</ele>
        <time>2019-10-13T15:07:17.000Z</time>
      </trkpt>
      <trkpt lat="46.00933" lon="6.51758">
        <ele>1487.4000244141</ele>
        <time>2019-10-13T15:07:19.000Z</time>
      </trkpt>
      <trkpt lat="46.00932" lon="6.51757">
        <ele>1487.4000244141</ele>
        <time>2019-10-13T15:07:24.000Z</time>
      </trkpt>
      <trkpt lat="46.00934" lon="6.51761">
        <ele>1487.1999511719</ele>
        <time>2019-10-13T15:07:30.000Z</time>
      </trkpt>
      <trkpt lat="46.00934" lon="6.51765">
        <ele>1487.1999511719</ele>
        <time>2019-10-13T15:07:33.000Z</time>
      </trkpt>
      <trkpt lat="46.00933" lon="6.51768">
        <ele>1487.1999511719</ele>
        <time>2019-10-13T15:07:35.000Z</time>
      </trkpt>
      <trkpt lat="46.00935" lon="6.5177">
        <ele>1487.1999511719</ele>
        <time>2019-10-13T15:07:40.000Z</time>
      </trkpt>
      <trkpt lat="46.00942" lon="6.51768">
        <ele>1487</ele>
        <time>2019-10-13T15:07:48.000Z</time>
      </trkpt>
      <trkpt lat="46.00944" lon="6.51769">
        <ele>1487</ele>
        <time>2019-10-13T15:07:50.000Z</time>
      </trkpt>
      <trkpt lat="46.00945" lon="6.51773">
        <ele>1486.8000488281</ele>
        <time>2019-10-13T15:07:56.000Z</time>
      </trkpt>
      <trkpt lat="46.00945" lon="6.51777">
        <ele>1486.5999755859</ele>
        <time>2019-10-13T15:07:58.000Z</time>
      </trkpt>
      <trkpt lat="46.00945" lon="6.51778">
        <ele>1486.4000244141</ele>
        <time>2019-10-13T15:07:59.000Z</time>
      </trkpt>
      <trkpt lat="46.00945" lon="6.51779">
        <ele>1486.1999511719</ele>
        <time>2019-10-13T15:08:00.000Z</time>
      </trkpt>
      <trkpt lat="46.00945" lon="6.51784">
        <ele>1485.8000488281</ele>
        <time>2019-10-13T15:08:02.000Z</time>
      </trkpt>
      <trkpt lat="46.0094" lon="6.51786">
        <ele>1485.4000244141</ele>
        <time>2019-10-13T15:08:05.000Z</time>
      </trkpt>
      <trkpt lat="46.00938" lon="6.51786">
        <ele>1485.4000244141</ele>
        <time>2019-10-13T15:08:06.000Z</time>
      </trkpt>
      <trkpt lat="46.00936" lon="6.51786">
        <ele>1485.1999511719</ele>
        <time>2019-10-13T15:08:07.000Z</time>
      </trkpt>
      <trkpt lat="46.00932" lon="6.51785">
        <ele>1485</ele>
        <time>2019-10-13T15:08:09.000Z</time>
      </trkpt>
      <trkpt lat="46.0093" lon="6.51786">
        <ele>1484.5999755859</ele>
        <time>2019-10-13T15:08:10.000Z</time>
      </trkpt>
      <trkpt lat="46.00928" lon="6.51786">
        <ele>1484</ele>
        <time>2019-10-13T15:08:11.000Z</time>
      </trkpt>
      <trkpt lat="46.00923" lon="6.51787">
        <ele>1482.8000488281</ele>
        <time>2019-10-13T15:08:14.000Z</time>
      </trkpt>
      <trkpt lat="46.0092" lon="6.51789">
        <ele>1481.8000488281</ele>
        <time>2019-10-13T15:08:17.000Z</time>
      </trkpt>
      <trkpt lat="46.00919" lon="6.5179">
        <ele>1481.5999755859</ele>
        <time>2019-10-13T15:08:19.000Z</time>
      </trkpt>
      <trkpt lat="46.00918" lon="6.5179">
        <ele>1481.4000244141</ele>
        <time>2019-10-13T15:08:20.000Z</time>
      </trkpt>
      <trkpt lat="46.00917" lon="6.51789">
        <ele>1480.8000488281</ele>
        <time>2019-10-13T15:08:25.000Z</time>
      </trkpt>
      <trkpt lat="46.00919" lon="6.51791">
        <ele>1480.5999755859</ele>
        <time>2019-10-13T15:08:28.000Z</time>
      </trkpt>
      <trkpt lat="46.00919" lon="6.51794">
        <ele>1480.1999511719</ele>
        <time>2019-10-13T15:08:30.000Z</time>
      </trkpt>
      <trkpt lat="46.00919" lon="6.51797">
        <ele>1479.5999755859</ele>
        <time>2019-10-13T15:08:32.000Z</time>
      </trkpt>
      <trkpt lat="46.0092" lon="6.51801">
        <ele>1478.5999755859</ele>
        <time>2019-10-13T15:08:34.000Z</time>
      </trkpt>
      <trkpt lat="46.0092" lon="6.51803">
        <ele>1478.4000244141</ele>
        <time>2019-10-13T15:08:35.000Z</time>
      </trkpt>
      <trkpt lat="46.0092" lon="6.51804">
        <ele>1478</ele>
        <time>2019-10-13T15:08:36.000Z</time>
      </trkpt>
      <trkpt lat="46.00919" lon="6.51806">
        <ele>1477.5999755859</ele>
        <time>2019-10-13T15:08:38.000Z</time>
      </trkpt>
      <trkpt lat="46.00919" lon="6.51808">
        <ele>1477.4000244141</ele>
        <time>2019-10-13T15:08:39.000Z</time>
      </trkpt>
      <trkpt lat="46.00919" lon="6.51809">
        <ele>1477</ele>
        <time>2019-10-13T15:08:40.000Z</time>
      </trkpt>
      <trkpt lat="46.00919" lon="6.51811">
        <ele>1476.5999755859</ele>
        <time>2019-10-13T15:08:41.000Z</time>
      </trkpt>
      <trkpt lat="46.00919" lon="6.51812">
        <ele>1476.1999511719</ele>
        <time>2019-10-13T15:08:42.000Z</time>
      </trkpt>
      <trkpt lat="46.0092" lon="6.51814">
        <ele>1475.8000488281</ele>
        <time>2019-10-13T15:08:43.000Z</time>
      </trkpt>
      <trkpt lat="46.0092" lon="6.51817">
        <ele>1474.5999755859</ele>
        <time>2019-10-13T15:08:45.000Z</time>
      </trkpt>
      <trkpt lat="46.0092" lon="6.51819">
        <ele>1474.1999511719</ele>
        <time>2019-10-13T15:08:46.000Z</time>
      </trkpt>
      <trkpt lat="46.0092" lon="6.51821">
        <ele>1473.5999755859</ele>
        <time>2019-10-13T15:08:48.000Z</time>
      </trkpt>
      <trkpt lat="46.00919" lon="6.51822">
        <ele>1473.1999511719</ele>
        <time>2019-10-13T15:08:49.000Z</time>
      </trkpt>
      <trkpt lat="46.00919" lon="6.51823">
        <ele>1472.8000488281</ele>
        <time>2019-10-13T15:08:51.000Z</time>
      </trkpt>
      <trkpt lat="46.0092" lon="6.51825">
        <ele>1472.4000244141</ele>
        <time>2019-10-13T15:08:56.000Z</time>
      </trkpt>
      <trkpt lat="46.00922" lon="6.51827">
        <ele>1471.4000244141</ele>
        <time>2019-10-13T15:09:00.000Z</time>
      </trkpt>
      <trkpt lat="46.00923" lon="6.51828">
        <ele>1471</ele>
        <time>2019-10-13T15:09:02.000Z</time>
      </trkpt>
      <trkpt lat="46.00926" lon="6.51835">
        <ele>1470.1999511719</ele>
        <time>2019-10-13T15:09:07.000Z</time>
      </trkpt>
      <trkpt lat="46.00928" lon="6.51838">
        <ele>1469.4000244141</ele>
        <time>2019-10-13T15:09:09.000Z</time>
      </trkpt>
      <trkpt lat="46.00928" lon="6.51839">
        <ele>1469</ele>
        <time>2019-10-13T15:09:10.000Z</time>
      </trkpt>
      <trkpt lat="46.00929" lon="6.5184">
        <ele>1468.4000244141</ele>
        <time>2019-10-13T15:09:12.000Z</time>
      </trkpt>
      <trkpt lat="46.00931" lon="6.51839">
        <ele>1468.1999511719</ele>
        <time>2019-10-13T15:09:15.000Z</time>
      </trkpt>
      <trkpt lat="46.00933" lon="6.5184">
        <ele>1468.1999511719</ele>
        <time>2019-10-13T15:09:16.000Z</time>
      </trkpt>
      <trkpt lat="46.00935" lon="6.51841">
        <ele>1468</ele>
        <time>2019-10-13T15:09:18.000Z</time>
      </trkpt>
      <trkpt lat="46.00938" lon="6.51841">
        <ele>1468.1999511719</ele>
        <time>2019-10-13T15:09:21.000Z</time>
      </trkpt>
      <trkpt lat="46.00939" lon="6.51844">
        <ele>1468.1999511719</ele>
        <time>2019-10-13T15:09:23.000Z</time>
      </trkpt>
      <trkpt lat="46.00938" lon="6.51847">
        <ele>1468.1999511719</ele>
        <time>2019-10-13T15:09:25.000Z</time>
      </trkpt>
      <trkpt lat="46.00938" lon="6.51848">
        <ele>1468.1999511719</ele>
        <time>2019-10-13T15:09:26.000Z</time>
      </trkpt>
      <trkpt lat="46.00938" lon="6.51849">
        <ele>1468.1999511719</ele>
        <time>2019-10-13T15:09:27.000Z</time>
      </trkpt>
      <trkpt lat="46.00938" lon="6.51852">
        <ele>1468.1999511719</ele>
        <time>2019-10-13T15:09:28.000Z</time>
      </trkpt>
      <trkpt lat="46.00939" lon="6.51853">
        <ele>1468.1999511719</ele>
        <time>2019-10-13T15:09:30.000Z</time>
      </trkpt>
      <trkpt lat="46.0094" lon="6.51853">
        <ele>1468.1999511719</ele>
        <time>2019-10-13T15:09:32.000Z</time>
      </trkpt>
      <trkpt lat="46.0094" lon="6.51851">
        <ele>1468</ele>
        <time>2019-10-13T15:09:36.000Z</time>
      </trkpt>
      <trkpt lat="46.00944" lon="6.51854">
        <ele>1467.4000244141</ele>
        <time>2019-10-13T15:09:40.000Z</time>
      </trkpt>
      <trkpt lat="46.00945" lon="6.51855">
        <ele>1467.4000244141</ele>
        <time>2019-10-13T15:09:42.000Z</time>
      </trkpt>
      <trkpt lat="46.00947" lon="6.51854">
        <ele>1467.5999755859</ele>
        <time>2019-10-13T15:09:45.000Z</time>
      </trkpt>
      <trkpt lat="46.00948" lon="6.51854">
        <ele>1467.5999755859</ele>
        <time>2019-10-13T15:09:46.000Z</time>
      </trkpt>
      <trkpt lat="46.00951" lon="6.51856">
        <ele>1468</ele>
        <time>2019-10-13T15:09:51.000Z</time>
      </trkpt>
      <trkpt lat="46.00951" lon="6.5186">
        <ele>1468.1999511719</ele>
        <time>2019-10-13T15:09:56.000Z</time>
      </trkpt>
      <trkpt lat="46.00953" lon="6.51863">
        <ele>1468.1999511719</ele>
        <time>2019-10-13T15:09:59.000Z</time>
      </trkpt>
      <trkpt lat="46.00959" lon="6.51864">
        <ele>1468.4000244141</ele>
        <time>2019-10-13T15:10:04.000Z</time>
      </trkpt>
      <trkpt lat="46.00962" lon="6.51865">
        <ele>1468.4000244141</ele>
        <time>2019-10-13T15:10:06.000Z</time>
      </trkpt>
      <trkpt lat="46.00965" lon="6.51868">
        <ele>1468.4000244141</ele>
        <time>2019-10-13T15:10:10.000Z</time>
      </trkpt>
      <trkpt lat="46.00967" lon="6.51869">
        <ele>1468.1999511719</ele>
        <time>2019-10-13T15:10:12.000Z</time>
      </trkpt>
      <trkpt lat="46.00968" lon="6.51871">
        <ele>1468</ele>
        <time>2019-10-13T15:10:16.000Z</time>
      </trkpt>
      <trkpt lat="46.00969" lon="6.51872">
        <ele>1467.8000488281</ele>
        <time>2019-10-13T15:10:18.000Z</time>
      </trkpt>
      <trkpt lat="46.00971" lon="6.51879">
        <ele>1467.8000488281</ele>
        <time>2019-10-13T15:10:23.000Z</time>
      </trkpt>
      <trkpt lat="46.00972" lon="6.51879">
        <ele>1467.5999755859</ele>
        <time>2019-10-13T15:10:24.000Z</time>
      </trkpt>
      <trkpt lat="46.00974" lon="6.51878">
        <ele>1467.1999511719</ele>
        <time>2019-10-13T15:10:27.000Z</time>
      </trkpt>
      <trkpt lat="46.00976" lon="6.51882">
        <ele>1467</ele>
        <time>2019-10-13T15:10:31.000Z</time>
      </trkpt>
      <trkpt lat="46.00978" lon="6.51886">
        <ele>1466.8000488281</ele>
        <time>2019-10-13T15:10:34.000Z</time>
      </trkpt>
      <trkpt lat="46.00977" lon="6.51888">
        <ele>1466.5999755859</ele>
        <time>2019-10-13T15:10:37.000Z</time>
      </trkpt>
      <trkpt lat="46.00975" lon="6.51889">
        <ele>1466.4000244141</ele>
        <time>2019-10-13T15:10:42.000Z</time>
      </trkpt>
      <trkpt lat="46.00976" lon="6.5189">
        <ele>1466.4000244141</ele>
        <time>2019-10-13T15:10:44.000Z</time>
      </trkpt>
      <trkpt lat="46.00975" lon="6.5189">
        <ele>1466.8000488281</ele>
        <time>2019-10-13T15:10:51.000Z</time>
      </trkpt>
      <trkpt lat="46.00974" lon="6.51891">
        <ele>1466.5999755859</ele>
        <time>2019-10-13T15:10:52.000Z</time>
      </trkpt>
      <trkpt lat="46.00979" lon="6.51892">
        <ele>1466.5999755859</ele>
        <time>2019-10-13T15:11:00.000Z</time>
      </trkpt>
      <trkpt lat="46.00982" lon="6.51892">
        <ele>1465.8000488281</ele>
        <time>2019-10-13T15:11:04.000Z</time>
      </trkpt>
      <trkpt lat="46.00982" lon="6.51892">
        <ele>1465.4000244141</ele>
        <time>2019-10-13T15:11:06.000Z</time>
      </trkpt>
      <trkpt lat="46.00983" lon="6.51888">
        <ele>1464.4000244141</ele>
        <time>2019-10-13T15:11:10.000Z</time>
      </trkpt>
      <trkpt lat="46.00983" lon="6.51889">
        <ele>1463.8000488281</ele>
        <time>2019-10-13T15:11:13.000Z</time>
      </trkpt>
      <trkpt lat="46.00982" lon="6.5189">
        <ele>1463.5999755859</ele>
        <time>2019-10-13T15:11:15.000Z</time>
      </trkpt>
      <trkpt lat="46.0098" lon="6.5189">
        <ele>1463.5999755859</ele>
        <time>2019-10-13T15:11:19.000Z</time>
      </trkpt>
      <trkpt lat="46.00984" lon="6.51889">
        <ele>1463.4000244141</ele>
        <time>2019-10-13T15:11:24.000Z</time>
      </trkpt>
      <trkpt lat="46.00988" lon="6.5189">
        <ele>1463.1999511719</ele>
        <time>2019-10-13T15:11:26.000Z</time>
      </trkpt>
      <trkpt lat="46.00992" lon="6.51888">
        <ele>1463</ele>
        <time>2019-10-13T15:11:29.000Z</time>
      </trkpt>
      <trkpt lat="46.00993" lon="6.51887">
        <ele>1462.8000488281</ele>
        <time>2019-10-13T15:11:30.000Z</time>
      </trkpt>
      <trkpt lat="46.00997" lon="6.51886">
        <ele>1462</ele>
        <time>2019-10-13T15:11:34.000Z</time>
      </trkpt>
      <trkpt lat="46.00996" lon="6.51887">
        <ele>1461.5999755859</ele>
        <time>2019-10-13T15:11:37.000Z</time>
      </trkpt>
      <trkpt lat="46.00991" lon="6.51894">
        <ele>1461</ele>
        <time>2019-10-13T15:11:43.000Z</time>
      </trkpt>
      <trkpt lat="46.00992" lon="6.51898">
        <ele>1459.8000488281</ele>
        <time>2019-10-13T15:11:48.000Z</time>
      </trkpt>
      <trkpt lat="46.00992" lon="6.51899">
        <ele>1459.4000244141</ele>
        <time>2019-10-13T15:11:49.000Z</time>
      </trkpt>
      <trkpt lat="46.00994" lon="6.51903">
        <ele>1458.5999755859</ele>
        <time>2019-10-13T15:11:53.000Z</time>
      </trkpt>
      <trkpt lat="46.00996" lon="6.51905">
        <ele>1458</ele>
        <time>2019-10-13T15:11:56.000Z</time>
      </trkpt>
      <trkpt lat="46.00997" lon="6.51903">
        <ele>1457.5999755859</ele>
        <time>2019-10-13T15:12:02.000Z</time>
      </trkpt>
      <trkpt lat="46.00999" lon="6.51903">
        <ele>1457.1999511719</ele>
        <time>2019-10-13T15:12:06.000Z</time>
      </trkpt>
      <trkpt lat="46.01001" lon="6.51904">
        <ele>1457.1999511719</ele>
        <time>2019-10-13T15:12:08.000Z</time>
      </trkpt>
      <trkpt lat="46.01006" lon="6.51903">
        <ele>1456.1999511719</ele>
        <time>2019-10-13T15:12:13.000Z</time>
      </trkpt>
      <trkpt lat="46.01007" lon="6.51903">
        <ele>1456</ele>
        <time>2019-10-13T15:12:14.000Z</time>
      </trkpt>
      <trkpt lat="46.01008" lon="6.51903">
        <ele>1455.8000488281</ele>
        <time>2019-10-13T15:12:15.000Z</time>
      </trkpt>
      <trkpt lat="46.01011" lon="6.51908">
        <ele>1455</ele>
        <time>2019-10-13T15:12:18.000Z</time>
      </trkpt>
      <trkpt lat="46.01014" lon="6.51909">
        <ele>1454.5999755859</ele>
        <time>2019-10-13T15:12:21.000Z</time>
      </trkpt>
      <trkpt lat="46.01017" lon="6.5191">
        <ele>1454</ele>
        <time>2019-10-13T15:12:24.000Z</time>
      </trkpt>
      <trkpt lat="46.01021" lon="6.51911">
        <ele>1453.5999755859</ele>
        <time>2019-10-13T15:12:28.000Z</time>
      </trkpt>
      <trkpt lat="46.01023" lon="6.51914">
        <ele>1453</ele>
        <time>2019-10-13T15:12:33.000Z</time>
      </trkpt>
      <trkpt lat="46.01023" lon="6.51914">
        <ele>1453</ele>
        <time>2019-10-13T15:12:34.000Z</time>
      </trkpt>
      <trkpt lat="46.01023" lon="6.51915">
        <ele>1452.8000488281</ele>
        <time>2019-10-13T15:12:35.000Z</time>
      </trkpt>
      <trkpt lat="46.01025" lon="6.51919">
        <ele>1452.1999511719</ele>
        <time>2019-10-13T15:12:39.000Z</time>
      </trkpt>
      <trkpt lat="46.01028" lon="6.5192">
        <ele>1452</ele>
        <time>2019-10-13T15:12:44.000Z</time>
      </trkpt>
      <trkpt lat="46.01029" lon="6.51922">
        <ele>1452</ele>
        <time>2019-10-13T15:12:46.000Z</time>
      </trkpt>
      <trkpt lat="46.0103" lon="6.51932">
        <ele>1451.8000488281</ele>
        <time>2019-10-13T15:12:52.000Z</time>
      </trkpt>
      <trkpt lat="46.0103" lon="6.51933">
        <ele>1451.8000488281</ele>
        <time>2019-10-13T15:12:53.000Z</time>
      </trkpt>
      <trkpt lat="46.01031" lon="6.51934">
        <ele>1452</ele>
        <time>2019-10-13T15:12:56.000Z</time>
      </trkpt>
      <trkpt lat="46.01031" lon="6.51933">
        <ele>1452</ele>
        <time>2019-10-13T15:12:59.000Z</time>
      </trkpt>
      <trkpt lat="46.01035" lon="6.51941">
        <ele>1451.8000488281</ele>
        <time>2019-10-13T15:13:06.000Z</time>
      </trkpt>
      <trkpt lat="46.01036" lon="6.51942">
        <ele>1451.5999755859</ele>
        <time>2019-10-13T15:13:07.000Z</time>
      </trkpt>
      <trkpt lat="46.01038" lon="6.51946">
        <ele>1451.1999511719</ele>
        <time>2019-10-13T15:13:09.000Z</time>
      </trkpt>
      <trkpt lat="46.01039" lon="6.51948">
        <ele>1451</ele>
        <time>2019-10-13T15:13:10.000Z</time>
      </trkpt>
      <trkpt lat="46.0104" lon="6.5195">
        <ele>1451</ele>
        <time>2019-10-13T15:13:11.000Z</time>
      </trkpt>
      <trkpt lat="46.01042" lon="6.51954">
        <ele>1451</ele>
        <time>2019-10-13T15:13:13.000Z</time>
      </trkpt>
      <trkpt lat="46.01041" lon="6.51954">
        <ele>1451</ele>
        <time>2019-10-13T15:13:16.000Z</time>
      </trkpt>
      <trkpt lat="46.01036" lon="6.51954">
        <ele>1450.8000488281</ele>
        <time>2019-10-13T15:13:21.000Z</time>
      </trkpt>
      <trkpt lat="46.01033" lon="6.51957">
        <ele>1450.5999755859</ele>
        <time>2019-10-13T15:13:29.000Z</time>
      </trkpt>
      <trkpt lat="46.01025" lon="6.51958">
        <ele>1450.5999755859</ele>
        <time>2019-10-13T15:13:38.000Z</time>
      </trkpt>
      <trkpt lat="46.01027" lon="6.5196">
        <ele>1450.1999511719</ele>
        <time>2019-10-13T15:13:42.000Z</time>
      </trkpt>
      <trkpt lat="46.01028" lon="6.51962">
        <ele>1449.5999755859</ele>
        <time>2019-10-13T15:13:44.000Z</time>
      </trkpt>
      <trkpt lat="46.01028" lon="6.51962">
        <ele>1449.4000244141</ele>
        <time>2019-10-13T15:13:45.000Z</time>
      </trkpt>
      <trkpt lat="46.01028" lon="6.51967">
        <ele>1448.8000488281</ele>
        <time>2019-10-13T15:13:51.000Z</time>
      </trkpt>
      <trkpt lat="46.01028" lon="6.51968">
        <ele>1448.4000244141</ele>
        <time>2019-10-13T15:13:55.000Z</time>
      </trkpt>
      <trkpt lat="46.01029" lon="6.51969">
        <ele>1447.8000488281</ele>
        <time>2019-10-13T15:13:57.000Z</time>
      </trkpt>
      <trkpt lat="46.0103" lon="6.51969">
        <ele>1447</ele>
        <time>2019-10-13T15:14:00.000Z</time>
      </trkpt>
      <trkpt lat="46.0103" lon="6.51969">
        <ele>1446.8000488281</ele>
        <time>2019-10-13T15:14:01.000Z</time>
      </trkpt>
      <trkpt lat="46.01031" lon="6.51968">
        <ele>1446</ele>
        <time>2019-10-13T15:14:04.000Z</time>
      </trkpt>
      <trkpt lat="46.01029" lon="6.51968">
        <ele>1445.5999755859</ele>
        <time>2019-10-13T15:14:11.000Z</time>
      </trkpt>
      <trkpt lat="46.01028" lon="6.51966">
        <ele>1444.8000488281</ele>
        <time>2019-10-13T15:14:14.000Z</time>
      </trkpt>
      <trkpt lat="46.01031" lon="6.51968">
        <ele>1444</ele>
        <time>2019-10-13T15:14:17.000Z</time>
      </trkpt>
      <trkpt lat="46.01032" lon="6.5197">
        <ele>1443.8000488281</ele>
        <time>2019-10-13T15:14:19.000Z</time>
      </trkpt>
      <trkpt lat="46.01034" lon="6.51973">
        <ele>1443</ele>
        <time>2019-10-13T15:14:25.000Z</time>
      </trkpt>
      <trkpt lat="46.01033" lon="6.51975">
        <ele>1442.5999755859</ele>
        <time>2019-10-13T15:14:27.000Z</time>
      </trkpt>
      <trkpt lat="46.01031" lon="6.51977">
        <ele>1442</ele>
        <time>2019-10-13T15:14:31.000Z</time>
      </trkpt>
      <trkpt lat="46.01024" lon="6.51978">
        <ele>1441.5999755859</ele>
        <time>2019-10-13T15:14:36.000Z</time>
      </trkpt>
      <trkpt lat="46.01018" lon="6.51974">
        <ele>1441.1999511719</ele>
        <time>2019-10-13T15:14:42.000Z</time>
      </trkpt>
      <trkpt lat="46.01017" lon="6.51975">
        <ele>1441.4000244141</ele>
        <time>2019-10-13T15:14:46.000Z</time>
      </trkpt>
      <trkpt lat="46.01024" lon="6.51978">
        <ele>1441.1999511719</ele>
        <time>2019-10-13T15:14:53.000Z</time>
      </trkpt>
      <trkpt lat="46.0102" lon="6.51977">
        <ele>1440.8000488281</ele>
        <time>2019-10-13T15:15:04.000Z</time>
      </trkpt>
      <trkpt lat="46.0102" lon="6.51977">
        <ele>1440.8000488281</ele>
        <time>2019-10-13T15:15:05.000Z</time>
      </trkpt>
      <trkpt lat="46.01016" lon="6.51979">
        <ele>1440.5999755859</ele>
        <time>2019-10-13T15:15:11.000Z</time>
      </trkpt>
      <trkpt lat="46.01012" lon="6.5198">
        <ele>1439.4000244141</ele>
        <time>2019-10-13T15:15:14.000Z</time>
      </trkpt>
      <trkpt lat="46.01011" lon="6.51979">
        <ele>1439</ele>
        <time>2019-10-13T15:15:15.000Z</time>
      </trkpt>
      <trkpt lat="46.01009" lon="6.51979">
        <ele>1438.4000244141</ele>
        <time>2019-10-13T15:15:16.000Z</time>
      </trkpt>
      <trkpt lat="46.01008" lon="6.51979">
        <ele>1437.8000488281</ele>
        <time>2019-10-13T15:15:17.000Z</time>
      </trkpt>
      <trkpt lat="46.01004" lon="6.51978">
        <ele>1437.1999511719</ele>
        <time>2019-10-13T15:15:19.000Z</time>
      </trkpt>
      <trkpt lat="46.01002" lon="6.51978">
        <ele>1436.8000488281</ele>
        <time>2019-10-13T15:15:20.000Z</time>
      </trkpt>
      <trkpt lat="46.01" lon="6.51977">
        <ele>1436.4000244141</ele>
        <time>2019-10-13T15:15:21.000Z</time>
      </trkpt>
      <trkpt lat="46.00998" lon="6.51978">
        <ele>1435.8000488281</ele>
        <time>2019-10-13T15:15:22.000Z</time>
      </trkpt>
      <trkpt lat="46.00996" lon="6.51979">
        <ele>1435.5999755859</ele>
        <time>2019-10-13T15:15:23.000Z</time>
      </trkpt>
      <trkpt lat="46.00995" lon="6.51979">
        <ele>1435.4000244141</ele>
        <time>2019-10-13T15:15:24.000Z</time>
      </trkpt>
      <trkpt lat="46.00994" lon="6.51978">
        <ele>1435.4000244141</ele>
        <time>2019-10-13T15:15:25.000Z</time>
      </trkpt>
      <trkpt lat="46.00991" lon="6.51978">
        <ele>1435.4000244141</ele>
        <time>2019-10-13T15:15:27.000Z</time>
      </trkpt>
      <trkpt lat="46.0099" lon="6.51978">
        <ele>1435.4000244141</ele>
        <time>2019-10-13T15:15:28.000Z</time>
      </trkpt>
      <trkpt lat="46.00989" lon="6.51976">
        <ele>1435.4000244141</ele>
        <time>2019-10-13T15:15:30.000Z</time>
      </trkpt>
      <trkpt lat="46.00989" lon="6.51976">
        <ele>1435.4000244141</ele>
        <time>2019-10-13T15:15:31.000Z</time>
      </trkpt>
      <trkpt lat="46.00988" lon="6.51976">
        <ele>1435.1999511719</ele>
        <time>2019-10-13T15:15:32.000Z</time>
      </trkpt>
      <trkpt lat="46.00986" lon="6.51976">
        <ele>1434.8000488281</ele>
        <time>2019-10-13T15:15:34.000Z</time>
      </trkpt>
      <trkpt lat="46.00984" lon="6.51974">
        <ele>1434.8000488281</ele>
        <time>2019-10-13T15:15:37.000Z</time>
      </trkpt>
      <trkpt lat="46.00983" lon="6.51972">
        <ele>1434.5999755859</ele>
        <time>2019-10-13T15:15:39.000Z</time>
      </trkpt>
      <trkpt lat="46.00982" lon="6.51972">
        <ele>1434.5999755859</ele>
        <time>2019-10-13T15:15:41.000Z</time>
      </trkpt>
      <trkpt lat="46.0098" lon="6.5197">
        <ele>1434.5999755859</ele>
        <time>2019-10-13T15:15:43.000Z</time>
      </trkpt>
      <trkpt lat="46.0098" lon="6.51969">
        <ele>1434.1999511719</ele>
        <time>2019-10-13T15:15:45.000Z</time>
      </trkpt>
      <trkpt lat="46.0098" lon="6.5197">
        <ele>1433.4000244141</ele>
        <time>2019-10-13T15:15:47.000Z</time>
      </trkpt>
      <trkpt lat="46.00981" lon="6.5197">
        <ele>1433</ele>
        <time>2019-10-13T15:15:48.000Z</time>
      </trkpt>
      <trkpt lat="46.00981" lon="6.51969">
        <ele>1432.5999755859</ele>
        <time>2019-10-13T15:15:49.000Z</time>
      </trkpt>
      <trkpt lat="46.00982" lon="6.51969">
        <ele>1432</ele>
        <time>2019-10-13T15:15:50.000Z</time>
      </trkpt>
      <trkpt lat="46.00982" lon="6.5197">
        <ele>1431.8000488281</ele>
        <time>2019-10-13T15:15:51.000Z</time>
      </trkpt>
      <trkpt lat="46.00984" lon="6.51972">
        <ele>1431.5999755859</ele>
        <time>2019-10-13T15:15:55.000Z</time>
      </trkpt>
      <trkpt lat="46.00986" lon="6.51973">
        <ele>1431.5999755859</ele>
        <time>2019-10-13T15:15:57.000Z</time>
      </trkpt>
      <trkpt lat="46.00987" lon="6.51974">
        <ele>1431.5999755859</ele>
        <time>2019-10-13T15:15:58.000Z</time>
      </trkpt>
      <trkpt lat="46.0099" lon="6.51976">
        <ele>1431.4000244141</ele>
        <time>2019-10-13T15:16:01.000Z</time>
      </trkpt>
      <trkpt lat="46.00991" lon="6.51976">
        <ele>1431.1999511719</ele>
        <time>2019-10-13T15:16:03.000Z</time>
      </trkpt>
      <trkpt lat="46.00992" lon="6.51977">
        <ele>1431</ele>
        <time>2019-10-13T15:16:04.000Z</time>
      </trkpt>
      <trkpt lat="46.00994" lon="6.51981">
        <ele>1430.5999755859</ele>
        <time>2019-10-13T15:16:06.000Z</time>
      </trkpt>
      <trkpt lat="46.00998" lon="6.51987">
        <ele>1430.1999511719</ele>
        <time>2019-10-13T15:16:09.000Z</time>
      </trkpt>
      <trkpt lat="46.01" lon="6.51994">
        <ele>1430.4000244141</ele>
        <time>2019-10-13T15:16:13.000Z</time>
      </trkpt>
      <trkpt lat="46.01001" lon="6.51995">
        <ele>1430.4000244141</ele>
        <time>2019-10-13T15:16:14.000Z</time>
      </trkpt>
      <trkpt lat="46.01002" lon="6.51999">
        <ele>1430.1999511719</ele>
        <time>2019-10-13T15:16:16.000Z</time>
      </trkpt>
      <trkpt lat="46.01003" lon="6.52001">
        <ele>1429.8000488281</ele>
        <time>2019-10-13T15:16:17.000Z</time>
      </trkpt>
      <trkpt lat="46.01004" lon="6.52004">
        <ele>1428.5999755859</ele>
        <time>2019-10-13T15:16:19.000Z</time>
      </trkpt>
      <trkpt lat="46.01007" lon="6.52005">
        <ele>1427.8000488281</ele>
        <time>2019-10-13T15:16:21.000Z</time>
      </trkpt>
      <trkpt lat="46.01008" lon="6.52006">
        <ele>1427.4000244141</ele>
        <time>2019-10-13T15:16:22.000Z</time>
      </trkpt>
      <trkpt lat="46.01009" lon="6.52006">
        <ele>1427.1999511719</ele>
        <time>2019-10-13T15:16:23.000Z</time>
      </trkpt>
      <trkpt lat="46.01011" lon="6.52007">
        <ele>1426.8000488281</ele>
        <time>2019-10-13T15:16:24.000Z</time>
      </trkpt>
      <trkpt lat="46.01014" lon="6.52008">
        <ele>1426.1999511719</ele>
        <time>2019-10-13T15:16:26.000Z</time>
      </trkpt>
      <trkpt lat="46.01018" lon="6.5201">
        <ele>1425</ele>
        <time>2019-10-13T15:16:28.000Z</time>
      </trkpt>
      <trkpt lat="46.01021" lon="6.52013">
        <ele>1424.1999511719</ele>
        <time>2019-10-13T15:16:29.000Z</time>
      </trkpt>
      <trkpt lat="46.01022" lon="6.52015">
        <ele>1423.4000244141</ele>
        <time>2019-10-13T15:16:30.000Z</time>
      </trkpt>
      <trkpt lat="46.01024" lon="6.52017">
        <ele>1423</ele>
        <time>2019-10-13T15:16:31.000Z</time>
      </trkpt>
      <trkpt lat="46.01026" lon="6.52018">
        <ele>1422.5999755859</ele>
        <time>2019-10-13T15:16:32.000Z</time>
      </trkpt>
      <trkpt lat="46.01027" lon="6.5202">
        <ele>1422.1999511719</ele>
        <time>2019-10-13T15:16:33.000Z</time>
      </trkpt>
      <trkpt lat="46.0103" lon="6.52023">
        <ele>1421.4000244141</ele>
        <time>2019-10-13T15:16:35.000Z</time>
      </trkpt>
      <trkpt lat="46.0103" lon="6.52026">
        <ele>1420.8000488281</ele>
        <time>2019-10-13T15:16:36.000Z</time>
      </trkpt>
      <trkpt lat="46.01031" lon="6.52029">
        <ele>1420.1999511719</ele>
        <time>2019-10-13T15:16:37.000Z</time>
      </trkpt>
      <trkpt lat="46.01032" lon="6.52031">
        <ele>1419.5999755859</ele>
        <time>2019-10-13T15:16:38.000Z</time>
      </trkpt>
      <trkpt lat="46.01034" lon="6.52034">
        <ele>1418.4000244141</ele>
        <time>2019-10-13T15:16:40.000Z</time>
      </trkpt>
      <trkpt lat="46.01036" lon="6.52037">
        <ele>1418.1999511719</ele>
        <time>2019-10-13T15:16:42.000Z</time>
      </trkpt>
      <trkpt lat="46.0104" lon="6.52042">
        <ele>1417.4000244141</ele>
        <time>2019-10-13T15:16:45.000Z</time>
      </trkpt>
      <trkpt lat="46.01041" lon="6.52045">
        <ele>1417</ele>
        <time>2019-10-13T15:16:46.000Z</time>
      </trkpt>
      <trkpt lat="46.01042" lon="6.52047">
        <ele>1416.4000244141</ele>
        <time>2019-10-13T15:16:47.000Z</time>
      </trkpt>
      <trkpt lat="46.01043" lon="6.52049">
        <ele>1415.5999755859</ele>
        <time>2019-10-13T15:16:48.000Z</time>
      </trkpt>
      <trkpt lat="46.01047" lon="6.52057">
        <ele>1414.8000488281</ele>
        <time>2019-10-13T15:16:51.000Z</time>
      </trkpt>
      <trkpt lat="46.01047" lon="6.52059">
        <ele>1414.4000244141</ele>
        <time>2019-10-13T15:16:52.000Z</time>
      </trkpt>
      <trkpt lat="46.0105" lon="6.52067">
        <ele>1413.4000244141</ele>
        <time>2019-10-13T15:16:55.000Z</time>
      </trkpt>
      <trkpt lat="46.01051" lon="6.52071">
        <ele>1412.5999755859</ele>
        <time>2019-10-13T15:16:56.000Z</time>
      </trkpt>
      <trkpt lat="46.01052" lon="6.52074">
        <ele>1411.8000488281</ele>
        <time>2019-10-13T15:16:57.000Z</time>
      </trkpt>
      <trkpt lat="46.01055" lon="6.52086">
        <ele>1410.5999755859</ele>
        <time>2019-10-13T15:17:00.000Z</time>
      </trkpt>
      <trkpt lat="46.01057" lon="6.52088">
        <ele>1410.5999755859</ele>
        <time>2019-10-13T15:17:01.000Z</time>
      </trkpt>
      <trkpt lat="46.01061" lon="6.52096">
        <ele>1410.4000244141</ele>
        <time>2019-10-13T15:17:04.000Z</time>
      </trkpt>
      <trkpt lat="46.01064" lon="6.52099">
        <ele>1409</ele>
        <time>2019-10-13T15:17:06.000Z</time>
      </trkpt>
      <trkpt lat="46.01066" lon="6.52102">
        <ele>1408.1999511719</ele>
        <time>2019-10-13T15:17:07.000Z</time>
      </trkpt>
      <trkpt lat="46.01068" lon="6.52106">
        <ele>1407.5999755859</ele>
        <time>2019-10-13T15:17:08.000Z</time>
      </trkpt>
      <trkpt lat="46.01073" lon="6.52114">
        <ele>1406.1999511719</ele>
        <time>2019-10-13T15:17:10.000Z</time>
      </trkpt>
      <trkpt lat="46.01074" lon="6.52118">
        <ele>1405.5999755859</ele>
        <time>2019-10-13T15:17:11.000Z</time>
      </trkpt>
      <trkpt lat="46.01076" lon="6.52122">
        <ele>1404.8000488281</ele>
        <time>2019-10-13T15:17:12.000Z</time>
      </trkpt>
      <trkpt lat="46.01077" lon="6.52126">
        <ele>1404.1999511719</ele>
        <time>2019-10-13T15:17:13.000Z</time>
      </trkpt>
      <trkpt lat="46.01078" lon="6.52129">
        <ele>1403.8000488281</ele>
        <time>2019-10-13T15:17:14.000Z</time>
      </trkpt>
      <trkpt lat="46.0108" lon="6.52132">
        <ele>1403.4000244141</ele>
        <time>2019-10-13T15:17:15.000Z</time>
      </trkpt>
      <trkpt lat="46.01083" lon="6.52136">
        <ele>1402.1999511719</ele>
        <time>2019-10-13T15:17:17.000Z</time>
      </trkpt>
      <trkpt lat="46.01085" lon="6.52139">
        <ele>1401.5999755859</ele>
        <time>2019-10-13T15:17:18.000Z</time>
      </trkpt>
      <trkpt lat="46.01087" lon="6.52142">
        <ele>1401</ele>
        <time>2019-10-13T15:17:19.000Z</time>
      </trkpt>
      <trkpt lat="46.01088" lon="6.52146">
        <ele>1400.8000488281</ele>
        <time>2019-10-13T15:17:20.000Z</time>
      </trkpt>
      <trkpt lat="46.01089" lon="6.52149">
        <ele>1400.8000488281</ele>
        <time>2019-10-13T15:17:21.000Z</time>
      </trkpt>
      <trkpt lat="46.01091" lon="6.52156">
        <ele>1400.8000488281</ele>
        <time>2019-10-13T15:17:24.000Z</time>
      </trkpt>
      <trkpt lat="46.01093" lon="6.5216">
        <ele>1400.8000488281</ele>
        <time>2019-10-13T15:17:26.000Z</time>
      </trkpt>
      <trkpt lat="46.01096" lon="6.52166">
        <ele>1400</ele>
        <time>2019-10-13T15:17:29.000Z</time>
      </trkpt>
      <trkpt lat="46.01099" lon="6.52174">
        <ele>1399.5999755859</ele>
        <time>2019-10-13T15:17:33.000Z</time>
      </trkpt>
      <trkpt lat="46.011" lon="6.52176">
        <ele>1399.5999755859</ele>
        <time>2019-10-13T15:17:34.000Z</time>
      </trkpt>
      <trkpt lat="46.01101" lon="6.52178">
        <ele>1399.5999755859</ele>
        <time>2019-10-13T15:17:35.000Z</time>
      </trkpt>
      <trkpt lat="46.01101" lon="6.52182">
        <ele>1399.5999755859</ele>
        <time>2019-10-13T15:17:37.000Z</time>
      </trkpt>
      <trkpt lat="46.01103" lon="6.52192">
        <ele>1399.1999511719</ele>
        <time>2019-10-13T15:17:41.000Z</time>
      </trkpt>
      <trkpt lat="46.01104" lon="6.52194">
        <ele>1399</ele>
        <time>2019-10-13T15:17:42.000Z</time>
      </trkpt>
      <trkpt lat="46.01104" lon="6.52195">
        <ele>1399</ele>
        <time>2019-10-13T15:17:43.000Z</time>
      </trkpt>
      <trkpt lat="46.01105" lon="6.52197">
        <ele>1398.4000244141</ele>
        <time>2019-10-13T15:17:44.000Z</time>
      </trkpt>
      <trkpt lat="46.01106" lon="6.52198">
        <ele>1397.8000488281</ele>
        <time>2019-10-13T15:17:45.000Z</time>
      </trkpt>
      <trkpt lat="46.01108" lon="6.52202">
        <ele>1396.4000244141</ele>
        <time>2019-10-13T15:17:47.000Z</time>
      </trkpt>
      <trkpt lat="46.01108" lon="6.52204">
        <ele>1395.8000488281</ele>
        <time>2019-10-13T15:17:48.000Z</time>
      </trkpt>
      <trkpt lat="46.01109" lon="6.52206">
        <ele>1395.4000244141</ele>
        <time>2019-10-13T15:17:49.000Z</time>
      </trkpt>
      <trkpt lat="46.01109" lon="6.52208">
        <ele>1395.1999511719</ele>
        <time>2019-10-13T15:17:50.000Z</time>
      </trkpt>
      <trkpt lat="46.0111" lon="6.5221">
        <ele>1395</ele>
        <time>2019-10-13T15:17:51.000Z</time>
      </trkpt>
      <trkpt lat="46.01111" lon="6.52214">
        <ele>1394.5999755859</ele>
        <time>2019-10-13T15:17:53.000Z</time>
      </trkpt>
      <trkpt lat="46.01114" lon="6.52221">
        <ele>1394.4000244141</ele>
        <time>2019-10-13T15:17:56.000Z</time>
      </trkpt>
      <trkpt lat="46.01116" lon="6.52227">
        <ele>1394.1999511719</ele>
        <time>2019-10-13T15:17:59.000Z</time>
      </trkpt>
      <trkpt lat="46.01118" lon="6.52233">
        <ele>1394</ele>
        <time>2019-10-13T15:18:01.000Z</time>
      </trkpt>
      <trkpt lat="46.0112" lon="6.5224">
        <ele>1393.8000488281</ele>
        <time>2019-10-13T15:18:04.000Z</time>
      </trkpt>
      <trkpt lat="46.0112" lon="6.52246">
        <ele>1393.5999755859</ele>
        <time>2019-10-13T15:18:06.000Z</time>
      </trkpt>
      <trkpt lat="46.01121" lon="6.52248">
        <ele>1392.8000488281</ele>
        <time>2019-10-13T15:18:08.000Z</time>
      </trkpt>
      <trkpt lat="46.01122" lon="6.52253">
        <ele>1391.5999755859</ele>
        <time>2019-10-13T15:18:11.000Z</time>
      </trkpt>
      <trkpt lat="46.01123" lon="6.52255">
        <ele>1391.4000244141</ele>
        <time>2019-10-13T15:18:12.000Z</time>
      </trkpt>
      <trkpt lat="46.01127" lon="6.5226">
        <ele>1391.1999511719</ele>
        <time>2019-10-13T15:18:16.000Z</time>
      </trkpt>
      <trkpt lat="46.01127" lon="6.52261">
        <ele>1391.1999511719</ele>
        <time>2019-10-13T15:18:17.000Z</time>
      </trkpt>
      <trkpt lat="46.0113" lon="6.52267">
        <ele>1390.5999755859</ele>
        <time>2019-10-13T15:18:21.000Z</time>
      </trkpt>
      <trkpt lat="46.01131" lon="6.52272">
        <ele>1389.4000244141</ele>
        <time>2019-10-13T15:18:23.000Z</time>
      </trkpt>
      <trkpt lat="46.01131" lon="6.52275">
        <ele>1389.1999511719</ele>
        <time>2019-10-13T15:18:24.000Z</time>
      </trkpt>
      <trkpt lat="46.01132" lon="6.52278">
        <ele>1388.8000488281</ele>
        <time>2019-10-13T15:18:25.000Z</time>
      </trkpt>
      <trkpt lat="46.01132" lon="6.52282">
        <ele>1388.8000488281</ele>
        <time>2019-10-13T15:18:26.000Z</time>
      </trkpt>
      <trkpt lat="46.01133" lon="6.52287">
        <ele>1388.4000244141</ele>
        <time>2019-10-13T15:18:27.000Z</time>
      </trkpt>
      <trkpt lat="46.01134" lon="6.52295">
        <ele>1387.4000244141</ele>
        <time>2019-10-13T15:18:29.000Z</time>
      </trkpt>
      <trkpt lat="46.01137" lon="6.52302">
        <ele>1386.8000488281</ele>
        <time>2019-10-13T15:18:31.000Z</time>
      </trkpt>
      <trkpt lat="46.01139" lon="6.52307">
        <ele>1386</ele>
        <time>2019-10-13T15:18:33.000Z</time>
      </trkpt>
      <trkpt lat="46.0114" lon="6.52311">
        <ele>1385</ele>
        <time>2019-10-13T15:18:35.000Z</time>
      </trkpt>
      <trkpt lat="46.01141" lon="6.52312">
        <ele>1384.8000488281</ele>
        <time>2019-10-13T15:18:36.000Z</time>
      </trkpt>
      <trkpt lat="46.01143" lon="6.52318">
        <ele>1384.4000244141</ele>
        <time>2019-10-13T15:18:40.000Z</time>
      </trkpt>
      <trkpt lat="46.01143" lon="6.52319">
        <ele>1384.5999755859</ele>
        <time>2019-10-13T15:18:41.000Z</time>
      </trkpt>
      <trkpt lat="46.01144" lon="6.52322">
        <ele>1384.5999755859</ele>
        <time>2019-10-13T15:18:43.000Z</time>
      </trkpt>
      <trkpt lat="46.01144" lon="6.52325">
        <ele>1384.4000244141</ele>
        <time>2019-10-13T15:18:46.000Z</time>
      </trkpt>
      <trkpt lat="46.01145" lon="6.5233">
        <ele>1384.1999511719</ele>
        <time>2019-10-13T15:18:48.000Z</time>
      </trkpt>
      <trkpt lat="46.01147" lon="6.52335">
        <ele>1384.1999511719</ele>
        <time>2019-10-13T15:18:50.000Z</time>
      </trkpt>
      <trkpt lat="46.01147" lon="6.52336">
        <ele>1384.1999511719</ele>
        <time>2019-10-13T15:18:51.000Z</time>
      </trkpt>
      <trkpt lat="46.01149" lon="6.52337">
        <ele>1383.8000488281</ele>
        <time>2019-10-13T15:18:53.000Z</time>
      </trkpt>
      <trkpt lat="46.01145" lon="6.5234">
        <ele>1383.1999511719</ele>
        <time>2019-10-13T15:18:57.000Z</time>
      </trkpt>
      <trkpt lat="46.01143" lon="6.52341">
        <ele>1383</ele>
        <time>2019-10-13T15:18:59.000Z</time>
      </trkpt>
      <trkpt lat="46.01143" lon="6.52342">
        <ele>1382.8000488281</ele>
        <time>2019-10-13T15:19:00.000Z</time>
      </trkpt>
      <trkpt lat="46.01143" lon="6.52342">
        <ele>1382.1999511719</ele>
        <time>2019-10-13T15:19:02.000Z</time>
      </trkpt>
      <trkpt lat="46.01144" lon="6.52344">
        <ele>1381.1999511719</ele>
        <time>2019-10-13T15:19:04.000Z</time>
      </trkpt>
      <trkpt lat="46.01144" lon="6.52345">
        <ele>1380.8000488281</ele>
        <time>2019-10-13T15:19:05.000Z</time>
      </trkpt>
      <trkpt lat="46.01144" lon="6.52346">
        <ele>1380</ele>
        <time>2019-10-13T15:19:07.000Z</time>
      </trkpt>
      <trkpt lat="46.01144" lon="6.52347">
        <ele>1379.5999755859</ele>
        <time>2019-10-13T15:19:08.000Z</time>
      </trkpt>
      <trkpt lat="46.01144" lon="6.52348">
        <ele>1379.1999511719</ele>
        <time>2019-10-13T15:19:09.000Z</time>
      </trkpt>
      <trkpt lat="46.01144" lon="6.52349">
        <ele>1378.8000488281</ele>
        <time>2019-10-13T15:19:10.000Z</time>
      </trkpt>
      <trkpt lat="46.01144" lon="6.5235">
        <ele>1378.5999755859</ele>
        <time>2019-10-13T15:19:11.000Z</time>
      </trkpt>
      <trkpt lat="46.01144" lon="6.52353">
        <ele>1378</ele>
        <time>2019-10-13T15:19:13.000Z</time>
      </trkpt>
      <trkpt lat="46.01145" lon="6.52356">
        <ele>1377.5999755859</ele>
        <time>2019-10-13T15:19:15.000Z</time>
      </trkpt>
      <trkpt lat="46.01146" lon="6.52359">
        <ele>1376.5999755859</ele>
        <time>2019-10-13T15:19:17.000Z</time>
      </trkpt>
      <trkpt lat="46.01146" lon="6.5236">
        <ele>1376.1999511719</ele>
        <time>2019-10-13T15:19:18.000Z</time>
      </trkpt>
      <trkpt lat="46.01148" lon="6.52362">
        <ele>1375.4000244141</ele>
        <time>2019-10-13T15:19:20.000Z</time>
      </trkpt>
      <trkpt lat="46.01149" lon="6.52362">
        <ele>1375</ele>
        <time>2019-10-13T15:19:21.000Z</time>
      </trkpt>
      <trkpt lat="46.01149" lon="6.52362">
        <ele>1374.8000488281</ele>
        <time>2019-10-13T15:19:22.000Z</time>
      </trkpt>
      <trkpt lat="46.0115" lon="6.52366">
        <ele>1374</ele>
        <time>2019-10-13T15:19:26.000Z</time>
      </trkpt>
      <trkpt lat="46.01151" lon="6.52369">
        <ele>1372.8000488281</ele>
        <time>2019-10-13T15:19:29.000Z</time>
      </trkpt>
      <trkpt lat="46.01152" lon="6.52372">
        <ele>1372.4000244141</ele>
        <time>2019-10-13T15:19:31.000Z</time>
      </trkpt>
      <trkpt lat="46.01155" lon="6.52376">
        <ele>1371.8000488281</ele>
        <time>2019-10-13T15:19:34.000Z</time>
      </trkpt>
      <trkpt lat="46.01158" lon="6.52381">
        <ele>1370.8000488281</ele>
        <time>2019-10-13T15:19:37.000Z</time>
      </trkpt>
      <trkpt lat="46.01159" lon="6.52383">
        <ele>1370.5999755859</ele>
        <time>2019-10-13T15:19:38.000Z</time>
      </trkpt>
      <trkpt lat="46.01161" lon="6.52386">
        <ele>1369.8000488281</ele>
        <time>2019-10-13T15:19:41.000Z</time>
      </trkpt>
      <trkpt lat="46.01163" lon="6.52392">
        <ele>1369.8000488281</ele>
        <time>2019-10-13T15:19:45.000Z</time>
      </trkpt>
      <trkpt lat="46.01165" lon="6.52395">
        <ele>1369.8000488281</ele>
        <time>2019-10-13T15:19:47.000Z</time>
      </trkpt>
      <trkpt lat="46.01166" lon="6.52397">
        <ele>1369.8000488281</ele>
        <time>2019-10-13T15:19:48.000Z</time>
      </trkpt>
      <trkpt lat="46.01168" lon="6.52399">
        <ele>1369.5999755859</ele>
        <time>2019-10-13T15:19:49.000Z</time>
      </trkpt>
      <trkpt lat="46.01169" lon="6.52402">
        <ele>1369.1999511719</ele>
        <time>2019-10-13T15:19:51.000Z</time>
      </trkpt>
      <trkpt lat="46.01171" lon="6.52405">
        <ele>1368.1999511719</ele>
        <time>2019-10-13T15:19:53.000Z</time>
      </trkpt>
      <trkpt lat="46.01174" lon="6.5241">
        <ele>1367.1999511719</ele>
        <time>2019-10-13T15:19:56.000Z</time>
      </trkpt>
      <trkpt lat="46.01175" lon="6.52412">
        <ele>1366.8000488281</ele>
        <time>2019-10-13T15:19:57.000Z</time>
      </trkpt>
      <trkpt lat="46.01178" lon="6.52415">
        <ele>1367.1999511719</ele>
        <time>2019-10-13T15:19:59.000Z</time>
      </trkpt>
      <trkpt lat="46.0118" lon="6.52418">
        <ele>1367.1999511719</ele>
        <time>2019-10-13T15:20:01.000Z</time>
      </trkpt>
      <trkpt lat="46.01181" lon="6.52421">
        <ele>1367.4000244141</ele>
        <time>2019-10-13T15:20:03.000Z</time>
      </trkpt>
      <trkpt lat="46.0118" lon="6.52424">
        <ele>1367.1999511719</ele>
        <time>2019-10-13T15:20:05.000Z</time>
      </trkpt>
      <trkpt lat="46.0118" lon="6.52428">
        <ele>1367</ele>
        <time>2019-10-13T15:20:07.000Z</time>
      </trkpt>
      <trkpt lat="46.01179" lon="6.52431">
        <ele>1367</ele>
        <time>2019-10-13T15:20:10.000Z</time>
      </trkpt>
      <trkpt lat="46.01179" lon="6.52432">
        <ele>1367.1999511719</ele>
        <time>2019-10-13T15:20:11.000Z</time>
      </trkpt>
      <trkpt lat="46.01177" lon="6.5244">
        <ele>1367.5999755859</ele>
        <time>2019-10-13T15:20:16.000Z</time>
      </trkpt>
      <trkpt lat="46.01177" lon="6.52442">
        <ele>1367.5999755859</ele>
        <time>2019-10-13T15:20:17.000Z</time>
      </trkpt>
      <trkpt lat="46.01177" lon="6.52443">
        <ele>1367.5999755859</ele>
        <time>2019-10-13T15:20:18.000Z</time>
      </trkpt>
      <trkpt lat="46.01176" lon="6.52445">
        <ele>1367.8000488281</ele>
        <time>2019-10-13T15:20:20.000Z</time>
      </trkpt>
      <trkpt lat="46.01175" lon="6.52447">
        <ele>1368</ele>
        <time>2019-10-13T15:20:22.000Z</time>
      </trkpt>
      <trkpt lat="46.01175" lon="6.52451">
        <ele>1368.1999511719</ele>
        <time>2019-10-13T15:20:24.000Z</time>
      </trkpt>
      <trkpt lat="46.01175" lon="6.52457">
        <ele>1368.4000244141</ele>
        <time>2019-10-13T15:20:27.000Z</time>
      </trkpt>
      <trkpt lat="46.01176" lon="6.52465">
        <ele>1368.4000244141</ele>
        <time>2019-10-13T15:20:30.000Z</time>
      </trkpt>
      <trkpt lat="46.01176" lon="6.52469">
        <ele>1368.1999511719</ele>
        <time>2019-10-13T15:20:32.000Z</time>
      </trkpt>
      <trkpt lat="46.01175" lon="6.52478">
        <ele>1367.1999511719</ele>
        <time>2019-10-13T15:20:36.000Z</time>
      </trkpt>
      <trkpt lat="46.01176" lon="6.52481">
        <ele>1367</ele>
        <time>2019-10-13T15:20:37.000Z</time>
      </trkpt>
      <trkpt lat="46.01175" lon="6.52484">
        <ele>1366.4000244141</ele>
        <time>2019-10-13T15:20:39.000Z</time>
      </trkpt>
      <trkpt lat="46.01175" lon="6.52487">
        <ele>1366.1999511719</ele>
        <time>2019-10-13T15:20:42.000Z</time>
      </trkpt>
      <trkpt lat="46.01175" lon="6.52488">
        <ele>1366.1999511719</ele>
        <time>2019-10-13T15:20:43.000Z</time>
      </trkpt>
      <trkpt lat="46.01175" lon="6.5249">
        <ele>1366.1999511719</ele>
        <time>2019-10-13T15:20:45.000Z</time>
      </trkpt>
      <trkpt lat="46.01174" lon="6.52492">
        <ele>1366.4000244141</ele>
        <time>2019-10-13T15:20:47.000Z</time>
      </trkpt>
      <trkpt lat="46.01173" lon="6.52494">
        <ele>1366.4000244141</ele>
        <time>2019-10-13T15:20:48.000Z</time>
      </trkpt>
      <trkpt lat="46.01173" lon="6.52497">
        <ele>1366.5999755859</ele>
        <time>2019-10-13T15:20:50.000Z</time>
      </trkpt>
      <trkpt lat="46.01173" lon="6.52498">
        <ele>1366.4000244141</ele>
        <time>2019-10-13T15:20:51.000Z</time>
      </trkpt>
      <trkpt lat="46.01173" lon="6.52499">
        <ele>1366.4000244141</ele>
        <time>2019-10-13T15:20:52.000Z</time>
      </trkpt>
      <trkpt lat="46.01174" lon="6.525">
        <ele>1365.5999755859</ele>
        <time>2019-10-13T15:20:54.000Z</time>
      </trkpt>
      <trkpt lat="46.01175" lon="6.525">
        <ele>1365</ele>
        <time>2019-10-13T15:20:56.000Z</time>
      </trkpt>
      <trkpt lat="46.01176" lon="6.52501">
        <ele>1364.4000244141</ele>
        <time>2019-10-13T15:20:57.000Z</time>
      </trkpt>
      <trkpt lat="46.01177" lon="6.52503">
        <ele>1363.4000244141</ele>
        <time>2019-10-13T15:20:59.000Z</time>
      </trkpt>
      <trkpt lat="46.01178" lon="6.52505">
        <ele>1363</ele>
        <time>2019-10-13T15:21:00.000Z</time>
      </trkpt>
      <trkpt lat="46.01179" lon="6.52508">
        <ele>1361.8000488281</ele>
        <time>2019-10-13T15:21:02.000Z</time>
      </trkpt>
      <trkpt lat="46.01182" lon="6.52511">
        <ele>1361.4000244141</ele>
        <time>2019-10-13T15:21:04.000Z</time>
      </trkpt>
      <trkpt lat="46.01184" lon="6.52511">
        <ele>1361.4000244141</ele>
        <time>2019-10-13T15:21:06.000Z</time>
      </trkpt>
      <trkpt lat="46.01186" lon="6.52514">
        <ele>1361.5999755859</ele>
        <time>2019-10-13T15:21:08.000Z</time>
      </trkpt>
      <trkpt lat="46.01188" lon="6.52518">
        <ele>1361.4000244141</ele>
        <time>2019-10-13T15:21:12.000Z</time>
      </trkpt>
      <trkpt lat="46.01189" lon="6.52519">
        <ele>1361.1999511719</ele>
        <time>2019-10-13T15:21:13.000Z</time>
      </trkpt>
      <trkpt lat="46.01191" lon="6.52521">
        <ele>1360.5999755859</ele>
        <time>2019-10-13T15:21:15.000Z</time>
      </trkpt>
      <trkpt lat="46.01192" lon="6.52523">
        <ele>1360.4000244141</ele>
        <time>2019-10-13T15:21:16.000Z</time>
      </trkpt>
      <trkpt lat="46.01193" lon="6.52524">
        <ele>1360.1999511719</ele>
        <time>2019-10-13T15:21:17.000Z</time>
      </trkpt>
      <trkpt lat="46.01195" lon="6.52529">
        <ele>1359.5999755859</ele>
        <time>2019-10-13T15:21:19.000Z</time>
      </trkpt>
      <trkpt lat="46.01195" lon="6.52531">
        <ele>1359.1999511719</ele>
        <time>2019-10-13T15:21:20.000Z</time>
      </trkpt>
      <trkpt lat="46.01195" lon="6.52532">
        <ele>1358.5999755859</ele>
        <time>2019-10-13T15:21:21.000Z</time>
      </trkpt>
      <trkpt lat="46.01195" lon="6.52534">
        <ele>1358.1999511719</ele>
        <time>2019-10-13T15:21:22.000Z</time>
      </trkpt>
      <trkpt lat="46.01196" lon="6.52535">
        <ele>1358</ele>
        <time>2019-10-13T15:21:23.000Z</time>
      </trkpt>
      <trkpt lat="46.01199" lon="6.5254">
        <ele>1357.5999755859</ele>
        <time>2019-10-13T15:21:25.000Z</time>
      </trkpt>
      <trkpt lat="46.012" lon="6.52543">
        <ele>1357.4000244141</ele>
        <time>2019-10-13T15:21:26.000Z</time>
      </trkpt>
      <trkpt lat="46.01203" lon="6.52549">
        <ele>1357.1999511719</ele>
        <time>2019-10-13T15:21:28.000Z</time>
      </trkpt>
      <trkpt lat="46.01206" lon="6.52554">
        <ele>1356.5999755859</ele>
        <time>2019-10-13T15:21:31.000Z</time>
      </trkpt>
      <trkpt lat="46.01207" lon="6.52556">
        <ele>1356.5999755859</ele>
        <time>2019-10-13T15:21:32.000Z</time>
      </trkpt>
      <trkpt lat="46.01208" lon="6.52559">
        <ele>1356.4000244141</ele>
        <time>2019-10-13T15:21:33.000Z</time>
      </trkpt>
      <trkpt lat="46.01208" lon="6.52562">
        <ele>1356</ele>
        <time>2019-10-13T15:21:34.000Z</time>
      </trkpt>
      <trkpt lat="46.01209" lon="6.52566">
        <ele>1355.4000244141</ele>
        <time>2019-10-13T15:21:36.000Z</time>
      </trkpt>
      <trkpt lat="46.0121" lon="6.52568">
        <ele>1355.4000244141</ele>
        <time>2019-10-13T15:21:37.000Z</time>
      </trkpt>
      <trkpt lat="46.01211" lon="6.5257">
        <ele>1355.4000244141</ele>
        <time>2019-10-13T15:21:38.000Z</time>
      </trkpt>
      <trkpt lat="46.01212" lon="6.52573">
        <ele>1355.1999511719</ele>
        <time>2019-10-13T15:21:40.000Z</time>
      </trkpt>
      <trkpt lat="46.01213" lon="6.52579">
        <ele>1355.1999511719</ele>
        <time>2019-10-13T15:21:43.000Z</time>
      </trkpt>
      <trkpt lat="46.01214" lon="6.52581">
        <ele>1354.5999755859</ele>
        <time>2019-10-13T15:21:45.000Z</time>
      </trkpt>
      <trkpt lat="46.01216" lon="6.52585">
        <ele>1353</ele>
        <time>2019-10-13T15:21:48.000Z</time>
      </trkpt>
      <trkpt lat="46.01218" lon="6.52588">
        <ele>1351.5999755859</ele>
        <time>2019-10-13T15:21:50.000Z</time>
      </trkpt>
      <trkpt lat="46.0122" lon="6.52592">
        <ele>1350.4000244141</ele>
        <time>2019-10-13T15:21:52.000Z</time>
      </trkpt>
      <trkpt lat="46.01221" lon="6.52594">
        <ele>1350</ele>
        <time>2019-10-13T15:21:53.000Z</time>
      </trkpt>
      <trkpt lat="46.01223" lon="6.52597">
        <ele>1349.5999755859</ele>
        <time>2019-10-13T15:21:55.000Z</time>
      </trkpt>
      <trkpt lat="46.01225" lon="6.52599">
        <ele>1349</ele>
        <time>2019-10-13T15:21:56.000Z</time>
      </trkpt>
      <trkpt lat="46.01227" lon="6.52602">
        <ele>1349.1999511719</ele>
        <time>2019-10-13T15:21:58.000Z</time>
      </trkpt>
      <trkpt lat="46.01228" lon="6.52604">
        <ele>1348.8000488281</ele>
        <time>2019-10-13T15:21:59.000Z</time>
      </trkpt>
      <trkpt lat="46.01229" lon="6.52608">
        <ele>1348.4000244141</ele>
        <time>2019-10-13T15:22:01.000Z</time>
      </trkpt>
      <trkpt lat="46.0123" lon="6.5261">
        <ele>1348</ele>
        <time>2019-10-13T15:22:03.000Z</time>
      </trkpt>
      <trkpt lat="46.01232" lon="6.52614">
        <ele>1347</ele>
        <time>2019-10-13T15:22:05.000Z</time>
      </trkpt>
      <trkpt lat="46.01233" lon="6.52616">
        <ele>1346.8000488281</ele>
        <time>2019-10-13T15:22:06.000Z</time>
      </trkpt>
      <trkpt lat="46.01235" lon="6.52623">
        <ele>1345.4000244141</ele>
        <time>2019-10-13T15:22:09.000Z</time>
      </trkpt>
      <trkpt lat="46.01235" lon="6.52625">
        <ele>1345</ele>
        <time>2019-10-13T15:22:10.000Z</time>
      </trkpt>
      <trkpt lat="46.01236" lon="6.52628">
        <ele>1344.4000244141</ele>
        <time>2019-10-13T15:22:12.000Z</time>
      </trkpt>
      <trkpt lat="46.01237" lon="6.5263">
        <ele>1344.1999511719</ele>
        <time>2019-10-13T15:22:13.000Z</time>
      </trkpt>
      <trkpt lat="46.01237" lon="6.52633">
        <ele>1344</ele>
        <time>2019-10-13T15:22:14.000Z</time>
      </trkpt>
      <trkpt lat="46.01236" lon="6.52638">
        <ele>1343.1999511719</ele>
        <time>2019-10-13T15:22:16.000Z</time>
      </trkpt>
      <trkpt lat="46.01236" lon="6.52641">
        <ele>1342.8000488281</ele>
        <time>2019-10-13T15:22:17.000Z</time>
      </trkpt>
      <trkpt lat="46.01236" lon="6.52647">
        <ele>1341.8000488281</ele>
        <time>2019-10-13T15:22:19.000Z</time>
      </trkpt>
      <trkpt lat="46.01237" lon="6.5265">
        <ele>1341.1999511719</ele>
        <time>2019-10-13T15:22:20.000Z</time>
      </trkpt>
      <trkpt lat="46.01238" lon="6.52653">
        <ele>1340.8000488281</ele>
        <time>2019-10-13T15:22:21.000Z</time>
      </trkpt>
      <trkpt lat="46.0124" lon="6.52658">
        <ele>1340</ele>
        <time>2019-10-13T15:22:23.000Z</time>
      </trkpt>
      <trkpt lat="46.0124" lon="6.52659">
        <ele>1339.4000244141</ele>
        <time>2019-10-13T15:22:24.000Z</time>
      </trkpt>
      <trkpt lat="46.01241" lon="6.52662">
        <ele>1339</ele>
        <time>2019-10-13T15:22:25.000Z</time>
      </trkpt>
      <trkpt lat="46.01242" lon="6.52664">
        <ele>1338.1999511719</ele>
        <time>2019-10-13T15:22:26.000Z</time>
      </trkpt>
      <trkpt lat="46.01243" lon="6.52666">
        <ele>1337.4000244141</ele>
        <time>2019-10-13T15:22:27.000Z</time>
      </trkpt>
      <trkpt lat="46.01245" lon="6.52668">
        <ele>1337</ele>
        <time>2019-10-13T15:22:28.000Z</time>
      </trkpt>
      <trkpt lat="46.01246" lon="6.52671">
        <ele>1336.5999755859</ele>
        <time>2019-10-13T15:22:30.000Z</time>
      </trkpt>
      <trkpt lat="46.01246" lon="6.52672">
        <ele>1336.5999755859</ele>
        <time>2019-10-13T15:22:31.000Z</time>
      </trkpt>
      <trkpt lat="46.01247" lon="6.52675">
        <ele>1336.4000244141</ele>
        <time>2019-10-13T15:22:33.000Z</time>
      </trkpt>
      <trkpt lat="46.01248" lon="6.52677">
        <ele>1336.1999511719</ele>
        <time>2019-10-13T15:22:34.000Z</time>
      </trkpt>
      <trkpt lat="46.0125" lon="6.52679">
        <ele>1335.8000488281</ele>
        <time>2019-10-13T15:22:35.000Z</time>
      </trkpt>
      <trkpt lat="46.01251" lon="6.5268">
        <ele>1335.5999755859</ele>
        <time>2019-10-13T15:22:36.000Z</time>
      </trkpt>
      <trkpt lat="46.01255" lon="6.52684">
        <ele>1335.1999511719</ele>
        <time>2019-10-13T15:22:39.000Z</time>
      </trkpt>
      <trkpt lat="46.01258" lon="6.52688">
        <ele>1335</ele>
        <time>2019-10-13T15:22:41.000Z</time>
      </trkpt>
      <trkpt lat="46.01259" lon="6.52688">
        <ele>1335</ele>
        <time>2019-10-13T15:22:42.000Z</time>
      </trkpt>
      <trkpt lat="46.0126" lon="6.52689">
        <ele>1334.8000488281</ele>
        <time>2019-10-13T15:22:43.000Z</time>
      </trkpt>
      <trkpt lat="46.01263" lon="6.52694">
        <ele>1334</ele>
        <time>2019-10-13T15:22:45.000Z</time>
      </trkpt>
      <trkpt lat="46.01264" lon="6.52696">
        <ele>1333.5999755859</ele>
        <time>2019-10-13T15:22:46.000Z</time>
      </trkpt>
      <trkpt lat="46.01266" lon="6.527">
        <ele>1332.5999755859</ele>
        <time>2019-10-13T15:22:48.000Z</time>
      </trkpt>
      <trkpt lat="46.01268" lon="6.52702">
        <ele>1332.1999511719</ele>
        <time>2019-10-13T15:22:49.000Z</time>
      </trkpt>
      <trkpt lat="46.01272" lon="6.52708">
        <ele>1330.5999755859</ele>
        <time>2019-10-13T15:22:52.000Z</time>
      </trkpt>
      <trkpt lat="46.01275" lon="6.52711">
        <ele>1329.1999511719</ele>
        <time>2019-10-13T15:22:55.000Z</time>
      </trkpt>
      <trkpt lat="46.01276" lon="6.52712">
        <ele>1328.8000488281</ele>
        <time>2019-10-13T15:22:56.000Z</time>
      </trkpt>
      <trkpt lat="46.01277" lon="6.52718">
        <ele>1329</ele>
        <time>2019-10-13T15:22:58.000Z</time>
      </trkpt>
      <trkpt lat="46.01278" lon="6.5272">
        <ele>1328.8000488281</ele>
        <time>2019-10-13T15:22:59.000Z</time>
      </trkpt>
      <trkpt lat="46.01278" lon="6.52725">
        <ele>1328.1999511719</ele>
        <time>2019-10-13T15:23:01.000Z</time>
      </trkpt>
      <trkpt lat="46.01277" lon="6.52726">
        <ele>1327.5999755859</ele>
        <time>2019-10-13T15:23:02.000Z</time>
      </trkpt>
      <trkpt lat="46.01275" lon="6.5273">
        <ele>1327</ele>
        <time>2019-10-13T15:23:03.000Z</time>
      </trkpt>
      <trkpt lat="46.01272" lon="6.52736">
        <ele>1326</ele>
        <time>2019-10-13T15:23:06.000Z</time>
      </trkpt>
      <trkpt lat="46.01271" lon="6.52736">
        <ele>1325.8000488281</ele>
        <time>2019-10-13T15:23:07.000Z</time>
      </trkpt>
      <trkpt lat="46.01268" lon="6.52736">
        <ele>1325.5999755859</ele>
        <time>2019-10-13T15:23:09.000Z</time>
      </trkpt>
      <trkpt lat="46.01263" lon="6.52745">
        <ele>1325.5999755859</ele>
        <time>2019-10-13T15:23:13.000Z</time>
      </trkpt>
      <trkpt lat="46.01262" lon="6.52748">
        <ele>1325.4000244141</ele>
        <time>2019-10-13T15:23:14.000Z</time>
      </trkpt>
      <trkpt lat="46.01263" lon="6.52749">
        <ele>1325.4000244141</ele>
        <time>2019-10-13T15:23:15.000Z</time>
      </trkpt>
      <trkpt lat="46.01269" lon="6.52752">
        <ele>1325.1999511719</ele>
        <time>2019-10-13T15:23:18.000Z</time>
      </trkpt>
      <trkpt lat="46.01271" lon="6.52753">
        <ele>1325.1999511719</ele>
        <time>2019-10-13T15:23:19.000Z</time>
      </trkpt>
      <trkpt lat="46.01274" lon="6.52754">
        <ele>1325</ele>
        <time>2019-10-13T15:23:21.000Z</time>
      </trkpt>
      <trkpt lat="46.01276" lon="6.52754">
        <ele>1325</ele>
        <time>2019-10-13T15:23:22.000Z</time>
      </trkpt>
      <trkpt lat="46.0128" lon="6.52753">
        <ele>1324.1999511719</ele>
        <time>2019-10-13T15:23:25.000Z</time>
      </trkpt>
      <trkpt lat="46.01282" lon="6.52753">
        <ele>1323.5999755859</ele>
        <time>2019-10-13T15:23:26.000Z</time>
      </trkpt>
      <trkpt lat="46.01286" lon="6.52756">
        <ele>1323</ele>
        <time>2019-10-13T15:23:29.000Z</time>
      </trkpt>
      <trkpt lat="46.01288" lon="6.52758">
        <ele>1323</ele>
        <time>2019-10-13T15:23:31.000Z</time>
      </trkpt>
      <trkpt lat="46.01289" lon="6.52759">
        <ele>1323.1999511719</ele>
        <time>2019-10-13T15:23:32.000Z</time>
      </trkpt>
      <trkpt lat="46.01289" lon="6.52762">
        <ele>1322.8000488281</ele>
        <time>2019-10-13T15:23:34.000Z</time>
      </trkpt>
      <trkpt lat="46.01289" lon="6.52763">
        <ele>1322.1999511719</ele>
        <time>2019-10-13T15:23:35.000Z</time>
      </trkpt>
      <trkpt lat="46.0129" lon="6.52764">
        <ele>1321.5999755859</ele>
        <time>2019-10-13T15:23:36.000Z</time>
      </trkpt>
      <trkpt lat="46.01291" lon="6.52768">
        <ele>1321</ele>
        <time>2019-10-13T15:23:38.000Z</time>
      </trkpt>
      <trkpt lat="46.01293" lon="6.52774">
        <ele>1320</ele>
        <time>2019-10-13T15:23:41.000Z</time>
      </trkpt>
      <trkpt lat="46.01293" lon="6.52776">
        <ele>1319.5999755859</ele>
        <time>2019-10-13T15:23:42.000Z</time>
      </trkpt>
      <trkpt lat="46.01294" lon="6.5278">
        <ele>1318.8000488281</ele>
        <time>2019-10-13T15:23:44.000Z</time>
      </trkpt>
      <trkpt lat="46.01295" lon="6.52782">
        <ele>1318.5999755859</ele>
        <time>2019-10-13T15:23:45.000Z</time>
      </trkpt>
      <trkpt lat="46.01296" lon="6.52783">
        <ele>1318.4000244141</ele>
        <time>2019-10-13T15:23:46.000Z</time>
      </trkpt>
      <trkpt lat="46.01297" lon="6.52785">
        <ele>1318</ele>
        <time>2019-10-13T15:23:47.000Z</time>
      </trkpt>
      <trkpt lat="46.01298" lon="6.52787">
        <ele>1317.8000488281</ele>
        <time>2019-10-13T15:23:48.000Z</time>
      </trkpt>
      <trkpt lat="46.01301" lon="6.52793">
        <ele>1317</ele>
        <time>2019-10-13T15:23:52.000Z</time>
      </trkpt>
      <trkpt lat="46.01301" lon="6.52795">
        <ele>1316.8000488281</ele>
        <time>2019-10-13T15:23:53.000Z</time>
      </trkpt>
      <trkpt lat="46.01301" lon="6.52796">
        <ele>1316.5999755859</ele>
        <time>2019-10-13T15:23:54.000Z</time>
      </trkpt>
      <trkpt lat="46.01302" lon="6.52797">
        <ele>1316.4000244141</ele>
        <time>2019-10-13T15:23:55.000Z</time>
      </trkpt>
      <trkpt lat="46.01302" lon="6.52797">
        <ele>1316.1999511719</ele>
        <time>2019-10-13T15:23:57.000Z</time>
      </trkpt>
      <trkpt lat="46.01299" lon="6.52805">
        <ele>1316</ele>
        <time>2019-10-13T15:24:02.000Z</time>
      </trkpt>
      <trkpt lat="46.01298" lon="6.52809">
        <ele>1316</ele>
        <time>2019-10-13T15:24:03.000Z</time>
      </trkpt>
      <trkpt lat="46.01298" lon="6.52811">
        <ele>1315.8000488281</ele>
        <time>2019-10-13T15:24:04.000Z</time>
      </trkpt>
      <trkpt lat="46.01298" lon="6.52815">
        <ele>1315.4000244141</ele>
        <time>2019-10-13T15:24:06.000Z</time>
      </trkpt>
      <trkpt lat="46.01298" lon="6.52817">
        <ele>1315.1999511719</ele>
        <time>2019-10-13T15:24:07.000Z</time>
      </trkpt>
      <trkpt lat="46.01299" lon="6.5282">
        <ele>1315</ele>
        <time>2019-10-13T15:24:09.000Z</time>
      </trkpt>
      <trkpt lat="46.01299" lon="6.52821">
        <ele>1315</ele>
        <time>2019-10-13T15:24:10.000Z</time>
      </trkpt>
      <trkpt lat="46.01299" lon="6.52822">
        <ele>1314.5999755859</ele>
        <time>2019-10-13T15:24:11.000Z</time>
      </trkpt>
      <trkpt lat="46.01299" lon="6.52825">
        <ele>1314.1999511719</ele>
        <time>2019-10-13T15:24:13.000Z</time>
      </trkpt>
      <trkpt lat="46.01298" lon="6.52827">
        <ele>1314</ele>
        <time>2019-10-13T15:24:14.000Z</time>
      </trkpt>
      <trkpt lat="46.01297" lon="6.5283">
        <ele>1314</ele>
        <time>2019-10-13T15:24:15.000Z</time>
      </trkpt>
      <trkpt lat="46.01297" lon="6.52835">
        <ele>1314</ele>
        <time>2019-10-13T15:24:18.000Z</time>
      </trkpt>
      <trkpt lat="46.01296" lon="6.52837">
        <ele>1314</ele>
        <time>2019-10-13T15:24:20.000Z</time>
      </trkpt>
      <trkpt lat="46.01295" lon="6.52839">
        <ele>1313.8000488281</ele>
        <time>2019-10-13T15:24:22.000Z</time>
      </trkpt>
      <trkpt lat="46.01294" lon="6.5284">
        <ele>1313.5999755859</ele>
        <time>2019-10-13T15:24:23.000Z</time>
      </trkpt>
      <trkpt lat="46.01293" lon="6.52842">
        <ele>1312.8000488281</ele>
        <time>2019-10-13T15:24:25.000Z</time>
      </trkpt>
      <trkpt lat="46.01293" lon="6.52844">
        <ele>1312.4000244141</ele>
        <time>2019-10-13T15:24:26.000Z</time>
      </trkpt>
      <trkpt lat="46.01292" lon="6.52847">
        <ele>1311.1999511719</ele>
        <time>2019-10-13T15:24:28.000Z</time>
      </trkpt>
      <trkpt lat="46.01292" lon="6.52848">
        <ele>1311</ele>
        <time>2019-10-13T15:24:29.000Z</time>
      </trkpt>
      <trkpt lat="46.01292" lon="6.52852">
        <ele>1310.5999755859</ele>
        <time>2019-10-13T15:24:31.000Z</time>
      </trkpt>
      <trkpt lat="46.01293" lon="6.52853">
        <ele>1310.5999755859</ele>
        <time>2019-10-13T15:24:32.000Z</time>
      </trkpt>
      <trkpt lat="46.01293" lon="6.52855">
        <ele>1310.5999755859</ele>
        <time>2019-10-13T15:24:33.000Z</time>
      </trkpt>
      <trkpt lat="46.01293" lon="6.52857">
        <ele>1310.5999755859</ele>
        <time>2019-10-13T15:24:34.000Z</time>
      </trkpt>
      <trkpt lat="46.01293" lon="6.5286">
        <ele>1310</ele>
        <time>2019-10-13T15:24:36.000Z</time>
      </trkpt>
      <trkpt lat="46.01293" lon="6.5286">
        <ele>1309.4000244141</ele>
        <time>2019-10-13T15:24:37.000Z</time>
      </trkpt>
      <trkpt lat="46.01294" lon="6.52861">
        <ele>1309</ele>
        <time>2019-10-13T15:24:38.000Z</time>
      </trkpt>
      <trkpt lat="46.01294" lon="6.52861">
        <ele>1308.8000488281</ele>
        <time>2019-10-13T15:24:39.000Z</time>
      </trkpt>
      <trkpt lat="46.01294" lon="6.52861">
        <ele>1308.5999755859</ele>
        <time>2019-10-13T15:24:40.000Z</time>
      </trkpt>
      <trkpt lat="46.01295" lon="6.52863">
        <ele>1308.4000244141</ele>
        <time>2019-10-13T15:24:42.000Z</time>
      </trkpt>
      <trkpt lat="46.01295" lon="6.52865">
        <ele>1308.4000244141</ele>
        <time>2019-10-13T15:24:43.000Z</time>
      </trkpt>
      <trkpt lat="46.01296" lon="6.52871">
        <ele>1308.1999511719</ele>
        <time>2019-10-13T15:24:46.000Z</time>
      </trkpt>
      <trkpt lat="46.01295" lon="6.52874">
        <ele>1308</ele>
        <time>2019-10-13T15:24:48.000Z</time>
      </trkpt>
      <trkpt lat="46.01294" lon="6.52876">
        <ele>1308</ele>
        <time>2019-10-13T15:24:49.000Z</time>
      </trkpt>
      <trkpt lat="46.01294" lon="6.52876">
        <ele>1307.8000488281</ele>
        <time>2019-10-13T15:24:50.000Z</time>
      </trkpt>
      <trkpt lat="46.01294" lon="6.52878">
        <ele>1307.4000244141</ele>
        <time>2019-10-13T15:24:52.000Z</time>
      </trkpt>
      <trkpt lat="46.01295" lon="6.52878">
        <ele>1307.1999511719</ele>
        <time>2019-10-13T15:24:53.000Z</time>
      </trkpt>
      <trkpt lat="46.01295" lon="6.52878">
        <ele>1307</ele>
        <time>2019-10-13T15:24:54.000Z</time>
      </trkpt>
      <trkpt lat="46.01295" lon="6.52883">
        <ele>1306.5999755859</ele>
        <time>2019-10-13T15:24:58.000Z</time>
      </trkpt>
      <trkpt lat="46.01296" lon="6.52885">
        <ele>1306.4000244141</ele>
        <time>2019-10-13T15:24:59.000Z</time>
      </trkpt>
      <trkpt lat="46.01296" lon="6.52891">
        <ele>1305.4000244141</ele>
        <time>2019-10-13T15:25:02.000Z</time>
      </trkpt>
      <trkpt lat="46.01295" lon="6.52893">
        <ele>1305.4000244141</ele>
        <time>2019-10-13T15:25:03.000Z</time>
      </trkpt>
      <trkpt lat="46.01294" lon="6.52896">
        <ele>1305</ele>
        <time>2019-10-13T15:25:06.000Z</time>
      </trkpt>
      <trkpt lat="46.01294" lon="6.52899">
        <ele>1304.8000488281</ele>
        <time>2019-10-13T15:25:09.000Z</time>
      </trkpt>
      <trkpt lat="46.01294" lon="6.52899">
        <ele>1304.5999755859</ele>
        <time>2019-10-13T15:25:10.000Z</time>
      </trkpt>
      <trkpt lat="46.01293" lon="6.52901">
        <ele>1304.4000244141</ele>
        <time>2019-10-13T15:25:12.000Z</time>
      </trkpt>
      <trkpt lat="46.01293" lon="6.52902">
        <ele>1304.4000244141</ele>
        <time>2019-10-13T15:25:13.000Z</time>
      </trkpt>
      <trkpt lat="46.01293" lon="6.52906">
        <ele>1303.8000488281</ele>
        <time>2019-10-13T15:25:16.000Z</time>
      </trkpt>
      <trkpt lat="46.01292" lon="6.5291">
        <ele>1303.4000244141</ele>
        <time>2019-10-13T15:25:20.000Z</time>
      </trkpt>
      <trkpt lat="46.01291" lon="6.52914">
        <ele>1303.1999511719</ele>
        <time>2019-10-13T15:25:22.000Z</time>
      </trkpt>
      <trkpt lat="46.01291" lon="6.52915">
        <ele>1302.8000488281</ele>
        <time>2019-10-13T15:25:23.000Z</time>
      </trkpt>
      <trkpt lat="46.01292" lon="6.52917">
        <ele>1302</ele>
        <time>2019-10-13T15:25:25.000Z</time>
      </trkpt>
      <trkpt lat="46.01292" lon="6.5292">
        <ele>1301.5999755859</ele>
        <time>2019-10-13T15:25:27.000Z</time>
      </trkpt>
      <trkpt lat="46.01293" lon="6.52924">
        <ele>1301.1999511719</ele>
        <time>2019-10-13T15:25:30.000Z</time>
      </trkpt>
      <trkpt lat="46.01293" lon="6.52926">
        <ele>1300.8000488281</ele>
        <time>2019-10-13T15:25:32.000Z</time>
      </trkpt>
      <trkpt lat="46.01294" lon="6.52927">
        <ele>1300.1999511719</ele>
        <time>2019-10-13T15:25:33.000Z</time>
      </trkpt>
      <trkpt lat="46.01296" lon="6.5293">
        <ele>1299.5999755859</ele>
        <time>2019-10-13T15:25:35.000Z</time>
      </trkpt>
      <trkpt lat="46.013" lon="6.52936">
        <ele>1299</ele>
        <time>2019-10-13T15:25:39.000Z</time>
      </trkpt>
      <trkpt lat="46.01301" lon="6.52939">
        <ele>1298.4000244141</ele>
        <time>2019-10-13T15:25:40.000Z</time>
      </trkpt>
      <trkpt lat="46.01302" lon="6.52941">
        <ele>1298</ele>
        <time>2019-10-13T15:25:41.000Z</time>
      </trkpt>
      <trkpt lat="46.01302" lon="6.52944">
        <ele>1297.8000488281</ele>
        <time>2019-10-13T15:25:42.000Z</time>
      </trkpt>
      <trkpt lat="46.01303" lon="6.52949">
        <ele>1297.5999755859</ele>
        <time>2019-10-13T15:25:45.000Z</time>
      </trkpt>
      <trkpt lat="46.01304" lon="6.52954">
        <ele>1297.4000244141</ele>
        <time>2019-10-13T15:25:47.000Z</time>
      </trkpt>
      <trkpt lat="46.01304" lon="6.52956">
        <ele>1297</ele>
        <time>2019-10-13T15:25:48.000Z</time>
      </trkpt>
      <trkpt lat="46.01304" lon="6.52959">
        <ele>1296.4000244141</ele>
        <time>2019-10-13T15:25:49.000Z</time>
      </trkpt>
      <trkpt lat="46.01304" lon="6.52961">
        <ele>1296</ele>
        <time>2019-10-13T15:25:50.000Z</time>
      </trkpt>
      <trkpt lat="46.01305" lon="6.52967">
        <ele>1295.1999511719</ele>
        <time>2019-10-13T15:25:52.000Z</time>
      </trkpt>
      <trkpt lat="46.01305" lon="6.52969">
        <ele>1295</ele>
        <time>2019-10-13T15:25:53.000Z</time>
      </trkpt>
      <trkpt lat="46.01305" lon="6.52975">
        <ele>1294.4000244141</ele>
        <time>2019-10-13T15:25:55.000Z</time>
      </trkpt>
      <trkpt lat="46.01306" lon="6.52979">
        <ele>1293.4000244141</ele>
        <time>2019-10-13T15:25:57.000Z</time>
      </trkpt>
      <trkpt lat="46.01307" lon="6.52984">
        <ele>1292.5999755859</ele>
        <time>2019-10-13T15:25:59.000Z</time>
      </trkpt>
      <trkpt lat="46.01307" lon="6.52987">
        <ele>1292.4000244141</ele>
        <time>2019-10-13T15:26:00.000Z</time>
      </trkpt>
      <trkpt lat="46.01307" lon="6.53002">
        <ele>1291.4000244141</ele>
        <time>2019-10-13T15:26:04.000Z</time>
      </trkpt>
      <trkpt lat="46.01307" lon="6.53005">
        <ele>1291</ele>
        <time>2019-10-13T15:26:05.000Z</time>
      </trkpt>
      <trkpt lat="46.01306" lon="6.53008">
        <ele>1289.5999755859</ele>
        <time>2019-10-13T15:26:08.000Z</time>
      </trkpt>
      <trkpt lat="46.01306" lon="6.53009">
        <ele>1289.1999511719</ele>
        <time>2019-10-13T15:26:09.000Z</time>
      </trkpt>
      <trkpt lat="46.01305" lon="6.53009">
        <ele>1289</ele>
        <time>2019-10-13T15:26:12.000Z</time>
      </trkpt>
      <trkpt lat="46.01306" lon="6.53008">
        <ele>1289</ele>
        <time>2019-10-13T15:26:14.000Z</time>
      </trkpt>
      <trkpt lat="46.01309" lon="6.53007">
        <ele>1289</ele>
        <time>2019-10-13T15:26:18.000Z</time>
      </trkpt>
      <trkpt lat="46.01309" lon="6.53006">
        <ele>1289</ele>
        <time>2019-10-13T15:26:19.000Z</time>
      </trkpt>
      <trkpt lat="46.01312" lon="6.53003">
        <ele>1288.5999755859</ele>
        <time>2019-10-13T15:26:23.000Z</time>
      </trkpt>
      <trkpt lat="46.01311" lon="6.53003">
        <ele>1288.4000244141</ele>
        <time>2019-10-13T15:26:24.000Z</time>
      </trkpt>
      <trkpt lat="46.01313" lon="6.53003">
        <ele>1288</ele>
        <time>2019-10-13T15:26:30.000Z</time>
      </trkpt>
      <trkpt lat="46.01314" lon="6.53003">
        <ele>1288.1999511719</ele>
        <time>2019-10-13T15:26:33.000Z</time>
      </trkpt>
      <trkpt lat="46.01314" lon="6.53005">
        <ele>1287.4000244141</ele>
        <time>2019-10-13T15:26:35.000Z</time>
      </trkpt>
      <trkpt lat="46.01315" lon="6.53005">
        <ele>1287.1999511719</ele>
        <time>2019-10-13T15:26:36.000Z</time>
      </trkpt>
      <trkpt lat="46.01317" lon="6.53009">
        <ele>1286.1999511719</ele>
        <time>2019-10-13T15:26:40.000Z</time>
      </trkpt>
      <trkpt lat="46.01318" lon="6.53013">
        <ele>1285.5999755859</ele>
        <time>2019-10-13T15:26:42.000Z</time>
      </trkpt>
      <trkpt lat="46.01319" lon="6.53014">
        <ele>1285.4000244141</ele>
        <time>2019-10-13T15:26:43.000Z</time>
      </trkpt>
      <trkpt lat="46.01318" lon="6.5302">
        <ele>1285.1999511719</ele>
        <time>2019-10-13T15:26:45.000Z</time>
      </trkpt>
      <trkpt lat="46.01318" lon="6.53022">
        <ele>1285</ele>
        <time>2019-10-13T15:26:46.000Z</time>
      </trkpt>
      <trkpt lat="46.01317" lon="6.53025">
        <ele>1284.8000488281</ele>
        <time>2019-10-13T15:26:49.000Z</time>
      </trkpt>
      <trkpt lat="46.01317" lon="6.53026">
        <ele>1284.8000488281</ele>
        <time>2019-10-13T15:26:51.000Z</time>
      </trkpt>
      <trkpt lat="46.01317" lon="6.53027">
        <ele>1284.8000488281</ele>
        <time>2019-10-13T15:26:52.000Z</time>
      </trkpt>
      <trkpt lat="46.01318" lon="6.53026">
        <ele>1284.5999755859</ele>
        <time>2019-10-13T15:26:54.000Z</time>
      </trkpt>
      <trkpt lat="46.01318" lon="6.53025">
        <ele>1284.5999755859</ele>
        <time>2019-10-13T15:26:55.000Z</time>
      </trkpt>
      <trkpt lat="46.0132" lon="6.53024">
        <ele>1284.1999511719</ele>
        <time>2019-10-13T15:26:57.000Z</time>
      </trkpt>
      <trkpt lat="46.0132" lon="6.53024">
        <ele>1283.8000488281</ele>
        <time>2019-10-13T15:26:58.000Z</time>
      </trkpt>
      <trkpt lat="46.01321" lon="6.53024">
        <ele>1283.5999755859</ele>
        <time>2019-10-13T15:26:59.000Z</time>
      </trkpt>
      <trkpt lat="46.01323" lon="6.53024">
        <ele>1283.1999511719</ele>
        <time>2019-10-13T15:27:03.000Z</time>
      </trkpt>
      <trkpt lat="46.01325" lon="6.53021">
        <ele>1283</ele>
        <time>2019-10-13T15:27:06.000Z</time>
      </trkpt>
      <trkpt lat="46.01331" lon="6.53017">
        <ele>1283</ele>
        <time>2019-10-13T15:27:11.000Z</time>
      </trkpt>
      <trkpt lat="46.01331" lon="6.53017">
        <ele>1282.5999755859</ele>
        <time>2019-10-13T15:27:12.000Z</time>
      </trkpt>
      <trkpt lat="46.01332" lon="6.53017">
        <ele>1282</ele>
        <time>2019-10-13T15:27:13.000Z</time>
      </trkpt>
      <trkpt lat="46.01336" lon="6.53018">
        <ele>1280.8000488281</ele>
        <time>2019-10-13T15:27:15.000Z</time>
      </trkpt>
      <trkpt lat="46.01338" lon="6.53019">
        <ele>1280.4000244141</ele>
        <time>2019-10-13T15:27:16.000Z</time>
      </trkpt>
      <trkpt lat="46.0134" lon="6.53017">
        <ele>1280</ele>
        <time>2019-10-13T15:27:17.000Z</time>
      </trkpt>
      <trkpt lat="46.01342" lon="6.53016">
        <ele>1279.5999755859</ele>
        <time>2019-10-13T15:27:18.000Z</time>
      </trkpt>
      <trkpt lat="46.01346" lon="6.53012">
        <ele>1279.1999511719</ele>
        <time>2019-10-13T15:27:21.000Z</time>
      </trkpt>
      <trkpt lat="46.01348" lon="6.53013">
        <ele>1278.4000244141</ele>
        <time>2019-10-13T15:27:23.000Z</time>
      </trkpt>
      <trkpt lat="46.01348" lon="6.53013">
        <ele>1278.1999511719</ele>
        <time>2019-10-13T15:27:24.000Z</time>
      </trkpt>
      <trkpt lat="46.01348" lon="6.53014">
        <ele>1278</ele>
        <time>2019-10-13T15:27:25.000Z</time>
      </trkpt>
      <trkpt lat="46.0135" lon="6.53017">
        <ele>1277.8000488281</ele>
        <time>2019-10-13T15:27:26.000Z</time>
      </trkpt>
      <trkpt lat="46.01351" lon="6.53021">
        <ele>1277.1999511719</ele>
        <time>2019-10-13T15:27:28.000Z</time>
      </trkpt>
      <trkpt lat="46.01352" lon="6.53024">
        <ele>1276.5999755859</ele>
        <time>2019-10-13T15:27:29.000Z</time>
      </trkpt>
      <trkpt lat="46.01353" lon="6.53026">
        <ele>1276</ele>
        <time>2019-10-13T15:27:30.000Z</time>
      </trkpt>
      <trkpt lat="46.01353" lon="6.53028">
        <ele>1275.5999755859</ele>
        <time>2019-10-13T15:27:31.000Z</time>
      </trkpt>
      <trkpt lat="46.01353" lon="6.53032">
        <ele>1275.1999511719</ele>
        <time>2019-10-13T15:27:33.000Z</time>
      </trkpt>
      <trkpt lat="46.01351" lon="6.53035">
        <ele>1274.8000488281</ele>
        <time>2019-10-13T15:27:35.000Z</time>
      </trkpt>
      <trkpt lat="46.0135" lon="6.53039">
        <ele>1273.8000488281</ele>
        <time>2019-10-13T15:27:38.000Z</time>
      </trkpt>
      <trkpt lat="46.01351" lon="6.53041">
        <ele>1273.4000244141</ele>
        <time>2019-10-13T15:27:39.000Z</time>
      </trkpt>
      <trkpt lat="46.01351" lon="6.53043">
        <ele>1273</ele>
        <time>2019-10-13T15:27:40.000Z</time>
      </trkpt>
      <trkpt lat="46.01353" lon="6.53045">
        <ele>1272.5999755859</ele>
        <time>2019-10-13T15:27:41.000Z</time>
      </trkpt>
      <trkpt lat="46.01355" lon="6.53049">
        <ele>1271.1999511719</ele>
        <time>2019-10-13T15:27:44.000Z</time>
      </trkpt>
      <trkpt lat="46.01358" lon="6.53055">
        <ele>1270.5999755859</ele>
        <time>2019-10-13T15:27:46.000Z</time>
      </trkpt>
      <trkpt lat="46.01359" lon="6.53057">
        <ele>1270.1999511719</ele>
        <time>2019-10-13T15:27:47.000Z</time>
      </trkpt>
      <trkpt lat="46.01361" lon="6.53062">
        <ele>1270</ele>
        <time>2019-10-13T15:27:50.000Z</time>
      </trkpt>
      <trkpt lat="46.01362" lon="6.53061">
        <ele>1270</ele>
        <time>2019-10-13T15:27:51.000Z</time>
      </trkpt>
      <trkpt lat="46.01364" lon="6.53063">
        <ele>1270</ele>
        <time>2019-10-13T15:27:54.000Z</time>
      </trkpt>
      <trkpt lat="46.01365" lon="6.53064">
        <ele>1270.1999511719</ele>
        <time>2019-10-13T15:27:55.000Z</time>
      </trkpt>
      <trkpt lat="46.01366" lon="6.53065">
        <ele>1270.4000244141</ele>
        <time>2019-10-13T15:27:57.000Z</time>
      </trkpt>
      <trkpt lat="46.01368" lon="6.53069">
        <ele>1270.1999511719</ele>
        <time>2019-10-13T15:27:59.000Z</time>
      </trkpt>
      <trkpt lat="46.01369" lon="6.53071">
        <ele>1270.4000244141</ele>
        <time>2019-10-13T15:28:01.000Z</time>
      </trkpt>
      <trkpt lat="46.01371" lon="6.53072">
        <ele>1270.4000244141</ele>
        <time>2019-10-13T15:28:02.000Z</time>
      </trkpt>
      <trkpt lat="46.01376" lon="6.53079">
        <ele>1270.8000488281</ele>
        <time>2019-10-13T15:28:07.000Z</time>
      </trkpt>
      <trkpt lat="46.01376" lon="6.5308">
        <ele>1271.1999511719</ele>
        <time>2019-10-13T15:28:08.000Z</time>
      </trkpt>
      <trkpt lat="46.01377" lon="6.5308">
        <ele>1271.1999511719</ele>
        <time>2019-10-13T15:28:09.000Z</time>
      </trkpt>
      <trkpt lat="46.0138" lon="6.53085">
        <ele>1271.4000244141</ele>
        <time>2019-10-13T15:28:15.000Z</time>
      </trkpt>
      <trkpt lat="46.01383" lon="6.53089">
        <ele>1271</ele>
        <time>2019-10-13T15:28:19.000Z</time>
      </trkpt>
      <trkpt lat="46.01383" lon="6.53089">
        <ele>1271</ele>
        <time>2019-10-13T15:28:21.000Z</time>
      </trkpt>
      <trkpt lat="46.01383" lon="6.5309">
        <ele>1271</ele>
        <time>2019-10-13T15:28:23.000Z</time>
      </trkpt>
      <trkpt lat="46.01381" lon="6.53091">
        <ele>1271</ele>
        <time>2019-10-13T15:28:29.000Z</time>
      </trkpt>
      <trkpt lat="46.01381" lon="6.53088">
        <ele>1270.1999511719</ele>
        <time>2019-10-13T15:28:33.000Z</time>
      </trkpt>
      <trkpt lat="46.0138" lon="6.53088">
        <ele>1269.8000488281</ele>
        <time>2019-10-13T15:28:34.000Z</time>
      </trkpt>
      <trkpt lat="46.01379" lon="6.53086">
        <ele>1269</ele>
        <time>2019-10-13T15:28:38.000Z</time>
      </trkpt>
      <trkpt lat="46.01378" lon="6.53085">
        <ele>1269</ele>
        <time>2019-10-13T15:28:40.000Z</time>
      </trkpt>
      <trkpt lat="46.01376" lon="6.53085">
        <ele>1268.8000488281</ele>
        <time>2019-10-13T15:28:43.000Z</time>
      </trkpt>
      <trkpt lat="46.01372" lon="6.53084">
        <ele>1268.4000244141</ele>
        <time>2019-10-13T15:28:46.000Z</time>
      </trkpt>
      <trkpt lat="46.01367" lon="6.53082">
        <ele>1267.4000244141</ele>
        <time>2019-10-13T15:28:50.000Z</time>
      </trkpt>
      <trkpt lat="46.01363" lon="6.5308">
        <ele>1266.1999511719</ele>
        <time>2019-10-13T15:28:53.000Z</time>
      </trkpt>
      <trkpt lat="46.01362" lon="6.5308">
        <ele>1265.8000488281</ele>
        <time>2019-10-13T15:28:54.000Z</time>
      </trkpt>
      <trkpt lat="46.01361" lon="6.53077">
        <ele>1265.5999755859</ele>
        <time>2019-10-13T15:28:57.000Z</time>
      </trkpt>
      <trkpt lat="46.0136" lon="6.53074">
        <ele>1265.5999755859</ele>
        <time>2019-10-13T15:29:00.000Z</time>
      </trkpt>
      <trkpt lat="46.0136" lon="6.53074">
        <ele>1265.5999755859</ele>
        <time>2019-10-13T15:29:01.000Z</time>
      </trkpt>
      <trkpt lat="46.01361" lon="6.53072">
        <ele>1265</ele>
        <time>2019-10-13T15:29:04.000Z</time>
      </trkpt>
      <trkpt lat="46.01361" lon="6.53072">
        <ele>1264.8000488281</ele>
        <time>2019-10-13T15:29:05.000Z</time>
      </trkpt>
      <trkpt lat="46.0136" lon="6.53072">
        <ele>1264.8000488281</ele>
        <time>2019-10-13T15:29:09.000Z</time>
      </trkpt>
      <trkpt lat="46.0136" lon="6.53079">
        <ele>1265.1999511719</ele>
        <time>2019-10-13T15:29:15.000Z</time>
      </trkpt>
      <trkpt lat="46.01365" lon="6.53088">
        <ele>1264.4000244141</ele>
        <time>2019-10-13T15:29:22.000Z</time>
      </trkpt>
      <trkpt lat="46.01366" lon="6.5309">
        <ele>1264.1999511719</ele>
        <time>2019-10-13T15:29:23.000Z</time>
      </trkpt>
      <trkpt lat="46.0137" lon="6.53095">
        <ele>1264</ele>
        <time>2019-10-13T15:29:26.000Z</time>
      </trkpt>
      <trkpt lat="46.01374" lon="6.53099">
        <ele>1264</ele>
        <time>2019-10-13T15:29:28.000Z</time>
      </trkpt>
      <trkpt lat="46.01376" lon="6.53101">
        <ele>1263.8000488281</ele>
        <time>2019-10-13T15:29:29.000Z</time>
      </trkpt>
      <trkpt lat="46.01379" lon="6.53106">
        <ele>1263.4000244141</ele>
        <time>2019-10-13T15:29:32.000Z</time>
      </trkpt>
      <trkpt lat="46.01378" lon="6.53112">
        <ele>1263</ele>
        <time>2019-10-13T15:29:35.000Z</time>
      </trkpt>
      <trkpt lat="46.01379" lon="6.5312">
        <ele>1262.8000488281</ele>
        <time>2019-10-13T15:29:39.000Z</time>
      </trkpt>
      <trkpt lat="46.01384" lon="6.53123">
        <ele>1262.4000244141</ele>
        <time>2019-10-13T15:29:42.000Z</time>
      </trkpt>
      <trkpt lat="46.01388" lon="6.53125">
        <ele>1261.5999755859</ele>
        <time>2019-10-13T15:29:44.000Z</time>
      </trkpt>
      <trkpt lat="46.01394" lon="6.53132">
        <ele>1260.8000488281</ele>
        <time>2019-10-13T15:29:48.000Z</time>
      </trkpt>
      <trkpt lat="46.01404" lon="6.53139">
        <ele>1260.4000244141</ele>
        <time>2019-10-13T15:29:54.000Z</time>
      </trkpt>
      <trkpt lat="46.01406" lon="6.5314">
        <ele>1260</ele>
        <time>2019-10-13T15:29:55.000Z</time>
      </trkpt>
      <trkpt lat="46.01412" lon="6.53145">
        <ele>1259.4000244141</ele>
        <time>2019-10-13T15:30:00.000Z</time>
      </trkpt>
      <trkpt lat="46.01414" lon="6.53147">
        <ele>1258.8000488281</ele>
        <time>2019-10-13T15:30:02.000Z</time>
      </trkpt>
      <trkpt lat="46.01416" lon="6.53149">
        <ele>1258.1999511719</ele>
        <time>2019-10-13T15:30:04.000Z</time>
      </trkpt>
      <trkpt lat="46.01423" lon="6.53152">
        <ele>1257.5999755859</ele>
        <time>2019-10-13T15:30:09.000Z</time>
      </trkpt>
      <trkpt lat="46.01429" lon="6.53155">
        <ele>1257</ele>
        <time>2019-10-13T15:30:13.000Z</time>
      </trkpt>
      <trkpt lat="46.0143" lon="6.53156">
        <ele>1256.5999755859</ele>
        <time>2019-10-13T15:30:14.000Z</time>
      </trkpt>
      <trkpt lat="46.01432" lon="6.53156">
        <ele>1256.1999511719</ele>
        <time>2019-10-13T15:30:15.000Z</time>
      </trkpt>
      <trkpt lat="46.01433" lon="6.53157">
        <ele>1256.1999511719</ele>
        <time>2019-10-13T15:30:16.000Z</time>
      </trkpt>
      <trkpt lat="46.01435" lon="6.53158">
        <ele>1256</ele>
        <time>2019-10-13T15:30:17.000Z</time>
      </trkpt>
      <trkpt lat="46.01437" lon="6.53159">
        <ele>1255.8000488281</ele>
        <time>2019-10-13T15:30:18.000Z</time>
      </trkpt>
      <trkpt lat="46.0144" lon="6.5316">
        <ele>1255.8000488281</ele>
        <time>2019-10-13T15:30:20.000Z</time>
      </trkpt>
      <trkpt lat="46.01447" lon="6.53166">
        <ele>1255.4000244141</ele>
        <time>2019-10-13T15:30:26.000Z</time>
      </trkpt>
      <trkpt lat="46.01449" lon="6.5317">
        <ele>1255.4000244141</ele>
        <time>2019-10-13T15:30:29.000Z</time>
      </trkpt>
      <trkpt lat="46.01451" lon="6.53177">
        <ele>1254.5999755859</ele>
        <time>2019-10-13T15:30:33.000Z</time>
      </trkpt>
      <trkpt lat="46.01454" lon="6.53197">
        <ele>1253.5999755859</ele>
        <time>2019-10-13T15:30:41.000Z</time>
      </trkpt>
      <trkpt lat="46.01445" lon="6.53201">
        <ele>1253.5999755859</ele>
        <time>2019-10-13T15:30:45.000Z</time>
      </trkpt>
      <trkpt lat="46.01443" lon="6.53204">
        <ele>1253.4000244141</ele>
        <time>2019-10-13T15:30:48.000Z</time>
      </trkpt>
      <trkpt lat="46.01443" lon="6.53202">
        <ele>1253</ele>
        <time>2019-10-13T15:30:50.000Z</time>
      </trkpt>
      <trkpt lat="46.01444" lon="6.53201">
        <ele>1252.1999511719</ele>
        <time>2019-10-13T15:30:52.000Z</time>
      </trkpt>
      <trkpt lat="46.01443" lon="6.53201">
        <ele>1251.4000244141</ele>
        <time>2019-10-13T15:30:57.000Z</time>
      </trkpt>
      <trkpt lat="46.01443" lon="6.53199">
        <ele>1251</ele>
        <time>2019-10-13T15:30:59.000Z</time>
      </trkpt>
      <trkpt lat="46.01446" lon="6.53197">
        <ele>1250.8000488281</ele>
        <time>2019-10-13T15:31:04.000Z</time>
      </trkpt>
      <trkpt lat="46.01442" lon="6.53197">
        <ele>1250.1999511719</ele>
        <time>2019-10-13T15:31:13.000Z</time>
      </trkpt>
      <trkpt lat="46.01443" lon="6.53197">
        <ele>1250.5999755859</ele>
        <time>2019-10-13T15:31:24.000Z</time>
      </trkpt>
      <trkpt lat="46.01444" lon="6.53195">
        <ele>1250.8000488281</ele>
        <time>2019-10-13T15:31:27.000Z</time>
      </trkpt>
      <trkpt lat="46.01445" lon="6.53194">
        <ele>1250.4000244141</ele>
        <time>2019-10-13T15:31:33.000Z</time>
      </trkpt>
      <trkpt lat="46.01444" lon="6.53193">
        <ele>1250.1999511719</ele>
        <time>2019-10-13T15:31:41.000Z</time>
      </trkpt>
      <trkpt lat="46.01443" lon="6.53194">
        <ele>1250.1999511719</ele>
        <time>2019-10-13T15:31:43.000Z</time>
      </trkpt>
      <trkpt lat="46.01444" lon="6.53195">
        <ele>1234.4000244141</ele>
        <time>2019-10-13T15:31:49.000Z</time>
      </trkpt>
      <trkpt lat="46.01458" lon="6.53213">
        <ele>1101.3</ele>
      </trkpt>
    </trkseg>
  </trk>
</gpx>